<?xml version='1.0' encoding='UTF-8'?><gpx version="1.1" creator="JPX - https://github.com/jenetics/jpx" xmlns="http://www.topografix.com/GPX/1/1"><trk><trkseg><trkpt lat="43.9662427757509" lon="12.763737336076264"><ele>1.0</ele><time>2026-04-25T05:25:28.999Z</time></trkpt><trkpt lat="43.96619596364116" lon="12.763630501417284"><ele>0.9999999999999999</ele><time>2026-04-25T05:25:30.999Z</time></trkpt><trkpt lat="43.96613286134075" lon="12.76363124808126"><ele>1.0</ele><time>2026-04-25T05:26:14.999Z</time></trkpt><trkpt lat="43.96611609609449" lon="12.7635346606279"><ele>1.0</ele><time>2026-04-25T05:26:29.999Z</time></trkpt><trkpt lat="43.966115121269716" lon="12.76344184492033"><ele>0.9999999999999999</ele><time>2026-04-25T05:26:38.999Z</time></trkpt><trkpt lat="43.96611104509698" lon="12.763344049727282"><ele>1.0</ele><time>2026-04-25T05:26:45.999Z</time></trkpt><trkpt lat="43.966148858355034" lon="12.763422371567803"><ele>1.0</ele><time>2026-04-25T05:30:38Z</time></trkpt><trkpt lat="43.966162556223246" lon="12.763516330440538"><ele>1.0</ele><time>2026-04-25T05:30:47Z</time></trkpt><trkpt lat="43.96614495134108" lon="12.763601839502874"><ele>0.9999999999999999</ele><time>2026-04-25T05:30:56Z</time></trkpt><trkpt lat="43.96612623006078" lon="12.763692724711325"><ele>1.0</ele><time>2026-04-25T05:38:00Z</time></trkpt><trkpt lat="43.96611538840669" lon="12.763784648376719"><ele>1.0</ele><time>2026-04-25T05:38:09Z</time></trkpt><trkpt lat="43.966115514509646" lon="12.76388319268999"><ele>0.9999999999999999</ele><time>2026-04-25T05:38:23Z</time></trkpt><trkpt lat="43.966096052792544" lon="12.763971776748326"><ele>1.0</ele><time>2026-04-25T05:38:30Z</time></trkpt><trkpt lat="43.9660916409382" lon="12.764061600876644"><ele>1.0</ele><time>2026-04-25T05:38:38Z</time></trkpt><trkpt lat="43.96611741553227" lon="12.764146716658676"><ele>1.0</ele><time>2026-04-25T05:38:47Z</time></trkpt><trkpt lat="43.96617047050104" lon="12.764094088944216"><ele>0.9999999999999999</ele><time>2026-04-25T05:40:10Z</time></trkpt><trkpt lat="43.966173674570136" lon="12.76400190997083"><ele>1.0</ele><time>2026-04-25T05:46:01.998Z</time></trkpt><trkpt lat="43.96614281876734" lon="12.763910410371926"><ele>1.0</ele><time>2026-04-25T05:46:09.999Z</time></trkpt><trkpt lat="43.96613722805917" lon="12.763815876835567"><ele>0.9999999999999999</ele><time>2026-04-25T05:46:16.999Z</time></trkpt><trkpt lat="43.96612984122908" lon="12.763714048616274"><ele>1.0</ele><time>2026-04-25T05:46:24.999Z</time></trkpt><trkpt lat="43.96614932835119" lon="12.763611202367134"><ele>1.0</ele><time>2026-04-25T05:46:49.999Z</time></trkpt><trkpt lat="43.966127795145255" lon="12.763704517814778"><ele>1.0</ele><time>2026-04-25T05:47:08.999Z</time></trkpt><trkpt lat="43.96612183097502" lon="12.76379324744487"><ele>0.9999999999999999</ele><time>2026-04-25T05:47:14.999Z</time></trkpt><trkpt lat="43.96610329743632" lon="12.763885237539217"><ele>1.0</ele><time>2026-04-25T05:47:20.999Z</time></trkpt><trkpt lat="43.966086851681965" lon="12.76398067720298"><ele>1.0</ele><time>2026-04-25T05:47:26.999Z</time></trkpt><trkpt lat="43.96608304768561" lon="12.764071052968198"><ele>0.9999999999999999</ele><time>2026-04-25T05:47:32.999Z</time></trkpt><trkpt lat="43.966075852658555" lon="12.76416001826304"><ele>1.0</ele><time>2026-04-25T05:47:39.999Z</time></trkpt><trkpt lat="43.96617708766604" lon="12.764235071189573"><ele>1.0</ele><time>2026-04-25T06:04:54.999Z</time></trkpt><trkpt lat="43.96620154993723" lon="12.764343587008081"><ele>1.0</ele><time>2026-04-25T06:04:58Z</time></trkpt><trkpt lat="43.966236165662345" lon="12.764431618971853"><ele>1.0</ele><time>2026-04-25T06:05:00Z</time></trkpt><trkpt lat="43.96616550488107" lon="12.7644424663077"><ele>1.0</ele><time>2026-04-25T06:05:01Z</time></trkpt><trkpt lat="43.96633259294488" lon="12.7642608740965"><ele>1.0</ele><time>2026-04-25T06:05:02Z</time></trkpt><trkpt lat="43.96627286137444" lon="12.764229216565758"><ele>1.0</ele><time>2026-04-25T06:05:04Z</time></trkpt><trkpt lat="43.96614504884571" lon="12.76415544173351"><ele>1.0</ele><time>2026-04-25T06:05:06Z</time></trkpt><trkpt lat="43.96608842765902" lon="12.764196745376378"><ele>0.9999999999999999</ele><time>2026-04-25T06:05:18Z</time></trkpt><trkpt lat="43.966076246539416" lon="12.76410416381535"><ele>1.0</ele><time>2026-04-25T06:05:55Z</time></trkpt><trkpt lat="43.966089550332825" lon="12.764013202481324"><ele>1.0</ele><time>2026-04-25T06:06:02Z</time></trkpt><trkpt lat="43.966092962279625" lon="12.76392527218176"><ele>0.9999999999999999</ele><time>2026-04-25T06:06:10Z</time></trkpt><trkpt lat="43.96610278349394" lon="12.763837956163018"><ele>1.0</ele><time>2026-04-25T06:06:18Z</time></trkpt><trkpt lat="43.966113281515874" lon="12.76374279743314"><ele>1.0</ele><time>2026-04-25T06:06:27Z</time></trkpt><trkpt lat="43.96613045940496" lon="12.763641496085588"><ele>1.0</ele><time>2026-04-25T06:06:51.999Z</time></trkpt><trkpt lat="43.966118652947124" lon="12.763729724114002"><ele>0.9999999999999999</ele><time>2026-04-25T06:07:27Z</time></trkpt><trkpt lat="43.966102684725804" lon="12.763820772092073"><ele>1.0</ele><time>2026-04-25T06:07:38.999Z</time></trkpt><trkpt lat="43.96609792460171" lon="12.763920495673066"><ele>1.0</ele><time>2026-04-25T06:07:47.999Z</time></trkpt><trkpt lat="43.9660915092794" lon="12.764013902560118"><ele>0.9999999999999999</ele><time>2026-04-25T06:07:56.999Z</time></trkpt><trkpt lat="43.966097568120404" lon="12.764104915442832"><ele>1.0</ele><time>2026-04-25T06:08:33.999Z</time></trkpt><trkpt lat="43.96606966986191" lon="12.764239556844027"><ele>1.0</ele><time>2026-04-25T06:26:11Z</time></trkpt><trkpt lat="43.966115075980774" lon="12.764175373486982"><ele>1.0</ele><time>2026-04-25T06:27:27Z</time></trkpt><trkpt lat="43.96608336042469" lon="12.764095766383388"><ele>0.9999999999999999</ele><time>2026-04-25T06:58:44.999Z</time></trkpt><trkpt lat="43.96608173490578" lon="12.763996011261023"><ele>1.0</ele><time>2026-04-25T07:00:39.999Z</time></trkpt><trkpt lat="43.966095338034656" lon="12.763903068983906"><ele>1.0</ele><time>2026-04-25T07:00:46.999Z</time></trkpt><trkpt lat="43.96610245608826" lon="12.763811827031907"><ele>0.9999999999999999</ele><time>2026-04-25T07:00:53.999Z</time></trkpt><trkpt lat="43.966114927479275" lon="12.76372183549077"><ele>1.0</ele><time>2026-04-25T07:01:00.999Z</time></trkpt><trkpt lat="43.96613281918931" lon="12.763627389653937"><ele>1.0</ele><time>2026-04-25T07:01:08.999Z</time></trkpt><trkpt lat="43.96615592999558" lon="12.763537670332507"><ele>1.1428571428571428</ele><time>2026-04-25T07:01:18.999Z</time></trkpt><trkpt lat="43.96614454515991" lon="12.763450589317667"><ele>1.2857142857142856</ele><time>2026-04-25T07:01:25.999Z</time></trkpt><trkpt lat="43.96613198061268" lon="12.763360262541637"><ele>1.4285714285714284</ele><time>2026-04-25T07:01:32.999Z</time></trkpt><trkpt lat="43.96613175003291" lon="12.763265255490312"><ele>1.5714285714285714</ele><time>2026-04-25T07:01:40Z</time></trkpt><trkpt lat="43.96610539036193" lon="12.763155430674292"><ele>1.714285714285714</ele><time>2026-04-25T07:01:58Z</time></trkpt><trkpt lat="43.966147724928426" lon="12.763225222022529"><ele>1.857142857142857</ele><time>2026-04-25T07:04:14Z</time></trkpt><trkpt lat="43.966154493861744" lon="12.763322331459365"><ele>2.0</ele><time>2026-04-25T07:04:23Z</time></trkpt><trkpt lat="43.96611511759844" lon="12.763432753243585"><ele>2.0</ele><time>2026-04-25T07:04:41Z</time></trkpt><trkpt lat="43.966113894921634" lon="12.763525170475639"><ele>1.9999999999999998</ele><time>2026-04-25T07:04:52.999Z</time></trkpt><trkpt lat="43.96617157296779" lon="12.763576960880103"><ele>2.0</ele><time>2026-04-25T07:05:09.999Z</time></trkpt><trkpt lat="43.96614430964098" lon="12.7634844131555"><ele>2.0</ele><time>2026-04-25T07:11:59.999Z</time></trkpt><trkpt lat="43.96613620253576" lon="12.763392877179493"><ele>1.9999999999999998</ele><time>2026-04-25T07:12:12Z</time></trkpt><trkpt lat="43.96612557985951" lon="12.763306590715219"><ele>2.0</ele><time>2026-04-25T07:12:33Z</time></trkpt><trkpt lat="43.966132777323295" lon="12.763218442336608"><ele>2.0</ele><time>2026-04-25T07:12:45Z</time></trkpt><trkpt lat="43.96615999519203" lon="12.763120951762254"><ele>2.0</ele><time>2026-04-25T07:16:08.998Z</time></trkpt><trkpt lat="43.966179674353356" lon="12.76303150601613"><ele>1.9999999999999998</ele><time>2026-04-25T07:16:13.998Z</time></trkpt><trkpt lat="43.96619413850126" lon="12.762912647898343"><ele>2.0</ele><time>2026-04-25T07:16:16.998Z</time></trkpt><trkpt lat="43.96619747105208" lon="12.76280189669381"><ele>2.0</ele><time>2026-04-25T07:16:19Z</time></trkpt><trkpt lat="43.96620946515986" lon="12.762690944021656"><ele>1.9999999999999998</ele><time>2026-04-25T07:16:21Z</time></trkpt><trkpt lat="43.9662419084747" lon="12.762611190892944"><ele>2.0</ele><time>2026-04-25T07:16:23Z</time></trkpt><trkpt lat="43.966224130441006" lon="12.76252027426365"><ele>2.0</ele><time>2026-04-25T07:16:56.999Z</time></trkpt><trkpt lat="43.96616389152869" lon="12.762393477524734"><ele>2.2</ele><time>2026-04-25T07:16:59.999Z</time></trkpt><trkpt lat="43.966098354734434" lon="12.762249353688217"><ele>2.4000000000000004</ele><time>2026-04-25T07:17:01.999Z</time></trkpt><trkpt lat="43.966052564606414" lon="12.762141513798344"><ele>2.5999999999999996</ele><time>2026-04-25T07:17:02.999Z</time></trkpt><trkpt lat="43.96601115619471" lon="12.762016578636674"><ele>2.8</ele><time>2026-04-25T07:17:03.999Z</time></trkpt><trkpt lat="43.96599607196466" lon="12.761894724352597"><ele>3.0</ele><time>2026-04-25T07:17:04.999Z</time></trkpt><trkpt lat="43.9660037779187" lon="12.761750068050548"><ele>3.666666666666667</ele><time>2026-04-25T07:17:05.999Z</time></trkpt><trkpt lat="43.96600196561284" lon="12.761583094612444"><ele>4.333333333333334</ele><time>2026-04-25T07:17:06.999Z</time></trkpt><trkpt lat="43.9659636309316" lon="12.761503017140734"><ele>5.0</ele><time>2026-04-25T07:17:12.999Z</time></trkpt><trkpt lat="43.96589454798696" lon="12.761573595052154"><ele>5.666666666666667</ele><time>2026-04-25T07:17:14.999Z</time></trkpt><trkpt lat="43.965872964451236" lon="12.761672007778031"><ele>6.333333333333334</ele><time>2026-04-25T07:17:16.999Z</time></trkpt><trkpt lat="43.96585210939707" lon="12.761759205771545"><ele>7.0</ele><time>2026-04-25T07:21:17.999Z</time></trkpt><trkpt lat="43.96582057820924" lon="12.761902029367617"><ele>8.666666666666668</ele><time>2026-04-25T07:21:19.999Z</time></trkpt><trkpt lat="43.96579954472382" lon="12.762087579699822"><ele>10.333333333333334</ele><time>2026-04-25T07:21:21.999Z</time></trkpt><trkpt lat="43.965773269370295" lon="12.762177751924103"><ele>12.0</ele><time>2026-04-25T07:21:22.999Z</time></trkpt><trkpt lat="43.96574800959318" lon="12.762271392104699"><ele>13.666666666666668</ele><time>2026-04-25T07:21:23.999Z</time></trkpt><trkpt lat="43.965724998892775" lon="12.76236392566086"><ele>15.333333333333334</ele><time>2026-04-25T07:21:24.999Z</time></trkpt><trkpt lat="43.96570264597622" lon="12.762457701137937"><ele>17.0</ele><time>2026-04-25T07:21:25.999Z</time></trkpt><trkpt lat="43.965680493430824" lon="12.762550908446533"><ele>17.0</ele><time>2026-04-25T07:21:26.999Z</time></trkpt><trkpt lat="43.96565684788569" lon="12.762641658564204"><ele>17.0</ele><time>2026-04-25T07:21:27.999Z</time></trkpt><trkpt lat="43.965631036777026" lon="12.762730172397506"><ele>17.0</ele><time>2026-04-25T07:21:28.999Z</time></trkpt><trkpt lat="43.965604795583296" lon="12.76281398552502"><ele>17.0</ele><time>2026-04-25T07:21:29.999Z</time></trkpt><trkpt lat="43.96557827365891" lon="12.762894252105124"><ele>17.0</ele><time>2026-04-25T07:21:30.999Z</time></trkpt><trkpt lat="43.96555224047509" lon="12.762976846295654"><ele>17.0</ele><time>2026-04-25T07:21:32.999Z</time></trkpt><trkpt lat="43.9653873295199" lon="12.762878177171705"><ele>17.0</ele><time>2026-04-25T07:21:34.999Z</time></trkpt><trkpt lat="43.96531112903182" lon="12.76284945798631"><ele>17.0</ele><time>2026-04-25T07:21:35.999Z</time></trkpt><trkpt lat="43.96523645935929" lon="12.762792496253738"><ele>17.0</ele><time>2026-04-25T07:21:37.999Z</time></trkpt><trkpt lat="43.965163857672444" lon="12.762781241028014"><ele>17.0</ele><time>2026-04-25T07:21:40.999Z</time></trkpt><trkpt lat="43.965233717995545" lon="12.762591233024127"><ele>17.0</ele><time>2026-04-25T07:21:42.999Z</time></trkpt><trkpt lat="43.96525989094199" lon="12.762489080194515"><ele>17.0</ele><time>2026-04-25T07:21:43.999Z</time></trkpt><trkpt lat="43.96528744292439" lon="12.762382135518303"><ele>17.0</ele><time>2026-04-25T07:21:44.999Z</time></trkpt><trkpt lat="43.965301364274964" lon="12.762265166623102"><ele>17.0</ele><time>2026-04-25T07:21:45.999Z</time></trkpt><trkpt lat="43.965346785485295" lon="12.762149080781988"><ele>17.0</ele><time>2026-04-25T07:21:46.999Z</time></trkpt><trkpt lat="43.96538024164965" lon="12.76201445961737"><ele>17.0</ele><time>2026-04-25T07:21:47.999Z</time></trkpt><trkpt lat="43.965397191347854" lon="12.761878122741216"><ele>17.4</ele><time>2026-04-25T07:21:48.999Z</time></trkpt><trkpt lat="43.96544464860977" lon="12.761758872668668"><ele>17.799999999999997</ele><time>2026-04-25T07:21:49.999Z</time></trkpt><trkpt lat="43.96547887901491" lon="12.761625156906621"><ele>18.2</ele><time>2026-04-25T07:21:50.999Z</time></trkpt><trkpt lat="43.96551449463628" lon="12.76148648373707"><ele>18.599999999999998</ele><time>2026-04-25T07:21:51.999Z</time></trkpt><trkpt lat="43.965535657961595" lon="12.7613558297738"><ele>19.0</ele><time>2026-04-25T07:21:52.999Z</time></trkpt><trkpt lat="43.96556752484911" lon="12.76122826541988"><ele>19.0</ele><time>2026-04-25T07:21:53.999Z</time></trkpt><trkpt lat="43.96560053155049" lon="12.761103309432915"><ele>19.0</ele><time>2026-04-25T07:21:54.999Z</time></trkpt><trkpt lat="43.96563646400132" lon="12.760967215886337"><ele>19.0</ele><time>2026-04-25T07:21:55.999Z</time></trkpt><trkpt lat="43.96566865438091" lon="12.760832290354625"><ele>19.0</ele><time>2026-04-25T07:21:56.999Z</time></trkpt><trkpt lat="43.96569926191505" lon="12.760697727515634"><ele>19.0</ele><time>2026-04-25T07:21:57.999Z</time></trkpt><trkpt lat="43.96573921904084" lon="12.760559065067266"><ele>19.2</ele><time>2026-04-25T07:21:58.999Z</time></trkpt><trkpt lat="43.96577884039863" lon="12.760416426554126"><ele>19.4</ele><time>2026-04-25T07:21:59.999Z</time></trkpt><trkpt lat="43.965813260279674" lon="12.760276029823252"><ele>19.6</ele><time>2026-04-25T07:22:00.999Z</time></trkpt><trkpt lat="43.96585059381852" lon="12.760126828473203"><ele>19.8</ele><time>2026-04-25T07:22:01.999Z</time></trkpt><trkpt lat="43.96589110794839" lon="12.759977164217341"><ele>20.0</ele><time>2026-04-25T07:22:02.999Z</time></trkpt><trkpt lat="43.96592922799064" lon="12.759826519759036"><ele>17.6</ele><time>2026-04-25T07:22:03.999Z</time></trkpt><trkpt lat="43.96596614828867" lon="12.759680390573799"><ele>15.2</ele><time>2026-04-25T07:22:04.999Z</time></trkpt><trkpt lat="43.965999876325135" lon="12.759537759625788"><ele>12.8</ele><time>2026-04-25T07:22:05.999Z</time></trkpt><trkpt lat="43.96603511975436" lon="12.759397055717018"><ele>10.4</ele><time>2026-04-25T07:22:06.999Z</time></trkpt><trkpt lat="43.96606735316853" lon="12.759288565593007"><ele>8.0</ele><time>2026-04-25T07:22:07.999Z</time></trkpt><trkpt lat="43.96609281635807" lon="12.759166135987824"><ele>7.999999999999999</ele><time>2026-04-25T07:22:08.999Z</time></trkpt><trkpt lat="43.96612161307891" lon="12.759040402367598"><ele>8.0</ele><time>2026-04-25T07:22:09.999Z</time></trkpt><trkpt lat="43.966152868453754" lon="12.758920271142719"><ele>8.0</ele><time>2026-04-25T07:22:10.999Z</time></trkpt><trkpt lat="43.96618307303789" lon="12.758809866958408"><ele>8.0</ele><time>2026-04-25T07:22:11.999Z</time></trkpt><trkpt lat="43.9662121194003" lon="12.758706486128792"><ele>7.999999999999999</ele><time>2026-04-25T07:22:12.999Z</time></trkpt><trkpt lat="43.966236727780654" lon="12.758605374687384"><ele>8.0</ele><time>2026-04-25T07:22:13.999Z</time></trkpt><trkpt lat="43.96626188300705" lon="12.758494329033132"><ele>8.200000000000001</ele><time>2026-04-25T07:22:14.999Z</time></trkpt><trkpt lat="43.966291264534384" lon="12.758384233179328"><ele>8.4</ele><time>2026-04-25T07:22:15.999Z</time></trkpt><trkpt lat="43.966322790453745" lon="12.75826419564171"><ele>8.600000000000001</ele><time>2026-04-25T07:22:16.999Z</time></trkpt><trkpt lat="43.96635550387688" lon="12.758139036311906"><ele>8.8</ele><time>2026-04-25T07:22:17.999Z</time></trkpt><trkpt lat="43.96638242734338" lon="12.758022358015063"><ele>9.0</ele><time>2026-04-25T07:22:18.999Z</time></trkpt><trkpt lat="43.96641674908632" lon="12.757875757663689"><ele>9.0</ele><time>2026-04-25T07:22:19.999Z</time></trkpt><trkpt lat="43.96645241811971" lon="12.75774306354564"><ele>9.0</ele><time>2026-04-25T07:22:20.999Z</time></trkpt><trkpt lat="43.966487832622796" lon="12.757611478631164"><ele>9.0</ele><time>2026-04-25T07:22:21.999Z</time></trkpt><trkpt lat="43.96652180354045" lon="12.75747466319615"><ele>9.0</ele><time>2026-04-25T07:22:22.999Z</time></trkpt><trkpt lat="43.96655778454419" lon="12.75734148854084"><ele>9.0</ele><time>2026-04-25T07:22:23.999Z</time></trkpt><trkpt lat="43.96658663279749" lon="12.757204846309623"><ele>9.0</ele><time>2026-04-25T07:22:24.999Z</time></trkpt><trkpt lat="43.966616445664634" lon="12.757066686322737"><ele>9.0</ele><time>2026-04-25T07:22:25.999Z</time></trkpt><trkpt lat="43.96664550728834" lon="12.75693929581884"><ele>9.0</ele><time>2026-04-25T07:22:26.999Z</time></trkpt><trkpt lat="43.966680093715" lon="12.75681598113344"><ele>9.0</ele><time>2026-04-25T07:22:27.999Z</time></trkpt><trkpt lat="43.96671038410252" lon="12.756691010974876"><ele>9.0</ele><time>2026-04-25T07:22:28.999Z</time></trkpt><trkpt lat="43.96673913500728" lon="12.75657463575777"><ele>9.0</ele><time>2026-04-25T07:22:29.999Z</time></trkpt><trkpt lat="43.96678379408812" lon="12.756464091022593"><ele>9.0</ele><time>2026-04-25T07:22:30.999Z</time></trkpt><trkpt lat="43.966804866779945" lon="12.756362703848033"><ele>9.0</ele><time>2026-04-25T07:22:31.999Z</time></trkpt><trkpt lat="43.966812193061266" lon="12.75624945830299"><ele>9.0</ele><time>2026-04-25T07:22:32.999Z</time></trkpt><trkpt lat="43.96678756040304" lon="12.756129970388363"><ele>9.0</ele><time>2026-04-25T07:22:33.999Z</time></trkpt><trkpt lat="43.96668557817311" lon="12.756069019020499"><ele>9.0</ele><time>2026-04-25T07:22:34.999Z</time></trkpt><trkpt lat="43.96660947586158" lon="12.755995977766943"><ele>8.666666666666666</ele><time>2026-04-25T07:22:36Z</time></trkpt><trkpt lat="43.96652108360149" lon="12.755924301914808"><ele>8.333333333333334</ele><time>2026-04-25T07:22:37Z</time></trkpt><trkpt lat="43.966447753636295" lon="12.755848555440927"><ele>8.0</ele><time>2026-04-25T07:22:38Z</time></trkpt><trkpt lat="43.96638733031299" lon="12.75577452804609"><ele>7.666666666666667</ele><time>2026-04-25T07:22:39Z</time></trkpt><trkpt lat="43.96631654958127" lon="12.75572451439952"><ele>7.333333333333334</ele><time>2026-04-25T07:22:40Z</time></trkpt><trkpt lat="43.9662503383681" lon="12.755660575643274"><ele>7.0</ele><time>2026-04-25T07:22:41Z</time></trkpt><trkpt lat="43.96616672255473" lon="12.75559193096568"><ele>7.0</ele><time>2026-04-25T07:22:42Z</time></trkpt><trkpt lat="43.96611970326535" lon="12.755529369519763"><ele>6.999999999999999</ele><time>2026-04-25T07:22:43Z</time></trkpt><trkpt lat="43.96604052780588" lon="12.75544898167041"><ele>6.999999999999999</ele><time>2026-04-25T07:22:44Z</time></trkpt><trkpt lat="43.965958936360316" lon="12.75537773572536"><ele>7.0</ele><time>2026-04-25T07:22:45Z</time></trkpt><trkpt lat="43.96587486482999" lon="12.755275600714418"><ele>7.0</ele><time>2026-04-25T07:22:46Z</time></trkpt><trkpt lat="43.965798133489876" lon="12.755202433949634"><ele>7.199999999999999</ele><time>2026-04-25T07:22:47Z</time></trkpt><trkpt lat="43.965711623152316" lon="12.755141365922064"><ele>7.3999999999999995</ele><time>2026-04-25T07:22:48Z</time></trkpt><trkpt lat="43.96564161270955" lon="12.755069700486759"><ele>7.6000000000000005</ele><time>2026-04-25T07:22:49Z</time></trkpt><trkpt lat="43.96555768331714" lon="12.754998950686131"><ele>7.800000000000001</ele><time>2026-04-25T07:22:50Z</time></trkpt><trkpt lat="43.96548635611679" lon="12.754931842530228"><ele>8.0</ele><time>2026-04-25T07:22:51Z</time></trkpt><trkpt lat="43.96541184735969" lon="12.754871560948844"><ele>7.999999999999999</ele><time>2026-04-25T07:22:52Z</time></trkpt><trkpt lat="43.96535335781432" lon="12.75481369229855"><ele>8.0</ele><time>2026-04-25T07:22:53Z</time></trkpt><trkpt lat="43.96529719540678" lon="12.754762370548903"><ele>8.0</ele><time>2026-04-25T07:22:54Z</time></trkpt><trkpt lat="43.965205468477386" lon="12.754643446832109"><ele>8.0</ele><time>2026-04-25T07:22:56Z</time></trkpt><trkpt lat="43.96514923558431" lon="12.75458354513092"><ele>7.999999999999999</ele><time>2026-04-25T07:22:57Z</time></trkpt><trkpt lat="43.965088399381635" lon="12.754510035036155"><ele>8.0</ele><time>2026-04-25T07:22:59Z</time></trkpt><trkpt lat="43.965028741042104" lon="12.754434769071459"><ele>7.571428571428571</ele><time>2026-04-25T07:23:02Z</time></trkpt><trkpt lat="43.96498284975592" lon="12.754371608479506"><ele>7.142857142857142</ele><time>2026-04-25T07:23:04Z</time></trkpt><trkpt lat="43.96490274250731" lon="12.75427905125909"><ele>6.7142857142857135</ele><time>2026-04-25T07:23:06Z</time></trkpt><trkpt lat="43.96485445752903" lon="12.754220754946685"><ele>6.285714285714286</ele><time>2026-04-25T07:23:07Z</time></trkpt><trkpt lat="43.96480294146653" lon="12.754162546811818"><ele>5.857142857142858</ele><time>2026-04-25T07:23:08Z</time></trkpt><trkpt lat="43.964747663427445" lon="12.75410989903146"><ele>5.428571428571429</ele><time>2026-04-25T07:23:09Z</time></trkpt><trkpt lat="43.96468438258683" lon="12.754050943626455"><ele>5.0</ele><time>2026-04-25T07:23:10Z</time></trkpt><trkpt lat="43.96461427460183" lon="12.753988759851508"><ele>5.166666666666667</ele><time>2026-04-25T07:23:11Z</time></trkpt><trkpt lat="43.96454236114523" lon="12.753926820063091"><ele>5.333333333333334</ele><time>2026-04-25T07:23:12Z</time></trkpt><trkpt lat="43.96446602643186" lon="12.75386287357158"><ele>5.5</ele><time>2026-04-25T07:23:13Z</time></trkpt><trkpt lat="43.96438959218404" lon="12.753803066112921"><ele>5.666666666666667</ele><time>2026-04-25T07:23:14Z</time></trkpt><trkpt lat="43.9643151830074" lon="12.753735673569635"><ele>5.833333333333333</ele><time>2026-04-25T07:23:15Z</time></trkpt><trkpt lat="43.96423817444291" lon="12.753669076343007"><ele>6.0</ele><time>2026-04-25T07:23:16Z</time></trkpt><trkpt lat="43.964172094640624" lon="12.753613552331988"><ele>6.0</ele><time>2026-04-25T07:23:17Z</time></trkpt><trkpt lat="43.96409987539974" lon="12.753546206399157"><ele>6.0</ele><time>2026-04-25T07:23:18Z</time></trkpt><trkpt lat="43.964028858603506" lon="12.753475795077792"><ele>6.0</ele><time>2026-04-25T07:23:19Z</time></trkpt><trkpt lat="43.96395434193689" lon="12.753403598325436"><ele>6.0</ele><time>2026-04-25T07:23:20Z</time></trkpt><trkpt lat="43.963876378890305" lon="12.75333515572203"><ele>6.0</ele><time>2026-04-25T07:23:21Z</time></trkpt><trkpt lat="43.9637978170111" lon="12.753262486888268"><ele>6.4</ele><time>2026-04-25T07:23:21.999Z</time></trkpt><trkpt lat="43.963721677766124" lon="12.753193650925104"><ele>6.8</ele><time>2026-04-25T07:23:22.999Z</time></trkpt><trkpt lat="43.96364963542588" lon="12.753132282851912"><ele>7.200000000000001</ele><time>2026-04-25T07:23:23.999Z</time></trkpt><trkpt lat="43.96358450427469" lon="12.753071135532958"><ele>7.6000000000000005</ele><time>2026-04-25T07:23:24.999Z</time></trkpt><trkpt lat="43.96349840618023" lon="12.752979840544432"><ele>8.0</ele><time>2026-04-25T07:23:26.999Z</time></trkpt><trkpt lat="43.96339576040752" lon="12.752882388916742"><ele>8.200000000000001</ele><time>2026-04-25T07:23:29.999Z</time></trkpt><trkpt lat="43.963319352400376" lon="12.75282834662009"><ele>8.4</ele><time>2026-04-25T07:23:30.999Z</time></trkpt><trkpt lat="43.963235155362874" lon="12.752759119964708"><ele>8.600000000000001</ele><time>2026-04-25T07:23:31.999Z</time></trkpt><trkpt lat="43.96314854215657" lon="12.752678468861093"><ele>8.8</ele><time>2026-04-25T07:23:32.999Z</time></trkpt><trkpt lat="43.96305830638031" lon="12.752596771291827"><ele>9.0</ele><time>2026-04-25T07:23:33.999Z</time></trkpt><trkpt lat="43.9629642141189" lon="12.752507200157847"><ele>9.0</ele><time>2026-04-25T07:23:34.999Z</time></trkpt><trkpt lat="43.96287005760196" lon="12.752423043516389"><ele>9.0</ele><time>2026-04-25T07:23:35.999Z</time></trkpt><trkpt lat="43.96278680838103" lon="12.752348585886681"><ele>9.0</ele><time>2026-04-25T07:23:36.999Z</time></trkpt><trkpt lat="43.96270213227079" lon="12.752284805626244"><ele>9.0</ele><time>2026-04-25T07:23:37.999Z</time></trkpt><trkpt lat="43.9626114042014" lon="12.752228318126521"><ele>9.0</ele><time>2026-04-25T07:23:38.999Z</time></trkpt><trkpt lat="43.9625309201129" lon="12.752167784331283"><ele>9.0</ele><time>2026-04-25T07:23:39.999Z</time></trkpt><trkpt lat="43.96244662902557" lon="12.75207917560529"><ele>9.0</ele><time>2026-04-25T07:23:40.999Z</time></trkpt><trkpt lat="43.962362332849054" lon="12.752001091949289"><ele>9.0</ele><time>2026-04-25T07:23:41.999Z</time></trkpt><trkpt lat="43.962275215818416" lon="12.751923408796149"><ele>9.0</ele><time>2026-04-25T07:23:42.999Z</time></trkpt><trkpt lat="43.96218568335222" lon="12.751841963434916"><ele>9.0</ele><time>2026-04-25T07:23:43.999Z</time></trkpt><trkpt lat="43.962097163043545" lon="12.751760496353231"><ele>9.0</ele><time>2026-04-25T07:23:44.999Z</time></trkpt><trkpt lat="43.96200927615227" lon="12.751678469133822"><ele>9.0</ele><time>2026-04-25T07:23:45.999Z</time></trkpt><trkpt lat="43.96192148985518" lon="12.75160185256619"><ele>9.0</ele><time>2026-04-25T07:23:46.999Z</time></trkpt><trkpt lat="43.96183592762995" lon="12.751525270442581"><ele>9.0</ele><time>2026-04-25T07:23:47.999Z</time></trkpt><trkpt lat="43.96175157561779" lon="12.751443636196983"><ele>9.0</ele><time>2026-04-25T07:23:48.999Z</time></trkpt><trkpt lat="43.96166539348273" lon="12.751373908446336"><ele>9.0</ele><time>2026-04-25T07:23:49.999Z</time></trkpt><trkpt lat="43.96159125669835" lon="12.751293243466375"><ele>9.0</ele><time>2026-04-25T07:23:50.999Z</time></trkpt><trkpt lat="43.96149083418191" lon="12.751200340184221"><ele>9.0</ele><time>2026-04-25T07:23:51.999Z</time></trkpt><trkpt lat="43.96140839712209" lon="12.751118178720091"><ele>9.0</ele><time>2026-04-25T07:23:52.999Z</time></trkpt><trkpt lat="43.96132766479888" lon="12.751042459281875"><ele>9.0</ele><time>2026-04-25T07:23:53.999Z</time></trkpt><trkpt lat="43.961241456795996" lon="12.750968393506687"><ele>9.0</ele><time>2026-04-25T07:23:54.999Z</time></trkpt><trkpt lat="43.961153232919436" lon="12.750897683386151"><ele>9.0</ele><time>2026-04-25T07:23:55.999Z</time></trkpt><trkpt lat="43.96107359304198" lon="12.750848927210951"><ele>9.0</ele><time>2026-04-25T07:23:56.999Z</time></trkpt><trkpt lat="43.96097614417231" lon="12.750832017593952"><ele>9.0</ele><time>2026-04-25T07:23:57.999Z</time></trkpt><trkpt lat="43.960871726548824" lon="12.750830438480934"><ele>9.0</ele><time>2026-04-25T07:23:58.999Z</time></trkpt><trkpt lat="43.96078577454781" lon="12.750827397225876"><ele>9.0</ele><time>2026-04-25T07:23:59.999Z</time></trkpt><trkpt lat="43.96069389947807" lon="12.750807284058464"><ele>9.0</ele><time>2026-04-25T07:24:00.999Z</time></trkpt><trkpt lat="43.96059077006383" lon="12.750778518286285"><ele>9.0</ele><time>2026-04-25T07:24:01.999Z</time></trkpt><trkpt lat="43.96049519246196" lon="12.750740172359528"><ele>9.0</ele><time>2026-04-25T07:24:02.999Z</time></trkpt><trkpt lat="43.9604130856482" lon="12.750693066285047"><ele>9.0</ele><time>2026-04-25T07:24:03.999Z</time></trkpt><trkpt lat="43.96034369030351" lon="12.750643111579228"><ele>9.0</ele><time>2026-04-25T07:24:04.999Z</time></trkpt><trkpt lat="43.96027729136911" lon="12.750598985138607"><ele>9.0</ele><time>2026-04-25T07:24:05.999Z</time></trkpt><trkpt lat="43.960209058227896" lon="12.750588115395175"><ele>9.0</ele><time>2026-04-25T07:24:07.999Z</time></trkpt><trkpt lat="43.960137343291244" lon="12.750567752893662"><ele>9.0</ele><time>2026-04-25T07:24:11.999Z</time></trkpt><trkpt lat="43.960063684103936" lon="12.750617202305042"><ele>9.0</ele><time>2026-04-25T07:24:14.999Z</time></trkpt><trkpt lat="43.96005453254503" lon="12.750746918633835"><ele>9.0</ele><time>2026-04-25T07:24:15.999Z</time></trkpt><trkpt lat="43.96004691853859" lon="12.750875783806181"><ele>9.166666666666666</ele><time>2026-04-25T07:24:16.999Z</time></trkpt><trkpt lat="43.960032923055834" lon="12.75099460712449"><ele>9.333333333333334</ele><time>2026-04-25T07:24:17.999Z</time></trkpt><trkpt lat="43.960015570153644" lon="12.751127124266633"><ele>9.5</ele><time>2026-04-25T07:24:18.999Z</time></trkpt><trkpt lat="43.959995261986926" lon="12.751257769398185"><ele>9.666666666666668</ele><time>2026-04-25T07:24:19.999Z</time></trkpt><trkpt lat="43.95998228817489" lon="12.75137086721119"><ele>9.833333333333334</ele><time>2026-04-25T07:24:20.999Z</time></trkpt><trkpt lat="43.959960828423235" lon="12.751462678395143"><ele>10.0</ele><time>2026-04-25T07:24:21.999Z</time></trkpt><trkpt lat="43.95988230641557" lon="12.751595684632713"><ele>9.6</ele><time>2026-04-25T07:24:23.999Z</time></trkpt><trkpt lat="43.95981233199515" lon="12.751684350460824"><ele>9.2</ele><time>2026-04-25T07:24:25.999Z</time></trkpt><trkpt lat="43.95979726153873" lon="12.751769351669562"><ele>8.8</ele><time>2026-04-25T07:24:30.999Z</time></trkpt><trkpt lat="43.95978503006374" lon="12.751679858473974"><ele>8.4</ele><time>2026-04-25T07:28:44.999Z</time></trkpt><trkpt lat="43.95984685421753" lon="12.751623199233741"><ele>8.0</ele><time>2026-04-25T07:29:54Z</time></trkpt><trkpt lat="43.95998870543871" lon="12.75147091266121"><ele>8.0</ele><time>2026-04-25T07:30:13Z</time></trkpt><trkpt lat="43.96000357626478" lon="12.751331475594649"><ele>8.0</ele><time>2026-04-25T07:30:15Z</time></trkpt><trkpt lat="43.96003127015505" lon="12.75119682809604"><ele>8.0</ele><time>2026-04-25T07:30:17Z</time></trkpt><trkpt lat="43.96005338838098" lon="12.751072710452679"><ele>8.0</ele><time>2026-04-25T07:30:18.999Z</time></trkpt><trkpt lat="43.96006680730546" lon="12.75096485645089"><ele>8.0</ele><time>2026-04-25T07:30:20.999Z</time></trkpt><trkpt lat="43.96008702588537" lon="12.75081402013103"><ele>8.200000000000001</ele><time>2026-04-25T07:30:23.999Z</time></trkpt><trkpt lat="43.96012582823654" lon="12.75067973101538"><ele>8.4</ele><time>2026-04-25T07:30:25.999Z</time></trkpt><trkpt lat="43.960131430435844" lon="12.750524437831862"><ele>8.600000000000001</ele><time>2026-04-25T07:30:27.999Z</time></trkpt><trkpt lat="43.960132986438474" lon="12.750430771469784"><ele>8.8</ele><time>2026-04-25T07:30:28.999Z</time></trkpt><trkpt lat="43.96014885546063" lon="12.750313854734022"><ele>9.0</ele><time>2026-04-25T07:30:29.999Z</time></trkpt><trkpt lat="43.96016847265024" lon="12.750182082059316"><ele>9.5</ele><time>2026-04-25T07:30:30.999Z</time></trkpt><trkpt lat="43.96018513840257" lon="12.75006098212224"><ele>10.0</ele><time>2026-04-25T07:30:31.999Z</time></trkpt><trkpt lat="43.960201459268546" lon="12.749931321080108"><ele>10.5</ele><time>2026-04-25T07:30:32.999Z</time></trkpt><trkpt lat="43.96021525887832" lon="12.749815357134322"><ele>11.0</ele><time>2026-04-25T07:30:33.999Z</time></trkpt><trkpt lat="43.96024748481255" lon="12.749711675738654"><ele>11.5</ele><time>2026-04-25T07:30:34.999Z</time></trkpt><trkpt lat="43.96026657266622" lon="12.749603670151169"><ele>12.0</ele><time>2026-04-25T07:30:35.999Z</time></trkpt><trkpt lat="43.960287221663684" lon="12.749493494469487"><ele>11.8</ele><time>2026-04-25T07:30:36.999Z</time></trkpt><trkpt lat="43.96031020711097" lon="12.749375072344732"><ele>11.6</ele><time>2026-04-25T07:30:37.999Z</time></trkpt><trkpt lat="43.96032134795042" lon="12.749244874047278"><ele>11.4</ele><time>2026-04-25T07:30:38.999Z</time></trkpt><trkpt lat="43.96035406397647" lon="12.749107198883905"><ele>11.200000000000001</ele><time>2026-04-25T07:30:39.999Z</time></trkpt><trkpt lat="43.96038744088847" lon="12.74896176643298"><ele>11.0</ele><time>2026-04-25T07:30:40.999Z</time></trkpt><trkpt lat="43.96043946164195" lon="12.748821627226416"><ele>11.0</ele><time>2026-04-25T07:30:41.999Z</time></trkpt><trkpt lat="43.96047855212725" lon="12.748686608729685"><ele>11.0</ele><time>2026-04-25T07:30:42.999Z</time></trkpt><trkpt lat="43.960523209131594" lon="12.74856002161854"><ele>11.0</ele><time>2026-04-25T07:30:43.999Z</time></trkpt><trkpt lat="43.96056518118516" lon="12.748423812248493"><ele>11.0</ele><time>2026-04-25T07:30:44.999Z</time></trkpt><trkpt lat="43.96062345459946" lon="12.748294861285357"><ele>11.0</ele><time>2026-04-25T07:30:45.999Z</time></trkpt><trkpt lat="43.960675737249716" lon="12.74815579652449"><ele>11.0</ele><time>2026-04-25T07:30:46.999Z</time></trkpt><trkpt lat="43.96072501788818" lon="12.74800761333958"><ele>11.0</ele><time>2026-04-25T07:30:47.999Z</time></trkpt><trkpt lat="43.960772741155324" lon="12.747856583551336"><ele>11.0</ele><time>2026-04-25T07:30:48.999Z</time></trkpt><trkpt lat="43.960818377121264" lon="12.747718918444326"><ele>11.0</ele><time>2026-04-25T07:30:49.999Z</time></trkpt><trkpt lat="43.960864319645275" lon="12.74759539206928"><ele>11.0</ele><time>2026-04-25T07:30:50.999Z</time></trkpt><trkpt lat="43.96091324584791" lon="12.747471467043042"><ele>11.0</ele><time>2026-04-25T07:30:51.999Z</time></trkpt><trkpt lat="43.96096164793228" lon="12.747342967404197"><ele>11.0</ele><time>2026-04-25T07:30:52.999Z</time></trkpt><trkpt lat="43.96100681588033" lon="12.74721744297858"><ele>11.0</ele><time>2026-04-25T07:30:53.999Z</time></trkpt><trkpt lat="43.96104894633151" lon="12.747091656671648"><ele>11.0</ele><time>2026-04-25T07:30:54.999Z</time></trkpt><trkpt lat="43.96109257950967" lon="12.746967127027737"><ele>11.0</ele><time>2026-04-25T07:30:55.999Z</time></trkpt><trkpt lat="43.96113705712858" lon="12.74684356380473"><ele>11.0</ele><time>2026-04-25T07:30:56.999Z</time></trkpt><trkpt lat="43.961181044634166" lon="12.746719583478503"><ele>11.0</ele><time>2026-04-25T07:30:57.999Z</time></trkpt><trkpt lat="43.961223832469024" lon="12.746598873749766"><ele>11.0</ele><time>2026-04-25T07:30:58.999Z</time></trkpt><trkpt lat="43.9612591345918" lon="12.746492461994785"><ele>11.0</ele><time>2026-04-25T07:31:00Z</time></trkpt><trkpt lat="43.96128826602923" lon="12.746398131537577"><ele>11.0</ele><time>2026-04-25T07:31:01Z</time></trkpt><trkpt lat="43.961346556696206" lon="12.746291648200195"><ele>11.0</ele><time>2026-04-25T07:31:03Z</time></trkpt><trkpt lat="43.961398476099525" lon="12.74615909253181"><ele>11.0</ele><time>2026-04-25T07:31:05Z</time></trkpt><trkpt lat="43.96143521380218" lon="12.746065295323124"><ele>11.0</ele><time>2026-04-25T07:31:06Z</time></trkpt><trkpt lat="43.96147152241145" lon="12.74595703459893"><ele>11.0</ele><time>2026-04-25T07:31:07Z</time></trkpt><trkpt lat="43.961500183189315" lon="12.745831106336949"><ele>11.0</ele><time>2026-04-25T07:31:08Z</time></trkpt><trkpt lat="43.961545746700835" lon="12.745717299931867"><ele>11.200000000000001</ele><time>2026-04-25T07:31:09Z</time></trkpt><trkpt lat="43.961588901669906" lon="12.74560588169384"><ele>11.4</ele><time>2026-04-25T07:31:10Z</time></trkpt><trkpt lat="43.96163404346922" lon="12.745486027637636"><ele>11.6</ele><time>2026-04-25T07:31:11Z</time></trkpt><trkpt lat="43.961677698011584" lon="12.745370463879368"><ele>11.8</ele><time>2026-04-25T07:31:12Z</time></trkpt><trkpt lat="43.96171999021319" lon="12.745258582065507"><ele>12.0</ele><time>2026-04-25T07:31:13Z</time></trkpt><trkpt lat="43.96176127914777" lon="12.7451510569098"><ele>11.666666666666666</ele><time>2026-04-25T07:31:14Z</time></trkpt><trkpt lat="43.96180257941097" lon="12.745046675755596"><ele>11.333333333333334</ele><time>2026-04-25T07:31:15Z</time></trkpt><trkpt lat="43.961840257101336" lon="12.744954427662327"><ele>11.0</ele><time>2026-04-25T07:31:16Z</time></trkpt><trkpt lat="43.96186970686666" lon="12.744871134585205"><ele>10.666666666666668</ele><time>2026-04-25T07:31:17Z</time></trkpt><trkpt lat="43.96192249492304" lon="12.744729315160187"><ele>10.333333333333334</ele><time>2026-04-25T07:31:19Z</time></trkpt><trkpt lat="43.961972476761105" lon="12.744609047120381"><ele>10.0</ele><time>2026-04-25T07:31:21Z</time></trkpt><trkpt lat="43.962019249711425" lon="12.74453886286661"><ele>10.0</ele><time>2026-04-25T07:31:23Z</time></trkpt><trkpt lat="43.96207969418457" lon="12.744420589618104"><ele>10.0</ele><time>2026-04-25T07:31:25Z</time></trkpt><trkpt lat="43.96212366398464" lon="12.744335186253368"><ele>10.0</ele><time>2026-04-25T07:31:26Z</time></trkpt><trkpt lat="43.96217650702308" lon="12.744232548169036"><ele>10.0</ele><time>2026-04-25T07:31:27Z</time></trkpt><trkpt lat="43.962233441995416" lon="12.74412272212677"><ele>10.0</ele><time>2026-04-25T07:31:28Z</time></trkpt><trkpt lat="43.96229462647179" lon="12.744004346527927"><ele>10.2</ele><time>2026-04-25T07:31:29Z</time></trkpt><trkpt lat="43.9623530215598" lon="12.743891367643663"><ele>10.4</ele><time>2026-04-25T07:31:30Z</time></trkpt><trkpt lat="43.96239046304008" lon="12.743781742548125"><ele>10.600000000000001</ele><time>2026-04-25T07:31:31Z</time></trkpt><trkpt lat="43.96243292112209" lon="12.743703525444833"><ele>10.8</ele><time>2026-04-25T07:31:32Z</time></trkpt><trkpt lat="43.96250466678897" lon="12.743580795614374"><ele>11.0</ele><time>2026-04-25T07:31:34Z</time></trkpt><trkpt lat="43.96256480620827" lon="12.743473053489858"><ele>11.0</ele><time>2026-04-25T07:31:36Z</time></trkpt><trkpt lat="43.96257991366221" lon="12.743336425784186"><ele>11.0</ele><time>2026-04-25T07:31:38Z</time></trkpt><trkpt lat="43.9625736590543" lon="12.743227415074573"><ele>11.0</ele><time>2026-04-25T07:31:39Z</time></trkpt><trkpt lat="43.96258590008902" lon="12.743114057094365"><ele>11.0</ele><time>2026-04-25T07:31:40Z</time></trkpt><trkpt lat="43.96260795231027" lon="12.742996121147897"><ele>11.0</ele><time>2026-04-25T07:31:41Z</time></trkpt><trkpt lat="43.96263018791076" lon="12.742886623895384"><ele>11.0</ele><time>2026-04-25T07:31:42Z</time></trkpt><trkpt lat="43.96265026031135" lon="12.742783141432305"><ele>11.0</ele><time>2026-04-25T07:31:43Z</time></trkpt><trkpt lat="43.96266759406133" lon="12.74267900696622"><ele>11.0</ele><time>2026-04-25T07:31:44Z</time></trkpt><trkpt lat="43.9626835262988" lon="12.742573059928556"><ele>11.0</ele><time>2026-04-25T07:31:45Z</time></trkpt><trkpt lat="43.962698222710024" lon="12.742467906318364"><ele>11.0</ele><time>2026-04-25T07:31:46Z</time></trkpt><trkpt lat="43.962713174841554" lon="12.742373565730475"><ele>11.0</ele><time>2026-04-25T07:31:47Z</time></trkpt><trkpt lat="43.96272648593484" lon="12.742282435132049"><ele>11.0</ele><time>2026-04-25T07:31:48Z</time></trkpt><trkpt lat="43.96273940320557" lon="12.742194193901529"><ele>11.0</ele><time>2026-04-25T07:31:49Z</time></trkpt><trkpt lat="43.96276296108813" lon="12.742018813311335"><ele>11.0</ele><time>2026-04-25T07:31:51Z</time></trkpt><trkpt lat="43.962773125565214" lon="12.741930117734897"><ele>11.0</ele><time>2026-04-25T07:31:52Z</time></trkpt><trkpt lat="43.962801486820325" lon="12.7418469890805"><ele>11.0</ele><time>2026-04-25T07:31:53Z</time></trkpt><trkpt lat="43.96281594872113" lon="12.741757479313332"><ele>11.0</ele><time>2026-04-25T07:31:54Z</time></trkpt><trkpt lat="43.96284164134333" lon="12.741597463851086"><ele>11.0</ele><time>2026-04-25T07:31:56Z</time></trkpt><trkpt lat="43.96286034382482" lon="12.741473117698881"><ele>11.0</ele><time>2026-04-25T07:31:58Z</time></trkpt><trkpt lat="43.96287461578328" lon="12.74137865809156"><ele>10.600000000000001</ele><time>2026-04-25T07:32:01Z</time></trkpt><trkpt lat="43.9628881199286" lon="12.74128932293401"><ele>10.200000000000001</ele><time>2026-04-25T07:32:04Z</time></trkpt><trkpt lat="43.96289713665799" lon="12.741134397965112"><ele>9.8</ele><time>2026-04-25T07:32:06Z</time></trkpt><trkpt lat="43.96292526167553" lon="12.740970342728188"><ele>9.4</ele><time>2026-04-25T07:32:08Z</time></trkpt><trkpt lat="43.96295336501128" lon="12.740800443758117"><ele>9.0</ele><time>2026-04-25T07:32:10Z</time></trkpt><trkpt lat="43.962968613313954" lon="12.740703679966792"><ele>8.5</ele><time>2026-04-25T07:32:11Z</time></trkpt><trkpt lat="43.96298386561813" lon="12.740599351805136"><ele>8.0</ele><time>2026-04-25T07:32:12Z</time></trkpt><trkpt lat="43.96300202968192" lon="12.740489723170711"><ele>7.5</ele><time>2026-04-25T07:32:13Z</time></trkpt><trkpt lat="43.96302229455472" lon="12.74038389032182"><ele>7.0</ele><time>2026-04-25T07:32:14Z</time></trkpt><trkpt lat="43.96304434560771" lon="12.74026947772777"><ele>6.5</ele><time>2026-04-25T07:32:15Z</time></trkpt><trkpt lat="43.963065981874934" lon="12.740149715530254"><ele>6.0</ele><time>2026-04-25T07:32:16Z</time></trkpt><trkpt lat="43.96308608022308" lon="12.740023988157812"><ele>6.0</ele><time>2026-04-25T07:32:17Z</time></trkpt><trkpt lat="43.96310913852555" lon="12.739896142394079"><ele>6.0</ele><time>2026-04-25T07:32:18Z</time></trkpt><trkpt lat="43.96312930524276" lon="12.739764536088511"><ele>6.0</ele><time>2026-04-25T07:32:19Z</time></trkpt><trkpt lat="43.96315006887151" lon="12.739630928256286"><ele>6.0</ele><time>2026-04-25T07:32:20Z</time></trkpt><trkpt lat="43.963171177392255" lon="12.73949762957744"><ele>6.0</ele><time>2026-04-25T07:32:21Z</time></trkpt><trkpt lat="43.96319210246616" lon="12.739373555396247"><ele>5.833333333333333</ele><time>2026-04-25T07:32:22Z</time></trkpt><trkpt lat="43.96321334989393" lon="12.739260758954659"><ele>5.666666666666667</ele><time>2026-04-25T07:32:23Z</time></trkpt><trkpt lat="43.96323373322222" lon="12.73915731020573"><ele>5.5</ele><time>2026-04-25T07:32:24Z</time></trkpt><trkpt lat="43.963250174612526" lon="12.739062517683104"><ele>5.333333333333334</ele><time>2026-04-25T07:32:25Z</time></trkpt><trkpt lat="43.96326558604947" lon="12.73897594675293"><ele>5.166666666666667</ele><time>2026-04-25T07:32:26Z</time></trkpt><trkpt lat="43.96329792345203" lon="12.738819595530352"><ele>5.0</ele><time>2026-04-25T07:32:28Z</time></trkpt><trkpt lat="43.96334025226442" lon="12.738684399562725"><ele>5.2</ele><time>2026-04-25T07:32:30Z</time></trkpt><trkpt lat="43.963417279423545" lon="12.738589467737533"><ele>5.4</ele><time>2026-04-25T07:32:32Z</time></trkpt><trkpt lat="43.96349607458126" lon="12.738463369082837"><ele>5.6</ele><time>2026-04-25T07:32:33.999Z</time></trkpt><trkpt lat="43.96350198155849" lon="12.738360727373802"><ele>5.8</ele><time>2026-04-25T07:32:34.999Z</time></trkpt><trkpt lat="43.96349251421279" lon="12.738245589446636"><ele>6.0</ele><time>2026-04-25T07:32:35.999Z</time></trkpt><trkpt lat="43.96347824820181" lon="12.73812841842193"><ele>6.0</ele><time>2026-04-25T07:32:36.999Z</time></trkpt><trkpt lat="43.9634728714998" lon="12.738003466743914"><ele>6.0</ele><time>2026-04-25T07:32:37.999Z</time></trkpt><trkpt lat="43.96347210487817" lon="12.73786960055107"><ele>6.0</ele><time>2026-04-25T07:32:38.999Z</time></trkpt><trkpt lat="43.96346522122495" lon="12.737718785018242"><ele>6.0</ele><time>2026-04-25T07:32:39.999Z</time></trkpt><trkpt lat="43.96343482675472" lon="12.73757595873972"><ele>6.0</ele><time>2026-04-25T07:32:40.999Z</time></trkpt><trkpt lat="43.963385151409256" lon="12.73744089685727"><ele>5.75</ele><time>2026-04-25T07:32:41.999Z</time></trkpt><trkpt lat="43.96331594319499" lon="12.737310839763655"><ele>5.5</ele><time>2026-04-25T07:32:42.999Z</time></trkpt><trkpt lat="43.963248783895985" lon="12.737176865245779"><ele>5.25</ele><time>2026-04-25T07:32:43.999Z</time></trkpt><trkpt lat="43.96319145471771" lon="12.737028024040885"><ele>5.0</ele><time>2026-04-25T07:32:44.999Z</time></trkpt><trkpt lat="43.96315251839686" lon="12.736866384959235"><ele>4.75</ele><time>2026-04-25T07:32:45.999Z</time></trkpt><trkpt lat="43.96313395819184" lon="12.736701921933749"><ele>4.5</ele><time>2026-04-25T07:32:46.999Z</time></trkpt><trkpt lat="43.96313142346126" lon="12.73653379841698"><ele>4.25</ele><time>2026-04-25T07:32:47.999Z</time></trkpt><trkpt lat="43.96314647196144" lon="12.736370910118685"><ele>4.0</ele><time>2026-04-25T07:32:48.999Z</time></trkpt><trkpt lat="43.963176331878735" lon="12.736214294175126"><ele>4.0</ele><time>2026-04-25T07:32:49.999Z</time></trkpt><trkpt lat="43.96321042465912" lon="12.736064980329258"><ele>4.0</ele><time>2026-04-25T07:32:50.999Z</time></trkpt><trkpt lat="43.96324449354936" lon="12.735915658194283"><ele>4.0</ele><time>2026-04-25T07:32:51.999Z</time></trkpt><trkpt lat="43.96327727789061" lon="12.735758424949463"><ele>4.0</ele><time>2026-04-25T07:32:52.999Z</time></trkpt><trkpt lat="43.96330729744791" lon="12.735590179994677"><ele>4.0</ele><time>2026-04-25T07:32:53.999Z</time></trkpt><trkpt lat="43.96332795557158" lon="12.73540960168758"><ele>4.0</ele><time>2026-04-25T07:32:54.999Z</time></trkpt><trkpt lat="43.96333623829886" lon="12.735220561647928"><ele>4.0</ele><time>2026-04-25T07:32:55.999Z</time></trkpt><trkpt lat="43.96335459549852" lon="12.735047559212507"><ele>4.0</ele><time>2026-04-25T07:32:56.999Z</time></trkpt><trkpt lat="43.963348586542075" lon="12.73488622319437"><ele>4.2</ele><time>2026-04-25T07:32:57.999Z</time></trkpt><trkpt lat="43.96332301834863" lon="12.734738224112661"><ele>4.4</ele><time>2026-04-25T07:32:58.999Z</time></trkpt><trkpt lat="43.963317517643894" lon="12.73459830818368"><ele>4.6</ele><time>2026-04-25T07:32:59.999Z</time></trkpt><trkpt lat="43.96331170783264" lon="12.734474347484053"><ele>4.8</ele><time>2026-04-25T07:33:00.999Z</time></trkpt><trkpt lat="43.96330751226604" lon="12.734355035420217"><ele>5.0</ele><time>2026-04-25T07:33:01.999Z</time></trkpt><trkpt lat="43.963306088367396" lon="12.734220799379147"><ele>5.0</ele><time>2026-04-25T07:33:02.999Z</time></trkpt><trkpt lat="43.96329339551382" lon="12.734121529655885"><ele>5.0</ele><time>2026-04-25T07:33:03.999Z</time></trkpt><trkpt lat="43.96323714989407" lon="12.734009426825214"><ele>5.0</ele><time>2026-04-25T07:33:06Z</time></trkpt><trkpt lat="43.96307617806075" lon="12.734117947965233"><ele>5.0</ele><time>2026-04-25T07:33:08Z</time></trkpt><trkpt lat="43.96295786257465" lon="12.734089661376741"><ele>5.0</ele><time>2026-04-25T07:33:09Z</time></trkpt><trkpt lat="43.96287256952065" lon="12.73408825784475"><ele>5.0</ele><time>2026-04-25T07:33:10Z</time></trkpt><trkpt lat="43.962775390141076" lon="12.734071153521654"><ele>5.0</ele><time>2026-04-25T07:33:11Z</time></trkpt><trkpt lat="43.96266761808735" lon="12.734065697561586"><ele>5.0</ele><time>2026-04-25T07:33:12Z</time></trkpt><trkpt lat="43.962560070679466" lon="12.734054205586162"><ele>5.0</ele><time>2026-04-25T07:33:13Z</time></trkpt><trkpt lat="43.96245848339347" lon="12.734044526332108"><ele>5.6</ele><time>2026-04-25T07:33:14Z</time></trkpt><trkpt lat="43.96235634624429" lon="12.734031531867965"><ele>6.2</ele><time>2026-04-25T07:33:15Z</time></trkpt><trkpt lat="43.962250145261265" lon="12.734017410472362"><ele>6.800000000000001</ele><time>2026-04-25T07:33:16Z</time></trkpt><trkpt lat="43.962153806289614" lon="12.734008590394437"><ele>7.4</ele><time>2026-04-25T07:33:17Z</time></trkpt><trkpt lat="43.96205357410761" lon="12.734001804532861"><ele>8.0</ele><time>2026-04-25T07:33:18Z</time></trkpt><trkpt lat="43.96195868361609" lon="12.733990717336013"><ele>8.0</ele><time>2026-04-25T07:33:19Z</time></trkpt><trkpt lat="43.96185657957051" lon="12.733980390495258"><ele>8.0</ele><time>2026-04-25T07:33:20Z</time></trkpt><trkpt lat="43.961752272875344" lon="12.73396750275109"><ele>8.0</ele><time>2026-04-25T07:33:21Z</time></trkpt><trkpt lat="43.961642681474245" lon="12.73395587402547"><ele>8.0</ele><time>2026-04-25T07:33:22Z</time></trkpt><trkpt lat="43.961539968883145" lon="12.733945435176091"><ele>8.0</ele><time>2026-04-25T07:33:23Z</time></trkpt><trkpt lat="43.96143384877151" lon="12.733933398031951"><ele>8.4</ele><time>2026-04-25T07:33:24Z</time></trkpt><trkpt lat="43.961336190164076" lon="12.733912970886228"><ele>8.8</ele><time>2026-04-25T07:33:25Z</time></trkpt><trkpt lat="43.96123996516777" lon="12.733896546295371"><ele>9.2</ele><time>2026-04-25T07:33:26Z</time></trkpt><trkpt lat="43.96113970038217" lon="12.733879856376259"><ele>9.6</ele><time>2026-04-25T07:33:27Z</time></trkpt><trkpt lat="43.96104902224164" lon="12.733861276396258"><ele>10.0</ele><time>2026-04-25T07:33:28Z</time></trkpt><trkpt lat="43.960956698788856" lon="12.73385088156964"><ele>10.4</ele><time>2026-04-25T07:33:29Z</time></trkpt><trkpt lat="43.96086122054703" lon="12.733835518338905"><ele>10.8</ele><time>2026-04-25T07:33:30Z</time></trkpt><trkpt lat="43.96075709635442" lon="12.733815315878838"><ele>11.2</ele><time>2026-04-25T07:33:31Z</time></trkpt><trkpt lat="43.96064859292378" lon="12.733793970068447"><ele>11.6</ele><time>2026-04-25T07:33:32Z</time></trkpt><trkpt lat="43.96054408486162" lon="12.73377547902232"><ele>12.0</ele><time>2026-04-25T07:33:33Z</time></trkpt><trkpt lat="43.96043899531927" lon="12.733755897687642"><ele>12.0</ele><time>2026-04-25T07:33:34Z</time></trkpt><trkpt lat="43.960329609849765" lon="12.733730502898018"><ele>12.0</ele><time>2026-04-25T07:33:35Z</time></trkpt><trkpt lat="43.960212792162764" lon="12.733706206810643"><ele>12.0</ele><time>2026-04-25T07:33:36Z</time></trkpt><trkpt lat="43.96009675201354" lon="12.733675155960258"><ele>12.0</ele><time>2026-04-25T07:33:37Z</time></trkpt><trkpt lat="43.95998269568511" lon="12.73363897161998"><ele>12.0</ele><time>2026-04-25T07:33:38Z</time></trkpt><trkpt lat="43.95986767098073" lon="12.733597499423254"><ele>12.0</ele><time>2026-04-25T07:33:39Z</time></trkpt><trkpt lat="43.95975662729201" lon="12.733558884460622"><ele>12.0</ele><time>2026-04-25T07:33:40Z</time></trkpt><trkpt lat="43.95963898194201" lon="12.733512510171327"><ele>12.0</ele><time>2026-04-25T07:33:41Z</time></trkpt><trkpt lat="43.959512751260796" lon="12.73344554749796"><ele>12.0</ele><time>2026-04-25T07:33:42Z</time></trkpt><trkpt lat="43.95938402993183" lon="12.733365195663955"><ele>12.0</ele><time>2026-04-25T07:33:43Z</time></trkpt><trkpt lat="43.959245426297656" lon="12.733260311372515"><ele>12.0</ele><time>2026-04-25T07:33:44Z</time></trkpt><trkpt lat="43.95910922487085" lon="12.7331459612496"><ele>12.0</ele><time>2026-04-25T07:33:45Z</time></trkpt><trkpt lat="43.9589938043787" lon="12.733037602259392"><ele>12.0</ele><time>2026-04-25T07:33:46Z</time></trkpt><trkpt lat="43.95888815141238" lon="12.732931048130402"><ele>12.0</ele><time>2026-04-25T07:33:47Z</time></trkpt><trkpt lat="43.958789009305335" lon="12.732827923002665"><ele>12.0</ele><time>2026-04-25T07:33:48Z</time></trkpt><trkpt lat="43.958684673900656" lon="12.732716413256275"><ele>11.75</ele><time>2026-04-25T07:33:49Z</time></trkpt><trkpt lat="43.958586082457124" lon="12.732598295592643"><ele>11.5</ele><time>2026-04-25T07:33:50Z</time></trkpt><trkpt lat="43.958498952278426" lon="12.732475921327882"><ele>11.25</ele><time>2026-04-25T07:33:51Z</time></trkpt><trkpt lat="43.95840644752209" lon="12.732346913717143"><ele>11.0</ele><time>2026-04-25T07:33:52Z</time></trkpt><trkpt lat="43.958316262549566" lon="12.732216807113033"><ele>11.5</ele><time>2026-04-25T07:33:53Z</time></trkpt><trkpt lat="43.95823882793329" lon="12.732081315990953"><ele>12.0</ele><time>2026-04-25T07:33:54Z</time></trkpt><trkpt lat="43.95816740417191" lon="12.731949827595182"><ele>12.5</ele><time>2026-04-25T07:33:55Z</time></trkpt><trkpt lat="43.95809543684351" lon="12.73181985530735"><ele>13.0</ele><time>2026-04-25T07:33:56Z</time></trkpt><trkpt lat="43.958029633735485" lon="12.731691841209"><ele>13.2</ele><time>2026-04-25T07:33:57Z</time></trkpt><trkpt lat="43.957963510490444" lon="12.731565814901812"><ele>13.4</ele><time>2026-04-25T07:33:58Z</time></trkpt><trkpt lat="43.95789470840741" lon="12.731440561361067"><ele>13.599999999999998</ele><time>2026-04-25T07:33:59Z</time></trkpt><trkpt lat="43.957824247596335" lon="12.731319977883713"><ele>13.799999999999999</ele><time>2026-04-25T07:34:00Z</time></trkpt><trkpt lat="43.957766481226564" lon="12.731193562130983"><ele>14.0</ele><time>2026-04-25T07:34:01Z</time></trkpt><trkpt lat="43.957716334158754" lon="12.73108791145323"><ele>14.000000000000002</ele><time>2026-04-25T07:34:02Z</time></trkpt><trkpt lat="43.95767903654115" lon="12.731006113966764"><ele>14.0</ele><time>2026-04-25T07:34:03Z</time></trkpt><trkpt lat="43.957642143645515" lon="12.730935118868164"><ele>14.0</ele><time>2026-04-25T07:34:04Z</time></trkpt><trkpt lat="43.957593136581714" lon="12.73080405840086"><ele>14.0</ele><time>2026-04-25T07:34:06Z</time></trkpt><trkpt lat="43.957518849922515" lon="12.730664679562933"><ele>14.000000000000002</ele><time>2026-04-25T07:34:08Z</time></trkpt><trkpt lat="43.95746159610694" lon="12.730600318021757"><ele>14.0</ele><time>2026-04-25T07:34:09Z</time></trkpt><trkpt lat="43.95740899416657" lon="12.730529028172029"><ele>13.833333333333334</ele><time>2026-04-25T07:34:10Z</time></trkpt><trkpt lat="43.95736935378752" lon="12.730457707798152"><ele>13.666666666666668</ele><time>2026-04-25T07:34:11Z</time></trkpt><trkpt lat="43.9573097218255" lon="12.730333950689992"><ele>13.5</ele><time>2026-04-25T07:34:13Z</time></trkpt><trkpt lat="43.957267315055915" lon="12.73022165141796"><ele>13.333333333333332</ele><time>2026-04-25T07:34:15Z</time></trkpt><trkpt lat="43.957257507859346" lon="12.730081702795875"><ele>13.166666666666666</ele><time>2026-04-25T07:34:17Z</time></trkpt><trkpt lat="43.95722943306574" lon="12.729970611095764"><ele>13.0</ele><time>2026-04-25T07:34:19Z</time></trkpt><trkpt lat="43.95712656035198" lon="12.729834576342796"><ele>13.4</ele><time>2026-04-25T07:34:21Z</time></trkpt><trkpt lat="43.95703510064888" lon="12.729768556861718"><ele>13.8</ele><time>2026-04-25T07:34:22Z</time></trkpt><trkpt lat="43.95696545946835" lon="12.729646658139337"><ele>14.2</ele><time>2026-04-25T07:34:23Z</time></trkpt><trkpt lat="43.956904649905496" lon="12.729513332820652"><ele>14.6</ele><time>2026-04-25T07:34:24Z</time></trkpt><trkpt lat="43.95684258136436" lon="12.729378103731882"><ele>15.0</ele><time>2026-04-25T07:34:25Z</time></trkpt><trkpt lat="43.95676610206571" lon="12.729235810453927"><ele>15.5</ele><time>2026-04-25T07:34:26Z</time></trkpt><trkpt lat="43.95669070721916" lon="12.729090230512021"><ele>16.0</ele><time>2026-04-25T07:34:27Z</time></trkpt><trkpt lat="43.956608427939805" lon="12.728932225941588"><ele>16.5</ele><time>2026-04-25T07:34:28Z</time></trkpt><trkpt lat="43.956519956818774" lon="12.728778095343491"><ele>17.0</ele><time>2026-04-25T07:34:29Z</time></trkpt><trkpt lat="43.95642678744454" lon="12.728622735072436"><ele>16.5</ele><time>2026-04-25T07:34:30Z</time></trkpt><trkpt lat="43.95632770798531" lon="12.728470334873629"><ele>16.0</ele><time>2026-04-25T07:34:31Z</time></trkpt><trkpt lat="43.956225454120805" lon="12.72831852780458"><ele>15.5</ele><time>2026-04-25T07:34:32Z</time></trkpt><trkpt lat="43.95611931608748" lon="12.728169560388828"><ele>15.0</ele><time>2026-04-25T07:34:33Z</time></trkpt><trkpt lat="43.956011994866074" lon="12.728026203757143"><ele>15.0</ele><time>2026-04-25T07:34:34Z</time></trkpt><trkpt lat="43.95590441242989" lon="12.727877110608821"><ele>15.0</ele><time>2026-04-25T07:34:35Z</time></trkpt><trkpt lat="43.955802508261286" lon="12.727733628124192"><ele>15.0</ele><time>2026-04-25T07:34:36Z</time></trkpt><trkpt lat="43.95569587829872" lon="12.727587890068374"><ele>15.0</ele><time>2026-04-25T07:34:37Z</time></trkpt><trkpt lat="43.95559122983413" lon="12.727447812201397"><ele>15.25</ele><time>2026-04-25T07:34:38Z</time></trkpt><trkpt lat="43.95548597187061" lon="12.72731017784664"><ele>15.5</ele><time>2026-04-25T07:34:39Z</time></trkpt><trkpt lat="43.95537915764716" lon="12.727179226686715"><ele>15.75</ele><time>2026-04-25T07:34:40Z</time></trkpt><trkpt lat="43.95527079662378" lon="12.727047783295506"><ele>16.0</ele><time>2026-04-25T07:34:41Z</time></trkpt><trkpt lat="43.95515634353056" lon="12.726919403171143"><ele>16.0</ele><time>2026-04-25T07:34:42Z</time></trkpt><trkpt lat="43.95504448456019" lon="12.726806693629387"><ele>16.0</ele><time>2026-04-25T07:34:43Z</time></trkpt><trkpt lat="43.95492469188177" lon="12.726701073430078"><ele>16.0</ele><time>2026-04-25T07:34:44Z</time></trkpt><trkpt lat="43.954810146551026" lon="12.72661491911837"><ele>16.0</ele><time>2026-04-25T07:34:45Z</time></trkpt><trkpt lat="43.95469480578406" lon="12.726534525980385"><ele>16.0</ele><time>2026-04-25T07:34:46Z</time></trkpt><trkpt lat="43.95458949180291" lon="12.726455522380814"><ele>16.0</ele><time>2026-04-25T07:34:47Z</time></trkpt><trkpt lat="43.95449655134553" lon="12.726381291065508"><ele>16.0</ele><time>2026-04-25T07:34:48Z</time></trkpt><trkpt lat="43.954425619289864" lon="12.726315526907177"><ele>16.0</ele><time>2026-04-25T07:34:49Z</time></trkpt><trkpt lat="43.954378560159064" lon="12.726250379034381"><ele>16.0</ele><time>2026-04-25T07:34:50Z</time></trkpt><trkpt lat="43.954339927380374" lon="12.726097199324677"><ele>15.857142857142856</ele><time>2026-04-25T07:34:51.999Z</time></trkpt><trkpt lat="43.95434286064179" lon="12.726008103710322"><ele>15.714285714285712</ele><time>2026-04-25T07:34:52.999Z</time></trkpt><trkpt lat="43.95434191313592" lon="12.72591711033509"><ele>15.571428571428571</ele><time>2026-04-25T07:34:53.999Z</time></trkpt><trkpt lat="43.954320417256106" lon="12.725833456165502"><ele>15.428571428571427</ele><time>2026-04-25T07:34:54.999Z</time></trkpt><trkpt lat="43.954270411050295" lon="12.725763856704386"><ele>15.285714285714285</ele><time>2026-04-25T07:34:55.999Z</time></trkpt><trkpt lat="43.95419899093555" lon="12.725718502217276"><ele>15.142857142857142</ele><time>2026-04-25T07:34:56.999Z</time></trkpt><trkpt lat="43.95412202408337" lon="12.725708111042215"><ele>15.0</ele><time>2026-04-25T07:34:57.999Z</time></trkpt><trkpt lat="43.954050555159746" lon="12.725728403989235"><ele>15.6</ele><time>2026-04-25T07:34:58.999Z</time></trkpt><trkpt lat="43.95398108100134" lon="12.725784372117769"><ele>16.2</ele><time>2026-04-25T07:34:59.999Z</time></trkpt><trkpt lat="43.95390283898962" lon="12.725819265833955"><ele>16.8</ele><time>2026-04-25T07:35:00.999Z</time></trkpt><trkpt lat="43.9538136320828" lon="12.72580700351587"><ele>17.4</ele><time>2026-04-25T07:35:01.999Z</time></trkpt><trkpt lat="43.95371565119195" lon="12.725769330080634"><ele>18.0</ele><time>2026-04-25T07:35:02.999Z</time></trkpt><trkpt lat="43.95360756414759" lon="12.725721129795266"><ele>18.0</ele><time>2026-04-25T07:35:03.999Z</time></trkpt><trkpt lat="43.95348999053047" lon="12.725673056937435"><ele>18.0</ele><time>2026-04-25T07:35:04.999Z</time></trkpt><trkpt lat="43.95337147968565" lon="12.725624307177888"><ele>18.0</ele><time>2026-04-25T07:35:05.999Z</time></trkpt><trkpt lat="43.95324701468742" lon="12.725574537921522"><ele>18.0</ele><time>2026-04-25T07:35:06.999Z</time></trkpt><trkpt lat="43.95312125758769" lon="12.725522995064733"><ele>18.5</ele><time>2026-04-25T07:35:07.999Z</time></trkpt><trkpt lat="43.95299452002439" lon="12.72547051568094"><ele>19.0</ele><time>2026-04-25T07:35:08.999Z</time></trkpt><trkpt lat="43.952866684956504" lon="12.725423164724974"><ele>19.5</ele><time>2026-04-25T07:35:09.999Z</time></trkpt><trkpt lat="43.952736651041555" lon="12.725372922525928"><ele>20.0</ele><time>2026-04-25T07:35:10.999Z</time></trkpt><trkpt lat="43.95260380943772" lon="12.72532051122188"><ele>19.75</ele><time>2026-04-25T07:35:12Z</time></trkpt><trkpt lat="43.95247392712955" lon="12.725267694465089"><ele>19.5</ele><time>2026-04-25T07:35:13Z</time></trkpt><trkpt lat="43.9523486093301" lon="12.725213432933145"><ele>19.25</ele><time>2026-04-25T07:35:14Z</time></trkpt><trkpt lat="43.95222237042069" lon="12.725162580065218"><ele>19.0</ele><time>2026-04-25T07:35:15Z</time></trkpt><trkpt lat="43.95208895954514" lon="12.725109687019218"><ele>18.666666666666664</ele><time>2026-04-25T07:35:16Z</time></trkpt><trkpt lat="43.95195034320887" lon="12.72505618547887"><ele>18.333333333333332</ele><time>2026-04-25T07:35:17Z</time></trkpt><trkpt lat="43.95180782998001" lon="12.725000938115363"><ele>18.0</ele><time>2026-04-25T07:35:18Z</time></trkpt><trkpt lat="43.951652815939" lon="12.72494116571898"><ele>19.0</ele><time>2026-04-25T07:35:19Z</time></trkpt><trkpt lat="43.9514881658326" lon="12.724881583534215"><ele>20.0</ele><time>2026-04-25T07:35:20Z</time></trkpt><trkpt lat="43.951320558022495" lon="12.724826232128477"><ele>21.0</ele><time>2026-04-25T07:35:21Z</time></trkpt><trkpt lat="43.95113983973586" lon="12.724764376538799"><ele>21.0</ele><time>2026-04-25T07:35:22Z</time></trkpt><trkpt lat="43.95096752922719" lon="12.72469983116279"><ele>21.0</ele><time>2026-04-25T07:35:23Z</time></trkpt><trkpt lat="43.95081773831963" lon="12.724634046980375"><ele>21.0</ele><time>2026-04-25T07:35:24Z</time></trkpt><trkpt lat="43.950689127483614" lon="12.724566290425122"><ele>20.5</ele><time>2026-04-25T07:35:25Z</time></trkpt><trkpt lat="43.95058524760755" lon="12.72449095749879"><ele>20.0</ele><time>2026-04-25T07:35:26Z</time></trkpt><trkpt lat="43.950494678427965" lon="12.724380599868079"><ele>19.5</ele><time>2026-04-25T07:35:27Z</time></trkpt><trkpt lat="43.95045023593151" lon="12.724225071347593"><ele>19.0</ele><time>2026-04-25T07:35:28Z</time></trkpt><trkpt lat="43.95038344809517" lon="12.724138048285164"><ele>18.75</ele><time>2026-04-25T07:35:29Z</time></trkpt><trkpt lat="43.950260574016106" lon="12.724108076580734"><ele>18.5</ele><time>2026-04-25T07:35:30Z</time></trkpt><trkpt lat="43.95013818295908" lon="12.72410094495807"><ele>18.25</ele><time>2026-04-25T07:35:31Z</time></trkpt><trkpt lat="43.95001697684455" lon="12.724043486769125"><ele>18.0</ele><time>2026-04-25T07:35:32Z</time></trkpt><trkpt lat="43.949896358613884" lon="12.72393802899028"><ele>18.25</ele><time>2026-04-25T07:35:33Z</time></trkpt><trkpt lat="43.9497859206487" lon="12.723807980917272"><ele>18.5</ele><time>2026-04-25T07:35:34Z</time></trkpt><trkpt lat="43.94967454703777" lon="12.723662604240712"><ele>18.75</ele><time>2026-04-25T07:35:35Z</time></trkpt><trkpt lat="43.949564692807996" lon="12.723527325001264"><ele>19.0</ele><time>2026-04-25T07:35:36Z</time></trkpt><trkpt lat="43.94945783004246" lon="12.723397557788088"><ele>19.0</ele><time>2026-04-25T07:35:37Z</time></trkpt><trkpt lat="43.94934619732827" lon="12.723257674108716"><ele>19.0</ele><time>2026-04-25T07:35:38Z</time></trkpt><trkpt lat="43.9492368422024" lon="12.72312098769549"><ele>19.0</ele><time>2026-04-25T07:35:39Z</time></trkpt><trkpt lat="43.94913051933223" lon="12.722992271487431"><ele>19.0</ele><time>2026-04-25T07:35:40Z</time></trkpt><trkpt lat="43.949022668560836" lon="12.722856474798082"><ele>19.25</ele><time>2026-04-25T07:35:41Z</time></trkpt><trkpt lat="43.948911603307245" lon="12.722720068703575"><ele>19.5</ele><time>2026-04-25T07:35:42Z</time></trkpt><trkpt lat="43.94880301783087" lon="12.722584219429958"><ele>19.75</ele><time>2026-04-25T07:35:43Z</time></trkpt><trkpt lat="43.948693354312844" lon="12.722445560713254"><ele>20.0</ele><time>2026-04-25T07:35:44Z</time></trkpt><trkpt lat="43.948582571306595" lon="12.722304508820828"><ele>20.0</ele><time>2026-04-25T07:35:45Z</time></trkpt><trkpt lat="43.948473964676424" lon="12.722170638663503"><ele>20.0</ele><time>2026-04-25T07:35:46Z</time></trkpt><trkpt lat="43.94836550709457" lon="12.722039819152984"><ele>20.0</ele><time>2026-04-25T07:35:47Z</time></trkpt><trkpt lat="43.94825486429226" lon="12.721904162693377"><ele>20.0</ele><time>2026-04-25T07:35:48Z</time></trkpt><trkpt lat="43.94815103984881" lon="12.721779875690956"><ele>20.6</ele><time>2026-04-25T07:35:49Z</time></trkpt><trkpt lat="43.94806013160631" lon="12.721661464481313"><ele>21.2</ele><time>2026-04-25T07:35:50Z</time></trkpt><trkpt lat="43.94798601153915" lon="12.721547629001746"><ele>21.799999999999997</ele><time>2026-04-25T07:35:51Z</time></trkpt><trkpt lat="43.94794457429665" lon="12.721430596659044"><ele>22.4</ele><time>2026-04-25T07:35:52Z</time></trkpt><trkpt lat="43.94792171104765" lon="12.721317318688111"><ele>23.0</ele><time>2026-04-25T07:35:53Z</time></trkpt><trkpt lat="43.94786880908525" lon="12.721219731548988"><ele>23.0</ele><time>2026-04-25T07:35:54Z</time></trkpt><trkpt lat="43.94777351930019" lon="12.721149770259345"><ele>23.0</ele><time>2026-04-25T07:35:55Z</time></trkpt><trkpt lat="43.947659047236286" lon="12.721109316048631"><ele>23.0</ele><time>2026-04-25T07:35:56Z</time></trkpt><trkpt lat="43.947545045807466" lon="12.721062964530386"><ele>23.0</ele><time>2026-04-25T07:35:57Z</time></trkpt><trkpt lat="43.9474331468202" lon="12.720984372430568"><ele>23.25</ele><time>2026-04-25T07:35:58Z</time></trkpt><trkpt lat="43.947323224348786" lon="12.72088014840577"><ele>23.5</ele><time>2026-04-25T07:35:59Z</time></trkpt><trkpt lat="43.947213809631585" lon="12.720764088279125"><ele>23.75</ele><time>2026-04-25T07:36:00Z</time></trkpt><trkpt lat="43.947095335590895" lon="12.720642767136093"><ele>24.0</ele><time>2026-04-25T07:36:01Z</time></trkpt><trkpt lat="43.946979614585985" lon="12.72052096820253"><ele>24.0</ele><time>2026-04-25T07:36:02Z</time></trkpt><trkpt lat="43.946870428485845" lon="12.720409450384885"><ele>24.0</ele><time>2026-04-25T07:36:03Z</time></trkpt><trkpt lat="43.94675884861589" lon="12.720290233693838"><ele>24.0</ele><time>2026-04-25T07:36:04Z</time></trkpt><trkpt lat="43.946642600863896" lon="12.720178926993354"><ele>24.0</ele><time>2026-04-25T07:36:05Z</time></trkpt><trkpt lat="43.946522192019" lon="12.720060434159086"><ele>24.0</ele><time>2026-04-25T07:36:06Z</time></trkpt><trkpt lat="43.94639810542094" lon="12.719937402680824"><ele>24.0</ele><time>2026-04-25T07:36:07Z</time></trkpt><trkpt lat="43.94627276266633" lon="12.719815492123162"><ele>24.0</ele><time>2026-04-25T07:36:08Z</time></trkpt><trkpt lat="43.946142724671226" lon="12.719688617738566"><ele>24.0</ele><time>2026-04-25T07:36:09Z</time></trkpt><trkpt lat="43.94601452172322" lon="12.719565605230228"><ele>24.0</ele><time>2026-04-25T07:36:10Z</time></trkpt><trkpt lat="43.945883296131456" lon="12.719438597969432"><ele>24.0</ele><time>2026-04-25T07:36:11Z</time></trkpt><trkpt lat="43.945752075971406" lon="12.719303776141555"><ele>24.666666666666664</ele><time>2026-04-25T07:36:12Z</time></trkpt><trkpt lat="43.94562227518395" lon="12.719169816921433"><ele>25.333333333333332</ele><time>2026-04-25T07:36:13Z</time></trkpt><trkpt lat="43.94549421490869" lon="12.719038997430463"><ele>26.0</ele><time>2026-04-25T07:36:14Z</time></trkpt><trkpt lat="43.945365710734094" lon="12.718908891612772"><ele>26.0</ele><time>2026-04-25T07:36:15Z</time></trkpt><trkpt lat="43.94524085592587" lon="12.718783958456708"><ele>26.0</ele><time>2026-04-25T07:36:16Z</time></trkpt><trkpt lat="43.94511778812891" lon="12.71866122918106"><ele>26.0</ele><time>2026-04-25T07:36:17Z</time></trkpt><trkpt lat="43.94499503825092" lon="12.718536427346903"><ele>25.75</ele><time>2026-04-25T07:36:18Z</time></trkpt><trkpt lat="43.94487754439562" lon="12.718415170487901"><ele>25.5</ele><time>2026-04-25T07:36:19Z</time></trkpt><trkpt lat="43.94476888332634" lon="12.718294996852858"><ele>25.25</ele><time>2026-04-25T07:36:20Z</time></trkpt><trkpt lat="43.944670148545576" lon="12.718172029793468"><ele>25.0</ele><time>2026-04-25T07:36:21Z</time></trkpt><trkpt lat="43.94458124631464" lon="12.71804653133414"><ele>25.0</ele><time>2026-04-25T07:36:22Z</time></trkpt><trkpt lat="43.944502492523036" lon="12.717913977190802"><ele>25.0</ele><time>2026-04-25T07:36:22.999Z</time></trkpt><trkpt lat="43.94443322112532" lon="12.717783367959317"><ele>25.0</ele><time>2026-04-25T07:36:23.999Z</time></trkpt><trkpt lat="43.94437741973944" lon="12.717659866770212"><ele>25.0</ele><time>2026-04-25T07:36:24.999Z</time></trkpt><trkpt lat="43.94432819115619" lon="12.717539682638698"><ele>25.0</ele><time>2026-04-25T07:36:25.999Z</time></trkpt><trkpt lat="43.94427698322162" lon="12.717411144632347"><ele>25.0</ele><time>2026-04-25T07:36:26.999Z</time></trkpt><trkpt lat="43.94422835574966" lon="12.717261535421052"><ele>25.0</ele><time>2026-04-25T07:36:27.999Z</time></trkpt><trkpt lat="43.94418211614465" lon="12.71709952622329"><ele>25.0</ele><time>2026-04-25T07:36:28.999Z</time></trkpt><trkpt lat="43.94414222288784" lon="12.716921791538473"><ele>25.0</ele><time>2026-04-25T07:36:29.999Z</time></trkpt><trkpt lat="43.94411006446258" lon="12.716735218537014"><ele>25.0</ele><time>2026-04-25T07:36:30.999Z</time></trkpt><trkpt lat="43.94409275242661" lon="12.716538234217692"><ele>25.0</ele><time>2026-04-25T07:36:31.999Z</time></trkpt><trkpt lat="43.94408596157629" lon="12.716336273093768"><ele>25.0</ele><time>2026-04-25T07:36:32.999Z</time></trkpt><trkpt lat="43.94408884578943" lon="12.716123656641523"><ele>25.0</ele><time>2026-04-25T07:36:33.999Z</time></trkpt><trkpt lat="43.94409416993224" lon="12.715905603033743"><ele>25.0</ele><time>2026-04-25T07:36:34.999Z</time></trkpt><trkpt lat="43.944098763072226" lon="12.715682482518037"><ele>25.0</ele><time>2026-04-25T07:36:35.999Z</time></trkpt><trkpt lat="43.944102620044866" lon="12.715461120078375"><ele>25.0</ele><time>2026-04-25T07:36:36.999Z</time></trkpt><trkpt lat="43.94410438374057" lon="12.715243145120883"><ele>25.0</ele><time>2026-04-25T07:36:37.999Z</time></trkpt><trkpt lat="43.94410429741501" lon="12.71502099248154"><ele>25.0</ele><time>2026-04-25T07:36:38.999Z</time></trkpt><trkpt lat="43.944105226407366" lon="12.714797650969972"><ele>25.0</ele><time>2026-04-25T07:36:39.999Z</time></trkpt><trkpt lat="43.94410569549951" lon="12.714578769843309"><ele>24.666666666666668</ele><time>2026-04-25T07:36:40.999Z</time></trkpt><trkpt lat="43.94410343978483" lon="12.714359874388222"><ele>24.333333333333336</ele><time>2026-04-25T07:36:41.999Z</time></trkpt><trkpt lat="43.94409734413933" lon="12.714133020446507"><ele>24.0</ele><time>2026-04-25T07:36:42.999Z</time></trkpt><trkpt lat="43.944089882318934" lon="12.713918479158002"><ele>24.0</ele><time>2026-04-25T07:36:43.999Z</time></trkpt><trkpt lat="43.94407626534467" lon="12.713701280978876"><ele>24.0</ele><time>2026-04-25T07:36:44.999Z</time></trkpt><trkpt lat="43.944057485605605" lon="12.713483385161686"><ele>24.0</ele><time>2026-04-25T07:36:45.999Z</time></trkpt><trkpt lat="43.944031732666005" lon="12.713267833302124"><ele>24.333333333333336</ele><time>2026-04-25T07:36:46.999Z</time></trkpt><trkpt lat="43.94400172786644" lon="12.713046187827764"><ele>24.666666666666668</ele><time>2026-04-25T07:36:47.999Z</time></trkpt><trkpt lat="43.94397045240321" lon="12.71281566936144"><ele>25.0</ele><time>2026-04-25T07:36:48.999Z</time></trkpt><trkpt lat="43.943932576740664" lon="12.71259453917187"><ele>25.333333333333336</ele><time>2026-04-25T07:36:49.999Z</time></trkpt><trkpt lat="43.94389004526189" lon="12.712380199254897"><ele>25.666666666666664</ele><time>2026-04-25T07:36:50.999Z</time></trkpt><trkpt lat="43.94384456174415" lon="12.712168350206685"><ele>26.0</ele><time>2026-04-25T07:36:51.999Z</time></trkpt><trkpt lat="43.94379373223128" lon="12.711944521321291"><ele>25.666666666666664</ele><time>2026-04-25T07:36:52.999Z</time></trkpt><trkpt lat="43.943742996152416" lon="12.71173137010488"><ele>25.333333333333336</ele><time>2026-04-25T07:36:53.999Z</time></trkpt><trkpt lat="43.943684842206984" lon="12.711519398776332"><ele>25.0</ele><time>2026-04-25T07:36:54.999Z</time></trkpt><trkpt lat="43.94362542940191" lon="12.711313399072772"><ele>25.0</ele><time>2026-04-25T07:36:55.999Z</time></trkpt><trkpt lat="43.943560638887824" lon="12.71109709594193"><ele>25.0</ele><time>2026-04-25T07:36:56.999Z</time></trkpt><trkpt lat="43.943495337846564" lon="12.71089876413215"><ele>25.0</ele><time>2026-04-25T07:36:57.999Z</time></trkpt><trkpt lat="43.94342213117033" lon="12.71070215108389"><ele>24.666666666666668</ele><time>2026-04-25T07:36:58.999Z</time></trkpt><trkpt lat="43.943348781099296" lon="12.710502778365921"><ele>24.333333333333336</ele><time>2026-04-25T07:36:59.999Z</time></trkpt><trkpt lat="43.943273951745624" lon="12.71031281191493"><ele>24.0</ele><time>2026-04-25T07:37:00.999Z</time></trkpt><trkpt lat="43.943195637250255" lon="12.710115723975031"><ele>24.666666666666664</ele><time>2026-04-25T07:37:01.999Z</time></trkpt><trkpt lat="43.94311805783767" lon="12.709918050612597"><ele>25.333333333333332</ele><time>2026-04-25T07:37:02.999Z</time></trkpt><trkpt lat="43.94303830513012" lon="12.709721289894206"><ele>26.0</ele><time>2026-04-25T07:37:03.999Z</time></trkpt><trkpt lat="43.94295993505218" lon="12.709521312943107"><ele>26.333333333333332</ele><time>2026-04-25T07:37:04.999Z</time></trkpt><trkpt lat="43.94287950033672" lon="12.709326438380414"><ele>26.666666666666664</ele><time>2026-04-25T07:37:05.999Z</time></trkpt><trkpt lat="43.942802618438684" lon="12.70913347669152"><ele>27.0</ele><time>2026-04-25T07:37:06.999Z</time></trkpt><trkpt lat="43.94272496438529" lon="12.708943868018217"><ele>27.0</ele><time>2026-04-25T07:37:07.999Z</time></trkpt><trkpt lat="43.94264608072524" lon="12.708750074479406"><ele>27.0</ele><time>2026-04-25T07:37:08.998Z</time></trkpt><trkpt lat="43.942573467101305" lon="12.708557835081452"><ele>27.0</ele><time>2026-04-25T07:37:09.998Z</time></trkpt><trkpt lat="43.94249797623848" lon="12.70836969808108"><ele>27.333333333333336</ele><time>2026-04-25T07:37:10.998Z</time></trkpt><trkpt lat="43.94241934356625" lon="12.70817595249481"><ele>27.666666666666668</ele><time>2026-04-25T07:37:11.998Z</time></trkpt><trkpt lat="43.94234191728407" lon="12.70798436781158"><ele>28.0</ele><time>2026-04-25T07:37:12.998Z</time></trkpt><trkpt lat="43.942267974675495" lon="12.707792231876597"><ele>28.333333333333336</ele><time>2026-04-25T07:37:13.998Z</time></trkpt><trkpt lat="43.94219017273029" lon="12.707598006292232"><ele>28.666666666666664</ele><time>2026-04-25T07:37:14.998Z</time></trkpt><trkpt lat="43.942115564462476" lon="12.707401220132386"><ele>29.0</ele><time>2026-04-25T07:37:15.998Z</time></trkpt><trkpt lat="43.942038398275635" lon="12.70720961427036"><ele>29.0</ele><time>2026-04-25T07:37:16.998Z</time></trkpt><trkpt lat="43.94195910684742" lon="12.70701614702269"><ele>29.0</ele><time>2026-04-25T07:37:17.999Z</time></trkpt><trkpt lat="43.94188605902206" lon="12.706821992656211"><ele>29.0</ele><time>2026-04-25T07:37:18.999Z</time></trkpt><trkpt lat="43.94180957923524" lon="12.706634980791007"><ele>29.0</ele><time>2026-04-25T07:37:19.999Z</time></trkpt><trkpt lat="43.94173086953239" lon="12.706443773757886"><ele>29.0</ele><time>2026-04-25T07:37:20.999Z</time></trkpt><trkpt lat="43.941653330523536" lon="12.706248803945092"><ele>29.0</ele><time>2026-04-25T07:37:21.999Z</time></trkpt><trkpt lat="43.941579463281705" lon="12.706060667779733"><ele>28.666666666666664</ele><time>2026-04-25T07:37:22.999Z</time></trkpt><trkpt lat="43.94150246421019" lon="12.70587467777232"><ele>28.333333333333336</ele><time>2026-04-25T07:37:23.999Z</time></trkpt><trkpt lat="43.94142637529472" lon="12.705687765914485"><ele>28.0</ele><time>2026-04-25T07:37:24.999Z</time></trkpt><trkpt lat="43.94135061639154" lon="12.705496032109227"><ele>28.0</ele><time>2026-04-25T07:37:25.999Z</time></trkpt><trkpt lat="43.94127624808269" lon="12.705301496644562"><ele>28.0</ele><time>2026-04-25T07:37:26.999Z</time></trkpt><trkpt lat="43.941203466064565" lon="12.70511216372062"><ele>28.0</ele><time>2026-04-25T07:37:27.999Z</time></trkpt><trkpt lat="43.941127591629595" lon="12.70492738544813"><ele>28.666666666666668</ele><time>2026-04-25T07:37:28.999Z</time></trkpt><trkpt lat="43.94105152489308" lon="12.704740441832005"><ele>29.333333333333336</ele><time>2026-04-25T07:37:29.999Z</time></trkpt><trkpt lat="43.94097549580799" lon="12.704550086960184"><ele>30.0</ele><time>2026-04-25T07:37:30.999Z</time></trkpt><trkpt lat="43.94090007523021" lon="12.704359811946826"><ele>31.0</ele><time>2026-04-25T07:37:31.999Z</time></trkpt><trkpt lat="43.940823812664426" lon="12.704176249218541"><ele>32.0</ele><time>2026-04-25T07:37:32.999Z</time></trkpt><trkpt lat="43.940752897589476" lon="12.703990006736921"><ele>33.0</ele><time>2026-04-25T07:37:33.999Z</time></trkpt><trkpt lat="43.94068235401614" lon="12.70379958217402"><ele>33.0</ele><time>2026-04-25T07:37:34.999Z</time></trkpt><trkpt lat="43.94061537332858" lon="12.703617810219258"><ele>33.0</ele><time>2026-04-25T07:37:35.999Z</time></trkpt><trkpt lat="43.94056072828755" lon="12.703418044739264"><ele>33.0</ele><time>2026-04-25T07:37:36.999Z</time></trkpt><trkpt lat="43.94051761093683" lon="12.703213011007355"><ele>33.0</ele><time>2026-04-25T07:37:37.999Z</time></trkpt><trkpt lat="43.94048489462724" lon="12.703005735589787"><ele>33.0</ele><time>2026-04-25T07:37:38.999Z</time></trkpt><trkpt lat="43.940452985590696" lon="12.7028046886981"><ele>33.0</ele><time>2026-04-25T07:37:39.999Z</time></trkpt><trkpt lat="43.940429514787866" lon="12.702600851409171"><ele>33.0</ele><time>2026-04-25T07:37:40.999Z</time></trkpt><trkpt lat="43.94040255452847" lon="12.70241087842762"><ele>33.0</ele><time>2026-04-25T07:37:41.999Z</time></trkpt><trkpt lat="43.940356093623784" lon="12.702223454708324"><ele>33.0</ele><time>2026-04-25T07:37:42.999Z</time></trkpt><trkpt lat="43.94028596387535" lon="12.702061488392019"><ele>33.0</ele><time>2026-04-25T07:37:43.999Z</time></trkpt><trkpt lat="43.94019321791734" lon="12.701924397051554"><ele>33.25</ele><time>2026-04-25T07:37:44.999Z</time></trkpt><trkpt lat="43.94008596142757" lon="12.7018367936908"><ele>33.5</ele><time>2026-04-25T07:37:45.999Z</time></trkpt><trkpt lat="43.94002240608946" lon="12.701728340516539"><ele>33.75</ele><time>2026-04-25T07:37:46.999Z</time></trkpt><trkpt lat="43.93987557514056" lon="12.7018300028131"><ele>34.0</ele><time>2026-04-25T07:37:47.999Z</time></trkpt><trkpt lat="43.939796925893845" lon="12.701920359857874"><ele>34.0</ele><time>2026-04-25T07:37:48.999Z</time></trkpt><trkpt lat="43.93973817121723" lon="12.702065539024792"><ele>34.0</ele><time>2026-04-25T07:37:49.999Z</time></trkpt><trkpt lat="43.93975749988863" lon="12.70225743589798"><ele>34.0</ele><time>2026-04-25T07:37:50.999Z</time></trkpt><trkpt lat="43.939703992195675" lon="12.70247104162571"><ele>34.0</ele><time>2026-04-25T07:37:51.999Z</time></trkpt><trkpt lat="43.939621119452475" lon="12.702660022864535"><ele>33.75</ele><time>2026-04-25T07:37:52.999Z</time></trkpt><trkpt lat="43.93948742816736" lon="12.702778772456389"><ele>33.5</ele><time>2026-04-25T07:37:53.999Z</time></trkpt><trkpt lat="43.939377405226296" lon="12.702868863819742"><ele>33.25</ele><time>2026-04-25T07:37:54.999Z</time></trkpt><trkpt lat="43.9392728136901" lon="12.702949404485572"><ele>33.0</ele><time>2026-04-25T07:37:55.999Z</time></trkpt><trkpt lat="43.93918328466335" lon="12.703033792434002"><ele>32.75</ele><time>2026-04-25T07:37:56.999Z</time></trkpt><trkpt lat="43.93907199053723" lon="12.703096556106873"><ele>32.5</ele><time>2026-04-25T07:37:57.999Z</time></trkpt><trkpt lat="43.93895783818515" lon="12.703183943391542"><ele>32.25</ele><time>2026-04-25T07:37:58.999Z</time></trkpt><trkpt lat="43.93885096540531" lon="12.70326690369371"><ele>32.0</ele><time>2026-04-25T07:37:59.999Z</time></trkpt><trkpt lat="43.93873993895435" lon="12.703353088387823"><ele>32.0</ele><time>2026-04-25T07:38:00.999Z</time></trkpt><trkpt lat="43.93863220793442" lon="12.70343589120359"><ele>32.0</ele><time>2026-04-25T07:38:01.999Z</time></trkpt><trkpt lat="43.93852435639681" lon="12.703516713392053"><ele>32.0</ele><time>2026-04-25T07:38:02.999Z</time></trkpt><trkpt lat="43.93843288205715" lon="12.70358526276103"><ele>32.0</ele><time>2026-04-25T07:38:03.999Z</time></trkpt><trkpt lat="43.93833885517645" lon="12.703650777822231"><ele>32.33333333333333</ele><time>2026-04-25T07:38:04.999Z</time></trkpt><trkpt lat="43.93824818932864" lon="12.703708704609586"><ele>32.666666666666664</ele><time>2026-04-25T07:38:05.999Z</time></trkpt><trkpt lat="43.93815808344641" lon="12.703762725345532"><ele>33.0</ele><time>2026-04-25T07:38:06.999Z</time></trkpt><trkpt lat="43.93807249959137" lon="12.703806434298546"><ele>33.333333333333336</ele><time>2026-04-25T07:38:07.999Z</time></trkpt><trkpt lat="43.9379998310124" lon="12.7038325748763"><ele>33.66666666666667</ele><time>2026-04-25T07:38:08.999Z</time></trkpt><trkpt lat="43.9379307501178" lon="12.703852644794313"><ele>34.0</ele><time>2026-04-25T07:38:09.999Z</time></trkpt><trkpt lat="43.93782233868706" lon="12.703874865195482"><ele>34.0</ele><time>2026-04-25T07:38:11.999Z</time></trkpt><trkpt lat="43.93764372526693" lon="12.70411348495353"><ele>34.0</ele><time>2026-04-25T07:38:12.999Z</time></trkpt><trkpt lat="43.93762668792274" lon="12.704201906951074"><ele>34.0</ele><time>2026-04-25T07:38:13.999Z</time></trkpt><trkpt lat="43.93765503511184" lon="12.703864997903366"><ele>33.8</ele><time>2026-04-25T07:38:15.999Z</time></trkpt><trkpt lat="43.93754504505869" lon="12.703838378267054"><ele>33.599999999999994</ele><time>2026-04-25T07:38:18.999Z</time></trkpt><trkpt lat="43.93746917203057" lon="12.703806649119407"><ele>33.4</ele><time>2026-04-25T07:38:19.999Z</time></trkpt><trkpt lat="43.937376675153395" lon="12.703767158413047"><ele>33.199999999999996</ele><time>2026-04-25T07:38:20.999Z</time></trkpt><trkpt lat="43.93727556049113" lon="12.703699605583207"><ele>33.0</ele><time>2026-04-25T07:38:21.999Z</time></trkpt><trkpt lat="43.9371732403767" lon="12.703610847760693"><ele>33.25</ele><time>2026-04-25T07:38:22.999Z</time></trkpt><trkpt lat="43.93707692627228" lon="12.70351209800786"><ele>33.5</ele><time>2026-04-25T07:38:23.999Z</time></trkpt><trkpt lat="43.93699829772951" lon="12.703388486985862"><ele>33.75</ele><time>2026-04-25T07:38:24.999Z</time></trkpt><trkpt lat="43.93692148239815" lon="12.70326899366502"><ele>34.0</ele><time>2026-04-25T07:38:25.999Z</time></trkpt><trkpt lat="43.936845534373944" lon="12.703153607938738"><ele>34.0</ele><time>2026-04-25T07:38:26.999Z</time></trkpt><trkpt lat="43.93676887053082" lon="12.70303765623023"><ele>34.0</ele><time>2026-04-25T07:38:27.999Z</time></trkpt><trkpt lat="43.936691556765645" lon="12.702923656697491"><ele>34.0</ele><time>2026-04-25T07:38:28.999Z</time></trkpt><trkpt lat="43.93661682464518" lon="12.702810204303569"><ele>34.0</ele><time>2026-04-25T07:38:29.999Z</time></trkpt><trkpt lat="43.93653971969806" lon="12.702700535100133"><ele>34.0</ele><time>2026-04-25T07:38:30.999Z</time></trkpt><trkpt lat="43.93646521991214" lon="12.702598713378345"><ele>34.6</ele><time>2026-04-25T07:38:31.999Z</time></trkpt><trkpt lat="43.93639142898481" lon="12.702501859657339"><ele>35.2</ele><time>2026-04-25T07:38:32.999Z</time></trkpt><trkpt lat="43.936316136816544" lon="12.70240415609167"><ele>35.800000000000004</ele><time>2026-04-25T07:38:33.999Z</time></trkpt><trkpt lat="43.936241002956585" lon="12.702310372486513"><ele>36.4</ele><time>2026-04-25T07:38:34.999Z</time></trkpt><trkpt lat="43.93619210167946" lon="12.702195366993209"><ele>37.0</ele><time>2026-04-25T07:38:35.999Z</time></trkpt><trkpt lat="43.936108937762" lon="12.702096015499261"><ele>37.0</ele><time>2026-04-25T07:38:36.999Z</time></trkpt><trkpt lat="43.93603921570354" lon="12.701980838326035"><ele>37.0</ele><time>2026-04-25T07:38:37.999Z</time></trkpt><trkpt lat="43.9359731579684" lon="12.701856457119012"><ele>37.0</ele><time>2026-04-25T07:38:38.999Z</time></trkpt><trkpt lat="43.93591235505556" lon="12.70172078763358"><ele>37.0</ele><time>2026-04-25T07:38:39.999Z</time></trkpt><trkpt lat="43.935848621464345" lon="12.701584455825667"><ele>36.75</ele><time>2026-04-25T07:38:40.999Z</time></trkpt><trkpt lat="43.93579860868143" lon="12.701445828108412"><ele>36.5</ele><time>2026-04-25T07:38:41.999Z</time></trkpt><trkpt lat="43.93576126834581" lon="12.701289605955687"><ele>36.25</ele><time>2026-04-25T07:38:42.999Z</time></trkpt><trkpt lat="43.93572976559261" lon="12.701122527785293"><ele>36.0</ele><time>2026-04-25T07:38:43.999Z</time></trkpt><trkpt lat="43.93569905161507" lon="12.700940720858378"><ele>36.25</ele><time>2026-04-25T07:38:44.999Z</time></trkpt><trkpt lat="43.93567001125458" lon="12.700749055156153"><ele>36.5</ele><time>2026-04-25T07:38:45.999Z</time></trkpt><trkpt lat="43.935637067912594" lon="12.700554196150952"><ele>36.75</ele><time>2026-04-25T07:38:46.999Z</time></trkpt><trkpt lat="43.93559834476659" lon="12.700363567318268"><ele>37.0</ele><time>2026-04-25T07:38:47.999Z</time></trkpt><trkpt lat="43.93555755271678" lon="12.700177606268092"><ele>37.0</ele><time>2026-04-25T07:38:48.999Z</time></trkpt><trkpt lat="43.93551232901073" lon="12.699999179547186"><ele>37.0</ele><time>2026-04-25T07:38:49.999Z</time></trkpt><trkpt lat="43.9354580575849" lon="12.699826186315844"><ele>37.0</ele><time>2026-04-25T07:38:50.999Z</time></trkpt><trkpt lat="43.93539661701932" lon="12.699659483736527"><ele>37.0</ele><time>2026-04-25T07:38:51.999Z</time></trkpt><trkpt lat="43.935330475961145" lon="12.699501272360195"><ele>37.25</ele><time>2026-04-25T07:38:52.999Z</time></trkpt><trkpt lat="43.9352605131363" lon="12.699348743854708"><ele>37.5</ele><time>2026-04-25T07:38:53.999Z</time></trkpt><trkpt lat="43.93518256314098" lon="12.699204661034667"><ele>37.75</ele><time>2026-04-25T07:38:54.999Z</time></trkpt><trkpt lat="43.935091584624615" lon="12.699065551264244"><ele>38.0</ele><time>2026-04-25T07:38:55.999Z</time></trkpt><trkpt lat="43.934998318842396" lon="12.698935653884082"><ele>38.0</ele><time>2026-04-25T07:38:56.999Z</time></trkpt><trkpt lat="43.93490566687415" lon="12.698811321243143"><ele>38.0</ele><time>2026-04-25T07:38:57.999Z</time></trkpt><trkpt lat="43.9348111743086" lon="12.698690608463215"><ele>38.0</ele><time>2026-04-25T07:38:58.999Z</time></trkpt><trkpt lat="43.93471456911961" lon="12.698569874928994"><ele>38.0</ele><time>2026-04-25T07:38:59.999Z</time></trkpt><trkpt lat="43.934618244259106" lon="12.698461389826226"><ele>38.0</ele><time>2026-04-25T07:39:00.999Z</time></trkpt><trkpt lat="43.93452938066166" lon="12.6983648673422"><ele>38.0</ele><time>2026-04-25T07:39:01.999Z</time></trkpt><trkpt lat="43.93444611763609" lon="12.698280203985057"><ele>38.0</ele><time>2026-04-25T07:39:02.999Z</time></trkpt><trkpt lat="43.934370339843156" lon="12.698203330686589"><ele>38.0</ele><time>2026-04-25T07:39:03.999Z</time></trkpt><trkpt lat="43.934298642793536" lon="12.698119311127986"><ele>38.0</ele><time>2026-04-25T07:39:04.999Z</time></trkpt><trkpt lat="43.93424337534271" lon="12.698031316945201"><ele>38.0</ele><time>2026-04-25T07:39:05.999Z</time></trkpt><trkpt lat="43.9341799576404" lon="12.697942008698263"><ele>38.0</ele><time>2026-04-25T07:39:06.999Z</time></trkpt><trkpt lat="43.934100779811196" lon="12.697860690922319"><ele>38.0</ele><time>2026-04-25T07:39:07.999Z</time></trkpt><trkpt lat="43.9340215707792" lon="12.697768482641466"><ele>38.0</ele><time>2026-04-25T07:39:08.999Z</time></trkpt><trkpt lat="43.933947393171564" lon="12.697660117562892"><ele>38.0</ele><time>2026-04-25T07:39:09.999Z</time></trkpt><trkpt lat="43.93387085065539" lon="12.697544106374723"><ele>38.0</ele><time>2026-04-25T07:39:10.999Z</time></trkpt><trkpt lat="43.933791708329686" lon="12.697437651381822"><ele>38.0</ele><time>2026-04-25T07:39:11.999Z</time></trkpt><trkpt lat="43.93370335476409" lon="12.697326563912162"><ele>38.0</ele><time>2026-04-25T07:39:12.999Z</time></trkpt><trkpt lat="43.93360217572188" lon="12.697202665583173"><ele>38.0</ele><time>2026-04-25T07:39:13.999Z</time></trkpt><trkpt lat="43.93349273532036" lon="12.697071748105163"><ele>38.25</ele><time>2026-04-25T07:39:14.999Z</time></trkpt><trkpt lat="43.933380415415826" lon="12.696940305217138"><ele>38.5</ele><time>2026-04-25T07:39:15.999Z</time></trkpt><trkpt lat="43.9332698151955" lon="12.696802758642265"><ele>38.75</ele><time>2026-04-25T07:39:16.999Z</time></trkpt><trkpt lat="43.933160532554446" lon="12.696657135735572"><ele>39.0</ele><time>2026-04-25T07:39:17.999Z</time></trkpt><trkpt lat="43.93305876316927" lon="12.696514439194136"><ele>39.0</ele><time>2026-04-25T07:39:18.999Z</time></trkpt><trkpt lat="43.93295920705394" lon="12.696374713034587"><ele>39.0</ele><time>2026-04-25T07:39:19.999Z</time></trkpt><trkpt lat="43.932857852324474" lon="12.696236146031008"><ele>39.0</ele><time>2026-04-25T07:39:20.999Z</time></trkpt><trkpt lat="43.93275734084723" lon="12.696088410883005"><ele>39.0</ele><time>2026-04-25T07:39:21.999Z</time></trkpt><trkpt lat="43.93266509565085" lon="12.695934996810928"><ele>39.0</ele><time>2026-04-25T07:39:22.999Z</time></trkpt><trkpt lat="43.93257434203017" lon="12.695783976510626"><ele>39.0</ele><time>2026-04-25T07:39:24Z</time></trkpt><trkpt lat="43.93248862698575" lon="12.695631733166476"><ele>39.0</ele><time>2026-04-25T07:39:25Z</time></trkpt><trkpt lat="43.932400717571014" lon="12.695481986038166"><ele>39.0</ele><time>2026-04-25T07:39:26Z</time></trkpt><trkpt lat="43.932313414448345" lon="12.695338246112032"><ele>39.5</ele><time>2026-04-25T07:39:27Z</time></trkpt><trkpt lat="43.932228476253805" lon="12.695192539019128"><ele>40.0</ele><time>2026-04-25T07:39:28Z</time></trkpt><trkpt lat="43.93214274554554" lon="12.69504301111756"><ele>40.5</ele><time>2026-04-25T07:39:29Z</time></trkpt><trkpt lat="43.9320582638578" lon="12.694894598305625"><ele>41.0</ele><time>2026-04-25T07:39:30Z</time></trkpt><trkpt lat="43.93197447355566" lon="12.694750777548228"><ele>41.0</ele><time>2026-04-25T07:39:31Z</time></trkpt><trkpt lat="43.931887758100395" lon="12.694600808633725"><ele>41.0</ele><time>2026-04-25T07:39:32Z</time></trkpt><trkpt lat="43.93180311774536" lon="12.694446891563159"><ele>41.0</ele><time>2026-04-25T07:39:33Z</time></trkpt><trkpt lat="43.93171864342155" lon="12.694295187677128"><ele>41.0</ele><time>2026-04-25T07:39:34Z</time></trkpt><trkpt lat="43.93163372375215" lon="12.694144997966928"><ele>41.25</ele><time>2026-04-25T07:39:35Z</time></trkpt><trkpt lat="43.931551641150854" lon="12.693996467681783"><ele>41.5</ele><time>2026-04-25T07:39:36Z</time></trkpt><trkpt lat="43.931464252559" lon="12.693843005814902"><ele>41.75</ele><time>2026-04-25T07:39:37Z</time></trkpt><trkpt lat="43.9313752863037" lon="12.693690483950663"><ele>42.0</ele><time>2026-04-25T07:39:38Z</time></trkpt><trkpt lat="43.931288304249904" lon="12.693543319119488"><ele>42.25</ele><time>2026-04-25T07:39:39Z</time></trkpt><trkpt lat="43.93120129884684" lon="12.693397510635984"><ele>42.5</ele><time>2026-04-25T07:39:40Z</time></trkpt><trkpt lat="43.931115477923086" lon="12.69324937022218"><ele>42.75</ele><time>2026-04-25T07:39:41Z</time></trkpt><trkpt lat="43.93102963745713" lon="12.693098447906024"><ele>43.0</ele><time>2026-04-25T07:39:42Z</time></trkpt><trkpt lat="43.930944829556395" lon="12.692952109350294"><ele>43.0</ele><time>2026-04-25T07:39:43Z</time></trkpt><trkpt lat="43.930858991691785" lon="12.69280812125785"><ele>43.0</ele><time>2026-04-25T07:39:44Z</time></trkpt><trkpt lat="43.930771683325425" lon="12.692663997182386"><ele>43.0</ele><time>2026-04-25T07:39:45Z</time></trkpt><trkpt lat="43.930684098120715" lon="12.692520714388431"><ele>43.0</ele><time>2026-04-25T07:39:46Z</time></trkpt><trkpt lat="43.930597827306265" lon="12.692376796878989"><ele>43.0</ele><time>2026-04-25T07:39:47Z</time></trkpt><trkpt lat="43.93051198302592" lon="12.692233726891814"><ele>43.0</ele><time>2026-04-25T07:39:47.999Z</time></trkpt><trkpt lat="43.93042675305437" lon="12.692092049977084"><ele>43.0</ele><time>2026-04-25T07:39:48.999Z</time></trkpt><trkpt lat="43.93034259812204" lon="12.691947294777469"><ele>43.0</ele><time>2026-04-25T07:39:49.999Z</time></trkpt><trkpt lat="43.9302579737283" lon="12.691802321255214"><ele>43.0</ele><time>2026-04-25T07:39:50.999Z</time></trkpt><trkpt lat="43.93017321079383" lon="12.691656285150982"><ele>43.0</ele><time>2026-04-25T07:39:51.999Z</time></trkpt><trkpt lat="43.93009106769307" lon="12.691511269507716"><ele>43.0</ele><time>2026-04-25T07:39:52.999Z</time></trkpt><trkpt lat="43.930008657776014" lon="12.691363181295248"><ele>43.0</ele><time>2026-04-25T07:39:53.999Z</time></trkpt><trkpt lat="43.929926061140044" lon="12.691223548581744"><ele>43.2</ele><time>2026-04-25T07:39:54.999Z</time></trkpt><trkpt lat="43.92984893734532" lon="12.691088915130146"><ele>43.4</ele><time>2026-04-25T07:39:55.999Z</time></trkpt><trkpt lat="43.92977846217404" lon="12.69096350453991"><ele>43.6</ele><time>2026-04-25T07:39:56.999Z</time></trkpt><trkpt lat="43.929721497504275" lon="12.690844714571229"><ele>43.800000000000004</ele><time>2026-04-25T07:39:57.999Z</time></trkpt><trkpt lat="43.92968634686509" lon="12.69072531997728"><ele>44.0</ele><time>2026-04-25T07:39:58.999Z</time></trkpt><trkpt lat="43.92967184942784" lon="12.690606003576923"><ele>44.0</ele><time>2026-04-25T07:39:59.999Z</time></trkpt><trkpt lat="43.929640734728075" lon="12.690500579227656"><ele>44.0</ele><time>2026-04-25T07:40:00.999Z</time></trkpt><trkpt lat="43.92956116017066" lon="12.69041779662493"><ele>44.0</ele><time>2026-04-25T07:40:01.999Z</time></trkpt><trkpt lat="43.92944667218112" lon="12.690335001915079"><ele>44.0</ele><time>2026-04-25T07:40:02.999Z</time></trkpt><trkpt lat="43.92933808134166" lon="12.690217748061986"><ele>44.0</ele><time>2026-04-25T07:40:03.999Z</time></trkpt><trkpt lat="43.92924754697764" lon="12.690050863007263"><ele>44.5</ele><time>2026-04-25T07:40:04.999Z</time></trkpt><trkpt lat="43.92915791047732" lon="12.689882200342215"><ele>45.0</ele><time>2026-04-25T07:40:05.999Z</time></trkpt><trkpt lat="43.92906744771327" lon="12.6897384648607"><ele>45.5</ele><time>2026-04-25T07:40:06.999Z</time></trkpt><trkpt lat="43.92897062053582" lon="12.689606647264581"><ele>46.0</ele><time>2026-04-25T07:40:07.999Z</time></trkpt><trkpt lat="43.928869558909525" lon="12.68948550794817"><ele>46.0</ele><time>2026-04-25T07:40:08.999Z</time></trkpt><trkpt lat="43.92876543023398" lon="12.689369837862701"><ele>46.0</ele><time>2026-04-25T07:40:09.999Z</time></trkpt><trkpt lat="43.92866132874257" lon="12.689250870765099"><ele>46.0</ele><time>2026-04-25T07:40:10.999Z</time></trkpt><trkpt lat="43.928558965094716" lon="12.689134539836699"><ele>46.0</ele><time>2026-04-25T07:40:11.999Z</time></trkpt><trkpt lat="43.928453801108795" lon="12.689019262488635"><ele>46.25</ele><time>2026-04-25T07:40:12.999Z</time></trkpt><trkpt lat="43.928351399409976" lon="12.688903051796972"><ele>46.5</ele><time>2026-04-25T07:40:13.999Z</time></trkpt><trkpt lat="43.92824602033132" lon="12.688787634831673"><ele>46.75</ele><time>2026-04-25T07:40:14.999Z</time></trkpt><trkpt lat="43.92814348299201" lon="12.688676714293623"><ele>47.0</ele><time>2026-04-25T07:40:15.999Z</time></trkpt><trkpt lat="43.92804501207522" lon="12.68856847417153"><ele>47.25</ele><time>2026-04-25T07:40:16.999Z</time></trkpt><trkpt lat="43.92794932721535" lon="12.68846190878063"><ele>47.5</ele><time>2026-04-25T07:40:17.999Z</time></trkpt><trkpt lat="43.92785766023971" lon="12.688357253215182"><ele>47.75</ele><time>2026-04-25T07:40:18.999Z</time></trkpt><trkpt lat="43.927765985338326" lon="12.688251348061305"><ele>48.0</ele><time>2026-04-25T07:40:19.999Z</time></trkpt><trkpt lat="43.9276738605433" lon="12.68814093646561"><ele>48.0</ele><time>2026-04-25T07:40:20.999Z</time></trkpt><trkpt lat="43.927590140074535" lon="12.688014815303129"><ele>48.0</ele><time>2026-04-25T07:40:21.999Z</time></trkpt><trkpt lat="43.927514003735816" lon="12.687874300223685"><ele>48.0</ele><time>2026-04-25T07:40:22.999Z</time></trkpt><trkpt lat="43.92744204435539" lon="12.687725237673806"><ele>48.0</ele><time>2026-04-25T07:40:23.999Z</time></trkpt><trkpt lat="43.92736720398719" lon="12.687572655942397"><ele>48.25</ele><time>2026-04-25T07:40:24.999Z</time></trkpt><trkpt lat="43.927292030385544" lon="12.68741990655392"><ele>48.5</ele><time>2026-04-25T07:40:25.999Z</time></trkpt><trkpt lat="43.92721427002834" lon="12.687272063257806"><ele>48.75</ele><time>2026-04-25T07:40:26.999Z</time></trkpt><trkpt lat="43.92714001394766" lon="12.687121975392165"><ele>49.0</ele><time>2026-04-25T07:40:27.999Z</time></trkpt><trkpt lat="43.92707313609129" lon="12.68697095496601"><ele>49.25</ele><time>2026-04-25T07:40:28.999Z</time></trkpt><trkpt lat="43.927006759608744" lon="12.686816892826187"><ele>49.5</ele><time>2026-04-25T07:40:29.999Z</time></trkpt><trkpt lat="43.9269342172057" lon="12.686665486367579"><ele>49.75</ele><time>2026-04-25T07:40:30.999Z</time></trkpt><trkpt lat="43.92685357602029" lon="12.68652827564995"><ele>50.0</ele><time>2026-04-25T07:40:31.999Z</time></trkpt><trkpt lat="43.92676904433099" lon="12.68639425111894"><ele>50.0</ele><time>2026-04-25T07:40:32.999Z</time></trkpt><trkpt lat="43.92667293747822" lon="12.686266324290024"><ele>50.0</ele><time>2026-04-25T07:40:33.999Z</time></trkpt><trkpt lat="43.92657379244396" lon="12.686143267745567"><ele>50.0</ele><time>2026-04-25T07:40:34.999Z</time></trkpt><trkpt lat="43.92647320730196" lon="12.686026215558364"><ele>50.0</ele><time>2026-04-25T07:40:35.999Z</time></trkpt><trkpt lat="43.92636875919954" lon="12.685913286679359"><ele>50.0</ele><time>2026-04-25T07:40:36.999Z</time></trkpt><trkpt lat="43.92626175949565" lon="12.68580010838159"><ele>50.0</ele><time>2026-04-25T07:40:37.999Z</time></trkpt><trkpt lat="43.92615201632941" lon="12.685688201665911"><ele>50.0</ele><time>2026-04-25T07:40:38.999Z</time></trkpt><trkpt lat="43.92604190857318" lon="12.685572664385408"><ele>50.0</ele><time>2026-04-25T07:40:39.999Z</time></trkpt><trkpt lat="43.92593022811697" lon="12.68545557427462"><ele>50.0</ele><time>2026-04-25T07:40:40.999Z</time></trkpt><trkpt lat="43.92581838221283" lon="12.685342998105943"><ele>50.0</ele><time>2026-04-25T07:40:41.999Z</time></trkpt><trkpt lat="43.92570900149977" lon="12.685226500385482"><ele>50.0</ele><time>2026-04-25T07:40:42.999Z</time></trkpt><trkpt lat="43.9255975180555" lon="12.685109352303229"><ele>50.0</ele><time>2026-04-25T07:40:43.999Z</time></trkpt><trkpt lat="43.92548541916049" lon="12.684990010094097"><ele>50.0</ele><time>2026-04-25T07:40:44.999Z</time></trkpt><trkpt lat="43.92537554702293" lon="12.684867981546779"><ele>50.0</ele><time>2026-04-25T07:40:45.999Z</time></trkpt><trkpt lat="43.925264405854556" lon="12.684748111500454"><ele>50.0</ele><time>2026-04-25T07:40:46.999Z</time></trkpt><trkpt lat="43.92515266564204" lon="12.684623004238532"><ele>50.0</ele><time>2026-04-25T07:40:47.999Z</time></trkpt><trkpt lat="43.925043981875255" lon="12.684492921927564"><ele>50.5</ele><time>2026-04-25T07:40:48.999Z</time></trkpt><trkpt lat="43.924944619058664" lon="12.684355734884274"><ele>51.0</ele><time>2026-04-25T07:40:49.999Z</time></trkpt><trkpt lat="43.92485470349612" lon="12.684204154026672"><ele>51.5</ele><time>2026-04-25T07:40:50.999Z</time></trkpt><trkpt lat="43.92477317003431" lon="12.684044328818812"><ele>52.0</ele><time>2026-04-25T07:40:51.999Z</time></trkpt><trkpt lat="43.92469454144228" lon="12.68387773736368"><ele>52.0</ele><time>2026-04-25T07:40:52.999Z</time></trkpt><trkpt lat="43.92462188339199" lon="12.683711106354146"><ele>52.0</ele><time>2026-04-25T07:40:53.999Z</time></trkpt><trkpt lat="43.9245504990806" lon="12.6835428547017"><ele>52.0</ele><time>2026-04-25T07:40:54.999Z</time></trkpt><trkpt lat="43.924478976483165" lon="12.683369418357454"><ele>52.0</ele><time>2026-04-25T07:40:55.999Z</time></trkpt><trkpt lat="43.92440594361529" lon="12.683195296636349"><ele>52.0</ele><time>2026-04-25T07:40:56.999Z</time></trkpt><trkpt lat="43.92433356034598" lon="12.68302573575693"><ele>52.0</ele><time>2026-04-25T07:40:57.999Z</time></trkpt><trkpt lat="43.924262206367764" lon="12.682851696875346"><ele>52.0</ele><time>2026-04-25T07:40:58.999Z</time></trkpt><trkpt lat="43.924193052205126" lon="12.682680424844166"><ele>52.0</ele><time>2026-04-25T07:40:59.999Z</time></trkpt><trkpt lat="43.92412233118621" lon="12.682505415611242"><ele>52.0</ele><time>2026-04-25T07:41:00.999Z</time></trkpt><trkpt lat="43.924049551155484" lon="12.682327770178825"><ele>52.0</ele><time>2026-04-25T07:41:01.999Z</time></trkpt><trkpt lat="43.92397574403155" lon="12.682151653267592"><ele>52.0</ele><time>2026-04-25T07:41:02.999Z</time></trkpt><trkpt lat="43.92390362756888" lon="12.681981918834994"><ele>52.0</ele><time>2026-04-25T07:41:03.999Z</time></trkpt><trkpt lat="43.92383459922136" lon="12.681816387490086"><ele>51.75</ele><time>2026-04-25T07:41:04.999Z</time></trkpt><trkpt lat="43.92376765301243" lon="12.68164736822099"><ele>51.5</ele><time>2026-04-25T07:41:05.999Z</time></trkpt><trkpt lat="43.92369754567717" lon="12.681472198825995"><ele>51.25</ele><time>2026-04-25T07:41:06.999Z</time></trkpt><trkpt lat="43.923627628987255" lon="12.681296942180571"><ele>51.0</ele><time>2026-04-25T07:41:07.999Z</time></trkpt><trkpt lat="43.92356241214992" lon="12.681118925810269"><ele>51.5</ele><time>2026-04-25T07:41:08.999Z</time></trkpt><trkpt lat="43.923500826395006" lon="12.680938755551399"><ele>52.0</ele><time>2026-04-25T07:41:09.999Z</time></trkpt><trkpt lat="43.92344328061141" lon="12.680756669585811"><ele>52.5</ele><time>2026-04-25T07:41:10.999Z</time></trkpt><trkpt lat="43.923387901054575" lon="12.68057398048929"><ele>53.0</ele><time>2026-04-25T07:41:11.999Z</time></trkpt><trkpt lat="43.92333497634699" lon="12.680389795754081"><ele>53.75</ele><time>2026-04-25T07:41:12.999Z</time></trkpt><trkpt lat="43.92328561262814" lon="12.680204825921292"><ele>54.5</ele><time>2026-04-25T07:41:13.999Z</time></trkpt><trkpt lat="43.92323944667683" lon="12.680016435041829"><ele>55.25</ele><time>2026-04-25T07:41:14.999Z</time></trkpt><trkpt lat="43.92319686817479" lon="12.679824131494128"><ele>56.0</ele><time>2026-04-25T07:41:15.999Z</time></trkpt><trkpt lat="43.92315207287247" lon="12.679638180011711"><ele>56.0</ele><time>2026-04-25T07:41:16.999Z</time></trkpt><trkpt lat="43.92310705031123" lon="12.679451932586778"><ele>56.0</ele><time>2026-04-25T07:41:17.999Z</time></trkpt><trkpt lat="43.92306258126396" lon="12.679263584377418"><ele>56.0</ele><time>2026-04-25T07:41:18.999Z</time></trkpt><trkpt lat="43.92301685233145" lon="12.679073203283306"><ele>56.0</ele><time>2026-04-25T07:41:19.999Z</time></trkpt><trkpt lat="43.92296965413355" lon="12.678883475013748"><ele>56.0</ele><time>2026-04-25T07:41:20.999Z</time></trkpt><trkpt lat="43.92292135776644" lon="12.678692523572199"><ele>56.0</ele><time>2026-04-25T07:41:21.999Z</time></trkpt><trkpt lat="43.92287197108677" lon="12.678504720973876"><ele>56.0</ele><time>2026-04-25T07:41:22.999Z</time></trkpt><trkpt lat="43.92282443833775" lon="12.67832015161293"><ele>56.0</ele><time>2026-04-25T07:41:23.999Z</time></trkpt><trkpt lat="43.92277814636491" lon="12.678134841101404"><ele>56.0</ele><time>2026-04-25T07:41:24.999Z</time></trkpt><trkpt lat="43.92273230406512" lon="12.677955925482113"><ele>56.0</ele><time>2026-04-25T07:41:25.999Z</time></trkpt><trkpt lat="43.92268589226914" lon="12.677773889120813"><ele>56.0</ele><time>2026-04-25T07:41:26.999Z</time></trkpt><trkpt lat="43.92264038279988" lon="12.677592080915597"><ele>56.0</ele><time>2026-04-25T07:41:27.999Z</time></trkpt><trkpt lat="43.92259418473418" lon="12.677408982344696"><ele>56.0</ele><time>2026-04-25T07:41:28.999Z</time></trkpt><trkpt lat="43.922547202467065" lon="12.67723079832094"><ele>56.0</ele><time>2026-04-25T07:41:30Z</time></trkpt><trkpt lat="43.92250287436238" lon="12.677061395616962"><ele>56.0</ele><time>2026-04-25T07:41:31Z</time></trkpt><trkpt lat="43.92246090269327" lon="12.676908472044124"><ele>56.0</ele><time>2026-04-25T07:41:32Z</time></trkpt><trkpt lat="43.92242568772409" lon="12.676767244540628"><ele>56.0</ele><time>2026-04-25T07:41:33Z</time></trkpt><trkpt lat="43.92239438787277" lon="12.676640211172261"><ele>55.99999999999999</ele><time>2026-04-25T07:41:34Z</time></trkpt><trkpt lat="43.92236962279162" lon="12.67652828378405"><ele>55.99999999999999</ele><time>2026-04-25T07:41:35Z</time></trkpt><trkpt lat="43.922342453304296" lon="12.676410068515898"><ele>56.0</ele><time>2026-04-25T07:41:36Z</time></trkpt><trkpt lat="43.92230754858423" lon="12.676252283347646"><ele>56.0</ele><time>2026-04-25T07:41:37Z</time></trkpt><trkpt lat="43.92227100816536" lon="12.67606814142316"><ele>55.66666666666667</ele><time>2026-04-25T07:41:38Z</time></trkpt><trkpt lat="43.922235408187994" lon="12.675873599470158"><ele>55.33333333333333</ele><time>2026-04-25T07:41:39Z</time></trkpt><trkpt lat="43.922201913618466" lon="12.675663547933627"><ele>55.0</ele><time>2026-04-25T07:41:40Z</time></trkpt><trkpt lat="43.92216739506873" lon="12.675427457706377"><ele>55.0</ele><time>2026-04-25T07:41:41Z</time></trkpt><trkpt lat="43.922134430545924" lon="12.6751960970734"><ele>55.0</ele><time>2026-04-25T07:41:42Z</time></trkpt><trkpt lat="43.92210288967092" lon="12.674976772843715"><ele>55.0</ele><time>2026-04-25T07:41:43Z</time></trkpt><trkpt lat="43.9220741924616" lon="12.674760035097401"><ele>55.0</ele><time>2026-04-25T07:41:44Z</time></trkpt><trkpt lat="43.9220446145093" lon="12.674547341474954"><ele>55.0</ele><time>2026-04-25T07:41:45Z</time></trkpt><trkpt lat="43.92203340060408" lon="12.674333120177879"><ele>55.0</ele><time>2026-04-25T07:41:46Z</time></trkpt><trkpt lat="43.92199027132673" lon="12.67412823394385"><ele>55.25</ele><time>2026-04-25T07:41:47Z</time></trkpt><trkpt lat="43.921965805111874" lon="12.673923697170434"><ele>55.5</ele><time>2026-04-25T07:41:48Z</time></trkpt><trkpt lat="43.92193984808303" lon="12.67372069252149"><ele>55.75</ele><time>2026-04-25T07:41:49Z</time></trkpt><trkpt lat="43.9219144954763" lon="12.673523037268822"><ele>56.0</ele><time>2026-04-25T07:41:50Z</time></trkpt><trkpt lat="43.92190450859716" lon="12.67332863884079"><ele>56.0</ele><time>2026-04-25T07:41:51Z</time></trkpt><trkpt lat="43.92188019673966" lon="12.673139670603403"><ele>56.0</ele><time>2026-04-25T07:41:52Z</time></trkpt><trkpt lat="43.92185704516008" lon="12.672955488919843"><ele>56.0</ele><time>2026-04-25T07:41:53Z</time></trkpt><trkpt lat="43.921818598232576" lon="12.672779654041607"><ele>56.0</ele><time>2026-04-25T07:41:54Z</time></trkpt><trkpt lat="43.92179799565451" lon="12.672605170041148"><ele>56.199999999999996</ele><time>2026-04-25T07:41:55Z</time></trkpt><trkpt lat="43.921779826743375" lon="12.67244477150745"><ele>56.39999999999999</ele><time>2026-04-25T07:41:56Z</time></trkpt><trkpt lat="43.92176352768995" lon="12.67229718824992"><ele>56.6</ele><time>2026-04-25T07:41:57Z</time></trkpt><trkpt lat="43.92175388857933" lon="12.67215984482172"><ele>56.8</ele><time>2026-04-25T07:41:58Z</time></trkpt><trkpt lat="43.92175812561633" lon="12.672034523390211"><ele>57.0</ele><time>2026-04-25T07:41:59Z</time></trkpt><trkpt lat="43.92177239593821" lon="12.671923268801825"><ele>57.0</ele><time>2026-04-25T07:42:00Z</time></trkpt><trkpt lat="43.92177299211663" lon="12.67181299005839"><ele>57.0</ele><time>2026-04-25T07:42:01Z</time></trkpt><trkpt lat="43.92175081617586" lon="12.671700172225428"><ele>57.0</ele><time>2026-04-25T07:42:02Z</time></trkpt><trkpt lat="43.9216950332551" lon="12.671595068247385"><ele>57.0</ele><time>2026-04-25T07:42:03Z</time></trkpt><trkpt lat="43.92166526706075" lon="12.671481355971048"><ele>57.0</ele><time>2026-04-25T07:42:04Z</time></trkpt><trkpt lat="43.921647148177016" lon="12.671347243177841"><ele>57.0</ele><time>2026-04-25T07:42:05Z</time></trkpt><trkpt lat="43.92162518215352" lon="12.671184453950177"><ele>57.75</ele><time>2026-04-25T07:42:06Z</time></trkpt><trkpt lat="43.92160038731179" lon="12.671000700316382"><ele>58.5</ele><time>2026-04-25T07:42:07Z</time></trkpt><trkpt lat="43.92157389379917" lon="12.670804085304972"><ele>59.25</ele><time>2026-04-25T07:42:08Z</time></trkpt><trkpt lat="43.92154521865835" lon="12.670591011283435"><ele>60.0</ele><time>2026-04-25T07:42:09Z</time></trkpt><trkpt lat="43.92151641120783" lon="12.670376954200588"><ele>60.25</ele><time>2026-04-25T07:42:10Z</time></trkpt><trkpt lat="43.921491200464864" lon="12.670187854056923"><ele>60.5</ele><time>2026-04-25T07:42:11Z</time></trkpt><trkpt lat="43.92146621111955" lon="12.669994519223613"><ele>60.75</ele><time>2026-04-25T07:42:11.999Z</time></trkpt><trkpt lat="43.92143769034973" lon="12.66978221579497"><ele>61.0</ele><time>2026-04-25T07:42:12.999Z</time></trkpt><trkpt lat="43.921407936390864" lon="12.669561769499788"><ele>59.666666666666664</ele><time>2026-04-25T07:42:13.999Z</time></trkpt><trkpt lat="43.92137719492948" lon="12.66933400800702"><ele>58.33333333333333</ele><time>2026-04-25T07:42:14.999Z</time></trkpt><trkpt lat="43.92134551712579" lon="12.669096996587852"><ele>57.0</ele><time>2026-04-25T07:42:15.999Z</time></trkpt><trkpt lat="43.921313660997235" lon="12.668859010349394"><ele>57.0</ele><time>2026-04-25T07:42:16.999Z</time></trkpt><trkpt lat="43.92128316075369" lon="12.66863136389772"><ele>57.0</ele><time>2026-04-25T07:42:17.999Z</time></trkpt><trkpt lat="43.921252510859865" lon="12.668402888472892"><ele>57.0</ele><time>2026-04-25T07:42:18.999Z</time></trkpt><trkpt lat="43.921207703301725" lon="12.668184816754023"><ele>57.0</ele><time>2026-04-25T07:42:19.999Z</time></trkpt><trkpt lat="43.9211825493642" lon="12.667957896938695"><ele>57.0</ele><time>2026-04-25T07:42:20.999Z</time></trkpt><trkpt lat="43.921153619613015" lon="12.667734257314546"><ele>57.0</ele><time>2026-04-25T07:42:21.999Z</time></trkpt><trkpt lat="43.921124400992895" lon="12.667515864860633"><ele>57.0</ele><time>2026-04-25T07:42:22.999Z</time></trkpt><trkpt lat="43.921093299678226" lon="12.667298834708712"><ele>57.0</ele><time>2026-04-25T07:42:23.999Z</time></trkpt><trkpt lat="43.92105840484235" lon="12.667089345023824"><ele>57.0</ele><time>2026-04-25T07:42:24.999Z</time></trkpt><trkpt lat="43.92102969053747" lon="12.666879879669088"><ele>57.0</ele><time>2026-04-25T07:42:25.999Z</time></trkpt><trkpt lat="43.92096781387523" lon="12.666671540507735"><ele>57.0</ele><time>2026-04-25T07:42:26.999Z</time></trkpt><trkpt lat="43.92089207148362" lon="12.66647248306612"><ele>57.0</ele><time>2026-04-25T07:42:27.999Z</time></trkpt><trkpt lat="43.920800230092006" lon="12.666297235277577"><ele>59.0</ele><time>2026-04-25T07:42:28.999Z</time></trkpt><trkpt lat="43.920720848098675" lon="12.666115642956862"><ele>61.0</ele><time>2026-04-25T07:42:29.999Z</time></trkpt><trkpt lat="43.92065474396171" lon="12.665920594014866"><ele>63.0</ele><time>2026-04-25T07:42:30.999Z</time></trkpt><trkpt lat="43.920576534909586" lon="12.665735242020224"><ele>63.0</ele><time>2026-04-25T07:42:31.999Z</time></trkpt><trkpt lat="43.920495463598215" lon="12.665545974498936"><ele>63.0</ele><time>2026-04-25T07:42:32.999Z</time></trkpt><trkpt lat="43.92041152809978" lon="12.665349415116525"><ele>63.0</ele><time>2026-04-25T07:42:33.999Z</time></trkpt><trkpt lat="43.920328982171654" lon="12.665155981090052"><ele>63.33333333333333</ele><time>2026-04-25T07:42:34.999Z</time></trkpt><trkpt lat="43.920244563125024" lon="12.664955476732496"><ele>63.666666666666664</ele><time>2026-04-25T07:42:35.999Z</time></trkpt><trkpt lat="43.92016377336791" lon="12.664757224503012"><ele>64.0</ele><time>2026-04-25T07:42:36.999Z</time></trkpt><trkpt lat="43.92008823575406" lon="12.66455792332902"><ele>64.66666666666666</ele><time>2026-04-25T07:42:37.999Z</time></trkpt><trkpt lat="43.92001219582491" lon="12.664356155961308"><ele>65.33333333333333</ele><time>2026-04-25T07:42:38.999Z</time></trkpt><trkpt lat="43.919962786110766" lon="12.664149502331313"><ele>66.0</ele><time>2026-04-25T07:42:39.999Z</time></trkpt><trkpt lat="43.9199152797736" lon="12.66393842010456"><ele>66.0</ele><time>2026-04-25T07:42:40.999Z</time></trkpt><trkpt lat="43.91986550039449" lon="12.66373326595079"><ele>66.0</ele><time>2026-04-25T07:42:41.999Z</time></trkpt><trkpt lat="43.91981385660447" lon="12.663524074768638"><ele>66.0</ele><time>2026-04-25T07:42:42.999Z</time></trkpt><trkpt lat="43.91976522350968" lon="12.663312875380514"><ele>66.0</ele><time>2026-04-25T07:42:43.999Z</time></trkpt><trkpt lat="43.919716355260775" lon="12.663104933000435"><ele>66.0</ele><time>2026-04-25T07:42:44.999Z</time></trkpt><trkpt lat="43.91966591679231" lon="12.662896182204513"><ele>66.0</ele><time>2026-04-25T07:42:45.999Z</time></trkpt><trkpt lat="43.919612465191655" lon="12.662683582921785"><ele>66.0</ele><time>2026-04-25T07:42:46.999Z</time></trkpt><trkpt lat="43.91955214595928" lon="12.662481073680373"><ele>66.0</ele><time>2026-04-25T07:42:47.999Z</time></trkpt><trkpt lat="43.91947803614836" lon="12.662285304764877"><ele>66.0</ele><time>2026-04-25T07:42:48.999Z</time></trkpt><trkpt lat="43.91939263096358" lon="12.662093501680287"><ele>66.0</ele><time>2026-04-25T07:42:49.999Z</time></trkpt><trkpt lat="43.91930208572602" lon="12.66192214314905"><ele>66.0</ele><time>2026-04-25T07:42:50.999Z</time></trkpt><trkpt lat="43.91921069137538" lon="12.661758138517504"><ele>66.0</ele><time>2026-04-25T07:42:51.999Z</time></trkpt><trkpt lat="43.91911711832619" lon="12.661585785195806"><ele>66.66666666666667</ele><time>2026-04-25T07:42:52.999Z</time></trkpt><trkpt lat="43.919022731847875" lon="12.661414307763298"><ele>67.33333333333334</ele><time>2026-04-25T07:42:53.999Z</time></trkpt><trkpt lat="43.918929002130035" lon="12.661248825210912"><ele>68.0</ele><time>2026-04-25T07:42:54.999Z</time></trkpt><trkpt lat="43.91883414190417" lon="12.661077075630518"><ele>68.5</ele><time>2026-04-25T07:42:55.999Z</time></trkpt><trkpt lat="43.91874191964699" lon="12.660914790782668"><ele>69.0</ele><time>2026-04-25T07:42:56.999Z</time></trkpt><trkpt lat="43.91864857340455" lon="12.660751216529773"><ele>69.5</ele><time>2026-04-25T07:42:57.999Z</time></trkpt><trkpt lat="43.91855889662988" lon="12.660592993753044"><ele>70.0</ele><time>2026-04-25T07:42:58.999Z</time></trkpt><trkpt lat="43.91846871878334" lon="12.660425852390965"><ele>70.0</ele><time>2026-04-25T07:42:59.999Z</time></trkpt><trkpt lat="43.91837911401944" lon="12.660262286467752"><ele>70.0</ele><time>2026-04-25T07:43:00.999Z</time></trkpt><trkpt lat="43.91828902418465" lon="12.660099657789878"><ele>70.0</ele><time>2026-04-25T07:43:01.999Z</time></trkpt><trkpt lat="43.91819797869309" lon="12.659933265679093"><ele>70.0</ele><time>2026-04-25T07:43:02.999Z</time></trkpt><trkpt lat="43.91810818607824" lon="12.659775352100821"><ele>70.0</ele><time>2026-04-25T07:43:03.999Z</time></trkpt><trkpt lat="43.918023005921526" lon="12.659624323526344"><ele>70.0</ele><time>2026-04-25T07:43:04.999Z</time></trkpt><trkpt lat="43.91794527244887" lon="12.659486827034184"><ele>70.0</ele><time>2026-04-25T07:43:05.999Z</time></trkpt><trkpt lat="43.91787028222497" lon="12.659362484427573"><ele>70.0</ele><time>2026-04-25T07:43:06.999Z</time></trkpt><trkpt lat="43.91779012494337" lon="12.65924477543891"><ele>70.0</ele><time>2026-04-25T07:43:07.999Z</time></trkpt><trkpt lat="43.91770559808804" lon="12.659120019069617"><ele>70.0</ele><time>2026-04-25T07:43:08.999Z</time></trkpt><trkpt lat="43.917623746409035" lon="12.658980456857087"><ele>70.0</ele><time>2026-04-25T07:43:09.999Z</time></trkpt><trkpt lat="43.917546753201954" lon="12.658829379671646"><ele>70.0</ele><time>2026-04-25T07:43:10.999Z</time></trkpt><trkpt lat="43.91747250559357" lon="12.658676732206407"><ele>70.5</ele><time>2026-04-25T07:43:11.999Z</time></trkpt><trkpt lat="43.917396544110154" lon="12.658526116460136"><ele>71.0</ele><time>2026-04-25T07:43:12.999Z</time></trkpt><trkpt lat="43.917315396179134" lon="12.658381905621484"><ele>71.5</ele><time>2026-04-25T07:43:13.999Z</time></trkpt><trkpt lat="43.91723667687954" lon="12.658234760554118"><ele>72.0</ele><time>2026-04-25T07:43:14.999Z</time></trkpt><trkpt lat="43.91715998631603" lon="12.658089791000588"><ele>72.0</ele><time>2026-04-25T07:43:15.999Z</time></trkpt><trkpt lat="43.917081775041716" lon="12.657945527285904"><ele>72.0</ele><time>2026-04-25T07:43:16.999Z</time></trkpt><trkpt lat="43.9170035647469" lon="12.65780105904866"><ele>72.0</ele><time>2026-04-25T07:43:17.999Z</time></trkpt><trkpt lat="43.916925167716975" lon="12.657661205485509"><ele>72.0</ele><time>2026-04-25T07:43:18.999Z</time></trkpt><trkpt lat="43.91685267381462" lon="12.657533231418338"><ele>72.33333333333333</ele><time>2026-04-25T07:43:19.999Z</time></trkpt><trkpt lat="43.91678591375689" lon="12.657416105052844"><ele>72.66666666666667</ele><time>2026-04-25T07:43:20.999Z</time></trkpt><trkpt lat="43.9167223700064" lon="12.657309167203268"><ele>73.0</ele><time>2026-04-25T07:43:21.999Z</time></trkpt><trkpt lat="43.91666790932006" lon="12.657218908483431"><ele>73.33333333333334</ele><time>2026-04-25T07:43:22.999Z</time></trkpt><trkpt lat="43.916627025978734" lon="12.657146570570093"><ele>73.66666666666667</ele><time>2026-04-25T07:43:23.999Z</time></trkpt><trkpt lat="43.916585130775275" lon="12.657056460622035"><ele>74.0</ele><time>2026-04-25T07:43:25.999Z</time></trkpt><trkpt lat="43.91654403437441" lon="12.656903765684946"><ele>74.0</ele><time>2026-04-25T07:43:27.999Z</time></trkpt><trkpt lat="43.916496103985665" lon="12.656820446961282"><ele>74.0</ele><time>2026-04-25T07:43:28.999Z</time></trkpt><trkpt lat="43.91643566381302" lon="12.656748020200215"><ele>74.0</ele><time>2026-04-25T07:43:29.999Z</time></trkpt><trkpt lat="43.91636627627879" lon="12.656665839374714"><ele>74.0</ele><time>2026-04-25T07:43:30.999Z</time></trkpt><trkpt lat="43.91631009231818" lon="12.656568514519247"><ele>74.0</ele><time>2026-04-25T07:43:31.999Z</time></trkpt><trkpt lat="43.916264157562324" lon="12.656483180487834"><ele>74.0</ele><time>2026-04-25T07:43:32.999Z</time></trkpt><trkpt lat="43.916223188451035" lon="12.656402445877728"><ele>74.0</ele><time>2026-04-25T07:43:33.999Z</time></trkpt><trkpt lat="43.91618403630321" lon="12.656322352752326"><ele>74.0</ele><time>2026-04-25T07:43:34.999Z</time></trkpt><trkpt lat="43.91614008881562" lon="12.656233025474664"><ele>74.0</ele><time>2026-04-25T07:43:36Z</time></trkpt><trkpt lat="43.91609681136663" lon="12.65613967252719"><ele>74.0</ele><time>2026-04-25T07:43:37Z</time></trkpt><trkpt lat="43.91605406524624" lon="12.656043522536729"><ele>74.0</ele><time>2026-04-25T07:43:38Z</time></trkpt><trkpt lat="43.91601122772008" lon="12.655948040655447"><ele>74.0</ele><time>2026-04-25T07:43:39Z</time></trkpt><trkpt lat="43.91596840419301" lon="12.655852369017751"><ele>74.16666666666667</ele><time>2026-04-25T07:43:40Z</time></trkpt><trkpt lat="43.91592936705619" lon="12.655754808448856"><ele>74.33333333333334</ele><time>2026-04-25T07:43:41Z</time></trkpt><trkpt lat="43.915900865029144" lon="12.655657427314376"><ele>74.5</ele><time>2026-04-25T07:43:42Z</time></trkpt><trkpt lat="43.915882122023305" lon="12.655554134039875"><ele>74.66666666666667</ele><time>2026-04-25T07:43:43Z</time></trkpt><trkpt lat="43.91586622551196" lon="12.655448814766196"><ele>74.83333333333333</ele><time>2026-04-25T07:43:44Z</time></trkpt><trkpt lat="43.91584643359463" lon="12.655339348907566"><ele>75.0</ele><time>2026-04-25T07:43:45Z</time></trkpt><trkpt lat="43.91582159166414" lon="12.655227274591734"><ele>75.16666666666667</ele><time>2026-04-25T07:43:46Z</time></trkpt><trkpt lat="43.91579545357807" lon="12.655110532939608"><ele>75.33333333333333</ele><time>2026-04-25T07:43:47Z</time></trkpt><trkpt lat="43.915771013741164" lon="12.654990639409737"><ele>75.5</ele><time>2026-04-25T07:43:48Z</time></trkpt><trkpt lat="43.91575037354302" lon="12.65486813789486"><ele>75.66666666666666</ele><time>2026-04-25T07:43:49Z</time></trkpt><trkpt lat="43.91572987759383" lon="12.654745258691058"><ele>75.83333333333333</ele><time>2026-04-25T07:43:50Z</time></trkpt><trkpt lat="43.915708328035436" lon="12.65462395277604"><ele>76.0</ele><time>2026-04-25T07:43:51Z</time></trkpt><trkpt lat="43.91568466761157" lon="12.654504570000425"><ele>76.16666666666666</ele><time>2026-04-25T07:43:52Z</time></trkpt><trkpt lat="43.915661096650226" lon="12.654385531607428"><ele>76.33333333333333</ele><time>2026-04-25T07:43:53Z</time></trkpt><trkpt lat="43.91563833755414" lon="12.654268011022353"><ele>76.5</ele><time>2026-04-25T07:43:54Z</time></trkpt><trkpt lat="43.91561562332417" lon="12.654150773657387"><ele>76.66666666666667</ele><time>2026-04-25T07:43:55Z</time></trkpt><trkpt lat="43.91559295366078" lon="12.654034490694961"><ele>76.83333333333334</ele><time>2026-04-25T07:43:56Z</time></trkpt><trkpt lat="43.91556910703475" lon="12.653919618083245"><ele>77.0</ele><time>2026-04-25T07:43:57Z</time></trkpt><trkpt lat="43.91554369462859" lon="12.653804466305154"><ele>77.0</ele><time>2026-04-25T07:43:58Z</time></trkpt><trkpt lat="43.915521306496004" lon="12.653689082647672"><ele>77.0</ele><time>2026-04-25T07:43:59Z</time></trkpt><trkpt lat="43.915501053496904" lon="12.653576070689974"><ele>77.0</ele><time>2026-04-25T07:44:00Z</time></trkpt><trkpt lat="43.915479991781666" lon="12.653466436584305"><ele>77.0</ele><time>2026-04-25T07:44:01Z</time></trkpt><trkpt lat="43.91545918443578" lon="12.65335808443819"><ele>77.0</ele><time>2026-04-25T07:44:02Z</time></trkpt><trkpt lat="43.91543502187164" lon="12.653252481032013"><ele>77.0</ele><time>2026-04-25T07:44:03Z</time></trkpt><trkpt lat="43.915412649677876" lon="12.653144174383483"><ele>77.0</ele><time>2026-04-25T07:44:04Z</time></trkpt><trkpt lat="43.915392817987446" lon="12.653031758264339"><ele>77.0</ele><time>2026-04-25T07:44:05Z</time></trkpt><trkpt lat="43.91536612545483" lon="12.652923946013678"><ele>77.0</ele><time>2026-04-25T07:44:06Z</time></trkpt><trkpt lat="43.91534468696566" lon="12.652803658964265"><ele>77.0</ele><time>2026-04-25T07:44:07Z</time></trkpt><trkpt lat="43.91532292866308" lon="12.65267617911657"><ele>77.0</ele><time>2026-04-25T07:44:08Z</time></trkpt><trkpt lat="43.9153026467201" lon="12.652552994085934"><ele>77.0</ele><time>2026-04-25T07:44:09Z</time></trkpt><trkpt lat="43.915281336896115" lon="12.652435911456537"><ele>77.16666666666667</ele><time>2026-04-25T07:44:10Z</time></trkpt><trkpt lat="43.91526390247209" lon="12.652333300700427"><ele>77.33333333333334</ele><time>2026-04-25T07:44:11Z</time></trkpt><trkpt lat="43.91525413041241" lon="12.652240456035122"><ele>77.5</ele><time>2026-04-25T07:44:12Z</time></trkpt><trkpt lat="43.91524093267198" lon="12.652147675619544"><ele>77.66666666666667</ele><time>2026-04-25T07:44:13Z</time></trkpt><trkpt lat="43.91520275534578" lon="12.652044242336103"><ele>77.83333333333333</ele><time>2026-04-25T07:44:14Z</time></trkpt><trkpt lat="43.915166160574465" lon="12.651955720297272"><ele>78.0</ele><time>2026-04-25T07:44:15Z</time></trkpt><trkpt lat="43.915116928040796" lon="12.651801727411971"><ele>77.83333333333333</ele><time>2026-04-25T07:44:17Z</time></trkpt><trkpt lat="43.91503935803647" lon="12.651772867313413"><ele>77.66666666666667</ele><time>2026-04-25T07:44:18Z</time></trkpt><trkpt lat="43.91496003994409" lon="12.651750125230674"><ele>77.5</ele><time>2026-04-25T07:44:19Z</time></trkpt><trkpt lat="43.91488520685829" lon="12.65171852251224"><ele>77.33333333333334</ele><time>2026-04-25T07:44:20Z</time></trkpt><trkpt lat="43.914823895701424" lon="12.651666613565528"><ele>77.16666666666667</ele><time>2026-04-25T07:44:21Z</time></trkpt><trkpt lat="43.91476278992816" lon="12.651602023959304"><ele>77.0</ele><time>2026-04-25T07:44:22Z</time></trkpt><trkpt lat="43.914697984042625" lon="12.651536660447688"><ele>77.0</ele><time>2026-04-25T07:44:23Z</time></trkpt><trkpt lat="43.91463089123241" lon="12.65147170618295"><ele>77.0</ele><time>2026-04-25T07:44:24Z</time></trkpt><trkpt lat="43.914565205223454" lon="12.651407175899818"><ele>77.0</ele><time>2026-04-25T07:44:25Z</time></trkpt><trkpt lat="43.91449980094788" lon="12.65134220837644"><ele>77.0</ele><time>2026-04-25T07:44:26Z</time></trkpt><trkpt lat="43.914433940112474" lon="12.651277705607676"><ele>77.0</ele><time>2026-04-25T07:44:27Z</time></trkpt><trkpt lat="43.914362288902794" lon="12.651204680891055"><ele>77.0</ele><time>2026-04-25T07:44:28Z</time></trkpt><trkpt lat="43.91428713287957" lon="12.65112861410753"><ele>77.6</ele><time>2026-04-25T07:44:29Z</time></trkpt><trkpt lat="43.914219143375185" lon="12.65105020424482"><ele>78.2</ele><time>2026-04-25T07:44:30Z</time></trkpt><trkpt lat="43.914145136012344" lon="12.650974701840806"><ele>78.8</ele><time>2026-04-25T07:44:31Z</time></trkpt><trkpt lat="43.91407161206059" lon="12.65089972015547"><ele>79.4</ele><time>2026-04-25T07:44:32Z</time></trkpt><trkpt lat="43.91399608178007" lon="12.650822829067204"><ele>80.0</ele><time>2026-04-25T07:44:33Z</time></trkpt><trkpt lat="43.91392159134594" lon="12.650748535607082"><ele>80.0</ele><time>2026-04-25T07:44:33.999Z</time></trkpt><trkpt lat="43.91385776172868" lon="12.65067987482372"><ele>80.0</ele><time>2026-04-25T07:44:34.999Z</time></trkpt><trkpt lat="43.91380705826503" lon="12.650613936086659"><ele>80.0</ele><time>2026-04-25T07:44:35.999Z</time></trkpt><trkpt lat="43.913732079264555" lon="12.650510763650573"><ele>80.0</ele><time>2026-04-25T07:44:37.999Z</time></trkpt><trkpt lat="43.91366947510374" lon="12.650471351115923"><ele>80.0</ele><time>2026-04-25T07:45:22.999Z</time></trkpt><trkpt lat="43.91359285656729" lon="12.650368996192553"><ele>80.0</ele><time>2026-04-25T07:45:24.999Z</time></trkpt><trkpt lat="43.91353005010435" lon="12.650306983710516"><ele>80.2</ele><time>2026-04-25T07:45:25.999Z</time></trkpt><trkpt lat="43.91345016722271" lon="12.650230652535178"><ele>80.4</ele><time>2026-04-25T07:45:26.999Z</time></trkpt><trkpt lat="43.913373235795454" lon="12.650159837489703"><ele>80.6</ele><time>2026-04-25T07:45:27.999Z</time></trkpt><trkpt lat="43.91328617155076" lon="12.650080980485694"><ele>80.8</ele><time>2026-04-25T07:45:28.999Z</time></trkpt><trkpt lat="43.913192994807524" lon="12.649989038456766"><ele>81.0</ele><time>2026-04-25T07:45:29.999Z</time></trkpt><trkpt lat="43.91310921292345" lon="12.649907850865935"><ele>81.19999999999999</ele><time>2026-04-25T07:45:30.999Z</time></trkpt><trkpt lat="43.91304333113239" lon="12.649850753160848"><ele>81.39999999999999</ele><time>2026-04-25T07:45:31.999Z</time></trkpt><trkpt lat="43.91297464775789" lon="12.649786743700938"><ele>81.6</ele><time>2026-04-25T07:45:33.999Z</time></trkpt><trkpt lat="43.91287298553635" lon="12.649946892516946"><ele>81.8</ele><time>2026-04-25T07:45:34.999Z</time></trkpt><trkpt lat="43.91280975122528" lon="12.650070585293076"><ele>82.0</ele><time>2026-04-25T07:45:35.999Z</time></trkpt><trkpt lat="43.91274846772665" lon="12.650198004386885"><ele>82.0</ele><time>2026-04-25T07:45:36.999Z</time></trkpt><trkpt lat="43.912683033558295" lon="12.650322441139659"><ele>82.0</ele><time>2026-04-25T07:45:37.999Z</time></trkpt><trkpt lat="43.912622479538435" lon="12.650428769534726"><ele>82.0</ele><time>2026-04-25T07:45:38.999Z</time></trkpt><trkpt lat="43.912567011707935" lon="12.650520115760726"><ele>82.0</ele><time>2026-04-25T07:45:39.999Z</time></trkpt><trkpt lat="43.91250742028954" lon="12.65061721916288"><ele>82.0</ele><time>2026-04-25T07:45:40.999Z</time></trkpt><trkpt lat="43.9124397680418" lon="12.65072841804647"><ele>82.5</ele><time>2026-04-25T07:45:42Z</time></trkpt><trkpt lat="43.912365965046874" lon="12.650842400673287"><ele>83.0</ele><time>2026-04-25T07:45:43Z</time></trkpt><trkpt lat="43.912279723000154" lon="12.650951233683728"><ele>83.5</ele><time>2026-04-25T07:45:44Z</time></trkpt><trkpt lat="43.912182133428495" lon="12.651049823989252"><ele>84.0</ele><time>2026-04-25T07:45:45Z</time></trkpt><trkpt lat="43.912075245180354" lon="12.65114814870935"><ele>84.0</ele><time>2026-04-25T07:45:46Z</time></trkpt><trkpt lat="43.91196170819029" lon="12.651257604136154"><ele>84.0</ele><time>2026-04-25T07:45:47Z</time></trkpt><trkpt lat="43.911850208524505" lon="12.651368776809324"><ele>84.0</ele><time>2026-04-25T07:45:48Z</time></trkpt><trkpt lat="43.911730598539044" lon="12.651483421860481"><ele>84.0</ele><time>2026-04-25T07:45:49Z</time></trkpt><trkpt lat="43.9116156046764" lon="12.651586001519584"><ele>85.25</ele><time>2026-04-25T07:45:50Z</time></trkpt><trkpt lat="43.911508685936234" lon="12.651715828638398"><ele>86.5</ele><time>2026-04-25T07:45:51Z</time></trkpt><trkpt lat="43.911394672928644" lon="12.651814240533696"><ele>87.75</ele><time>2026-04-25T07:45:52Z</time></trkpt><trkpt lat="43.91129450647851" lon="12.651947283768207"><ele>89.0</ele><time>2026-04-25T07:45:53Z</time></trkpt><trkpt lat="43.91121413242432" lon="12.65209037491242"><ele>89.25</ele><time>2026-04-25T07:45:54Z</time></trkpt><trkpt lat="43.911146726074016" lon="12.652255034735706"><ele>89.5</ele><time>2026-04-25T07:45:55Z</time></trkpt><trkpt lat="43.91109137850956" lon="12.652422057218637"><ele>89.75</ele><time>2026-04-25T07:45:56Z</time></trkpt><trkpt lat="43.911047159215734" lon="12.652597850929668"><ele>90.0</ele><time>2026-04-25T07:45:57Z</time></trkpt><trkpt lat="43.9110004936289" lon="12.652775023668397"><ele>90.25</ele><time>2026-04-25T07:45:58Z</time></trkpt><trkpt lat="43.91094687819176" lon="12.652961743830605"><ele>90.5</ele><time>2026-04-25T07:45:59Z</time></trkpt><trkpt lat="43.910884020363575" lon="12.653146898525167"><ele>90.75</ele><time>2026-04-25T07:46:00Z</time></trkpt><trkpt lat="43.91081175300263" lon="12.653325510899142"><ele>91.0</ele><time>2026-04-25T07:46:01Z</time></trkpt><trkpt lat="43.910733275346566" lon="12.653501412919969"><ele>93.5</ele><time>2026-04-25T07:46:02Z</time></trkpt><trkpt lat="43.91064425355098" lon="12.653671757450102"><ele>96.0</ele><time>2026-04-25T07:46:03Z</time></trkpt><trkpt lat="43.91055732381773" lon="12.653835307838692"><ele>98.5</ele><time>2026-04-25T07:46:04Z</time></trkpt><trkpt lat="43.91048389574222" lon="12.654013380072913"><ele>101.0</ele><time>2026-04-25T07:46:05Z</time></trkpt><trkpt lat="43.91043271128407" lon="12.654208249711553"><ele>101.0</ele><time>2026-04-25T07:46:06Z</time></trkpt><trkpt lat="43.91039170125189" lon="12.65440980720717"><ele>101.0</ele><time>2026-04-25T07:46:07Z</time></trkpt><trkpt lat="43.91034755840806" lon="12.65462669562791"><ele>101.0</ele><time>2026-04-25T07:46:08Z</time></trkpt><trkpt lat="43.910299236385754" lon="12.654847488995937"><ele>100.0</ele><time>2026-04-25T07:46:09Z</time></trkpt><trkpt lat="43.9102545189718" lon="12.655056556998302"><ele>99.0</ele><time>2026-04-25T07:46:10Z</time></trkpt><trkpt lat="43.91021168829056" lon="12.655259360208982"><ele>98.0</ele><time>2026-04-25T07:46:11Z</time></trkpt><trkpt lat="43.91017170550903" lon="12.655457085655707"><ele>96.5</ele><time>2026-04-25T07:46:12Z</time></trkpt><trkpt lat="43.910144694730135" lon="12.655659302448937"><ele>95.0</ele><time>2026-04-25T07:46:13Z</time></trkpt><trkpt lat="43.91014950240257" lon="12.655865068347888"><ele>93.5</ele><time>2026-04-25T07:46:14Z</time></trkpt><trkpt lat="43.91019306891315" lon="12.656065685821885"><ele>92.0</ele><time>2026-04-25T07:46:15Z</time></trkpt><trkpt lat="43.91026408441198" lon="12.656265969185947"><ele>89.66666666666667</ele><time>2026-04-25T07:46:16Z</time></trkpt><trkpt lat="43.910346118268855" lon="12.656466482389916"><ele>87.33333333333333</ele><time>2026-04-25T07:46:17Z</time></trkpt><trkpt lat="43.91041075799528" lon="12.656669381364795"><ele>85.0</ele><time>2026-04-25T07:46:18Z</time></trkpt><trkpt lat="43.91046018910371" lon="12.65689264702606"><ele>83.66666666666666</ele><time>2026-04-25T07:46:19Z</time></trkpt><trkpt lat="43.91050051830898" lon="12.657122662294627"><ele>82.33333333333333</ele><time>2026-04-25T07:46:20Z</time></trkpt><trkpt lat="43.910537110430894" lon="12.65736095327938"><ele>81.0</ele><time>2026-04-25T07:46:21Z</time></trkpt><trkpt lat="43.9105543606957" lon="12.657590100805548"><ele>79.33333333333333</ele><time>2026-04-25T07:46:22Z</time></trkpt><trkpt lat="43.91055217118331" lon="12.657817516535149"><ele>77.66666666666666</ele><time>2026-04-25T07:46:23Z</time></trkpt><trkpt lat="43.91054376662639" lon="12.65803518146985"><ele>76.0</ele><time>2026-04-25T07:46:24Z</time></trkpt><trkpt lat="43.91053396063958" lon="12.658241988286505"><ele>76.0</ele><time>2026-04-25T07:46:25Z</time></trkpt><trkpt lat="43.91051404104077" lon="12.658431690444061"><ele>76.0</ele><time>2026-04-25T07:46:26Z</time></trkpt><trkpt lat="43.910485491525215" lon="12.658573957412704"><ele>76.0</ele><time>2026-04-25T07:46:27Z</time></trkpt><trkpt lat="43.91045841116706" lon="12.658663381818698"><ele>76.0</ele><time>2026-04-25T07:46:28Z</time></trkpt><trkpt lat="43.91044003377345" lon="12.658761369520182"><ele>76.0</ele><time>2026-04-25T07:46:29Z</time></trkpt><trkpt lat="43.910438948135" lon="12.658893176695097"><ele>75.39999999999999</ele><time>2026-04-25T07:46:30Z</time></trkpt><trkpt lat="43.910458721041024" lon="12.659048640389747"><ele>74.8</ele><time>2026-04-25T07:46:31Z</time></trkpt><trkpt lat="43.91046953677917" lon="12.659204728437283"><ele>74.19999999999999</ele><time>2026-04-25T07:46:32Z</time></trkpt><trkpt lat="43.91046880677904" lon="12.659339529732854"><ele>73.6</ele><time>2026-04-25T07:46:33Z</time></trkpt><trkpt lat="43.91046937811501" lon="12.659460389908926"><ele>73.0</ele><time>2026-04-25T07:46:34Z</time></trkpt><trkpt lat="43.91046335127386" lon="12.659547742781967"><ele>73.0</ele><time>2026-04-25T07:46:35Z</time></trkpt><trkpt lat="43.91034601310551" lon="12.659503522620437"><ele>73.0</ele><time>2026-04-25T07:46:41Z</time></trkpt><trkpt lat="43.91030354019228" lon="12.65939614459049"><ele>73.0</ele><time>2026-04-25T07:46:47.999Z</time></trkpt><trkpt lat="43.91023445378993" lon="12.659233475883168"><ele>73.0</ele><time>2026-04-25T07:46:49.999Z</time></trkpt><trkpt lat="43.91018753766972" lon="12.659131451652442"><ele>73.0</ele><time>2026-04-25T07:46:50.999Z</time></trkpt><trkpt lat="43.91013242922537" lon="12.659023327182496"><ele>72.75</ele><time>2026-04-25T07:46:51.999Z</time></trkpt><trkpt lat="43.910065738213625" lon="12.658907814011306"><ele>72.5</ele><time>2026-04-25T07:46:52.999Z</time></trkpt><trkpt lat="43.91001051684314" lon="12.658767860317543"><ele>72.25</ele><time>2026-04-25T07:46:53.999Z</time></trkpt><trkpt lat="43.90993736476138" lon="12.658632066766366"><ele>72.0</ele><time>2026-04-25T07:46:54.999Z</time></trkpt><trkpt lat="43.90985773106044" lon="12.65848696498499"><ele>72.0</ele><time>2026-04-25T07:46:55.999Z</time></trkpt><trkpt lat="43.90976329568952" lon="12.65835830791211"><ele>72.0</ele><time>2026-04-25T07:46:56.999Z</time></trkpt><trkpt lat="43.909677670178006" lon="12.658224073146185"><ele>72.0</ele><time>2026-04-25T07:46:57.999Z</time></trkpt><trkpt lat="43.90958679151956" lon="12.65809029435599"><ele>72.0</ele><time>2026-04-25T07:46:58.999Z</time></trkpt><trkpt lat="43.9094974101305" lon="12.657953623725358"><ele>72.0</ele><time>2026-04-25T07:46:59.999Z</time></trkpt><trkpt lat="43.90940581069635" lon="12.657819475600359"><ele>72.0</ele><time>2026-04-25T07:47:00.999Z</time></trkpt><trkpt lat="43.90931058495069" lon="12.657684171486574"><ele>72.0</ele><time>2026-04-25T07:47:01.999Z</time></trkpt><trkpt lat="43.909213876446564" lon="12.65756276169519"><ele>72.0</ele><time>2026-04-25T07:47:02.999Z</time></trkpt><trkpt lat="43.909104136094506" lon="12.657455526726277"><ele>71.75</ele><time>2026-04-25T07:47:03.999Z</time></trkpt><trkpt lat="43.90899006499078" lon="12.657359740694702"><ele>71.5</ele><time>2026-04-25T07:47:04.999Z</time></trkpt><trkpt lat="43.908866729842735" lon="12.657286806433756"><ele>71.25</ele><time>2026-04-25T07:47:05.999Z</time></trkpt><trkpt lat="43.90873858623451" lon="12.657203813531027"><ele>71.0</ele><time>2026-04-25T07:47:06.999Z</time></trkpt><trkpt lat="43.90860672003672" lon="12.657124363993294"><ele>71.0</ele><time>2026-04-25T07:47:07.999Z</time></trkpt><trkpt lat="43.90846713709262" lon="12.657046554378073"><ele>71.0</ele><time>2026-04-25T07:47:08.999Z</time></trkpt><trkpt lat="43.90832490082456" lon="12.656971534757854"><ele>71.0</ele><time>2026-04-25T07:47:09.999Z</time></trkpt><trkpt lat="43.90818557021175" lon="12.656899337758517"><ele>71.5</ele><time>2026-04-25T07:47:10.999Z</time></trkpt><trkpt lat="43.90805567295329" lon="12.656829860046248"><ele>72.0</ele><time>2026-04-25T07:47:11.999Z</time></trkpt><trkpt lat="43.90794712026367" lon="12.656735692265036"><ele>72.5</ele><time>2026-04-25T07:47:12.999Z</time></trkpt><trkpt lat="43.90783241918292" lon="12.656660218089783"><ele>73.0</ele><time>2026-04-25T07:47:13.999Z</time></trkpt><trkpt lat="43.90770901988114" lon="12.65660084246175"><ele>73.0</ele><time>2026-04-25T07:47:14.999Z</time></trkpt><trkpt lat="43.907586317659835" lon="12.656552210021099"><ele>73.0</ele><time>2026-04-25T07:47:15.999Z</time></trkpt><trkpt lat="43.90745336367954" lon="12.65652818758453"><ele>73.0</ele><time>2026-04-25T07:47:16.999Z</time></trkpt><trkpt lat="43.907320449903125" lon="12.656553191236268"><ele>73.0</ele><time>2026-04-25T07:47:17.999Z</time></trkpt><trkpt lat="43.9071940669744" lon="12.656569210287957"><ele>72.5</ele><time>2026-04-25T07:47:18.999Z</time></trkpt><trkpt lat="43.90707286008591" lon="12.656581755374992"><ele>72.0</ele><time>2026-04-25T07:47:19.999Z</time></trkpt><trkpt lat="43.90695813604503" lon="12.656604122108591"><ele>71.5</ele><time>2026-04-25T07:47:20.999Z</time></trkpt><trkpt lat="43.90683498858799" lon="12.656642277763213"><ele>71.0</ele><time>2026-04-25T07:47:21.999Z</time></trkpt><trkpt lat="43.9067146557318" lon="12.65668848755335"><ele>70.39999999999999</ele><time>2026-04-25T07:47:22.999Z</time></trkpt><trkpt lat="43.906612405422855" lon="12.656734201266401"><ele>69.8</ele><time>2026-04-25T07:47:23.999Z</time></trkpt><trkpt lat="43.9065300964796" lon="12.656776507655774"><ele>69.19999999999999</ele><time>2026-04-25T07:47:24.999Z</time></trkpt><trkpt lat="43.90644677459002" lon="12.656767727912417"><ele>68.6</ele><time>2026-04-25T07:47:25.999Z</time></trkpt><trkpt lat="43.90638467853985" lon="12.656706302682654"><ele>68.0</ele><time>2026-04-25T07:47:26.999Z</time></trkpt><trkpt lat="43.90630292892027" lon="12.656581508116254"><ele>68.0</ele><time>2026-04-25T07:47:28.999Z</time></trkpt><trkpt lat="43.906265557404026" lon="12.656479235282408"><ele>68.0</ele><time>2026-04-25T07:47:29.999Z</time></trkpt><trkpt lat="43.90622514085546" lon="12.656356779655736"><ele>68.0</ele><time>2026-04-25T07:47:30.999Z</time></trkpt><trkpt lat="43.906182918985266" lon="12.656222762537316"><ele>68.0</ele><time>2026-04-25T07:47:31.999Z</time></trkpt><trkpt lat="43.90613524092851" lon="12.656052671614818"><ele>68.0</ele><time>2026-04-25T07:47:32.999Z</time></trkpt><trkpt lat="43.906070129326075" lon="12.655877150928296"><ele>68.0</ele><time>2026-04-25T07:47:33.999Z</time></trkpt><trkpt lat="43.90601927526081" lon="12.65571883870358"><ele>68.0</ele><time>2026-04-25T07:47:34.999Z</time></trkpt><trkpt lat="43.905958570560074" lon="12.655590606041175"><ele>68.0</ele><time>2026-04-25T07:47:35.999Z</time></trkpt><trkpt lat="43.905898915264835" lon="12.655485985844997"><ele>68.0</ele><time>2026-04-25T07:47:36.999Z</time></trkpt><trkpt lat="43.90582486816497" lon="12.655415720920791"><ele>68.0</ele><time>2026-04-25T07:47:37.999Z</time></trkpt><trkpt lat="43.90574825139352" lon="12.655373139555653"><ele>68.0</ele><time>2026-04-25T07:47:38.999Z</time></trkpt><trkpt lat="43.905674045662366" lon="12.655313852174574"><ele>68.0</ele><time>2026-04-25T07:47:39.999Z</time></trkpt><trkpt lat="43.905593723296796" lon="12.655300900992678"><ele>68.0</ele><time>2026-04-25T07:47:40.999Z</time></trkpt><trkpt lat="43.90551882508684" lon="12.655281859568221"><ele>68.0</ele><time>2026-04-25T07:47:41.999Z</time></trkpt><trkpt lat="43.90542476946277" lon="12.655234296092623"><ele>68.0</ele><time>2026-04-25T07:47:42.999Z</time></trkpt><trkpt lat="43.90530290295755" lon="12.655230928569766"><ele>68.5</ele><time>2026-04-25T07:47:43.999Z</time></trkpt><trkpt lat="43.90518221624755" lon="12.655200452767286"><ele>69.0</ele><time>2026-04-25T07:47:44.999Z</time></trkpt><trkpt lat="43.90506043214331" lon="12.655175307094678"><ele>69.5</ele><time>2026-04-25T07:47:45.999Z</time></trkpt><trkpt lat="43.90495214439891" lon="12.655122113795304"><ele>70.0</ele><time>2026-04-25T07:47:46.999Z</time></trkpt><trkpt lat="43.904863891172106" lon="12.655084584076462"><ele>70.0</ele><time>2026-04-25T07:47:48Z</time></trkpt><trkpt lat="43.904776825502786" lon="12.655039246112104"><ele>70.0</ele><time>2026-04-25T07:47:49Z</time></trkpt><trkpt lat="43.90468808232301" lon="12.65499079637065"><ele>70.0</ele><time>2026-04-25T07:47:50Z</time></trkpt><trkpt lat="43.9045872071345" lon="12.654948423726305"><ele>70.0</ele><time>2026-04-25T07:47:51Z</time></trkpt><trkpt lat="43.90448951193548" lon="12.654895017444678"><ele>70.0</ele><time>2026-04-25T07:47:52Z</time></trkpt><trkpt lat="43.90439322569269" lon="12.654845467114303"><ele>70.0</ele><time>2026-04-25T07:47:53Z</time></trkpt><trkpt lat="43.90430824108756" lon="12.654802921818673"><ele>70.0</ele><time>2026-04-25T07:47:54Z</time></trkpt><trkpt lat="43.90424357250331" lon="12.654768498135986"><ele>70.0</ele><time>2026-04-25T07:47:55Z</time></trkpt><trkpt lat="43.90418648835476" lon="12.654620772256218"><ele>70.0</ele><time>2026-04-25T07:47:57Z</time></trkpt><trkpt lat="43.90412958673818" lon="12.65453297028503"><ele>70.0</ele><time>2026-04-25T07:47:58Z</time></trkpt><trkpt lat="43.90408564353382" lon="12.654413438642104"><ele>71.25</ele><time>2026-04-25T07:47:59Z</time></trkpt><trkpt lat="43.90403416568343" lon="12.654290253534564"><ele>72.5</ele><time>2026-04-25T07:48:00Z</time></trkpt><trkpt lat="43.90398188933846" lon="12.654136033167038"><ele>73.75</ele><time>2026-04-25T07:48:01Z</time></trkpt><trkpt lat="43.903904366454704" lon="12.653989071254957"><ele>75.0</ele><time>2026-04-25T07:48:02Z</time></trkpt><trkpt lat="43.90383416862632" lon="12.653832889176044"><ele>75.0</ele><time>2026-04-25T07:48:03Z</time></trkpt><trkpt lat="43.903769151676094" lon="12.653695473205769"><ele>75.0</ele><time>2026-04-25T07:48:04Z</time></trkpt><trkpt lat="43.903711303609064" lon="12.653585071045132"><ele>75.0</ele><time>2026-04-25T07:48:05Z</time></trkpt><trkpt lat="43.903641622175215" lon="12.653506914280443"><ele>75.0</ele><time>2026-04-25T07:48:06Z</time></trkpt><trkpt lat="43.9035486747664" lon="12.65344899114871"><ele>75.0</ele><time>2026-04-25T07:48:07Z</time></trkpt><trkpt lat="43.90344240728792" lon="12.653406313793688"><ele>76.8</ele><time>2026-04-25T07:48:08Z</time></trkpt><trkpt lat="43.90333494306535" lon="12.653360354461999"><ele>78.6</ele><time>2026-04-25T07:48:09Z</time></trkpt><trkpt lat="43.903248490741206" lon="12.65328804483073"><ele>80.4</ele><time>2026-04-25T07:48:10Z</time></trkpt><trkpt lat="43.90315077645227" lon="12.653213881245735"><ele>82.2</ele><time>2026-04-25T07:48:11Z</time></trkpt><trkpt lat="43.903051017066836" lon="12.653163498191695"><ele>84.0</ele><time>2026-04-25T07:48:12Z</time></trkpt><trkpt lat="43.90294072457833" lon="12.653152378597"><ele>84.0</ele><time>2026-04-25T07:48:13Z</time></trkpt><trkpt lat="43.902820670244814" lon="12.653139529506294"><ele>84.0</ele><time>2026-04-25T07:48:14Z</time></trkpt><trkpt lat="43.90269699237836" lon="12.653125060977908"><ele>84.0</ele><time>2026-04-25T07:48:15Z</time></trkpt><trkpt lat="43.902572655116145" lon="12.653109152466001"><ele>84.0</ele><time>2026-04-25T07:48:16Z</time></trkpt><trkpt lat="43.90244353414009" lon="12.653119553236428"><ele>84.5</ele><time>2026-04-25T07:48:17Z</time></trkpt><trkpt lat="43.90231276094272" lon="12.653103267041743"><ele>85.0</ele><time>2026-04-25T07:48:18Z</time></trkpt><trkpt lat="43.902181580997784" lon="12.653116895210923"><ele>85.5</ele><time>2026-04-25T07:48:19Z</time></trkpt><trkpt lat="43.90205317415548" lon="12.653115663019449"><ele>86.0</ele><time>2026-04-25T07:48:20Z</time></trkpt><trkpt lat="43.90192788635226" lon="12.653088229703428"><ele>86.0</ele><time>2026-04-25T07:48:21Z</time></trkpt><trkpt lat="43.9018037209392" lon="12.653075255826938"><ele>86.0</ele><time>2026-04-25T07:48:22Z</time></trkpt><trkpt lat="43.901682585282124" lon="12.65308349633547"><ele>86.0</ele><time>2026-04-25T07:48:23Z</time></trkpt><trkpt lat="43.901585041245255" lon="12.653079497165162"><ele>86.0</ele><time>2026-04-25T07:48:24Z</time></trkpt><trkpt lat="43.901488350755656" lon="12.653069589184366"><ele>86.0</ele><time>2026-04-25T07:48:25Z</time></trkpt><trkpt lat="43.901409969426574" lon="12.653067292851933"><ele>86.4</ele><time>2026-04-25T07:48:26Z</time></trkpt><trkpt lat="43.90129909609144" lon="12.653051951370413"><ele>86.8</ele><time>2026-04-25T07:48:28Z</time></trkpt><trkpt lat="43.90120490713059" lon="12.653134473238698"><ele>87.2</ele><time>2026-04-25T07:48:30Z</time></trkpt><trkpt lat="43.90113757381545" lon="12.653194322706176"><ele>87.60000000000001</ele><time>2026-04-25T07:48:31Z</time></trkpt><trkpt lat="43.90105354513237" lon="12.653248004214477"><ele>88.0</ele><time>2026-04-25T07:48:32Z</time></trkpt><trkpt lat="43.90095687665611" lon="12.65327638161604"><ele>87.4</ele><time>2026-04-25T07:48:33Z</time></trkpt><trkpt lat="43.9008524258554" lon="12.653277975992838"><ele>86.80000000000001</ele><time>2026-04-25T07:48:34Z</time></trkpt><trkpt lat="43.90073925922786" lon="12.653253705615452"><ele>86.2</ele><time>2026-04-25T07:48:35Z</time></trkpt><trkpt lat="43.90063629686441" lon="12.653233637105894"><ele>85.6</ele><time>2026-04-25T07:48:36Z</time></trkpt><trkpt lat="43.900535341982035" lon="12.653217288144246"><ele>85.0</ele><time>2026-04-25T07:48:37Z</time></trkpt><trkpt lat="43.900435634069126" lon="12.653198892334345"><ele>85.0</ele><time>2026-04-25T07:48:38Z</time></trkpt><trkpt lat="43.90033453824968" lon="12.653194936761906"><ele>85.0</ele><time>2026-04-25T07:48:39Z</time></trkpt><trkpt lat="43.90022076591856" lon="12.653196701216016"><ele>85.0</ele><time>2026-04-25T07:48:40Z</time></trkpt><trkpt lat="43.90009682297164" lon="12.653195469661178"><ele>85.0</ele><time>2026-04-25T07:48:41Z</time></trkpt><trkpt lat="43.899960972336665" lon="12.653195183845902"><ele>84.0</ele><time>2026-04-25T07:48:42Z</time></trkpt><trkpt lat="43.89983042750382" lon="12.653211284030313"><ele>83.0</ele><time>2026-04-25T07:48:43Z</time></trkpt><trkpt lat="43.89970265093581" lon="12.653246729438429"><ele>82.0</ele><time>2026-04-25T07:48:44Z</time></trkpt><trkpt lat="43.89958516025051" lon="12.653281801743987"><ele>81.0</ele><time>2026-04-25T07:48:45Z</time></trkpt><trkpt lat="43.899482258112464" lon="12.653303301723568"><ele>81.0</ele><time>2026-04-25T07:48:46Z</time></trkpt><trkpt lat="43.899385685140594" lon="12.65333394198023"><ele>81.0</ele><time>2026-04-25T07:48:47Z</time></trkpt><trkpt lat="43.899303224629875" lon="12.65337229033858"><ele>81.0</ele><time>2026-04-25T07:48:48Z</time></trkpt><trkpt lat="43.89923161841728" lon="12.653416554306668"><ele>81.0</ele><time>2026-04-25T07:48:49Z</time></trkpt><trkpt lat="43.89916309888292" lon="12.653485117659946"><ele>81.0</ele><time>2026-04-25T07:48:50Z</time></trkpt><trkpt lat="43.899144719077825" lon="12.653623909581814"><ele>79.25</ele><time>2026-04-25T07:48:51Z</time></trkpt><trkpt lat="43.899007422612215" lon="12.65370745156346"><ele>77.5</ele><time>2026-04-25T07:48:52Z</time></trkpt><trkpt lat="43.89891555137154" lon="12.653837136049107"><ele>75.75</ele><time>2026-04-25T07:48:53Z</time></trkpt><trkpt lat="43.8988275432251" lon="12.653952141575205"><ele>74.0</ele><time>2026-04-25T07:48:54Z</time></trkpt><trkpt lat="43.89874442650773" lon="12.654054024409453"><ele>74.0</ele><time>2026-04-25T07:48:55Z</time></trkpt><trkpt lat="43.898670670010496" lon="12.654136136767285"><ele>74.0</ele><time>2026-04-25T07:48:56Z</time></trkpt><trkpt lat="43.89860163650933" lon="12.654171286172238"><ele>74.0</ele><time>2026-04-25T07:48:57Z</time></trkpt><trkpt lat="43.89852345779042" lon="12.654159648736682"><ele>74.0</ele><time>2026-04-25T07:48:58Z</time></trkpt><trkpt lat="43.898452954230294" lon="12.65411231138358"><ele>74.0</ele><time>2026-04-25T07:48:59Z</time></trkpt><trkpt lat="43.898416034488754" lon="12.65402895628195"><ele>74.0</ele><time>2026-04-25T07:49:00Z</time></trkpt><trkpt lat="43.89837539810723" lon="12.653927812689224"><ele>74.0</ele><time>2026-04-25T07:49:01Z</time></trkpt><trkpt lat="43.89833163078291" lon="12.653824257315858"><ele>74.0</ele><time>2026-04-25T07:49:02Z</time></trkpt><trkpt lat="43.89827221688278" lon="12.653720881583041"><ele>74.0</ele><time>2026-04-25T07:49:03Z</time></trkpt><trkpt lat="43.89822656235145" lon="12.653592571391034"><ele>74.0</ele><time>2026-04-25T07:49:04Z</time></trkpt><trkpt lat="43.89818220872707" lon="12.65345331641983"><ele>74.0</ele><time>2026-04-25T07:49:05Z</time></trkpt><trkpt lat="43.89814577441369" lon="12.653297393132403"><ele>74.0</ele><time>2026-04-25T07:49:05.999Z</time></trkpt><trkpt lat="43.89811400081614" lon="12.653153049343944"><ele>74.0</ele><time>2026-04-25T07:49:06.999Z</time></trkpt><trkpt lat="43.898075589855516" lon="12.653025148891638"><ele>74.0</ele><time>2026-04-25T07:49:07.999Z</time></trkpt><trkpt lat="43.89799414777473" lon="12.65289475735974"><ele>74.0</ele><time>2026-04-25T07:49:08.999Z</time></trkpt><trkpt lat="43.89787911962982" lon="12.652775868026733"><ele>74.0</ele><time>2026-04-25T07:49:09.999Z</time></trkpt><trkpt lat="43.897756501073886" lon="12.652678709714868"><ele>74.0</ele><time>2026-04-25T07:49:10.999Z</time></trkpt><trkpt lat="43.897639497302286" lon="12.652590607599889"><ele>74.0</ele><time>2026-04-25T07:49:11.999Z</time></trkpt><trkpt lat="43.89754505997608" lon="12.65250818498744"><ele>74.0</ele><time>2026-04-25T07:49:12.999Z</time></trkpt><trkpt lat="43.897460043895045" lon="12.65242368329373"><ele>74.16666666666667</ele><time>2026-04-25T07:49:13.999Z</time></trkpt><trkpt lat="43.89737891959837" lon="12.652331788476863"><ele>74.33333333333334</ele><time>2026-04-25T07:49:14.999Z</time></trkpt><trkpt lat="43.89731999302668" lon="12.65224077724665"><ele>74.5</ele><time>2026-04-25T07:49:15.999Z</time></trkpt><trkpt lat="43.89727001212147" lon="12.652146983900083"><ele>74.66666666666667</ele><time>2026-04-25T07:49:16.999Z</time></trkpt><trkpt lat="43.89726003883154" lon="12.652037609608993"><ele>74.83333333333333</ele><time>2026-04-25T07:49:17.999Z</time></trkpt><trkpt lat="43.89726928478899" lon="12.651948181112864"><ele>75.0</ele><time>2026-04-25T07:49:18.999Z</time></trkpt><trkpt lat="43.89729784655119" lon="12.651763645984103"><ele>75.0</ele><time>2026-04-25T07:49:20.999Z</time></trkpt><trkpt lat="43.89734067660863" lon="12.651674006775544"><ele>75.0</ele><time>2026-04-25T07:49:21.999Z</time></trkpt><trkpt lat="43.897372966363406" lon="12.651592091357578"><ele>75.0</ele><time>2026-04-25T07:49:22.999Z</time></trkpt><trkpt lat="43.897395436511566" lon="12.65150317630835"><ele>75.0</ele><time>2026-04-25T07:49:23.999Z</time></trkpt><trkpt lat="43.89741857926427" lon="12.651399769595647"><ele>75.0</ele><time>2026-04-25T07:49:24.999Z</time></trkpt><trkpt lat="43.89742165964759" lon="12.651279414447714"><ele>75.0</ele><time>2026-04-25T07:49:25.999Z</time></trkpt><trkpt lat="43.89739989062909" lon="12.651145480651277"><ele>75.2</ele><time>2026-04-25T07:49:26.999Z</time></trkpt><trkpt lat="43.89735731717315" lon="12.651028083630445"><ele>75.4</ele><time>2026-04-25T07:49:27.999Z</time></trkpt><trkpt lat="43.89729830931476" lon="12.650933316291201"><ele>75.6</ele><time>2026-04-25T07:49:28.999Z</time></trkpt><trkpt lat="43.897240647393936" lon="12.650839881737319"><ele>75.8</ele><time>2026-04-25T07:49:29.999Z</time></trkpt><trkpt lat="43.8971502179146" lon="12.650788528366073"><ele>76.0</ele><time>2026-04-25T07:49:30.999Z</time></trkpt><trkpt lat="43.897081746526496" lon="12.650708924049052"><ele>76.0</ele><time>2026-04-25T07:49:31.999Z</time></trkpt><trkpt lat="43.8970380396896" lon="12.650619542527988"><ele>76.0</ele><time>2026-04-25T07:49:32.999Z</time></trkpt><trkpt lat="43.89703669353102" lon="12.650505685221503"><ele>76.0</ele><time>2026-04-25T07:49:33.999Z</time></trkpt><trkpt lat="43.897040962732184" lon="12.650399649478759"><ele>76.0</ele><time>2026-04-25T07:49:34.999Z</time></trkpt><trkpt lat="43.89703196538506" lon="12.6502820142822"><ele>76.0</ele><time>2026-04-25T07:49:35.999Z</time></trkpt><trkpt lat="43.89705164921422" lon="12.650166083625745"><ele>76.0</ele><time>2026-04-25T07:49:36.999Z</time></trkpt><trkpt lat="43.897071266929835" lon="12.650047639555586"><ele>75.85714285714285</ele><time>2026-04-25T07:49:37.999Z</time></trkpt><trkpt lat="43.897093107792955" lon="12.649941125893534"><ele>75.71428571428572</ele><time>2026-04-25T07:49:38.999Z</time></trkpt><trkpt lat="43.897125977617584" lon="12.649857545497209"><ele>75.57142857142857</ele><time>2026-04-25T07:49:39.999Z</time></trkpt><trkpt lat="43.89717238352348" lon="12.649796977145089"><ele>75.42857142857142</ele><time>2026-04-25T07:49:40.999Z</time></trkpt><trkpt lat="43.897234318006085" lon="12.649750152556297"><ele>75.28571428571428</ele><time>2026-04-25T07:49:41.999Z</time></trkpt><trkpt lat="43.897309328539976" lon="12.64971898352359"><ele>75.14285714285714</ele><time>2026-04-25T07:49:42.999Z</time></trkpt><trkpt lat="43.8973891066202" lon="12.649693694389727"><ele>75.0</ele><time>2026-04-25T07:49:43.999Z</time></trkpt><trkpt lat="43.89746582651095" lon="12.649640339986362"><ele>75.0</ele><time>2026-04-25T07:49:44.999Z</time></trkpt><trkpt lat="43.89752943938377" lon="12.64955474849912"><ele>75.0</ele><time>2026-04-25T07:49:45.999Z</time></trkpt><trkpt lat="43.89757652905378" lon="12.64944307734211"><ele>75.0</ele><time>2026-04-25T07:49:46.999Z</time></trkpt><trkpt lat="43.897593676291855" lon="12.649310899568162"><ele>75.0</ele><time>2026-04-25T07:49:47.999Z</time></trkpt><trkpt lat="43.897609762246525" lon="12.649171630199533"><ele>75.0</ele><time>2026-04-25T07:49:48.999Z</time></trkpt><trkpt lat="43.89755571568963" lon="12.64902285999182"><ele>76.75</ele><time>2026-04-25T07:49:49.999Z</time></trkpt><trkpt lat="43.89748412522226" lon="12.648885211904217"><ele>78.5</ele><time>2026-04-25T07:49:50.999Z</time></trkpt><trkpt lat="43.89740108161004" lon="12.648753872999391"><ele>80.25</ele><time>2026-04-25T07:49:51.999Z</time></trkpt><trkpt lat="43.897310565359476" lon="12.648628502758859"><ele>82.0</ele><time>2026-04-25T07:49:52.999Z</time></trkpt><trkpt lat="43.8972101444402" lon="12.64850731829851"><ele>83.0</ele><time>2026-04-25T07:49:54Z</time></trkpt><trkpt lat="43.8970998131117" lon="12.648400095371699"><ele>84.0</ele><time>2026-04-25T07:49:55Z</time></trkpt><trkpt lat="43.896992741836165" lon="12.648297170825241"><ele>85.0</ele><time>2026-04-25T07:49:56Z</time></trkpt><trkpt lat="43.89688803405793" lon="12.648192237389935"><ele>86.0</ele><time>2026-04-25T07:49:57Z</time></trkpt><trkpt lat="43.896777925507536" lon="12.648097479818718"><ele>85.0</ele><time>2026-04-25T07:49:58Z</time></trkpt><trkpt lat="43.89665444225864" lon="12.648027860391494"><ele>84.0</ele><time>2026-04-25T07:49:59Z</time></trkpt><trkpt lat="43.896533628214996" lon="12.647959285009868"><ele>83.0</ele><time>2026-04-25T07:50:00Z</time></trkpt><trkpt lat="43.89642367297382" lon="12.6478859893938"><ele>82.0</ele><time>2026-04-25T07:50:01Z</time></trkpt><trkpt lat="43.8963108804554" lon="12.647808757585306"><ele>82.25</ele><time>2026-04-25T07:50:02Z</time></trkpt><trkpt lat="43.89619210644844" lon="12.647726865823111"><ele>82.5</ele><time>2026-04-25T07:50:03Z</time></trkpt><trkpt lat="43.89606902140916" lon="12.647663546399553"><ele>82.75</ele><time>2026-04-25T07:50:04Z</time></trkpt><trkpt lat="43.895954401236956" lon="12.647566839679223"><ele>83.0</ele><time>2026-04-25T07:50:05Z</time></trkpt><trkpt lat="43.895819535475034" lon="12.647499948452948"><ele>83.0</ele><time>2026-04-25T07:50:06Z</time></trkpt><trkpt lat="43.89567818151658" lon="12.647434213124551"><ele>83.0</ele><time>2026-04-25T07:50:07Z</time></trkpt><trkpt lat="43.895538898940195" lon="12.647365302239855"><ele>83.0</ele><time>2026-04-25T07:50:08Z</time></trkpt><trkpt lat="43.89541157646008" lon="12.647302536062899"><ele>83.0</ele><time>2026-04-25T07:50:09Z</time></trkpt><trkpt lat="43.895282288165646" lon="12.64723398652098"><ele>83.0</ele><time>2026-04-25T07:50:10Z</time></trkpt><trkpt lat="43.89515729451804" lon="12.647187506753435"><ele>83.0</ele><time>2026-04-25T07:50:11Z</time></trkpt><trkpt lat="43.895038033122646" lon="12.647171741260552"><ele>83.0</ele><time>2026-04-25T07:50:12Z</time></trkpt><trkpt lat="43.89490993416548" lon="12.647170174162364"><ele>83.0</ele><time>2026-04-25T07:50:13Z</time></trkpt><trkpt lat="43.89478236269999" lon="12.647192467266844"><ele>82.75</ele><time>2026-04-25T07:50:14Z</time></trkpt><trkpt lat="43.8946557387195" lon="12.647188586222054"><ele>82.5</ele><time>2026-04-25T07:50:15Z</time></trkpt><trkpt lat="43.894526761157714" lon="12.647188501665088"><ele>82.25</ele><time>2026-04-25T07:50:16Z</time></trkpt><trkpt lat="43.89440044558918" lon="12.647193868445207"><ele>82.0</ele><time>2026-04-25T07:50:17Z</time></trkpt><trkpt lat="43.89427534746039" lon="12.647190692320645"><ele>82.75</ele><time>2026-04-25T07:50:18Z</time></trkpt><trkpt lat="43.894150986030375" lon="12.647182924881536"><ele>83.5</ele><time>2026-04-25T07:50:19Z</time></trkpt><trkpt lat="43.894037441137016" lon="12.647154662271443"><ele>84.25</ele><time>2026-04-25T07:50:20Z</time></trkpt><trkpt lat="43.89392663337386" lon="12.647138150714852"><ele>85.0</ele><time>2026-04-25T07:50:21Z</time></trkpt><trkpt lat="43.8938182715076" lon="12.647100843418608"><ele>85.0</ele><time>2026-04-25T07:50:22Z</time></trkpt><trkpt lat="43.8937144873258" lon="12.647042246138199"><ele>85.0</ele><time>2026-04-25T07:50:23Z</time></trkpt><trkpt lat="43.8936036076731" lon="12.646980137999488"><ele>85.0</ele><time>2026-04-25T07:50:24Z</time></trkpt><trkpt lat="43.893495700095535" lon="12.646917039499016"><ele>85.0</ele><time>2026-04-25T07:50:25Z</time></trkpt><trkpt lat="43.893381606459414" lon="12.64687279043947"><ele>84.75</ele><time>2026-04-25T07:50:26Z</time></trkpt><trkpt lat="43.89326873188565" lon="12.646789010720063"><ele>84.5</ele><time>2026-04-25T07:50:27Z</time></trkpt><trkpt lat="43.89316200223456" lon="12.646725604940327"><ele>84.25</ele><time>2026-04-25T07:50:28Z</time></trkpt><trkpt lat="43.893048150822736" lon="12.646655385075023"><ele>84.0</ele><time>2026-04-25T07:50:29Z</time></trkpt><trkpt lat="43.892939368285646" lon="12.646590140406124"><ele>84.0</ele><time>2026-04-25T07:50:30Z</time></trkpt><trkpt lat="43.89282984907808" lon="12.646529381332307"><ele>84.0</ele><time>2026-04-25T07:50:31Z</time></trkpt><trkpt lat="43.89272150285743" lon="12.646465055710154"><ele>84.0</ele><time>2026-04-25T07:50:32Z</time></trkpt><trkpt lat="43.892617037514185" lon="12.646410289482992"><ele>84.0</ele><time>2026-04-25T07:50:33Z</time></trkpt><trkpt lat="43.89252758184997" lon="12.646362474914042"><ele>84.0</ele><time>2026-04-25T07:50:34Z</time></trkpt><trkpt lat="43.89242166255921" lon="12.64630335693152"><ele>84.0</ele><time>2026-04-25T07:50:35Z</time></trkpt><trkpt lat="43.892308572691924" lon="12.646244158158975"><ele>84.0</ele><time>2026-04-25T07:50:36Z</time></trkpt><trkpt lat="43.89218207714945" lon="12.64616835516501"><ele>84.0</ele><time>2026-04-25T07:50:37Z</time></trkpt><trkpt lat="43.892061988367324" lon="12.646096724802783"><ele>84.0</ele><time>2026-04-25T07:50:38Z</time></trkpt><trkpt lat="43.89193800414831" lon="12.64603226983787"><ele>84.0</ele><time>2026-04-25T07:50:39Z</time></trkpt><trkpt lat="43.89181322890547" lon="12.645972227887038"><ele>84.0</ele><time>2026-04-25T07:50:40Z</time></trkpt><trkpt lat="43.891693283839956" lon="12.645920448908685"><ele>84.0</ele><time>2026-04-25T07:50:41Z</time></trkpt><trkpt lat="43.891569177215814" lon="12.645862032753937"><ele>84.0</ele><time>2026-04-25T07:50:42Z</time></trkpt><trkpt lat="43.89144656269491" lon="12.645816786919797"><ele>83.75</ele><time>2026-04-25T07:50:43Z</time></trkpt><trkpt lat="43.89131710685772" lon="12.645769365044062"><ele>83.5</ele><time>2026-04-25T07:50:44Z</time></trkpt><trkpt lat="43.891193905380206" lon="12.645742089187973"><ele>83.25</ele><time>2026-04-25T07:50:45Z</time></trkpt><trkpt lat="43.891063621427406" lon="12.645710149909421"><ele>83.0</ele><time>2026-04-25T07:50:46Z</time></trkpt><trkpt lat="43.890935465767726" lon="12.64566754639323"><ele>83.5</ele><time>2026-04-25T07:50:47Z</time></trkpt><trkpt lat="43.89080450060889" lon="12.645623027937964"><ele>84.0</ele><time>2026-04-25T07:50:48Z</time></trkpt><trkpt lat="43.89067839105596" lon="12.645576264846545"><ele>84.5</ele><time>2026-04-25T07:50:49Z</time></trkpt><trkpt lat="43.89055621007755" lon="12.645524561593072"><ele>85.0</ele><time>2026-04-25T07:50:50Z</time></trkpt><trkpt lat="43.89043369704348" lon="12.64547479438416"><ele>85.0</ele><time>2026-04-25T07:50:51Z</time></trkpt><trkpt lat="43.89031366571351" lon="12.64543253522962"><ele>85.0</ele><time>2026-04-25T07:50:52Z</time></trkpt><trkpt lat="43.89018522560635" lon="12.64539504781644"><ele>85.0</ele><time>2026-04-25T07:50:53Z</time></trkpt><trkpt lat="43.89006194623497" lon="12.645351930489568"><ele>85.0</ele><time>2026-04-25T07:50:54Z</time></trkpt><trkpt lat="43.889941008386245" lon="12.645337022995992"><ele>86.75</ele><time>2026-04-25T07:50:55Z</time></trkpt><trkpt lat="43.88982227481" lon="12.645341286716743"><ele>88.5</ele><time>2026-04-25T07:50:56Z</time></trkpt><trkpt lat="43.88970292197933" lon="12.645371209152966"><ele>90.25</ele><time>2026-04-25T07:50:57Z</time></trkpt><trkpt lat="43.88959129941451" lon="12.6454119186595"><ele>92.0</ele><time>2026-04-25T07:50:58Z</time></trkpt><trkpt lat="43.8894770041674" lon="12.645455634843914"><ele>92.0</ele><time>2026-04-25T07:50:59Z</time></trkpt><trkpt lat="43.88936645201812" lon="12.645497919357611"><ele>92.0</ele><time>2026-04-25T07:51:00Z</time></trkpt><trkpt lat="43.889254125280544" lon="12.645545182444977"><ele>92.0</ele><time>2026-04-25T07:51:01Z</time></trkpt><trkpt lat="43.889141762471056" lon="12.645586315575375"><ele>92.0</ele><time>2026-04-25T07:51:02Z</time></trkpt><trkpt lat="43.88902945402319" lon="12.645604270058236"><ele>93.19999999999999</ele><time>2026-04-25T07:51:03Z</time></trkpt><trkpt lat="43.888929237510474" lon="12.64558913315147"><ele>94.4</ele><time>2026-04-25T07:51:04Z</time></trkpt><trkpt lat="43.88882645079581" lon="12.645553052848785"><ele>95.6</ele><time>2026-04-25T07:51:05Z</time></trkpt><trkpt lat="43.888717035843456" lon="12.645509314618991"><ele>96.80000000000001</ele><time>2026-04-25T07:51:06Z</time></trkpt><trkpt lat="43.888596004077776" lon="12.6454746646904"><ele>98.0</ele><time>2026-04-25T07:51:07Z</time></trkpt><trkpt lat="43.888480771758495" lon="12.645408759926342"><ele>99.25</ele><time>2026-04-25T07:51:08Z</time></trkpt><trkpt lat="43.88835999741573" lon="12.645348786628732"><ele>100.5</ele><time>2026-04-25T07:51:09Z</time></trkpt><trkpt lat="43.88823808787558" lon="12.645289033890595"><ele>101.75</ele><time>2026-04-25T07:51:10Z</time></trkpt><trkpt lat="43.888116527273596" lon="12.645227277915113"><ele>103.0</ele><time>2026-04-25T07:51:11Z</time></trkpt><trkpt lat="43.887997993333805" lon="12.645168892077152"><ele>100.75</ele><time>2026-04-25T07:51:12Z</time></trkpt><trkpt lat="43.88787893162713" lon="12.645100228457505"><ele>98.5</ele><time>2026-04-25T07:51:13Z</time></trkpt><trkpt lat="43.887764804182275" lon="12.645018075519138"><ele>96.25</ele><time>2026-04-25T07:51:14Z</time></trkpt><trkpt lat="43.88766238654425" lon="12.64494162305256"><ele>94.0</ele><time>2026-04-25T07:51:15Z</time></trkpt><trkpt lat="43.88757682003738" lon="12.644892012729551"><ele>94.0</ele><time>2026-04-25T07:51:16Z</time></trkpt><trkpt lat="43.88749695995239" lon="12.644889633205544"><ele>94.0</ele><time>2026-04-25T07:51:17Z</time></trkpt><trkpt lat="43.88740336524485" lon="12.64491395486115"><ele>94.0</ele><time>2026-04-25T07:51:17.999Z</time></trkpt><trkpt lat="43.8872894575234" lon="12.644951613521693"><ele>94.0</ele><time>2026-04-25T07:51:18.999Z</time></trkpt><trkpt lat="43.8871687681162" lon="12.644955188756052"><ele>94.0</ele><time>2026-04-25T07:51:19.999Z</time></trkpt><trkpt lat="43.88704566919503" lon="12.644961677944195"><ele>94.0</ele><time>2026-04-25T07:51:20.999Z</time></trkpt><trkpt lat="43.886916136361314" lon="12.644950880853726"><ele>94.0</ele><time>2026-04-25T07:51:21.999Z</time></trkpt><trkpt lat="43.88677557874007" lon="12.644927781455719"><ele>94.0</ele><time>2026-04-25T07:51:22.999Z</time></trkpt><trkpt lat="43.88662913545573" lon="12.644880461649347"><ele>94.0</ele><time>2026-04-25T07:51:23.999Z</time></trkpt><trkpt lat="43.88648881051943" lon="12.644829566025408"><ele>97.25</ele><time>2026-04-25T07:51:24.999Z</time></trkpt><trkpt lat="43.886350523330556" lon="12.644785671465652"><ele>100.5</ele><time>2026-04-25T07:51:25.999Z</time></trkpt><trkpt lat="43.88621318509468" lon="12.644721052466599"><ele>103.75</ele><time>2026-04-25T07:51:26.999Z</time></trkpt><trkpt lat="43.8860894561781" lon="12.64463445776743"><ele>107.0</ele><time>2026-04-25T07:51:27.999Z</time></trkpt><trkpt lat="43.885977111308" lon="12.644523243381741"><ele>105.5</ele><time>2026-04-25T07:51:28.999Z</time></trkpt><trkpt lat="43.885874242967446" lon="12.64440377138083"><ele>104.0</ele><time>2026-04-25T07:51:29.999Z</time></trkpt><trkpt lat="43.88577705503922" lon="12.644287942820366"><ele>102.5</ele><time>2026-04-25T07:51:30.999Z</time></trkpt><trkpt lat="43.885693485329114" lon="12.644190865224669"><ele>101.0</ele><time>2026-04-25T07:51:31.999Z</time></trkpt><trkpt lat="43.885616581031" lon="12.644085759936319"><ele>101.0</ele><time>2026-04-25T07:51:32.999Z</time></trkpt><trkpt lat="43.88557030257826" lon="12.64394352705374"><ele>101.0</ele><time>2026-04-25T07:51:33.999Z</time></trkpt><trkpt lat="43.88549642555556" lon="12.643808052011268"><ele>101.0</ele><time>2026-04-25T07:51:34.999Z</time></trkpt><trkpt lat="43.885431679620524" lon="12.64364936366318"><ele>101.0</ele><time>2026-04-25T07:51:35.999Z</time></trkpt><trkpt lat="43.885378238066735" lon="12.643481981205003"><ele>100.5</ele><time>2026-04-25T07:51:36.999Z</time></trkpt><trkpt lat="43.88531058884723" lon="12.643328916359447"><ele>100.0</ele><time>2026-04-25T07:51:37.999Z</time></trkpt><trkpt lat="43.885228371234426" lon="12.64319910183728"><ele>99.5</ele><time>2026-04-25T07:51:38.999Z</time></trkpt><trkpt lat="43.88514220985437" lon="12.643078003458173"><ele>99.0</ele><time>2026-04-25T07:51:39.999Z</time></trkpt><trkpt lat="43.885060364599305" lon="12.64296744637125"><ele>99.0</ele><time>2026-04-25T07:51:40.999Z</time></trkpt><trkpt lat="43.884951774970325" lon="12.642907338039334"><ele>99.0</ele><time>2026-04-25T07:51:41.999Z</time></trkpt><trkpt lat="43.884849636319686" lon="12.642860591610248"><ele>99.0</ele><time>2026-04-25T07:51:42.999Z</time></trkpt><trkpt lat="43.88473857059762" lon="12.64283483611536"><ele>99.0</ele><time>2026-04-25T07:51:43.999Z</time></trkpt><trkpt lat="43.88461847000403" lon="12.642825958187228"><ele>99.0</ele><time>2026-04-25T07:51:44.999Z</time></trkpt><trkpt lat="43.88449198892395" lon="12.642827485399012"><ele>99.0</ele><time>2026-04-25T07:51:45.999Z</time></trkpt><trkpt lat="43.88435463353822" lon="12.64280179066498"><ele>99.0</ele><time>2026-04-25T07:51:46.999Z</time></trkpt><trkpt lat="43.88421867330727" lon="12.64279281189088"><ele>99.0</ele><time>2026-04-25T07:51:47.999Z</time></trkpt><trkpt lat="43.88406803442881" lon="12.642782863734968"><ele>98.0</ele><time>2026-04-25T07:51:48.999Z</time></trkpt><trkpt lat="43.883925103294665" lon="12.64277342460279"><ele>97.0</ele><time>2026-04-25T07:51:49.999Z</time></trkpt><trkpt lat="43.8837876598983" lon="12.642768859490202"><ele>96.0</ele><time>2026-04-25T07:51:50.999Z</time></trkpt><trkpt lat="43.88365029906721" lon="12.642792883717519"><ele>95.0</ele><time>2026-04-25T07:51:51.999Z</time></trkpt><trkpt lat="43.88351402839363" lon="12.64279376898724"><ele>99.5</ele><time>2026-04-25T07:51:52.999Z</time></trkpt><trkpt lat="43.88338864633576" lon="12.642821445214668"><ele>104.0</ele><time>2026-04-25T07:51:53.999Z</time></trkpt><trkpt lat="43.88326141437768" lon="12.64284040913461"><ele>108.5</ele><time>2026-04-25T07:51:54.999Z</time></trkpt><trkpt lat="43.88314058347235" lon="12.642856555262403"><ele>113.0</ele><time>2026-04-25T07:51:55.999Z</time></trkpt><trkpt lat="43.883013313433224" lon="12.64287994344517"><ele>113.0</ele><time>2026-04-25T07:51:56.999Z</time></trkpt><trkpt lat="43.88288874038824" lon="12.642892553340245"><ele>113.0</ele><time>2026-04-25T07:51:57.999Z</time></trkpt><trkpt lat="43.88275886851758" lon="12.642915084217947"><ele>113.0</ele><time>2026-04-25T07:51:58.999Z</time></trkpt><trkpt lat="43.88263267674108" lon="12.64293287909926"><ele>113.0</ele><time>2026-04-25T07:52:00Z</time></trkpt><trkpt lat="43.88251138749828" lon="12.642937497910333"><ele>114.0</ele><time>2026-04-25T07:52:01Z</time></trkpt><trkpt lat="43.882381489702986" lon="12.642917118007338"><ele>115.0</ele><time>2026-04-25T07:52:02Z</time></trkpt><trkpt lat="43.88224518602856" lon="12.642878942155637"><ele>116.0</ele><time>2026-04-25T07:52:03Z</time></trkpt><trkpt lat="43.88211711861217" lon="12.642854372456787"><ele>117.0</ele><time>2026-04-25T07:52:04Z</time></trkpt><trkpt lat="43.88198294955082" lon="12.642849376894032"><ele>117.0</ele><time>2026-04-25T07:52:05Z</time></trkpt><trkpt lat="43.88184804313461" lon="12.642853005549219"><ele>117.0</ele><time>2026-04-25T07:52:06Z</time></trkpt><trkpt lat="43.881719653419864" lon="12.642817609221815"><ele>117.0</ele><time>2026-04-25T07:52:07Z</time></trkpt><trkpt lat="43.88159589557153" lon="12.642818729755705"><ele>117.0</ele><time>2026-04-25T07:52:08Z</time></trkpt><trkpt lat="43.881478811156974" lon="12.64279105034582"><ele>118.0</ele><time>2026-04-25T07:52:09Z</time></trkpt><trkpt lat="43.8813578510388" lon="12.64276079859511"><ele>119.0</ele><time>2026-04-25T07:52:10Z</time></trkpt><trkpt lat="43.88122491944953" lon="12.642775944228903"><ele>120.0</ele><time>2026-04-25T07:52:11Z</time></trkpt><trkpt lat="43.88107811632816" lon="12.642809714451122"><ele>121.0</ele><time>2026-04-25T07:52:12Z</time></trkpt><trkpt lat="43.88093840131021" lon="12.642887242148655"><ele>119.5</ele><time>2026-04-25T07:52:13Z</time></trkpt><trkpt lat="43.88079815223401" lon="12.642941874623"><ele>118.0</ele><time>2026-04-25T07:52:14Z</time></trkpt><trkpt lat="43.88065436237498" lon="12.642991480255732"><ele>116.5</ele><time>2026-04-25T07:52:15Z</time></trkpt><trkpt lat="43.88051053620051" lon="12.643039525692064"><ele>115.0</ele><time>2026-04-25T07:52:16Z</time></trkpt><trkpt lat="43.88035846175007" lon="12.643079166421892"><ele>115.0</ele><time>2026-04-25T07:52:17Z</time></trkpt><trkpt lat="43.88021570147223" lon="12.64312470218389"><ele>115.0</ele><time>2026-04-25T07:52:18Z</time></trkpt><trkpt lat="43.880081703787994" lon="12.643171362949683"><ele>115.0</ele><time>2026-04-25T07:52:19Z</time></trkpt><trkpt lat="43.87995381977902" lon="12.643158445707394"><ele>115.0</ele><time>2026-04-25T07:52:20Z</time></trkpt><trkpt lat="43.87983659547001" lon="12.643165543049117"><ele>113.0</ele><time>2026-04-25T07:52:21Z</time></trkpt><trkpt lat="43.879714377497734" lon="12.643185567742226"><ele>111.0</ele><time>2026-04-25T07:52:22Z</time></trkpt><trkpt lat="43.879585679416074" lon="12.643208450598458"><ele>109.0</ele><time>2026-04-25T07:52:23Z</time></trkpt><trkpt lat="43.879450546492436" lon="12.643236562089555"><ele>107.0</ele><time>2026-04-25T07:52:24Z</time></trkpt><trkpt lat="43.87932056181937" lon="12.643264606267428"><ele>106.75</ele><time>2026-04-25T07:52:25Z</time></trkpt><trkpt lat="43.879195168707035" lon="12.643284429307043"><ele>106.5</ele><time>2026-04-25T07:52:26Z</time></trkpt><trkpt lat="43.87906450914992" lon="12.643309975800841"><ele>106.25</ele><time>2026-04-25T07:52:27Z</time></trkpt><trkpt lat="43.87894051928934" lon="12.643324274214505"><ele>106.0</ele><time>2026-04-25T07:52:28Z</time></trkpt><trkpt lat="43.87882069629825" lon="12.64333652084391"><ele>106.0</ele><time>2026-04-25T07:52:29Z</time></trkpt><trkpt lat="43.87870459713387" lon="12.64335760159219"><ele>106.0</ele><time>2026-04-25T07:52:30Z</time></trkpt><trkpt lat="43.87859098177803" lon="12.643394245858762"><ele>106.0</ele><time>2026-04-25T07:52:31Z</time></trkpt><trkpt lat="43.878488304463794" lon="12.643453524987073"><ele>106.0</ele><time>2026-04-25T07:52:32Z</time></trkpt><trkpt lat="43.878390229173995" lon="12.643546046091542"><ele>111.75</ele><time>2026-04-25T07:52:33Z</time></trkpt><trkpt lat="43.87830237451898" lon="12.643662692733436"><ele>117.5</ele><time>2026-04-25T07:52:34Z</time></trkpt><trkpt lat="43.87821658747931" lon="12.643787279625975"><ele>123.25</ele><time>2026-04-25T07:52:35Z</time></trkpt><trkpt lat="43.87811655579273" lon="12.643864136252647"><ele>129.0</ele><time>2026-04-25T07:52:36Z</time></trkpt><trkpt lat="43.878015744695205" lon="12.643936347932136"><ele>129.0</ele><time>2026-04-25T07:52:37Z</time></trkpt><trkpt lat="43.87791152670644" lon="12.643999275757125"><ele>129.0</ele><time>2026-04-25T07:52:38Z</time></trkpt><trkpt lat="43.87780377882516" lon="12.643964260478437"><ele>129.0</ele><time>2026-04-25T07:52:39Z</time></trkpt><trkpt lat="43.87768882997325" lon="12.643929117059729"><ele>129.0</ele><time>2026-04-25T07:52:40Z</time></trkpt><trkpt lat="43.877559576275274" lon="12.643885372708509"><ele>125.80000000000001</ele><time>2026-04-25T07:52:41Z</time></trkpt><trkpt lat="43.877441583564895" lon="12.643839437939691"><ele>122.60000000000001</ele><time>2026-04-25T07:52:42Z</time></trkpt><trkpt lat="43.877341094469905" lon="12.643787921106052"><ele>119.4</ele><time>2026-04-25T07:52:43Z</time></trkpt><trkpt lat="43.8772450764779" lon="12.643734355874502"><ele>116.2</ele><time>2026-04-25T07:52:44Z</time></trkpt><trkpt lat="43.877151958135265" lon="12.64370112963908"><ele>113.0</ele><time>2026-04-25T07:52:45Z</time></trkpt><trkpt lat="43.87709022118103" lon="12.64362199871152"><ele>112.33333333333333</ele><time>2026-04-25T07:52:46Z</time></trkpt><trkpt lat="43.87705249556122" lon="12.643535243296137"><ele>111.66666666666666</ele><time>2026-04-25T07:52:47Z</time></trkpt><trkpt lat="43.87707924630059" lon="12.64342644001869"><ele>111.0</ele><time>2026-04-25T07:52:48Z</time></trkpt><trkpt lat="43.877056379883214" lon="12.64330948243475"><ele>110.33333333333334</ele><time>2026-04-25T07:52:49Z</time></trkpt><trkpt lat="43.87701555556897" lon="12.643204153066241"><ele>109.66666666666667</ele><time>2026-04-25T07:52:50Z</time></trkpt><trkpt lat="43.876989620224535" lon="12.643106685865444"><ele>109.0</ele><time>2026-04-25T07:52:51Z</time></trkpt><trkpt lat="43.876905665333894" lon="12.643013848286447"><ele>109.0</ele><time>2026-04-25T07:52:52Z</time></trkpt><trkpt lat="43.87683763166666" lon="12.642875770059874"><ele>109.0</ele><time>2026-04-25T07:52:53Z</time></trkpt><trkpt lat="43.87678950578934" lon="12.642712205499475"><ele>109.0</ele><time>2026-04-25T07:52:54Z</time></trkpt><trkpt lat="43.87674664545479" lon="12.642542160084796"><ele>109.0</ele><time>2026-04-25T07:52:55Z</time></trkpt><trkpt lat="43.87671411533263" lon="12.64236733716655"><ele>109.75</ele><time>2026-04-25T07:52:56Z</time></trkpt><trkpt lat="43.876676106533594" lon="12.642194123994756"><ele>110.5</ele><time>2026-04-25T07:52:57Z</time></trkpt><trkpt lat="43.87665079209528" lon="12.642022596842342"><ele>111.25</ele><time>2026-04-25T07:52:58Z</time></trkpt><trkpt lat="43.87659800459674" lon="12.64188485727519"><ele>112.0</ele><time>2026-04-25T07:52:59Z</time></trkpt><trkpt lat="43.876520269313424" lon="12.64177614488372"><ele>112.0</ele><time>2026-04-25T07:53:00Z</time></trkpt><trkpt lat="43.876439643199525" lon="12.641660214269079"><ele>112.0</ele><time>2026-04-25T07:53:01Z</time></trkpt><trkpt lat="43.87634119056811" lon="12.641559630900385"><ele>112.0</ele><time>2026-04-25T07:53:02Z</time></trkpt><trkpt lat="43.876240831616606" lon="12.641443251478268"><ele>112.0</ele><time>2026-04-25T07:53:03Z</time></trkpt><trkpt lat="43.876148331425306" lon="12.641325832001645"><ele>112.0</ele><time>2026-04-25T07:53:04Z</time></trkpt><trkpt lat="43.87606637296753" lon="12.641191178184446"><ele>112.0</ele><time>2026-04-25T07:53:05Z</time></trkpt><trkpt lat="43.87599690997208" lon="12.641050133692593"><ele>112.0</ele><time>2026-04-25T07:53:06Z</time></trkpt><trkpt lat="43.875939323985826" lon="12.640897874239725"><ele>112.0</ele><time>2026-04-25T07:53:07Z</time></trkpt><trkpt lat="43.87588107626162" lon="12.640745245506558"><ele>112.0</ele><time>2026-04-25T07:53:08Z</time></trkpt><trkpt lat="43.87581758237959" lon="12.640596984665951"><ele>112.0</ele><time>2026-04-25T07:53:09Z</time></trkpt><trkpt lat="43.87576943769427" lon="12.640426668525512"><ele>112.0</ele><time>2026-04-25T07:53:10Z</time></trkpt><trkpt lat="43.87569309837969" lon="12.640284109881732"><ele>112.0</ele><time>2026-04-25T07:53:11Z</time></trkpt><trkpt lat="43.87563392421032" lon="12.640133748882553"><ele>112.0</ele><time>2026-04-25T07:53:12Z</time></trkpt><trkpt lat="43.875553437633414" lon="12.639981494801743"><ele>112.0</ele><time>2026-04-25T07:53:13Z</time></trkpt><trkpt lat="43.87546340369336" lon="12.639832145744831"><ele>112.0</ele><time>2026-04-25T07:53:14Z</time></trkpt><trkpt lat="43.87537364432043" lon="12.63968227484325"><ele>112.0</ele><time>2026-04-25T07:53:15Z</time></trkpt><trkpt lat="43.87528350182024" lon="12.6395361357303"><ele>113.5</ele><time>2026-04-25T07:53:16Z</time></trkpt><trkpt lat="43.87520339711072" lon="12.639377195370992"><ele>115.0</ele><time>2026-04-25T07:53:17Z</time></trkpt><trkpt lat="43.87511067650229" lon="12.63922229642421"><ele>116.5</ele><time>2026-04-25T07:53:18Z</time></trkpt><trkpt lat="43.875022476759874" lon="12.639078017188476"><ele>118.0</ele><time>2026-04-25T07:53:19Z</time></trkpt><trkpt lat="43.87493191940798" lon="12.63894189049626"><ele>118.0</ele><time>2026-04-25T07:53:20Z</time></trkpt><trkpt lat="43.87483735129354" lon="12.638814344205551"><ele>118.0</ele><time>2026-04-25T07:53:21Z</time></trkpt><trkpt lat="43.874740780071875" lon="12.638716258229314"><ele>118.0</ele><time>2026-04-25T07:53:22Z</time></trkpt><trkpt lat="43.87463851174113" lon="12.638640018568246"><ele>118.0</ele><time>2026-04-25T07:53:23Z</time></trkpt><trkpt lat="43.87452164614481" lon="12.638579993737757"><ele>117.75</ele><time>2026-04-25T07:53:24Z</time></trkpt><trkpt lat="43.874415907955985" lon="12.63851256326252"><ele>117.5</ele><time>2026-04-25T07:53:25Z</time></trkpt><trkpt lat="43.87430694042776" lon="12.638428519664322"><ele>117.25</ele><time>2026-04-25T07:53:26Z</time></trkpt><trkpt lat="43.87419323363935" lon="12.638338389385224"><ele>117.0</ele><time>2026-04-25T07:53:27Z</time></trkpt><trkpt lat="43.87407600080596" lon="12.63826761677673"><ele>117.0</ele><time>2026-04-25T07:53:28Z</time></trkpt><trkpt lat="43.87396466447369" lon="12.638170613811635"><ele>117.0</ele><time>2026-04-25T07:53:29Z</time></trkpt><trkpt lat="43.87385855786329" lon="12.638070292195051"><ele>117.0</ele><time>2026-04-25T07:53:30Z</time></trkpt><trkpt lat="43.87375100164474" lon="12.63795915529782"><ele>117.0</ele><time>2026-04-25T07:53:31Z</time></trkpt><trkpt lat="43.87366704346382" lon="12.637833465936238"><ele>117.75</ele><time>2026-04-25T07:53:32Z</time></trkpt><trkpt lat="43.87358448787525" lon="12.637688132486971"><ele>118.5</ele><time>2026-04-25T07:53:33Z</time></trkpt><trkpt lat="43.87349767663173" lon="12.637546864334702"><ele>119.25</ele><time>2026-04-25T07:53:34Z</time></trkpt><trkpt lat="43.87342397806073" lon="12.637397134183177"><ele>120.0</ele><time>2026-04-25T07:53:35Z</time></trkpt><trkpt lat="43.87333034166475" lon="12.637245696885497"><ele>120.66666666666666</ele><time>2026-04-25T07:53:36Z</time></trkpt><trkpt lat="43.87323037571027" lon="12.637085019726092"><ele>121.33333333333333</ele><time>2026-04-25T07:53:37Z</time></trkpt><trkpt lat="43.87312714435352" lon="12.636918232058642"><ele>122.0</ele><time>2026-04-25T07:53:38Z</time></trkpt><trkpt lat="43.87302684551559" lon="12.636766484364129"><ele>122.5</ele><time>2026-04-25T07:53:39Z</time></trkpt><trkpt lat="43.87294081483626" lon="12.636607103988034"><ele>123.0</ele><time>2026-04-25T07:53:40Z</time></trkpt><trkpt lat="43.87286253641806" lon="12.636446943317006"><ele>123.5</ele><time>2026-04-25T07:53:41Z</time></trkpt><trkpt lat="43.87278630217775" lon="12.636278418544732"><ele>124.0</ele><time>2026-04-25T07:53:42Z</time></trkpt><trkpt lat="43.87271514467349" lon="12.636121505944145"><ele>124.0</ele><time>2026-04-25T07:53:43Z</time></trkpt><trkpt lat="43.87264590593189" lon="12.63595133715104"><ele>124.0</ele><time>2026-04-25T07:53:44Z</time></trkpt><trkpt lat="43.87257851023524" lon="12.635781182453579"><ele>124.0</ele><time>2026-04-25T07:53:44.999Z</time></trkpt><trkpt lat="43.872523013314485" lon="12.63560434051378"><ele>124.0</ele><time>2026-04-25T07:53:45.999Z</time></trkpt><trkpt lat="43.872437054453634" lon="12.635450872157598"><ele>122.5</ele><time>2026-04-25T07:53:46.999Z</time></trkpt><trkpt lat="43.872365024082065" lon="12.635291285278182"><ele>121.0</ele><time>2026-04-25T07:53:47.999Z</time></trkpt><trkpt lat="43.87228946187708" lon="12.635137537062864"><ele>119.5</ele><time>2026-04-25T07:53:48.999Z</time></trkpt><trkpt lat="43.872198754773265" lon="12.634995996032783"><ele>118.0</ele><time>2026-04-25T07:53:49.999Z</time></trkpt><trkpt lat="43.87209945818813" lon="12.634875180281353"><ele>118.0</ele><time>2026-04-25T07:53:50.999Z</time></trkpt><trkpt lat="43.871997786495186" lon="12.634782408732175"><ele>118.00000000000001</ele><time>2026-04-25T07:53:51.999Z</time></trkpt><trkpt lat="43.87190407594452" lon="12.63472515989346"><ele>118.00000000000001</ele><time>2026-04-25T07:53:52.999Z</time></trkpt><trkpt lat="43.87182792423106" lon="12.634665696699138"><ele>118.0</ele><time>2026-04-25T07:53:53.999Z</time></trkpt><trkpt lat="43.871766154791054" lon="12.634590805754865"><ele>118.0</ele><time>2026-04-25T07:53:54.999Z</time></trkpt><trkpt lat="43.87169622006895" lon="12.634532121044717"><ele>118.60000000000001</ele><time>2026-04-25T07:53:55.999Z</time></trkpt><trkpt lat="43.871626473333286" lon="12.634464221223041"><ele>119.20000000000002</ele><time>2026-04-25T07:53:56.999Z</time></trkpt><trkpt lat="43.87155611363941" lon="12.634380877279058"><ele>119.8</ele><time>2026-04-25T07:53:57.999Z</time></trkpt><trkpt lat="43.871481083219955" lon="12.634286113569788"><ele>120.4</ele><time>2026-04-25T07:53:58.999Z</time></trkpt><trkpt lat="43.87140055054207" lon="12.634184935297453"><ele>121.0</ele><time>2026-04-25T07:53:59.999Z</time></trkpt><trkpt lat="43.87131271081593" lon="12.634079907325624"><ele>121.0</ele><time>2026-04-25T07:54:00.999Z</time></trkpt><trkpt lat="43.87120563864532" lon="12.633983501859202"><ele>121.0</ele><time>2026-04-25T07:54:01.999Z</time></trkpt><trkpt lat="43.87110976201354" lon="12.633864563250093"><ele>121.0</ele><time>2026-04-25T07:54:02.999Z</time></trkpt><trkpt lat="43.87100410153399" lon="12.63375618482745"><ele>121.0</ele><time>2026-04-25T07:54:03.999Z</time></trkpt><trkpt lat="43.87090006137091" lon="12.633650054156085"><ele>121.75</ele><time>2026-04-25T07:54:04.999Z</time></trkpt><trkpt lat="43.870803431876645" lon="12.633543845052177"><ele>122.5</ele><time>2026-04-25T07:54:06Z</time></trkpt><trkpt lat="43.87072140986871" lon="12.633438356569124"><ele>123.25</ele><time>2026-04-25T07:54:07Z</time></trkpt><trkpt lat="43.87064687251343" lon="12.63332019454564"><ele>124.0</ele><time>2026-04-25T07:54:08Z</time></trkpt><trkpt lat="43.87057912287099" lon="12.633181416755505"><ele>124.0</ele><time>2026-04-25T07:54:09Z</time></trkpt><trkpt lat="43.870518117585625" lon="12.633029201810006"><ele>124.0</ele><time>2026-04-25T07:54:10Z</time></trkpt><trkpt lat="43.870463207667065" lon="12.63283901443995"><ele>124.0</ele><time>2026-04-25T07:54:11Z</time></trkpt><trkpt lat="43.87038650088117" lon="12.632638971383582"><ele>124.0</ele><time>2026-04-25T07:54:12Z</time></trkpt><trkpt lat="43.8703331592911" lon="12.632431198225422"><ele>123.75</ele><time>2026-04-25T07:54:13Z</time></trkpt><trkpt lat="43.87026879771218" lon="12.632233832568138"><ele>123.5</ele><time>2026-04-25T07:54:14Z</time></trkpt><trkpt lat="43.87020268603021" lon="12.632053559018075"><ele>123.25</ele><time>2026-04-25T07:54:15Z</time></trkpt><trkpt lat="43.870134534161906" lon="12.631875438046523"><ele>123.0</ele><time>2026-04-25T07:54:16Z</time></trkpt><trkpt lat="43.87007219922908" lon="12.631703308077226"><ele>123.0</ele><time>2026-04-25T07:54:17Z</time></trkpt><trkpt lat="43.87001753836315" lon="12.631530117103946"><ele>123.0</ele><time>2026-04-25T07:54:18Z</time></trkpt><trkpt lat="43.86996210378794" lon="12.631356232888391"><ele>123.0</ele><time>2026-04-25T07:54:19Z</time></trkpt><trkpt lat="43.86990818830992" lon="12.63118547942286"><ele>123.0</ele><time>2026-04-25T07:54:20Z</time></trkpt><trkpt lat="43.86985414644906" lon="12.631019713577896"><ele>124.25</ele><time>2026-04-25T07:54:21Z</time></trkpt><trkpt lat="43.86980400109531" lon="12.630853066271198"><ele>125.5</ele><time>2026-04-25T07:54:22Z</time></trkpt><trkpt lat="43.8697665434789" lon="12.630680179227706"><ele>126.75</ele><time>2026-04-25T07:54:23Z</time></trkpt><trkpt lat="43.86971911710217" lon="12.630518248396088"><ele>128.0</ele><time>2026-04-25T07:54:24Z</time></trkpt><trkpt lat="43.869670491787986" lon="12.630354824260086"><ele>128.75</ele><time>2026-04-25T07:54:25Z</time></trkpt><trkpt lat="43.869608607095586" lon="12.630200786569672"><ele>129.5</ele><time>2026-04-25T07:54:26Z</time></trkpt><trkpt lat="43.86955326649058" lon="12.630047628218671"><ele>130.25</ele><time>2026-04-25T07:54:27Z</time></trkpt><trkpt lat="43.86949958019318" lon="12.629890007683436"><ele>131.0</ele><time>2026-04-25T07:54:28Z</time></trkpt><trkpt lat="43.869427234204146" lon="12.629740474927909"><ele>131.0</ele><time>2026-04-25T07:54:29Z</time></trkpt><trkpt lat="43.86934859597998" lon="12.62959586462733"><ele>131.0</ele><time>2026-04-25T07:54:30Z</time></trkpt><trkpt lat="43.86926848844983" lon="12.629474793803796"><ele>131.0</ele><time>2026-04-25T07:54:31Z</time></trkpt><trkpt lat="43.8692127732008" lon="12.62935734957314"><ele>131.0</ele><time>2026-04-25T07:54:32Z</time></trkpt><trkpt lat="43.86917066183285" lon="12.629267193500732"><ele>131.0</ele><time>2026-04-25T07:54:33Z</time></trkpt><trkpt lat="43.869146712270656" lon="12.629174966446575"><ele>129.75</ele><time>2026-04-25T07:54:34Z</time></trkpt><trkpt lat="43.86909911110478" lon="12.629062822715486"><ele>128.5</ele><time>2026-04-25T07:54:36Z</time></trkpt><trkpt lat="43.868893256856566" lon="12.6291235122326"><ele>127.25</ele><time>2026-04-25T07:54:38Z</time></trkpt><trkpt lat="43.86880458467117" lon="12.629159202042063"><ele>126.0</ele><time>2026-04-25T07:54:39Z</time></trkpt><trkpt lat="43.86871000427207" lon="12.62919336882983"><ele>126.0</ele><time>2026-04-25T07:54:40Z</time></trkpt><trkpt lat="43.86861087226891" lon="12.629228238549096"><ele>126.0</ele><time>2026-04-25T07:54:41Z</time></trkpt><trkpt lat="43.86851247026849" lon="12.629259134424908"><ele>126.0</ele><time>2026-04-25T07:54:42Z</time></trkpt><trkpt lat="43.86841510844399" lon="12.629287906755382"><ele>126.0</ele><time>2026-04-25T07:54:43Z</time></trkpt><trkpt lat="43.86832786065848" lon="12.629308523393066"><ele>126.0</ele><time>2026-04-25T07:54:44Z</time></trkpt><trkpt lat="43.86824077875304" lon="12.629326097519881"><ele>126.16666666666667</ele><time>2026-04-25T07:54:45Z</time></trkpt><trkpt lat="43.868162652823294" lon="12.629338022124168"><ele>126.33333333333334</ele><time>2026-04-25T07:54:46Z</time></trkpt><trkpt lat="43.868088143674335" lon="12.629345037313534"><ele>126.5</ele><time>2026-04-25T07:54:47Z</time></trkpt><trkpt lat="43.86801974648162" lon="12.629368049075959"><ele>126.66666666666667</ele><time>2026-04-25T07:54:48Z</time></trkpt><trkpt lat="43.86794008794005" lon="12.629356352636114"><ele>126.83333333333334</ele><time>2026-04-25T07:54:50Z</time></trkpt><trkpt lat="43.86800359253607" lon="12.62951736077363"><ele>127.0</ele><time>2026-04-25T07:54:57Z</time></trkpt><trkpt lat="43.868096188962575" lon="12.629565501099412"><ele>127.00000000000001</ele><time>2026-04-25T07:55:00Z</time></trkpt><trkpt lat="43.86816601608248" lon="12.629616570523655"><ele>127.0</ele><time>2026-04-25T07:55:02Z</time></trkpt><trkpt lat="43.86820694394944" lon="12.629684752889712"><ele>127.0</ele><time>2026-04-25T07:55:04Z</time></trkpt><trkpt lat="43.86821638118184" lon="12.629781314371577"><ele>127.0</ele><time>2026-04-25T07:55:06Z</time></trkpt><trkpt lat="43.86816258047348" lon="12.629884269087272"><ele>127.00000000000001</ele><time>2026-04-25T07:55:08Z</time></trkpt><trkpt lat="43.86809908356478" lon="12.62993666612174"><ele>127.0</ele><time>2026-04-25T07:55:09Z</time></trkpt><trkpt lat="43.86801389934429" lon="12.629997718592072"><ele>127.00000000000001</ele><time>2026-04-25T07:55:10Z</time></trkpt><trkpt lat="43.86794379152612" lon="12.630076236682257"><ele>127.0</ele><time>2026-04-25T07:55:11Z</time></trkpt><trkpt lat="43.867894443025946" lon="12.630169711579908"><ele>127.0</ele><time>2026-04-25T07:55:12Z</time></trkpt><trkpt lat="43.867874802865394" lon="12.63027822216857"><ele>127.0</ele><time>2026-04-25T07:55:13Z</time></trkpt><trkpt lat="43.86789019375906" lon="12.630389902389583"><ele>127.00000000000001</ele><time>2026-04-25T07:55:14Z</time></trkpt><trkpt lat="43.867919840712034" lon="12.630508529436145"><ele>127.0</ele><time>2026-04-25T07:55:15Z</time></trkpt><trkpt lat="43.867943326856654" lon="12.630631640941798"><ele>128.33333333333334</ele><time>2026-04-25T07:55:16Z</time></trkpt><trkpt lat="43.86794852170405" lon="12.630736003380463"><ele>129.66666666666669</ele><time>2026-04-25T07:55:17Z</time></trkpt><trkpt lat="43.8679304027895" lon="12.630833407299534"><ele>131.0</ele><time>2026-04-25T07:55:18Z</time></trkpt><trkpt lat="43.8678993796728" lon="12.630929894575214"><ele>132.33333333333334</ele><time>2026-04-25T07:55:19Z</time></trkpt><trkpt lat="43.86785847049041" lon="12.631033209135506"><ele>133.66666666666666</ele><time>2026-04-25T07:55:20Z</time></trkpt><trkpt lat="43.86781097192927" lon="12.631154139342176"><ele>135.0</ele><time>2026-04-25T07:55:21Z</time></trkpt><trkpt lat="43.8677660257678" lon="12.631292642678797"><ele>137.33333333333334</ele><time>2026-04-25T07:55:22Z</time></trkpt><trkpt lat="43.86773175557873" lon="12.631396244855313"><ele>139.66666666666666</ele><time>2026-04-25T07:55:23Z</time></trkpt><trkpt lat="43.867684930683616" lon="12.631514517068263"><ele>142.0</ele><time>2026-04-25T07:55:24Z</time></trkpt><trkpt lat="43.86763816902727" lon="12.631641308271913"><ele>144.33333333333331</ele><time>2026-04-25T07:55:25Z</time></trkpt><trkpt lat="43.867590514119165" lon="12.631750874827432"><ele>146.66666666666666</ele><time>2026-04-25T07:55:26Z</time></trkpt><trkpt lat="43.86755267178981" lon="12.631833899523862"><ele>149.0</ele><time>2026-04-25T07:55:27Z</time></trkpt><trkpt lat="43.86750747565137" lon="12.631943605599684"><ele>155.6</ele><time>2026-04-25T07:55:28Z</time></trkpt><trkpt lat="43.86746144423131" lon="12.632062409039978"><ele>162.2</ele><time>2026-04-25T07:55:29Z</time></trkpt><trkpt lat="43.86740846103838" lon="12.632175341431505"><ele>168.79999999999998</ele><time>2026-04-25T07:55:30Z</time></trkpt><trkpt lat="43.86735217908007" lon="12.632285533197159"><ele>175.4</ele><time>2026-04-25T07:55:31Z</time></trkpt><trkpt lat="43.867283311120495" lon="12.632403980317411"><ele>182.0</ele><time>2026-04-25T07:55:32Z</time></trkpt><trkpt lat="43.867222392588836" lon="12.632513590501754"><ele>182.0</ele><time>2026-04-25T07:55:33Z</time></trkpt><trkpt lat="43.867169932408196" lon="12.632614947693083"><ele>182.0</ele><time>2026-04-25T07:55:34Z</time></trkpt><trkpt lat="43.86711506667961" lon="12.632753135870237"><ele>182.0</ele><time>2026-04-25T07:55:35Z</time></trkpt><trkpt lat="43.86705801538152" lon="12.632902486055103"><ele>182.0</ele><time>2026-04-25T07:55:36Z</time></trkpt><trkpt lat="43.86698376203751" lon="12.633046511011324"><ele>182.8</ele><time>2026-04-25T07:55:37Z</time></trkpt><trkpt lat="43.866927924202365" lon="12.633134434680285"><ele>183.6</ele><time>2026-04-25T07:55:38Z</time></trkpt><trkpt lat="43.86685719410295" lon="12.633187892510485"><ele>184.4</ele><time>2026-04-25T07:55:39Z</time></trkpt><trkpt lat="43.86676099696003" lon="12.633248603506425"><ele>185.20000000000002</ele><time>2026-04-25T07:55:40Z</time></trkpt><trkpt lat="43.86664677473968" lon="12.633323220694432"><ele>186.0</ele><time>2026-04-25T07:55:41Z</time></trkpt><trkpt lat="43.86652437140144" lon="12.633420523954866"><ele>187.75</ele><time>2026-04-25T07:55:42Z</time></trkpt><trkpt lat="43.8664071881225" lon="12.633525932627123"><ele>189.5</ele><time>2026-04-25T07:55:43Z</time></trkpt><trkpt lat="43.866310887803444" lon="12.633623246703939"><ele>191.25</ele><time>2026-04-25T07:55:44Z</time></trkpt><trkpt lat="43.866205168027925" lon="12.633707213235354"><ele>193.0</ele><time>2026-04-25T07:55:45Z</time></trkpt><trkpt lat="43.86606833682329" lon="12.633794752569587"><ele>197.0</ele><time>2026-04-25T07:55:46Z</time></trkpt><trkpt lat="43.86591829941392" lon="12.633894071599459"><ele>201.0</ele><time>2026-04-25T07:55:47Z</time></trkpt><trkpt lat="43.865789988992546" lon="12.633983905323221"><ele>205.0</ele><time>2026-04-25T07:55:48Z</time></trkpt><trkpt lat="43.865693061506306" lon="12.634050350436238"><ele>209.0</ele><time>2026-04-25T07:55:49Z</time></trkpt><trkpt lat="43.865607590607354" lon="12.634122781498109"><ele>209.0</ele><time>2026-04-25T07:55:50Z</time></trkpt><trkpt lat="43.86552349232429" lon="12.634216300869936"><ele>209.0</ele><time>2026-04-25T07:55:51Z</time></trkpt><trkpt lat="43.86543040119704" lon="12.63432083406316"><ele>209.0</ele><time>2026-04-25T07:55:52Z</time></trkpt><trkpt lat="43.865343340873096" lon="12.634408487016515"><ele>209.0</ele><time>2026-04-25T07:55:53Z</time></trkpt><trkpt lat="43.865253384591014" lon="12.63449227257493"><ele>209.0</ele><time>2026-04-25T07:55:54Z</time></trkpt><trkpt lat="43.86517424373058" lon="12.634587980110407"><ele>209.75</ele><time>2026-04-25T07:55:55Z</time></trkpt><trkpt lat="43.86510250743778" lon="12.634684214322084"><ele>210.5</ele><time>2026-04-25T07:55:56Z</time></trkpt><trkpt lat="43.86502499994241" lon="12.634786360767187"><ele>211.25</ele><time>2026-04-25T07:55:56.999Z</time></trkpt><trkpt lat="43.86492787623908" lon="12.63491239331468"><ele>212.0</ele><time>2026-04-25T07:55:57.999Z</time></trkpt><trkpt lat="43.86483030116504" lon="12.63503982092818"><ele>212.0</ele><time>2026-04-25T07:55:58.999Z</time></trkpt><trkpt lat="43.86475642099651" lon="12.635138025162734"><ele>212.0</ele><time>2026-04-25T07:55:59.999Z</time></trkpt><trkpt lat="43.86469229277608" lon="12.635229805032365"><ele>212.0</ele><time>2026-04-25T07:56:00.999Z</time></trkpt><trkpt lat="43.86462695346837" lon="12.635325808096887"><ele>212.0</ele><time>2026-04-25T07:56:01.999Z</time></trkpt><trkpt lat="43.86454856684976" lon="12.635439678923223"><ele>212.0</ele><time>2026-04-25T07:56:02.999Z</time></trkpt><trkpt lat="43.864468460017044" lon="12.635558568778366"><ele>211.25</ele><time>2026-04-25T07:56:03.999Z</time></trkpt><trkpt lat="43.86439210759184" lon="12.635671436693809"><ele>210.5</ele><time>2026-04-25T07:56:04.999Z</time></trkpt><trkpt lat="43.86431475304941" lon="12.63578929033979"><ele>209.75</ele><time>2026-04-25T07:56:05.999Z</time></trkpt><trkpt lat="43.864240402075566" lon="12.635914990507185"><ele>209.0</ele><time>2026-04-25T07:56:06.999Z</time></trkpt><trkpt lat="43.864172706232644" lon="12.636027908448703"><ele>211.0</ele><time>2026-04-25T07:56:07.999Z</time></trkpt><trkpt lat="43.864108131973154" lon="12.636140455185902"><ele>213.0</ele><time>2026-04-25T07:56:08.999Z</time></trkpt><trkpt lat="43.86404827846495" lon="12.636250553165725"><ele>214.99999999999997</ele><time>2026-04-25T07:56:09.999Z</time></trkpt><trkpt lat="43.86399035209376" lon="12.636348905352493"><ele>217.0</ele><time>2026-04-25T07:56:10.999Z</time></trkpt><trkpt lat="43.86393870633352" lon="12.63644061823476"><ele>219.0</ele><time>2026-04-25T07:56:12Z</time></trkpt><trkpt lat="43.8638812538922" lon="12.636537263284776"><ele>219.0</ele><time>2026-04-25T07:56:13Z</time></trkpt><trkpt lat="43.86382917139149" lon="12.6366198774415"><ele>219.0</ele><time>2026-04-25T07:56:14Z</time></trkpt><trkpt lat="43.8637712956094" lon="12.636697389357364"><ele>219.0</ele><time>2026-04-25T07:56:15Z</time></trkpt><trkpt lat="43.86371476611991" lon="12.63676528692967"><ele>219.0</ele><time>2026-04-25T07:56:16Z</time></trkpt><trkpt lat="43.863646593489065" lon="12.636829551335163"><ele>219.0</ele><time>2026-04-25T07:56:17Z</time></trkpt><trkpt lat="43.86357353715085" lon="12.636894571618217"><ele>219.0</ele><time>2026-04-25T07:56:18Z</time></trkpt><trkpt lat="43.86349985294449" lon="12.636946801828584"><ele>220.66666666666666</ele><time>2026-04-25T07:56:19Z</time></trkpt><trkpt lat="43.86343378851543" lon="12.636996687024903"><ele>222.33333333333331</ele><time>2026-04-25T07:56:20Z</time></trkpt><trkpt lat="43.863370850525236" lon="12.637045766037424"><ele>224.0</ele><time>2026-04-25T07:56:21Z</time></trkpt><trkpt lat="43.86330970478658" lon="12.63709102977838"><ele>225.66666666666666</ele><time>2026-04-25T07:56:22Z</time></trkpt><trkpt lat="43.863215117110535" lon="12.637179479294373"><ele>227.33333333333331</ele><time>2026-04-25T07:56:24Z</time></trkpt><trkpt lat="43.86315728975558" lon="12.637245117954844"><ele>229.0</ele><time>2026-04-25T07:56:25Z</time></trkpt><trkpt lat="43.86311032997735" lon="12.637304381520973"><ele>229.0</ele><time>2026-04-25T07:56:26Z</time></trkpt><trkpt lat="43.86305621057347" lon="12.637410973955724"><ele>228.99999999999997</ele><time>2026-04-25T07:56:28Z</time></trkpt><trkpt lat="43.86301172638186" lon="12.637489949472236"><ele>228.99999999999997</ele><time>2026-04-25T07:56:30Z</time></trkpt><trkpt lat="43.862947973374375" lon="12.637641859400622"><ele>229.0</ele><time>2026-04-25T07:56:33Z</time></trkpt><trkpt lat="43.86288606479371" lon="12.637783962261757"><ele>229.0</ele><time>2026-04-25T07:56:35Z</time></trkpt><trkpt lat="43.862843099948236" lon="12.63785412374733"><ele>229.79999999999998</ele><time>2026-04-25T07:56:36Z</time></trkpt><trkpt lat="43.86277349834058" lon="12.63794099717018"><ele>230.59999999999997</ele><time>2026-04-25T07:56:38Z</time></trkpt><trkpt lat="43.86269178723468" lon="12.638024281942812"><ele>231.4</ele><time>2026-04-25T07:56:40Z</time></trkpt><trkpt lat="43.86259689098479" lon="12.6381293506531"><ele>232.2</ele><time>2026-04-25T07:56:42Z</time></trkpt><trkpt lat="43.862546459569856" lon="12.638191649542568"><ele>233.0</ele><time>2026-04-25T07:56:43Z</time></trkpt><trkpt lat="43.86249235161914" lon="12.63825663968721"><ele>235.0</ele><time>2026-04-25T07:56:44Z</time></trkpt><trkpt lat="43.862450300324355" lon="12.63832465341945"><ele>237.0</ele><time>2026-04-25T07:56:45Z</time></trkpt><trkpt lat="43.86238701686113" lon="12.63848489426516"><ele>239.0</ele><time>2026-04-25T07:56:47Z</time></trkpt><trkpt lat="43.862347034579344" lon="12.638601208965097"><ele>241.0</ele><time>2026-04-25T07:56:48Z</time></trkpt><trkpt lat="43.86230017332782" lon="12.638725545730916"><ele>243.0</ele><time>2026-04-25T07:56:49Z</time></trkpt><trkpt lat="43.86224974372962" lon="12.638837075906219"><ele>244.16666666666666</ele><time>2026-04-25T07:56:50Z</time></trkpt><trkpt lat="43.86220278281043" lon="12.63891530985769"><ele>245.33333333333331</ele><time>2026-04-25T07:56:51Z</time></trkpt><trkpt lat="43.862148387850034" lon="12.638997365738843"><ele>246.5</ele><time>2026-04-25T07:56:52Z</time></trkpt><trkpt lat="43.86208903225202" lon="12.63907573837912"><ele>247.66666666666666</ele><time>2026-04-25T07:56:53Z</time></trkpt><trkpt lat="43.8620209347671" lon="12.639156408793928"><ele>248.83333333333331</ele><time>2026-04-25T07:56:54Z</time></trkpt><trkpt lat="43.861948901476296" lon="12.639243092237294"><ele>250.0</ele><time>2026-04-25T07:56:55Z</time></trkpt><trkpt lat="43.86187147279854" lon="12.639333170135911"><ele>249.99999999999997</ele><time>2026-04-25T07:56:56Z</time></trkpt><trkpt lat="43.86179909152496" lon="12.639427207298583"><ele>250.0</ele><time>2026-04-25T07:56:57Z</time></trkpt><trkpt lat="43.861730946397614" lon="12.639509658271459"><ele>250.0</ele><time>2026-04-25T07:56:58Z</time></trkpt><trkpt lat="43.86168492542334" lon="12.639578364512106"><ele>250.0</ele><time>2026-04-25T07:56:59Z</time></trkpt><trkpt lat="43.8616352513215" lon="12.639645561436087"><ele>249.99999999999997</ele><time>2026-04-25T07:57:00Z</time></trkpt><trkpt lat="43.86159088273341" lon="12.639730320356344"><ele>250.0</ele><time>2026-04-25T07:57:01Z</time></trkpt><trkpt lat="43.86155003129004" lon="12.639823112572692"><ele>251.0</ele><time>2026-04-25T07:57:02Z</time></trkpt><trkpt lat="43.86150347844023" lon="12.639927585815126"><ele>252.0</ele><time>2026-04-25T07:57:03Z</time></trkpt><trkpt lat="43.861454710601606" lon="12.64003745613618"><ele>253.0</ele><time>2026-04-25T07:57:04Z</time></trkpt><trkpt lat="43.86139981154217" lon="12.64015488530715"><ele>254.0</ele><time>2026-04-25T07:57:05Z</time></trkpt><trkpt lat="43.861340609974306" lon="12.64025061978874"><ele>255.0</ele><time>2026-04-25T07:57:06Z</time></trkpt><trkpt lat="43.861273526230626" lon="12.640304721523021"><ele>255.0</ele><time>2026-04-25T07:57:07Z</time></trkpt><trkpt lat="43.86119146711403" lon="12.640337069185023"><ele>255.0</ele><time>2026-04-25T07:57:08Z</time></trkpt><trkpt lat="43.861101855828636" lon="12.640364437965484"><ele>255.0</ele><time>2026-04-25T07:57:09Z</time></trkpt><trkpt lat="43.86099902368937" lon="12.640388360321568"><ele>255.0</ele><time>2026-04-25T07:57:10Z</time></trkpt><trkpt lat="43.86089970782272" lon="12.640410378386818"><ele>255.0</ele><time>2026-04-25T07:57:11Z</time></trkpt><trkpt lat="43.86077654954259" lon="12.640426906254584"><ele>260.25</ele><time>2026-04-25T07:57:12Z</time></trkpt><trkpt lat="43.8606332084635" lon="12.640436715851715"><ele>265.5</ele><time>2026-04-25T07:57:13Z</time></trkpt><trkpt lat="43.86049055610895" lon="12.640461786147522"><ele>270.75</ele><time>2026-04-25T07:57:14Z</time></trkpt><trkpt lat="43.86036190984647" lon="12.640508898493618"><ele>276.0</ele><time>2026-04-25T07:57:15Z</time></trkpt><trkpt lat="43.86023229873865" lon="12.640568581031737"><ele>276.0</ele><time>2026-04-25T07:57:16Z</time></trkpt><trkpt lat="43.860142704823105" lon="12.640618218612408"><ele>276.0</ele><time>2026-04-25T07:57:17Z</time></trkpt><trkpt lat="43.86006198312016" lon="12.640633709749848"><ele>276.0</ele><time>2026-04-25T07:57:18Z</time></trkpt><trkpt lat="43.85997687995607" lon="12.640619262140989"><ele>276.0</ele><time>2026-04-25T07:57:19Z</time></trkpt><trkpt lat="43.85990715164776" lon="12.640601541597846"><ele>276.0</ele><time>2026-04-25T07:57:20Z</time></trkpt><trkpt lat="43.859835994816144" lon="12.640587077584842"><ele>276.0</ele><time>2026-04-25T07:57:21Z</time></trkpt><trkpt lat="43.85976298559405" lon="12.640561404249528"><ele>279.1666666666667</ele><time>2026-04-25T07:57:22Z</time></trkpt><trkpt lat="43.85976108544539" lon="12.640465381553366"><ele>282.3333333333333</ele><time>2026-04-25T07:57:26Z</time></trkpt><trkpt lat="43.859809676368755" lon="12.640383046505049"><ele>285.5</ele><time>2026-04-25T07:57:30Z</time></trkpt><trkpt lat="43.85982377946541" lon="12.640297174358723"><ele>288.66666666666663</ele><time>2026-04-25T07:57:34Z</time></trkpt><trkpt lat="43.859776773477286" lon="12.640159882299791"><ele>291.8333333333333</ele><time>2026-04-25T07:57:38Z</time></trkpt><trkpt lat="43.85966615050671" lon="12.640110344774472"><ele>295.0</ele><time>2026-04-25T07:57:40Z</time></trkpt><trkpt lat="43.85957276024012" lon="12.64009092010934"><ele>295.4</ele><time>2026-04-25T07:57:41Z</time></trkpt><trkpt lat="43.85946898282618" lon="12.64005852926373"><ele>295.8</ele><time>2026-04-25T07:57:42Z</time></trkpt><trkpt lat="43.85938242656427" lon="12.640020410487407"><ele>296.2</ele><time>2026-04-25T07:57:43Z</time></trkpt><trkpt lat="43.85929551344237" lon="12.640001574906199"><ele>296.6</ele><time>2026-04-25T07:57:44Z</time></trkpt><trkpt lat="43.859212419947326" lon="12.640032385865446"><ele>297.0</ele><time>2026-04-25T07:57:46Z</time></trkpt><trkpt lat="43.859122215273665" lon="12.640094832965246"><ele>300.4</ele><time>2026-04-25T07:57:48Z</time></trkpt><trkpt lat="43.85908883251011" lon="12.640176717956008"><ele>303.79999999999995</ele><time>2026-04-25T07:57:49Z</time></trkpt><trkpt lat="43.85905561140744" lon="12.640258206183955"><ele>307.2</ele><time>2026-04-25T07:57:49.999Z</time></trkpt><trkpt lat="43.85901426178918" lon="12.640419006412284"><ele>310.59999999999997</ele><time>2026-04-25T07:57:50.999Z</time></trkpt><trkpt lat="43.85895802280022" lon="12.640560452261248"><ele>314.0</ele><time>2026-04-25T07:57:51.999Z</time></trkpt><trkpt lat="43.85890276381173" lon="12.640707928521662"><ele>314.0</ele><time>2026-04-25T07:57:52.999Z</time></trkpt><trkpt lat="43.85883969675476" lon="12.640800111241948"><ele>314.0</ele><time>2026-04-25T07:57:53.999Z</time></trkpt><trkpt lat="43.85877218325738" lon="12.640829511255099"><ele>314.0</ele><time>2026-04-25T07:57:54.999Z</time></trkpt><trkpt lat="43.85868962566566" lon="12.640848994330547"><ele>314.0</ele><time>2026-04-25T07:57:55.999Z</time></trkpt><trkpt lat="43.85862210654869" lon="12.64092205697506"><ele>314.0</ele><time>2026-04-25T07:57:56.999Z</time></trkpt><trkpt lat="43.85844154599707" lon="12.641068681646637"><ele>318.5</ele><time>2026-04-25T07:57:57.999Z</time></trkpt><trkpt lat="43.858338841549404" lon="12.641172935898318"><ele>323.0</ele><time>2026-04-25T07:57:58.999Z</time></trkpt><trkpt lat="43.858261922379384" lon="12.641288769232084"><ele>327.5</ele><time>2026-04-25T07:57:59.999Z</time></trkpt><trkpt lat="43.85818037500884" lon="12.641448963285512"><ele>332.0</ele><time>2026-04-25T07:58:00.999Z</time></trkpt><trkpt lat="43.858117069296625" lon="12.641641508198468"><ele>332.0</ele><time>2026-04-25T07:58:01.999Z</time></trkpt><trkpt lat="43.85801758537727" lon="12.641924093086791"><ele>332.0</ele><time>2026-04-25T07:58:02.999Z</time></trkpt><trkpt lat="43.857925774093715" lon="12.642250720449422"><ele>332.0</ele><time>2026-04-25T07:58:03.999Z</time></trkpt><trkpt lat="43.85783525907263" lon="12.64253434990074"><ele>332.0</ele><time>2026-04-25T07:58:04.999Z</time></trkpt><trkpt lat="43.857758246219305" lon="12.642807344733525"><ele>332.0</ele><time>2026-04-25T07:58:05.999Z</time></trkpt><trkpt lat="43.857721787837974" lon="12.643003073193437"><ele>331.0</ele><time>2026-04-25T07:58:06.999Z</time></trkpt><trkpt lat="43.857667318541225" lon="12.643212698248986"><ele>330.0</ele><time>2026-04-25T07:58:07.999Z</time></trkpt><trkpt lat="43.857621256966716" lon="12.643393288439764"><ele>329.0</ele><time>2026-04-25T07:58:08.999Z</time></trkpt><trkpt lat="43.85758854418388" lon="12.643586603475192"><ele>328.0</ele><time>2026-04-25T07:58:09.999Z</time></trkpt><trkpt lat="43.85755010806145" lon="12.643806841753044"><ele>334.0</ele><time>2026-04-25T07:58:10.999Z</time></trkpt><trkpt lat="43.85751731162282" lon="12.644023723879567"><ele>340.0</ele><time>2026-04-25T07:58:11.999Z</time></trkpt><trkpt lat="43.85749833720212" lon="12.644165035631211"><ele>346.0</ele><time>2026-04-25T07:58:12.999Z</time></trkpt><trkpt lat="43.8574754139874" lon="12.644285770786183"><ele>352.0</ele><time>2026-04-25T07:58:13.999Z</time></trkpt><trkpt lat="43.857437186792694" lon="12.644413060872196"><ele>352.20000000000005</ele><time>2026-04-25T07:58:14.999Z</time></trkpt><trkpt lat="43.8573878265761" lon="12.644496886662962"><ele>352.4</ele><time>2026-04-25T07:58:15.999Z</time></trkpt><trkpt lat="43.857327189624506" lon="12.64456056811211"><ele>352.6</ele><time>2026-04-25T07:58:16.999Z</time></trkpt><trkpt lat="43.85728037426379" lon="12.644631253343992"><ele>352.79999999999995</ele><time>2026-04-25T07:58:17.999Z</time></trkpt><trkpt lat="43.85729466738559" lon="12.644805664128155"><ele>353.0</ele><time>2026-04-25T07:58:19.999Z</time></trkpt><trkpt lat="43.857342492417274" lon="12.645087238365848"><ele>353.0</ele><time>2026-04-25T07:58:21.999Z</time></trkpt><trkpt lat="43.857372532039406" lon="12.645268266028276"><ele>353.0</ele><time>2026-04-25T07:58:22.999Z</time></trkpt><trkpt lat="43.85740131010783" lon="12.645416840174363"><ele>353.0</ele><time>2026-04-25T07:58:23.999Z</time></trkpt><trkpt lat="43.85742699703992" lon="12.645555236408727"><ele>353.0</ele><time>2026-04-25T07:58:24.999Z</time></trkpt><trkpt lat="43.85744911897481" lon="12.645712740673268"><ele>352.79999999999995</ele><time>2026-04-25T07:58:25.999Z</time></trkpt><trkpt lat="43.85745902405202" lon="12.645858926900603"><ele>352.6</ele><time>2026-04-25T07:58:26.999Z</time></trkpt><trkpt lat="43.85746242510556" lon="12.645980788495727"><ele>352.4</ele><time>2026-04-25T07:58:27.999Z</time></trkpt><trkpt lat="43.857460085319325" lon="12.646107079521665"><ele>352.20000000000005</ele><time>2026-04-25T07:58:28.999Z</time></trkpt><trkpt lat="43.85745384250376" lon="12.646222825202084"><ele>352.0</ele><time>2026-04-25T07:58:29.999Z</time></trkpt><trkpt lat="43.85743121847924" lon="12.646335625283397"><ele>352.0</ele><time>2026-04-25T07:58:31Z</time></trkpt><trkpt lat="43.85740292494648" lon="12.646499407951216"><ele>352.0</ele><time>2026-04-25T07:58:32.999Z</time></trkpt><trkpt lat="43.857300814252724" lon="12.64648451604442"><ele>352.0</ele><time>2026-04-25T07:58:35.999Z</time></trkpt><trkpt lat="43.857230238367165" lon="12.646473698972898"><ele>352.0</ele><time>2026-04-25T07:58:36.999Z</time></trkpt><trkpt lat="43.857159481396685" lon="12.646477305884538"><ele>352.0</ele><time>2026-04-25T07:58:37.999Z</time></trkpt><trkpt lat="43.85704672111287" lon="12.646508789755678"><ele>352.0</ele><time>2026-04-25T07:58:39.999Z</time></trkpt><trkpt lat="43.85712364440877" lon="12.646429377229126"><ele>352.0</ele><time>2026-04-25T07:58:41.999Z</time></trkpt><trkpt lat="43.85718068075899" lon="12.646271550888267"><ele>352.0</ele><time>2026-04-25T07:58:43.999Z</time></trkpt><trkpt lat="43.85720457394686" lon="12.646124641855039"><ele>352.0</ele><time>2026-04-25T07:58:44.999Z</time></trkpt><trkpt lat="43.85719595987131" lon="12.646005572639611"><ele>352.0</ele><time>2026-04-25T07:58:45.999Z</time></trkpt><trkpt lat="43.857171844315296" lon="12.645880660921126"><ele>352.16666666666663</ele><time>2026-04-25T07:58:46.999Z</time></trkpt><trkpt lat="43.85714708435011" lon="12.645757183785127"><ele>352.3333333333333</ele><time>2026-04-25T07:58:47.999Z</time></trkpt><trkpt lat="43.85712299555235" lon="12.64565354965589"><ele>352.5</ele><time>2026-04-25T07:58:48.999Z</time></trkpt><trkpt lat="43.85709598227331" lon="12.64555618769079"><ele>352.6666666666667</ele><time>2026-04-25T07:58:49.999Z</time></trkpt><trkpt lat="43.85706456515657" lon="12.645449802829956"><ele>352.83333333333337</ele><time>2026-04-25T07:58:51.999Z</time></trkpt><trkpt lat="43.85703579614349" lon="12.64535207943307"><ele>353.0</ele><time>2026-04-25T07:58:53.999Z</time></trkpt><trkpt lat="43.85701187410489" lon="12.645266949954062"><ele>353.0</ele><time>2026-04-25T07:58:55.999Z</time></trkpt><trkpt lat="43.856981159968306" lon="12.645159258720057"><ele>353.0</ele><time>2026-04-25T07:58:57.999Z</time></trkpt><trkpt lat="43.85694289045022" lon="12.645072593777996"><ele>353.0</ele><time>2026-04-25T07:58:59.999Z</time></trkpt><trkpt lat="43.856905599070444" lon="12.644957216817705"><ele>353.0</ele><time>2026-04-25T07:59:01.999Z</time></trkpt><trkpt lat="43.85685343494451" lon="12.644862695189445"><ele>353.0</ele><time>2026-04-25T07:59:03.999Z</time></trkpt><trkpt lat="43.85679736026281" lon="12.64477894287352"><ele>353.0</ele><time>2026-04-25T07:59:05.999Z</time></trkpt><trkpt lat="43.85673635255723" lon="12.644712688204857"><ele>353.59999999999997</ele><time>2026-04-25T07:59:07.999Z</time></trkpt><trkpt lat="43.856705484345426" lon="12.644632630190136"><ele>354.2</ele><time>2026-04-25T07:59:10.999Z</time></trkpt><trkpt lat="43.856627436147186" lon="12.644571758556424"><ele>354.8</ele><time>2026-04-25T07:59:23.999Z</time></trkpt><trkpt lat="43.85655138184651" lon="12.64451983877265"><ele>355.4</ele><time>2026-04-25T07:59:24.999Z</time></trkpt><trkpt lat="43.85645447350956" lon="12.644433743338476"><ele>356.0</ele><time>2026-04-25T07:59:25.999Z</time></trkpt><trkpt lat="43.85634674236808" lon="12.644315189719352"><ele>356.0</ele><time>2026-04-25T07:59:26.999Z</time></trkpt><trkpt lat="43.85624936893912" lon="12.64416200873005"><ele>356.0</ele><time>2026-04-25T07:59:27.999Z</time></trkpt><trkpt lat="43.85615878470332" lon="12.64402093378269"><ele>356.0</ele><time>2026-04-25T07:59:28.999Z</time></trkpt><trkpt lat="43.85603625414633" lon="12.643912418002056"><ele>356.0</ele><time>2026-04-25T07:59:29.999Z</time></trkpt><trkpt lat="43.85587806180687" lon="12.643852381566166"><ele>354.25</ele><time>2026-04-25T07:59:30.999Z</time></trkpt><trkpt lat="43.85572856991285" lon="12.64381265926364"><ele>352.5</ele><time>2026-04-25T07:59:31.999Z</time></trkpt><trkpt lat="43.855597510057386" lon="12.643760331570968"><ele>350.75</ele><time>2026-04-25T07:59:32.999Z</time></trkpt><trkpt lat="43.855492183001196" lon="12.643690940573926"><ele>349.0</ele><time>2026-04-25T07:59:33.999Z</time></trkpt><trkpt lat="43.855433708033644" lon="12.643582099309201"><ele>349.0</ele><time>2026-04-25T07:59:34.999Z</time></trkpt><trkpt lat="43.85541339032431" lon="12.643422515995058"><ele>349.0</ele><time>2026-04-25T07:59:35.999Z</time></trkpt><trkpt lat="43.855407051943246" lon="12.643215802745193"><ele>349.0</ele><time>2026-04-25T07:59:36.999Z</time></trkpt><trkpt lat="43.855394822912466" lon="12.643012058836105"><ele>349.0</ele><time>2026-04-25T07:59:37.999Z</time></trkpt><trkpt lat="43.85536313664089" lon="12.642821255022747"><ele>351.25</ele><time>2026-04-25T07:59:38.999Z</time></trkpt><trkpt lat="43.855307093168484" lon="12.642627827950422"><ele>353.5</ele><time>2026-04-25T07:59:39.999Z</time></trkpt><trkpt lat="43.85523916196487" lon="12.64245887326128"><ele>355.75</ele><time>2026-04-25T07:59:40.999Z</time></trkpt><trkpt lat="43.85517111322062" lon="12.64231127492546"><ele>358.0</ele><time>2026-04-25T07:59:41.999Z</time></trkpt><trkpt lat="43.85510532032987" lon="12.642174476182687"><ele>354.25</ele><time>2026-04-25T07:59:42.999Z</time></trkpt><trkpt lat="43.85503869413838" lon="12.642039700646555"><ele>350.5</ele><time>2026-04-25T07:59:43.999Z</time></trkpt><trkpt lat="43.85496166870744" lon="12.641894052847926"><ele>346.75</ele><time>2026-04-25T07:59:44.999Z</time></trkpt><trkpt lat="43.854871702623" lon="12.641767377189494"><ele>343.0</ele><time>2026-04-25T07:59:45.999Z</time></trkpt><trkpt lat="43.85476659268093" lon="12.641672207156262"><ele>343.0</ele><time>2026-04-25T07:59:46.999Z</time></trkpt><trkpt lat="43.854665932049535" lon="12.641600044897695"><ele>343.0</ele><time>2026-04-25T07:59:47.999Z</time></trkpt><trkpt lat="43.85458269620485" lon="12.64150833366204"><ele>343.0</ele><time>2026-04-25T07:59:48.999Z</time></trkpt><trkpt lat="43.85452104771623" lon="12.641364549623756"><ele>343.0</ele><time>2026-04-25T07:59:49.999Z</time></trkpt><trkpt lat="43.85451399263458" lon="12.641181905034138"><ele>346.0</ele><time>2026-04-25T07:59:50.999Z</time></trkpt><trkpt lat="43.85449583277093" lon="12.640994112610654"><ele>349.0</ele><time>2026-04-25T07:59:51.999Z</time></trkpt><trkpt lat="43.85452216866403" lon="12.640817233410704"><ele>352.0</ele><time>2026-04-25T07:59:52.999Z</time></trkpt><trkpt lat="43.85454761020824" lon="12.64066174242402"><ele>355.0</ele><time>2026-04-25T07:59:53.999Z</time></trkpt><trkpt lat="43.85454755509183" lon="12.640493445792535"><ele>355.0</ele><time>2026-04-25T07:59:54.999Z</time></trkpt><trkpt lat="43.854506079940144" lon="12.640321498102598"><ele>355.0</ele><time>2026-04-25T07:59:55.999Z</time></trkpt><trkpt lat="43.85443083412195" lon="12.64016254723054"><ele>355.0</ele><time>2026-04-25T07:59:56.999Z</time></trkpt><trkpt lat="43.854333217844605" lon="12.640019676079833"><ele>355.0</ele><time>2026-04-25T07:59:57.999Z</time></trkpt><trkpt lat="43.85422914969688" lon="12.639880150497907"><ele>350.5</ele><time>2026-04-25T07:59:58.999Z</time></trkpt><trkpt lat="43.85412249294042" lon="12.639736522107372"><ele>346.0</ele><time>2026-04-25T07:59:59.999Z</time></trkpt><trkpt lat="43.854047973075026" lon="12.639567101224651"><ele>341.5</ele><time>2026-04-25T08:00:00.999Z</time></trkpt><trkpt lat="43.8539678028139" lon="12.639394869601668"><ele>337.0</ele><time>2026-04-25T08:00:01.999Z</time></trkpt><trkpt lat="43.85388236755409" lon="12.639245542755038"><ele>337.0</ele><time>2026-04-25T08:00:02.999Z</time></trkpt><trkpt lat="43.853813302548105" lon="12.63908770111012"><ele>337.0</ele><time>2026-04-25T08:00:03.999Z</time></trkpt><trkpt lat="43.853740698125385" lon="12.638940305373973"><ele>337.0</ele><time>2026-04-25T08:00:04.999Z</time></trkpt><trkpt lat="43.85367656920539" lon="12.638801740738138"><ele>337.0</ele><time>2026-04-25T08:00:05.999Z</time></trkpt><trkpt lat="43.85363688157056" lon="12.638665951823121"><ele>334.6</ele><time>2026-04-25T08:00:06.999Z</time></trkpt><trkpt lat="43.85362364742222" lon="12.638542170565875"><ele>332.20000000000005</ele><time>2026-04-25T08:00:07.999Z</time></trkpt><trkpt lat="43.853648088176705" lon="12.638442572375865"><ele>329.8</ele><time>2026-04-25T08:00:08.999Z</time></trkpt><trkpt lat="43.85370915954101" lon="12.63836443097067"><ele>327.4</ele><time>2026-04-25T08:00:09.999Z</time></trkpt><trkpt lat="43.8538010273623" lon="12.638308554150342"><ele>325.0</ele><time>2026-04-25T08:00:10.999Z</time></trkpt><trkpt lat="43.85392186047862" lon="12.638284937402425"><ele>325.0</ele><time>2026-04-25T08:00:11.999Z</time></trkpt><trkpt lat="43.85405354890997" lon="12.638294272212432"><ele>325.0</ele><time>2026-04-25T08:00:12.999Z</time></trkpt><trkpt lat="43.85418885541778" lon="12.638336920702274"><ele>325.0</ele><time>2026-04-25T08:00:13.999Z</time></trkpt><trkpt lat="43.85431844608882" lon="12.638398268082296"><ele>325.0</ele><time>2026-04-25T08:00:14.999Z</time></trkpt><trkpt lat="43.85443677059208" lon="12.638458664399787"><ele>327.25</ele><time>2026-04-25T08:00:15.999Z</time></trkpt><trkpt lat="43.854552819098544" lon="12.63850184788835"><ele>329.5</ele><time>2026-04-25T08:00:16.999Z</time></trkpt><trkpt lat="43.85466496327697" lon="12.63849014744922"><ele>331.75</ele><time>2026-04-25T08:00:17.999Z</time></trkpt><trkpt lat="43.85476229976589" lon="12.638401806952908"><ele>334.0</ele><time>2026-04-25T08:00:18.999Z</time></trkpt><trkpt lat="43.85483007511438" lon="12.638259509947995"><ele>334.0</ele><time>2026-04-25T08:00:19.999Z</time></trkpt><trkpt lat="43.8548806244099" lon="12.638087230902547"><ele>334.0</ele><time>2026-04-25T08:00:20.999Z</time></trkpt><trkpt lat="43.85493047162586" lon="12.637901752889842"><ele>334.0</ele><time>2026-04-25T08:00:21.999Z</time></trkpt><trkpt lat="43.85499154572084" lon="12.637711970127015"><ele>334.0</ele><time>2026-04-25T08:00:22.999Z</time></trkpt><trkpt lat="43.855059031901455" lon="12.637516446537232"><ele>334.75</ele><time>2026-04-25T08:00:24Z</time></trkpt><trkpt lat="43.85513015382109" lon="12.637318353924528"><ele>335.5</ele><time>2026-04-25T08:00:25Z</time></trkpt><trkpt lat="43.85519512410723" lon="12.637139553358464"><ele>336.25</ele><time>2026-04-25T08:00:26Z</time></trkpt><trkpt lat="43.85525073212258" lon="12.636960630142939"><ele>337.0</ele><time>2026-04-25T08:00:27Z</time></trkpt><trkpt lat="43.8552728163686" lon="12.636757436444663"><ele>335.0</ele><time>2026-04-25T08:00:28Z</time></trkpt><trkpt lat="43.85524956146721" lon="12.636544530454044"><ele>333.0</ele><time>2026-04-25T08:00:29Z</time></trkpt><trkpt lat="43.85520928219884" lon="12.636326287563492"><ele>331.0</ele><time>2026-04-25T08:00:30Z</time></trkpt><trkpt lat="43.8551199508032" lon="12.6361509391706"><ele>326.0</ele><time>2026-04-25T08:00:31Z</time></trkpt><trkpt lat="43.8550417893669" lon="12.635980614565492"><ele>321.0</ele><time>2026-04-25T08:00:32Z</time></trkpt><trkpt lat="43.85495563929015" lon="12.635829519586094"><ele>316.0</ele><time>2026-04-25T08:00:33Z</time></trkpt><trkpt lat="43.85486047493439" lon="12.63569556932131"><ele>311.0</ele><time>2026-04-25T08:00:34Z</time></trkpt><trkpt lat="43.85479204289542" lon="12.63554200582078"><ele>311.0</ele><time>2026-04-25T08:00:35Z</time></trkpt><trkpt lat="43.854732384090966" lon="12.635379149805823"><ele>311.0</ele><time>2026-04-25T08:00:36Z</time></trkpt><trkpt lat="43.85468039336526" lon="12.635217356775616"><ele>311.0</ele><time>2026-04-25T08:00:37Z</time></trkpt><trkpt lat="43.85465023229089" lon="12.635042617508699"><ele>311.0</ele><time>2026-04-25T08:00:38Z</time></trkpt><trkpt lat="43.85460238362831" lon="12.634883509689343"><ele>311.25</ele><time>2026-04-25T08:00:39Z</time></trkpt><trkpt lat="43.8545592809783" lon="12.634716461243483"><ele>311.5</ele><time>2026-04-25T08:00:40Z</time></trkpt><trkpt lat="43.854522956457146" lon="12.6345235887011"><ele>311.75</ele><time>2026-04-25T08:00:41Z</time></trkpt><trkpt lat="43.85449704268121" lon="12.634320079507084"><ele>312.0</ele><time>2026-04-25T08:00:42Z</time></trkpt><trkpt lat="43.854477159646095" lon="12.63412309022578"><ele>310.0</ele><time>2026-04-25T08:00:43Z</time></trkpt><trkpt lat="43.85446242056495" lon="12.633949987018894"><ele>308.0</ele><time>2026-04-25T08:00:44Z</time></trkpt><trkpt lat="43.85445945704284" lon="12.633812600933444"><ele>306.0</ele><time>2026-04-25T08:00:45Z</time></trkpt><trkpt lat="43.854474015224156" lon="12.63370520772276"><ele>304.0</ele><time>2026-04-25T08:00:46Z</time></trkpt><trkpt lat="43.85455112800217" lon="12.633644054163835"><ele>302.0</ele><time>2026-04-25T08:00:47Z</time></trkpt><trkpt lat="43.85464867249392" lon="12.633671332725363"><ele>302.0</ele><time>2026-04-25T08:00:48Z</time></trkpt><trkpt lat="43.85472999503029" lon="12.633670978495665"><ele>302.0</ele><time>2026-04-25T08:00:49Z</time></trkpt><trkpt lat="43.85479083220921" lon="12.633641392805867"><ele>302.0</ele><time>2026-04-25T08:00:50Z</time></trkpt><trkpt lat="43.85482168143627" lon="12.633463100864535"><ele>302.0</ele><time>2026-04-25T08:00:52Z</time></trkpt><trkpt lat="43.85471170446095" lon="12.63339145471405"><ele>302.0</ele><time>2026-04-25T08:00:53Z</time></trkpt><trkpt lat="43.85461221523192" lon="12.633343438382925"><ele>298.75</ele><time>2026-04-25T08:00:53.999Z</time></trkpt><trkpt lat="43.85451237541522" lon="12.633268562055681"><ele>295.5</ele><time>2026-04-25T08:00:54.999Z</time></trkpt><trkpt lat="43.85440359787779" lon="12.633212698056244"><ele>292.25</ele><time>2026-04-25T08:00:55.999Z</time></trkpt><trkpt lat="43.85428856557651" lon="12.633164272476673"><ele>289.0</ele><time>2026-04-25T08:00:56.999Z</time></trkpt><trkpt lat="43.85416080442552" lon="12.633132263275227"><ele>288.2</ele><time>2026-04-25T08:00:57.999Z</time></trkpt><trkpt lat="43.85405498720819" lon="12.633107425712721"><ele>287.4</ele><time>2026-04-25T08:00:58.999Z</time></trkpt><trkpt lat="43.853961002360826" lon="12.633122901832708"><ele>286.6</ele><time>2026-04-25T08:00:59.999Z</time></trkpt><trkpt lat="43.85386935374167" lon="12.633185318781106"><ele>285.8</ele><time>2026-04-25T08:01:00.999Z</time></trkpt><trkpt lat="43.85380129601464" lon="12.633298449287343"><ele>285.0</ele><time>2026-04-25T08:01:01.999Z</time></trkpt><trkpt lat="43.85375294495285" lon="12.633424103326643"><ele>285.0</ele><time>2026-04-25T08:01:02.999Z</time></trkpt><trkpt lat="43.853708150526664" lon="12.633522435328544"><ele>285.0</ele><time>2026-04-25T08:01:03.999Z</time></trkpt><trkpt lat="43.853608949140835" lon="12.633513590657559"><ele>285.0</ele><time>2026-04-25T08:01:05.999Z</time></trkpt><trkpt lat="43.85357909200296" lon="12.633388665959824"><ele>285.0</ele><time>2026-04-25T08:01:06.999Z</time></trkpt><trkpt lat="43.853564515114876" lon="12.63324946612771"><ele>285.0</ele><time>2026-04-25T08:01:07.999Z</time></trkpt><trkpt lat="43.85353897169465" lon="12.633098893703687"><ele>285.0</ele><time>2026-04-25T08:01:08.999Z</time></trkpt><trkpt lat="43.85351696508448" lon="12.632962044410665"><ele>285.0</ele><time>2026-04-25T08:01:09.999Z</time></trkpt><trkpt lat="43.8534909341117" lon="12.632839128157839"><ele>285.0</ele><time>2026-04-25T08:01:10.999Z</time></trkpt><trkpt lat="43.85347527739011" lon="12.632738246540903"><ele>285.0</ele><time>2026-04-25T08:01:11.999Z</time></trkpt><trkpt lat="43.85347402631331" lon="12.632588259686589"><ele>285.0</ele><time>2026-04-25T08:01:13.999Z</time></trkpt><trkpt lat="43.853346021013884" lon="12.632660929342036"><ele>281.6</ele><time>2026-04-25T08:01:18.999Z</time></trkpt><trkpt lat="43.853309906082806" lon="12.632741533065778"><ele>278.2</ele><time>2026-04-25T08:01:19.999Z</time></trkpt><trkpt lat="43.85327586317127" lon="12.632836504865734"><ele>274.8</ele><time>2026-04-25T08:01:20.999Z</time></trkpt><trkpt lat="43.85323446178772" lon="12.63296021521132"><ele>271.4</ele><time>2026-04-25T08:01:21.999Z</time></trkpt><trkpt lat="43.853190477527804" lon="12.633087214095784"><ele>268.0</ele><time>2026-04-25T08:01:22.999Z</time></trkpt><trkpt lat="43.853159068807386" lon="12.633233998638572"><ele>268.0</ele><time>2026-04-25T08:01:23.999Z</time></trkpt><trkpt lat="43.853162057654544" lon="12.633389783823672"><ele>268.0</ele><time>2026-04-25T08:01:24.999Z</time></trkpt><trkpt lat="43.853177159160296" lon="12.63355915000477"><ele>268.0</ele><time>2026-04-25T08:01:25.999Z</time></trkpt><trkpt lat="43.853167650425036" lon="12.633727395684106"><ele>268.0</ele><time>2026-04-25T08:01:26.999Z</time></trkpt><trkpt lat="43.853143697612325" lon="12.63387248215975"><ele>268.0</ele><time>2026-04-25T08:01:27.999Z</time></trkpt><trkpt lat="43.85310384872901" lon="12.634021320043345"><ele>268.0</ele><time>2026-04-25T08:01:28.999Z</time></trkpt><trkpt lat="43.8530692696676" lon="12.63418874571442"><ele>268.0</ele><time>2026-04-25T08:01:29.999Z</time></trkpt><trkpt lat="43.85304324289762" lon="12.63436671142312"><ele>268.0</ele><time>2026-04-25T08:01:30.999Z</time></trkpt><trkpt lat="43.853029106852425" lon="12.634522242070437"><ele>268.0</ele><time>2026-04-25T08:01:31.999Z</time></trkpt><trkpt lat="43.85303883050374" lon="12.634660224809705"><ele>268.0</ele><time>2026-04-25T08:01:32.999Z</time></trkpt><trkpt lat="43.85303191239749" lon="12.634764930767084"><ele>268.0</ele><time>2026-04-25T08:01:33.999Z</time></trkpt><trkpt lat="43.85300406993853" lon="12.634860189441461"><ele>268.0</ele><time>2026-04-25T08:01:35.999Z</time></trkpt><trkpt lat="43.85288265916798" lon="12.63479619909241"><ele>268.0</ele><time>2026-04-25T08:01:37.999Z</time></trkpt><trkpt lat="43.852791696473446" lon="12.634800496058428"><ele>268.0</ele><time>2026-04-25T08:01:38.999Z</time></trkpt><trkpt lat="43.852673314576684" lon="12.634811860214912"><ele>268.0</ele><time>2026-04-25T08:01:39.999Z</time></trkpt><trkpt lat="43.85258191377493" lon="12.634882490408492"><ele>268.0</ele><time>2026-04-25T08:01:40.999Z</time></trkpt><trkpt lat="43.85250039411883" lon="12.634874837394099"><ele>268.0</ele><time>2026-04-25T08:01:41.999Z</time></trkpt><trkpt lat="43.85241687742169" lon="12.634868281054027"><ele>268.0</ele><time>2026-04-25T08:01:42.999Z</time></trkpt><trkpt lat="43.85232330095331" lon="12.634864591516855"><ele>266.16666666666663</ele><time>2026-04-25T08:01:43.999Z</time></trkpt><trkpt lat="43.85222908102491" lon="12.634878240503602"><ele>264.3333333333333</ele><time>2026-04-25T08:01:44.999Z</time></trkpt><trkpt lat="43.85213510279785" lon="12.634908270313003"><ele>262.5</ele><time>2026-04-25T08:01:45.999Z</time></trkpt><trkpt lat="43.85205083767875" lon="12.634945817651804"><ele>260.6666666666667</ele><time>2026-04-25T08:01:46.999Z</time></trkpt><trkpt lat="43.85198850407135" lon="12.634977717287912"><ele>258.83333333333337</ele><time>2026-04-25T08:01:47.999Z</time></trkpt><trkpt lat="43.851910653930396" lon="12.635056007001772"><ele>257.0</ele><time>2026-04-25T08:01:49.999Z</time></trkpt><trkpt lat="43.851791820198805" lon="12.635279700263723"><ele>254.0</ele><time>2026-04-25T08:01:50.999Z</time></trkpt><trkpt lat="43.85169840541933" lon="12.63528439147789"><ele>251.0</ele><time>2026-04-25T08:01:51.999Z</time></trkpt><trkpt lat="43.8516149567586" lon="12.635031807030657"><ele>248.0</ele><time>2026-04-25T08:01:52.999Z</time></trkpt><trkpt lat="43.85153090926572" lon="12.635017724034993"><ele>245.0</ele><time>2026-04-25T08:01:53.999Z</time></trkpt><trkpt lat="43.851439287518325" lon="12.63500237191063"><ele>245.00000000000003</ele><time>2026-04-25T08:01:54.999Z</time></trkpt><trkpt lat="43.85134534502166" lon="12.634986631036567"><ele>245.0</ele><time>2026-04-25T08:01:55.999Z</time></trkpt><trkpt lat="43.851260723516546" lon="12.63497245202415"><ele>245.0</ele><time>2026-04-25T08:01:56.999Z</time></trkpt><trkpt lat="43.85118725249479" lon="12.63496014136652"><ele>245.0</ele><time>2026-04-25T08:01:57.999Z</time></trkpt><trkpt lat="43.851120569642774" lon="12.634945327635567"><ele>245.00000000000003</ele><time>2026-04-25T08:01:58.999Z</time></trkpt><trkpt lat="43.85100579183741" lon="12.63490931346905"><ele>245.0</ele><time>2026-04-25T08:02:00.999Z</time></trkpt><trkpt lat="43.85095592066285" lon="12.634854779913246"><ele>242.16666666666669</ele><time>2026-04-25T08:02:01.999Z</time></trkpt><trkpt lat="43.85091930103403" lon="12.634770736128745"><ele>239.33333333333334</ele><time>2026-04-25T08:02:02.999Z</time></trkpt><trkpt lat="43.85086924980094" lon="12.634697340142807"><ele>236.5</ele><time>2026-04-25T08:02:03.999Z</time></trkpt><trkpt lat="43.850798365037434" lon="12.634647268341364"><ele>233.66666666666669</ele><time>2026-04-25T08:02:04.999Z</time></trkpt><trkpt lat="43.85069628595519" lon="12.634595444527584"><ele>230.83333333333334</ele><time>2026-04-25T08:02:06.999Z</time></trkpt><trkpt lat="43.85063328541874" lon="12.63452704598428"><ele>228.0</ele><time>2026-04-25T08:02:08.999Z</time></trkpt><trkpt lat="43.850652975189945" lon="12.634425968597395"><ele>227.0</ele><time>2026-04-25T08:02:09.999Z</time></trkpt><trkpt lat="43.85069653782562" lon="12.634308688497006"><ele>226.0</ele><time>2026-04-25T08:02:11.999Z</time></trkpt><trkpt lat="43.85070856422758" lon="12.634219721412892"><ele>225.0</ele><time>2026-04-25T08:02:12.999Z</time></trkpt><trkpt lat="43.8507063587118" lon="12.634106215588318"><ele>224.0</ele><time>2026-04-25T08:02:13.999Z</time></trkpt><trkpt lat="43.850686105841966" lon="12.633994718157538"><ele>223.0</ele><time>2026-04-25T08:02:14.999Z</time></trkpt><trkpt lat="43.85064091204467" lon="12.633902127483655"><ele>222.0</ele><time>2026-04-25T08:02:15.999Z</time></trkpt><trkpt lat="43.8505740307238" lon="12.633827317229455"><ele>222.0</ele><time>2026-04-25T08:02:16.999Z</time></trkpt><trkpt lat="43.85049828589559" lon="12.633770822424824"><ele>222.0</ele><time>2026-04-25T08:02:17.999Z</time></trkpt><trkpt lat="43.850416269951445" lon="12.633717708808692"><ele>222.0</ele><time>2026-04-25T08:02:18.999Z</time></trkpt><trkpt lat="43.85034734216043" lon="12.6336848951049"><ele>222.0</ele><time>2026-04-25T08:02:19.999Z</time></trkpt><trkpt lat="43.85026670833911" lon="12.633702353352128"><ele>222.0</ele><time>2026-04-25T08:02:21.999Z</time></trkpt><trkpt lat="43.85017094754048" lon="12.633697947383078"><ele>222.0</ele><time>2026-04-25T08:02:23.999Z</time></trkpt><trkpt lat="43.85005182259792" lon="12.633683739433211"><ele>218.39999999999998</ele><time>2026-04-25T08:02:25.999Z</time></trkpt><trkpt lat="43.84993597596944" lon="12.63364081042843"><ele>214.79999999999998</ele><time>2026-04-25T08:02:27.999Z</time></trkpt><trkpt lat="43.849866865150084" lon="12.633623713045306"><ele>211.2</ele><time>2026-04-25T08:02:28.999Z</time></trkpt><trkpt lat="43.8498001525113" lon="12.633625490824885"><ele>207.6</ele><time>2026-04-25T08:02:30Z</time></trkpt><trkpt lat="43.84970141359977" lon="12.63362965924199"><ele>204.0</ele><time>2026-04-25T08:02:32Z</time></trkpt><trkpt lat="43.849586930158935" lon="12.633612308137671"><ele>203.2</ele><time>2026-04-25T08:02:34Z</time></trkpt><trkpt lat="43.84946845331629" lon="12.63357767959929"><ele>202.39999999999998</ele><time>2026-04-25T08:02:36Z</time></trkpt><trkpt lat="43.84940076983726" lon="12.633477609769963"><ele>201.6</ele><time>2026-04-25T08:02:38Z</time></trkpt><trkpt lat="43.84936688738001" lon="12.633401936431799"><ele>200.8</ele><time>2026-04-25T08:02:39Z</time></trkpt><trkpt lat="43.849286605484416" lon="12.633272592499347"><ele>200.0</ele><time>2026-04-25T08:02:41Z</time></trkpt><trkpt lat="43.84922378567991" lon="12.633210323499451"><ele>197.83333333333334</ele><time>2026-04-25T08:02:42Z</time></trkpt><trkpt lat="43.84916251599868" lon="12.633149805727701"><ele>195.66666666666669</ele><time>2026-04-25T08:02:43Z</time></trkpt><trkpt lat="43.84910537993456" lon="12.633108206537282"><ele>193.5</ele><time>2026-04-25T08:02:44Z</time></trkpt><trkpt lat="43.84903722622817" lon="12.633001937649585"><ele>191.33333333333334</ele><time>2026-04-25T08:02:46Z</time></trkpt><trkpt lat="43.848990455890615" lon="12.632914234832235"><ele>189.16666666666669</ele><time>2026-04-25T08:02:47Z</time></trkpt><trkpt lat="43.848942504233925" lon="12.632830670015535"><ele>187.0</ele><time>2026-04-25T08:02:48Z</time></trkpt><trkpt lat="43.84891327548707" lon="12.632744774311293"><ele>186.39999999999998</ele><time>2026-04-25T08:02:49Z</time></trkpt><trkpt lat="43.848881065060816" lon="12.63258920553351"><ele>185.79999999999998</ele><time>2026-04-25T08:02:51Z</time></trkpt><trkpt lat="43.8488998851319" lon="12.632413583472973"><ele>185.2</ele><time>2026-04-25T08:02:53Z</time></trkpt><trkpt lat="43.84891222998703" lon="12.632317378717389"><ele>184.6</ele><time>2026-04-25T08:02:54Z</time></trkpt><trkpt lat="43.84893684196184" lon="12.632147636491714"><ele>184.0</ele><time>2026-04-25T08:02:56Z</time></trkpt><trkpt lat="43.84892141350988" lon="12.632054726071058"><ele>182.42857142857144</ele><time>2026-04-25T08:02:57Z</time></trkpt><trkpt lat="43.84888785605361" lon="12.631956311381865"><ele>180.85714285714283</ele><time>2026-04-25T08:02:58Z</time></trkpt><trkpt lat="43.84885332469362" lon="12.631861864507844"><ele>179.28571428571428</ele><time>2026-04-25T08:02:59Z</time></trkpt><trkpt lat="43.84881968686454" lon="12.631780438977518"><ele>177.71428571428572</ele><time>2026-04-25T08:03:00Z</time></trkpt><trkpt lat="43.8487835275394" lon="12.63169744606685"><ele>176.14285714285717</ele><time>2026-04-25T08:03:01Z</time></trkpt><trkpt lat="43.848735940179054" lon="12.631637061771452"><ele>174.57142857142856</ele><time>2026-04-25T08:03:02Z</time></trkpt><trkpt lat="43.848704162318434" lon="12.631556628490566"><ele>173.0</ele><time>2026-04-25T08:03:03Z</time></trkpt><trkpt lat="43.848671792844726" lon="12.631477928009952"><ele>173.0</ele><time>2026-04-25T08:03:04Z</time></trkpt><trkpt lat="43.84858911121117" lon="12.631360291023086"><ele>173.0</ele><time>2026-04-25T08:03:06Z</time></trkpt><trkpt lat="43.84846805772924" lon="12.63131555526406"><ele>173.0</ele><time>2026-04-25T08:03:08Z</time></trkpt><trkpt lat="43.84838813414706" lon="12.63131232006688"><ele>173.0</ele><time>2026-04-25T08:03:09Z</time></trkpt><trkpt lat="43.848284541708324" lon="12.631323889656139"><ele>173.0</ele><time>2026-04-25T08:03:10Z</time></trkpt><trkpt lat="43.84815691391398" lon="12.631362399329683"><ele>172.4</ele><time>2026-04-25T08:03:10.999Z</time></trkpt><trkpt lat="43.84803335384825" lon="12.631419274712655"><ele>171.8</ele><time>2026-04-25T08:03:11.999Z</time></trkpt><trkpt lat="43.84793475848169" lon="12.631465509433456"><ele>171.2</ele><time>2026-04-25T08:03:12.999Z</time></trkpt><trkpt lat="43.84784724089725" lon="12.631507362023374"><ele>170.6</ele><time>2026-04-25T08:03:13.999Z</time></trkpt><trkpt lat="43.84775472432861" lon="12.631545566132154"><ele>170.0</ele><time>2026-04-25T08:03:14.999Z</time></trkpt><trkpt lat="43.84764700374348" lon="12.63156576787238"><ele>168.0</ele><time>2026-04-25T08:03:15.999Z</time></trkpt><trkpt lat="43.84753772664474" lon="12.631575905279373"><ele>166.0</ele><time>2026-04-25T08:03:16.999Z</time></trkpt><trkpt lat="43.84746064227756" lon="12.631558259026791"><ele>164.0</ele><time>2026-04-25T08:03:17.999Z</time></trkpt><trkpt lat="43.847363716623065" lon="12.631477503535182"><ele>162.0</ele><time>2026-04-25T08:03:19.999Z</time></trkpt><trkpt lat="43.847287383560165" lon="12.63140142551655"><ele>160.0</ele><time>2026-04-25T08:03:21.999Z</time></trkpt><trkpt lat="43.84720668051682" lon="12.63132983423188"><ele>160.0</ele><time>2026-04-25T08:03:22.999Z</time></trkpt><trkpt lat="43.84712970132074" lon="12.631282479648554"><ele>160.0</ele><time>2026-04-25T08:03:23.999Z</time></trkpt><trkpt lat="43.84704810825073" lon="12.631235775413009"><ele>160.0</ele><time>2026-04-25T08:03:24.999Z</time></trkpt><trkpt lat="43.84697262501596" lon="12.631207749229567"><ele>160.0</ele><time>2026-04-25T08:03:25.999Z</time></trkpt><trkpt lat="43.84688366800012" lon="12.631195922621545"><ele>160.0</ele><time>2026-04-25T08:03:26.999Z</time></trkpt><trkpt lat="43.8467966495623" lon="12.631186654993924"><ele>160.0</ele><time>2026-04-25T08:03:27.999Z</time></trkpt><trkpt lat="43.846704347387224" lon="12.631163879607808"><ele>157.0</ele><time>2026-04-25T08:03:28.999Z</time></trkpt><trkpt lat="43.84660180160314" lon="12.631127542734365"><ele>154.0</ele><time>2026-04-25T08:03:29.999Z</time></trkpt><trkpt lat="43.84649586973604" lon="12.631087369788695"><ele>151.0</ele><time>2026-04-25T08:03:30.999Z</time></trkpt><trkpt lat="43.84639581915999" lon="12.631063937444972"><ele>148.0</ele><time>2026-04-25T08:03:31.999Z</time></trkpt><trkpt lat="43.84627618122972" lon="12.631061275630959"><ele>145.0</ele><time>2026-04-25T08:03:32.999Z</time></trkpt><trkpt lat="43.846182249331264" lon="12.631059939358293"><ele>145.0</ele><time>2026-04-25T08:03:33.999Z</time></trkpt><trkpt lat="43.846085218401015" lon="12.631089244622505"><ele>145.0</ele><time>2026-04-25T08:03:34.999Z</time></trkpt><trkpt lat="43.84597677168541" lon="12.631134518569674"><ele>145.0</ele><time>2026-04-25T08:03:35.999Z</time></trkpt><trkpt lat="43.84586052898634" lon="12.631176472392427"><ele>145.0</ele><time>2026-04-25T08:03:36.999Z</time></trkpt><trkpt lat="43.84576802143242" lon="12.63119187149645"><ele>145.0</ele><time>2026-04-25T08:03:37.999Z</time></trkpt><trkpt lat="43.84569385970515" lon="12.63118132854103"><ele>144.2</ele><time>2026-04-25T08:03:38.999Z</time></trkpt><trkpt lat="43.84560038274806" lon="12.631165492176342"><ele>143.4</ele><time>2026-04-25T08:03:39.999Z</time></trkpt><trkpt lat="43.84549714741203" lon="12.6311452374966"><ele>142.6</ele><time>2026-04-25T08:03:40.999Z</time></trkpt><trkpt lat="43.84541214348416" lon="12.631133335045206"><ele>141.8</ele><time>2026-04-25T08:03:41.999Z</time></trkpt><trkpt lat="43.845325821641985" lon="12.631140883165191"><ele>141.0</ele><time>2026-04-25T08:03:42.999Z</time></trkpt><trkpt lat="43.84523022174585" lon="12.63117085093919"><ele>141.0</ele><time>2026-04-25T08:03:43.999Z</time></trkpt><trkpt lat="43.84512945943718" lon="12.631230598679707"><ele>141.0</ele><time>2026-04-25T08:03:44.999Z</time></trkpt><trkpt lat="43.84502947225955" lon="12.63129230819438"><ele>141.0</ele><time>2026-04-25T08:03:45.999Z</time></trkpt><trkpt lat="43.844920313598195" lon="12.631352461227666"><ele>141.0</ele><time>2026-04-25T08:03:46.999Z</time></trkpt><trkpt lat="43.844827410550465" lon="12.631401542041068"><ele>141.0</ele><time>2026-04-25T08:03:47.999Z</time></trkpt><trkpt lat="43.84475753753654" lon="12.631460704939336"><ele>139.2</ele><time>2026-04-25T08:03:49.999Z</time></trkpt><trkpt lat="43.84468396066669" lon="12.631590880766344"><ele>137.39999999999998</ele><time>2026-04-25T08:03:51.999Z</time></trkpt><trkpt lat="43.84461586083853" lon="12.631669622802795"><ele>135.6</ele><time>2026-04-25T08:03:52.999Z</time></trkpt><trkpt lat="43.84457823379351" lon="12.631756964482136"><ele>133.79999999999998</ele><time>2026-04-25T08:03:53.999Z</time></trkpt><trkpt lat="43.84456231860158" lon="12.631883679838023"><ele>132.0</ele><time>2026-04-25T08:03:54.999Z</time></trkpt><trkpt lat="43.84455186602942" lon="12.63204164687775"><ele>132.0</ele><time>2026-04-25T08:03:55.999Z</time></trkpt><trkpt lat="43.844537661386966" lon="12.632183761855377"><ele>132.0</ele><time>2026-04-25T08:03:56.999Z</time></trkpt><trkpt lat="43.84450444732569" lon="12.63227121141432"><ele>132.0</ele><time>2026-04-25T08:03:57.999Z</time></trkpt><trkpt lat="43.84444555891382" lon="12.63236840227565"><ele>132.0</ele><time>2026-04-25T08:03:58.999Z</time></trkpt><trkpt lat="43.84438339117205" lon="12.63250447320806"><ele>132.0</ele><time>2026-04-25T08:03:59.999Z</time></trkpt><trkpt lat="43.84433121752273" lon="12.632645685196497"><ele>131.2</ele><time>2026-04-25T08:04:00.999Z</time></trkpt><trkpt lat="43.844270500397315" lon="12.632755756873987"><ele>130.39999999999998</ele><time>2026-04-25T08:04:01.999Z</time></trkpt><trkpt lat="43.84422583984893" lon="12.63285592563702"><ele>129.60000000000002</ele><time>2026-04-25T08:04:02.999Z</time></trkpt><trkpt lat="43.844195273544955" lon="12.632980789171356"><ele>128.8</ele><time>2026-04-25T08:04:03.999Z</time></trkpt><trkpt lat="43.84416533751082" lon="12.6331054479949"><ele>128.0</ele><time>2026-04-25T08:04:04.999Z</time></trkpt><trkpt lat="43.844139867099734" lon="12.633213898156622"><ele>127.66666666666666</ele><time>2026-04-25T08:04:05.999Z</time></trkpt><trkpt lat="43.84410206445063" lon="12.633289478607464"><ele>127.33333333333333</ele><time>2026-04-25T08:04:06.999Z</time></trkpt><trkpt lat="43.844035941993795" lon="12.633350988299297"><ele>127.0</ele><time>2026-04-25T08:04:07.999Z</time></trkpt><trkpt lat="43.8439498927444" lon="12.63341722377194"><ele>126.66666666666666</ele><time>2026-04-25T08:04:08.999Z</time></trkpt><trkpt lat="43.843849813428726" lon="12.633483333247435"><ele>126.33333333333333</ele><time>2026-04-25T08:04:09.999Z</time></trkpt><trkpt lat="43.84377061161009" lon="12.633495977151362"><ele>126.0</ele><time>2026-04-25T08:04:10.999Z</time></trkpt><trkpt lat="43.84365501942306" lon="12.633459225830478"><ele>126.0</ele><time>2026-04-25T08:04:11.999Z</time></trkpt><trkpt lat="43.84353385123205" lon="12.633473544359033"><ele>126.0</ele><time>2026-04-25T08:04:12.999Z</time></trkpt><trkpt lat="43.84342727532013" lon="12.633523586137658"><ele>126.0</ele><time>2026-04-25T08:04:13.999Z</time></trkpt><trkpt lat="43.84331352109275" lon="12.633612148474706"><ele>126.0</ele><time>2026-04-25T08:04:14.999Z</time></trkpt><trkpt lat="43.84321052680488" lon="12.633676263410962"><ele>125.8</ele><time>2026-04-25T08:04:15.999Z</time></trkpt><trkpt lat="43.84311727141368" lon="12.633681673329997"><ele>125.6</ele><time>2026-04-25T08:04:16.999Z</time></trkpt><trkpt lat="43.843018866015576" lon="12.633742888640498"><ele>125.4</ele><time>2026-04-25T08:04:18.999Z</time></trkpt><trkpt lat="43.84296042719081" lon="12.633826974781519"><ele>125.2</ele><time>2026-04-25T08:04:19.999Z</time></trkpt><trkpt lat="43.84288102440938" lon="12.633911653509243"><ele>125.0</ele><time>2026-04-25T08:04:20.999Z</time></trkpt><trkpt lat="43.84279227937505" lon="12.633939391655602"><ele>124.99999999999999</ele><time>2026-04-25T08:04:21.999Z</time></trkpt><trkpt lat="43.84270490051045" lon="12.63393897786652"><ele>125.0</ele><time>2026-04-25T08:04:22.999Z</time></trkpt><trkpt lat="43.842636321814624" lon="12.633936351809922"><ele>125.0</ele><time>2026-04-25T08:04:23.999Z</time></trkpt><trkpt lat="43.842551338512884" lon="12.633831631863258"><ele>125.0</ele><time>2026-04-25T08:04:25.999Z</time></trkpt><trkpt lat="43.842470617540265" lon="12.633784751221839"><ele>124.99999999999999</ele><time>2026-04-25T08:04:26.999Z</time></trkpt><trkpt lat="43.842396925498015" lon="12.633795379107289"><ele>125.0</ele><time>2026-04-25T08:04:27.999Z</time></trkpt><trkpt lat="43.842294484075545" lon="12.633854761852614"><ele>124.66666666666666</ele><time>2026-04-25T08:04:29.999Z</time></trkpt><trkpt lat="43.842230544889574" lon="12.63388190752441"><ele>124.33333333333333</ele><time>2026-04-25T08:04:30.999Z</time></trkpt><trkpt lat="43.84214882933947" lon="12.63392796172738"><ele>124.0</ele><time>2026-04-25T08:04:31.999Z</time></trkpt><trkpt lat="43.842099783595565" lon="12.634000045266326"><ele>123.66666666666666</ele><time>2026-04-25T08:04:32.999Z</time></trkpt><trkpt lat="43.84207924982612" lon="12.63408941244747"><ele>123.33333333333333</ele><time>2026-04-25T08:04:33.999Z</time></trkpt><trkpt lat="43.842071674750315" lon="12.634210956247058"><ele>123.0</ele><time>2026-04-25T08:04:34.999Z</time></trkpt><trkpt lat="43.842057723825675" lon="12.634354543236492"><ele>123.0</ele><time>2026-04-25T08:04:36Z</time></trkpt><trkpt lat="43.84204549786651" lon="12.63449350314876"><ele>123.00000000000001</ele><time>2026-04-25T08:04:37Z</time></trkpt><trkpt lat="43.842022522657395" lon="12.634594380366575"><ele>123.00000000000001</ele><time>2026-04-25T08:04:38Z</time></trkpt><trkpt lat="43.84198128201952" lon="12.634678926069343"><ele>123.0</ele><time>2026-04-25T08:04:39Z</time></trkpt><trkpt lat="43.8419097953065" lon="12.634753020709317"><ele>123.0</ele><time>2026-04-25T08:04:40Z</time></trkpt><trkpt lat="43.84181246454565" lon="12.63484360725787"><ele>123.0</ele><time>2026-04-25T08:04:41Z</time></trkpt><trkpt lat="43.84171633914594" lon="12.634945111092499"><ele>123.0</ele><time>2026-04-25T08:04:42Z</time></trkpt><trkpt lat="43.8416224560235" lon="12.63507224764809"><ele>123.0</ele><time>2026-04-25T08:04:43Z</time></trkpt><trkpt lat="43.84153164179305" lon="12.635230160928828"><ele>123.0</ele><time>2026-04-25T08:04:44Z</time></trkpt><trkpt lat="43.84143683450473" lon="12.635375263423809"><ele>122.66666666666667</ele><time>2026-04-25T08:04:45Z</time></trkpt><trkpt lat="43.84135875646761" lon="12.635492929668512"><ele>122.33333333333334</ele><time>2026-04-25T08:04:46Z</time></trkpt><trkpt lat="43.84130035187129" lon="12.635582742590277"><ele>122.0</ele><time>2026-04-25T08:04:47Z</time></trkpt><trkpt lat="43.84124757944599" lon="12.635639488390627"><ele>121.66666666666667</ele><time>2026-04-25T08:04:48Z</time></trkpt><trkpt lat="43.84118187767519" lon="12.635649021490115"><ele>121.33333333333334</ele><time>2026-04-25T08:04:49Z</time></trkpt><trkpt lat="43.841106208935344" lon="12.635657219382734"><ele>121.0</ele><time>2026-04-25T08:04:50Z</time></trkpt><trkpt lat="43.841031759581035" lon="12.635695192893714"><ele>121.50000000000001</ele><time>2026-04-25T08:04:51Z</time></trkpt><trkpt lat="43.84093910653404" lon="12.6357547584595"><ele>122.0</ele><time>2026-04-25T08:04:52Z</time></trkpt><trkpt lat="43.84083925274257" lon="12.635830831939987"><ele>122.5</ele><time>2026-04-25T08:04:53Z</time></trkpt><trkpt lat="43.84077938821516" lon="12.63591552551383"><ele>123.0</ele><time>2026-04-25T08:04:54Z</time></trkpt><trkpt lat="43.84072670424399" lon="12.635980017886501"><ele>123.50000000000001</ele><time>2026-04-25T08:04:55Z</time></trkpt><trkpt lat="43.84065977283036" lon="12.636020926183072"><ele>124.0</ele><time>2026-04-25T08:05:04Z</time></trkpt><trkpt lat="43.84060354835992" lon="12.636091581637677"><ele>123.2</ele><time>2026-04-25T08:05:29Z</time></trkpt><trkpt lat="43.84058823070158" lon="12.636187166334636"><ele>122.4</ele><time>2026-04-25T08:05:32Z</time></trkpt><trkpt lat="43.84066706826069" lon="12.63631365365454"><ele>121.6</ele><time>2026-04-25T08:05:34Z</time></trkpt><trkpt lat="43.84070301520391" lon="12.636423611083156"><ele>120.8</ele><time>2026-04-25T08:05:35.999Z</time></trkpt><trkpt lat="43.84073811657562" lon="12.636497660716106"><ele>120.0</ele><time>2026-04-25T08:05:37.999Z</time></trkpt><trkpt lat="43.84076249912529" lon="12.636751518838299"><ele>120.0</ele><time>2026-04-25T08:06:25.999Z</time></trkpt><trkpt lat="43.840741618892466" lon="12.636856894399166"><ele>120.0</ele><time>2026-04-25T08:06:26.999Z</time></trkpt><trkpt lat="43.84071338064097" lon="12.63698021464369"><ele>120.0</ele><time>2026-04-25T08:06:27.999Z</time></trkpt><trkpt lat="43.84068642400218" lon="12.637111730361768"><ele>120.0</ele><time>2026-04-25T08:06:28.999Z</time></trkpt><trkpt lat="43.84066758756067" lon="12.637239903148881"><ele>120.0</ele><time>2026-04-25T08:06:29.999Z</time></trkpt><trkpt lat="43.84064902825613" lon="12.637361356986734"><ele>120.0</ele><time>2026-04-25T08:06:30.999Z</time></trkpt><trkpt lat="43.84061538633581" lon="12.637479940938167"><ele>120.0</ele><time>2026-04-25T08:06:31.999Z</time></trkpt><trkpt lat="43.84055828404566" lon="12.637588460059145"><ele>120.0</ele><time>2026-04-25T08:06:32.999Z</time></trkpt><trkpt lat="43.840482407846544" lon="12.637683958019176"><ele>120.0</ele><time>2026-04-25T08:06:33.999Z</time></trkpt><trkpt lat="43.84039805442146" lon="12.637778906165295"><ele>120.0</ele><time>2026-04-25T08:06:34.999Z</time></trkpt><trkpt lat="43.84032953392709" lon="12.6378913295271"><ele>120.0</ele><time>2026-04-25T08:06:35.999Z</time></trkpt><trkpt lat="43.84029112227488" lon="12.638032593220721"><ele>120.0</ele><time>2026-04-25T08:06:36.999Z</time></trkpt><trkpt lat="43.84027890886733" lon="12.638173736481068"><ele>120.0</ele><time>2026-04-25T08:06:37.999Z</time></trkpt><trkpt lat="43.84029387262456" lon="12.638310454100452"><ele>120.0</ele><time>2026-04-25T08:06:38.999Z</time></trkpt><trkpt lat="43.84032015126178" lon="12.638447977313685"><ele>120.0</ele><time>2026-04-25T08:06:39.999Z</time></trkpt><trkpt lat="43.84034252863249" lon="12.638592818077209"><ele>120.0</ele><time>2026-04-25T08:06:40.999Z</time></trkpt><trkpt lat="43.84035390886142" lon="12.638748566426354"><ele>120.0</ele><time>2026-04-25T08:06:42Z</time></trkpt><trkpt lat="43.84035850243582" lon="12.638912372588221"><ele>120.0</ele><time>2026-04-25T08:06:43Z</time></trkpt><trkpt lat="43.84036749902702" lon="12.639075137609645"><ele>120.0</ele><time>2026-04-25T08:06:44Z</time></trkpt><trkpt lat="43.84040674599954" lon="12.639227034719028"><ele>120.0</ele><time>2026-04-25T08:06:45Z</time></trkpt><trkpt lat="43.8404704059814" lon="12.63937489511746"><ele>120.0</ele><time>2026-04-25T08:06:46Z</time></trkpt><trkpt lat="43.84055631877884" lon="12.639513175775225"><ele>120.0</ele><time>2026-04-25T08:06:47Z</time></trkpt><trkpt lat="43.84065978621844" lon="12.639660286828374"><ele>120.0</ele><time>2026-04-25T08:06:48Z</time></trkpt><trkpt lat="43.840765529599466" lon="12.639811375083767"><ele>120.25</ele><time>2026-04-25T08:06:49Z</time></trkpt><trkpt lat="43.840865119262695" lon="12.639953696815164"><ele>120.5</ele><time>2026-04-25T08:06:50Z</time></trkpt><trkpt lat="43.84096801435347" lon="12.640093249364764"><ele>120.75</ele><time>2026-04-25T08:06:51Z</time></trkpt><trkpt lat="43.84106445763698" lon="12.64024389493645"><ele>121.0</ele><time>2026-04-25T08:06:52Z</time></trkpt><trkpt lat="43.84116131989775" lon="12.640394610383062"><ele>120.4</ele><time>2026-04-25T08:06:53Z</time></trkpt><trkpt lat="43.84124915768086" lon="12.640521631789875"><ele>119.8</ele><time>2026-04-25T08:06:54Z</time></trkpt><trkpt lat="43.84132736643538" lon="12.640644368744516"><ele>119.20000000000002</ele><time>2026-04-25T08:06:55Z</time></trkpt><trkpt lat="43.84139143270604" lon="12.64073985513635"><ele>118.60000000000001</ele><time>2026-04-25T08:06:56Z</time></trkpt><trkpt lat="43.841455267293234" lon="12.640834852719355"><ele>118.0</ele><time>2026-04-25T08:06:57Z</time></trkpt><trkpt lat="43.841500191435216" lon="12.64095192930358"><ele>118.0</ele><time>2026-04-25T08:06:58Z</time></trkpt><trkpt lat="43.84156912998805" lon="12.641035225258083"><ele>118.00000000000001</ele><time>2026-04-25T08:06:59Z</time></trkpt><trkpt lat="43.841543692127175" lon="12.641230238585228"><ele>118.00000000000001</ele><time>2026-04-25T08:07:00Z</time></trkpt><trkpt lat="43.841537775028605" lon="12.641380766650599"><ele>118.0</ele><time>2026-04-25T08:07:01Z</time></trkpt><trkpt lat="43.84150770348523" lon="12.641508564710357"><ele>118.0</ele><time>2026-04-25T08:07:02Z</time></trkpt><trkpt lat="43.84145239102854" lon="12.641621112759937"><ele>118.4</ele><time>2026-04-25T08:07:03Z</time></trkpt><trkpt lat="43.84139499592806" lon="12.641733810084185"><ele>118.80000000000001</ele><time>2026-04-25T08:07:04Z</time></trkpt><trkpt lat="43.841350838162974" lon="12.64185912205803"><ele>119.2</ele><time>2026-04-25T08:07:05Z</time></trkpt><trkpt lat="43.84132914537112" lon="12.642000085852525"><ele>119.6</ele><time>2026-04-25T08:07:06Z</time></trkpt><trkpt lat="43.84131842499968" lon="12.64215037101284"><ele>120.0</ele><time>2026-04-25T08:07:07Z</time></trkpt><trkpt lat="43.84130057131195" lon="12.6423075969538"><ele>120.25</ele><time>2026-04-25T08:07:08Z</time></trkpt><trkpt lat="43.84126912197016" lon="12.642473734109377"><ele>120.5</ele><time>2026-04-25T08:07:09Z</time></trkpt><trkpt lat="43.84123140767639" lon="12.642646251109541"><ele>120.75</ele><time>2026-04-25T08:07:10Z</time></trkpt><trkpt lat="43.84118770421588" lon="12.642825596831393"><ele>121.0</ele><time>2026-04-25T08:07:11Z</time></trkpt><trkpt lat="43.84114208681694" lon="12.643010623279796"><ele>122.0</ele><time>2026-04-25T08:07:12Z</time></trkpt><trkpt lat="43.841094915461696" lon="12.64320286684021"><ele>123.0</ele><time>2026-04-25T08:07:13Z</time></trkpt><trkpt lat="43.84104665190901" lon="12.643399704462663"><ele>124.0</ele><time>2026-04-25T08:07:14Z</time></trkpt><trkpt lat="43.840997296574066" lon="12.643590172643586"><ele>125.0</ele><time>2026-04-25T08:07:15Z</time></trkpt><trkpt lat="43.84094369482305" lon="12.6437719715495"><ele>123.25</ele><time>2026-04-25T08:07:16Z</time></trkpt><trkpt lat="43.84089171806491" lon="12.64395718073684"><ele>121.5</ele><time>2026-04-25T08:07:17Z</time></trkpt><trkpt lat="43.84084428058577" lon="12.644141745516116"><ele>119.75</ele><time>2026-04-25T08:07:18Z</time></trkpt><trkpt lat="43.84080124959139" lon="12.644311210219078"><ele>118.0</ele><time>2026-04-25T08:07:19Z</time></trkpt><trkpt lat="43.84078553869883" lon="12.644480685820255"><ele>118.0</ele><time>2026-04-25T08:07:20Z</time></trkpt><trkpt lat="43.84079832284564" lon="12.644665535078436"><ele>118.0</ele><time>2026-04-25T08:07:21Z</time></trkpt><trkpt lat="43.84081033800502" lon="12.644840199560003"><ele>118.0</ele><time>2026-04-25T08:07:22Z</time></trkpt><trkpt lat="43.84078311134473" lon="12.645006548900888"><ele>118.0</ele><time>2026-04-25T08:07:23Z</time></trkpt><trkpt lat="43.84072916898495" lon="12.645154744644849"><ele>118.5</ele><time>2026-04-25T08:07:24Z</time></trkpt><trkpt lat="43.8406818492367" lon="12.64531219101971"><ele>119.0</ele><time>2026-04-25T08:07:25Z</time></trkpt><trkpt lat="43.84064418518792" lon="12.645486671051431"><ele>119.5</ele><time>2026-04-25T08:07:26Z</time></trkpt><trkpt lat="43.84060725868402" lon="12.645670099328967"><ele>120.0</ele><time>2026-04-25T08:07:27Z</time></trkpt><trkpt lat="43.840560490018056" lon="12.64584454251165"><ele>120.0</ele><time>2026-04-25T08:07:28Z</time></trkpt><trkpt lat="43.8404966025177" lon="12.64600247687846"><ele>120.0</ele><time>2026-04-25T08:07:29Z</time></trkpt><trkpt lat="43.84042017354581" lon="12.646129450199757"><ele>120.0</ele><time>2026-04-25T08:07:30Z</time></trkpt><trkpt lat="43.84032583463976" lon="12.646222473342322"><ele>120.0</ele><time>2026-04-25T08:07:31Z</time></trkpt><trkpt lat="43.84021270741963" lon="12.64629506162907"><ele>120.25</ele><time>2026-04-25T08:07:32Z</time></trkpt><trkpt lat="43.84009008865529" lon="12.646352803813501"><ele>120.5</ele><time>2026-04-25T08:07:33Z</time></trkpt><trkpt lat="43.83996093306522" lon="12.646404173012964"><ele>120.75</ele><time>2026-04-25T08:07:34Z</time></trkpt><trkpt lat="43.839826072008044" lon="12.646450659882094"><ele>121.0</ele><time>2026-04-25T08:07:35Z</time></trkpt><trkpt lat="43.83968708069988" lon="12.64649730494658"><ele>121.0</ele><time>2026-04-25T08:07:36Z</time></trkpt><trkpt lat="43.83955050581513" lon="12.646545702422026"><ele>121.0</ele><time>2026-04-25T08:07:37Z</time></trkpt><trkpt lat="43.839412894786484" lon="12.64660330622948"><ele>121.0</ele><time>2026-04-25T08:07:38Z</time></trkpt><trkpt lat="43.83927835190797" lon="12.646663556316094"><ele>121.0</ele><time>2026-04-25T08:07:39Z</time></trkpt><trkpt lat="43.8391541638777" lon="12.646733814956521"><ele>120.8</ele><time>2026-04-25T08:07:40Z</time></trkpt><trkpt lat="43.839044608485025" lon="12.646815122909782"><ele>120.6</ele><time>2026-04-25T08:07:41Z</time></trkpt><trkpt lat="43.838963038029476" lon="12.646899872071508"><ele>120.4</ele><time>2026-04-25T08:07:42Z</time></trkpt><trkpt lat="43.83889957728676" lon="12.646973935241903"><ele>120.2</ele><time>2026-04-25T08:07:43Z</time></trkpt><trkpt lat="43.83886454256798" lon="12.64705271044008"><ele>120.0</ele><time>2026-04-25T08:07:44Z</time></trkpt><trkpt lat="43.838722245779465" lon="12.647068051197481"><ele>120.0</ele><time>2026-04-25T08:07:46Z</time></trkpt><trkpt lat="43.83866857589832" lon="12.646977702824064"><ele>120.0</ele><time>2026-04-25T08:07:47Z</time></trkpt><trkpt lat="43.838598394084244" lon="12.646907078282107"><ele>120.0</ele><time>2026-04-25T08:07:48Z</time></trkpt><trkpt lat="43.8385375124989" lon="12.646822692167635"><ele>120.0</ele><time>2026-04-25T08:07:49Z</time></trkpt><trkpt lat="43.83850929325064" lon="12.646734373702607"><ele>120.0</ele><time>2026-04-25T08:07:50Z</time></trkpt><trkpt lat="43.838515825553976" lon="12.646580001953053"><ele>120.0</ele><time>2026-04-25T08:07:52Z</time></trkpt><trkpt lat="43.83853325185668" lon="12.646391595252215"><ele>119.8</ele><time>2026-04-25T08:07:54Z</time></trkpt><trkpt lat="43.83852125726109" lon="12.646278679007072"><ele>119.6</ele><time>2026-04-25T08:07:55Z</time></trkpt><trkpt lat="43.838471242796736" lon="12.646159540658033"><ele>119.4</ele><time>2026-04-25T08:07:56Z</time></trkpt><trkpt lat="43.83841126434815" lon="12.646050974753148"><ele>119.2</ele><time>2026-04-25T08:07:57Z</time></trkpt><trkpt lat="43.83834552563088" lon="12.645934512224136"><ele>119.0</ele><time>2026-04-25T08:07:58Z</time></trkpt><trkpt lat="43.83826891907397" lon="12.645819322503266"><ele>117.0</ele><time>2026-04-25T08:07:59Z</time></trkpt><trkpt lat="43.83818166129085" lon="12.64572549618969"><ele>115.0</ele><time>2026-04-25T08:07:59.999Z</time></trkpt><trkpt lat="43.8380839410358" lon="12.6456454686495"><ele>113.0</ele><time>2026-04-25T08:08:00.999Z</time></trkpt><trkpt lat="43.83799063478696" lon="12.645597615413648"><ele>111.0</ele><time>2026-04-25T08:08:01.999Z</time></trkpt><trkpt lat="43.83791386189273" lon="12.645579833982401"><ele>109.0</ele><time>2026-04-25T08:08:02.999Z</time></trkpt><trkpt lat="43.83782141060783" lon="12.645692373392585"><ele>109.0</ele><time>2026-04-25T08:08:04.999Z</time></trkpt><trkpt lat="43.83776232762194" lon="12.64578021292952"><ele>109.0</ele><time>2026-04-25T08:08:05.999Z</time></trkpt><trkpt lat="43.83770429581471" lon="12.645904737923733"><ele>109.0</ele><time>2026-04-25T08:08:06.999Z</time></trkpt><trkpt lat="43.83763485823561" lon="12.646017237236917"><ele>109.0</ele><time>2026-04-25T08:08:07.999Z</time></trkpt><trkpt lat="43.83756165557828" lon="12.646069765325654"><ele>109.0</ele><time>2026-04-25T08:08:08.999Z</time></trkpt><trkpt lat="43.83745813645068" lon="12.64599396700016"><ele>109.80000000000001</ele><time>2026-04-25T08:08:10.999Z</time></trkpt><trkpt lat="43.83739776794603" lon="12.645926062508195"><ele>110.60000000000001</ele><time>2026-04-25T08:08:11.999Z</time></trkpt><trkpt lat="43.83738266063879" lon="12.645788570626832"><ele>111.4</ele><time>2026-04-25T08:08:12.999Z</time></trkpt><trkpt lat="43.83732943330701" lon="12.645676083093983"><ele>112.2</ele><time>2026-04-25T08:08:13.999Z</time></trkpt><trkpt lat="43.837248436132114" lon="12.645588965656563"><ele>113.0</ele><time>2026-04-25T08:08:14.999Z</time></trkpt><trkpt lat="43.83715701694596" lon="12.645515612623077"><ele>113.0</ele><time>2026-04-25T08:08:15.999Z</time></trkpt><trkpt lat="43.837059083939174" lon="12.645453958048716"><ele>113.0</ele><time>2026-04-25T08:08:16.999Z</time></trkpt><trkpt lat="43.836944484274476" lon="12.645437029797067"><ele>113.0</ele><time>2026-04-25T08:08:17.999Z</time></trkpt><trkpt lat="43.83682562448495" lon="12.645481537908747"><ele>113.0</ele><time>2026-04-25T08:08:18.999Z</time></trkpt><trkpt lat="43.836700044804616" lon="12.645518705714348"><ele>115.80000000000001</ele><time>2026-04-25T08:08:19.999Z</time></trkpt><trkpt lat="43.83658066497394" lon="12.645566675499898"><ele>118.60000000000001</ele><time>2026-04-25T08:08:20.999Z</time></trkpt><trkpt lat="43.836471514119594" lon="12.64562362623787"><ele>121.39999999999999</ele><time>2026-04-25T08:08:21.999Z</time></trkpt><trkpt lat="43.8363828551191" lon="12.645677155445215"><ele>124.19999999999999</ele><time>2026-04-25T08:08:22.999Z</time></trkpt><trkpt lat="43.83632023402093" lon="12.645771772777252"><ele>127.0</ele><time>2026-04-25T08:08:23.999Z</time></trkpt><trkpt lat="43.83628155434838" lon="12.645899622441316"><ele>127.0</ele><time>2026-04-25T08:08:24.999Z</time></trkpt><trkpt lat="43.836258264812315" lon="12.64604055620183"><ele>127.0</ele><time>2026-04-25T08:08:25.999Z</time></trkpt><trkpt lat="43.83623910631658" lon="12.646194079122774"><ele>127.0</ele><time>2026-04-25T08:08:26.999Z</time></trkpt><trkpt lat="43.83621699366041" lon="12.646363590675415"><ele>127.0</ele><time>2026-04-25T08:08:27.999Z</time></trkpt><trkpt lat="43.836192720053454" lon="12.646546375501813"><ele>127.0</ele><time>2026-04-25T08:08:28.999Z</time></trkpt><trkpt lat="43.836167253912905" lon="12.646738140338794"><ele>127.0</ele><time>2026-04-25T08:08:29.999Z</time></trkpt><trkpt lat="43.836141868200166" lon="12.646929299554994"><ele>127.0</ele><time>2026-04-25T08:08:30.999Z</time></trkpt><trkpt lat="43.8361162853079" lon="12.64712194352593"><ele>127.0</ele><time>2026-04-25T08:08:31.999Z</time></trkpt><trkpt lat="43.836091628850085" lon="12.647315045874882"><ele>127.0</ele><time>2026-04-25T08:08:32.999Z</time></trkpt><trkpt lat="43.83606116146205" lon="12.647493712380205"><ele>127.0</ele><time>2026-04-25T08:08:33.999Z</time></trkpt><trkpt lat="43.83602508542367" lon="12.647656005713063"><ele>127.0</ele><time>2026-04-25T08:08:34.999Z</time></trkpt><trkpt lat="43.835984684179984" lon="12.64780476192516"><ele>127.0</ele><time>2026-04-25T08:08:35.999Z</time></trkpt><trkpt lat="43.83593123616623" lon="12.64795709830528"><ele>130.75</ele><time>2026-04-25T08:08:36.999Z</time></trkpt><trkpt lat="43.835875814898536" lon="12.648106621331447"><ele>134.5</ele><time>2026-04-25T08:08:37.999Z</time></trkpt><trkpt lat="43.83581994481229" lon="12.648256476661938"><ele>138.25</ele><time>2026-04-25T08:08:38.999Z</time></trkpt><trkpt lat="43.83576335049176" lon="12.64840133143101"><ele>142.0</ele><time>2026-04-25T08:08:39.999Z</time></trkpt><trkpt lat="43.83570971046168" lon="12.648529382256402"><ele>141.0</ele><time>2026-04-25T08:08:40.999Z</time></trkpt><trkpt lat="43.83565643280489" lon="12.6486513207166"><ele>140.0</ele><time>2026-04-25T08:08:41.999Z</time></trkpt><trkpt lat="43.835600533072395" lon="12.648772388307469"><ele>139.0</ele><time>2026-04-25T08:08:42.999Z</time></trkpt><trkpt lat="43.8355429751278" lon="12.64889706672934"><ele>138.0</ele><time>2026-04-25T08:08:43.999Z</time></trkpt><trkpt lat="43.835482259537244" lon="12.649028736576996"><ele>137.0</ele><time>2026-04-25T08:08:44.999Z</time></trkpt><trkpt lat="43.835421487355475" lon="12.649160529099737"><ele>137.0</ele><time>2026-04-25T08:08:45.999Z</time></trkpt><trkpt lat="43.835364667940304" lon="12.649288370681122"><ele>137.0</ele><time>2026-04-25T08:08:46.999Z</time></trkpt><trkpt lat="43.83531321766668" lon="12.64941634196136"><ele>137.0</ele><time>2026-04-25T08:08:48Z</time></trkpt><trkpt lat="43.83527489745442" lon="12.649548700163198"><ele>137.0</ele><time>2026-04-25T08:08:49Z</time></trkpt><trkpt lat="43.83522004091988" lon="12.64965915163605"><ele>137.0</ele><time>2026-04-25T08:08:50Z</time></trkpt><trkpt lat="43.83513804385527" lon="12.649742094066609"><ele>140.5</ele><time>2026-04-25T08:08:51Z</time></trkpt><trkpt lat="43.83507245786108" lon="12.649858493460851"><ele>144.0</ele><time>2026-04-25T08:08:52Z</time></trkpt><trkpt lat="43.83497640394173" lon="12.649949351232026"><ele>147.5</ele><time>2026-04-25T08:08:53Z</time></trkpt><trkpt lat="43.83488717741654" lon="12.65006167802618"><ele>151.0</ele><time>2026-04-25T08:08:54Z</time></trkpt><trkpt lat="43.83480820765405" lon="12.650197468455035"><ele>150.0</ele><time>2026-04-25T08:08:55Z</time></trkpt><trkpt lat="43.8347124147148" lon="12.650316751981702"><ele>149.0</ele><time>2026-04-25T08:08:56Z</time></trkpt><trkpt lat="43.834609691160125" lon="12.65044380394035"><ele>148.0</ele><time>2026-04-25T08:08:57Z</time></trkpt><trkpt lat="43.83451041360871" lon="12.65057554494119"><ele>147.0</ele><time>2026-04-25T08:08:58Z</time></trkpt><trkpt lat="43.834409829222714" lon="12.650712705090598"><ele>151.5</ele><time>2026-04-25T08:08:59Z</time></trkpt><trkpt lat="43.834302118939924" lon="12.650846002915687"><ele>156.0</ele><time>2026-04-25T08:09:00Z</time></trkpt><trkpt lat="43.834194483021435" lon="12.650979841560485"><ele>160.5</ele><time>2026-04-25T08:09:01Z</time></trkpt><trkpt lat="43.834095788890046" lon="12.651122907307615"><ele>165.0</ele><time>2026-04-25T08:09:02Z</time></trkpt><trkpt lat="43.83399268520961" lon="12.651255078872543"><ele>165.0</ele><time>2026-04-25T08:09:03Z</time></trkpt><trkpt lat="43.83389199730359" lon="12.651388315166045"><ele>165.0</ele><time>2026-04-25T08:09:04Z</time></trkpt><trkpt lat="43.83378082028077" lon="12.651505439572887"><ele>165.0</ele><time>2026-04-25T08:09:05Z</time></trkpt><trkpt lat="43.83368991142321" lon="12.651647674761401"><ele>165.0</ele><time>2026-04-25T08:09:06Z</time></trkpt><trkpt lat="43.83358378059762" lon="12.651764132632788"><ele>165.0</ele><time>2026-04-25T08:09:07Z</time></trkpt><trkpt lat="43.833473923940616" lon="12.65187594885286"><ele>165.0</ele><time>2026-04-25T08:09:08Z</time></trkpt><trkpt lat="43.83335512544558" lon="12.651947477839451"><ele>165.0</ele><time>2026-04-25T08:09:09Z</time></trkpt><trkpt lat="43.833250639874095" lon="12.651991730203319"><ele>165.0</ele><time>2026-04-25T08:09:10Z</time></trkpt><trkpt lat="43.83316230946675" lon="12.652012486190648"><ele>167.6</ele><time>2026-04-25T08:09:11Z</time></trkpt><trkpt lat="43.8331069991193" lon="12.65193600699535"><ele>170.2</ele><time>2026-04-25T08:09:12Z</time></trkpt><trkpt lat="43.83306287172265" lon="12.651848107602245"><ele>172.8</ele><time>2026-04-25T08:09:13Z</time></trkpt><trkpt lat="43.83302709270945" lon="12.651729232394448"><ele>175.4</ele><time>2026-04-25T08:09:14Z</time></trkpt><trkpt lat="43.83301190595189" lon="12.651586021350273"><ele>178.0</ele><time>2026-04-25T08:09:15Z</time></trkpt><trkpt lat="43.83299007604442" lon="12.651429345409696"><ele>178.0</ele><time>2026-04-25T08:09:16Z</time></trkpt><trkpt lat="43.832953263593076" lon="12.651272232691813"><ele>178.0</ele><time>2026-04-25T08:09:17Z</time></trkpt><trkpt lat="43.83292442455026" lon="12.651105668723524"><ele>178.0</ele><time>2026-04-25T08:09:18Z</time></trkpt><trkpt lat="43.83291181714808" lon="12.650940590545707"><ele>178.0</ele><time>2026-04-25T08:09:19Z</time></trkpt><trkpt lat="43.83286144851836" lon="12.650789209952508"><ele>180.0</ele><time>2026-04-25T08:09:20Z</time></trkpt><trkpt lat="43.83282006334777" lon="12.650629490916089"><ele>182.0</ele><time>2026-04-25T08:09:21Z</time></trkpt><trkpt lat="43.83277440801241" lon="12.650460854346111"><ele>184.0</ele><time>2026-04-25T08:09:22Z</time></trkpt><trkpt lat="43.832716221544125" lon="12.650290046688417"><ele>186.0</ele><time>2026-04-25T08:09:23Z</time></trkpt><trkpt lat="43.83266039469982" lon="12.650125190587294"><ele>187.25</ele><time>2026-04-25T08:09:24Z</time></trkpt><trkpt lat="43.83261400214149" lon="12.649944166357583"><ele>188.5</ele><time>2026-04-25T08:09:25Z</time></trkpt><trkpt lat="43.832534402094495" lon="12.649794375549785"><ele>189.75</ele><time>2026-04-25T08:09:26Z</time></trkpt><trkpt lat="43.832482728293684" lon="12.649628904958522"><ele>191.0</ele><time>2026-04-25T08:09:27Z</time></trkpt><trkpt lat="43.83241693367671" lon="12.649480025262836"><ele>193.25</ele><time>2026-04-25T08:09:28Z</time></trkpt><trkpt lat="43.83233917057174" lon="12.649348154578231"><ele>195.5</ele><time>2026-04-25T08:09:29Z</time></trkpt><trkpt lat="43.83227786871485" lon="12.6492054294827"><ele>197.75</ele><time>2026-04-25T08:09:30Z</time></trkpt><trkpt lat="43.83223145309679" lon="12.649059871417222"><ele>200.0</ele><time>2026-04-25T08:09:31Z</time></trkpt><trkpt lat="43.832173786002016" lon="12.64892079964112"><ele>200.0</ele><time>2026-04-25T08:09:32Z</time></trkpt><trkpt lat="43.83210950648339" lon="12.648766785882614"><ele>200.0</ele><time>2026-04-25T08:09:33Z</time></trkpt><trkpt lat="43.832037607388756" lon="12.648616218683278"><ele>200.0</ele><time>2026-04-25T08:09:34Z</time></trkpt><trkpt lat="43.83195280054262" lon="12.648484286509335"><ele>200.0</ele><time>2026-04-25T08:09:35Z</time></trkpt><trkpt lat="43.83189653401964" lon="12.648321001402518"><ele>200.25</ele><time>2026-04-25T08:09:36Z</time></trkpt><trkpt lat="43.83182476972985" lon="12.648185349602272"><ele>200.5</ele><time>2026-04-25T08:09:37Z</time></trkpt><trkpt lat="43.83170790979127" lon="12.648077959934021"><ele>200.75</ele><time>2026-04-25T08:09:38Z</time></trkpt><trkpt lat="43.831599185119906" lon="12.64796544128388"><ele>201.0</ele><time>2026-04-25T08:09:39Z</time></trkpt><trkpt lat="43.83148621475336" lon="12.647854027689656"><ele>200.25</ele><time>2026-04-25T08:09:40Z</time></trkpt><trkpt lat="43.83137471508083" lon="12.64774789575629"><ele>199.5</ele><time>2026-04-25T08:09:41Z</time></trkpt><trkpt lat="43.83127670496479" lon="12.647658606032392"><ele>198.75</ele><time>2026-04-25T08:09:42Z</time></trkpt><trkpt lat="43.831175793340925" lon="12.647575202417512"><ele>198.0</ele><time>2026-04-25T08:09:43Z</time></trkpt><trkpt lat="43.83106558688183" lon="12.64748700381084"><ele>199.0</ele><time>2026-04-25T08:09:44Z</time></trkpt><trkpt lat="43.8309388767916" lon="12.647388553052634"><ele>200.0</ele><time>2026-04-25T08:09:45Z</time></trkpt><trkpt lat="43.83080253483961" lon="12.647285324567179"><ele>201.0</ele><time>2026-04-25T08:09:46Z</time></trkpt><trkpt lat="43.83066307858699" lon="12.647180397830441"><ele>201.0</ele><time>2026-04-25T08:09:47Z</time></trkpt><trkpt lat="43.830529783576004" lon="12.647079204120752"><ele>201.0</ele><time>2026-04-25T08:09:48Z</time></trkpt><trkpt lat="43.830411872007545" lon="12.646987462050218"><ele>201.0</ele><time>2026-04-25T08:09:49Z</time></trkpt><trkpt lat="43.83031090186104" lon="12.646905741014415"><ele>201.0</ele><time>2026-04-25T08:09:50Z</time></trkpt><trkpt lat="43.83021923463979" lon="12.646827275255577"><ele>201.5</ele><time>2026-04-25T08:09:51Z</time></trkpt><trkpt lat="43.83013154768452" lon="12.6467488116213"><ele>202.0</ele><time>2026-04-25T08:09:52Z</time></trkpt><trkpt lat="43.83004948020521" lon="12.646674221790036"><ele>202.5</ele><time>2026-04-25T08:09:53Z</time></trkpt><trkpt lat="43.829973837634434" lon="12.646605471488503"><ele>203.0</ele><time>2026-04-25T08:09:54Z</time></trkpt><trkpt lat="43.82990743192231" lon="12.646545116467944"><ele>203.5</ele><time>2026-04-25T08:09:55Z</time></trkpt><trkpt lat="43.829843346052684" lon="12.646486869763313"><ele>204.0</ele><time>2026-04-25T08:09:56Z</time></trkpt><trkpt lat="43.829784541391604" lon="12.646437941250557"><ele>204.0</ele><time>2026-04-25T08:09:57Z</time></trkpt><trkpt lat="43.82966715633957" lon="12.646372099200693"><ele>204.0</ele><time>2026-04-25T08:09:59Z</time></trkpt><trkpt lat="43.8296086334599" lon="12.646314810927052"><ele>204.0</ele><time>2026-04-25T08:10:00Z</time></trkpt><trkpt lat="43.82955240001573" lon="12.64626301284959"><ele>204.0</ele><time>2026-04-25T08:10:01Z</time></trkpt><trkpt lat="43.829442217569955" lon="12.646166476150052"><ele>204.0</ele><time>2026-04-25T08:10:03Z</time></trkpt><trkpt lat="43.82938382199826" lon="12.646107546947457"><ele>204.5</ele><time>2026-04-25T08:10:04Z</time></trkpt><trkpt lat="43.82932534245547" lon="12.646046059985533"><ele>205.0</ele><time>2026-04-25T08:10:05Z</time></trkpt><trkpt lat="43.829264288841756" lon="12.64598451083153"><ele>205.5</ele><time>2026-04-25T08:10:06Z</time></trkpt><trkpt lat="43.829197946209256" lon="12.645925018500364"><ele>206.0</ele><time>2026-04-25T08:10:07Z</time></trkpt><trkpt lat="43.82913670699902" lon="12.645844522339717"><ele>206.5</ele><time>2026-04-25T08:10:08Z</time></trkpt><trkpt lat="43.82906261468752" lon="12.645775728340185"><ele>207.0</ele><time>2026-04-25T08:10:09Z</time></trkpt><trkpt lat="43.82897981495499" lon="12.645698849416094"><ele>207.0</ele><time>2026-04-25T08:10:10Z</time></trkpt><trkpt lat="43.82888903221503" lon="12.645616649827414"><ele>207.0</ele><time>2026-04-25T08:10:11Z</time></trkpt><trkpt lat="43.82879982900611" lon="12.645536088108576"><ele>207.0</ele><time>2026-04-25T08:10:12Z</time></trkpt><trkpt lat="43.82870571492395" lon="12.645451090596609"><ele>207.0</ele><time>2026-04-25T08:10:13Z</time></trkpt><trkpt lat="43.82859959350173" lon="12.645377405264204"><ele>207.0</ele><time>2026-04-25T08:10:14Z</time></trkpt><trkpt lat="43.82850366916378" lon="12.645277934108568"><ele>208.75</ele><time>2026-04-25T08:10:15Z</time></trkpt><trkpt lat="43.82840481114575" lon="12.645185669143318"><ele>210.5</ele><time>2026-04-25T08:10:16Z</time></trkpt><trkpt lat="43.82830823669122" lon="12.64511792363516"><ele>212.25</ele><time>2026-04-25T08:10:16.999Z</time></trkpt><trkpt lat="43.828204079477366" lon="12.645045071433094"><ele>214.0</ele><time>2026-04-25T08:10:17.999Z</time></trkpt><trkpt lat="43.828070889596574" lon="12.64506125291701"><ele>214.0</ele><time>2026-04-25T08:10:18.999Z</time></trkpt><trkpt lat="43.827932905300514" lon="12.645097737096274"><ele>214.0</ele><time>2026-04-25T08:10:19.999Z</time></trkpt><trkpt lat="43.82779140160421" lon="12.645091295289662"><ele>214.0</ele><time>2026-04-25T08:10:20.999Z</time></trkpt><trkpt lat="43.82764498560467" lon="12.645106621693087"><ele>214.0</ele><time>2026-04-25T08:10:21.999Z</time></trkpt><trkpt lat="43.827499203490454" lon="12.645121881734735"><ele>216.39999999999998</ele><time>2026-04-25T08:10:22.999Z</time></trkpt><trkpt lat="43.82738225798112" lon="12.645136595717457"><ele>218.79999999999998</ele><time>2026-04-25T08:10:23.999Z</time></trkpt><trkpt lat="43.82727902192803" lon="12.645151600519743"><ele>221.20000000000002</ele><time>2026-04-25T08:10:24.999Z</time></trkpt><trkpt lat="43.827187187348216" lon="12.645172683288695"><ele>223.60000000000002</ele><time>2026-04-25T08:10:25.999Z</time></trkpt><trkpt lat="43.82710990722455" lon="12.645216538736468"><ele>226.0</ele><time>2026-04-25T08:10:26.999Z</time></trkpt><trkpt lat="43.827050429240664" lon="12.645270277811045"><ele>225.99999999999997</ele><time>2026-04-25T08:10:27.999Z</time></trkpt><trkpt lat="43.82696198334324" lon="12.645338914764764"><ele>226.0</ele><time>2026-04-25T08:10:29.999Z</time></trkpt><trkpt lat="43.82689189926344" lon="12.645326147216204"><ele>226.0</ele><time>2026-04-25T08:10:31.999Z</time></trkpt><trkpt lat="43.826897452004914" lon="12.645194861114922"><ele>226.0</ele><time>2026-04-25T08:10:34.999Z</time></trkpt><trkpt lat="43.82689857266366" lon="12.645098445602686"><ele>225.99999999999997</ele><time>2026-04-25T08:10:35.999Z</time></trkpt><trkpt lat="43.826900311179664" lon="12.644977468832932"><ele>226.0</ele><time>2026-04-25T08:10:36.999Z</time></trkpt><trkpt lat="43.82690321610243" lon="12.644836095750245"><ele>226.0</ele><time>2026-04-25T08:10:37.999Z</time></trkpt><trkpt lat="43.82690658271702" lon="12.644672253861847"><ele>226.0</ele><time>2026-04-25T08:10:38.999Z</time></trkpt><trkpt lat="43.826906137266164" lon="12.644478637242235"><ele>226.0</ele><time>2026-04-25T08:10:39.999Z</time></trkpt><trkpt lat="43.826902388441596" lon="12.644263618450585"><ele>226.0</ele><time>2026-04-25T08:10:40.999Z</time></trkpt><trkpt lat="43.826898529874555" lon="12.644042305255622"><ele>225.75</ele><time>2026-04-25T08:10:41.999Z</time></trkpt><trkpt lat="43.8268933631429" lon="12.643839036846948"><ele>225.5</ele><time>2026-04-25T08:10:42.999Z</time></trkpt><trkpt lat="43.82688480899599" lon="12.643638705227266"><ele>225.25</ele><time>2026-04-25T08:10:43.999Z</time></trkpt><trkpt lat="43.826873562371816" lon="12.643445905915325"><ele>225.0</ele><time>2026-04-25T08:10:44.999Z</time></trkpt><trkpt lat="43.8268601056738" lon="12.64326226597669"><ele>225.0</ele><time>2026-04-25T08:10:45.999Z</time></trkpt><trkpt lat="43.82684133520335" lon="12.64308062589684"><ele>225.0</ele><time>2026-04-25T08:10:46.999Z</time></trkpt><trkpt lat="43.82681893284414" lon="12.642911793291768"><ele>225.0</ele><time>2026-04-25T08:10:47.999Z</time></trkpt><trkpt lat="43.826794465271036" lon="12.642748780007551"><ele>225.0</ele><time>2026-04-25T08:10:48.999Z</time></trkpt><trkpt lat="43.826767950268305" lon="12.642604318612696"><ele>225.0</ele><time>2026-04-25T08:10:49.999Z</time></trkpt><trkpt lat="43.82673224064116" lon="12.642474657842595"><ele>225.0</ele><time>2026-04-25T08:10:50.999Z</time></trkpt><trkpt lat="43.826686893863915" lon="12.642362895290775"><ele>225.0</ele><time>2026-04-25T08:10:51.999Z</time></trkpt><trkpt lat="43.82662668604028" lon="12.642265229536596"><ele>225.0</ele><time>2026-04-25T08:10:52.999Z</time></trkpt><trkpt lat="43.82653669679867" lon="12.642190201672934"><ele>225.0</ele><time>2026-04-25T08:10:54Z</time></trkpt><trkpt lat="43.82643241335419" lon="12.642161241435275"><ele>225.0</ele><time>2026-04-25T08:10:55Z</time></trkpt><trkpt lat="43.826335977958834" lon="12.642209215250658"><ele>225.0</ele><time>2026-04-25T08:10:56Z</time></trkpt><trkpt lat="43.82623530795763" lon="12.642208595817563"><ele>225.0</ele><time>2026-04-25T08:10:57Z</time></trkpt><trkpt lat="43.82612727578746" lon="12.642217392787074"><ele>225.0</ele><time>2026-04-25T08:10:58Z</time></trkpt><trkpt lat="43.82604785272148" lon="12.64217675754251"><ele>225.0</ele><time>2026-04-25T08:10:59Z</time></trkpt><trkpt lat="43.82598103699058" lon="12.642126086522008"><ele>225.8</ele><time>2026-04-25T08:11:00Z</time></trkpt><trkpt lat="43.82593929638037" lon="12.64196374757985"><ele>226.6</ele><time>2026-04-25T08:11:02Z</time></trkpt><trkpt lat="43.825955175670174" lon="12.641843273782422"><ele>227.39999999999998</ele><time>2026-04-25T08:11:03Z</time></trkpt><trkpt lat="43.82600681176853" lon="12.641712328544822"><ele>228.2</ele><time>2026-04-25T08:11:04Z</time></trkpt><trkpt lat="43.826066644879226" lon="12.641582803565704"><ele>229.0</ele><time>2026-04-25T08:11:05Z</time></trkpt><trkpt lat="43.826105946495936" lon="12.641439688783237"><ele>229.0</ele><time>2026-04-25T08:11:06Z</time></trkpt><trkpt lat="43.82611789517896" lon="12.64127935064443"><ele>229.0</ele><time>2026-04-25T08:11:07Z</time></trkpt><trkpt lat="43.826071024846826" lon="12.641120281881843"><ele>229.0</ele><time>2026-04-25T08:11:08Z</time></trkpt><trkpt lat="43.8260303558463" lon="12.640990577709099"><ele>229.0</ele><time>2026-04-25T08:11:09Z</time></trkpt><trkpt lat="43.8259979873822" lon="12.640844105518003"><ele>233.75</ele><time>2026-04-25T08:11:10Z</time></trkpt><trkpt lat="43.82593423068523" lon="12.640690522289646"><ele>238.5</ele><time>2026-04-25T08:11:11Z</time></trkpt><trkpt lat="43.825859095831234" lon="12.640531691752154"><ele>243.25</ele><time>2026-04-25T08:11:12Z</time></trkpt><trkpt lat="43.825771903370345" lon="12.640380582897864"><ele>248.0</ele><time>2026-04-25T08:11:13Z</time></trkpt><trkpt lat="43.8256777020792" lon="12.64024354288581"><ele>249.0</ele><time>2026-04-25T08:11:14Z</time></trkpt><trkpt lat="43.8255768036889" lon="12.640121552213023"><ele>250.0</ele><time>2026-04-25T08:11:15Z</time></trkpt><trkpt lat="43.8254683128414" lon="12.640024234513913"><ele>251.0</ele><time>2026-04-25T08:11:16Z</time></trkpt><trkpt lat="43.825344404321626" lon="12.639980472318175"><ele>252.0</ele><time>2026-04-25T08:11:17Z</time></trkpt><trkpt lat="43.82522364105865" lon="12.639928702152172"><ele>252.75</ele><time>2026-04-25T08:11:18Z</time></trkpt><trkpt lat="43.82512430958964" lon="12.639833434156206"><ele>253.5</ele><time>2026-04-25T08:11:19Z</time></trkpt><trkpt lat="43.8250315241448" lon="12.639733101213038"><ele>254.25</ele><time>2026-04-25T08:11:20Z</time></trkpt><trkpt lat="43.82492269233105" lon="12.639610986921497"><ele>255.0</ele><time>2026-04-25T08:11:21Z</time></trkpt><trkpt lat="43.82485047207673" lon="12.639463703955384"><ele>259.0</ele><time>2026-04-25T08:11:22Z</time></trkpt><trkpt lat="43.82477815597416" lon="12.639322923061766"><ele>263.0</ele><time>2026-04-25T08:11:23Z</time></trkpt><trkpt lat="43.82470334514451" lon="12.63918354836951"><ele>267.0</ele><time>2026-04-25T08:11:24Z</time></trkpt><trkpt lat="43.82465076141176" lon="12.639027252370475"><ele>271.0</ele><time>2026-04-25T08:11:25Z</time></trkpt><trkpt lat="43.82457486778916" lon="12.638899247954113"><ele>271.0</ele><time>2026-04-25T08:11:26Z</time></trkpt><trkpt lat="43.82451495060064" lon="12.6387599702138"><ele>271.0</ele><time>2026-04-25T08:11:27Z</time></trkpt><trkpt lat="43.824460423991255" lon="12.638631567028359"><ele>271.0</ele><time>2026-04-25T08:11:28Z</time></trkpt><trkpt lat="43.82442010552427" lon="12.638514832379403"><ele>271.0</ele><time>2026-04-25T08:11:29Z</time></trkpt><trkpt lat="43.824409611786734" lon="12.638409071718543"><ele>271.0</ele><time>2026-04-25T08:11:30Z</time></trkpt><trkpt lat="43.82444189160126" lon="12.638300480435433"><ele>273.40000000000003</ele><time>2026-04-25T08:11:31Z</time></trkpt><trkpt lat="43.82444894015727" lon="12.638169451664213"><ele>275.8</ele><time>2026-04-25T08:11:32Z</time></trkpt><trkpt lat="43.824465067462064" lon="12.638042919712369"><ele>278.20000000000005</ele><time>2026-04-25T08:11:33Z</time></trkpt><trkpt lat="43.82447597517931" lon="12.637907968706804"><ele>280.6</ele><time>2026-04-25T08:11:34Z</time></trkpt><trkpt lat="43.82448157056761" lon="12.637764866693317"><ele>283.0</ele><time>2026-04-25T08:11:35Z</time></trkpt><trkpt lat="43.824483288106244" lon="12.637621365878735"><ele>283.5</ele><time>2026-04-25T08:11:36Z</time></trkpt><trkpt lat="43.824486394069645" lon="12.637472895363752"><ele>284.0</ele><time>2026-04-25T08:11:37Z</time></trkpt><trkpt lat="43.82448554640355" lon="12.637309645816643"><ele>284.5</ele><time>2026-04-25T08:11:38Z</time></trkpt><trkpt lat="43.824474819888486" lon="12.637143163469025"><ele>285.0</ele><time>2026-04-25T08:11:39Z</time></trkpt><trkpt lat="43.82445767529988" lon="12.636971436433083"><ele>282.0</ele><time>2026-04-25T08:11:40Z</time></trkpt><trkpt lat="43.82443366664011" lon="12.636801493701958"><ele>279.0</ele><time>2026-04-25T08:11:41Z</time></trkpt><trkpt lat="43.82439828025922" lon="12.636631589161896"><ele>276.0</ele><time>2026-04-25T08:11:42Z</time></trkpt><trkpt lat="43.82435614205262" lon="12.636473665566614"><ele>273.0</ele><time>2026-04-25T08:11:43Z</time></trkpt><trkpt lat="43.82431537258545" lon="12.636323895135261"><ele>272.75</ele><time>2026-04-25T08:11:44Z</time></trkpt><trkpt lat="43.82426043598287" lon="12.636158849041378"><ele>272.5</ele><time>2026-04-25T08:11:45Z</time></trkpt><trkpt lat="43.82417166529321" lon="12.636043815813384"><ele>272.25</ele><time>2026-04-25T08:11:46Z</time></trkpt><trkpt lat="43.82409797922533" lon="12.635912842157273"><ele>272.0</ele><time>2026-04-25T08:11:47Z</time></trkpt><trkpt lat="43.8240243257274" lon="12.635779089790132"><ele>272.5</ele><time>2026-04-25T08:11:48Z</time></trkpt><trkpt lat="43.8239565774097" lon="12.635658936357881"><ele>273.0</ele><time>2026-04-25T08:11:49Z</time></trkpt><trkpt lat="43.82389658156588" lon="12.635552873791811"><ele>273.5</ele><time>2026-04-25T08:11:50Z</time></trkpt><trkpt lat="43.82384777429117" lon="12.635467207128213"><ele>274.0</ele><time>2026-04-25T08:11:51Z</time></trkpt><trkpt lat="43.82381070991153" lon="12.635380623417186"><ele>274.5</ele><time>2026-04-25T08:11:52Z</time></trkpt><trkpt lat="43.82377209997831" lon="12.635304227912526"><ele>275.0</ele><time>2026-04-25T08:11:53Z</time></trkpt><trkpt lat="43.823709846937575" lon="12.635163607691094"><ele>273.4</ele><time>2026-04-25T08:11:55Z</time></trkpt><trkpt lat="43.82365022066836" lon="12.635002065465237"><ele>271.8</ele><time>2026-04-25T08:11:57Z</time></trkpt><trkpt lat="43.82360252584464" lon="12.634927871114671"><ele>270.2</ele><time>2026-04-25T08:11:58Z</time></trkpt><trkpt lat="43.82356373421872" lon="12.634825792435056"><ele>268.6</ele><time>2026-04-25T08:11:59Z</time></trkpt><trkpt lat="43.82351489930072" lon="12.634708894640864"><ele>267.0</ele><time>2026-04-25T08:12:00Z</time></trkpt><trkpt lat="43.82345839526458" lon="12.63459602766399"><ele>267.0</ele><time>2026-04-25T08:12:01Z</time></trkpt><trkpt lat="43.82340908101343" lon="12.634480585777979"><ele>267.0</ele><time>2026-04-25T08:12:02Z</time></trkpt><trkpt lat="43.823357898294965" lon="12.634366238574538"><ele>267.0</ele><time>2026-04-25T08:12:03Z</time></trkpt><trkpt lat="43.82329518449576" lon="12.634243962459152"><ele>267.0</ele><time>2026-04-25T08:12:04Z</time></trkpt><trkpt lat="43.82322762710144" lon="12.634110028554312"><ele>267.0</ele><time>2026-04-25T08:12:05Z</time></trkpt><trkpt lat="43.823160801746944" lon="12.633976526017978"><ele>268.8</ele><time>2026-04-25T08:12:06Z</time></trkpt><trkpt lat="43.82308405749657" lon="12.63384592461358"><ele>270.6</ele><time>2026-04-25T08:12:07Z</time></trkpt><trkpt lat="43.823025165422216" lon="12.633736841448409"><ele>272.40000000000003</ele><time>2026-04-25T08:12:08Z</time></trkpt><trkpt lat="43.8229647217888" lon="12.633628336771132"><ele>274.2</ele><time>2026-04-25T08:12:09Z</time></trkpt><trkpt lat="43.82290464300716" lon="12.633522503248818"><ele>276.0</ele><time>2026-04-25T08:12:10Z</time></trkpt><trkpt lat="43.82284438661549" lon="12.633418264895658"><ele>276.0</ele><time>2026-04-25T08:12:11Z</time></trkpt><trkpt lat="43.82278735238643" lon="12.633315314242745"><ele>276.0</ele><time>2026-04-25T08:12:12Z</time></trkpt><trkpt lat="43.82273019886814" lon="12.63320766788313"><ele>276.0</ele><time>2026-04-25T08:12:13Z</time></trkpt><trkpt lat="43.82267293201891" lon="12.633096253502421"><ele>276.0</ele><time>2026-04-25T08:12:14Z</time></trkpt><trkpt lat="43.82261816260001" lon="12.632980528351677"><ele>276.0</ele><time>2026-04-25T08:12:15Z</time></trkpt><trkpt lat="43.82255665060386" lon="12.632861282839853"><ele>277.2</ele><time>2026-04-25T08:12:16Z</time></trkpt><trkpt lat="43.822494936190004" lon="12.632744294284226"><ele>278.40000000000003</ele><time>2026-04-25T08:12:17Z</time></trkpt><trkpt lat="43.8224291640787" lon="12.632620539999028"><ele>279.6</ele><time>2026-04-25T08:12:18Z</time></trkpt><trkpt lat="43.82236425086532" lon="12.632500950259084"><ele>280.8</ele><time>2026-04-25T08:12:19Z</time></trkpt><trkpt lat="43.822301443028216" lon="12.63237907460808"><ele>282.0</ele><time>2026-04-25T08:12:20Z</time></trkpt><trkpt lat="43.82223905622682" lon="12.632250971465528"><ele>282.0</ele><time>2026-04-25T08:12:21Z</time></trkpt><trkpt lat="43.822175574035555" lon="12.632130121475845"><ele>282.0</ele><time>2026-04-25T08:12:22Z</time></trkpt><trkpt lat="43.82211201924372" lon="12.632009096796748"><ele>282.0</ele><time>2026-04-25T08:12:23Z</time></trkpt><trkpt lat="43.822041004243474" lon="12.631885910818676"><ele>282.0</ele><time>2026-04-25T08:12:24Z</time></trkpt><trkpt lat="43.82196668070371" lon="12.631747562982767"><ele>282.0</ele><time>2026-04-25T08:12:25Z</time></trkpt><trkpt lat="43.82189292353496" lon="12.6315976737979"><ele>282.0</ele><time>2026-04-25T08:12:25.999Z</time></trkpt><trkpt lat="43.82180692774389" lon="12.63143612591894"><ele>282.0</ele><time>2026-04-25T08:12:26.999Z</time></trkpt><trkpt lat="43.82171318236634" lon="12.631255056835458"><ele>282.0</ele><time>2026-04-25T08:12:27.999Z</time></trkpt><trkpt lat="43.82161785065021" lon="12.63106272175561"><ele>286.0</ele><time>2026-04-25T08:12:28.999Z</time></trkpt><trkpt lat="43.821518680231726" lon="12.630865566917784"><ele>290.0</ele><time>2026-04-25T08:12:29.999Z</time></trkpt><trkpt lat="43.82141615894441" lon="12.630666933309813"><ele>294.0</ele><time>2026-04-25T08:12:30.999Z</time></trkpt><trkpt lat="43.8213172294348" lon="12.630478654311215"><ele>293.6666666666667</ele><time>2026-04-25T08:12:31.999Z</time></trkpt><trkpt lat="43.82124864969623" lon="12.630283595271582"><ele>293.33333333333337</ele><time>2026-04-25T08:12:32.999Z</time></trkpt><trkpt lat="43.82117964864528" lon="12.630094571605634"><ele>293.0</ele><time>2026-04-25T08:12:33.999Z</time></trkpt><trkpt lat="43.82112462524875" lon="12.629901214879279"><ele>293.0</ele><time>2026-04-25T08:12:34.999Z</time></trkpt><trkpt lat="43.82108545379254" lon="12.62970005141786"><ele>293.0</ele><time>2026-04-25T08:12:35.999Z</time></trkpt><trkpt lat="43.821064503693805" lon="12.629493494704798"><ele>293.0</ele><time>2026-04-25T08:12:36.999Z</time></trkpt><trkpt lat="43.821032281238615" lon="12.629282132640371"><ele>292.6666666666667</ele><time>2026-04-25T08:12:37.999Z</time></trkpt><trkpt lat="43.821025073321394" lon="12.629069595141178"><ele>292.3333333333333</ele><time>2026-04-25T08:12:38.999Z</time></trkpt><trkpt lat="43.8210222501772" lon="12.628857512438996"><ele>292.0</ele><time>2026-04-25T08:12:39.999Z</time></trkpt><trkpt lat="43.821019959667716" lon="12.62865059599907"><ele>292.66666666666663</ele><time>2026-04-25T08:12:40.999Z</time></trkpt><trkpt lat="43.82102878096927" lon="12.62841669882556"><ele>293.3333333333333</ele><time>2026-04-25T08:12:41.999Z</time></trkpt><trkpt lat="43.82103092745517" lon="12.628208135211482"><ele>294.0</ele><time>2026-04-25T08:12:42.999Z</time></trkpt><trkpt lat="43.821019420980484" lon="12.627990847467537"><ele>296.3333333333333</ele><time>2026-04-25T08:12:43.999Z</time></trkpt><trkpt lat="43.82099218716796" lon="12.627755982931907"><ele>298.66666666666663</ele><time>2026-04-25T08:12:44.999Z</time></trkpt><trkpt lat="43.82096541321208" lon="12.627518444004997"><ele>301.0</ele><time>2026-04-25T08:12:45.999Z</time></trkpt><trkpt lat="43.8209806397522" lon="12.627285701218662"><ele>301.0</ele><time>2026-04-25T08:12:46.999Z</time></trkpt><trkpt lat="43.82100622414171" lon="12.627093401468786"><ele>301.0</ele><time>2026-04-25T08:12:47.999Z</time></trkpt><trkpt lat="43.82106588489647" lon="12.626920510808576"><ele>301.0</ele><time>2026-04-25T08:12:48.999Z</time></trkpt><trkpt lat="43.82111342223991" lon="12.626730815920698"><ele>301.0</ele><time>2026-04-25T08:12:49.999Z</time></trkpt><trkpt lat="43.821158468885514" lon="12.626545472377341"><ele>305.66666666666663</ele><time>2026-04-25T08:12:50.999Z</time></trkpt><trkpt lat="43.82116644579154" lon="12.626331712671123"><ele>310.3333333333333</ele><time>2026-04-25T08:12:51.999Z</time></trkpt><trkpt lat="43.82116333657236" lon="12.6261078435753"><ele>315.0</ele><time>2026-04-25T08:12:52.999Z</time></trkpt><trkpt lat="43.82116394277413" lon="12.62589968186859"><ele>316.6</ele><time>2026-04-25T08:12:53.999Z</time></trkpt><trkpt lat="43.82116076544971" lon="12.625714268942318"><ele>318.2</ele><time>2026-04-25T08:12:54.999Z</time></trkpt><trkpt lat="43.82114461064805" lon="12.625557532972955"><ele>319.79999999999995</ele><time>2026-04-25T08:12:55.999Z</time></trkpt><trkpt lat="43.821114926118874" lon="12.625438756168855"><ele>321.4</ele><time>2026-04-25T08:12:56.999Z</time></trkpt><trkpt lat="43.82107649172766" lon="12.625360608162346"><ele>323.0</ele><time>2026-04-25T08:12:57.999Z</time></trkpt><trkpt lat="43.821026974977705" lon="12.625285028684033"><ele>322.59999999999997</ele><time>2026-04-25T08:13:00Z</time></trkpt><trkpt lat="43.820945696343706" lon="12.62539854831569"><ele>322.2</ele><time>2026-04-25T08:13:03Z</time></trkpt><trkpt lat="43.82091774483612" lon="12.625518139123702"><ele>321.8</ele><time>2026-04-25T08:13:05Z</time></trkpt><trkpt lat="43.82085607546443" lon="12.625669239848923"><ele>321.4</ele><time>2026-04-25T08:13:07Z</time></trkpt><trkpt lat="43.820794098118846" lon="12.625806858601463"><ele>321.0</ele><time>2026-04-25T08:13:09Z</time></trkpt><trkpt lat="43.82073343483014" lon="12.625948601265833"><ele>321.0</ele><time>2026-04-25T08:13:11Z</time></trkpt><trkpt lat="43.82069612975994" lon="12.6260561627794"><ele>321.0</ele><time>2026-04-25T08:13:12Z</time></trkpt><trkpt lat="43.82063837643117" lon="12.626191078013953"><ele>321.0</ele><time>2026-04-25T08:13:13Z</time></trkpt><trkpt lat="43.8205685034375" lon="12.626344054558153"><ele>321.0</ele><time>2026-04-25T08:13:14Z</time></trkpt><trkpt lat="43.82048974517962" lon="12.626507109683967"><ele>320.75</ele><time>2026-04-25T08:13:15Z</time></trkpt><trkpt lat="43.82039751304464" lon="12.626671120524483"><ele>320.5</ele><time>2026-04-25T08:13:16Z</time></trkpt><trkpt lat="43.820289377396314" lon="12.626822841855914"><ele>320.25</ele><time>2026-04-25T08:13:17Z</time></trkpt><trkpt lat="43.820174488992485" lon="12.62694570600839"><ele>320.0</ele><time>2026-04-25T08:13:18Z</time></trkpt><trkpt lat="43.82005243951947" lon="12.627063750787777"><ele>319.25</ele><time>2026-04-25T08:13:19Z</time></trkpt><trkpt lat="43.81992868475509" lon="12.62717849435086"><ele>318.5</ele><time>2026-04-25T08:13:20Z</time></trkpt><trkpt lat="43.819806211711956" lon="12.627292290192349"><ele>317.75</ele><time>2026-04-25T08:13:21Z</time></trkpt><trkpt lat="43.819680251935324" lon="12.62740832770937"><ele>317.0</ele><time>2026-04-25T08:13:22Z</time></trkpt><trkpt lat="43.81955120197612" lon="12.627521127946167"><ele>317.0</ele><time>2026-04-25T08:13:23Z</time></trkpt><trkpt lat="43.81943062843686" lon="12.627629395190041"><ele>317.0</ele><time>2026-04-25T08:13:24Z</time></trkpt><trkpt lat="43.81931788095551" lon="12.627739850597024"><ele>317.0</ele><time>2026-04-25T08:13:25Z</time></trkpt><trkpt lat="43.819213769504046" lon="12.627861607771315"><ele>317.0</ele><time>2026-04-25T08:13:26Z</time></trkpt><trkpt lat="43.819124950267806" lon="12.62800443576846"><ele>312.6666666666667</ele><time>2026-04-25T08:13:27Z</time></trkpt><trkpt lat="43.819047947220476" lon="12.628188109137993"><ele>308.3333333333333</ele><time>2026-04-25T08:13:28Z</time></trkpt><trkpt lat="43.81899138783269" lon="12.628400970291354"><ele>304.0</ele><time>2026-04-25T08:13:29Z</time></trkpt><trkpt lat="43.81894109272909" lon="12.62862771412945"><ele>302.25</ele><time>2026-04-25T08:13:30Z</time></trkpt><trkpt lat="43.81889986377541" lon="12.628832140440691"><ele>300.5</ele><time>2026-04-25T08:13:31Z</time></trkpt><trkpt lat="43.818859708246165" lon="12.629029705908158"><ele>298.75</ele><time>2026-04-25T08:13:32Z</time></trkpt><trkpt lat="43.8188095760183" lon="12.629205268624721"><ele>297.0</ele><time>2026-04-25T08:13:33Z</time></trkpt><trkpt lat="43.81872854876564" lon="12.62936071288526"><ele>292.3333333333333</ele><time>2026-04-25T08:13:34Z</time></trkpt><trkpt lat="43.81859819936682" lon="12.62947999709411"><ele>287.66666666666663</ele><time>2026-04-25T08:13:35Z</time></trkpt><trkpt lat="43.818434539367196" lon="12.6295328498659"><ele>283.0</ele><time>2026-04-25T08:13:36Z</time></trkpt><trkpt lat="43.81827096149594" lon="12.629616038303359"><ele>283.0</ele><time>2026-04-25T08:13:37Z</time></trkpt><trkpt lat="43.81810668652897" lon="12.629676204663701"><ele>283.0</ele><time>2026-04-25T08:13:38Z</time></trkpt><trkpt lat="43.81793909265812" lon="12.629737084378709"><ele>283.0</ele><time>2026-04-25T08:13:39Z</time></trkpt><trkpt lat="43.81777834599239" lon="12.629798839481285"><ele>285.0</ele><time>2026-04-25T08:13:40Z</time></trkpt><trkpt lat="43.8176298055465" lon="12.629857869740889"><ele>287.0</ele><time>2026-04-25T08:13:41Z</time></trkpt><trkpt lat="43.8174915885219" lon="12.629915404986965"><ele>289.0</ele><time>2026-04-25T08:13:42Z</time></trkpt><trkpt lat="43.81735687074259" lon="12.6299683951004"><ele>291.0</ele><time>2026-04-25T08:13:43Z</time></trkpt><trkpt lat="43.81721765554214" lon="12.630020335759834"><ele>291.0</ele><time>2026-04-25T08:13:44Z</time></trkpt><trkpt lat="43.81707023334546" lon="12.630074017813161"><ele>291.0</ele><time>2026-04-25T08:13:45Z</time></trkpt><trkpt lat="43.8169215405518" lon="12.630142362864007"><ele>291.0</ele><time>2026-04-25T08:13:46Z</time></trkpt><trkpt lat="43.816774202046346" lon="12.630191915108965"><ele>290.3333333333333</ele><time>2026-04-25T08:13:47Z</time></trkpt><trkpt lat="43.816625052113466" lon="12.630242164743017"><ele>289.66666666666663</ele><time>2026-04-25T08:13:48Z</time></trkpt><trkpt lat="43.81647862661727" lon="12.630302904813393"><ele>289.0</ele><time>2026-04-25T08:13:49Z</time></trkpt><trkpt lat="43.816329756587926" lon="12.630365450892672"><ele>286.3333333333333</ele><time>2026-04-25T08:13:50Z</time></trkpt><trkpt lat="43.81618661959382" lon="12.630421832605094"><ele>283.6666666666667</ele><time>2026-04-25T08:13:51Z</time></trkpt><trkpt lat="43.81604176376142" lon="12.63047649087705"><ele>281.0</ele><time>2026-04-25T08:13:52Z</time></trkpt><trkpt lat="43.81589618264523" lon="12.630536671816554"><ele>281.0</ele><time>2026-04-25T08:13:53Z</time></trkpt><trkpt lat="43.815742604259384" lon="12.630596748145441"><ele>281.0</ele><time>2026-04-25T08:13:54Z</time></trkpt><trkpt lat="43.81558687935068" lon="12.63065410659949"><ele>281.0</ele><time>2026-04-25T08:13:55Z</time></trkpt><trkpt lat="43.81543200682708" lon="12.630718687352198"><ele>281.0</ele><time>2026-04-25T08:13:56Z</time></trkpt><trkpt lat="43.81527396403383" lon="12.630793380178151"><ele>281.0</ele><time>2026-04-25T08:13:57Z</time></trkpt><trkpt lat="43.81512796581584" lon="12.630885798220998"><ele>281.0</ele><time>2026-04-25T08:13:58Z</time></trkpt><trkpt lat="43.81498877746033" lon="12.630995104250294"><ele>278.6666666666667</ele><time>2026-04-25T08:13:59Z</time></trkpt><trkpt lat="43.81485877841085" lon="12.63112054748713"><ele>276.3333333333333</ele><time>2026-04-25T08:14:00Z</time></trkpt><trkpt lat="43.814729751148505" lon="12.631250184469598"><ele>274.0</ele><time>2026-04-25T08:14:01Z</time></trkpt><trkpt lat="43.81460567322899" lon="12.631364237850406"><ele>274.0</ele><time>2026-04-25T08:14:02Z</time></trkpt><trkpt lat="43.81449538034415" lon="12.631443442091257"><ele>274.0</ele><time>2026-04-25T08:14:03Z</time></trkpt><trkpt lat="43.814384960445295" lon="12.63144488282548"><ele>274.0</ele><time>2026-04-25T08:14:04Z</time></trkpt><trkpt lat="43.81428039704861" lon="12.631404751162664"><ele>274.0</ele><time>2026-04-25T08:14:05Z</time></trkpt><trkpt lat="43.8141811140764" lon="12.631324709350142"><ele>278.4</ele><time>2026-04-25T08:14:06Z</time></trkpt><trkpt lat="43.81413957598756" lon="12.631177333759716"><ele>282.79999999999995</ele><time>2026-04-25T08:14:07Z</time></trkpt><trkpt lat="43.814095102211766" lon="12.63102256763269"><ele>287.20000000000005</ele><time>2026-04-25T08:14:08Z</time></trkpt><trkpt lat="43.814035814590454" lon="12.630913131970166"><ele>291.6</ele><time>2026-04-25T08:14:09Z</time></trkpt><trkpt lat="43.81396852917445" lon="12.630875668265423"><ele>296.0</ele><time>2026-04-25T08:14:10Z</time></trkpt><trkpt lat="43.81389181454771" lon="12.630904341552997"><ele>296.0</ele><time>2026-04-25T08:14:11Z</time></trkpt><trkpt lat="43.81382605677144" lon="12.631068249052085"><ele>296.0</ele><time>2026-04-25T08:14:12Z</time></trkpt><trkpt lat="43.813742407354226" lon="12.631250433770296"><ele>296.0</ele><time>2026-04-25T08:14:13Z</time></trkpt><trkpt lat="43.81362079518661" lon="12.63141705081314"><ele>296.0</ele><time>2026-04-25T08:14:14Z</time></trkpt><trkpt lat="43.81349643087195" lon="12.631518847443196"><ele>296.0</ele><time>2026-04-25T08:14:15Z</time></trkpt><trkpt lat="43.81335464063949" lon="12.63158764849448"><ele>296.0</ele><time>2026-04-25T08:14:16Z</time></trkpt><trkpt lat="43.81321814714677" lon="12.631659892896769"><ele>296.0</ele><time>2026-04-25T08:14:17Z</time></trkpt><trkpt lat="43.81307472219674" lon="12.631697366209393"><ele>301.25</ele><time>2026-04-25T08:14:18Z</time></trkpt><trkpt lat="43.81293806643646" lon="12.63174135793119"><ele>306.5</ele><time>2026-04-25T08:14:19Z</time></trkpt><trkpt lat="43.81280521839606" lon="12.631793219644846"><ele>311.75</ele><time>2026-04-25T08:14:20Z</time></trkpt><trkpt lat="43.812667518290766" lon="12.63185354427106"><ele>317.0</ele><time>2026-04-25T08:14:21Z</time></trkpt><trkpt lat="43.812526592904746" lon="12.631895919322199"><ele>313.5</ele><time>2026-04-25T08:14:22Z</time></trkpt><trkpt lat="43.81238946180519" lon="12.631943951483885"><ele>310.0</ele><time>2026-04-25T08:14:23Z</time></trkpt><trkpt lat="43.81225558825855" lon="12.631997343212161"><ele>306.5</ele><time>2026-04-25T08:14:24Z</time></trkpt><trkpt lat="43.81212809182047" lon="12.632044522027542"><ele>303.0</ele><time>2026-04-25T08:14:25Z</time></trkpt><trkpt lat="43.811998551295176" lon="12.632074398387903"><ele>303.0</ele><time>2026-04-25T08:14:26Z</time></trkpt><trkpt lat="43.81186195912427" lon="12.6320776440279"><ele>303.0</ele><time>2026-04-25T08:14:27Z</time></trkpt><trkpt lat="43.81174240521212" lon="12.632073037847384"><ele>303.0</ele><time>2026-04-25T08:14:28Z</time></trkpt><trkpt lat="43.811634140246134" lon="12.632076328185901"><ele>303.0</ele><time>2026-04-25T08:14:29Z</time></trkpt><trkpt lat="43.81153680849623" lon="12.632074442527538"><ele>306.8333333333333</ele><time>2026-04-25T08:14:30Z</time></trkpt><trkpt lat="43.81145313494965" lon="12.632074489034748"><ele>310.6666666666667</ele><time>2026-04-25T08:14:31Z</time></trkpt><trkpt lat="43.81138754330804" lon="12.63211457821742"><ele>314.5</ele><time>2026-04-25T08:14:32Z</time></trkpt><trkpt lat="43.811322258007145" lon="12.632088156027097"><ele>318.33333333333337</ele><time>2026-04-25T08:14:33Z</time></trkpt><trkpt lat="43.81124171473597" lon="12.632061753453193"><ele>322.1666666666667</ele><time>2026-04-25T08:14:35Z</time></trkpt><trkpt lat="43.811176609437595" lon="12.632082782496592"><ele>326.0</ele><time>2026-04-25T08:14:38Z</time></trkpt><trkpt lat="43.81111230925582" lon="12.632014907632676"><ele>326.0</ele><time>2026-04-25T08:14:39Z</time></trkpt><trkpt lat="43.81101654323389" lon="12.632080822301369"><ele>326.0</ele><time>2026-04-25T08:14:40.999Z</time></trkpt><trkpt lat="43.81090237519011" lon="12.632142942736502"><ele>326.0</ele><time>2026-04-25T08:14:42.999Z</time></trkpt><trkpt lat="43.81078994450213" lon="12.63220288883533"><ele>326.0</ele><time>2026-04-25T08:14:44.999Z</time></trkpt><trkpt lat="43.81067034982705" lon="12.63222358486308"><ele>326.6</ele><time>2026-04-25T08:14:46.999Z</time></trkpt><trkpt lat="43.810580417636885" lon="12.632091843563096"><ele>327.20000000000005</ele><time>2026-04-25T08:14:48.999Z</time></trkpt><trkpt lat="43.810578366353155" lon="12.632004283561265"><ele>327.79999999999995</ele><time>2026-04-25T08:14:49.999Z</time></trkpt><trkpt lat="43.8106356943999" lon="12.631841454084439"><ele>328.4</ele><time>2026-04-25T08:14:51.999Z</time></trkpt><trkpt lat="43.81067853770476" lon="12.631730028088409"><ele>329.0</ele><time>2026-04-25T08:14:52.999Z</time></trkpt><trkpt lat="43.810734102132066" lon="12.631630000488464"><ele>329.0</ele><time>2026-04-25T08:14:53.999Z</time></trkpt><trkpt lat="43.810796257520984" lon="12.631522272622298"><ele>329.0</ele><time>2026-04-25T08:14:54.999Z</time></trkpt><trkpt lat="43.81086190453056" lon="12.631407352095325"><ele>329.0</ele><time>2026-04-25T08:14:55.999Z</time></trkpt><trkpt lat="43.8109330613403" lon="12.631284381247212"><ele>329.0</ele><time>2026-04-25T08:14:56.999Z</time></trkpt><trkpt lat="43.81100859418797" lon="12.631164545465081"><ele>329.0</ele><time>2026-04-25T08:14:57.999Z</time></trkpt><trkpt lat="43.81108870622642" lon="12.631034218315468"><ele>330.25</ele><time>2026-04-25T08:14:58.999Z</time></trkpt><trkpt lat="43.81118717619021" lon="12.630905428696826"><ele>331.5</ele><time>2026-04-25T08:14:59.999Z</time></trkpt><trkpt lat="43.81124378461629" lon="12.630734649228831"><ele>332.75</ele><time>2026-04-25T08:15:00.999Z</time></trkpt><trkpt lat="43.81131221651731" lon="12.63058485353979"><ele>334.0</ele><time>2026-04-25T08:15:01.999Z</time></trkpt><trkpt lat="43.81137587952742" lon="12.63043348341518"><ele>330.75</ele><time>2026-04-25T08:15:02.999Z</time></trkpt><trkpt lat="43.81145153940137" lon="12.630295904099382"><ele>327.5</ele><time>2026-04-25T08:15:03.999Z</time></trkpt><trkpt lat="43.81149434956443" lon="12.630138587224398"><ele>324.25</ele><time>2026-04-25T08:15:05Z</time></trkpt><trkpt lat="43.81155309502492" lon="12.62999397889794"><ele>321.0</ele><time>2026-04-25T08:15:06Z</time></trkpt><trkpt lat="43.81160934259582" lon="12.629849729594348"><ele>321.0</ele><time>2026-04-25T08:15:07Z</time></trkpt><trkpt lat="43.81166277252332" lon="12.629703913721842"><ele>321.0</ele><time>2026-04-25T08:15:08Z</time></trkpt><trkpt lat="43.811714800764285" lon="12.629556889209436"><ele>321.0</ele><time>2026-04-25T08:15:09Z</time></trkpt><trkpt lat="43.81176341021934" lon="12.629407200665735"><ele>321.0</ele><time>2026-04-25T08:15:10Z</time></trkpt><trkpt lat="43.81182888191848" lon="12.62926721547371"><ele>320.25</ele><time>2026-04-25T08:15:11Z</time></trkpt><trkpt lat="43.81188063728867" lon="12.629114478260952"><ele>319.5</ele><time>2026-04-25T08:15:12Z</time></trkpt><trkpt lat="43.811910873722766" lon="12.628950482706653"><ele>318.75</ele><time>2026-04-25T08:15:13Z</time></trkpt><trkpt lat="43.811956217269554" lon="12.62879499399633"><ele>318.0</ele><time>2026-04-25T08:15:14Z</time></trkpt><trkpt lat="43.81200654817172" lon="12.628616752071895"><ele>315.0</ele><time>2026-04-25T08:15:15Z</time></trkpt><trkpt lat="43.81205991260459" lon="12.628414945846687"><ele>312.0</ele><time>2026-04-25T08:15:16Z</time></trkpt><trkpt lat="43.81212356132178" lon="12.628204481604335"><ele>309.0</ele><time>2026-04-25T08:15:17Z</time></trkpt><trkpt lat="43.812196446321764" lon="12.62800329932209"><ele>309.0</ele><time>2026-04-25T08:15:18Z</time></trkpt><trkpt lat="43.81227580870356" lon="12.627817095847247"><ele>309.0</ele><time>2026-04-25T08:15:19Z</time></trkpt><trkpt lat="43.81236332019127" lon="12.627636468540413"><ele>309.0</ele><time>2026-04-25T08:15:20Z</time></trkpt><trkpt lat="43.81245330956628" lon="12.627476186388709"><ele>307.5</ele><time>2026-04-25T08:15:21Z</time></trkpt><trkpt lat="43.812538422134395" lon="12.627377407423587"><ele>306.0</ele><time>2026-04-25T08:15:22Z</time></trkpt><trkpt lat="43.812617362107545" lon="12.627311444891518"><ele>304.5</ele><time>2026-04-25T08:15:23Z</time></trkpt><trkpt lat="43.81267739135444" lon="12.627250615014367"><ele>303.0</ele><time>2026-04-25T08:15:24Z</time></trkpt><trkpt lat="43.81269246193466" lon="12.62716332053521"><ele>301.5</ele><time>2026-04-25T08:15:25Z</time></trkpt><trkpt lat="43.8126595075211" lon="12.627074421564048"><ele>300.0</ele><time>2026-04-25T08:15:26Z</time></trkpt><trkpt lat="43.812582399735454" lon="12.627036135151"><ele>300.0</ele><time>2026-04-25T08:15:27Z</time></trkpt><trkpt lat="43.81247271733788" lon="12.627049320898724"><ele>300.0</ele><time>2026-04-25T08:15:28Z</time></trkpt><trkpt lat="43.81235029457497" lon="12.627091537570665"><ele>300.0</ele><time>2026-04-25T08:15:29Z</time></trkpt><trkpt lat="43.81220825874432" lon="12.627119714516175"><ele>300.0</ele><time>2026-04-25T08:15:30Z</time></trkpt><trkpt lat="43.81205894993595" lon="12.627157895786507"><ele>300.0</ele><time>2026-04-25T08:15:31Z</time></trkpt><trkpt lat="43.81191457626969" lon="12.627117766542101"><ele>300.0</ele><time>2026-04-25T08:15:32Z</time></trkpt><trkpt lat="43.811776707445965" lon="12.62704665693051"><ele>300.0</ele><time>2026-04-25T08:15:33Z</time></trkpt><trkpt lat="43.81165099504139" lon="12.626956896822495"><ele>300.0</ele><time>2026-04-25T08:15:34Z</time></trkpt><trkpt lat="43.81153751294365" lon="12.626855524394012"><ele>295.0</ele><time>2026-04-25T08:15:35Z</time></trkpt><trkpt lat="43.811439292443865" lon="12.626738486411638"><ele>290.0</ele><time>2026-04-25T08:15:36Z</time></trkpt><trkpt lat="43.81136707079899" lon="12.626598739600006"><ele>285.0</ele><time>2026-04-25T08:15:37Z</time></trkpt><trkpt lat="43.811331069272896" lon="12.62643964369554"><ele>280.0</ele><time>2026-04-25T08:15:38Z</time></trkpt><trkpt lat="43.81132846134799" lon="12.626268374022494"><ele>278.5</ele><time>2026-04-25T08:15:39Z</time></trkpt><trkpt lat="43.81135195808657" lon="12.626100284816303"><ele>277.0</ele><time>2026-04-25T08:15:40Z</time></trkpt><trkpt lat="43.81136958025675" lon="12.625932232173929"><ele>275.5</ele><time>2026-04-25T08:15:41Z</time></trkpt><trkpt lat="43.81136058660244" lon="12.625758721191811"><ele>274.0</ele><time>2026-04-25T08:15:42Z</time></trkpt><trkpt lat="43.81133465508053" lon="12.625584287414458"><ele>274.0</ele><time>2026-04-25T08:15:43Z</time></trkpt><trkpt lat="43.81129794826548" lon="12.625410311659156"><ele>274.0</ele><time>2026-04-25T08:15:44Z</time></trkpt><trkpt lat="43.811253968421205" lon="12.625239779212595"><ele>274.0</ele><time>2026-04-25T08:15:45Z</time></trkpt><trkpt lat="43.811203406751055" lon="12.625065046885862"><ele>274.0</ele><time>2026-04-25T08:15:46Z</time></trkpt><trkpt lat="43.81115320331864" lon="12.624883762607341"><ele>272.25</ele><time>2026-04-25T08:15:47Z</time></trkpt><trkpt lat="43.811110140453145" lon="12.624696370745195"><ele>270.5</ele><time>2026-04-25T08:15:48Z</time></trkpt><trkpt lat="43.81106988081335" lon="12.624519399561521"><ele>268.75</ele><time>2026-04-25T08:15:49Z</time></trkpt><trkpt lat="43.81101736901585" lon="12.624351880497828"><ele>267.0</ele><time>2026-04-25T08:15:50Z</time></trkpt><trkpt lat="43.810941069563015" lon="12.624193128599735"><ele>267.0</ele><time>2026-04-25T08:15:51Z</time></trkpt><trkpt lat="43.810843867139496" lon="12.624057755566785"><ele>267.0</ele><time>2026-04-25T08:15:52Z</time></trkpt><trkpt lat="43.810736670029335" lon="12.623943649041964"><ele>267.0</ele><time>2026-04-25T08:15:53Z</time></trkpt><trkpt lat="43.81063353066842" lon="12.62383914860025"><ele>267.0</ele><time>2026-04-25T08:15:54Z</time></trkpt><trkpt lat="43.810533899822246" lon="12.623715255119238"><ele>265.0</ele><time>2026-04-25T08:15:55Z</time></trkpt><trkpt lat="43.810436232699736" lon="12.623569632788909"><ele>263.0</ele><time>2026-04-25T08:15:56Z</time></trkpt><trkpt lat="43.810339481882345" lon="12.623418214876564"><ele>261.0</ele><time>2026-04-25T08:15:57Z</time></trkpt><trkpt lat="43.81025070658065" lon="12.623267557085219"><ele>259.0</ele><time>2026-04-25T08:15:58Z</time></trkpt><trkpt lat="43.810158518832814" lon="12.623122445136891"><ele>257.75</ele><time>2026-04-25T08:15:59Z</time></trkpt><trkpt lat="43.810076775803516" lon="12.622953856688788"><ele>256.5</ele><time>2026-04-25T08:16:00Z</time></trkpt><trkpt lat="43.80999689111646" lon="12.622778987906319"><ele>255.25</ele><time>2026-04-25T08:16:01Z</time></trkpt><trkpt lat="43.809919280293244" lon="12.622602469498275"><ele>254.0</ele><time>2026-04-25T08:16:02Z</time></trkpt><trkpt lat="43.809842732561975" lon="12.622426002294374"><ele>254.0</ele><time>2026-04-25T08:16:03Z</time></trkpt><trkpt lat="43.80976694649692" lon="12.622245063824492"><ele>254.0</ele><time>2026-04-25T08:16:04Z</time></trkpt><trkpt lat="43.809691493314155" lon="12.622066264294075"><ele>254.0</ele><time>2026-04-25T08:16:05Z</time></trkpt><trkpt lat="43.809611734454414" lon="12.621891952578094"><ele>254.0</ele><time>2026-04-25T08:16:06Z</time></trkpt><trkpt lat="43.80952223139768" lon="12.621721209158233"><ele>251.33333333333334</ele><time>2026-04-25T08:16:07Z</time></trkpt><trkpt lat="43.80942436993118" lon="12.621560646677235"><ele>248.66666666666669</ele><time>2026-04-25T08:16:08Z</time></trkpt><trkpt lat="43.80933159520506" lon="12.621391965553903"><ele>246.0</ele><time>2026-04-25T08:16:09Z</time></trkpt><trkpt lat="43.809206538136905" lon="12.62126152169678"><ele>243.66666666666669</ele><time>2026-04-25T08:16:10Z</time></trkpt><trkpt lat="43.80909289055716" lon="12.621119333810714"><ele>241.33333333333334</ele><time>2026-04-25T08:16:11Z</time></trkpt><trkpt lat="43.80897628383859" lon="12.620977421301793"><ele>239.0</ele><time>2026-04-25T08:16:12Z</time></trkpt><trkpt lat="43.808860248991415" lon="12.620846480033942"><ele>239.0</ele><time>2026-04-25T08:16:13Z</time></trkpt><trkpt lat="43.80873037585485" lon="12.62075581531098"><ele>239.0</ele><time>2026-04-25T08:16:14Z</time></trkpt><trkpt lat="43.80858530283653" lon="12.620722449291044"><ele>239.0</ele><time>2026-04-25T08:16:15Z</time></trkpt><trkpt lat="43.80844457725141" lon="12.620726872423303"><ele>239.0</ele><time>2026-04-25T08:16:16Z</time></trkpt><trkpt lat="43.8083111376274" lon="12.620714282886482"><ele>236.2</ele><time>2026-04-25T08:16:17Z</time></trkpt><trkpt lat="43.80819452928958" lon="12.620656496955354"><ele>233.39999999999998</ele><time>2026-04-25T08:16:18Z</time></trkpt><trkpt lat="43.80811342217009" lon="12.6205610801587"><ele>230.6</ele><time>2026-04-25T08:16:19Z</time></trkpt><trkpt lat="43.80806693180996" lon="12.620441865700679"><ele>227.8</ele><time>2026-04-25T08:16:20Z</time></trkpt><trkpt lat="43.808072299879264" lon="12.620317849451236"><ele>225.0</ele><time>2026-04-25T08:16:21Z</time></trkpt><trkpt lat="43.808125384468205" lon="12.62020471009575"><ele>225.4</ele><time>2026-04-25T08:16:22Z</time></trkpt><trkpt lat="43.80823042521811" lon="12.620151389314127"><ele>225.8</ele><time>2026-04-25T08:16:23Z</time></trkpt><trkpt lat="43.808323605912854" lon="12.620064041537551"><ele>226.2</ele><time>2026-04-25T08:16:24Z</time></trkpt><trkpt lat="43.80840926293015" lon="12.620005106652524"><ele>226.6</ele><time>2026-04-25T08:16:25Z</time></trkpt><trkpt lat="43.80849358036069" lon="12.619939509016003"><ele>227.0</ele><time>2026-04-25T08:16:26Z</time></trkpt><trkpt lat="43.80857934624908" lon="12.619879171537464"><ele>227.0</ele><time>2026-04-25T08:16:27Z</time></trkpt><trkpt lat="43.80865859384226" lon="12.619800531945643"><ele>227.0</ele><time>2026-04-25T08:16:28Z</time></trkpt><trkpt lat="43.80872867845502" lon="12.619690706497256"><ele>227.0</ele><time>2026-04-25T08:16:29Z</time></trkpt><trkpt lat="43.80878999512332" lon="12.619550941394428"><ele>227.0</ele><time>2026-04-25T08:16:30Z</time></trkpt><trkpt lat="43.80884243980477" lon="12.619404977628056"><ele>227.0</ele><time>2026-04-25T08:16:31Z</time></trkpt><trkpt lat="43.808896591971376" lon="12.619267318782356"><ele>224.83333333333334</ele><time>2026-04-25T08:16:32Z</time></trkpt><trkpt lat="43.808945421560736" lon="12.619148666480081"><ele>222.66666666666669</ele><time>2026-04-25T08:16:33Z</time></trkpt><trkpt lat="43.80899326144535" lon="12.619058526497989"><ele>220.5</ele><time>2026-04-25T08:16:34Z</time></trkpt><trkpt lat="43.809001349808554" lon="12.618956418107544"><ele>218.33333333333331</ele><time>2026-04-25T08:16:35Z</time></trkpt><trkpt lat="43.808962742673046" lon="12.61887293724667"><ele>216.16666666666666</ele><time>2026-04-25T08:16:36Z</time></trkpt><trkpt lat="43.808857530150185" lon="12.618887072976257"><ele>214.0</ele><time>2026-04-25T08:16:37Z</time></trkpt><trkpt lat="43.80877854566962" lon="12.618888221183658"><ele>213.99999999999997</ele><time>2026-04-25T08:16:38Z</time></trkpt><trkpt lat="43.80871018096471" lon="12.618884856352057"><ele>214.0</ele><time>2026-04-25T08:16:39Z</time></trkpt><trkpt lat="43.8086690984352" lon="12.618799557581612"><ele>214.0</ele><time>2026-04-25T08:16:40Z</time></trkpt><trkpt lat="43.808659556222466" lon="12.618689037661694"><ele>214.0</ele><time>2026-04-25T08:16:41Z</time></trkpt><trkpt lat="43.80867008833603" lon="12.618575832360767"><ele>213.99999999999997</ele><time>2026-04-25T08:16:42Z</time></trkpt><trkpt lat="43.80869599528557" lon="12.618465921599462"><ele>214.0</ele><time>2026-04-25T08:16:43Z</time></trkpt><trkpt lat="43.80877633165501" lon="12.61840459933301"><ele>211.6</ele><time>2026-04-25T08:16:44Z</time></trkpt><trkpt lat="43.808877120908534" lon="12.618400690712289"><ele>209.2</ele><time>2026-04-25T08:16:45Z</time></trkpt><trkpt lat="43.80897942150154" lon="12.618412887319728"><ele>206.79999999999998</ele><time>2026-04-25T08:16:46Z</time></trkpt><trkpt lat="43.80907839720665" lon="12.618438271923708"><ele>204.39999999999998</ele><time>2026-04-25T08:16:47Z</time></trkpt><trkpt lat="43.809177154777686" lon="12.618480982661705"><ele>202.0</ele><time>2026-04-25T08:16:48Z</time></trkpt><trkpt lat="43.80926710244931" lon="12.618513024566054"><ele>199.8</ele><time>2026-04-25T08:16:49Z</time></trkpt><trkpt lat="43.80936324891943" lon="12.618496369098372"><ele>197.6</ele><time>2026-04-25T08:16:50Z</time></trkpt><trkpt lat="43.80944917404259" lon="12.618434019758748"><ele>195.4</ele><time>2026-04-25T08:16:51Z</time></trkpt><trkpt lat="43.80953234274384" lon="12.61834458136181"><ele>193.20000000000002</ele><time>2026-04-25T08:16:52Z</time></trkpt><trkpt lat="43.809552022406976" lon="12.618185398209112"><ele>191.0</ele><time>2026-04-25T08:16:53Z</time></trkpt><trkpt lat="43.80952597976881" lon="12.618042091953713"><ele>191.0</ele><time>2026-04-25T08:16:53.999Z</time></trkpt><trkpt lat="43.80947689750913" lon="12.617915020845698"><ele>191.0</ele><time>2026-04-25T08:16:54.999Z</time></trkpt><trkpt lat="43.80941700649226" lon="12.617812782169558"><ele>191.0</ele><time>2026-04-25T08:16:55.999Z</time></trkpt><trkpt lat="43.809356171621936" lon="12.617720045330541"><ele>191.0</ele><time>2026-04-25T08:16:56.999Z</time></trkpt><trkpt lat="43.8092536054892" lon="12.617699208692363"><ele>191.0</ele><time>2026-04-25T08:16:57.999Z</time></trkpt><trkpt lat="43.80916052979142" lon="12.617690087699247"><ele>191.25</ele><time>2026-04-25T08:16:58.999Z</time></trkpt><trkpt lat="43.80906429335093" lon="12.617706231634457"><ele>191.5</ele><time>2026-04-25T08:16:59.999Z</time></trkpt><trkpt lat="43.80895744420247" lon="12.61772228812863"><ele>191.75</ele><time>2026-04-25T08:17:00.999Z</time></trkpt><trkpt lat="43.808834847718074" lon="12.61770698066991"><ele>192.0</ele><time>2026-04-25T08:17:01.999Z</time></trkpt><trkpt lat="43.80870428304248" lon="12.617727465459316"><ele>192.0</ele><time>2026-04-25T08:17:02.999Z</time></trkpt><trkpt lat="43.808565145844334" lon="12.617740536616868"><ele>192.0</ele><time>2026-04-25T08:17:03.999Z</time></trkpt><trkpt lat="43.80844907578386" lon="12.61778670143273"><ele>192.0</ele><time>2026-04-25T08:17:04.999Z</time></trkpt><trkpt lat="43.80833868861843" lon="12.617871634660315"><ele>192.0</ele><time>2026-04-25T08:17:05.999Z</time></trkpt><trkpt lat="43.80822380878319" lon="12.617966720915641"><ele>192.5</ele><time>2026-04-25T08:17:06.999Z</time></trkpt><trkpt lat="43.80811533008556" lon="12.618062979726949"><ele>193.0</ele><time>2026-04-25T08:17:07.999Z</time></trkpt><trkpt lat="43.80800130112942" lon="12.618123690543179"><ele>193.5</ele><time>2026-04-25T08:17:08.999Z</time></trkpt><trkpt lat="43.80788055911353" lon="12.61815258237602"><ele>194.0</ele><time>2026-04-25T08:17:09.999Z</time></trkpt><trkpt lat="43.80774613988937" lon="12.618156343523546"><ele>190.0</ele><time>2026-04-25T08:17:11Z</time></trkpt><trkpt lat="43.80760846491612" lon="12.618186700306145"><ele>186.0</ele><time>2026-04-25T08:17:12Z</time></trkpt><trkpt lat="43.807472240937" lon="12.618244166183064"><ele>182.0</ele><time>2026-04-25T08:17:13Z</time></trkpt><trkpt lat="43.807339398659096" lon="12.618305246425168"><ele>178.0</ele><time>2026-04-25T08:17:14Z</time></trkpt><trkpt lat="43.807202544459635" lon="12.6183776653975"><ele>178.0</ele><time>2026-04-25T08:17:15Z</time></trkpt><trkpt lat="43.80706313554493" lon="12.618458563486833"><ele>178.0</ele><time>2026-04-25T08:17:16Z</time></trkpt><trkpt lat="43.80692473904998" lon="12.618547638968598"><ele>178.0</ele><time>2026-04-25T08:17:17Z</time></trkpt><trkpt lat="43.80678409963398" lon="12.618647855449776"><ele>176.66666666666669</ele><time>2026-04-25T08:17:18Z</time></trkpt><trkpt lat="43.80664709078454" lon="12.618749828854014"><ele>175.33333333333334</ele><time>2026-04-25T08:17:19Z</time></trkpt><trkpt lat="43.80651164723434" lon="12.618853501644523"><ele>174.0</ele><time>2026-04-25T08:17:20Z</time></trkpt><trkpt lat="43.8063746235015" lon="12.618963340735979"><ele>174.0</ele><time>2026-04-25T08:17:21Z</time></trkpt><trkpt lat="43.806245254023075" lon="12.61908238859869"><ele>174.0</ele><time>2026-04-25T08:17:22Z</time></trkpt><trkpt lat="43.80612174145257" lon="12.619203883698482"><ele>174.0</ele><time>2026-04-25T08:17:23Z</time></trkpt><trkpt lat="43.806004916526255" lon="12.619320030971695"><ele>170.75</ele><time>2026-04-25T08:17:24Z</time></trkpt><trkpt lat="43.80588562202345" lon="12.619432643713841"><ele>167.5</ele><time>2026-04-25T08:17:25Z</time></trkpt><trkpt lat="43.805766529095166" lon="12.619545136903762"><ele>164.25</ele><time>2026-04-25T08:17:26Z</time></trkpt><trkpt lat="43.80564232835635" lon="12.619644872532026"><ele>161.0</ele><time>2026-04-25T08:17:27Z</time></trkpt><trkpt lat="43.805504989165414" lon="12.619689242884576"><ele>161.0</ele><time>2026-04-25T08:17:28Z</time></trkpt><trkpt lat="43.805366456574305" lon="12.61967917130548"><ele>161.0</ele><time>2026-04-25T08:17:29Z</time></trkpt><trkpt lat="43.805233597796" lon="12.619651056108436"><ele>161.0</ele><time>2026-04-25T08:17:30Z</time></trkpt><trkpt lat="43.80511045336712" lon="12.61961705080549"><ele>161.0</ele><time>2026-04-25T08:17:31Z</time></trkpt><trkpt lat="43.804996691697546" lon="12.61958590568959"><ele>158.60000000000002</ele><time>2026-04-25T08:17:32Z</time></trkpt><trkpt lat="43.80488699237444" lon="12.619551530781683"><ele>156.20000000000002</ele><time>2026-04-25T08:17:33Z</time></trkpt><trkpt lat="43.80478317545823" lon="12.619512431594888"><ele>153.8</ele><time>2026-04-25T08:17:34Z</time></trkpt><trkpt lat="43.80468237049857" lon="12.61947251616695"><ele>151.4</ele><time>2026-04-25T08:17:35Z</time></trkpt><trkpt lat="43.80458522614722" lon="12.619433007267245"><ele>149.0</ele><time>2026-04-25T08:17:36Z</time></trkpt><trkpt lat="43.80449530604903" lon="12.619385536341255"><ele>149.0</ele><time>2026-04-25T08:17:37Z</time></trkpt><trkpt lat="43.804411704258875" lon="12.619326171048783"><ele>149.0</ele><time>2026-04-25T08:17:38Z</time></trkpt><trkpt lat="43.804341490383834" lon="12.61924324182912"><ele>149.0</ele><time>2026-04-25T08:17:39Z</time></trkpt><trkpt lat="43.804299533935946" lon="12.61913722159346"><ele>149.0</ele><time>2026-04-25T08:17:40Z</time></trkpt><trkpt lat="43.80429754821617" lon="12.619017843272657"><ele>149.0</ele><time>2026-04-25T08:17:41Z</time></trkpt><trkpt lat="43.80434512718555" lon="12.618907839172806"><ele>149.0</ele><time>2026-04-25T08:17:42Z</time></trkpt><trkpt lat="43.80440802442379" lon="12.61882379660994"><ele>149.0</ele><time>2026-04-25T08:17:43Z</time></trkpt><trkpt lat="43.80446802045173" lon="12.61872567457076"><ele>149.0</ele><time>2026-04-25T08:17:44Z</time></trkpt><trkpt lat="43.804529631439635" lon="12.618624911164057"><ele>149.0</ele><time>2026-04-25T08:17:45Z</time></trkpt><trkpt lat="43.80458865335896" lon="12.618507544087969"><ele>149.0</ele><time>2026-04-25T08:17:46Z</time></trkpt><trkpt lat="43.80465299210319" lon="12.618395382168947"><ele>148.6</ele><time>2026-04-25T08:17:47Z</time></trkpt><trkpt lat="43.80471070704611" lon="12.618277060311415"><ele>148.2</ele><time>2026-04-25T08:17:48Z</time></trkpt><trkpt lat="43.80477457160003" lon="12.618155327683878"><ele>147.79999999999998</ele><time>2026-04-25T08:17:49Z</time></trkpt><trkpt lat="43.8048013827815" lon="12.618001522722382"><ele>147.4</ele><time>2026-04-25T08:17:50Z</time></trkpt><trkpt lat="43.8047973638104" lon="12.617838586906622"><ele>147.0</ele><time>2026-04-25T08:17:51Z</time></trkpt><trkpt lat="43.804784612676265" lon="12.617678550631727"><ele>146.25</ele><time>2026-04-25T08:17:52Z</time></trkpt><trkpt lat="43.804765305629324" lon="12.617520918562986"><ele>145.5</ele><time>2026-04-25T08:17:53Z</time></trkpt><trkpt lat="43.80474388130047" lon="12.617365787895444"><ele>144.75</ele><time>2026-04-25T08:17:54Z</time></trkpt><trkpt lat="43.80472262172063" lon="12.617211820465316"><ele>144.0</ele><time>2026-04-25T08:17:55Z</time></trkpt><trkpt lat="43.804701861536" lon="12.617050040715771"><ele>143.0</ele><time>2026-04-25T08:17:56Z</time></trkpt><trkpt lat="43.80468741428997" lon="12.616884823380284"><ele>142.0</ele><time>2026-04-25T08:17:57Z</time></trkpt><trkpt lat="43.8046762250616" lon="12.616723741336624"><ele>141.0</ele><time>2026-04-25T08:17:58Z</time></trkpt><trkpt lat="43.80466311206933" lon="12.616561352746904"><ele>140.0</ele><time>2026-04-25T08:17:59Z</time></trkpt><trkpt lat="43.80464561027758" lon="12.61640401437405"><ele>140.0</ele><time>2026-04-25T08:18:00Z</time></trkpt><trkpt lat="43.80460054431" lon="12.61625182382528"><ele>140.0</ele><time>2026-04-25T08:18:01Z</time></trkpt><trkpt lat="43.80453437433718" lon="12.616121228900596"><ele>140.0</ele><time>2026-04-25T08:18:02Z</time></trkpt><trkpt lat="43.80442900755935" lon="12.616050481090472"><ele>140.0</ele><time>2026-04-25T08:18:03Z</time></trkpt><trkpt lat="43.80432821940774" lon="12.616022218004225"><ele>139.4</ele><time>2026-04-25T08:18:04Z</time></trkpt><trkpt lat="43.804232719571736" lon="12.616055829046699"><ele>138.8</ele><time>2026-04-25T08:18:05Z</time></trkpt><trkpt lat="43.804150759092146" lon="12.616110629243563"><ele>138.2</ele><time>2026-04-25T08:18:06Z</time></trkpt><trkpt lat="43.80407191571418" lon="12.616177053898067"><ele>137.6</ele><time>2026-04-25T08:18:07Z</time></trkpt><trkpt lat="43.80398925961972" lon="12.616254333800013"><ele>137.0</ele><time>2026-04-25T08:18:08Z</time></trkpt><trkpt lat="43.803902549507974" lon="12.616335523336492"><ele>137.0</ele><time>2026-04-25T08:18:09Z</time></trkpt><trkpt lat="43.80381059005249" lon="12.616416110341977"><ele>137.0</ele><time>2026-04-25T08:18:10Z</time></trkpt><trkpt lat="43.803717711312096" lon="12.616491474986686"><ele>137.0</ele><time>2026-04-25T08:18:11Z</time></trkpt><trkpt lat="43.80362330493359" lon="12.616561386008408"><ele>137.0</ele><time>2026-04-25T08:18:12Z</time></trkpt><trkpt lat="43.80353728170058" lon="12.616615686323293"><ele>137.0</ele><time>2026-04-25T08:18:13Z</time></trkpt><trkpt lat="43.803462893920845" lon="12.616656826508956"><ele>136.0</ele><time>2026-04-25T08:18:14Z</time></trkpt><trkpt lat="43.80340097097127" lon="12.616689908619945"><ele>135.0</ele><time>2026-04-25T08:18:15Z</time></trkpt><trkpt lat="43.803312063375294" lon="12.616723563780665"><ele>134.0</ele><time>2026-04-25T08:18:17Z</time></trkpt><trkpt lat="43.80322921714557" lon="12.616664199188776"><ele>133.0</ele><time>2026-04-25T08:18:19Z</time></trkpt><trkpt lat="43.80313353921376" lon="12.616746264336"><ele>132.0</ele><time>2026-04-25T08:18:20Z</time></trkpt><trkpt lat="43.80305924740021" lon="12.616789508418064"><ele>131.0</ele><time>2026-04-25T08:18:21Z</time></trkpt><trkpt lat="43.80298129138924" lon="12.616843052395112"><ele>131.0</ele><time>2026-04-25T08:18:22Z</time></trkpt><trkpt lat="43.80288879154598" lon="12.616892426430143"><ele>131.0</ele><time>2026-04-25T08:18:23Z</time></trkpt><trkpt lat="43.80279268970868" lon="12.616938969254754"><ele>131.0</ele><time>2026-04-25T08:18:24Z</time></trkpt><trkpt lat="43.80269183856415" lon="12.616993986415595"><ele>131.0</ele><time>2026-04-25T08:18:25Z</time></trkpt><trkpt lat="43.8025903191633" lon="12.617047254780603"><ele>131.0</ele><time>2026-04-25T08:18:26Z</time></trkpt><trkpt lat="43.80248608066187" lon="12.617101657539052"><ele>131.0</ele><time>2026-04-25T08:18:27Z</time></trkpt><trkpt lat="43.80238136913603" lon="12.617164766595518"><ele>131.0</ele><time>2026-04-25T08:18:28Z</time></trkpt><trkpt lat="43.80227910966327" lon="12.617231772350983"><ele>131.0</ele><time>2026-04-25T08:18:29Z</time></trkpt><trkpt lat="43.802185546655096" lon="12.617308992809477"><ele>131.0</ele><time>2026-04-25T08:18:30Z</time></trkpt><trkpt lat="43.80209672716834" lon="12.617399982558641"><ele>131.0</ele><time>2026-04-25T08:18:31Z</time></trkpt><trkpt lat="43.802008768990525" lon="12.617503494579271"><ele>131.0</ele><time>2026-04-25T08:18:32Z</time></trkpt><trkpt lat="43.801922462026134" lon="12.61762230576944"><ele>131.0</ele><time>2026-04-25T08:18:33Z</time></trkpt><trkpt lat="43.80183836484492" lon="12.617744500802681"><ele>131.0</ele><time>2026-04-25T08:18:34Z</time></trkpt><trkpt lat="43.80175314237416" lon="12.617862089969876"><ele>131.0</ele><time>2026-04-25T08:18:35Z</time></trkpt><trkpt lat="43.80166301634038" lon="12.617976995737331"><ele>129.75</ele><time>2026-04-25T08:18:36Z</time></trkpt><trkpt lat="43.80157049599649" lon="12.618095868079154"><ele>128.5</ele><time>2026-04-25T08:18:37Z</time></trkpt><trkpt lat="43.80147232487893" lon="12.618213096144604"><ele>127.25</ele><time>2026-04-25T08:18:38Z</time></trkpt><trkpt lat="43.8013657697637" lon="12.618315734870205"><ele>126.0</ele><time>2026-04-25T08:18:39Z</time></trkpt><trkpt lat="43.80125611781882" lon="12.618405735125071"><ele>126.0</ele><time>2026-04-25T08:18:40Z</time></trkpt><trkpt lat="43.80114149654277" lon="12.61848795218468"><ele>126.0</ele><time>2026-04-25T08:18:41Z</time></trkpt><trkpt lat="43.80102227891676" lon="12.618559415629832"><ele>126.0</ele><time>2026-04-25T08:18:42Z</time></trkpt><trkpt lat="43.800908037445446" lon="12.618623285541616"><ele>126.0</ele><time>2026-04-25T08:18:43Z</time></trkpt><trkpt lat="43.80079845212745" lon="12.618672349603548"><ele>125.6</ele><time>2026-04-25T08:18:44Z</time></trkpt><trkpt lat="43.800699078305996" lon="12.618716898357066"><ele>125.19999999999999</ele><time>2026-04-25T08:18:45Z</time></trkpt><trkpt lat="43.80061226443143" lon="12.618761209162258"><ele>124.80000000000001</ele><time>2026-04-25T08:18:46Z</time></trkpt><trkpt lat="43.80052423831846" lon="12.61879529635163"><ele>124.4</ele><time>2026-04-25T08:18:47Z</time></trkpt><trkpt lat="43.80043775876901" lon="12.618819214561904"><ele>124.0</ele><time>2026-04-25T08:18:48Z</time></trkpt><trkpt lat="43.80035898481395" lon="12.618836902569246"><ele>124.00000000000001</ele><time>2026-04-25T08:18:49Z</time></trkpt><trkpt lat="43.80028955997946" lon="12.618845970309327"><ele>124.0</ele><time>2026-04-25T08:18:50Z</time></trkpt><trkpt lat="43.8002004995154" lon="12.618851719079649"><ele>124.0</ele><time>2026-04-25T08:18:52Z</time></trkpt><trkpt lat="43.80013002179567" lon="12.618856302523909"><ele>124.0</ele><time>2026-04-25T08:19:05Z</time></trkpt><trkpt lat="43.800001920240604" lon="12.618880222180524"><ele>124.00000000000001</ele><time>2026-04-25T08:19:07Z</time></trkpt><trkpt lat="43.79991811478808" lon="12.618886122694427"><ele>124.0</ele><time>2026-04-25T08:19:08Z</time></trkpt><trkpt lat="43.79983042205178" lon="12.61890071075558"><ele>123.2</ele><time>2026-04-25T08:19:09Z</time></trkpt><trkpt lat="43.79973041078466" lon="12.618911364419077"><ele>122.4</ele><time>2026-04-25T08:19:09.999Z</time></trkpt><trkpt lat="43.799630651947936" lon="12.618918437543226"><ele>121.6</ele><time>2026-04-25T08:19:10.999Z</time></trkpt><trkpt lat="43.79951939723977" lon="12.61893545171134"><ele>120.8</ele><time>2026-04-25T08:19:11.999Z</time></trkpt><trkpt lat="43.79940575498995" lon="12.618953144573341"><ele>120.0</ele><time>2026-04-25T08:19:12.999Z</time></trkpt><trkpt lat="43.7993002947104" lon="12.618967284213952"><ele>119.5</ele><time>2026-04-25T08:19:13.999Z</time></trkpt><trkpt lat="43.79918950599513" lon="12.618981796858336"><ele>119.0</ele><time>2026-04-25T08:19:14.999Z</time></trkpt><trkpt lat="43.799076434321265" lon="12.618994647849707"><ele>118.5</ele><time>2026-04-25T08:19:15.999Z</time></trkpt><trkpt lat="43.798962168909846" lon="12.61901050698013"><ele>118.0</ele><time>2026-04-25T08:19:17Z</time></trkpt><trkpt lat="43.79884926944032" lon="12.619025959821682"><ele>118.0</ele><time>2026-04-25T08:19:18Z</time></trkpt><trkpt lat="43.79873513307645" lon="12.61903824403954"><ele>118.00000000000001</ele><time>2026-04-25T08:19:19Z</time></trkpt><trkpt lat="43.79862787916728" lon="12.619053970580298"><ele>118.00000000000001</ele><time>2026-04-25T08:19:20Z</time></trkpt><trkpt lat="43.798537378736576" lon="12.61908389790712"><ele>118.0</ele><time>2026-04-25T08:19:21Z</time></trkpt><trkpt lat="43.79844441601604" lon="12.619060403116917"><ele>118.0</ele><time>2026-04-25T08:19:22Z</time></trkpt><trkpt lat="43.79836973751274" lon="12.619082578784198"><ele>117.60000000000001</ele><time>2026-04-25T08:19:23Z</time></trkpt><trkpt lat="43.798301330536006" lon="12.619024766765593"><ele>117.20000000000002</ele><time>2026-04-25T08:19:24Z</time></trkpt><trkpt lat="43.79821782185405" lon="12.618943013784802"><ele>116.8</ele><time>2026-04-25T08:19:26Z</time></trkpt><trkpt lat="43.79814379746422" lon="12.618907669094922"><ele>116.4</ele><time>2026-04-25T08:19:32.999Z</time></trkpt><trkpt lat="43.79803661007245" lon="12.618863027868853"><ele>116.0</ele><time>2026-04-25T08:19:34.999Z</time></trkpt><trkpt lat="43.797943829787236" lon="12.618822299188157"><ele>116.0</ele><time>2026-04-25T08:19:35.999Z</time></trkpt><trkpt lat="43.79784067985578" lon="12.618773049124654"><ele>116.0</ele><time>2026-04-25T08:19:36.999Z</time></trkpt><trkpt lat="43.797733698955525" lon="12.618723577471426"><ele>116.0</ele><time>2026-04-25T08:19:37.999Z</time></trkpt><trkpt lat="43.79761273173896" lon="12.618682788914716"><ele>116.0</ele><time>2026-04-25T08:19:38.999Z</time></trkpt><trkpt lat="43.79747875631886" lon="12.618655544847034"><ele>115.25</ele><time>2026-04-25T08:19:39.999Z</time></trkpt><trkpt lat="43.79733605314202" lon="12.618641572018044"><ele>114.5</ele><time>2026-04-25T08:19:40.999Z</time></trkpt><trkpt lat="43.79718373767081" lon="12.618635257391173"><ele>113.75</ele><time>2026-04-25T08:19:41.999Z</time></trkpt><trkpt lat="43.79703252320434" lon="12.618634624709845"><ele>113.0</ele><time>2026-04-25T08:19:42.999Z</time></trkpt><trkpt lat="43.79687766220442" lon="12.618637333653481"><ele>112.25</ele><time>2026-04-25T08:19:43.999Z</time></trkpt><trkpt lat="43.796727057202546" lon="12.618640838796273"><ele>111.5</ele><time>2026-04-25T08:19:44.999Z</time></trkpt><trkpt lat="43.79657861375725" lon="12.618639176725033"><ele>110.75</ele><time>2026-04-25T08:19:45.999Z</time></trkpt><trkpt lat="43.7964303763235" lon="12.618643323016887"><ele>110.0</ele><time>2026-04-25T08:19:46.999Z</time></trkpt><trkpt lat="43.79627799904897" lon="12.618650995723065"><ele>109.33333333333333</ele><time>2026-04-25T08:19:47.999Z</time></trkpt><trkpt lat="43.79612263188419" lon="12.618661114023581"><ele>108.66666666666666</ele><time>2026-04-25T08:19:48.999Z</time></trkpt><trkpt lat="43.795971426872796" lon="12.618670872721209"><ele>108.0</ele><time>2026-04-25T08:19:49.999Z</time></trkpt><trkpt lat="43.79581691843424" lon="12.618680290739322"><ele>107.66666666666666</ele><time>2026-04-25T08:19:50.999Z</time></trkpt><trkpt lat="43.7956581304953" lon="12.618689015110869"><ele>107.33333333333333</ele><time>2026-04-25T08:19:51.999Z</time></trkpt><trkpt lat="43.7955047289375" lon="12.618699044155187"><ele>107.0</ele><time>2026-04-25T08:19:52.999Z</time></trkpt><trkpt lat="43.79534543504126" lon="12.618708423624565"><ele>107.0</ele><time>2026-04-25T08:19:53.999Z</time></trkpt><trkpt lat="43.795183029995314" lon="12.618715441149988"><ele>107.0</ele><time>2026-04-25T08:19:54.999Z</time></trkpt><trkpt lat="43.795025373529214" lon="12.618725474297502"><ele>107.0</ele><time>2026-04-25T08:19:55.999Z</time></trkpt><trkpt lat="43.79486497216161" lon="12.61873733167848"><ele>106.66666666666666</ele><time>2026-04-25T08:19:56.999Z</time></trkpt><trkpt lat="43.79470222333453" lon="12.618747985693133"><ele>106.33333333333334</ele><time>2026-04-25T08:19:57.999Z</time></trkpt><trkpt lat="43.79454024031998" lon="12.61876305927551"><ele>106.0</ele><time>2026-04-25T08:19:58.999Z</time></trkpt><trkpt lat="43.794377843413336" lon="12.618775482987491"><ele>105.66666666666667</ele><time>2026-04-25T08:19:59.999Z</time></trkpt><trkpt lat="43.79421816572587" lon="12.61878060505497"><ele>105.33333333333334</ele><time>2026-04-25T08:20:00.999Z</time></trkpt><trkpt lat="43.79406411858655" lon="12.618786514115003"><ele>105.0</ele><time>2026-04-25T08:20:01.999Z</time></trkpt><trkpt lat="43.7939210026021" lon="12.61879399065548"><ele>105.0</ele><time>2026-04-25T08:20:02.999Z</time></trkpt><trkpt lat="43.793784643617926" lon="12.618794151595491"><ele>105.0</ele><time>2026-04-25T08:20:03.999Z</time></trkpt><trkpt lat="43.7936597700957" lon="12.618776667795828"><ele>105.0</ele><time>2026-04-25T08:20:04.999Z</time></trkpt><trkpt lat="43.793530086217125" lon="12.618732939720788"><ele>105.0</ele><time>2026-04-25T08:20:05.999Z</time></trkpt><trkpt lat="43.793402715712716" lon="12.618670568031776"><ele>106.5</ele><time>2026-04-25T08:20:06.999Z</time></trkpt><trkpt lat="43.79327710627733" lon="12.618609368384757"><ele>108.0</ele><time>2026-04-25T08:20:07.999Z</time></trkpt><trkpt lat="43.79314308981595" lon="12.618586521958548"><ele>109.5</ele><time>2026-04-25T08:20:08.999Z</time></trkpt><trkpt lat="43.79301034187859" lon="12.618616075125649"><ele>111.0</ele><time>2026-04-25T08:20:09.999Z</time></trkpt><trkpt lat="43.79288428456124" lon="12.61869529591073"><ele>111.0</ele><time>2026-04-25T08:20:10.999Z</time></trkpt><trkpt lat="43.79277403061659" lon="12.618799255509261"><ele>111.0</ele><time>2026-04-25T08:20:11.999Z</time></trkpt><trkpt lat="43.792672244655876" lon="12.61887367245012"><ele>111.0</ele><time>2026-04-25T08:20:12.999Z</time></trkpt><trkpt lat="43.79258869156242" lon="12.618950747998332"><ele>111.0</ele><time>2026-04-25T08:20:13.999Z</time></trkpt><trkpt lat="43.79249935549383" lon="12.618932568414316"><ele>111.0</ele><time>2026-04-25T08:20:14.999Z</time></trkpt><trkpt lat="43.79243454649216" lon="12.618854193738235"><ele>111.6</ele><time>2026-04-25T08:20:15.999Z</time></trkpt><trkpt lat="43.79243029510686" lon="12.6187358483634"><ele>112.19999999999999</ele><time>2026-04-25T08:20:16.999Z</time></trkpt><trkpt lat="43.79250271489635" lon="12.618651150642298"><ele>112.80000000000001</ele><time>2026-04-25T08:20:17.999Z</time></trkpt><trkpt lat="43.7925976257734" lon="12.618588080794064"><ele>113.4</ele><time>2026-04-25T08:20:18.999Z</time></trkpt><trkpt lat="43.792682665709286" lon="12.618500548033728"><ele>114.0</ele><time>2026-04-25T08:20:19.999Z</time></trkpt><trkpt lat="43.79276027117919" lon="12.6183951878718"><ele>114.75</ele><time>2026-04-25T08:20:20.999Z</time></trkpt><trkpt lat="43.7928154059821" lon="12.61826091772999"><ele>115.5</ele><time>2026-04-25T08:20:21.999Z</time></trkpt><trkpt lat="43.79275973679083" lon="12.618052925869232"><ele>116.25</ele><time>2026-04-25T08:20:22.999Z</time></trkpt><trkpt lat="43.792699234210914" lon="12.617875687248361"><ele>117.0</ele><time>2026-04-25T08:20:23.999Z</time></trkpt><trkpt lat="43.792636277486544" lon="12.617695818835879"><ele>119.25</ele><time>2026-04-25T08:20:24.999Z</time></trkpt><trkpt lat="43.792573036262475" lon="12.617514868926996"><ele>121.5</ele><time>2026-04-25T08:20:25.999Z</time></trkpt><trkpt lat="43.79250440067668" lon="12.617350368960173"><ele>123.75</ele><time>2026-04-25T08:20:26.999Z</time></trkpt><trkpt lat="43.792463292016656" lon="12.617175442921225"><ele>126.0</ele><time>2026-04-25T08:20:27.999Z</time></trkpt><trkpt lat="43.79245160690826" lon="12.616993073876282"><ele>125.75</ele><time>2026-04-25T08:20:28.999Z</time></trkpt><trkpt lat="43.79247935606824" lon="12.616812083282472"><ele>125.5</ele><time>2026-04-25T08:20:29.999Z</time></trkpt><trkpt lat="43.792516398235186" lon="12.616635530955104"><ele>125.25</ele><time>2026-04-25T08:20:30.999Z</time></trkpt><trkpt lat="43.792564482324664" lon="12.616457984077623"><ele>125.0</ele><time>2026-04-25T08:20:31.999Z</time></trkpt><trkpt lat="43.79263921488641" lon="12.616305051267862"><ele>125.0</ele><time>2026-04-25T08:20:32.999Z</time></trkpt><trkpt lat="43.79273666831008" lon="12.616174263144972"><ele>125.0</ele><time>2026-04-25T08:20:33.999Z</time></trkpt><trkpt lat="43.79285036402394" lon="12.616084459618717"><ele>125.0</ele><time>2026-04-25T08:20:34.999Z</time></trkpt><trkpt lat="43.792973902503554" lon="12.616017345300065"><ele>125.0</ele><time>2026-04-25T08:20:35.999Z</time></trkpt><trkpt lat="43.79309155131143" lon="12.615920507961167"><ele>126.0</ele><time>2026-04-25T08:20:36.999Z</time></trkpt><trkpt lat="43.79322030025663" lon="12.615829802437196"><ele>127.0</ele><time>2026-04-25T08:20:37.999Z</time></trkpt><trkpt lat="43.79331203058696" lon="12.615672724301211"><ele>128.0</ele><time>2026-04-25T08:20:38.999Z</time></trkpt><trkpt lat="43.7934093679208" lon="12.615529127317009"><ele>129.0</ele><time>2026-04-25T08:20:39.999Z</time></trkpt><trkpt lat="43.79350171055296" lon="12.61537640834877"><ele>125.66666666666666</ele><time>2026-04-25T08:20:40.999Z</time></trkpt><trkpt lat="43.793589768312714" lon="12.615206817483424"><ele>122.33333333333333</ele><time>2026-04-25T08:20:41.999Z</time></trkpt><trkpt lat="43.793666942441526" lon="12.61502828865482"><ele>119.0</ele><time>2026-04-25T08:20:42.999Z</time></trkpt><trkpt lat="43.79373967043017" lon="12.61483225215198"><ele>119.0</ele><time>2026-04-25T08:20:43.999Z</time></trkpt><trkpt lat="43.79379989906821" lon="12.61462830826204"><ele>119.0</ele><time>2026-04-25T08:20:44.999Z</time></trkpt><trkpt lat="43.793853079366414" lon="12.614419622252848"><ele>119.0</ele><time>2026-04-25T08:20:45.999Z</time></trkpt><trkpt lat="43.793909761519025" lon="12.614201421084843"><ele>120.66666666666666</ele><time>2026-04-25T08:20:46.999Z</time></trkpt><trkpt lat="43.79396384821896" lon="12.613985704546003"><ele>122.33333333333334</ele><time>2026-04-25T08:20:47.999Z</time></trkpt><trkpt lat="43.79401901950897" lon="12.613768061069091"><ele>124.0</ele><time>2026-04-25T08:20:48.999Z</time></trkpt><trkpt lat="43.79409152202876" lon="12.61355565158007"><ele>126.33333333333334</ele><time>2026-04-25T08:20:49.999Z</time></trkpt><trkpt lat="43.7941485292866" lon="12.613335413953763"><ele>128.66666666666666</ele><time>2026-04-25T08:20:50.999Z</time></trkpt><trkpt lat="43.794202434599654" lon="12.613122173308323"><ele>131.0</ele><time>2026-04-25T08:20:51.999Z</time></trkpt><trkpt lat="43.79425462367415" lon="12.612915721682095"><ele>130.75</ele><time>2026-04-25T08:20:52.999Z</time></trkpt><trkpt lat="43.79429575638137" lon="12.61272465959018"><ele>130.5</ele><time>2026-04-25T08:20:53.999Z</time></trkpt><trkpt lat="43.79432845564916" lon="12.612542763543425"><ele>130.25</ele><time>2026-04-25T08:20:54.999Z</time></trkpt><trkpt lat="43.79439598397144" lon="12.612371207724616"><ele>130.0</ele><time>2026-04-25T08:20:55.999Z</time></trkpt><trkpt lat="43.794501645114224" lon="12.612214170904203"><ele>130.0</ele><time>2026-04-25T08:20:56.999Z</time></trkpt><trkpt lat="43.79459447793148" lon="12.612034361194052"><ele>130.0</ele><time>2026-04-25T08:20:57.999Z</time></trkpt><trkpt lat="43.794682156525155" lon="12.611839461206168"><ele>130.0</ele><time>2026-04-25T08:20:58.999Z</time></trkpt><trkpt lat="43.79478798428183" lon="12.611658638112548"><ele>130.66666666666669</ele><time>2026-04-25T08:20:59.999Z</time></trkpt><trkpt lat="43.794891943105235" lon="12.61148171515449"><ele>131.33333333333334</ele><time>2026-04-25T08:21:00.999Z</time></trkpt><trkpt lat="43.794999213366935" lon="12.611315856464834"><ele>132.0</ele><time>2026-04-25T08:21:01.999Z</time></trkpt><trkpt lat="43.79511400531396" lon="12.611163799893871"><ele>130.0</ele><time>2026-04-25T08:21:02.999Z</time></trkpt><trkpt lat="43.795232283768534" lon="12.61103021082199"><ele>128.0</ele><time>2026-04-25T08:21:03.999Z</time></trkpt><trkpt lat="43.795360886634086" lon="12.61090668226368"><ele>126.0</ele><time>2026-04-25T08:21:04.999Z</time></trkpt><trkpt lat="43.79549642522656" lon="12.610778548450815"><ele>126.0</ele><time>2026-04-25T08:21:05.999Z</time></trkpt><trkpt lat="43.79563040784975" lon="12.610653439317893"><ele>126.0</ele><time>2026-04-25T08:21:06.999Z</time></trkpt><trkpt lat="43.7957590949315" lon="12.61052752915813"><ele>126.0</ele><time>2026-04-25T08:21:07.999Z</time></trkpt><trkpt lat="43.79587883377752" lon="12.61039710167156"><ele>126.5</ele><time>2026-04-25T08:21:08.999Z</time></trkpt><trkpt lat="43.79598427702026" lon="12.610257018377732"><ele>127.0</ele><time>2026-04-25T08:21:09.999Z</time></trkpt><trkpt lat="43.796081194358045" lon="12.610122851849567"><ele>127.5</ele><time>2026-04-25T08:21:10.999Z</time></trkpt><trkpt lat="43.79617651984591" lon="12.610015733418319"><ele>128.0</ele><time>2026-04-25T08:21:11.999Z</time></trkpt><trkpt lat="43.79626654317141" lon="12.60996719782408"><ele>128.4</ele><time>2026-04-25T08:21:12.999Z</time></trkpt><trkpt lat="43.79637953912551" lon="12.60995586908504"><ele>128.8</ele><time>2026-04-25T08:21:13.999Z</time></trkpt><trkpt lat="43.79649809278272" lon="12.609963439093155"><ele>129.2</ele><time>2026-04-25T08:21:14.999Z</time></trkpt><trkpt lat="43.79660274910583" lon="12.609981679926788"><ele>129.6</ele><time>2026-04-25T08:21:15.999Z</time></trkpt><trkpt lat="43.79669077741084" lon="12.610000635067319"><ele>130.0</ele><time>2026-04-25T08:21:16.999Z</time></trkpt><trkpt lat="43.79677408647182" lon="12.609983754461275"><ele>129.2</ele><time>2026-04-25T08:21:17.999Z</time></trkpt><trkpt lat="43.79685826351561" lon="12.609926220171417"><ele>128.4</ele><time>2026-04-25T08:21:18.999Z</time></trkpt><trkpt lat="43.796937695010875" lon="12.609876717712934"><ele>127.6</ele><time>2026-04-25T08:21:19.999Z</time></trkpt><trkpt lat="43.79703463296039" lon="12.60984865309015"><ele>126.8</ele><time>2026-04-25T08:21:20.999Z</time></trkpt><trkpt lat="43.79713179031256" lon="12.609811007285085"><ele>126.0</ele><time>2026-04-25T08:21:21.999Z</time></trkpt><trkpt lat="43.797229346719796" lon="12.60973818760005"><ele>126.0</ele><time>2026-04-25T08:21:23Z</time></trkpt><trkpt lat="43.79731974298952" lon="12.609645002960924"><ele>126.0</ele><time>2026-04-25T08:21:24Z</time></trkpt><trkpt lat="43.79740526736343" lon="12.609537687766343"><ele>126.0</ele><time>2026-04-25T08:21:25Z</time></trkpt><trkpt lat="43.79747596657945" lon="12.609407725826717"><ele>126.0</ele><time>2026-04-25T08:21:26Z</time></trkpt><trkpt lat="43.797556113466655" lon="12.609267666950917"><ele>128.25</ele><time>2026-04-25T08:21:27Z</time></trkpt><trkpt lat="43.79760840364277" lon="12.609103217253638"><ele>130.5</ele><time>2026-04-25T08:21:28Z</time></trkpt><trkpt lat="43.797657041509545" lon="12.608930353302085"><ele>132.75</ele><time>2026-04-25T08:21:29Z</time></trkpt><trkpt lat="43.7977071430974" lon="12.608752939918386"><ele>135.0</ele><time>2026-04-25T08:21:30Z</time></trkpt><trkpt lat="43.79775762261746" lon="12.608579181870585"><ele>138.75</ele><time>2026-04-25T08:21:31Z</time></trkpt><trkpt lat="43.79781042906131" lon="12.60841118383352"><ele>142.5</ele><time>2026-04-25T08:21:32Z</time></trkpt><trkpt lat="43.797871021422715" lon="12.608247428270957"><ele>146.25</ele><time>2026-04-25T08:21:33Z</time></trkpt><trkpt lat="43.79793810456922" lon="12.608104305178426"><ele>150.0</ele><time>2026-04-25T08:21:34Z</time></trkpt><trkpt lat="43.79801327846238" lon="12.60796195611365"><ele>150.5</ele><time>2026-04-25T08:21:35Z</time></trkpt><trkpt lat="43.79808426346916" lon="12.607808377580715"><ele>151.0</ele><time>2026-04-25T08:21:36Z</time></trkpt><trkpt lat="43.79817583705467" lon="12.607677910997213"><ele>151.5</ele><time>2026-04-25T08:21:37Z</time></trkpt><trkpt lat="43.79827437990546" lon="12.60755797331119"><ele>152.0</ele><time>2026-04-25T08:21:38Z</time></trkpt><trkpt lat="43.79837776214039" lon="12.607448794619497"><ele>152.0</ele><time>2026-04-25T08:21:39Z</time></trkpt><trkpt lat="43.798485758506324" lon="12.607353602055477"><ele>152.0</ele><time>2026-04-25T08:21:40Z</time></trkpt><trkpt lat="43.798599853008014" lon="12.607262600870905"><ele>152.0</ele><time>2026-04-25T08:21:41Z</time></trkpt><trkpt lat="43.79871003412503" lon="12.60717302313811"><ele>152.0</ele><time>2026-04-25T08:21:42Z</time></trkpt><trkpt lat="43.798823911788254" lon="12.607075725639428"><ele>154.25</ele><time>2026-04-25T08:21:43Z</time></trkpt><trkpt lat="43.798935890272816" lon="12.606984810967163"><ele>156.5</ele><time>2026-04-25T08:21:44Z</time></trkpt><trkpt lat="43.799034929622685" lon="12.606867562042098"><ele>158.75</ele><time>2026-04-25T08:21:45Z</time></trkpt><trkpt lat="43.79911277320257" lon="12.606730768285024"><ele>161.0</ele><time>2026-04-25T08:21:46Z</time></trkpt><trkpt lat="43.79916772373266" lon="12.606567720261825"><ele>161.0</ele><time>2026-04-25T08:21:47Z</time></trkpt><trkpt lat="43.799216081381296" lon="12.606394912321583"><ele>161.0</ele><time>2026-04-25T08:21:48Z</time></trkpt><trkpt lat="43.799263184065715" lon="12.60622136259851"><ele>161.0</ele><time>2026-04-25T08:21:49Z</time></trkpt><trkpt lat="43.79931852463997" lon="12.606055021409222"><ele>161.0</ele><time>2026-04-25T08:21:50Z</time></trkpt><trkpt lat="43.79937643423015" lon="12.605887721550287"><ele>161.25</ele><time>2026-04-25T08:21:51Z</time></trkpt><trkpt lat="43.79943198950229" lon="12.60572707869303"><ele>161.5</ele><time>2026-04-25T08:21:52Z</time></trkpt><trkpt lat="43.79948486998328" lon="12.605566528117285"><ele>161.75</ele><time>2026-04-25T08:21:53Z</time></trkpt><trkpt lat="43.799538273578605" lon="12.605417242362599"><ele>162.0</ele><time>2026-04-25T08:21:54Z</time></trkpt><trkpt lat="43.799599856056524" lon="12.605280138159031"><ele>162.0</ele><time>2026-04-25T08:21:55Z</time></trkpt><trkpt lat="43.79966551351045" lon="12.605162497835822"><ele>162.0</ele><time>2026-04-25T08:21:56Z</time></trkpt><trkpt lat="43.79973691728538" lon="12.605057469598577"><ele>162.0</ele><time>2026-04-25T08:21:57Z</time></trkpt><trkpt lat="43.79980634886046" lon="12.604944559556019"><ele>162.0</ele><time>2026-04-25T08:21:57.999Z</time></trkpt><trkpt lat="43.799893620072375" lon="12.604839223084294"><ele>162.0</ele><time>2026-04-25T08:21:58.999Z</time></trkpt><trkpt lat="43.79998067472749" lon="12.604728706415921"><ele>162.0</ele><time>2026-04-25T08:21:59.999Z</time></trkpt><trkpt lat="43.800068687296" lon="12.604618962574703"><ele>162.0</ele><time>2026-04-25T08:22:00.999Z</time></trkpt><trkpt lat="43.800169394760054" lon="12.604532591830255"><ele>162.0</ele><time>2026-04-25T08:22:01.999Z</time></trkpt><trkpt lat="43.80026056390539" lon="12.604428234687294"><ele>162.0</ele><time>2026-04-25T08:22:02.999Z</time></trkpt><trkpt lat="43.8003460123572" lon="12.604317672007458"><ele>160.75</ele><time>2026-04-25T08:22:03.999Z</time></trkpt><trkpt lat="43.80043552207117" lon="12.60419316295943"><ele>159.5</ele><time>2026-04-25T08:22:04.999Z</time></trkpt><trkpt lat="43.800525011260014" lon="12.604064160721801"><ele>158.25</ele><time>2026-04-25T08:22:05.999Z</time></trkpt><trkpt lat="43.80060111109298" lon="12.603918092729161"><ele>157.0</ele><time>2026-04-25T08:22:06.999Z</time></trkpt><trkpt lat="43.800685081431475" lon="12.603785383604158"><ele>158.25</ele><time>2026-04-25T08:22:07.999Z</time></trkpt><trkpt lat="43.800772476091424" lon="12.603654250306965"><ele>159.5</ele><time>2026-04-25T08:22:08.999Z</time></trkpt><trkpt lat="43.80086085948222" lon="12.603525324604211"><ele>160.75</ele><time>2026-04-25T08:22:09.999Z</time></trkpt><trkpt lat="43.80093942463759" lon="12.603389518111479"><ele>162.0</ele><time>2026-04-25T08:22:10.999Z</time></trkpt><trkpt lat="43.80100453523423" lon="12.603253263234926"><ele>162.0</ele><time>2026-04-25T08:22:11.999Z</time></trkpt><trkpt lat="43.801076106507864" lon="12.60311994403199"><ele>162.0</ele><time>2026-04-25T08:22:12.999Z</time></trkpt><trkpt lat="43.80112597392618" lon="12.602963380425766"><ele>162.0</ele><time>2026-04-25T08:22:13.999Z</time></trkpt><trkpt lat="43.801151949574034" lon="12.602792412049247"><ele>162.0</ele><time>2026-04-25T08:22:14.999Z</time></trkpt><trkpt lat="43.801144066510126" lon="12.602609047298776"><ele>166.0</ele><time>2026-04-25T08:22:15.999Z</time></trkpt><trkpt lat="43.80110669724562" lon="12.602435623233431"><ele>170.0</ele><time>2026-04-25T08:22:16.999Z</time></trkpt><trkpt lat="43.80106984186002" lon="12.602273076968503"><ele>174.0</ele><time>2026-04-25T08:22:17.999Z</time></trkpt><trkpt lat="43.80103324907955" lon="12.602115617106227"><ele>178.0</ele><time>2026-04-25T08:22:18.999Z</time></trkpt><trkpt lat="43.80100639759137" lon="12.60197748587977"><ele>177.8</ele><time>2026-04-25T08:22:19.999Z</time></trkpt><trkpt lat="43.80098575156072" lon="12.601850365856222"><ele>177.60000000000002</ele><time>2026-04-25T08:22:20.999Z</time></trkpt><trkpt lat="43.801042650824854" lon="12.601731996169182"><ele>177.39999999999998</ele><time>2026-04-25T08:22:21.999Z</time></trkpt><trkpt lat="43.80108711164133" lon="12.601633877746607"><ele>177.2</ele><time>2026-04-25T08:22:22.999Z</time></trkpt><trkpt lat="43.80117118660784" lon="12.60157078123786"><ele>177.0</ele><time>2026-04-25T08:22:23.999Z</time></trkpt><trkpt lat="43.80125570363109" lon="12.60150608273034"><ele>180.0</ele><time>2026-04-25T08:22:24.999Z</time></trkpt><trkpt lat="43.80133420515239" lon="12.601423168311317"><ele>183.0</ele><time>2026-04-25T08:22:25.999Z</time></trkpt><trkpt lat="43.801418097268154" lon="12.601340277335533"><ele>186.0</ele><time>2026-04-25T08:22:26.999Z</time></trkpt><trkpt lat="43.80144855867397" lon="12.60118925087463"><ele>189.0</ele><time>2026-04-25T08:22:27.999Z</time></trkpt><trkpt lat="43.80147927317327" lon="12.601039063858437"><ele>192.0</ele><time>2026-04-25T08:22:28.999Z</time></trkpt><trkpt lat="43.80151627592533" lon="12.600890158373032"><ele>192.39999999999998</ele><time>2026-04-25T08:22:29.999Z</time></trkpt><trkpt lat="43.801575126883016" lon="12.60076453918815"><ele>192.79999999999998</ele><time>2026-04-25T08:22:30.999Z</time></trkpt><trkpt lat="43.80168044403939" lon="12.600709250500548"><ele>193.2</ele><time>2026-04-25T08:22:31.999Z</time></trkpt><trkpt lat="43.801784042911564" lon="12.60065229587996"><ele>193.6</ele><time>2026-04-25T08:22:32.999Z</time></trkpt><trkpt lat="43.801892572785306" lon="12.600592319006157"><ele>194.0</ele><time>2026-04-25T08:22:33.999Z</time></trkpt><trkpt lat="43.80201293685907" lon="12.600552297062473"><ele>198.25</ele><time>2026-04-25T08:22:34.999Z</time></trkpt><trkpt lat="43.80213971638305" lon="12.600508782871614"><ele>202.5</ele><time>2026-04-25T08:22:35.999Z</time></trkpt><trkpt lat="43.802269296568554" lon="12.600460875044014"><ele>206.75</ele><time>2026-04-25T08:22:36.999Z</time></trkpt><trkpt lat="43.8023959783001" lon="12.600408236447848"><ele>211.0</ele><time>2026-04-25T08:22:37.999Z</time></trkpt><trkpt lat="43.8025236650587" lon="12.600350396093635"><ele>211.75</ele><time>2026-04-25T08:22:38.999Z</time></trkpt><trkpt lat="43.80265151747307" lon="12.600287359604948"><ele>212.5</ele><time>2026-04-25T08:22:39.999Z</time></trkpt><trkpt lat="43.80277630776435" lon="12.600209859778158"><ele>213.25</ele><time>2026-04-25T08:22:40.999Z</time></trkpt><trkpt lat="43.80288924246255" lon="12.60011628023206"><ele>214.0</ele><time>2026-04-25T08:22:41.999Z</time></trkpt><trkpt lat="43.802993605068046" lon="12.60001113243238"><ele>214.0</ele><time>2026-04-25T08:22:42.999Z</time></trkpt><trkpt lat="43.803098086886344" lon="12.599913071798843"><ele>214.0</ele><time>2026-04-25T08:22:43.999Z</time></trkpt><trkpt lat="43.80320829648936" lon="12.599820473282582"><ele>214.0</ele><time>2026-04-25T08:22:44.999Z</time></trkpt><trkpt lat="43.803327160678265" lon="12.599724484571755"><ele>214.0</ele><time>2026-04-25T08:22:45.999Z</time></trkpt><trkpt lat="43.803444641623166" lon="12.599623025336099"><ele>212.5</ele><time>2026-04-25T08:22:46.999Z</time></trkpt><trkpt lat="43.80355870818101" lon="12.599509151775367"><ele>211.0</ele><time>2026-04-25T08:22:47.999Z</time></trkpt><trkpt lat="43.80365890813002" lon="12.599368692652785"><ele>209.5</ele><time>2026-04-25T08:22:48.999Z</time></trkpt><trkpt lat="43.80375027354717" lon="12.599216509920431"><ele>208.0</ele><time>2026-04-25T08:22:49.999Z</time></trkpt><trkpt lat="43.803836067734146" lon="12.599062573656376"><ele>208.0</ele><time>2026-04-25T08:22:50.999Z</time></trkpt><trkpt lat="43.80392228732226" lon="12.598908024569527"><ele>208.0</ele><time>2026-04-25T08:22:51.999Z</time></trkpt><trkpt lat="43.80400834733886" lon="12.598751799745413"><ele>208.0</ele><time>2026-04-25T08:22:52.999Z</time></trkpt><trkpt lat="43.80409143215896" lon="12.598591868854626"><ele>208.0</ele><time>2026-04-25T08:22:53.999Z</time></trkpt><trkpt lat="43.804188546542626" lon="12.598451265665396"><ele>207.5</ele><time>2026-04-25T08:22:54.999Z</time></trkpt><trkpt lat="43.804268898413355" lon="12.598298447383021"><ele>207.0</ele><time>2026-04-25T08:22:55.999Z</time></trkpt><trkpt lat="43.80434717956699" lon="12.598138706848959"><ele>206.5</ele><time>2026-04-25T08:22:56.999Z</time></trkpt><trkpt lat="43.80441451432834" lon="12.597964263354694"><ele>206.0</ele><time>2026-04-25T08:22:57.999Z</time></trkpt><trkpt lat="43.804454630934906" lon="12.597766227838054"><ele>204.75</ele><time>2026-04-25T08:22:58.999Z</time></trkpt><trkpt lat="43.804473547233854" lon="12.597566925803882"><ele>203.5</ele><time>2026-04-25T08:22:59.999Z</time></trkpt><trkpt lat="43.80448581018604" lon="12.597371315667345"><ele>202.25</ele><time>2026-04-25T08:23:00.999Z</time></trkpt><trkpt lat="43.80449574830152" lon="12.59717505507858"><ele>201.0</ele><time>2026-04-25T08:23:01.999Z</time></trkpt><trkpt lat="43.8045028974064" lon="12.596983585704319"><ele>201.0</ele><time>2026-04-25T08:23:02.999Z</time></trkpt><trkpt lat="43.80450424984023" lon="12.596790554757874"><ele>201.0</ele><time>2026-04-25T08:23:03.999Z</time></trkpt><trkpt lat="43.804492975023564" lon="12.596602286902085"><ele>201.0</ele><time>2026-04-25T08:23:04.999Z</time></trkpt><trkpt lat="43.804475119649204" lon="12.596423466412675"><ele>201.0</ele><time>2026-04-25T08:23:05.999Z</time></trkpt><trkpt lat="43.80445760673069" lon="12.596247580487239"><ele>204.20000000000002</ele><time>2026-04-25T08:23:06.999Z</time></trkpt><trkpt lat="43.804451949817484" lon="12.596082503791267"><ele>207.4</ele><time>2026-04-25T08:23:07.999Z</time></trkpt><trkpt lat="43.80446569303111" lon="12.595914802818127"><ele>210.6</ele><time>2026-04-25T08:23:08.999Z</time></trkpt><trkpt lat="43.80449992066111" lon="12.59578219975409"><ele>213.8</ele><time>2026-04-25T08:23:09.999Z</time></trkpt><trkpt lat="43.80455393565534" lon="12.595692025919465"><ele>217.0</ele><time>2026-04-25T08:23:10.999Z</time></trkpt><trkpt lat="43.804638409772394" lon="12.595636642795284"><ele>217.0</ele><time>2026-04-25T08:23:11.999Z</time></trkpt><trkpt lat="43.80474254042443" lon="12.595616139474036"><ele>217.0</ele><time>2026-04-25T08:23:12.999Z</time></trkpt><trkpt lat="43.804838890330544" lon="12.59555303680505"><ele>217.0</ele><time>2026-04-25T08:23:13.999Z</time></trkpt><trkpt lat="43.804942822387886" lon="12.595421003535227"><ele>217.0</ele><time>2026-04-25T08:23:14.999Z</time></trkpt><trkpt lat="43.80497874858224" lon="12.595252486583675"><ele>217.75</ele><time>2026-04-25T08:23:15.999Z</time></trkpt><trkpt lat="43.80501828673455" lon="12.5950599014351"><ele>218.5</ele><time>2026-04-25T08:23:16.999Z</time></trkpt><trkpt lat="43.80506305651771" lon="12.594872046634434"><ele>219.25</ele><time>2026-04-25T08:23:17.999Z</time></trkpt><trkpt lat="43.805073428928814" lon="12.59467380076857"><ele>220.0</ele><time>2026-04-25T08:23:18.999Z</time></trkpt><trkpt lat="43.80509689120711" lon="12.594459751451424"><ele>220.0</ele><time>2026-04-25T08:23:19.999Z</time></trkpt><trkpt lat="43.80511438494752" lon="12.594244954398524"><ele>220.0</ele><time>2026-04-25T08:23:20.999Z</time></trkpt><trkpt lat="43.80515895724323" lon="12.59405688706623"><ele>220.0</ele><time>2026-04-25T08:23:21.999Z</time></trkpt><trkpt lat="43.805211444924105" lon="12.593879055605635"><ele>220.0</ele><time>2026-04-25T08:23:22.999Z</time></trkpt><trkpt lat="43.80527434013882" lon="12.593716546155068"><ele>219.5</ele><time>2026-04-25T08:23:23.999Z</time></trkpt><trkpt lat="43.805337330340045" lon="12.593560568569435"><ele>219.0</ele><time>2026-04-25T08:23:24.999Z</time></trkpt><trkpt lat="43.80539835655518" lon="12.593407441607392"><ele>218.5</ele><time>2026-04-25T08:23:25.999Z</time></trkpt><trkpt lat="43.80545628293971" lon="12.593254529774786"><ele>218.0</ele><time>2026-04-25T08:23:26.999Z</time></trkpt><trkpt lat="43.80551416459406" lon="12.593086970003291"><ele>218.0</ele><time>2026-04-25T08:23:27.999Z</time></trkpt><trkpt lat="43.80555518979428" lon="12.592926172198569"><ele>218.0</ele><time>2026-04-25T08:23:29Z</time></trkpt><trkpt lat="43.80559538677588" lon="12.592730324203758"><ele>218.0</ele><time>2026-04-25T08:23:30Z</time></trkpt><trkpt lat="43.80562715954787" lon="12.592531205129978"><ele>218.0</ele><time>2026-04-25T08:23:31Z</time></trkpt><trkpt lat="43.80565628042914" lon="12.592334063299884"><ele>219.0</ele><time>2026-04-25T08:23:32Z</time></trkpt><trkpt lat="43.80568341013768" lon="12.592134469569741"><ele>220.0</ele><time>2026-04-25T08:23:33Z</time></trkpt><trkpt lat="43.805705984469654" lon="12.59194211995816"><ele>221.0</ele><time>2026-04-25T08:23:34Z</time></trkpt><trkpt lat="43.80570896708939" lon="12.591750727680441"><ele>222.0</ele><time>2026-04-25T08:23:35Z</time></trkpt><trkpt lat="43.80572507011819" lon="12.59156346090394"><ele>222.0</ele><time>2026-04-25T08:23:36Z</time></trkpt><trkpt lat="43.8057524541527" lon="12.59137732429053"><ele>222.0</ele><time>2026-04-25T08:23:37Z</time></trkpt><trkpt lat="43.80576182007752" lon="12.591188116920865"><ele>222.0</ele><time>2026-04-25T08:23:38Z</time></trkpt><trkpt lat="43.80576723834406" lon="12.590991452029222"><ele>222.0</ele><time>2026-04-25T08:23:39Z</time></trkpt><trkpt lat="43.80576960940329" lon="12.59079544110015"><ele>222.0</ele><time>2026-04-25T08:23:40Z</time></trkpt><trkpt lat="43.80577034448034" lon="12.59059972664704"><ele>222.0</ele><time>2026-04-25T08:23:41Z</time></trkpt><trkpt lat="43.805771076417635" lon="12.59040484851232"><ele>222.0</ele><time>2026-04-25T08:23:42Z</time></trkpt><trkpt lat="43.80577278908459" lon="12.590204380425261"><ele>222.0</ele><time>2026-04-25T08:23:43Z</time></trkpt><trkpt lat="43.80577606250778" lon="12.590007040961572"><ele>222.25</ele><time>2026-04-25T08:23:44Z</time></trkpt><trkpt lat="43.805781327856614" lon="12.58980766022742"><ele>222.5</ele><time>2026-04-25T08:23:45Z</time></trkpt><trkpt lat="43.80578537979672" lon="12.589610351336246"><ele>222.75</ele><time>2026-04-25T08:23:46Z</time></trkpt><trkpt lat="43.805782622123296" lon="12.589417827488067"><ele>223.0</ele><time>2026-04-25T08:23:47Z</time></trkpt><trkpt lat="43.80575459074492" lon="12.589232812919008"><ele>224.0</ele><time>2026-04-25T08:23:48Z</time></trkpt><trkpt lat="43.805748701701496" lon="12.589041028373929"><ele>225.0</ele><time>2026-04-25T08:23:49Z</time></trkpt><trkpt lat="43.80571632647275" lon="12.588854423281315"><ele>226.0</ele><time>2026-04-25T08:23:50Z</time></trkpt><trkpt lat="43.8056786706634" lon="12.58867516531533"><ele>227.0</ele><time>2026-04-25T08:23:51Z</time></trkpt><trkpt lat="43.80564226290099" lon="12.588497423301652"><ele>228.25</ele><time>2026-04-25T08:23:52Z</time></trkpt><trkpt lat="43.80560939132381" lon="12.58831905083706"><ele>229.5</ele><time>2026-04-25T08:23:53Z</time></trkpt><trkpt lat="43.80558260235687" lon="12.588144731046212"><ele>230.75</ele><time>2026-04-25T08:23:54Z</time></trkpt><trkpt lat="43.80556470947306" lon="12.58796827958607"><ele>232.0</ele><time>2026-04-25T08:23:55Z</time></trkpt><trkpt lat="43.805560349760924" lon="12.587804666990294"><ele>234.5</ele><time>2026-04-25T08:23:56Z</time></trkpt><trkpt lat="43.80556928095466" lon="12.587664407192474"><ele>237.0</ele><time>2026-04-25T08:23:57Z</time></trkpt><trkpt lat="43.80558358181279" lon="12.587510050995968"><ele>239.5</ele><time>2026-04-25T08:23:58Z</time></trkpt><trkpt lat="43.80566659956844" lon="12.587384464333118"><ele>242.0</ele><time>2026-04-25T08:23:59Z</time></trkpt><trkpt lat="43.805697013905565" lon="12.58723174615656"><ele>242.0</ele><time>2026-04-25T08:24:00Z</time></trkpt><trkpt lat="43.80567512296446" lon="12.587068511688518"><ele>242.0</ele><time>2026-04-25T08:24:01Z</time></trkpt><trkpt lat="43.80563978600826" lon="12.58688897719241"><ele>242.0</ele><time>2026-04-25T08:24:02Z</time></trkpt><trkpt lat="43.805619105871116" lon="12.586701978138308"><ele>242.0</ele><time>2026-04-25T08:24:03Z</time></trkpt><trkpt lat="43.805604180412644" lon="12.586530460874199"><ele>242.0</ele><time>2026-04-25T08:24:04Z</time></trkpt><trkpt lat="43.80563493637655" lon="12.58637975603961"><ele>242.0</ele><time>2026-04-25T08:24:05Z</time></trkpt><trkpt lat="43.80568631092559" lon="12.586233315045884"><ele>242.0</ele><time>2026-04-25T08:24:06Z</time></trkpt><trkpt lat="43.80574207459068" lon="12.586059425601748"><ele>242.0</ele><time>2026-04-25T08:24:07Z</time></trkpt><trkpt lat="43.80580290887614" lon="12.585872645949998"><ele>242.0</ele><time>2026-04-25T08:24:08Z</time></trkpt><trkpt lat="43.80586367586005" lon="12.585680927316544"><ele>242.0</ele><time>2026-04-25T08:24:09Z</time></trkpt><trkpt lat="43.80592232312379" lon="12.585498277474628"><ele>242.0</ele><time>2026-04-25T08:24:10Z</time></trkpt><trkpt lat="43.80598149679627" lon="12.585322386893639"><ele>242.0</ele><time>2026-04-25T08:24:11Z</time></trkpt><trkpt lat="43.806037180590714" lon="12.585130642918589"><ele>237.0</ele><time>2026-04-25T08:24:12Z</time></trkpt><trkpt lat="43.80606475098079" lon="12.584945504068962"><ele>232.0</ele><time>2026-04-25T08:24:12.999Z</time></trkpt><trkpt lat="43.80609033755427" lon="12.584757214887242"><ele>227.0</ele><time>2026-04-25T08:24:13.999Z</time></trkpt><trkpt lat="43.80610033846809" lon="12.584568543096859"><ele>222.0</ele><time>2026-04-25T08:24:14.999Z</time></trkpt><trkpt lat="43.806096917514985" lon="12.584393106437199"><ele>221.75</ele><time>2026-04-25T08:24:15.999Z</time></trkpt><trkpt lat="43.80607888179091" lon="12.58421760470871"><ele>221.5</ele><time>2026-04-25T08:24:16.999Z</time></trkpt><trkpt lat="43.80605404839515" lon="12.58405156009203"><ele>221.25</ele><time>2026-04-25T08:24:17.999Z</time></trkpt><trkpt lat="43.80603514156724" lon="12.583882755720698"><ele>221.0</ele><time>2026-04-25T08:24:18.999Z</time></trkpt><trkpt lat="43.806011678148565" lon="12.583708865919489"><ele>225.25</ele><time>2026-04-25T08:24:19.999Z</time></trkpt><trkpt lat="43.80598991406936" lon="12.583536228167372"><ele>229.5</ele><time>2026-04-25T08:24:20.999Z</time></trkpt><trkpt lat="43.80596672781187" lon="12.583357900878294"><ele>233.75</ele><time>2026-04-25T08:24:21.999Z</time></trkpt><trkpt lat="43.805941151914304" lon="12.583179115550074"><ele>238.0</ele><time>2026-04-25T08:24:22.999Z</time></trkpt><trkpt lat="43.805912509131176" lon="12.58299724305851"><ele>238.0</ele><time>2026-04-25T08:24:23.999Z</time></trkpt><trkpt lat="43.805898646406646" lon="12.582814434536525"><ele>238.0</ele><time>2026-04-25T08:24:24.999Z</time></trkpt><trkpt lat="43.80588286939664" lon="12.582638433239238"><ele>238.0</ele><time>2026-04-25T08:24:25.999Z</time></trkpt><trkpt lat="43.805866328525056" lon="12.582460004933525"><ele>238.0</ele><time>2026-04-25T08:24:26.999Z</time></trkpt><trkpt lat="43.80584046639848" lon="12.582285469720002"><ele>238.0</ele><time>2026-04-25T08:24:27.999Z</time></trkpt><trkpt lat="43.80577817509461" lon="12.582124656007316"><ele>238.0</ele><time>2026-04-25T08:24:28.999Z</time></trkpt><trkpt lat="43.80572194928052" lon="12.581952710726657"><ele>238.0</ele><time>2026-04-25T08:24:29.999Z</time></trkpt><trkpt lat="43.80566236942389" lon="12.581774024005394"><ele>238.0</ele><time>2026-04-25T08:24:30.999Z</time></trkpt><trkpt lat="43.8056213516695" lon="12.581580463657545"><ele>236.75</ele><time>2026-04-25T08:24:31.999Z</time></trkpt><trkpt lat="43.80557051791525" lon="12.581399149393352"><ele>235.5</ele><time>2026-04-25T08:24:32.999Z</time></trkpt><trkpt lat="43.805506577710155" lon="12.581226199520572"><ele>234.25</ele><time>2026-04-25T08:24:33.999Z</time></trkpt><trkpt lat="43.805464976570455" lon="12.581052823659872"><ele>233.0</ele><time>2026-04-25T08:24:34.999Z</time></trkpt><trkpt lat="43.80543046536796" lon="12.580879540170844"><ele>232.0</ele><time>2026-04-25T08:24:35.999Z</time></trkpt><trkpt lat="43.80541257712556" lon="12.580703515055749"><ele>231.0</ele><time>2026-04-25T08:24:36.999Z</time></trkpt><trkpt lat="43.805412559901825" lon="12.580518171455749"><ele>230.0</ele><time>2026-04-25T08:24:37.999Z</time></trkpt><trkpt lat="43.80544896600062" lon="12.58034448505241"><ele>229.0</ele><time>2026-04-25T08:24:38.999Z</time></trkpt><trkpt lat="43.805476702979966" lon="12.580177517935393"><ele>228.79999999999998</ele><time>2026-04-25T08:24:39.999Z</time></trkpt><trkpt lat="43.80547918938501" lon="12.580037640905958"><ele>228.59999999999997</ele><time>2026-04-25T08:24:40.999Z</time></trkpt><trkpt lat="43.805481264849846" lon="12.579923998689251"><ele>228.4</ele><time>2026-04-25T08:24:41.999Z</time></trkpt><trkpt lat="43.80545398548113" lon="12.579822129968605"><ele>228.2</ele><time>2026-04-25T08:24:42.999Z</time></trkpt><trkpt lat="43.80540547989324" lon="12.57969144102833"><ele>228.0</ele><time>2026-04-25T08:24:43.999Z</time></trkpt><trkpt lat="43.80532997014049" lon="12.579556849027728"><ele>227.0</ele><time>2026-04-25T08:24:44.999Z</time></trkpt><trkpt lat="43.80524266484487" lon="12.579417837219992"><ele>226.0</ele><time>2026-04-25T08:24:45.999Z</time></trkpt><trkpt lat="43.80517463758876" lon="12.579304338989328"><ele>225.0</ele><time>2026-04-25T08:24:46.999Z</time></trkpt><trkpt lat="43.80513179652607" lon="12.57919297366694"><ele>224.0</ele><time>2026-04-25T08:24:47.999Z</time></trkpt><trkpt lat="43.80510392834383" lon="12.579071856030184"><ele>223.0</ele><time>2026-04-25T08:24:48.999Z</time></trkpt><trkpt lat="43.80508878866164" lon="12.578934594347377"><ele>224.4</ele><time>2026-04-25T08:24:49.999Z</time></trkpt><trkpt lat="43.805080355390544" lon="12.578789412630872"><ele>225.8</ele><time>2026-04-25T08:24:50.999Z</time></trkpt><trkpt lat="43.8050761634857" lon="12.578650960911942"><ele>227.2</ele><time>2026-04-25T08:24:51.999Z</time></trkpt><trkpt lat="43.8050625003858" lon="12.578502680446247"><ele>228.6</ele><time>2026-04-25T08:24:52.999Z</time></trkpt><trkpt lat="43.805068478407016" lon="12.578358074387348"><ele>230.0</ele><time>2026-04-25T08:24:53.999Z</time></trkpt><trkpt lat="43.805062588976334" lon="12.57819755658913"><ele>230.0</ele><time>2026-04-25T08:24:54.999Z</time></trkpt><trkpt lat="43.80505022710012" lon="12.578018556576144"><ele>230.0</ele><time>2026-04-25T08:24:55.999Z</time></trkpt><trkpt lat="43.805023128341254" lon="12.577825884155002"><ele>230.0</ele><time>2026-04-25T08:24:56.999Z</time></trkpt><trkpt lat="43.80498453329601" lon="12.577622855141147"><ele>230.0</ele><time>2026-04-25T08:24:57.999Z</time></trkpt><trkpt lat="43.80492175951077" lon="12.577423549018748"><ele>229.66666666666669</ele><time>2026-04-25T08:24:58.999Z</time></trkpt><trkpt lat="43.80486976263999" lon="12.577222617045082"><ele>229.33333333333331</ele><time>2026-04-25T08:24:59.999Z</time></trkpt><trkpt lat="43.804828403144214" lon="12.577011834633751"><ele>229.0</ele><time>2026-04-25T08:25:00.999Z</time></trkpt><trkpt lat="43.80477385123854" lon="12.576809802978893"><ele>229.66666666666666</ele><time>2026-04-25T08:25:01.999Z</time></trkpt><trkpt lat="43.80472184967636" lon="12.576597872583097"><ele>230.33333333333331</ele><time>2026-04-25T08:25:02.999Z</time></trkpt><trkpt lat="43.80467142801984" lon="12.576371794835273"><ele>231.0</ele><time>2026-04-25T08:25:03.999Z</time></trkpt><trkpt lat="43.80460531280467" lon="12.576147964821077"><ele>234.0</ele><time>2026-04-25T08:25:04.999Z</time></trkpt><trkpt lat="43.804553778398976" lon="12.575918618967995"><ele>237.0</ele><time>2026-04-25T08:25:05.999Z</time></trkpt><trkpt lat="43.804500418457074" lon="12.575701630716862"><ele>240.0</ele><time>2026-04-25T08:25:06.999Z</time></trkpt><trkpt lat="43.804473017739774" lon="12.575506026773699"><ele>241.0</ele><time>2026-04-25T08:25:07.999Z</time></trkpt><trkpt lat="43.804449520203015" lon="12.57534088003359"><ele>242.0</ele><time>2026-04-25T08:25:08.999Z</time></trkpt><trkpt lat="43.8044482295905" lon="12.575166853223545"><ele>243.0</ele><time>2026-04-25T08:25:09.999Z</time></trkpt><trkpt lat="43.804462555217796" lon="12.574976211673992"><ele>244.0</ele><time>2026-04-25T08:25:10.999Z</time></trkpt><trkpt lat="43.804458856545324" lon="12.574769592465575"><ele>244.0</ele><time>2026-04-25T08:25:11.999Z</time></trkpt><trkpt lat="43.804451091295974" lon="12.574569680419124"><ele>244.0</ele><time>2026-04-25T08:25:12.999Z</time></trkpt><trkpt lat="43.80441324626194" lon="12.574372929635981"><ele>244.0</ele><time>2026-04-25T08:25:13.999Z</time></trkpt><trkpt lat="43.80438594081043" lon="12.574177495315611"><ele>244.0</ele><time>2026-04-25T08:25:14.999Z</time></trkpt><trkpt lat="43.80435209550757" lon="12.574007420987208"><ele>243.75</ele><time>2026-04-25T08:25:15.999Z</time></trkpt><trkpt lat="43.80431124717587" lon="12.573851623787746"><ele>243.5</ele><time>2026-04-25T08:25:16.999Z</time></trkpt><trkpt lat="43.80430687189655" lon="12.573688416755806"><ele>243.25</ele><time>2026-04-25T08:25:17.999Z</time></trkpt><trkpt lat="43.80427591460157" lon="12.57353570921291"><ele>243.0</ele><time>2026-04-25T08:25:18.999Z</time></trkpt><trkpt lat="43.80425960986612" lon="12.573385332238166"><ele>243.0</ele><time>2026-04-25T08:25:19.999Z</time></trkpt><trkpt lat="43.804247953654674" lon="12.573228931778262"><ele>243.0</ele><time>2026-04-25T08:25:20.999Z</time></trkpt><trkpt lat="43.80425415926204" lon="12.573065012930744"><ele>243.0</ele><time>2026-04-25T08:25:21.999Z</time></trkpt><trkpt lat="43.804249909461355" lon="12.57289482359601"><ele>243.0</ele><time>2026-04-25T08:25:22.999Z</time></trkpt><trkpt lat="43.804252030429176" lon="12.57272614503599"><ele>243.25</ele><time>2026-04-25T08:25:23.999Z</time></trkpt><trkpt lat="43.804257579049754" lon="12.572582966578162"><ele>243.5</ele><time>2026-04-25T08:25:24.999Z</time></trkpt><trkpt lat="43.80426333128766" lon="12.572460585045041"><ele>243.75</ele><time>2026-04-25T08:25:25.999Z</time></trkpt><trkpt lat="43.804150856816555" lon="12.572312492177664"><ele>244.0</ele><time>2026-04-25T08:25:26.999Z</time></trkpt><trkpt lat="43.80409287524634" lon="12.572171785527711"><ele>245.0</ele><time>2026-04-25T08:25:27.999Z</time></trkpt><trkpt lat="43.804028441822695" lon="12.572017088413613"><ele>246.0</ele><time>2026-04-25T08:25:28.999Z</time></trkpt><trkpt lat="43.80396302124596" lon="12.571860937516787"><ele>247.0</ele><time>2026-04-25T08:25:29.999Z</time></trkpt><trkpt lat="43.803901801701564" lon="12.571709890449306"><ele>248.0</ele><time>2026-04-25T08:25:30.999Z</time></trkpt><trkpt lat="43.80384709185357" lon="12.571561535110781"><ele>248.0</ele><time>2026-04-25T08:25:31.999Z</time></trkpt><trkpt lat="43.8037992029672" lon="12.571407181666586"><ele>248.0</ele><time>2026-04-25T08:25:32.999Z</time></trkpt><trkpt lat="43.80376180599623" lon="12.571243320893954"><ele>248.0</ele><time>2026-04-25T08:25:33.999Z</time></trkpt><trkpt lat="43.80373169371292" lon="12.571073654171029"><ele>248.0</ele><time>2026-04-25T08:25:35Z</time></trkpt><trkpt lat="43.80376870527596" lon="12.570906012985017"><ele>248.25</ele><time>2026-04-25T08:25:36Z</time></trkpt><trkpt lat="43.8038247610549" lon="12.570750496313423"><ele>248.5</ele><time>2026-04-25T08:25:37Z</time></trkpt><trkpt lat="43.80384276047175" lon="12.570593754368485"><ele>248.75</ele><time>2026-04-25T08:25:38Z</time></trkpt><trkpt lat="43.8038075549005" lon="12.57045004507371"><ele>249.0</ele><time>2026-04-25T08:25:39Z</time></trkpt><trkpt lat="43.80371561591016" lon="12.570329345901605"><ele>249.5</ele><time>2026-04-25T08:25:40Z</time></trkpt><trkpt lat="43.80359446984694" lon="12.570254839596057"><ele>250.0</ele><time>2026-04-25T08:25:41Z</time></trkpt><trkpt lat="43.803494421433804" lon="12.570162548415691"><ele>250.5</ele><time>2026-04-25T08:25:42Z</time></trkpt><trkpt lat="43.80339394212242" lon="12.57005097380291"><ele>251.0</ele><time>2026-04-25T08:25:43Z</time></trkpt><trkpt lat="43.80329449527895" lon="12.569930715122341"><ele>254.5</ele><time>2026-04-25T08:25:44Z</time></trkpt><trkpt lat="43.80320234556793" lon="12.569812009699463"><ele>258.0</ele><time>2026-04-25T08:25:45Z</time></trkpt><trkpt lat="43.803110603785896" lon="12.569704795293175"><ele>261.5</ele><time>2026-04-25T08:25:46Z</time></trkpt><trkpt lat="43.80301876479632" lon="12.569606108889984"><ele>265.0</ele><time>2026-04-25T08:25:47Z</time></trkpt><trkpt lat="43.802925443400326" lon="12.56950476352217"><ele>266.75</ele><time>2026-04-25T08:25:48Z</time></trkpt><trkpt lat="43.80283351368388" lon="12.569407044140494"><ele>268.5</ele><time>2026-04-25T08:25:49Z</time></trkpt><trkpt lat="43.802740286358194" lon="12.569312664605599"><ele>270.25</ele><time>2026-04-25T08:25:50Z</time></trkpt><trkpt lat="43.80264854249436" lon="12.569214189125674"><ele>272.0</ele><time>2026-04-25T08:25:51Z</time></trkpt><trkpt lat="43.802580977115205" lon="12.56907082622793"><ele>272.25</ele><time>2026-04-25T08:25:52Z</time></trkpt><trkpt lat="43.802505902909836" lon="12.568944860255119"><ele>272.5</ele><time>2026-04-25T08:25:53Z</time></trkpt><trkpt lat="43.80244998462043" lon="12.568793655736584"><ele>272.75</ele><time>2026-04-25T08:25:54Z</time></trkpt><trkpt lat="43.80239579356572" lon="12.56864687632706"><ele>273.0</ele><time>2026-04-25T08:25:55Z</time></trkpt><trkpt lat="43.802341983603" lon="12.5685123679881"><ele>274.0</ele><time>2026-04-25T08:25:56Z</time></trkpt><trkpt lat="43.80228769737125" lon="12.568388561882047"><ele>275.0</ele><time>2026-04-25T08:25:57Z</time></trkpt><trkpt lat="43.802219466596256" lon="12.56826713297593"><ele>276.0</ele><time>2026-04-25T08:25:58Z</time></trkpt><trkpt lat="43.80214247569533" lon="12.568145753037381"><ele>277.0</ele><time>2026-04-25T08:25:59Z</time></trkpt><trkpt lat="43.80207007957211" lon="12.568020066956887"><ele>278.0</ele><time>2026-04-25T08:26:00Z</time></trkpt><trkpt lat="43.80200962233213" lon="12.567872140121407"><ele>277.25</ele><time>2026-04-25T08:26:01Z</time></trkpt><trkpt lat="43.801969048071165" lon="12.567707076962495"><ele>276.5</ele><time>2026-04-25T08:26:02Z</time></trkpt><trkpt lat="43.80193851738583" lon="12.567533386750025"><ele>275.75</ele><time>2026-04-25T08:26:03Z</time></trkpt><trkpt lat="43.80189967401197" lon="12.567367711503662"><ele>275.0</ele><time>2026-04-25T08:26:04Z</time></trkpt><trkpt lat="43.80183850122997" lon="12.567201790337364"><ele>275.0</ele><time>2026-04-25T08:26:05Z</time></trkpt><trkpt lat="43.801722987162954" lon="12.567102657664634"><ele>275.0</ele><time>2026-04-25T08:26:06Z</time></trkpt><trkpt lat="43.80162304271437" lon="12.566976421768047"><ele>275.0</ele><time>2026-04-25T08:26:07Z</time></trkpt><trkpt lat="43.801525064883776" lon="12.566870118478256"><ele>275.0</ele><time>2026-04-25T08:26:08Z</time></trkpt><trkpt lat="43.80142593656125" lon="12.566749161838924"><ele>277.25</ele><time>2026-04-25T08:26:09Z</time></trkpt><trkpt lat="43.8013505937814" lon="12.566606494717814"><ele>279.5</ele><time>2026-04-25T08:26:10Z</time></trkpt><trkpt lat="43.80127635474366" lon="12.566476140423612"><ele>281.75</ele><time>2026-04-25T08:26:11Z</time></trkpt><trkpt lat="43.80121272167192" lon="12.566339865200375"><ele>284.0</ele><time>2026-04-25T08:26:12Z</time></trkpt><trkpt lat="43.80112284184518" lon="12.566211886308553"><ele>282.0</ele><time>2026-04-25T08:26:13Z</time></trkpt><trkpt lat="43.800995431886186" lon="12.566125351150422"><ele>280.0</ele><time>2026-04-25T08:26:14Z</time></trkpt><trkpt lat="43.800866656614254" lon="12.566083464199778"><ele>278.0</ele><time>2026-04-25T08:26:15Z</time></trkpt><trkpt lat="43.80073022761585" lon="12.566079504414118"><ele>276.0</ele><time>2026-04-25T08:26:16Z</time></trkpt><trkpt lat="43.80059817592411" lon="12.566104188244305"><ele>276.0</ele><time>2026-04-25T08:26:17Z</time></trkpt><trkpt lat="43.80047038546129" lon="12.566146675212767"><ele>276.0</ele><time>2026-04-25T08:26:18Z</time></trkpt><trkpt lat="43.80034670208007" lon="12.566200965474826"><ele>276.0</ele><time>2026-04-25T08:26:19Z</time></trkpt><trkpt lat="43.800228329892555" lon="12.566263332517549"><ele>276.0</ele><time>2026-04-25T08:26:20Z</time></trkpt><trkpt lat="43.80011684631317" lon="12.566336185077986"><ele>276.1666666666667</ele><time>2026-04-25T08:26:21Z</time></trkpt><trkpt lat="43.800030215098296" lon="12.566383331944035"><ele>276.3333333333333</ele><time>2026-04-25T08:26:22Z</time></trkpt><trkpt lat="43.79995428971573" lon="12.566343917211327"><ele>276.5</ele><time>2026-04-25T08:26:23Z</time></trkpt><trkpt lat="43.79992072974185" lon="12.56625491227709"><ele>276.66666666666663</ele><time>2026-04-25T08:26:24Z</time></trkpt><trkpt lat="43.79992246857255" lon="12.566142657537432"><ele>276.8333333333333</ele><time>2026-04-25T08:26:25Z</time></trkpt><trkpt lat="43.79997553927617" lon="12.566004465571167"><ele>277.0</ele><time>2026-04-25T08:26:26Z</time></trkpt><trkpt lat="43.799988499167306" lon="12.565861304410875"><ele>279.0</ele><time>2026-04-25T08:26:27Z</time></trkpt><trkpt lat="43.800012252476286" lon="12.565723673566582"><ele>281.0</ele><time>2026-04-25T08:26:28Z</time></trkpt><trkpt lat="43.80000947775511" lon="12.565591261115607"><ele>283.0</ele><time>2026-04-25T08:26:29Z</time></trkpt><trkpt lat="43.79998172758012" lon="12.565469647375009"><ele>285.0</ele><time>2026-04-25T08:26:30Z</time></trkpt><trkpt lat="43.79994541585886" lon="12.565342169894384"><ele>287.0</ele><time>2026-04-25T08:26:31Z</time></trkpt><trkpt lat="43.799854175171276" lon="12.565248849054306"><ele>287.0</ele><time>2026-04-25T08:26:32Z</time></trkpt><trkpt lat="43.799754684890694" lon="12.565184588975022"><ele>287.0</ele><time>2026-04-25T08:26:33Z</time></trkpt><trkpt lat="43.79965767741612" lon="12.565118959481183"><ele>287.0</ele><time>2026-04-25T08:26:34Z</time></trkpt><trkpt lat="43.79956602075738" lon="12.565041554634952"><ele>287.0</ele><time>2026-04-25T08:26:35Z</time></trkpt><trkpt lat="43.79945840335217" lon="12.564994086698945"><ele>287.0</ele><time>2026-04-25T08:26:36Z</time></trkpt><trkpt lat="43.79934501748763" lon="12.564984787318018"><ele>289.2</ele><time>2026-04-25T08:26:36.999Z</time></trkpt><trkpt lat="43.79923707015872" lon="12.56503313569486"><ele>291.4</ele><time>2026-04-25T08:26:37.999Z</time></trkpt><trkpt lat="43.799137379557585" lon="12.565088835945378"><ele>293.6</ele><time>2026-04-25T08:26:38.999Z</time></trkpt><trkpt lat="43.799052359985886" lon="12.56517575522514"><ele>295.8</ele><time>2026-04-25T08:26:39.999Z</time></trkpt><trkpt lat="43.798975147162714" lon="12.565274975239054"><ele>298.0</ele><time>2026-04-25T08:26:40.999Z</time></trkpt><trkpt lat="43.79890432596989" lon="12.565382171748047"><ele>298.0</ele><time>2026-04-25T08:26:41.999Z</time></trkpt><trkpt lat="43.79883849362506" lon="12.565478592820092"><ele>298.0</ele><time>2026-04-25T08:26:42.999Z</time></trkpt><trkpt lat="43.79876518736003" lon="12.56557733614045"><ele>298.0</ele><time>2026-04-25T08:26:43.999Z</time></trkpt><trkpt lat="43.79868151892725" lon="12.565683274988018"><ele>298.0</ele><time>2026-04-25T08:26:44.999Z</time></trkpt><trkpt lat="43.7985989032424" lon="12.56576797564054"><ele>298.0</ele><time>2026-04-25T08:26:45.999Z</time></trkpt><trkpt lat="43.7985110966682" lon="12.565825641322895"><ele>299.6</ele><time>2026-04-25T08:26:46.999Z</time></trkpt><trkpt lat="43.798416595105635" lon="12.565844980436378"><ele>301.20000000000005</ele><time>2026-04-25T08:26:47.999Z</time></trkpt><trkpt lat="43.79832364470247" lon="12.565822031380897"><ele>302.8</ele><time>2026-04-25T08:26:48.999Z</time></trkpt><trkpt lat="43.79822780744685" lon="12.565760913441542"><ele>304.40000000000003</ele><time>2026-04-25T08:26:49.999Z</time></trkpt><trkpt lat="43.79813570069567" lon="12.565674440867483"><ele>306.0</ele><time>2026-04-25T08:26:50.999Z</time></trkpt><trkpt lat="43.79804277478625" lon="12.565578586984863"><ele>306.0</ele><time>2026-04-25T08:26:51.999Z</time></trkpt><trkpt lat="43.79794784594694" lon="12.565475893522441"><ele>306.0</ele><time>2026-04-25T08:26:52.999Z</time></trkpt><trkpt lat="43.79785722448828" lon="12.565366385417825"><ele>306.0</ele><time>2026-04-25T08:26:53.999Z</time></trkpt><trkpt lat="43.7977738233983" lon="12.565239503840413"><ele>306.0</ele><time>2026-04-25T08:26:54.999Z</time></trkpt><trkpt lat="43.797700032832715" lon="12.565087150474172"><ele>306.5</ele><time>2026-04-25T08:26:55.999Z</time></trkpt><trkpt lat="43.797638292858096" lon="12.564923838295478"><ele>307.0</ele><time>2026-04-25T08:26:56.999Z</time></trkpt><trkpt lat="43.79758400167643" lon="12.564757416916157"><ele>307.5</ele><time>2026-04-25T08:26:57.999Z</time></trkpt><trkpt lat="43.79753097922177" lon="12.564593399352193"><ele>308.0</ele><time>2026-04-25T08:26:58.999Z</time></trkpt><trkpt lat="43.7974764825395" lon="12.564433283697772"><ele>308.0</ele><time>2026-04-25T08:26:59.999Z</time></trkpt><trkpt lat="43.79742303927321" lon="12.564274571610357"><ele>308.0</ele><time>2026-04-25T08:27:00.999Z</time></trkpt><trkpt lat="43.79737790867231" lon="12.564111090900592"><ele>308.0</ele><time>2026-04-25T08:27:01.999Z</time></trkpt><trkpt lat="43.797352051744724" lon="12.563942722342606"><ele>308.0</ele><time>2026-04-25T08:27:02.999Z</time></trkpt><trkpt lat="43.79735220887042" lon="12.563777604495238"><ele>308.0</ele><time>2026-04-25T08:27:03.999Z</time></trkpt><trkpt lat="43.797380931571816" lon="12.56363277404214"><ele>308.0</ele><time>2026-04-25T08:27:04.999Z</time></trkpt><trkpt lat="43.79745609574656" lon="12.56351120083623"><ele>308.0</ele><time>2026-04-25T08:27:05.999Z</time></trkpt><trkpt lat="43.797514966596324" lon="12.563358506938686"><ele>308.0</ele><time>2026-04-25T08:27:06.999Z</time></trkpt><trkpt lat="43.797586971376326" lon="12.563207367264269"><ele>308.0</ele><time>2026-04-25T08:27:07.999Z</time></trkpt><trkpt lat="43.79764519015369" lon="12.563034370451234"><ele>308.0</ele><time>2026-04-25T08:27:08.999Z</time></trkpt><trkpt lat="43.79769971039073" lon="12.562851743303735"><ele>308.0</ele><time>2026-04-25T08:27:09.999Z</time></trkpt><trkpt lat="43.797754450225284" lon="12.562671251341442"><ele>308.0</ele><time>2026-04-25T08:27:10.999Z</time></trkpt><trkpt lat="43.79781234966828" lon="12.562489573110675"><ele>306.5</ele><time>2026-04-25T08:27:11.999Z</time></trkpt><trkpt lat="43.79787623798143" lon="12.562311019668268"><ele>305.0</ele><time>2026-04-25T08:27:12.999Z</time></trkpt><trkpt lat="43.797946232572976" lon="12.56213334776229"><ele>303.5</ele><time>2026-04-25T08:27:13.999Z</time></trkpt><trkpt lat="43.79801332428622" lon="12.561957961361845"><ele>302.0</ele><time>2026-04-25T08:27:14.999Z</time></trkpt><trkpt lat="43.79808161907447" lon="12.561797302752813"><ele>301.25</ele><time>2026-04-25T08:27:15.999Z</time></trkpt><trkpt lat="43.79813067947226" lon="12.561626971168556"><ele>300.5</ele><time>2026-04-25T08:27:16.999Z</time></trkpt><trkpt lat="43.798132534799976" lon="12.561414002752837"><ele>299.75</ele><time>2026-04-25T08:27:17.999Z</time></trkpt><trkpt lat="43.798096048204826" lon="12.561208304250105"><ele>299.0</ele><time>2026-04-25T08:27:18.999Z</time></trkpt><trkpt lat="43.7980294771166" lon="12.561017802939915"><ele>298.25</ele><time>2026-04-25T08:27:19.999Z</time></trkpt><trkpt lat="43.797952097667704" lon="12.560845315020055"><ele>297.5</ele><time>2026-04-25T08:27:20.999Z</time></trkpt><trkpt lat="43.797870666950956" lon="12.560701216069463"><ele>296.75</ele><time>2026-04-25T08:27:21.999Z</time></trkpt><trkpt lat="43.79779373371429" lon="12.560548737261824"><ele>296.0</ele><time>2026-04-25T08:27:22.999Z</time></trkpt><trkpt lat="43.797755487952294" lon="12.560366537694318"><ele>296.75</ele><time>2026-04-25T08:27:23.999Z</time></trkpt><trkpt lat="43.797772735906356" lon="12.560178861321038"><ele>297.5</ele><time>2026-04-25T08:27:24.999Z</time></trkpt><trkpt lat="43.79776928550108" lon="12.559997133393772"><ele>298.25</ele><time>2026-04-25T08:27:25.999Z</time></trkpt><trkpt lat="43.79778356940909" lon="12.55981858116117"><ele>299.0</ele><time>2026-04-25T08:27:26.999Z</time></trkpt><trkpt lat="43.79781083557126" lon="12.559642112911721"><ele>300.75</ele><time>2026-04-25T08:27:27.999Z</time></trkpt><trkpt lat="43.79779645226096" lon="12.55947174149456"><ele>302.5</ele><time>2026-04-25T08:27:28.999Z</time></trkpt><trkpt lat="43.79774614467282" lon="12.559302725958668"><ele>304.25</ele><time>2026-04-25T08:27:29.999Z</time></trkpt><trkpt lat="43.79765849840736" lon="12.559165374102959"><ele>306.0</ele><time>2026-04-25T08:27:30.999Z</time></trkpt><trkpt lat="43.79757139953713" lon="12.559034489697304"><ele>309.75</ele><time>2026-04-25T08:27:31.999Z</time></trkpt><trkpt lat="43.7974890829869" lon="12.558893572869774"><ele>313.5</ele><time>2026-04-25T08:27:32.999Z</time></trkpt><trkpt lat="43.797417888770966" lon="12.558761883129485"><ele>317.25</ele><time>2026-04-25T08:27:33.999Z</time></trkpt><trkpt lat="43.797388448340335" lon="12.5586048367209"><ele>321.0</ele><time>2026-04-25T08:27:34.999Z</time></trkpt><trkpt lat="43.797380547101454" lon="12.558429512689983"><ele>321.75</ele><time>2026-04-25T08:27:35.999Z</time></trkpt><trkpt lat="43.79737745898259" lon="12.558239882556483"><ele>322.5</ele><time>2026-04-25T08:27:36.999Z</time></trkpt><trkpt lat="43.797374504592305" lon="12.558048817268151"><ele>323.25</ele><time>2026-04-25T08:27:37.999Z</time></trkpt><trkpt lat="43.79736442998869" lon="12.55785550060259"><ele>324.0</ele><time>2026-04-25T08:27:38.999Z</time></trkpt><trkpt lat="43.797318129459924" lon="12.557669280075142"><ele>324.5</ele><time>2026-04-25T08:27:40Z</time></trkpt><trkpt lat="43.79726293394529" lon="12.5574944255863"><ele>325.0</ele><time>2026-04-25T08:27:41Z</time></trkpt><trkpt lat="43.79720517428098" lon="12.55732284434306"><ele>325.5</ele><time>2026-04-25T08:27:42Z</time></trkpt><trkpt lat="43.79714962083619" lon="12.557154871713163"><ele>326.0</ele><time>2026-04-25T08:27:43Z</time></trkpt><trkpt lat="43.7970846601096" lon="12.556983670120314"><ele>326.0</ele><time>2026-04-25T08:27:44Z</time></trkpt><trkpt lat="43.79699122666085" lon="12.556837618042234"><ele>326.0</ele><time>2026-04-25T08:27:45Z</time></trkpt><trkpt lat="43.79689457962708" lon="12.556707307383762"><ele>326.0</ele><time>2026-04-25T08:27:46Z</time></trkpt><trkpt lat="43.79678361573644" lon="12.556601668096105"><ele>326.0</ele><time>2026-04-25T08:27:47Z</time></trkpt><trkpt lat="43.79668827609245" lon="12.556469656552522"><ele>327.75</ele><time>2026-04-25T08:27:48Z</time></trkpt><trkpt lat="43.79658608231204" lon="12.556340871630576"><ele>329.5</ele><time>2026-04-25T08:27:49Z</time></trkpt><trkpt lat="43.79648169722428" lon="12.556226606512862"><ele>331.25</ele><time>2026-04-25T08:27:50Z</time></trkpt><trkpt lat="43.79637564261981" lon="12.556130763481852"><ele>333.0</ele><time>2026-04-25T08:27:51Z</time></trkpt><trkpt lat="43.796298977902985" lon="12.556018938867322"><ele>333.0</ele><time>2026-04-25T08:27:52Z</time></trkpt><trkpt lat="43.79624532642289" lon="12.555898996970244"><ele>333.0</ele><time>2026-04-25T08:27:53Z</time></trkpt><trkpt lat="43.79625612250419" lon="12.555772484025226"><ele>333.0</ele><time>2026-04-25T08:27:54Z</time></trkpt><trkpt lat="43.79626638470342" lon="12.555634590997006"><ele>333.0</ele><time>2026-04-25T08:27:55Z</time></trkpt><trkpt lat="43.796275593279994" lon="12.55546689231199"><ele>333.0</ele><time>2026-04-25T08:27:56Z</time></trkpt><trkpt lat="43.79630836180891" lon="12.555295783529685"><ele>332.0</ele><time>2026-04-25T08:27:57Z</time></trkpt><trkpt lat="43.79634792290224" lon="12.555106501278681"><ele>331.0</ele><time>2026-04-25T08:27:58Z</time></trkpt><trkpt lat="43.79638496029185" lon="12.554911192375473"><ele>330.0</ele><time>2026-04-25T08:27:59Z</time></trkpt><trkpt lat="43.79642096239938" lon="12.554712427195643"><ele>329.0</ele><time>2026-04-25T08:28:00Z</time></trkpt><trkpt lat="43.7964722824068" lon="12.554516651831882"><ele>331.25</ele><time>2026-04-25T08:28:01Z</time></trkpt><trkpt lat="43.796515802452475" lon="12.5543196680385"><ele>333.5</ele><time>2026-04-25T08:28:02Z</time></trkpt><trkpt lat="43.796553602159186" lon="12.55412453632905"><ele>335.75</ele><time>2026-04-25T08:28:03Z</time></trkpt><trkpt lat="43.79658682862634" lon="12.553934135925642"><ele>338.0</ele><time>2026-04-25T08:28:04Z</time></trkpt><trkpt lat="43.79655167898584" lon="12.553743439708132"><ele>339.0</ele><time>2026-04-25T08:28:05Z</time></trkpt><trkpt lat="43.79652713096817" lon="12.553560003152825"><ele>340.0</ele><time>2026-04-25T08:28:06Z</time></trkpt><trkpt lat="43.79650325692771" lon="12.553378744607196"><ele>341.0</ele><time>2026-04-25T08:28:07Z</time></trkpt><trkpt lat="43.79649467212219" lon="12.553194065869523"><ele>342.0</ele><time>2026-04-25T08:28:08Z</time></trkpt><trkpt lat="43.796508133493965" lon="12.553009567832325"><ele>342.75</ele><time>2026-04-25T08:28:09Z</time></trkpt><trkpt lat="43.79656256453649" lon="12.552831436803755"><ele>343.5</ele><time>2026-04-25T08:28:10Z</time></trkpt><trkpt lat="43.79659068990102" lon="12.552642335363835"><ele>344.25</ele><time>2026-04-25T08:28:11Z</time></trkpt><trkpt lat="43.79664041523647" lon="12.552455575991656"><ele>345.0</ele><time>2026-04-25T08:28:12Z</time></trkpt><trkpt lat="43.79668877919337" lon="12.552273160215272"><ele>345.0</ele><time>2026-04-25T08:28:13Z</time></trkpt><trkpt lat="43.79672810664112" lon="12.552087210850884"><ele>345.0</ele><time>2026-04-25T08:28:14Z</time></trkpt><trkpt lat="43.79675782510537" lon="12.551900444784833"><ele>345.0</ele><time>2026-04-25T08:28:15Z</time></trkpt><trkpt lat="43.79680671419098" lon="12.551717409871367"><ele>345.0</ele><time>2026-04-25T08:28:16Z</time></trkpt><trkpt lat="43.796853959078476" lon="12.551534362530301"><ele>344.75</ele><time>2026-04-25T08:28:17Z</time></trkpt><trkpt lat="43.79689401898936" lon="12.551344018793952"><ele>344.5</ele><time>2026-04-25T08:28:18Z</time></trkpt><trkpt lat="43.79695389198491" lon="12.551163868390999"><ele>344.25</ele><time>2026-04-25T08:28:19Z</time></trkpt><trkpt lat="43.797022492044974" lon="12.550985814541686"><ele>344.0</ele><time>2026-04-25T08:28:20Z</time></trkpt><trkpt lat="43.79705238847369" lon="12.550785697252774"><ele>344.0</ele><time>2026-04-25T08:28:21Z</time></trkpt><trkpt lat="43.797064589648535" lon="12.550583207025477"><ele>344.0</ele><time>2026-04-25T08:28:22Z</time></trkpt><trkpt lat="43.79706497205267" lon="12.550380492021397"><ele>344.0</ele><time>2026-04-25T08:28:23Z</time></trkpt><trkpt lat="43.7970568860203" lon="12.550181130855961"><ele>344.0</ele><time>2026-04-25T08:28:24Z</time></trkpt><trkpt lat="43.797047772015546" lon="12.54999100955601"><ele>346.0</ele><time>2026-04-25T08:28:25Z</time></trkpt><trkpt lat="43.79702889992171" lon="12.549805293800896"><ele>348.0</ele><time>2026-04-25T08:28:26Z</time></trkpt><trkpt lat="43.79704086203389" lon="12.549633805772421"><ele>350.0</ele><time>2026-04-25T08:28:27Z</time></trkpt><trkpt lat="43.79707554713246" lon="12.549478501776926"><ele>352.0</ele><time>2026-04-25T08:28:28Z</time></trkpt><trkpt lat="43.797141934276375" lon="12.549369730892575"><ele>352.0</ele><time>2026-04-25T08:28:29Z</time></trkpt><trkpt lat="43.79720882138386" lon="12.549285068724215"><ele>352.0</ele><time>2026-04-25T08:28:30Z</time></trkpt><trkpt lat="43.79730065272902" lon="12.549225572121536"><ele>352.0</ele><time>2026-04-25T08:28:31Z</time></trkpt><trkpt lat="43.79739762317499" lon="12.549146743721069"><ele>352.0</ele><time>2026-04-25T08:28:32Z</time></trkpt><trkpt lat="43.79749822689273" lon="12.54908988814172"><ele>352.0</ele><time>2026-04-25T08:28:33Z</time></trkpt><trkpt lat="43.79759598825566" lon="12.549034864218925"><ele>350.0</ele><time>2026-04-25T08:28:34Z</time></trkpt><trkpt lat="43.797678336246015" lon="12.548941424577327"><ele>348.0</ele><time>2026-04-25T08:28:35Z</time></trkpt><trkpt lat="43.79776101282735" lon="12.54881744069888"><ele>346.0</ele><time>2026-04-25T08:28:36Z</time></trkpt><trkpt lat="43.79782607809722" lon="12.548657653501078"><ele>344.0</ele><time>2026-04-25T08:28:37Z</time></trkpt><trkpt lat="43.79789355689304" lon="12.54849674191381"><ele>342.25</ele><time>2026-04-25T08:28:38Z</time></trkpt><trkpt lat="43.79795861238957" lon="12.548325741998287"><ele>340.5</ele><time>2026-04-25T08:28:39Z</time></trkpt><trkpt lat="43.79802204689437" lon="12.548147511470823"><ele>338.75</ele><time>2026-04-25T08:28:40Z</time></trkpt><trkpt lat="43.798087885551276" lon="12.547965284231779"><ele>337.0</ele><time>2026-04-25T08:28:41Z</time></trkpt><trkpt lat="43.79815518007771" lon="12.547786053065467"><ele>336.75</ele><time>2026-04-25T08:28:42Z</time></trkpt><trkpt lat="43.79821305965624" lon="12.547613752699464"><ele>336.5</ele><time>2026-04-25T08:28:43Z</time></trkpt><trkpt lat="43.79825871041396" lon="12.5474424638844"><ele>336.25</ele><time>2026-04-25T08:28:44Z</time></trkpt><trkpt lat="43.7983136267129" lon="12.54726116718016"><ele>336.0</ele><time>2026-04-25T08:28:45Z</time></trkpt><trkpt lat="43.79833973396154" lon="12.547061916173638"><ele>336.25</ele><time>2026-04-25T08:28:46Z</time></trkpt><trkpt lat="43.79835651196952" lon="12.54686673940082"><ele>336.5</ele><time>2026-04-25T08:28:47Z</time></trkpt><trkpt lat="43.79836227634102" lon="12.546669832897056"><ele>336.75</ele><time>2026-04-25T08:28:48Z</time></trkpt><trkpt lat="43.79834699087305" lon="12.546481232845247"><ele>337.0</ele><time>2026-04-25T08:28:49Z</time></trkpt><trkpt lat="43.798291134164565" lon="12.546306878824693"><ele>338.75</ele><time>2026-04-25T08:28:50Z</time></trkpt><trkpt lat="43.798242397372704" lon="12.546134726629742"><ele>340.5</ele><time>2026-04-25T08:28:51Z</time></trkpt><trkpt lat="43.79820431614956" lon="12.545956260575029"><ele>342.25</ele><time>2026-04-25T08:28:52Z</time></trkpt><trkpt lat="43.79818638173615" lon="12.545770986943474"><ele>344.0</ele><time>2026-04-25T08:28:53Z</time></trkpt><trkpt lat="43.79821203358163" lon="12.545591928301816"><ele>344.0</ele><time>2026-04-25T08:28:54Z</time></trkpt><trkpt lat="43.798219649498655" lon="12.545405652970036"><ele>344.0</ele><time>2026-04-25T08:28:55Z</time></trkpt><trkpt lat="43.79821638916318" lon="12.545217853109747"><ele>344.0</ele><time>2026-04-25T08:28:56Z</time></trkpt><trkpt lat="43.79818828505698" lon="12.545026997873348"><ele>344.0</ele><time>2026-04-25T08:28:57Z</time></trkpt><trkpt lat="43.79814417097698" lon="12.544839858237063"><ele>345.75</ele><time>2026-04-25T08:28:58Z</time></trkpt><trkpt lat="43.79809360516898" lon="12.544654128059458"><ele>347.5</ele><time>2026-04-25T08:28:58.999Z</time></trkpt><trkpt lat="43.79804670748097" lon="12.544478119757192"><ele>349.25</ele><time>2026-04-25T08:28:59.999Z</time></trkpt><trkpt lat="43.79802259352641" lon="12.54428612345075"><ele>351.0</ele><time>2026-04-25T08:29:00.999Z</time></trkpt><trkpt lat="43.79800727555504" lon="12.544086366839855"><ele>350.25</ele><time>2026-04-25T08:29:01.999Z</time></trkpt><trkpt lat="43.79799076448975" lon="12.543879206295832"><ele>349.5</ele><time>2026-04-25T08:29:02.999Z</time></trkpt><trkpt lat="43.7979589838385" lon="12.54367695296056"><ele>348.75</ele><time>2026-04-25T08:29:03.999Z</time></trkpt><trkpt lat="43.797967743539395" lon="12.543476147633287"><ele>348.0</ele><time>2026-04-25T08:29:04.999Z</time></trkpt><trkpt lat="43.797965995822075" lon="12.543273353950408"><ele>348.0</ele><time>2026-04-25T08:29:05.999Z</time></trkpt><trkpt lat="43.7979647752719" lon="12.543077476607753"><ele>348.0</ele><time>2026-04-25T08:29:06.999Z</time></trkpt><trkpt lat="43.79796237734076" lon="12.542882128326028"><ele>348.0</ele><time>2026-04-25T08:29:07.999Z</time></trkpt><trkpt lat="43.79795805862756" lon="12.542679036520942"><ele>348.0</ele><time>2026-04-25T08:29:08.999Z</time></trkpt><trkpt lat="43.79795036579821" lon="12.542473091605691"><ele>348.0</ele><time>2026-04-25T08:29:09.999Z</time></trkpt><trkpt lat="43.79793087819005" lon="12.542263967147619"><ele>348.0</ele><time>2026-04-25T08:29:10.999Z</time></trkpt><trkpt lat="43.7978884756894" lon="12.542061788134362"><ele>348.0</ele><time>2026-04-25T08:29:11.999Z</time></trkpt><trkpt lat="43.79782164550048" lon="12.541878511111273"><ele>348.5</ele><time>2026-04-25T08:29:12.999Z</time></trkpt><trkpt lat="43.797741830465625" lon="12.541714655950077"><ele>349.0</ele><time>2026-04-25T08:29:13.999Z</time></trkpt><trkpt lat="43.79763209461952" lon="12.541579295184002"><ele>349.5</ele><time>2026-04-25T08:29:14.999Z</time></trkpt><trkpt lat="43.797572458644375" lon="12.54139595177704"><ele>350.0</ele><time>2026-04-25T08:29:15.999Z</time></trkpt><trkpt lat="43.79751868807449" lon="12.541215657021638"><ele>353.0</ele><time>2026-04-25T08:29:16.999Z</time></trkpt><trkpt lat="43.79748797535205" lon="12.541025369930699"><ele>356.0</ele><time>2026-04-25T08:29:17.999Z</time></trkpt><trkpt lat="43.79746047847665" lon="12.540821941476024"><ele>359.0</ele><time>2026-04-25T08:29:18.999Z</time></trkpt><trkpt lat="43.797429347465894" lon="12.540618716621696"><ele>362.0</ele><time>2026-04-25T08:29:19.999Z</time></trkpt><trkpt lat="43.79739355844133" lon="12.540416469292287"><ele>363.6666666666667</ele><time>2026-04-25T08:29:20.999Z</time></trkpt><trkpt lat="43.79734915437855" lon="12.540214392613525"><ele>365.3333333333333</ele><time>2026-04-25T08:29:21.999Z</time></trkpt><trkpt lat="43.79728104437594" lon="12.540020061193855"><ele>367.0</ele><time>2026-04-25T08:29:22.999Z</time></trkpt><trkpt lat="43.79718804002506" lon="12.539845956671106"><ele>367.0</ele><time>2026-04-25T08:29:23.999Z</time></trkpt><trkpt lat="43.79708796933458" lon="12.53968390463149"><ele>367.0</ele><time>2026-04-25T08:29:24.999Z</time></trkpt><trkpt lat="43.79697573340845" lon="12.539534814866752"><ele>367.0</ele><time>2026-04-25T08:29:25.999Z</time></trkpt><trkpt lat="43.79684719671669" lon="12.539415828710219"><ele>369.0</ele><time>2026-04-25T08:29:26.999Z</time></trkpt><trkpt lat="43.796726680412796" lon="12.539292172174266"><ele>371.0</ele><time>2026-04-25T08:29:27.999Z</time></trkpt><trkpt lat="43.79661852992496" lon="12.53915068529023"><ele>373.0</ele><time>2026-04-25T08:29:28.999Z</time></trkpt><trkpt lat="43.796516450256" lon="12.53899367776033"><ele>373.0</ele><time>2026-04-25T08:29:29.999Z</time></trkpt><trkpt lat="43.79642933374991" lon="12.53883495610923"><ele>373.0</ele><time>2026-04-25T08:29:30.999Z</time></trkpt><trkpt lat="43.7963304098528" lon="12.538679126988509"><ele>373.0</ele><time>2026-04-25T08:29:31.999Z</time></trkpt><trkpt lat="43.79621048991172" lon="12.538555991960806"><ele>373.0</ele><time>2026-04-25T08:29:32.999Z</time></trkpt><trkpt lat="43.79606736311387" lon="12.538477311265606"><ele>373.0</ele><time>2026-04-25T08:29:33.999Z</time></trkpt><trkpt lat="43.79592596327535" lon="12.538416590103866"><ele>373.0</ele><time>2026-04-25T08:29:34.999Z</time></trkpt><trkpt lat="43.795786195055506" lon="12.53835678866587"><ele>373.0</ele><time>2026-04-25T08:29:35.999Z</time></trkpt><trkpt lat="43.79565011859672" lon="12.538297781351687"><ele>373.0</ele><time>2026-04-25T08:29:36.999Z</time></trkpt><trkpt lat="43.79551754314703" lon="12.538235466990908"><ele>373.0</ele><time>2026-04-25T08:29:37.999Z</time></trkpt><trkpt lat="43.79538235329143" lon="12.538173134424843"><ele>373.0</ele><time>2026-04-25T08:29:38.999Z</time></trkpt><trkpt lat="43.79524796875547" lon="12.538148920694585"><ele>373.0</ele><time>2026-04-25T08:29:39.999Z</time></trkpt><trkpt lat="43.795135225215596" lon="12.538081729432598"><ele>373.0</ele><time>2026-04-25T08:29:40.999Z</time></trkpt><trkpt lat="43.79504290870521" lon="12.537990082265948"><ele>372.5</ele><time>2026-04-25T08:29:41.999Z</time></trkpt><trkpt lat="43.79498025756928" lon="12.537870547718018"><ele>372.0</ele><time>2026-04-25T08:29:42.999Z</time></trkpt><trkpt lat="43.794957041551065" lon="12.537711185964987"><ele>371.5</ele><time>2026-04-25T08:29:43.999Z</time></trkpt><trkpt lat="43.79492271218873" lon="12.537555105642664"><ele>371.0</ele><time>2026-04-25T08:29:44.999Z</time></trkpt><trkpt lat="43.79489974232729" lon="12.537388240631676"><ele>371.0</ele><time>2026-04-25T08:29:46Z</time></trkpt><trkpt lat="43.79488085839682" lon="12.537216848334168"><ele>371.0</ele><time>2026-04-25T08:29:47Z</time></trkpt><trkpt lat="43.7948646975462" lon="12.53705942689811"><ele>371.0</ele><time>2026-04-25T08:29:48Z</time></trkpt><trkpt lat="43.79485185966275" lon="12.536909303906297"><ele>371.0</ele><time>2026-04-25T08:29:49Z</time></trkpt><trkpt lat="43.794840110749746" lon="12.53677191442946"><ele>371.0</ele><time>2026-04-25T08:29:50Z</time></trkpt><trkpt lat="43.794825240785286" lon="12.536636440857913"><ele>370.6</ele><time>2026-04-25T08:29:51Z</time></trkpt><trkpt lat="43.79481131675004" lon="12.536519927154934"><ele>370.20000000000005</ele><time>2026-04-25T08:29:52Z</time></trkpt><trkpt lat="43.79477709044776" lon="12.536396813881977"><ele>369.79999999999995</ele><time>2026-04-25T08:29:53Z</time></trkpt><trkpt lat="43.79474803917991" lon="12.536260390194407"><ele>369.4</ele><time>2026-04-25T08:29:54Z</time></trkpt><trkpt lat="43.79471126630495" lon="12.536118431786752"><ele>369.0</ele><time>2026-04-25T08:29:55Z</time></trkpt><trkpt lat="43.79466156909658" lon="12.535971954350318"><ele>367.25</ele><time>2026-04-25T08:29:56Z</time></trkpt><trkpt lat="43.794597553394794" lon="12.535834836568652"><ele>365.5</ele><time>2026-04-25T08:29:57Z</time></trkpt><trkpt lat="43.794520899456735" lon="12.535713104818267"><ele>363.75</ele><time>2026-04-25T08:29:58Z</time></trkpt><trkpt lat="43.79444550680448" lon="12.535585215513102"><ele>362.0</ele><time>2026-04-25T08:29:59Z</time></trkpt><trkpt lat="43.79434824140065" lon="12.535480464081601"><ele>362.0</ele><time>2026-04-25T08:30:00Z</time></trkpt><trkpt lat="43.794243305227226" lon="12.535381706827216"><ele>362.0</ele><time>2026-04-25T08:30:01Z</time></trkpt><trkpt lat="43.79413092582081" lon="12.535286776255868"><ele>362.0</ele><time>2026-04-25T08:30:02Z</time></trkpt><trkpt lat="43.79401321246984" lon="12.535194371105437"><ele>362.0</ele><time>2026-04-25T08:30:03Z</time></trkpt><trkpt lat="43.793895032569225" lon="12.535108419181917"><ele>362.0</ele><time>2026-04-25T08:30:04Z</time></trkpt><trkpt lat="43.79377683120021" lon="12.535019303932637"><ele>362.0</ele><time>2026-04-25T08:30:05Z</time></trkpt><trkpt lat="43.79366087972516" lon="12.53493020047541"><ele>362.0</ele><time>2026-04-25T08:30:06Z</time></trkpt><trkpt lat="43.7935470046998" lon="12.534844571297215"><ele>362.0</ele><time>2026-04-25T08:30:07Z</time></trkpt><trkpt lat="43.79343494046702" lon="12.534761474607526"><ele>362.0</ele><time>2026-04-25T08:30:08Z</time></trkpt><trkpt lat="43.79332321398455" lon="12.53469349612267"><ele>362.0</ele><time>2026-04-25T08:30:09Z</time></trkpt><trkpt lat="43.793231676874996" lon="12.534600071678355"><ele>362.0</ele><time>2026-04-25T08:30:10Z</time></trkpt><trkpt lat="43.79315109838764" lon="12.53448095912831"><ele>362.0</ele><time>2026-04-25T08:30:11Z</time></trkpt><trkpt lat="43.79311239263799" lon="12.534326952129074"><ele>363.0</ele><time>2026-04-25T08:30:12Z</time></trkpt><trkpt lat="43.79306048191969" lon="12.534172499398652"><ele>364.0</ele><time>2026-04-25T08:30:13Z</time></trkpt><trkpt lat="43.79299009797849" lon="12.534018847864768"><ele>365.0</ele><time>2026-04-25T08:30:14Z</time></trkpt><trkpt lat="43.792886107492855" lon="12.533901574526537"><ele>366.0</ele><time>2026-04-25T08:30:15Z</time></trkpt><trkpt lat="43.79279571938686" lon="12.53376381056228"><ele>364.5</ele><time>2026-04-25T08:30:16Z</time></trkpt><trkpt lat="43.7926899491792" lon="12.533648915425822"><ele>363.0</ele><time>2026-04-25T08:30:17Z</time></trkpt><trkpt lat="43.79257996181218" lon="12.533540832165306"><ele>361.5</ele><time>2026-04-25T08:30:18Z</time></trkpt><trkpt lat="43.79245986720764" lon="12.533448981084458"><ele>360.0</ele><time>2026-04-25T08:30:19Z</time></trkpt><trkpt lat="43.792329372678154" lon="12.53339518390785"><ele>360.0</ele><time>2026-04-25T08:30:20Z</time></trkpt><trkpt lat="43.792209993284736" lon="12.533299473600882"><ele>360.0</ele><time>2026-04-25T08:30:21Z</time></trkpt><trkpt lat="43.792082620671195" lon="12.53322944893505"><ele>360.0</ele><time>2026-04-25T08:30:22Z</time></trkpt><trkpt lat="43.79195167017036" lon="12.53317721563884"><ele>360.0</ele><time>2026-04-25T08:30:23Z</time></trkpt><trkpt lat="43.79181946529306" lon="12.53315509127541"><ele>359.25</ele><time>2026-04-25T08:30:24Z</time></trkpt><trkpt lat="43.79168911208874" lon="12.533178535007545"><ele>358.5</ele><time>2026-04-25T08:30:25Z</time></trkpt><trkpt lat="43.7915717862955" lon="12.533194307360098"><ele>357.75</ele><time>2026-04-25T08:30:26Z</time></trkpt><trkpt lat="43.79146384939349" lon="12.533191003285737"><ele>357.0</ele><time>2026-04-25T08:30:27Z</time></trkpt><trkpt lat="43.79136300843943" lon="12.53315010437984"><ele>357.0</ele><time>2026-04-25T08:30:28Z</time></trkpt><trkpt lat="43.791268012594706" lon="12.533078504218272"><ele>357.0</ele><time>2026-04-25T08:30:29Z</time></trkpt><trkpt lat="43.79119701985283" lon="12.532955366963883"><ele>357.0</ele><time>2026-04-25T08:30:30Z</time></trkpt><trkpt lat="43.79112497070292" lon="12.53282991499715"><ele>357.0</ele><time>2026-04-25T08:30:31Z</time></trkpt><trkpt lat="43.79106478874678" lon="12.532716576815583"><ele>357.0</ele><time>2026-04-25T08:30:32Z</time></trkpt><trkpt lat="43.791010292104886" lon="12.532603448481606"><ele>357.40000000000003</ele><time>2026-04-25T08:30:33Z</time></trkpt><trkpt lat="43.790956607813435" lon="12.53249245082089"><ele>357.8</ele><time>2026-04-25T08:30:34Z</time></trkpt><trkpt lat="43.79090239495765" lon="12.532384912634962"><ele>358.2</ele><time>2026-04-25T08:30:35Z</time></trkpt><trkpt lat="43.79084852915774" lon="12.532280658345732"><ele>358.6</ele><time>2026-04-25T08:30:36Z</time></trkpt><trkpt lat="43.79078984783638" lon="12.532172867083982"><ele>359.0</ele><time>2026-04-25T08:30:37Z</time></trkpt><trkpt lat="43.790729532135664" lon="12.532067405012398"><ele>360.1666666666667</ele><time>2026-04-25T08:30:38Z</time></trkpt><trkpt lat="43.790673859767075" lon="12.53197367171366"><ele>361.33333333333337</ele><time>2026-04-25T08:30:39Z</time></trkpt><trkpt lat="43.79061940785784" lon="12.531881993201626"><ele>362.5</ele><time>2026-04-25T08:30:40Z</time></trkpt><trkpt lat="43.79056778784255" lon="12.531787353260741"><ele>363.6666666666667</ele><time>2026-04-25T08:30:41Z</time></trkpt><trkpt lat="43.79052151359682" lon="12.531701191382998"><ele>364.8333333333333</ele><time>2026-04-25T08:30:42Z</time></trkpt><trkpt lat="43.7904749741382" lon="12.53161630600519"><ele>366.0</ele><time>2026-04-25T08:30:43Z</time></trkpt><trkpt lat="43.79041939752047" lon="12.531521041751507"><ele>366.0</ele><time>2026-04-25T08:30:44Z</time></trkpt><trkpt lat="43.79035815969657" lon="12.531419010045424"><ele>366.0</ele><time>2026-04-25T08:30:45Z</time></trkpt><trkpt lat="43.790291302365745" lon="12.53130761537594"><ele>366.0</ele><time>2026-04-25T08:30:46Z</time></trkpt><trkpt lat="43.790222415142594" lon="12.531188790601165"><ele>366.0</ele><time>2026-04-25T08:30:47Z</time></trkpt><trkpt lat="43.790150272441096" lon="12.531055439362504"><ele>366.0</ele><time>2026-04-25T08:30:48Z</time></trkpt><trkpt lat="43.790072581509975" lon="12.530903856617131"><ele>363.25</ele><time>2026-04-25T08:30:49Z</time></trkpt><trkpt lat="43.789989649112144" lon="12.530742008097754"><ele>360.5</ele><time>2026-04-25T08:30:50Z</time></trkpt><trkpt lat="43.78990567393778" lon="12.530577392663604"><ele>357.75</ele><time>2026-04-25T08:30:51Z</time></trkpt><trkpt lat="43.78982187205098" lon="12.530409625067287"><ele>355.0</ele><time>2026-04-25T08:30:52Z</time></trkpt><trkpt lat="43.78974720083683" lon="12.530240310620561"><ele>353.0</ele><time>2026-04-25T08:30:53Z</time></trkpt><trkpt lat="43.78967734542759" lon="12.530076239775177"><ele>351.0</ele><time>2026-04-25T08:30:54Z</time></trkpt><trkpt lat="43.789615329845056" lon="12.529934284480962"><ele>349.0</ele><time>2026-04-25T08:30:55Z</time></trkpt><trkpt lat="43.78955814884458" lon="12.529805937818441"><ele>347.0</ele><time>2026-04-25T08:30:56Z</time></trkpt><trkpt lat="43.78950496976385" lon="12.529695031767979"><ele>347.0</ele><time>2026-04-25T08:30:57Z</time></trkpt><trkpt lat="43.78944600462893" lon="12.52960794402998"><ele>347.0</ele><time>2026-04-25T08:30:58Z</time></trkpt><trkpt lat="43.78937235140408" lon="12.529566646743442"><ele>347.0</ele><time>2026-04-25T08:30:59Z</time></trkpt><trkpt lat="43.78928751443913" lon="12.52954280498387"><ele>347.0</ele><time>2026-04-25T08:31:00Z</time></trkpt><trkpt lat="43.789182342636764" lon="12.529522372521743"><ele>347.0</ele><time>2026-04-25T08:31:02Z</time></trkpt><trkpt lat="43.78906942093905" lon="12.529504747319189"><ele>348.5</ele><time>2026-04-25T08:31:04Z</time></trkpt><trkpt lat="43.78899717955987" lon="12.529493485546531"><ele>350.0</ele><time>2026-04-25T08:31:05Z</time></trkpt><trkpt lat="43.788924666539174" lon="12.529480383462404"><ele>351.5</ele><time>2026-04-25T08:31:06Z</time></trkpt><trkpt lat="43.78885145631547" lon="12.529467155423852"><ele>353.0</ele><time>2026-04-25T08:31:07Z</time></trkpt><trkpt lat="43.788778525127576" lon="12.529454835704007"><ele>354.5</ele><time>2026-04-25T08:31:08Z</time></trkpt><trkpt lat="43.788701149134546" lon="12.529443458964787"><ele>356.0</ele><time>2026-04-25T08:31:08.999Z</time></trkpt><trkpt lat="43.78861635669292" lon="12.529436503589457"><ele>356.0</ele><time>2026-04-25T08:31:09.999Z</time></trkpt><trkpt lat="43.78852322617897" lon="12.52942928600973"><ele>356.0</ele><time>2026-04-25T08:31:10.999Z</time></trkpt><trkpt lat="43.7884340112933" lon="12.529422037724634"><ele>356.0</ele><time>2026-04-25T08:31:11.999Z</time></trkpt><trkpt lat="43.78834946628797" lon="12.529410778312892"><ele>356.0</ele><time>2026-04-25T08:31:12.999Z</time></trkpt><trkpt lat="43.78826403010411" lon="12.529397705580475"><ele>356.0</ele><time>2026-04-25T08:31:13.999Z</time></trkpt><trkpt lat="43.788199163554665" lon="12.529301410339073"><ele>356.0</ele><time>2026-04-25T08:31:14.999Z</time></trkpt><trkpt lat="43.788123283236516" lon="12.529195325467494"><ele>358.25</ele><time>2026-04-25T08:31:15.999Z</time></trkpt><trkpt lat="43.78804053173912" lon="12.529074097623454"><ele>360.5</ele><time>2026-04-25T08:31:16.999Z</time></trkpt><trkpt lat="43.78795458542205" lon="12.52895185590312"><ele>362.75</ele><time>2026-04-25T08:31:17.999Z</time></trkpt><trkpt lat="43.787864961898855" lon="12.528824384057247"><ele>365.0</ele><time>2026-04-25T08:31:18.999Z</time></trkpt><trkpt lat="43.78777245396512" lon="12.528690420735987"><ele>365.0</ele><time>2026-04-25T08:31:19.999Z</time></trkpt><trkpt lat="43.787684200753525" lon="12.528549685012452"><ele>365.0</ele><time>2026-04-25T08:31:20.999Z</time></trkpt><trkpt lat="43.78760571293199" lon="12.52840103060007"><ele>365.0</ele><time>2026-04-25T08:31:21.999Z</time></trkpt><trkpt lat="43.78753902820659" lon="12.528242627211133"><ele>365.0</ele><time>2026-04-25T08:31:22.999Z</time></trkpt><trkpt lat="43.78752758556693" lon="12.528049601943497"><ele>370.75</ele><time>2026-04-25T08:31:23.999Z</time></trkpt><trkpt lat="43.787483064225164" lon="12.527869978014985"><ele>376.5</ele><time>2026-04-25T08:31:24.999Z</time></trkpt><trkpt lat="43.78744373239568" lon="12.527687156342937"><ele>382.25</ele><time>2026-04-25T08:31:25.999Z</time></trkpt><trkpt lat="43.787345020606985" lon="12.52753674222841"><ele>388.0</ele><time>2026-04-25T08:31:26.999Z</time></trkpt><trkpt lat="43.78725082929088" lon="12.527389101261933"><ele>388.0</ele><time>2026-04-25T08:31:27.999Z</time></trkpt><trkpt lat="43.787156611168726" lon="12.52724146645007"><ele>388.0</ele><time>2026-04-25T08:31:28.999Z</time></trkpt><trkpt lat="43.78706091324978" lon="12.527094360028082"><ele>388.0</ele><time>2026-04-25T08:31:29.999Z</time></trkpt><trkpt lat="43.7869652544831" lon="12.526950554920736"><ele>388.0</ele><time>2026-04-25T08:31:30.999Z</time></trkpt><trkpt lat="43.78687368044742" lon="12.526799364355464"><ele>391.5</ele><time>2026-04-25T08:31:31.999Z</time></trkpt><trkpt lat="43.786751447747605" lon="12.526707358259348"><ele>395.0</ele><time>2026-04-25T08:31:32.999Z</time></trkpt><trkpt lat="43.786641797479" lon="12.526655213085531"><ele>398.5</ele><time>2026-04-25T08:31:33.999Z</time></trkpt><trkpt lat="43.78650935157868" lon="12.526647932452239"><ele>402.0</ele><time>2026-04-25T08:31:34.999Z</time></trkpt><trkpt lat="43.786377830878415" lon="12.52665673101161"><ele>402.0</ele><time>2026-04-25T08:31:35.999Z</time></trkpt><trkpt lat="43.78624586804434" lon="12.526657354297749"><ele>402.0</ele><time>2026-04-25T08:31:36.999Z</time></trkpt><trkpt lat="43.78612414608112" lon="12.52672356056625"><ele>402.0</ele><time>2026-04-25T08:31:37.999Z</time></trkpt><trkpt lat="43.786040967769324" lon="12.526874963641417"><ele>402.0</ele><time>2026-04-25T08:31:38.999Z</time></trkpt><trkpt lat="43.78595849852216" lon="12.527028114524702"><ele>405.5</ele><time>2026-04-25T08:31:39.999Z</time></trkpt><trkpt lat="43.7858835336496" lon="12.52719331689968"><ele>409.0</ele><time>2026-04-25T08:31:40.999Z</time></trkpt><trkpt lat="43.78581148332353" lon="12.52736132649172"><ele>412.5</ele><time>2026-04-25T08:31:41.999Z</time></trkpt><trkpt lat="43.785737592632884" lon="12.527533398687927"><ele>416.0</ele><time>2026-04-25T08:31:42.999Z</time></trkpt><trkpt lat="43.785655603218586" lon="12.527696265901476"><ele>416.0</ele><time>2026-04-25T08:31:43.999Z</time></trkpt><trkpt lat="43.78556158628129" lon="12.527848809384524"><ele>416.0</ele><time>2026-04-25T08:31:44.999Z</time></trkpt><trkpt lat="43.785463344685645" lon="12.527974017203263"><ele>416.0</ele><time>2026-04-25T08:31:45.999Z</time></trkpt><trkpt lat="43.785352593582786" lon="12.528035445860892"><ele>416.0</ele><time>2026-04-25T08:31:46.999Z</time></trkpt><trkpt lat="43.785229267536565" lon="12.528005055113653"><ele>416.5</ele><time>2026-04-25T08:31:47.999Z</time></trkpt><trkpt lat="43.78510430906399" lon="12.527955009951858"><ele>417.0</ele><time>2026-04-25T08:31:48.999Z</time></trkpt><trkpt lat="43.78497378126029" lon="12.52794943237232"><ele>417.5</ele><time>2026-04-25T08:31:49.999Z</time></trkpt><trkpt lat="43.78484284028275" lon="12.527945822188968"><ele>418.0</ele><time>2026-04-25T08:31:50.999Z</time></trkpt><trkpt lat="43.78469698209087" lon="12.52796997018837"><ele>418.0</ele><time>2026-04-25T08:31:52Z</time></trkpt><trkpt lat="43.78454348704374" lon="12.528002745928207"><ele>418.0</ele><time>2026-04-25T08:31:53Z</time></trkpt><trkpt lat="43.784383637251324" lon="12.528004995208855"><ele>418.0</ele><time>2026-04-25T08:31:54Z</time></trkpt><trkpt lat="43.78422407667477" lon="12.527970759639762"><ele>419.25</ele><time>2026-04-25T08:31:55Z</time></trkpt><trkpt lat="43.784079697764355" lon="12.527874834963713"><ele>420.5</ele><time>2026-04-25T08:31:56Z</time></trkpt><trkpt lat="43.78395907215576" lon="12.527760607548785"><ele>421.75</ele><time>2026-04-25T08:31:57Z</time></trkpt><trkpt lat="43.783835056379964" lon="12.527707977013835"><ele>423.0</ele><time>2026-04-25T08:31:58Z</time></trkpt><trkpt lat="43.78372148135008" lon="12.52768424150801"><ele>423.0</ele><time>2026-04-25T08:31:59Z</time></trkpt><trkpt lat="43.78359785992831" lon="12.527703936830337"><ele>423.0</ele><time>2026-04-25T08:32:00Z</time></trkpt><trkpt lat="43.783472295103664" lon="12.527765484739964"><ele>423.0</ele><time>2026-04-25T08:32:01Z</time></trkpt><trkpt lat="43.78334860237237" lon="12.527848757410617"><ele>423.0</ele><time>2026-04-25T08:32:02Z</time></trkpt><trkpt lat="43.78322153291807" lon="12.52792927722506"><ele>426.25</ele><time>2026-04-25T08:32:03Z</time></trkpt><trkpt lat="43.783086565232125" lon="12.527984566914132"><ele>429.5</ele><time>2026-04-25T08:32:04Z</time></trkpt><trkpt lat="43.782946330584345" lon="12.528002189460837"><ele>432.75</ele><time>2026-04-25T08:32:05Z</time></trkpt><trkpt lat="43.782797038066484" lon="12.527986855938517"><ele>436.0</ele><time>2026-04-25T08:32:06Z</time></trkpt><trkpt lat="43.78264555195625" lon="12.527954707051812"><ele>439.6666666666667</ele><time>2026-04-25T08:32:07Z</time></trkpt><trkpt lat="43.7824915128568" lon="12.527911509442038"><ele>443.33333333333337</ele><time>2026-04-25T08:32:08Z</time></trkpt><trkpt lat="43.78233721075733" lon="12.527914379719894"><ele>447.0</ele><time>2026-04-25T08:32:09Z</time></trkpt><trkpt lat="43.78218646546209" lon="12.527953799472106"><ele>447.0</ele><time>2026-04-25T08:32:10Z</time></trkpt><trkpt lat="43.78203633233184" lon="12.527977393767"><ele>447.0</ele><time>2026-04-25T08:32:11Z</time></trkpt><trkpt lat="43.78189197551994" lon="12.528021714951917"><ele>447.0</ele><time>2026-04-25T08:32:12Z</time></trkpt><trkpt lat="43.78174465615818" lon="12.528040056512129"><ele>447.0</ele><time>2026-04-25T08:32:13Z</time></trkpt><trkpt lat="43.781600900206115" lon="12.528085280385161"><ele>447.0</ele><time>2026-04-25T08:32:14Z</time></trkpt><trkpt lat="43.781457815675516" lon="12.528138099219124"><ele>447.0</ele><time>2026-04-25T08:32:15Z</time></trkpt><trkpt lat="43.781320730640125" lon="12.528208299297226"><ele>447.0</ele><time>2026-04-25T08:32:16Z</time></trkpt><trkpt lat="43.78119590739565" lon="12.528306197857892"><ele>447.0</ele><time>2026-04-25T08:32:17Z</time></trkpt><trkpt lat="43.78106431289525" lon="12.528387224199003"><ele>443.25</ele><time>2026-04-25T08:32:18Z</time></trkpt><trkpt lat="43.78093366323229" lon="12.528466221473721"><ele>439.5</ele><time>2026-04-25T08:32:19Z</time></trkpt><trkpt lat="43.780806289465566" lon="12.528540958987369"><ele>435.75</ele><time>2026-04-25T08:32:20Z</time></trkpt><trkpt lat="43.7806778214704" lon="12.528590207617963"><ele>432.0</ele><time>2026-04-25T08:32:21Z</time></trkpt><trkpt lat="43.780557476684436" lon="12.528659158257058"><ele>436.0</ele><time>2026-04-25T08:32:22Z</time></trkpt><trkpt lat="43.7804544396126" lon="12.528729243836672"><ele>440.0</ele><time>2026-04-25T08:32:23Z</time></trkpt><trkpt lat="43.78036364409316" lon="12.528812330376272"><ele>444.0</ele><time>2026-04-25T08:32:24Z</time></trkpt><trkpt lat="43.780287928084014" lon="12.528934792403552"><ele>448.0</ele><time>2026-04-25T08:32:25Z</time></trkpt><trkpt lat="43.780226889232985" lon="12.529084629839646"><ele>448.00000000000006</ele><time>2026-04-25T08:32:26Z</time></trkpt><trkpt lat="43.78019876079153" lon="12.52924895858957"><ele>448.0</ele><time>2026-04-25T08:32:27Z</time></trkpt><trkpt lat="43.78018094122449" lon="12.529384645302224"><ele>448.0</ele><time>2026-04-25T08:32:28Z</time></trkpt><trkpt lat="43.7801808528451" lon="12.529500590154745"><ele>448.0</ele><time>2026-04-25T08:32:29Z</time></trkpt><trkpt lat="43.78016722315402" lon="12.529593717719731"><ele>448.00000000000006</ele><time>2026-04-25T08:32:30Z</time></trkpt><trkpt lat="43.780209633156275" lon="12.529669061118343"><ele>448.0</ele><time>2026-04-25T08:32:31Z</time></trkpt><trkpt lat="43.78029794189649" lon="12.529807719834665"><ele>446.00000000000006</ele><time>2026-04-25T08:32:33Z</time></trkpt><trkpt lat="43.78037073577545" lon="12.52985300278527"><ele>444.0</ele><time>2026-04-25T08:32:34Z</time></trkpt><trkpt lat="43.78045087821731" lon="12.52986797116291"><ele>442.0</ele><time>2026-04-25T08:32:35Z</time></trkpt><trkpt lat="43.78053911528917" lon="12.52985728149297"><ele>440.0</ele><time>2026-04-25T08:32:36Z</time></trkpt><trkpt lat="43.780629190198866" lon="12.529835919761236"><ele>438.00000000000006</ele><time>2026-04-25T08:32:37Z</time></trkpt><trkpt lat="43.78072449966505" lon="12.529816836597725"><ele>436.0</ele><time>2026-04-25T08:32:38Z</time></trkpt><trkpt lat="43.78082099155896" lon="12.529805892985776"><ele>436.00000000000006</ele><time>2026-04-25T08:32:39Z</time></trkpt><trkpt lat="43.78091516667671" lon="12.529811299846145"><ele>436.0</ele><time>2026-04-25T08:32:40Z</time></trkpt><trkpt lat="43.78099754614201" lon="12.529833159237656"><ele>436.0</ele><time>2026-04-25T08:32:41Z</time></trkpt><trkpt lat="43.78107670192259" lon="12.529872546045732"><ele>436.0</ele><time>2026-04-25T08:32:42Z</time></trkpt><trkpt lat="43.78115295644763" lon="12.529932923498642"><ele>436.00000000000006</ele><time>2026-04-25T08:32:43Z</time></trkpt><trkpt lat="43.78122441862178" lon="12.530001756808488"><ele>436.0</ele><time>2026-04-25T08:32:44Z</time></trkpt><trkpt lat="43.78128588172936" lon="12.530070912664202"><ele>435.20000000000005</ele><time>2026-04-25T08:32:45Z</time></trkpt><trkpt lat="43.781345872065906" lon="12.530154133181497"><ele>434.40000000000003</ele><time>2026-04-25T08:32:46Z</time></trkpt><trkpt lat="43.78140195521841" lon="12.53025446209945"><ele>433.6</ele><time>2026-04-25T08:32:47Z</time></trkpt><trkpt lat="43.78143983147603" lon="12.530382478101313"><ele>432.8</ele><time>2026-04-25T08:32:48Z</time></trkpt><trkpt lat="43.781479904039045" lon="12.530515843974332"><ele>432.0</ele><time>2026-04-25T08:32:49Z</time></trkpt><trkpt lat="43.78152591376385" lon="12.530644736436367"><ele>432.0</ele><time>2026-04-25T08:32:50Z</time></trkpt><trkpt lat="43.781553538624124" lon="12.530780485036056"><ele>432.00000000000006</ele><time>2026-04-25T08:32:51Z</time></trkpt><trkpt lat="43.781567071651374" lon="12.5309223209814"><ele>432.00000000000006</ele><time>2026-04-25T08:32:52Z</time></trkpt><trkpt lat="43.781598885645415" lon="12.531061118516469"><ele>432.0</ele><time>2026-04-25T08:32:53Z</time></trkpt><trkpt lat="43.78164535277856" lon="12.531194851126932"><ele>432.0</ele><time>2026-04-25T08:32:54Z</time></trkpt><trkpt lat="43.78164818881919" lon="12.5313306828246"><ele>430.6666666666667</ele><time>2026-04-25T08:32:55Z</time></trkpt><trkpt lat="43.78165898213594" lon="12.531450949493946"><ele>429.33333333333337</ele><time>2026-04-25T08:32:56Z</time></trkpt><trkpt lat="43.78166347288864" lon="12.531560357011422"><ele>428.0</ele><time>2026-04-25T08:32:57Z</time></trkpt><trkpt lat="43.781668694812424" lon="12.531672089626078"><ele>426.6666666666667</ele><time>2026-04-25T08:32:58Z</time></trkpt><trkpt lat="43.781673397083644" lon="12.531776866814"><ele>425.33333333333337</ele><time>2026-04-25T08:32:59Z</time></trkpt><trkpt lat="43.781685965455935" lon="12.531887391156715"><ele>424.0</ele><time>2026-04-25T08:33:00Z</time></trkpt><trkpt lat="43.78168925270355" lon="12.532004017081244"><ele>423.6666666666667</ele><time>2026-04-25T08:33:01Z</time></trkpt><trkpt lat="43.781701396880784" lon="12.53212998518072"><ele>423.33333333333337</ele><time>2026-04-25T08:33:02Z</time></trkpt><trkpt lat="43.781712096548844" lon="12.532249501522312"><ele>423.0</ele><time>2026-04-25T08:33:03Z</time></trkpt><trkpt lat="43.7817175614765" lon="12.532367081073067"><ele>422.66666666666663</ele><time>2026-04-25T08:33:04Z</time></trkpt><trkpt lat="43.781717266370784" lon="12.532478286372509"><ele>422.3333333333333</ele><time>2026-04-25T08:33:05Z</time></trkpt><trkpt lat="43.78172112597439" lon="12.532567976859056"><ele>422.0</ele><time>2026-04-25T08:33:06Z</time></trkpt><trkpt lat="43.781723740194714" lon="12.532733454883674"><ele>422.0</ele><time>2026-04-25T08:33:08Z</time></trkpt><trkpt lat="43.78175649940103" lon="12.532881344381815"><ele>422.0</ele><time>2026-04-25T08:33:10Z</time></trkpt><trkpt lat="43.78182065542993" lon="12.533005241258957"><ele>422.0</ele><time>2026-04-25T08:33:12Z</time></trkpt><trkpt lat="43.78188692511529" lon="12.53315248332899"><ele>422.0</ele><time>2026-04-25T08:33:14Z</time></trkpt><trkpt lat="43.781911323364334" lon="12.53323770680487"><ele>422.0</ele><time>2026-04-25T08:33:15Z</time></trkpt><trkpt lat="43.78191893736811" lon="12.53333184276808"><ele>420.99999999999994</ele><time>2026-04-25T08:33:16Z</time></trkpt><trkpt lat="43.781911307346185" lon="12.53343220724431"><ele>420.0</ele><time>2026-04-25T08:33:17Z</time></trkpt><trkpt lat="43.781882230806254" lon="12.533541717418236"><ele>419.0</ele><time>2026-04-25T08:33:18Z</time></trkpt><trkpt lat="43.78184581373712" lon="12.533657941236516"><ele>418.0</ele><time>2026-04-25T08:33:19Z</time></trkpt><trkpt lat="43.7818143263529" lon="12.533772901277286"><ele>416.99999999999994</ele><time>2026-04-25T08:33:20Z</time></trkpt><trkpt lat="43.781805678195326" lon="12.533896403653584"><ele>416.0</ele><time>2026-04-25T08:33:21Z</time></trkpt><trkpt lat="43.78180841410544" lon="12.534024189815277"><ele>414.0</ele><time>2026-04-25T08:33:22Z</time></trkpt><trkpt lat="43.78182119099644" lon="12.53416399146905"><ele>412.0</ele><time>2026-04-25T08:33:23Z</time></trkpt><trkpt lat="43.78184520275657" lon="12.534312618710134"><ele>410.0</ele><time>2026-04-25T08:33:23.999Z</time></trkpt><trkpt lat="43.78187587053422" lon="12.534467412386197"><ele>408.0</ele><time>2026-04-25T08:33:24.999Z</time></trkpt><trkpt lat="43.78190477109239" lon="12.53462386117039"><ele>406.0</ele><time>2026-04-25T08:33:25.999Z</time></trkpt><trkpt lat="43.78193583252588" lon="12.534778735176996"><ele>404.20000000000005</ele><time>2026-04-25T08:33:26.999Z</time></trkpt><trkpt lat="43.78196767662019" lon="12.534934953995604"><ele>402.40000000000003</ele><time>2026-04-25T08:33:27.999Z</time></trkpt><trkpt lat="43.7820036904654" lon="12.535083099506696"><ele>400.6</ele><time>2026-04-25T08:33:28.999Z</time></trkpt><trkpt lat="43.782041723622214" lon="12.535217548118592"><ele>398.8</ele><time>2026-04-25T08:33:29.999Z</time></trkpt><trkpt lat="43.78208064809857" lon="12.535337425797207"><ele>397.0</ele><time>2026-04-25T08:33:30.999Z</time></trkpt><trkpt lat="43.78211640766452" lon="12.535441671924966"><ele>397.0</ele><time>2026-04-25T08:33:31.999Z</time></trkpt><trkpt lat="43.78216897549953" lon="12.535536445430361"><ele>397.0</ele><time>2026-04-25T08:33:33.999Z</time></trkpt><trkpt lat="43.78207048032734" lon="12.535636878508996"><ele>397.0</ele><time>2026-04-25T08:33:34.999Z</time></trkpt><trkpt lat="43.782014722351235" lon="12.535700004008094"><ele>397.0</ele><time>2026-04-25T08:33:35.999Z</time></trkpt><trkpt lat="43.78194445735119" lon="12.535770391213237"><ele>397.0</ele><time>2026-04-25T08:33:36.999Z</time></trkpt><trkpt lat="43.7818633520032" lon="12.535855664313146"><ele>398.6</ele><time>2026-04-25T08:33:37.999Z</time></trkpt><trkpt lat="43.78177629501463" lon="12.535952242716968"><ele>400.20000000000005</ele><time>2026-04-25T08:33:38.999Z</time></trkpt><trkpt lat="43.78169068381543" lon="12.536033392576172"><ele>401.8</ele><time>2026-04-25T08:33:39.999Z</time></trkpt><trkpt lat="43.78160374378516" lon="12.536104482353004"><ele>403.4</ele><time>2026-04-25T08:33:40.999Z</time></trkpt><trkpt lat="43.78151641714212" lon="12.536155829956936"><ele>405.0</ele><time>2026-04-25T08:33:41.999Z</time></trkpt><trkpt lat="43.781428160820255" lon="12.536195440531282"><ele>406.4</ele><time>2026-04-25T08:33:42.999Z</time></trkpt><trkpt lat="43.78134533476257" lon="12.536234708322521"><ele>407.8</ele><time>2026-04-25T08:33:43.999Z</time></trkpt><trkpt lat="43.78125817606396" lon="12.536276030214776"><ele>409.20000000000005</ele><time>2026-04-25T08:33:44.999Z</time></trkpt><trkpt lat="43.781164882053346" lon="12.536320261053383"><ele>410.6</ele><time>2026-04-25T08:33:45.999Z</time></trkpt><trkpt lat="43.78107278083728" lon="12.536387609808285"><ele>412.0</ele><time>2026-04-25T08:33:46.999Z</time></trkpt><trkpt lat="43.78099219727756" lon="12.536467398674652"><ele>408.20000000000005</ele><time>2026-04-25T08:33:47.999Z</time></trkpt><trkpt lat="43.780908503752954" lon="12.536570117228855"><ele>404.4</ele><time>2026-04-25T08:33:48.999Z</time></trkpt><trkpt lat="43.78081635587167" lon="12.536646103685982"><ele>400.6</ele><time>2026-04-25T08:33:49.999Z</time></trkpt><trkpt lat="43.78071171959717" lon="12.53668448662644"><ele>396.79999999999995</ele><time>2026-04-25T08:33:50.999Z</time></trkpt><trkpt lat="43.78060771279842" lon="12.536737208257994"><ele>393.0</ele><time>2026-04-25T08:33:51.999Z</time></trkpt><trkpt lat="43.78049880772108" lon="12.5368085766189"><ele>393.0</ele><time>2026-04-25T08:33:52.999Z</time></trkpt><trkpt lat="43.780404371520795" lon="12.536899919828343"><ele>393.0</ele><time>2026-04-25T08:33:53.999Z</time></trkpt><trkpt lat="43.78030467483541" lon="12.536965137932217"><ele>393.0</ele><time>2026-04-25T08:33:54.999Z</time></trkpt><trkpt lat="43.78020081146774" lon="12.537018288951469"><ele>393.0</ele><time>2026-04-25T08:33:55.999Z</time></trkpt><trkpt lat="43.780087413336155" lon="12.537055232838972"><ele>391.4</ele><time>2026-04-25T08:33:56.999Z</time></trkpt><trkpt lat="43.77996671799072" lon="12.537066724688996"><ele>389.79999999999995</ele><time>2026-04-25T08:33:58Z</time></trkpt><trkpt lat="43.77985388260713" lon="12.537029368056366"><ele>388.2</ele><time>2026-04-25T08:33:59Z</time></trkpt><trkpt lat="43.779747872869706" lon="12.53699408035113"><ele>386.6</ele><time>2026-04-25T08:34:00Z</time></trkpt><trkpt lat="43.77964861508177" lon="12.536962506258233"><ele>385.0</ele><time>2026-04-25T08:34:01Z</time></trkpt><trkpt lat="43.77955441401753" lon="12.536940778104874"><ele>383.6</ele><time>2026-04-25T08:34:02Z</time></trkpt><trkpt lat="43.77944764059953" lon="12.536942689723737"><ele>382.2</ele><time>2026-04-25T08:34:03Z</time></trkpt><trkpt lat="43.77933708886004" lon="12.536969028111002"><ele>380.79999999999995</ele><time>2026-04-25T08:34:04Z</time></trkpt><trkpt lat="43.779228022555785" lon="12.537016304286228"><ele>379.4</ele><time>2026-04-25T08:34:05Z</time></trkpt><trkpt lat="43.77913200120364" lon="12.537097239573876"><ele>378.0</ele><time>2026-04-25T08:34:06Z</time></trkpt><trkpt lat="43.779042097532304" lon="12.537175739317668"><ele>377.6666666666667</ele><time>2026-04-25T08:34:07Z</time></trkpt><trkpt lat="43.778950236566494" lon="12.537242084766161"><ele>377.3333333333333</ele><time>2026-04-25T08:34:08Z</time></trkpt><trkpt lat="43.778873676712024" lon="12.53729946349461"><ele>377.0</ele><time>2026-04-25T08:34:09Z</time></trkpt><trkpt lat="43.77881354317411" lon="12.53736465832672"><ele>376.66666666666663</ele><time>2026-04-25T08:34:10Z</time></trkpt><trkpt lat="43.77876985084544" lon="12.53744871511102"><ele>376.3333333333333</ele><time>2026-04-25T08:34:11Z</time></trkpt><trkpt lat="43.77877134930687" lon="12.537551945471762"><ele>376.0</ele><time>2026-04-25T08:34:12Z</time></trkpt><trkpt lat="43.77878477323804" lon="12.53766287161241"><ele>376.0</ele><time>2026-04-25T08:34:13Z</time></trkpt><trkpt lat="43.778821178093914" lon="12.537774887995486"><ele>376.0</ele><time>2026-04-25T08:34:14Z</time></trkpt><trkpt lat="43.77887650565342" lon="12.537896506730984"><ele>376.0</ele><time>2026-04-25T08:34:15Z</time></trkpt><trkpt lat="43.77893331707697" lon="12.538019672252307"><ele>376.0</ele><time>2026-04-25T08:34:16Z</time></trkpt><trkpt lat="43.77898932996807" lon="12.538144242061902"><ele>376.0</ele><time>2026-04-25T08:34:17Z</time></trkpt><trkpt lat="43.77903593739739" lon="12.538266113365214"><ele>374.20000000000005</ele><time>2026-04-25T08:34:18Z</time></trkpt><trkpt lat="43.779062171075246" lon="12.538398605304891"><ele>372.40000000000003</ele><time>2026-04-25T08:34:19Z</time></trkpt><trkpt lat="43.77907497385001" lon="12.5385305012963"><ele>370.6</ele><time>2026-04-25T08:34:20Z</time></trkpt><trkpt lat="43.77907138185481" lon="12.538662883534894"><ele>368.8</ele><time>2026-04-25T08:34:21Z</time></trkpt><trkpt lat="43.77905704759751" lon="12.538785087568929"><ele>367.0</ele><time>2026-04-25T08:34:22Z</time></trkpt><trkpt lat="43.77905192023845" lon="12.53889638177288"><ele>364.40000000000003</ele><time>2026-04-25T08:34:23Z</time></trkpt><trkpt lat="43.77904864521206" lon="12.539008004591045"><ele>361.8</ele><time>2026-04-25T08:34:24Z</time></trkpt><trkpt lat="43.779099337715074" lon="12.539103512836242"><ele>359.2</ele><time>2026-04-25T08:34:25Z</time></trkpt><trkpt lat="43.77915342545124" lon="12.539212006296323"><ele>356.6</ele><time>2026-04-25T08:34:26Z</time></trkpt><trkpt lat="43.77921968769659" lon="12.53932612091087"><ele>354.0</ele><time>2026-04-25T08:34:27Z</time></trkpt><trkpt lat="43.77928865875173" lon="12.53944032735082"><ele>353.25</ele><time>2026-04-25T08:34:28Z</time></trkpt><trkpt lat="43.77935492787495" lon="12.539569040911461"><ele>352.5</ele><time>2026-04-25T08:34:29Z</time></trkpt><trkpt lat="43.77941793791527" lon="12.539714363082567"><ele>351.75</ele><time>2026-04-25T08:34:30Z</time></trkpt><trkpt lat="43.77946887534614" lon="12.539868087670506"><ele>351.0</ele><time>2026-04-25T08:34:31Z</time></trkpt><trkpt lat="43.77949604474521" lon="12.540022641839439"><ele>351.0</ele><time>2026-04-25T08:34:32Z</time></trkpt><trkpt lat="43.77952480204652" lon="12.540173700247689"><ele>351.0</ele><time>2026-04-25T08:34:33Z</time></trkpt><trkpt lat="43.779563942124085" lon="12.540319735566792"><ele>351.0</ele><time>2026-04-25T08:34:34Z</time></trkpt><trkpt lat="43.779616581621305" lon="12.540456873433163"><ele>351.0</ele><time>2026-04-25T08:34:35Z</time></trkpt><trkpt lat="43.779676836859" lon="12.540592694561655"><ele>349.25</ele><time>2026-04-25T08:34:36Z</time></trkpt><trkpt lat="43.77974201534266" lon="12.540731759452509"><ele>347.5</ele><time>2026-04-25T08:34:37Z</time></trkpt><trkpt lat="43.77979266481836" lon="12.54087581117304"><ele>345.75</ele><time>2026-04-25T08:34:38Z</time></trkpt><trkpt lat="43.77982562664514" lon="12.541022909606237"><ele>344.0</ele><time>2026-04-25T08:34:39Z</time></trkpt><trkpt lat="43.77984992438647" lon="12.541172297383591"><ele>344.4</ele><time>2026-04-25T08:34:40Z</time></trkpt><trkpt lat="43.77988187391328" lon="12.541311058183226"><ele>344.79999999999995</ele><time>2026-04-25T08:34:41Z</time></trkpt><trkpt lat="43.7799262073096" lon="12.541446902815718"><ele>345.20000000000005</ele><time>2026-04-25T08:34:42Z</time></trkpt><trkpt lat="43.77997473288948" lon="12.54158513098773"><ele>345.6</ele><time>2026-04-25T08:34:43Z</time></trkpt><trkpt lat="43.780011405762046" lon="12.541731197690769"><ele>346.0</ele><time>2026-04-25T08:34:44Z</time></trkpt><trkpt lat="43.780039293125306" lon="12.541880091543229"><ele>346.0</ele><time>2026-04-25T08:34:45Z</time></trkpt><trkpt lat="43.78005077881881" lon="12.542029635341471"><ele>346.0</ele><time>2026-04-25T08:34:46Z</time></trkpt><trkpt lat="43.78003710193091" lon="12.542167349107919"><ele>346.0</ele><time>2026-04-25T08:34:47Z</time></trkpt><trkpt lat="43.77999654699968" lon="12.542285402216496"><ele>346.0</ele><time>2026-04-25T08:34:48Z</time></trkpt><trkpt lat="43.77991818753663" lon="12.542365399019804"><ele>346.0</ele><time>2026-04-25T08:34:49Z</time></trkpt><trkpt lat="43.77982572529764" lon="12.5424332012427"><ele>347.0</ele><time>2026-04-25T08:34:50Z</time></trkpt><trkpt lat="43.779727798493035" lon="12.542491328530307"><ele>348.0</ele><time>2026-04-25T08:34:51Z</time></trkpt><trkpt lat="43.77963155072049" lon="12.542548148479154"><ele>349.0</ele><time>2026-04-25T08:34:52Z</time></trkpt><trkpt lat="43.7795444790416" lon="12.542599563047796"><ele>350.0</ele><time>2026-04-25T08:34:53Z</time></trkpt><trkpt lat="43.77947325896247" lon="12.542649084275956"><ele>351.0</ele><time>2026-04-25T08:34:54Z</time></trkpt><trkpt lat="43.779413574885446" lon="12.542692644967234"><ele>348.5</ele><time>2026-04-25T08:34:55Z</time></trkpt><trkpt lat="43.77933026132087" lon="12.542737288599755"><ele>346.0</ele><time>2026-04-25T08:34:57Z</time></trkpt><trkpt lat="43.7792757131825" lon="12.542786628027422"><ele>343.5</ele><time>2026-04-25T08:35:23Z</time></trkpt><trkpt lat="43.77918365675715" lon="12.542799730781082"><ele>341.0</ele><time>2026-04-25T08:35:27Z</time></trkpt><trkpt lat="43.7791168038415" lon="12.542762445610645"><ele>338.5</ele><time>2026-04-25T08:35:29Z</time></trkpt><trkpt lat="43.77903733079044" lon="12.54269575183994"><ele>336.0</ele><time>2026-04-25T08:35:31Z</time></trkpt><trkpt lat="43.778946933012975" lon="12.542616764016854"><ele>336.0</ele><time>2026-04-25T08:35:33Z</time></trkpt><trkpt lat="43.778844382778054" lon="12.542600327889096"><ele>336.0</ele><time>2026-04-25T08:35:35Z</time></trkpt><trkpt lat="43.7787268485427" lon="12.542629570266529"><ele>336.0</ele><time>2026-04-25T08:35:37Z</time></trkpt><trkpt lat="43.7786077908907" lon="12.542647712606414"><ele>336.0</ele><time>2026-04-25T08:35:39Z</time></trkpt><trkpt lat="43.77848434410875" lon="12.542665307054277"><ele>335.1666666666667</ele><time>2026-04-25T08:35:41Z</time></trkpt><trkpt lat="43.77836883469961" lon="12.542713578702283"><ele>334.3333333333333</ele><time>2026-04-25T08:35:43Z</time></trkpt><trkpt lat="43.77831325286834" lon="12.542759047966284"><ele>333.5</ele><time>2026-04-25T08:35:44Z</time></trkpt><trkpt lat="43.778249991723634" lon="12.542790103554477"><ele>332.66666666666663</ele><time>2026-04-25T08:35:45Z</time></trkpt><trkpt lat="43.778187722309" lon="12.542842809879954"><ele>331.8333333333333</ele><time>2026-04-25T08:35:46Z</time></trkpt><trkpt lat="43.778124018170104" lon="12.542901212693442"><ele>331.0</ele><time>2026-04-25T08:35:47Z</time></trkpt><trkpt lat="43.77805973626056" lon="12.542954684945503"><ele>331.0</ele><time>2026-04-25T08:35:48Z</time></trkpt><trkpt lat="43.77799723598349" lon="12.543003581625598"><ele>331.0</ele><time>2026-04-25T08:35:49Z</time></trkpt><trkpt lat="43.77794715744501" lon="12.543068727456859"><ele>331.0</ele><time>2026-04-25T08:35:50Z</time></trkpt><trkpt lat="43.77788787665707" lon="12.543114474477138"><ele>331.0</ele><time>2026-04-25T08:35:51Z</time></trkpt><trkpt lat="43.77778918835901" lon="12.54319279479013"><ele>331.0</ele><time>2026-04-25T08:35:53Z</time></trkpt><trkpt lat="43.777701102385855" lon="12.543248020340684"><ele>331.0</ele><time>2026-04-25T08:35:55Z</time></trkpt><trkpt lat="43.7776383234381" lon="12.543347284731873"><ele>329.8333333333333</ele><time>2026-04-25T08:35:57Z</time></trkpt><trkpt lat="43.777587794741784" lon="12.543444473844776"><ele>328.66666666666663</ele><time>2026-04-25T08:35:59Z</time></trkpt><trkpt lat="43.77760302401" lon="12.543548862152095"><ele>327.5</ele><time>2026-04-25T08:36:01Z</time></trkpt><trkpt lat="43.77764077748191" lon="12.543642977868918"><ele>326.3333333333333</ele><time>2026-04-25T08:36:04Z</time></trkpt><trkpt lat="43.777670615444976" lon="12.543727645228579"><ele>325.1666666666667</ele><time>2026-04-25T08:36:06Z</time></trkpt><trkpt lat="43.77770708407265" lon="12.543809983109682"><ele>324.0</ele><time>2026-04-25T08:36:08Z</time></trkpt><trkpt lat="43.77765276785735" lon="12.543876031379652"><ele>322.8333333333333</ele><time>2026-04-25T08:36:10Z</time></trkpt><trkpt lat="43.77755340937093" lon="12.543899710039572"><ele>321.6666666666667</ele><time>2026-04-25T08:36:16Z</time></trkpt><trkpt lat="43.777486830911684" lon="12.54391424176001"><ele>320.5</ele><time>2026-04-25T08:36:18Z</time></trkpt><trkpt lat="43.77741270682704" lon="12.543956757455776"><ele>319.33333333333337</ele><time>2026-04-25T08:36:20Z</time></trkpt><trkpt lat="43.77733729087066" lon="12.54400639938446"><ele>318.1666666666667</ele><time>2026-04-25T08:36:22Z</time></trkpt><trkpt lat="43.777274423103215" lon="12.544076434321527"><ele>317.0</ele><time>2026-04-25T08:36:24Z</time></trkpt><trkpt lat="43.777210413889414" lon="12.544126851613294"><ele>317.0</ele><time>2026-04-25T08:36:26Z</time></trkpt><trkpt lat="43.777146592689476" lon="12.544171918791841"><ele>317.0</ele><time>2026-04-25T08:36:28Z</time></trkpt><trkpt lat="43.77708240974627" lon="12.54421537685144"><ele>317.0</ele><time>2026-04-25T08:36:38Z</time></trkpt><trkpt lat="43.77701849928852" lon="12.544155853950635"><ele>317.0</ele><time>2026-04-25T08:36:42Z</time></trkpt><trkpt lat="43.77699936308531" lon="12.54406980049085"><ele>317.0</ele><time>2026-04-25T08:36:49Z</time></trkpt><trkpt lat="43.77705051412716" lon="12.544179106490752"><ele>317.0</ele><time>2026-04-25T08:36:56Z</time></trkpt><trkpt lat="43.77711335145543" lon="12.544224734043468"><ele>317.0</ele><time>2026-04-25T08:37:01Z</time></trkpt><trkpt lat="43.777198102569585" lon="12.544166974221131"><ele>317.0</ele><time>2026-04-25T08:37:03Z</time></trkpt><trkpt lat="43.77724682421066" lon="12.544097108237962"><ele>317.0</ele><time>2026-04-25T08:37:05Z</time></trkpt><trkpt lat="43.77731095723684" lon="12.544016378392898"><ele>317.0</ele><time>2026-04-25T08:37:06Z</time></trkpt><trkpt lat="43.77733597524026" lon="12.543932056456244"><ele>317.0</ele><time>2026-04-25T08:37:08Z</time></trkpt><trkpt lat="43.77733446368665" lon="12.543837352699468"><ele>317.0</ele><time>2026-04-25T08:37:11Z</time></trkpt><trkpt lat="43.77731546056593" lon="12.543753482702888"><ele>317.0</ele><time>2026-04-25T08:37:14Z</time></trkpt><trkpt lat="43.77720786386901" lon="12.543780382990924"><ele>317.0</ele><time>2026-04-25T08:37:16Z</time></trkpt><trkpt lat="43.77714624031751" lon="12.54380568389088"><ele>317.0</ele><time>2026-04-25T08:37:17Z</time></trkpt><trkpt lat="43.77706559429127" lon="12.543845130117354"><ele>317.0</ele><time>2026-04-25T08:37:18Z</time></trkpt><trkpt lat="43.776961549154514" lon="12.543900910914154"><ele>317.0</ele><time>2026-04-25T08:37:20Z</time></trkpt><trkpt lat="43.776859222376935" lon="12.54399565601386"><ele>317.0</ele><time>2026-04-25T08:37:22Z</time></trkpt><trkpt lat="43.776842038949795" lon="12.544098868361301"><ele>314.0</ele><time>2026-04-25T08:37:23Z</time></trkpt><trkpt lat="43.77679632955519" lon="12.544181427467116"><ele>311.0</ele><time>2026-04-25T08:37:24Z</time></trkpt><trkpt lat="43.77674745572591" lon="12.544259994845477"><ele>308.0</ele><time>2026-04-25T08:37:25Z</time></trkpt><trkpt lat="43.77670876756543" lon="12.544368772505662"><ele>305.0</ele><time>2026-04-25T08:37:26Z</time></trkpt><trkpt lat="43.77664604209788" lon="12.54445422596543"><ele>302.0</ele><time>2026-04-25T08:37:27Z</time></trkpt><trkpt lat="43.776590755099605" lon="12.544548020775139"><ele>299.0</ele><time>2026-04-25T08:37:28Z</time></trkpt><trkpt lat="43.776527379626486" lon="12.544636057431523"><ele>298.59999999999997</ele><time>2026-04-25T08:37:29Z</time></trkpt><trkpt lat="43.77645889245009" lon="12.544726805453923"><ele>298.2</ele><time>2026-04-25T08:37:30Z</time></trkpt><trkpt lat="43.77639349092909" lon="12.544812923520876"><ele>297.79999999999995</ele><time>2026-04-25T08:37:31Z</time></trkpt><trkpt lat="43.776328745456574" lon="12.544896475280753"><ele>297.4</ele><time>2026-04-25T08:37:32Z</time></trkpt><trkpt lat="43.77626436619876" lon="12.544983746436413"><ele>297.0</ele><time>2026-04-25T08:37:33Z</time></trkpt><trkpt lat="43.77621852716019" lon="12.545089307893628"><ele>297.0</ele><time>2026-04-25T08:37:34Z</time></trkpt><trkpt lat="43.77614210640063" lon="12.545155320492302"><ele>297.0</ele><time>2026-04-25T08:37:35Z</time></trkpt><trkpt lat="43.776072966525426" lon="12.545223258969648"><ele>297.0</ele><time>2026-04-25T08:37:36Z</time></trkpt><trkpt lat="43.775997818179235" lon="12.54527824725338"><ele>297.0</ele><time>2026-04-25T08:37:37Z</time></trkpt><trkpt lat="43.77591345266437" lon="12.545323831037516"><ele>297.0</ele><time>2026-04-25T08:37:38Z</time></trkpt><trkpt lat="43.77582730184482" lon="12.545375900773603"><ele>297.0</ele><time>2026-04-25T08:37:39Z</time></trkpt><trkpt lat="43.77574203018072" lon="12.545431279288172"><ele>294.8</ele><time>2026-04-25T08:37:40Z</time></trkpt><trkpt lat="43.77565389997921" lon="12.54549234794021"><ele>292.6</ele><time>2026-04-25T08:37:41Z</time></trkpt><trkpt lat="43.77556611523885" lon="12.545562850054663"><ele>290.40000000000003</ele><time>2026-04-25T08:37:42Z</time></trkpt><trkpt lat="43.77548584981525" lon="12.545640649684838"><ele>288.2</ele><time>2026-04-25T08:37:43Z</time></trkpt><trkpt lat="43.77542023500941" lon="12.54571963520288"><ele>286.0</ele><time>2026-04-25T08:37:44Z</time></trkpt><trkpt lat="43.77535761829774" lon="12.545808279600067"><ele>286.0</ele><time>2026-04-25T08:37:45Z</time></trkpt><trkpt lat="43.77531137935832" lon="12.54593015866443"><ele>286.0</ele><time>2026-04-25T08:37:46Z</time></trkpt><trkpt lat="43.775246709216866" lon="12.54602182646285"><ele>286.0</ele><time>2026-04-25T08:37:47Z</time></trkpt><trkpt lat="43.7751951637059" lon="12.546143302012776"><ele>286.0</ele><time>2026-04-25T08:37:48Z</time></trkpt><trkpt lat="43.775153945350255" lon="12.546266876894386"><ele>286.0</ele><time>2026-04-25T08:37:49Z</time></trkpt><trkpt lat="43.77512853413554" lon="12.54638794002588"><ele>282.16666666666663</ele><time>2026-04-25T08:37:50Z</time></trkpt><trkpt lat="43.77506598320044" lon="12.546474356293746"><ele>278.3333333333333</ele><time>2026-04-25T08:37:51Z</time></trkpt><trkpt lat="43.77501144380696" lon="12.54655864448153"><ele>274.5</ele><time>2026-04-25T08:37:52Z</time></trkpt><trkpt lat="43.774953128690164" lon="12.546648981895423"><ele>270.6666666666667</ele><time>2026-04-25T08:37:53Z</time></trkpt><trkpt lat="43.774888069289304" lon="12.546741801285423"><ele>266.83333333333337</ele><time>2026-04-25T08:37:54Z</time></trkpt><trkpt lat="43.77481828820029" lon="12.546831391607776"><ele>263.0</ele><time>2026-04-25T08:37:55Z</time></trkpt><trkpt lat="43.77477571919942" lon="12.54693616200587"><ele>263.0</ele><time>2026-04-25T08:37:56Z</time></trkpt><trkpt lat="43.77473204949372" lon="12.547024506955822"><ele>263.0</ele><time>2026-04-25T08:37:57Z</time></trkpt><trkpt lat="43.77470516221249" lon="12.5471392909546"><ele>263.0</ele><time>2026-04-25T08:37:58Z</time></trkpt><trkpt lat="43.77468093776489" lon="12.547243009734538"><ele>263.0</ele><time>2026-04-25T08:37:59Z</time></trkpt><trkpt lat="43.77456616397119" lon="12.547331267810549"><ele>263.0</ele><time>2026-04-25T08:38:01Z</time></trkpt><trkpt lat="43.774479810175116" lon="12.54730631174484"><ele>260.6666666666667</ele><time>2026-04-25T08:38:02Z</time></trkpt><trkpt lat="43.77439673960736" lon="12.547301660029907"><ele>258.33333333333337</ele><time>2026-04-25T08:38:03Z</time></trkpt><trkpt lat="43.774303080339116" lon="12.547288423681264"><ele>256.0</ele><time>2026-04-25T08:38:04Z</time></trkpt><trkpt lat="43.77420278443306" lon="12.547267989341726"><ele>253.66666666666669</ele><time>2026-04-25T08:38:05Z</time></trkpt><trkpt lat="43.77412489927267" lon="12.547229956173195"><ele>251.33333333333334</ele><time>2026-04-25T08:38:06Z</time></trkpt><trkpt lat="43.77408380824316" lon="12.547147426190046"><ele>249.0</ele><time>2026-04-25T08:38:07Z</time></trkpt><trkpt lat="43.77403165540258" lon="12.547067453757666"><ele>245.79999999999998</ele><time>2026-04-25T08:38:08Z</time></trkpt><trkpt lat="43.77399916712027" lon="12.54697703913099"><ele>242.59999999999997</ele><time>2026-04-25T08:38:09Z</time></trkpt><trkpt lat="43.77398127381471" lon="12.546883283752567"><ele>239.4</ele><time>2026-04-25T08:38:10Z</time></trkpt><trkpt lat="43.77400779931909" lon="12.546706709096902"><ele>236.2</ele><time>2026-04-25T08:38:12Z</time></trkpt><trkpt lat="43.77400010186759" lon="12.546606025962094"><ele>233.0</ele><time>2026-04-25T08:38:13Z</time></trkpt><trkpt lat="43.77387841155904" lon="12.546501537324804"><ele>233.0</ele><time>2026-04-25T08:38:15Z</time></trkpt><trkpt lat="43.773774581381176" lon="12.546616903577398"><ele>233.0</ele><time>2026-04-25T08:38:16Z</time></trkpt><trkpt lat="43.773647782253825" lon="12.546643355872154"><ele>233.0</ele><time>2026-04-25T08:38:17Z</time></trkpt><trkpt lat="43.77352491489201" lon="12.546691625554264"><ele>233.0</ele><time>2026-04-25T08:38:18Z</time></trkpt><trkpt lat="43.77342461646714" lon="12.546722297623704"><ele>228.60000000000002</ele><time>2026-04-25T08:38:19Z</time></trkpt><trkpt lat="43.77331722814923" lon="12.546761585972774"><ele>224.20000000000002</ele><time>2026-04-25T08:38:20Z</time></trkpt><trkpt lat="43.77323787058349" lon="12.546802261767963"><ele>219.8</ele><time>2026-04-25T08:38:21Z</time></trkpt><trkpt lat="43.77317059758718" lon="12.54691193743029"><ele>215.4</ele><time>2026-04-25T08:38:22Z</time></trkpt><trkpt lat="43.77310462737384" lon="12.547032881587805"><ele>211.0</ele><time>2026-04-25T08:38:23Z</time></trkpt><trkpt lat="43.77305388251201" lon="12.54716479952436"><ele>210.99999999999997</ele><time>2026-04-25T08:38:24Z</time></trkpt><trkpt lat="43.77304003965607" lon="12.547293657807959"><ele>211.0</ele><time>2026-04-25T08:38:25Z</time></trkpt><trkpt lat="43.773035541917814" lon="12.547415674608196"><ele>211.0</ele><time>2026-04-25T08:38:26Z</time></trkpt><trkpt lat="43.773033626888996" lon="12.547543110533491"><ele>211.0</ele><time>2026-04-25T08:38:27Z</time></trkpt><trkpt lat="43.773028352425456" lon="12.547651590308964"><ele>210.99999999999997</ele><time>2026-04-25T08:38:28Z</time></trkpt><trkpt lat="43.77300174473807" lon="12.54773805230923"><ele>211.0</ele><time>2026-04-25T08:38:29Z</time></trkpt><trkpt lat="43.772932813024084" lon="12.547790566779987"><ele>210.99999999999997</ele><time>2026-04-25T08:38:30Z</time></trkpt><trkpt lat="43.772888063056826" lon="12.547857447201254"><ele>211.0</ele><time>2026-04-25T08:38:31Z</time></trkpt><trkpt lat="43.772831576991514" lon="12.54794422626841"><ele>211.0</ele><time>2026-04-25T08:38:32Z</time></trkpt><trkpt lat="43.7727907955491" lon="12.548029817098344"><ele>211.0</ele><time>2026-04-25T08:38:33Z</time></trkpt><trkpt lat="43.77270720247035" lon="12.547995420096695"><ele>210.99999999999997</ele><time>2026-04-25T08:38:34Z</time></trkpt><trkpt lat="43.77261703454054" lon="12.548030540143074"><ele>211.0</ele><time>2026-04-25T08:38:35Z</time></trkpt><trkpt lat="43.77254312648386" lon="12.548028485054301"><ele>208.33333333333331</ele><time>2026-04-25T08:38:36Z</time></trkpt><trkpt lat="43.77246833827598" lon="12.548004404171007"><ele>205.66666666666666</ele><time>2026-04-25T08:38:37Z</time></trkpt><trkpt lat="43.772393572725115" lon="12.547998522905196"><ele>203.0</ele><time>2026-04-25T08:38:38Z</time></trkpt><trkpt lat="43.77231965109801" lon="12.547998951132701"><ele>200.33333333333331</ele><time>2026-04-25T08:38:39Z</time></trkpt><trkpt lat="43.77223755297324" lon="12.548021591491981"><ele>197.66666666666666</ele><time>2026-04-25T08:38:40Z</time></trkpt><trkpt lat="43.77215523866837" lon="12.548075069099381"><ele>195.0</ele><time>2026-04-25T08:38:41Z</time></trkpt><trkpt lat="43.77208245457525" lon="12.548135111007046"><ele>195.0</ele><time>2026-04-25T08:38:42Z</time></trkpt><trkpt lat="43.772024145345966" lon="12.548187647179564"><ele>195.0</ele><time>2026-04-25T08:38:43Z</time></trkpt><trkpt lat="43.77193396802195" lon="12.548275956174908"><ele>195.0</ele><time>2026-04-25T08:38:45Z</time></trkpt><trkpt lat="43.771873115303364" lon="12.548361822709268"><ele>195.0</ele><time>2026-04-25T08:38:47Z</time></trkpt><trkpt lat="43.77179076386072" lon="12.548414717207034"><ele>195.0</ele><time>2026-04-25T08:38:49Z</time></trkpt><trkpt lat="43.77170675388518" lon="12.548498178348975"><ele>194.42857142857142</ele><time>2026-04-25T08:38:51Z</time></trkpt><trkpt lat="43.77165432009141" lon="12.54855398947292"><ele>193.85714285714283</ele><time>2026-04-25T08:38:52Z</time></trkpt><trkpt lat="43.77160048740835" lon="12.548613378068191"><ele>193.28571428571428</ele><time>2026-04-25T08:38:53Z</time></trkpt><trkpt lat="43.77154639540406" lon="12.548675316697588"><ele>192.71428571428572</ele><time>2026-04-25T08:38:54Z</time></trkpt><trkpt lat="43.7714929424886" lon="12.548736846120425"><ele>192.14285714285714</ele><time>2026-04-25T08:38:55Z</time></trkpt><trkpt lat="43.77144486066542" lon="12.548806366908286"><ele>191.57142857142858</ele><time>2026-04-25T08:38:56Z</time></trkpt><trkpt lat="43.77138950727709" lon="12.548861153588701"><ele>191.0</ele><time>2026-04-25T08:38:57Z</time></trkpt><trkpt lat="43.771335157993356" lon="12.548928945106963"><ele>190.4</ele><time>2026-04-25T08:38:58Z</time></trkpt><trkpt lat="43.77127943967713" lon="12.548992105674381"><ele>189.8</ele><time>2026-04-25T08:38:59Z</time></trkpt><trkpt lat="43.771193459061124" lon="12.549078778129314"><ele>189.20000000000002</ele><time>2026-04-25T08:39:01Z</time></trkpt><trkpt lat="43.77109761724278" lon="12.549162857682527"><ele>188.60000000000002</ele><time>2026-04-25T08:39:03Z</time></trkpt><trkpt lat="43.77101923261435" lon="12.5492411312643"><ele>188.0</ele><time>2026-04-25T08:39:05Z</time></trkpt><trkpt lat="43.77095189938764" lon="12.549260547158262"><ele>187.66666666666666</ele><time>2026-04-25T08:39:07Z</time></trkpt><trkpt lat="43.770878872731465" lon="12.549273468537796"><ele>187.33333333333331</ele><time>2026-04-25T08:39:10Z</time></trkpt><trkpt lat="43.770804507985034" lon="12.549258042199064"><ele>187.0</ele><time>2026-04-25T08:39:17Z</time></trkpt><trkpt lat="43.77071103036364" lon="12.549264382088593"><ele>186.66666666666666</ele><time>2026-04-25T08:39:51Z</time></trkpt><trkpt lat="43.770636385670805" lon="12.549285964370341"><ele>186.33333333333334</ele><time>2026-04-25T08:40:24.999Z</time></trkpt><trkpt lat="43.77053947569431" lon="12.549319265100127"><ele>186.0</ele><time>2026-04-25T08:40:26.999Z</time></trkpt><trkpt lat="43.7704043392272" lon="12.549334648079277"><ele>186.0</ele><time>2026-04-25T08:40:28.999Z</time></trkpt><trkpt lat="43.7703197372738" lon="12.549356731751695"><ele>186.0</ele><time>2026-04-25T08:40:29.999Z</time></trkpt><trkpt lat="43.770233365241225" lon="12.549393059979145"><ele>186.0</ele><time>2026-04-25T08:40:30.999Z</time></trkpt><trkpt lat="43.770156851379326" lon="12.549478664644264"><ele>186.0</ele><time>2026-04-25T08:40:31.999Z</time></trkpt><trkpt lat="43.77007959110583" lon="12.549568248374932"><ele>186.0</ele><time>2026-04-25T08:40:32.999Z</time></trkpt><trkpt lat="43.77000284569039" lon="12.549644906211142"><ele>187.4</ele><time>2026-04-25T08:40:33.999Z</time></trkpt><trkpt lat="43.76993889044051" lon="12.549681665202316"><ele>188.8</ele><time>2026-04-25T08:40:34.999Z</time></trkpt><trkpt lat="43.769861413242644" lon="12.549615524946672"><ele>190.20000000000002</ele><time>2026-04-25T08:40:36.999Z</time></trkpt><trkpt lat="43.76982943023773" lon="12.549498501657602"><ele>191.60000000000002</ele><time>2026-04-25T08:40:37.999Z</time></trkpt><trkpt lat="43.76982411467517" lon="12.549333433865"><ele>193.0</ele><time>2026-04-25T08:40:38.999Z</time></trkpt><trkpt lat="43.76978158546538" lon="12.549148657600606"><ele>193.0</ele><time>2026-04-25T08:40:39.999Z</time></trkpt><trkpt lat="43.76972940559282" lon="12.548949430143296"><ele>193.0</ele><time>2026-04-25T08:40:40.999Z</time></trkpt><trkpt lat="43.76966923843273" lon="12.548808416130907"><ele>193.0</ele><time>2026-04-25T08:40:41.999Z</time></trkpt><trkpt lat="43.76960475337668" lon="12.548719010120255"><ele>193.0</ele><time>2026-04-25T08:40:42.999Z</time></trkpt><trkpt lat="43.76948154986797" lon="12.54863496487768"><ele>200.66666666666666</ele><time>2026-04-25T08:40:43.999Z</time></trkpt><trkpt lat="43.76933630723809" lon="12.548579290615864"><ele>208.33333333333331</ele><time>2026-04-25T08:40:44.999Z</time></trkpt><trkpt lat="43.76918531243131" lon="12.54854652583908"><ele>216.0</ele><time>2026-04-25T08:40:45.999Z</time></trkpt><trkpt lat="43.76902487951474" lon="12.548530893837752"><ele>216.0</ele><time>2026-04-25T08:40:46.999Z</time></trkpt><trkpt lat="43.76887994120416" lon="12.548462753810588"><ele>216.0</ele><time>2026-04-25T08:40:47.999Z</time></trkpt><trkpt lat="43.76877733348111" lon="12.548399969936936"><ele>216.0</ele><time>2026-04-25T08:40:48.999Z</time></trkpt><trkpt lat="43.76867030430549" lon="12.548309179965678"><ele>216.0</ele><time>2026-04-25T08:40:49.999Z</time></trkpt><trkpt lat="43.768541907877804" lon="12.548204105037007"><ele>213.75</ele><time>2026-04-25T08:40:50.999Z</time></trkpt><trkpt lat="43.768409779920944" lon="12.548104839271678"><ele>211.5</ele><time>2026-04-25T08:40:51.999Z</time></trkpt><trkpt lat="43.76827894010533" lon="12.548021613524835"><ele>209.25</ele><time>2026-04-25T08:40:52.999Z</time></trkpt><trkpt lat="43.76813275689023" lon="12.547959311883954"><ele>207.0</ele><time>2026-04-25T08:40:53.999Z</time></trkpt><trkpt lat="43.76799423905762" lon="12.547858133947756"><ele>208.0</ele><time>2026-04-25T08:40:54.999Z</time></trkpt><trkpt lat="43.76786745605718" lon="12.5477797399915"><ele>209.0</ele><time>2026-04-25T08:40:55.999Z</time></trkpt><trkpt lat="43.76778903825703" lon="12.54770973639344"><ele>210.0</ele><time>2026-04-25T08:40:56.999Z</time></trkpt><trkpt lat="43.76774169778981" lon="12.547628426128576"><ele>211.0</ele><time>2026-04-25T08:40:57.999Z</time></trkpt><trkpt lat="43.767688472297884" lon="12.54755564887571"><ele>212.0</ele><time>2026-04-25T08:40:58.999Z</time></trkpt><trkpt lat="43.76753549064339" lon="12.547525799843603"><ele>212.0</ele><time>2026-04-25T08:41:00.999Z</time></trkpt><trkpt lat="43.76745847742817" lon="12.547510364043902"><ele>212.0</ele><time>2026-04-25T08:41:01.999Z</time></trkpt><trkpt lat="43.767362919709214" lon="12.547459765844577"><ele>212.0</ele><time>2026-04-25T08:41:02.999Z</time></trkpt><trkpt lat="43.76725041777003" lon="12.547393434352875"><ele>212.0</ele><time>2026-04-25T08:41:03.999Z</time></trkpt><trkpt lat="43.76713204573457" lon="12.54735434233449"><ele>212.0</ele><time>2026-04-25T08:41:04.999Z</time></trkpt><trkpt lat="43.76701973619442" lon="12.54733275299542"><ele>212.0</ele><time>2026-04-25T08:41:05.999Z</time></trkpt><trkpt lat="43.766904849978395" lon="12.547366753602688"><ele>212.0</ele><time>2026-04-25T08:41:06.999Z</time></trkpt><trkpt lat="43.766812681908476" lon="12.547431162448463"><ele>212.0</ele><time>2026-04-25T08:41:07.999Z</time></trkpt><trkpt lat="43.76671891228917" lon="12.547451329167544"><ele>212.0</ele><time>2026-04-25T08:41:08.999Z</time></trkpt><trkpt lat="43.76662355131205" lon="12.547484083363157"><ele>212.0</ele><time>2026-04-25T08:41:09.999Z</time></trkpt><trkpt lat="43.76652245070481" lon="12.547519415603377"><ele>209.75</ele><time>2026-04-25T08:41:10.999Z</time></trkpt><trkpt lat="43.76641264647943" lon="12.547563631131665"><ele>207.5</ele><time>2026-04-25T08:41:11.999Z</time></trkpt><trkpt lat="43.76629406210789" lon="12.547620747081705"><ele>205.25</ele><time>2026-04-25T08:41:12.999Z</time></trkpt><trkpt lat="43.766179583228265" lon="12.547694177689067"><ele>203.0</ele><time>2026-04-25T08:41:13.999Z</time></trkpt><trkpt lat="43.76606968125315" lon="12.547778327889928"><ele>199.0</ele><time>2026-04-25T08:41:14.999Z</time></trkpt><trkpt lat="43.76596498576973" lon="12.54788727286316"><ele>195.0</ele><time>2026-04-25T08:41:15.999Z</time></trkpt><trkpt lat="43.76585476992655" lon="12.547981548438916"><ele>191.0</ele><time>2026-04-25T08:41:16.999Z</time></trkpt><trkpt lat="43.76574917918834" lon="12.548065765144946"><ele>187.0</ele><time>2026-04-25T08:41:17.999Z</time></trkpt><trkpt lat="43.76562664917121" lon="12.548096041231195"><ele>187.0</ele><time>2026-04-25T08:41:18.999Z</time></trkpt><trkpt lat="43.76550546029462" lon="12.54816206743208"><ele>187.0</ele><time>2026-04-25T08:41:19.999Z</time></trkpt><trkpt lat="43.765370352469816" lon="12.548175894718469"><ele>187.0</ele><time>2026-04-25T08:41:20.999Z</time></trkpt><trkpt lat="43.76523678564218" lon="12.548188784422898"><ele>187.0</ele><time>2026-04-25T08:41:21.999Z</time></trkpt><trkpt lat="43.76509873491816" lon="12.548197899412148"><ele>187.5</ele><time>2026-04-25T08:41:22.999Z</time></trkpt><trkpt lat="43.764961311641436" lon="12.54821532335693"><ele>188.0</ele><time>2026-04-25T08:41:23.999Z</time></trkpt><trkpt lat="43.76482219388059" lon="12.548233011142555"><ele>188.5</ele><time>2026-04-25T08:41:24.999Z</time></trkpt><trkpt lat="43.764688796490354" lon="12.548202430886166"><ele>189.0</ele><time>2026-04-25T08:41:25.999Z</time></trkpt><trkpt lat="43.76457279680501" lon="12.548178519599354"><ele>189.0</ele><time>2026-04-25T08:41:26.999Z</time></trkpt><trkpt lat="43.764449860526376" lon="12.548119578894873"><ele>189.0</ele><time>2026-04-25T08:41:27.999Z</time></trkpt><trkpt lat="43.76432619119879" lon="12.548035525822517"><ele>189.0</ele><time>2026-04-25T08:41:28.999Z</time></trkpt><trkpt lat="43.764199969811315" lon="12.547936057514306"><ele>189.0</ele><time>2026-04-25T08:41:29.999Z</time></trkpt><trkpt lat="43.76406934769476" lon="12.547835283859172"><ele>188.5</ele><time>2026-04-25T08:41:30.999Z</time></trkpt><trkpt lat="43.763936322881094" lon="12.547734389324411"><ele>188.0</ele><time>2026-04-25T08:41:31.999Z</time></trkpt><trkpt lat="43.763804754693375" lon="12.547635071425754"><ele>187.5</ele><time>2026-04-25T08:41:32.999Z</time></trkpt><trkpt lat="43.76367310102063" lon="12.547545694231266"><ele>187.0</ele><time>2026-04-25T08:41:33.999Z</time></trkpt><trkpt lat="43.76353716928932" lon="12.547463130095785"><ele>188.66666666666669</ele><time>2026-04-25T08:41:34.999Z</time></trkpt><trkpt lat="43.763393917411456" lon="12.547391595480095"><ele>190.33333333333334</ele><time>2026-04-25T08:41:35.999Z</time></trkpt><trkpt lat="43.76324575375722" lon="12.547329508776285"><ele>192.0</ele><time>2026-04-25T08:41:36.999Z</time></trkpt><trkpt lat="43.763100731882794" lon="12.547274597428103"><ele>192.0</ele><time>2026-04-25T08:41:37.999Z</time></trkpt><trkpt lat="43.7629625716708" lon="12.547201175407448"><ele>192.0</ele><time>2026-04-25T08:41:38.999Z</time></trkpt><trkpt lat="43.76284402471685" lon="12.547083672379381"><ele>192.0</ele><time>2026-04-25T08:41:39.999Z</time></trkpt><trkpt lat="43.76273131228507" lon="12.546954876836175"><ele>192.0</ele><time>2026-04-25T08:41:40.999Z</time></trkpt><trkpt lat="43.76261069939086" lon="12.546826600152752"><ele>194.6</ele><time>2026-04-25T08:41:41.999Z</time></trkpt><trkpt lat="43.76247866372772" lon="12.546735006351948"><ele>197.2</ele><time>2026-04-25T08:41:42.999Z</time></trkpt><trkpt lat="43.762363086319446" lon="12.546682882476967"><ele>199.8</ele><time>2026-04-25T08:41:43.999Z</time></trkpt><trkpt lat="43.762271498350195" lon="12.5466664743533"><ele>202.4</ele><time>2026-04-25T08:41:44.999Z</time></trkpt><trkpt lat="43.762209902652636" lon="12.546585623691271"><ele>205.0</ele><time>2026-04-25T08:41:47.999Z</time></trkpt><trkpt lat="43.76218521197812" lon="12.546487198951178"><ele>205.0</ele><time>2026-04-25T08:41:48.999Z</time></trkpt><trkpt lat="43.7621747230309" lon="12.546353735360006"><ele>205.0</ele><time>2026-04-25T08:41:49.999Z</time></trkpt><trkpt lat="43.76215858760545" lon="12.54619813474665"><ele>205.0</ele><time>2026-04-25T08:41:50.999Z</time></trkpt><trkpt lat="43.76212894058979" lon="12.546026858925137"><ele>205.0</ele><time>2026-04-25T08:41:51.999Z</time></trkpt><trkpt lat="43.76208134919734" lon="12.545851851727734"><ele>204.75</ele><time>2026-04-25T08:41:52.999Z</time></trkpt><trkpt lat="43.76201421763846" lon="12.545671187143242"><ele>204.5</ele><time>2026-04-25T08:41:53.999Z</time></trkpt><trkpt lat="43.76194624560714" lon="12.545485393099673"><ele>204.25</ele><time>2026-04-25T08:41:54.999Z</time></trkpt><trkpt lat="43.76185891816485" lon="12.54531293674428"><ele>204.0</ele><time>2026-04-25T08:41:55.999Z</time></trkpt><trkpt lat="43.76177576285653" lon="12.545149267711482"><ele>204.0</ele><time>2026-04-25T08:41:56.999Z</time></trkpt><trkpt lat="43.76169613465139" lon="12.544989975124057"><ele>204.0</ele><time>2026-04-25T08:41:57.999Z</time></trkpt><trkpt lat="43.761615023656404" lon="12.544827716072207"><ele>204.0</ele><time>2026-04-25T08:41:58.999Z</time></trkpt><trkpt lat="43.761531114476455" lon="12.544660760249549"><ele>204.0</ele><time>2026-04-25T08:41:59.999Z</time></trkpt><trkpt lat="43.7614421924406" lon="12.544485670225406"><ele>203.5</ele><time>2026-04-25T08:42:00.999Z</time></trkpt><trkpt lat="43.76135318840611" lon="12.544318386604271"><ele>203.0</ele><time>2026-04-25T08:42:01.999Z</time></trkpt><trkpt lat="43.76126350613323" lon="12.544151893456823"><ele>202.5</ele><time>2026-04-25T08:42:02.999Z</time></trkpt><trkpt lat="43.76117624690015" lon="12.54399009802763"><ele>202.0</ele><time>2026-04-25T08:42:03.999Z</time></trkpt><trkpt lat="43.7610940865421" lon="12.543837756931875"><ele>202.25</ele><time>2026-04-25T08:42:04.999Z</time></trkpt><trkpt lat="43.76101274805773" lon="12.543687555335582"><ele>202.5</ele><time>2026-04-25T08:42:05.999Z</time></trkpt><trkpt lat="43.7609304684741" lon="12.54353840382562"><ele>202.75</ele><time>2026-04-25T08:42:06.999Z</time></trkpt><trkpt lat="43.760846604305904" lon="12.54339166662694"><ele>203.0</ele><time>2026-04-25T08:42:07.999Z</time></trkpt><trkpt lat="43.76075963778214" lon="12.543245442900638"><ele>203.0</ele><time>2026-04-25T08:42:08.999Z</time></trkpt><trkpt lat="43.760676072205264" lon="12.543096562849238"><ele>203.0</ele><time>2026-04-25T08:42:09.999Z</time></trkpt><trkpt lat="43.76059354987651" lon="12.542941918938984"><ele>203.0</ele><time>2026-04-25T08:42:10.999Z</time></trkpt><trkpt lat="43.76051259821474" lon="12.542790218693835"><ele>203.0</ele><time>2026-04-25T08:42:11.999Z</time></trkpt><trkpt lat="43.76043244921199" lon="12.542645191310976"><ele>204.25</ele><time>2026-04-25T08:42:12.999Z</time></trkpt><trkpt lat="43.76033804150859" lon="12.542515662311706"><ele>205.5</ele><time>2026-04-25T08:42:13.999Z</time></trkpt><trkpt lat="43.76022129979955" lon="12.54241787276527"><ele>206.75</ele><time>2026-04-25T08:42:14.999Z</time></trkpt><trkpt lat="43.76010694019712" lon="12.542318247863234"><ele>208.0</ele><time>2026-04-25T08:42:15.999Z</time></trkpt><trkpt lat="43.75998878899917" lon="12.542214503442263"><ele>208.0</ele><time>2026-04-25T08:42:16.999Z</time></trkpt><trkpt lat="43.75987410563462" lon="12.542113805185215"><ele>208.0</ele><time>2026-04-25T08:42:17.999Z</time></trkpt><trkpt lat="43.75975655762918" lon="12.542010302042197"><ele>208.0</ele><time>2026-04-25T08:42:18.999Z</time></trkpt><trkpt lat="43.75964008454095" lon="12.541903697952126"><ele>208.0</ele><time>2026-04-25T08:42:19.999Z</time></trkpt><trkpt lat="43.759520966283766" lon="12.541788847902481"><ele>210.33333333333331</ele><time>2026-04-25T08:42:20.999Z</time></trkpt><trkpt lat="43.75939684609436" lon="12.541680726274839"><ele>212.66666666666669</ele><time>2026-04-25T08:42:22Z</time></trkpt><trkpt lat="43.75926785367139" lon="12.54156979709308"><ele>215.0</ele><time>2026-04-25T08:42:23Z</time></trkpt><trkpt lat="43.75913742368261" lon="12.541459834290713"><ele>215.0</ele><time>2026-04-25T08:42:24Z</time></trkpt><trkpt lat="43.75900334088589" lon="12.541346791965838"><ele>215.0</ele><time>2026-04-25T08:42:25Z</time></trkpt><trkpt lat="43.75887054472337" lon="12.541234834296036"><ele>215.0</ele><time>2026-04-25T08:42:26Z</time></trkpt><trkpt lat="43.75874153641061" lon="12.541125280229386"><ele>215.66666666666669</ele><time>2026-04-25T08:42:27Z</time></trkpt><trkpt lat="43.758609384849244" lon="12.541011718078295"><ele>216.33333333333331</ele><time>2026-04-25T08:42:28Z</time></trkpt><trkpt lat="43.758483154017995" lon="12.54089152352803"><ele>217.0</ele><time>2026-04-25T08:42:29Z</time></trkpt><trkpt lat="43.75837151111077" lon="12.54077042021941"><ele>217.0</ele><time>2026-04-25T08:42:30Z</time></trkpt><trkpt lat="43.758272721346664" lon="12.54062387497707"><ele>217.0</ele><time>2026-04-25T08:42:31Z</time></trkpt><trkpt lat="43.75819106811181" lon="12.540459861354995"><ele>217.0</ele><time>2026-04-25T08:42:32Z</time></trkpt><trkpt lat="43.75811821675916" lon="12.540275376936725"><ele>217.0</ele><time>2026-04-25T08:42:33Z</time></trkpt><trkpt lat="43.75805628012042" lon="12.540084073628046"><ele>214.0</ele><time>2026-04-25T08:42:34Z</time></trkpt><trkpt lat="43.75798271668325" lon="12.5398982393426"><ele>211.0</ele><time>2026-04-25T08:42:35Z</time></trkpt><trkpt lat="43.75794433465954" lon="12.539696234103346"><ele>208.0</ele><time>2026-04-25T08:42:36Z</time></trkpt><trkpt lat="43.757895625480096" lon="12.539514044495617"><ele>205.0</ele><time>2026-04-25T08:42:37Z</time></trkpt><trkpt lat="43.75785015063623" lon="12.539331311436294"><ele>203.0</ele><time>2026-04-25T08:42:38Z</time></trkpt><trkpt lat="43.757812107271" lon="12.53913942177954"><ele>201.0</ele><time>2026-04-25T08:42:39Z</time></trkpt><trkpt lat="43.75778904152631" lon="12.538942860735974"><ele>199.0</ele><time>2026-04-25T08:42:40Z</time></trkpt><trkpt lat="43.75777030652775" lon="12.538746573453363"><ele>197.0</ele><time>2026-04-25T08:42:41Z</time></trkpt><trkpt lat="43.75775151048888" lon="12.538555149335135"><ele>197.0</ele><time>2026-04-25T08:42:42Z</time></trkpt><trkpt lat="43.75773272709853" lon="12.53837231844715"><ele>197.0</ele><time>2026-04-25T08:42:43Z</time></trkpt><trkpt lat="43.75771180076258" lon="12.538217020373438"><ele>197.0</ele><time>2026-04-25T08:42:44Z</time></trkpt><trkpt lat="43.757680402355156" lon="12.538071406142228"><ele>197.0</ele><time>2026-04-25T08:42:44.999Z</time></trkpt><trkpt lat="43.7576187148936" lon="12.537934437113293"><ele>198.75</ele><time>2026-04-25T08:42:45.999Z</time></trkpt><trkpt lat="43.757514713482266" lon="12.537816267267294"><ele>200.5</ele><time>2026-04-25T08:42:46.999Z</time></trkpt><trkpt lat="43.7574094149553" lon="12.53768785114435"><ele>202.25</ele><time>2026-04-25T08:42:47.999Z</time></trkpt><trkpt lat="43.75729932948886" lon="12.537558344332153"><ele>204.0</ele><time>2026-04-25T08:42:48.999Z</time></trkpt><trkpt lat="43.757202846640496" lon="12.537450835630704"><ele>204.0</ele><time>2026-04-25T08:42:49.999Z</time></trkpt><trkpt lat="43.75708460494344" lon="12.537347365345253"><ele>204.0</ele><time>2026-04-25T08:42:50.999Z</time></trkpt><trkpt lat="43.75693843635463" lon="12.537294308244167"><ele>204.0</ele><time>2026-04-25T08:42:51.999Z</time></trkpt><trkpt lat="43.756792547376875" lon="12.537280242779241"><ele>204.0</ele><time>2026-04-25T08:42:52.999Z</time></trkpt><trkpt lat="43.7566478619841" lon="12.537273715948025"><ele>203.75</ele><time>2026-04-25T08:42:53.999Z</time></trkpt><trkpt lat="43.756500460094536" lon="12.537262561468227"><ele>203.5</ele><time>2026-04-25T08:42:54.999Z</time></trkpt><trkpt lat="43.75634921913399" lon="12.537248123501817"><ele>203.25</ele><time>2026-04-25T08:42:55.999Z</time></trkpt><trkpt lat="43.756200716144214" lon="12.537233261539809"><ele>203.0</ele><time>2026-04-25T08:42:56.999Z</time></trkpt><trkpt lat="43.75605138147456" lon="12.53722072597688"><ele>202.75</ele><time>2026-04-25T08:42:57.999Z</time></trkpt><trkpt lat="43.755914533491804" lon="12.537205111655128"><ele>202.5</ele><time>2026-04-25T08:42:58.999Z</time></trkpt><trkpt lat="43.755802443325685" lon="12.537169250141403"><ele>202.25</ele><time>2026-04-25T08:42:59.999Z</time></trkpt><trkpt lat="43.7556912697186" lon="12.537106278178168"><ele>202.0</ele><time>2026-04-25T08:43:00.999Z</time></trkpt><trkpt lat="43.75558329693602" lon="12.537012260764136"><ele>202.75</ele><time>2026-04-25T08:43:01.999Z</time></trkpt><trkpt lat="43.75547426479078" lon="12.536901227583636"><ele>203.5</ele><time>2026-04-25T08:43:02.999Z</time></trkpt><trkpt lat="43.75535124725785" lon="12.53680749456043"><ele>204.25</ele><time>2026-04-25T08:43:03.999Z</time></trkpt><trkpt lat="43.755252165720066" lon="12.536678125174669"><ele>205.0</ele><time>2026-04-25T08:43:04.999Z</time></trkpt><trkpt lat="43.755166496922904" lon="12.53654238635945"><ele>205.0</ele><time>2026-04-25T08:43:05.999Z</time></trkpt><trkpt lat="43.75507999183509" lon="12.53642117455534"><ele>205.0</ele><time>2026-04-25T08:43:06.999Z</time></trkpt><trkpt lat="43.75498786364085" lon="12.536271270797661"><ele>205.0</ele><time>2026-04-25T08:43:07.999Z</time></trkpt><trkpt lat="43.75484852056409" lon="12.536177039371013"><ele>205.0</ele><time>2026-04-25T08:43:08.999Z</time></trkpt><trkpt lat="43.754703573948994" lon="12.536091073754552"><ele>208.0</ele><time>2026-04-25T08:43:09.999Z</time></trkpt><trkpt lat="43.75454886329319" lon="12.536016784645039"><ele>211.0</ele><time>2026-04-25T08:43:10.999Z</time></trkpt><trkpt lat="43.75440084793182" lon="12.535976210158395"><ele>214.0</ele><time>2026-04-25T08:43:11.999Z</time></trkpt><trkpt lat="43.75426175219611" lon="12.53596755654277"><ele>214.0</ele><time>2026-04-25T08:43:12.999Z</time></trkpt><trkpt lat="43.75413330208309" lon="12.535970211389827"><ele>214.0</ele><time>2026-04-25T08:43:13.999Z</time></trkpt><trkpt lat="43.75400459442261" lon="12.535975040593396"><ele>214.0</ele><time>2026-04-25T08:43:14.999Z</time></trkpt><trkpt lat="43.75387651884671" lon="12.535984172640841"><ele>214.0</ele><time>2026-04-25T08:43:15.999Z</time></trkpt><trkpt lat="43.75375513780722" lon="12.53599282735887"><ele>214.0</ele><time>2026-04-25T08:43:16.999Z</time></trkpt><trkpt lat="43.75363119757769" lon="12.53599289732663"><ele>214.0</ele><time>2026-04-25T08:43:17.999Z</time></trkpt><trkpt lat="43.75350613055772" lon="12.535969690887029"><ele>214.0</ele><time>2026-04-25T08:43:18.999Z</time></trkpt><trkpt lat="43.75338994824665" lon="12.535895168752983"><ele>214.0</ele><time>2026-04-25T08:43:19.999Z</time></trkpt><trkpt lat="43.75328431922947" lon="12.535774576399472"><ele>214.66666666666666</ele><time>2026-04-25T08:43:20.999Z</time></trkpt><trkpt lat="43.75316282810698" lon="12.535651588464445"><ele>215.33333333333331</ele><time>2026-04-25T08:43:21.999Z</time></trkpt><trkpt lat="43.753039709403026" lon="12.535525364061147"><ele>216.0</ele><time>2026-04-25T08:43:22.999Z</time></trkpt><trkpt lat="43.75294917121759" lon="12.535359239358874"><ele>216.0</ele><time>2026-04-25T08:43:23.999Z</time></trkpt><trkpt lat="43.75287745589208" lon="12.535165802773587"><ele>216.0</ele><time>2026-04-25T08:43:24.999Z</time></trkpt><trkpt lat="43.75280766624704" lon="12.534965566270419"><ele>216.0</ele><time>2026-04-25T08:43:25.999Z</time></trkpt><trkpt lat="43.75273772588249" lon="12.534759476810455"><ele>212.33333333333331</ele><time>2026-04-25T08:43:26.999Z</time></trkpt><trkpt lat="43.75267485505314" lon="12.534552264645516"><ele>208.66666666666666</ele><time>2026-04-25T08:43:27.999Z</time></trkpt><trkpt lat="43.75260472564227" lon="12.534341112810235"><ele>205.0</ele><time>2026-04-25T08:43:28.999Z</time></trkpt><trkpt lat="43.75252776695542" lon="12.534147563030995"><ele>205.0</ele><time>2026-04-25T08:43:29.999Z</time></trkpt><trkpt lat="43.75245688018973" lon="12.533959210979262"><ele>205.0</ele><time>2026-04-25T08:43:30.999Z</time></trkpt><trkpt lat="43.75239372906407" lon="12.53377756081869"><ele>205.0</ele><time>2026-04-25T08:43:31.999Z</time></trkpt><trkpt lat="43.75233379476616" lon="12.533610585748384"><ele>205.0</ele><time>2026-04-25T08:43:32.999Z</time></trkpt><trkpt lat="43.75228204800043" lon="12.533473151107088"><ele>206.4</ele><time>2026-04-25T08:43:33.999Z</time></trkpt><trkpt lat="43.75224715107887" lon="12.533341205549581"><ele>207.8</ele><time>2026-04-25T08:43:34.999Z</time></trkpt><trkpt lat="43.752221023701914" lon="12.533186660685365"><ele>209.2</ele><time>2026-04-25T08:43:35.999Z</time></trkpt><trkpt lat="43.752266713279006" lon="12.533043311203665"><ele>210.6</ele><time>2026-04-25T08:43:36.999Z</time></trkpt><trkpt lat="43.75230040878935" lon="12.532890985005512"><ele>212.0</ele><time>2026-04-25T08:43:37.999Z</time></trkpt><trkpt lat="43.75236966455218" lon="12.532756952097447"><ele>214.25</ele><time>2026-04-25T08:43:38.999Z</time></trkpt><trkpt lat="43.75239089868113" lon="12.532610477147841"><ele>216.5</ele><time>2026-04-25T08:43:39.999Z</time></trkpt><trkpt lat="43.752356654932115" lon="12.532447562014722"><ele>218.75</ele><time>2026-04-25T08:43:40.999Z</time></trkpt><trkpt lat="43.75227058743857" lon="12.532331115254747"><ele>221.0</ele><time>2026-04-25T08:43:41.999Z</time></trkpt><trkpt lat="43.75219107336659" lon="12.532222740663139"><ele>221.0</ele><time>2026-04-25T08:43:42.999Z</time></trkpt><trkpt lat="43.752103246502124" lon="12.53210726856342"><ele>221.0</ele><time>2026-04-25T08:43:43.999Z</time></trkpt><trkpt lat="43.7520164917475" lon="12.531981414331476"><ele>221.0</ele><time>2026-04-25T08:43:44.999Z</time></trkpt><trkpt lat="43.75192820717502" lon="12.531850047420585"><ele>221.0</ele><time>2026-04-25T08:43:45.999Z</time></trkpt><trkpt lat="43.751826513796374" lon="12.531696991023892"><ele>221.66666666666669</ele><time>2026-04-25T08:43:46.999Z</time></trkpt><trkpt lat="43.751714562505676" lon="12.531531476696706"><ele>222.33333333333331</ele><time>2026-04-25T08:43:47.999Z</time></trkpt><trkpt lat="43.75159354884587" lon="12.531370959623413"><ele>223.0</ele><time>2026-04-25T08:43:48.999Z</time></trkpt><trkpt lat="43.7514668129957" lon="12.531221441448395"><ele>228.0</ele><time>2026-04-25T08:43:49.999Z</time></trkpt><trkpt lat="43.751329441362785" lon="12.53106874498731"><ele>233.0</ele><time>2026-04-25T08:43:50.999Z</time></trkpt><trkpt lat="43.75119625821513" lon="12.530924400787235"><ele>238.0</ele><time>2026-04-25T08:43:51.999Z</time></trkpt><trkpt lat="43.75106411149206" lon="12.530781668839499"><ele>238.33333333333331</ele><time>2026-04-25T08:43:52.999Z</time></trkpt><trkpt lat="43.750932057774065" lon="12.530644901977187"><ele>238.66666666666669</ele><time>2026-04-25T08:43:53.999Z</time></trkpt><trkpt lat="43.750800762465374" lon="12.530512467801588"><ele>239.0</ele><time>2026-04-25T08:43:54.999Z</time></trkpt><trkpt lat="43.75067315548739" lon="12.530384272260044"><ele>239.0</ele><time>2026-04-25T08:43:55.999Z</time></trkpt><trkpt lat="43.75054677035632" lon="12.530257304287957"><ele>239.0</ele><time>2026-04-25T08:43:56.999Z</time></trkpt><trkpt lat="43.75042244658018" lon="12.530130538152047"><ele>239.0</ele><time>2026-04-25T08:43:57.999Z</time></trkpt><trkpt lat="43.750300583536735" lon="12.530001137324762"><ele>235.33333333333334</ele><time>2026-04-25T08:43:58.999Z</time></trkpt><trkpt lat="43.750183412548076" lon="12.529872711260298"><ele>231.66666666666669</ele><time>2026-04-25T08:43:59.999Z</time></trkpt><trkpt lat="43.75006160783506" lon="12.529743439557869"><ele>228.0</ele><time>2026-04-25T08:44:00.999Z</time></trkpt><trkpt lat="43.74993962533666" lon="12.529617552268471"><ele>231.0</ele><time>2026-04-25T08:44:01.999Z</time></trkpt><trkpt lat="43.74981905302938" lon="12.529492417070667"><ele>234.0</ele><time>2026-04-25T08:44:02.999Z</time></trkpt><trkpt lat="43.74970174907783" lon="12.529364982660923"><ele>237.0</ele><time>2026-04-25T08:44:03.999Z</time></trkpt><trkpt lat="43.74958545960772" lon="12.529235790944492"><ele>240.0</ele><time>2026-04-25T08:44:04.999Z</time></trkpt><trkpt lat="43.74946178855961" lon="12.529121525765676"><ele>239.33333333333331</ele><time>2026-04-25T08:44:05.999Z</time></trkpt><trkpt lat="43.74932649163242" lon="12.529017032492217"><ele>238.66666666666666</ele><time>2026-04-25T08:44:06.999Z</time></trkpt><trkpt lat="43.74917614525302" lon="12.528943563055464"><ele>238.0</ele><time>2026-04-25T08:44:07.999Z</time></trkpt><trkpt lat="43.74903087236459" lon="12.528876712557027"><ele>238.0</ele><time>2026-04-25T08:44:08.999Z</time></trkpt><trkpt lat="43.74888661935202" lon="12.528814914871505"><ele>238.0</ele><time>2026-04-25T08:44:09.999Z</time></trkpt><trkpt lat="43.74872740746665" lon="12.528771621628799"><ele>238.0</ele><time>2026-04-25T08:44:10.999Z</time></trkpt><trkpt lat="43.748573764176285" lon="12.528756805634458"><ele>236.0</ele><time>2026-04-25T08:44:11.999Z</time></trkpt><trkpt lat="43.74843860041274" lon="12.528741979436274"><ele>234.0</ele><time>2026-04-25T08:44:12.999Z</time></trkpt><trkpt lat="43.74831608902205" lon="12.528693020435858"><ele>232.0</ele><time>2026-04-25T08:44:13.999Z</time></trkpt><trkpt lat="43.748193107633504" lon="12.528612363096828"><ele>230.0</ele><time>2026-04-25T08:44:14.999Z</time></trkpt><trkpt lat="43.748071508300505" lon="12.52851385480499"><ele>233.25</ele><time>2026-04-25T08:44:15.999Z</time></trkpt><trkpt lat="43.74793438104243" lon="12.528436391560108"><ele>236.5</ele><time>2026-04-25T08:44:16.999Z</time></trkpt><trkpt lat="43.74780111921146" lon="12.528343211491155"><ele>239.75</ele><time>2026-04-25T08:44:17.999Z</time></trkpt><trkpt lat="43.74765907003997" lon="12.52827895877457"><ele>243.0</ele><time>2026-04-25T08:44:18.999Z</time></trkpt><trkpt lat="43.74751520569268" lon="12.528228539898656"><ele>243.0</ele><time>2026-04-25T08:44:19.999Z</time></trkpt><trkpt lat="43.747351676252954" lon="12.528198760985001"><ele>243.0</ele><time>2026-04-25T08:44:20.999Z</time></trkpt><trkpt lat="43.74720035031046" lon="12.52815643030286"><ele>243.0</ele><time>2026-04-25T08:44:21.999Z</time></trkpt><trkpt lat="43.74705015957346" lon="12.528118445282187"><ele>243.0</ele><time>2026-04-25T08:44:22.999Z</time></trkpt><trkpt lat="43.74690220733432" lon="12.52805634945084"><ele>243.0</ele><time>2026-04-25T08:44:23.999Z</time></trkpt><trkpt lat="43.746755967264356" lon="12.527980433255165"><ele>243.0</ele><time>2026-04-25T08:44:24.999Z</time></trkpt><trkpt lat="43.746632465281955" lon="12.527892297549837"><ele>247.0</ele><time>2026-04-25T08:44:25.999Z</time></trkpt><trkpt lat="43.746516020520815" lon="12.527775718167412"><ele>251.0</ele><time>2026-04-25T08:44:27Z</time></trkpt><trkpt lat="43.74640795908076" lon="12.527642200687973"><ele>255.0</ele><time>2026-04-25T08:44:28Z</time></trkpt><trkpt lat="43.74629919719892" lon="12.527520360899786"><ele>259.0</ele><time>2026-04-25T08:44:29Z</time></trkpt><trkpt lat="43.74617439034225" lon="12.527423202867412"><ele>255.25</ele><time>2026-04-25T08:44:30Z</time></trkpt><trkpt lat="43.74603154805653" lon="12.527402916068947"><ele>251.5</ele><time>2026-04-25T08:44:31Z</time></trkpt><trkpt lat="43.745894735862066" lon="12.527378336634648"><ele>247.75</ele><time>2026-04-25T08:44:32Z</time></trkpt><trkpt lat="43.745780547523054" lon="12.52731936776446"><ele>244.0</ele><time>2026-04-25T08:44:33Z</time></trkpt><trkpt lat="43.745690733031786" lon="12.527249947464808"><ele>244.0</ele><time>2026-04-25T08:44:34Z</time></trkpt><trkpt lat="43.745618188394324" lon="12.527165406577463"><ele>243.99999999999997</ele><time>2026-04-25T08:44:35Z</time></trkpt><trkpt lat="43.74558222874257" lon="12.527044079872606"><ele>243.99999999999997</ele><time>2026-04-25T08:44:36Z</time></trkpt><trkpt lat="43.74558929925951" lon="12.52692207762459"><ele>244.0</ele><time>2026-04-25T08:44:37Z</time></trkpt><trkpt lat="43.745614347622904" lon="12.526795377028057"><ele>244.0</ele><time>2026-04-25T08:44:38Z</time></trkpt><trkpt lat="43.74564846799365" lon="12.52664956822764"><ele>245.79999999999998</ele><time>2026-04-25T08:44:39Z</time></trkpt><trkpt lat="43.74567974162237" lon="12.526479987830161"><ele>247.59999999999997</ele><time>2026-04-25T08:44:40Z</time></trkpt><trkpt lat="43.74570301825704" lon="12.52632010508659"><ele>249.4</ele><time>2026-04-25T08:44:41Z</time></trkpt><trkpt lat="43.74568864640476" lon="12.526183389322432"><ele>251.2</ele><time>2026-04-25T08:44:42Z</time></trkpt><trkpt lat="43.74565453534659" lon="12.526085658289047"><ele>253.0</ele><time>2026-04-25T08:44:43Z</time></trkpt><trkpt lat="43.74555651550179" lon="12.526031399364085"><ele>253.0</ele><time>2026-04-25T08:44:44Z</time></trkpt><trkpt lat="43.7454582866783" lon="12.526010082405564"><ele>253.0</ele><time>2026-04-25T08:44:45Z</time></trkpt><trkpt lat="43.74535296239496" lon="12.52613310497589"><ele>253.0</ele><time>2026-04-25T08:44:46Z</time></trkpt><trkpt lat="43.74529841018413" lon="12.526245734034239"><ele>253.0</ele><time>2026-04-25T08:44:47Z</time></trkpt><trkpt lat="43.745235176145854" lon="12.526401043633921"><ele>248.60000000000002</ele><time>2026-04-25T08:44:48Z</time></trkpt><trkpt lat="43.745184137579365" lon="12.526529541089241"><ele>244.20000000000002</ele><time>2026-04-25T08:44:49Z</time></trkpt><trkpt lat="43.74511261290564" lon="12.526595641665352"><ele>239.8</ele><time>2026-04-25T08:44:50Z</time></trkpt><trkpt lat="43.74499659339974" lon="12.5265095438759"><ele>235.4</ele><time>2026-04-25T08:44:52Z</time></trkpt><trkpt lat="43.74499402428357" lon="12.526397340716938"><ele>231.0</ele><time>2026-04-25T08:44:53Z</time></trkpt><trkpt lat="43.74494712390217" lon="12.526235296751905"><ele>238.0</ele><time>2026-04-25T08:44:54Z</time></trkpt><trkpt lat="43.74489788113422" lon="12.526090639330791"><ele>245.0</ele><time>2026-04-25T08:44:55Z</time></trkpt><trkpt lat="43.74481688518461" lon="12.525925399763274"><ele>252.0</ele><time>2026-04-25T08:44:56Z</time></trkpt><trkpt lat="43.74469477227508" lon="12.525837517656258"><ele>259.0</ele><time>2026-04-25T08:44:57Z</time></trkpt><trkpt lat="43.74455896272173" lon="12.525773727565143"><ele>259.0</ele><time>2026-04-25T08:44:58Z</time></trkpt><trkpt lat="43.744428787529685" lon="12.525725087028707"><ele>259.0</ele><time>2026-04-25T08:44:59Z</time></trkpt><trkpt lat="43.74431707975412" lon="12.525631433788211"><ele>259.0</ele><time>2026-04-25T08:45:00Z</time></trkpt><trkpt lat="43.744188079129785" lon="12.525590915558546"><ele>259.0</ele><time>2026-04-25T08:45:01Z</time></trkpt><trkpt lat="43.74405614915678" lon="12.52556001133701"><ele>261.75</ele><time>2026-04-25T08:45:02Z</time></trkpt><trkpt lat="43.74395494875427" lon="12.525492690368598"><ele>264.5</ele><time>2026-04-25T08:45:03Z</time></trkpt><trkpt lat="43.74385433163972" lon="12.525396627214228"><ele>267.25</ele><time>2026-04-25T08:45:04Z</time></trkpt><trkpt lat="43.74374451812714" lon="12.525318509663137"><ele>270.0</ele><time>2026-04-25T08:45:05Z</time></trkpt><trkpt lat="43.743625110965894" lon="12.52524079362085"><ele>265.5</ele><time>2026-04-25T08:45:06Z</time></trkpt><trkpt lat="43.74349229813948" lon="12.52517894109102"><ele>261.0</ele><time>2026-04-25T08:45:07Z</time></trkpt><trkpt lat="43.74336576271078" lon="12.52512971683155"><ele>256.5</ele><time>2026-04-25T08:45:08Z</time></trkpt><trkpt lat="43.74322783137985" lon="12.525079075454832"><ele>252.0</ele><time>2026-04-25T08:45:09Z</time></trkpt><trkpt lat="43.74308249375636" lon="12.525053868160185"><ele>252.0</ele><time>2026-04-25T08:45:10Z</time></trkpt><trkpt lat="43.74293504219137" lon="12.525065182606443"><ele>252.0</ele><time>2026-04-25T08:45:11Z</time></trkpt><trkpt lat="43.742784000093394" lon="12.525099658327415"><ele>252.0</ele><time>2026-04-25T08:45:12Z</time></trkpt><trkpt lat="43.74264368860924" lon="12.525082186386012"><ele>252.0</ele><time>2026-04-25T08:45:13Z</time></trkpt><trkpt lat="43.742515147202845" lon="12.525076663373678"><ele>249.25</ele><time>2026-04-25T08:45:14Z</time></trkpt><trkpt lat="43.742391808885955" lon="12.525064352815146"><ele>246.5</ele><time>2026-04-25T08:45:15Z</time></trkpt><trkpt lat="43.7422725554785" lon="12.525027538271692"><ele>243.75</ele><time>2026-04-25T08:45:16Z</time></trkpt><trkpt lat="43.742146621382744" lon="12.524972383368727"><ele>241.0</ele><time>2026-04-25T08:45:17Z</time></trkpt><trkpt lat="43.742010485409764" lon="12.524909760482256"><ele>238.25</ele><time>2026-04-25T08:45:18Z</time></trkpt><trkpt lat="43.74186732806032" lon="12.524878840152375"><ele>235.5</ele><time>2026-04-25T08:45:18.999Z</time></trkpt><trkpt lat="43.74172784105754" lon="12.524846939339566"><ele>232.75</ele><time>2026-04-25T08:45:19.999Z</time></trkpt><trkpt lat="43.741600699306346" lon="12.524861759022293"><ele>230.0</ele><time>2026-04-25T08:45:20.999Z</time></trkpt><trkpt lat="43.74148055037721" lon="12.524910959547858"><ele>230.0</ele><time>2026-04-25T08:45:21.999Z</time></trkpt><trkpt lat="43.741379572360195" lon="12.52491423309113"><ele>230.0</ele><time>2026-04-25T08:45:22.999Z</time></trkpt><trkpt lat="43.74129379097205" lon="12.524879313646414"><ele>230.0</ele><time>2026-04-25T08:45:23.999Z</time></trkpt><trkpt lat="43.74123138647889" lon="12.524779029369743"><ele>230.0</ele><time>2026-04-25T08:45:24.999Z</time></trkpt><trkpt lat="43.741196440742584" lon="12.52465207993924"><ele>230.0</ele><time>2026-04-25T08:45:25.999Z</time></trkpt><trkpt lat="43.741149439502166" lon="12.524489465119174"><ele>231.4</ele><time>2026-04-25T08:45:26.999Z</time></trkpt><trkpt lat="43.741089048676784" lon="12.524367164437026"><ele>232.8</ele><time>2026-04-25T08:45:27.999Z</time></trkpt><trkpt lat="43.74097043653324" lon="12.524350558522947"><ele>234.2</ele><time>2026-04-25T08:45:28.999Z</time></trkpt><trkpt lat="43.74086996862441" lon="12.52433007398928"><ele>235.6</ele><time>2026-04-25T08:45:29.999Z</time></trkpt><trkpt lat="43.74077884590853" lon="12.524424597320275"><ele>237.0</ele><time>2026-04-25T08:45:30.999Z</time></trkpt><trkpt lat="43.74067766895486" lon="12.524445652462946"><ele>237.0</ele><time>2026-04-25T08:45:31.999Z</time></trkpt><trkpt lat="43.74058756503836" lon="12.524433435753473"><ele>237.0</ele><time>2026-04-25T08:45:32.999Z</time></trkpt><trkpt lat="43.74050057080266" lon="12.524313956748449"><ele>237.0</ele><time>2026-04-25T08:45:33.999Z</time></trkpt><trkpt lat="43.74041238706491" lon="12.524218154343224"><ele>237.0</ele><time>2026-04-25T08:45:34.999Z</time></trkpt><trkpt lat="43.74031137729976" lon="12.52410980407508"><ele>235.25</ele><time>2026-04-25T08:45:35.999Z</time></trkpt><trkpt lat="43.74020489264486" lon="12.524003691382505"><ele>233.5</ele><time>2026-04-25T08:45:36.999Z</time></trkpt><trkpt lat="43.74008079704775" lon="12.523909535964101"><ele>231.75</ele><time>2026-04-25T08:45:37.999Z</time></trkpt><trkpt lat="43.73995036849007" lon="12.52383284172094"><ele>230.0</ele><time>2026-04-25T08:45:38.999Z</time></trkpt><trkpt lat="43.73981360905037" lon="12.523781189256338"><ele>230.0</ele><time>2026-04-25T08:45:39.999Z</time></trkpt><trkpt lat="43.73966963791761" lon="12.523773705929225"><ele>230.0</ele><time>2026-04-25T08:45:40.999Z</time></trkpt><trkpt lat="43.739557498500425" lon="12.523688723192153"><ele>230.0</ele><time>2026-04-25T08:45:41.999Z</time></trkpt><trkpt lat="43.73947123576233" lon="12.523631120531812"><ele>230.0</ele><time>2026-04-25T08:45:42.999Z</time></trkpt><trkpt lat="43.739392518209705" lon="12.523608975351332"><ele>230.0</ele><time>2026-04-25T08:45:43.999Z</time></trkpt><trkpt lat="43.73929410143273" lon="12.523736318879456"><ele>230.2</ele><time>2026-04-25T08:45:44.999Z</time></trkpt><trkpt lat="43.73921976444543" lon="12.523847790744588"><ele>230.4</ele><time>2026-04-25T08:45:45.999Z</time></trkpt><trkpt lat="43.73912093963034" lon="12.523927435949185"><ele>230.60000000000002</ele><time>2026-04-25T08:45:46.999Z</time></trkpt><trkpt lat="43.73901574475492" lon="12.52395982149071"><ele>230.8</ele><time>2026-04-25T08:45:47.999Z</time></trkpt><trkpt lat="43.73890515629322" lon="12.523960174614702"><ele>231.0</ele><time>2026-04-25T08:45:48.999Z</time></trkpt><trkpt lat="43.738815101247305" lon="12.52391768189707"><ele>231.0</ele><time>2026-04-25T08:45:49.999Z</time></trkpt><trkpt lat="43.7387400325348" lon="12.523841833185491"><ele>231.00000000000003</ele><time>2026-04-25T08:45:50.999Z</time></trkpt><trkpt lat="43.738659764067826" lon="12.523748051939592"><ele>231.00000000000003</ele><time>2026-04-25T08:45:51.999Z</time></trkpt><trkpt lat="43.738574596039676" lon="12.523638488555651"><ele>231.0</ele><time>2026-04-25T08:45:52.999Z</time></trkpt><trkpt lat="43.73848423960076" lon="12.52353140371074"><ele>231.0</ele><time>2026-04-25T08:45:53.999Z</time></trkpt><trkpt lat="43.73840034891915" lon="12.523425040240397"><ele>232.8</ele><time>2026-04-25T08:45:54.999Z</time></trkpt><trkpt lat="43.73832908490333" lon="12.523301636180088"><ele>234.60000000000002</ele><time>2026-04-25T08:45:55.999Z</time></trkpt><trkpt lat="43.73827760771899" lon="12.523167722481277"><ele>236.4</ele><time>2026-04-25T08:45:56.999Z</time></trkpt><trkpt lat="43.73825410295144" lon="12.523023563376444"><ele>238.2</ele><time>2026-04-25T08:45:57.999Z</time></trkpt><trkpt lat="43.738244220965115" lon="12.522867345802611"><ele>240.0</ele><time>2026-04-25T08:45:58.999Z</time></trkpt><trkpt lat="43.73823007407119" lon="12.522731747212177"><ele>243.75</ele><time>2026-04-25T08:45:59.999Z</time></trkpt><trkpt lat="43.73819579552898" lon="12.522608106978863"><ele>247.5</ele><time>2026-04-25T08:46:00.999Z</time></trkpt><trkpt lat="43.73810910305531" lon="12.522508656983868"><ele>251.25</ele><time>2026-04-25T08:46:01.999Z</time></trkpt><trkpt lat="43.7379823095815" lon="12.522470385696424"><ele>255.0</ele><time>2026-04-25T08:46:02.999Z</time></trkpt><trkpt lat="43.73786008586288" lon="12.522410997548674"><ele>255.0</ele><time>2026-04-25T08:46:03.999Z</time></trkpt><trkpt lat="43.73772176480377" lon="12.52240544598142"><ele>255.0</ele><time>2026-04-25T08:46:04.999Z</time></trkpt><trkpt lat="43.7375792888436" lon="12.522421262427924"><ele>255.0</ele><time>2026-04-25T08:46:05.999Z</time></trkpt><trkpt lat="43.7374483849375" lon="12.522441355830324"><ele>255.0</ele><time>2026-04-25T08:46:06.999Z</time></trkpt><trkpt lat="43.73733150678075" lon="12.522446235007013"><ele>256.4</ele><time>2026-04-25T08:46:07.999Z</time></trkpt><trkpt lat="43.73723238341856" lon="12.52241807865352"><ele>257.8</ele><time>2026-04-25T08:46:08.999Z</time></trkpt><trkpt lat="43.73714924415337" lon="12.522350520854408"><ele>259.2</ele><time>2026-04-25T08:46:09.999Z</time></trkpt><trkpt lat="43.73709547667662" lon="12.52223761762948"><ele>260.6</ele><time>2026-04-25T08:46:10.999Z</time></trkpt><trkpt lat="43.73703447483455" lon="12.522103032018526"><ele>262.0</ele><time>2026-04-25T08:46:11.999Z</time></trkpt><trkpt lat="43.736954048379054" lon="12.5219670038723"><ele>257.0</ele><time>2026-04-25T08:46:12.999Z</time></trkpt><trkpt lat="43.73683975977394" lon="12.521860777661635"><ele>252.0</ele><time>2026-04-25T08:46:13.999Z</time></trkpt><trkpt lat="43.73671075664128" lon="12.521756388481148"><ele>247.0</ele><time>2026-04-25T08:46:14.999Z</time></trkpt><trkpt lat="43.73657933968672" lon="12.521659982386218"><ele>242.0</ele><time>2026-04-25T08:46:15.999Z</time></trkpt><trkpt lat="43.73645102037116" lon="12.52157070057898"><ele>242.00000000000003</ele><time>2026-04-25T08:46:16.999Z</time></trkpt><trkpt lat="43.73633730151093" lon="12.521492850997053"><ele>242.0</ele><time>2026-04-25T08:46:17.999Z</time></trkpt><trkpt lat="43.73625818954262" lon="12.521433479330506"><ele>242.0</ele><time>2026-04-25T08:46:18.999Z</time></trkpt><trkpt lat="43.73620192172219" lon="12.521360934986129"><ele>242.0</ele><time>2026-04-25T08:46:19.999Z</time></trkpt><trkpt lat="43.73616842968273" lon="12.521272535576804"><ele>242.00000000000003</ele><time>2026-04-25T08:46:20.999Z</time></trkpt><trkpt lat="43.73618601388611" lon="12.521172046900885"><ele>242.0</ele><time>2026-04-25T08:46:21.999Z</time></trkpt><trkpt lat="43.73623925797306" lon="12.521054764131792"><ele>245.0</ele><time>2026-04-25T08:46:22.999Z</time></trkpt><trkpt lat="43.73625767717947" lon="12.520902517476571"><ele>248.0</ele><time>2026-04-25T08:46:23.999Z</time></trkpt><trkpt lat="43.73622999154471" lon="12.52073868277269"><ele>251.0</ele><time>2026-04-25T08:46:24.999Z</time></trkpt><trkpt lat="43.736174837059195" lon="12.520583805703527"><ele>254.0</ele><time>2026-04-25T08:46:25.999Z</time></trkpt><trkpt lat="43.73607162236311" lon="12.520479616359964"><ele>254.25</ele><time>2026-04-25T08:46:26.999Z</time></trkpt><trkpt lat="43.73598608219735" lon="12.520376774850769"><ele>254.5</ele><time>2026-04-25T08:46:27.999Z</time></trkpt><trkpt lat="43.73585946928833" lon="12.520316287224638"><ele>254.75</ele><time>2026-04-25T08:46:28.999Z</time></trkpt><trkpt lat="43.7357344957267" lon="12.520269943417588"><ele>255.0</ele><time>2026-04-25T08:46:29.999Z</time></trkpt><trkpt lat="43.73562108709487" lon="12.520205810919439"><ele>255.0</ele><time>2026-04-25T08:46:30.999Z</time></trkpt><trkpt lat="43.735503406466435" lon="12.52014305280373"><ele>255.0</ele><time>2026-04-25T08:46:31.999Z</time></trkpt><trkpt lat="43.735379663647954" lon="12.520124025953612"><ele>255.0</ele><time>2026-04-25T08:46:33Z</time></trkpt><trkpt lat="43.735262093698594" lon="12.520171789588316"><ele>255.0</ele><time>2026-04-25T08:46:34Z</time></trkpt><trkpt lat="43.73516528914309" lon="12.520293026544051"><ele>253.25</ele><time>2026-04-25T08:46:35Z</time></trkpt><trkpt lat="43.73506418198993" lon="12.520380989362705"><ele>251.5</ele><time>2026-04-25T08:46:36Z</time></trkpt><trkpt lat="43.73499676861409" lon="12.520497510830722"><ele>249.75</ele><time>2026-04-25T08:46:37Z</time></trkpt><trkpt lat="43.7349499573448" lon="12.520651522487432"><ele>248.0</ele><time>2026-04-25T08:46:38Z</time></trkpt><trkpt lat="43.734915993233095" lon="12.520813111684145"><ele>246.0</ele><time>2026-04-25T08:46:39Z</time></trkpt><trkpt lat="43.73485426793193" lon="12.52092034969247"><ele>244.0</ele><time>2026-04-25T08:46:40Z</time></trkpt><trkpt lat="43.734789190250495" lon="12.521012652260655"><ele>242.0</ele><time>2026-04-25T08:46:41Z</time></trkpt><trkpt lat="43.73469729025836" lon="12.521088624339635"><ele>240.0</ele><time>2026-04-25T08:46:42Z</time></trkpt><trkpt lat="43.734598497290186" lon="12.52112979500894"><ele>238.0</ele><time>2026-04-25T08:46:43Z</time></trkpt><trkpt lat="43.73448593518959" lon="12.521157650753436"><ele>237.25</ele><time>2026-04-25T08:46:44Z</time></trkpt><trkpt lat="43.73435584727413" lon="12.52116233358923"><ele>236.5</ele><time>2026-04-25T08:46:45Z</time></trkpt><trkpt lat="43.73421208500067" lon="12.521166760451363"><ele>235.75</ele><time>2026-04-25T08:46:46Z</time></trkpt><trkpt lat="43.734073149070205" lon="12.52116933692534"><ele>235.0</ele><time>2026-04-25T08:46:47Z</time></trkpt><trkpt lat="43.73393221079716" lon="12.521168181856527"><ele>235.0</ele><time>2026-04-25T08:46:48Z</time></trkpt><trkpt lat="43.73379079893276" lon="12.521160186875973"><ele>235.0</ele><time>2026-04-25T08:46:49Z</time></trkpt><trkpt lat="43.73366685762031" lon="12.521128313814204"><ele>235.0</ele><time>2026-04-25T08:46:50Z</time></trkpt><trkpt lat="43.73354457196091" lon="12.521066372792477"><ele>235.0</ele><time>2026-04-25T08:46:51Z</time></trkpt><trkpt lat="43.73341073126239" lon="12.520983414662247"><ele>236.0</ele><time>2026-04-25T08:46:52Z</time></trkpt><trkpt lat="43.73327623236673" lon="12.520898939956501"><ele>237.0</ele><time>2026-04-25T08:46:53Z</time></trkpt><trkpt lat="43.73314707006476" lon="12.52081290084007"><ele>238.0</ele><time>2026-04-25T08:46:54Z</time></trkpt><trkpt lat="43.733018315518486" lon="12.520701443741144"><ele>239.0</ele><time>2026-04-25T08:46:55Z</time></trkpt><trkpt lat="43.732884342275945" lon="12.520595250193487"><ele>239.0</ele><time>2026-04-25T08:46:56Z</time></trkpt><trkpt lat="43.732768609290844" lon="12.52046824609746"><ele>239.0</ele><time>2026-04-25T08:46:57Z</time></trkpt><trkpt lat="43.732662399827255" lon="12.520312854311454"><ele>239.0</ele><time>2026-04-25T08:46:58Z</time></trkpt><trkpt lat="43.73253068188777" lon="12.520207874435528"><ele>241.75</ele><time>2026-04-25T08:46:59Z</time></trkpt><trkpt lat="43.73243459783411" lon="12.52003809920454"><ele>244.5</ele><time>2026-04-25T08:47:00Z</time></trkpt><trkpt lat="43.73234346973749" lon="12.5198872246189"><ele>247.25</ele><time>2026-04-25T08:47:01Z</time></trkpt><trkpt lat="43.732262135855834" lon="12.519762965269276"><ele>250.0</ele><time>2026-04-25T08:47:02Z</time></trkpt><trkpt lat="43.73216645845572" lon="12.519653226268014"><ele>250.0</ele><time>2026-04-25T08:47:03Z</time></trkpt><trkpt lat="43.73203504042748" lon="12.519581706983693"><ele>250.0</ele><time>2026-04-25T08:47:04Z</time></trkpt><trkpt lat="43.73190742141124" lon="12.519555236946275"><ele>250.0</ele><time>2026-04-25T08:47:05Z</time></trkpt><trkpt lat="43.731805187509096" lon="12.519523303863574"><ele>250.0</ele><time>2026-04-25T08:47:06Z</time></trkpt><trkpt lat="43.731730314872436" lon="12.519476501324576"><ele>248.8</ele><time>2026-04-25T08:47:07Z</time></trkpt><trkpt lat="43.73170417438036" lon="12.519376564905334"><ele>247.6</ele><time>2026-04-25T08:47:08Z</time></trkpt><trkpt lat="43.73169314107689" lon="12.519241863360195"><ele>246.39999999999998</ele><time>2026-04-25T08:47:09Z</time></trkpt><trkpt lat="43.73166774670017" lon="12.519078068115174"><ele>245.2</ele><time>2026-04-25T08:47:10Z</time></trkpt><trkpt lat="43.73163255555791" lon="12.518910743771775"><ele>244.0</ele><time>2026-04-25T08:47:11Z</time></trkpt><trkpt lat="43.73158795462087" lon="12.518780327946509"><ele>244.0</ele><time>2026-04-25T08:47:12Z</time></trkpt><trkpt lat="43.731522738095926" lon="12.518705473174332"><ele>244.0</ele><time>2026-04-25T08:47:13Z</time></trkpt><trkpt lat="43.73143225031674" lon="12.51868179227157"><ele>244.0</ele><time>2026-04-25T08:47:14Z</time></trkpt><trkpt lat="43.73130579254652" lon="12.518745706045383"><ele>244.0</ele><time>2026-04-25T08:47:15Z</time></trkpt><trkpt lat="43.73117049798034" lon="12.518828416261789"><ele>244.0</ele><time>2026-04-25T08:47:16Z</time></trkpt><trkpt lat="43.73103398084776" lon="12.518915812765215"><ele>244.0</ele><time>2026-04-25T08:47:17Z</time></trkpt><trkpt lat="43.730921545151396" lon="12.518976642176574"><ele>244.0</ele><time>2026-04-25T08:47:18Z</time></trkpt><trkpt lat="43.73082571465239" lon="12.519003946595385"><ele>244.0</ele><time>2026-04-25T08:47:19Z</time></trkpt><trkpt lat="43.73074237079825" lon="12.51898586804457"><ele>244.0</ele><time>2026-04-25T08:47:20Z</time></trkpt><trkpt lat="43.73069054403724" lon="12.518917376175278"><ele>243.99999999999997</ele><time>2026-04-25T08:47:21Z</time></trkpt><trkpt lat="43.73063826567896" lon="12.518827024521226"><ele>243.99999999999997</ele><time>2026-04-25T08:47:22Z</time></trkpt><trkpt lat="43.7306038700715" lon="12.5187029218108"><ele>244.0</ele><time>2026-04-25T08:47:22.999Z</time></trkpt><trkpt lat="43.73056472686043" lon="12.518570567122701"><ele>244.0</ele><time>2026-04-25T08:47:23.999Z</time></trkpt><trkpt lat="43.73051637971803" lon="12.518440647927305"><ele>245.79999999999998</ele><time>2026-04-25T08:47:24.999Z</time></trkpt><trkpt lat="43.7304641267305" lon="12.518318445292937"><ele>247.59999999999997</ele><time>2026-04-25T08:47:25.999Z</time></trkpt><trkpt lat="43.73040787500941" lon="12.518220204575465"><ele>249.4</ele><time>2026-04-25T08:47:26.999Z</time></trkpt><trkpt lat="43.73035797823479" lon="12.518163921219186"><ele>251.2</ele><time>2026-04-25T08:47:27.999Z</time></trkpt><trkpt lat="43.73029748468722" lon="12.518137168665618"><ele>253.0</ele><time>2026-04-25T08:47:28.999Z</time></trkpt><trkpt lat="43.73022493453432" lon="12.51829035809603"><ele>251.4</ele><time>2026-04-25T08:47:29.999Z</time></trkpt><trkpt lat="43.73014058383283" lon="12.518376328562114"><ele>249.8</ele><time>2026-04-25T08:47:31.999Z</time></trkpt><trkpt lat="43.73005198429021" lon="12.518334901777557"><ele>248.2</ele><time>2026-04-25T08:47:33.999Z</time></trkpt><trkpt lat="43.73001402106908" lon="12.518205911699587"><ele>246.6</ele><time>2026-04-25T08:47:35.999Z</time></trkpt><trkpt lat="43.729964479284284" lon="12.518138502793311"><ele>245.0</ele><time>2026-04-25T08:47:36.999Z</time></trkpt><trkpt lat="43.72989515291954" lon="12.51806343273654"><ele>245.0</ele><time>2026-04-25T08:47:37.999Z</time></trkpt><trkpt lat="43.72981204858401" lon="12.517998506791583"><ele>245.0</ele><time>2026-04-25T08:47:38.999Z</time></trkpt><trkpt lat="43.72972161496787" lon="12.517935394521476"><ele>245.0</ele><time>2026-04-25T08:47:39.999Z</time></trkpt><trkpt lat="43.72962441093529" lon="12.51787979814003"><ele>245.0</ele><time>2026-04-25T08:47:40.999Z</time></trkpt><trkpt lat="43.72952027466354" lon="12.517835839130155"><ele>245.0</ele><time>2026-04-25T08:47:41.999Z</time></trkpt><trkpt lat="43.729413778464554" lon="12.517805186188053"><ele>245.2</ele><time>2026-04-25T08:47:42.999Z</time></trkpt><trkpt lat="43.72931863157765" lon="12.51780317516585"><ele>245.4</ele><time>2026-04-25T08:47:43.999Z</time></trkpt><trkpt lat="43.72922409850359" lon="12.517826381764852"><ele>245.60000000000002</ele><time>2026-04-25T08:47:44.999Z</time></trkpt><trkpt lat="43.72913428488544" lon="12.517873010565962"><ele>245.8</ele><time>2026-04-25T08:47:45.999Z</time></trkpt><trkpt lat="43.72905332535816" lon="12.517966509491025"><ele>246.0</ele><time>2026-04-25T08:47:46.999Z</time></trkpt><trkpt lat="43.729036928066236" lon="12.518135763227322"><ele>246.20000000000002</ele><time>2026-04-25T08:47:47.999Z</time></trkpt><trkpt lat="43.729008942421444" lon="12.51826696605765"><ele>246.40000000000003</ele><time>2026-04-25T08:47:48.999Z</time></trkpt><trkpt lat="43.728965231000636" lon="12.518391058587856"><ele>246.6</ele><time>2026-04-25T08:47:49.999Z</time></trkpt><trkpt lat="43.728932065706" lon="12.51851814977241"><ele>246.8</ele><time>2026-04-25T08:47:50.999Z</time></trkpt><trkpt lat="43.72889613834258" lon="12.518643243263197"><ele>247.0</ele><time>2026-04-25T08:47:51.999Z</time></trkpt><trkpt lat="43.728859605629374" lon="12.518771961882935"><ele>247.33333333333331</ele><time>2026-04-25T08:47:52.999Z</time></trkpt><trkpt lat="43.728826251732954" lon="12.518902353589372"><ele>247.66666666666666</ele><time>2026-04-25T08:47:53.999Z</time></trkpt><trkpt lat="43.728792742880174" lon="12.519033351156589"><ele>248.0</ele><time>2026-04-25T08:47:54.999Z</time></trkpt><trkpt lat="43.72876053839959" lon="12.51915306859076"><ele>248.33333333333331</ele><time>2026-04-25T08:47:55.999Z</time></trkpt><trkpt lat="43.728730067537406" lon="12.519245949754705"><ele>248.66666666666666</ele><time>2026-04-25T08:47:56.999Z</time></trkpt><trkpt lat="43.72868951874776" lon="12.51932518749852"><ele>249.0</ele><time>2026-04-25T08:47:57.999Z</time></trkpt><trkpt lat="43.728623034840034" lon="12.51940312730874"><ele>249.6</ele><time>2026-04-25T08:47:58.999Z</time></trkpt><trkpt lat="43.72853175824071" lon="12.519444627346466"><ele>250.2</ele><time>2026-04-25T08:47:59.999Z</time></trkpt><trkpt lat="43.72842331287722" lon="12.519440074398988"><ele>250.79999999999998</ele><time>2026-04-25T08:48:00.999Z</time></trkpt><trkpt lat="43.72831940839058" lon="12.51939303187801"><ele>251.39999999999998</ele><time>2026-04-25T08:48:01.999Z</time></trkpt><trkpt lat="43.72821507211106" lon="12.519342747932695"><ele>252.0</ele><time>2026-04-25T08:48:02.999Z</time></trkpt><trkpt lat="43.7281141708258" lon="12.519346244724904"><ele>252.0</ele><time>2026-04-25T08:48:03.999Z</time></trkpt><trkpt lat="43.7280032564517" lon="12.519308690225095"><ele>252.0</ele><time>2026-04-25T08:48:04.999Z</time></trkpt><trkpt lat="43.72790999334768" lon="12.519231319157218"><ele>252.0</ele><time>2026-04-25T08:48:05.999Z</time></trkpt><trkpt lat="43.72781695557883" lon="12.519181526929284"><ele>252.0</ele><time>2026-04-25T08:48:06.999Z</time></trkpt><trkpt lat="43.72772595019592" lon="12.519132822454532"><ele>252.0</ele><time>2026-04-25T08:48:07.999Z</time></trkpt><trkpt lat="43.72763869705123" lon="12.519086126040337"><ele>252.0</ele><time>2026-04-25T08:48:08.999Z</time></trkpt><trkpt lat="43.72755560319978" lon="12.519038060951134"><ele>252.0</ele><time>2026-04-25T08:48:09.999Z</time></trkpt><trkpt lat="43.72749053123284" lon="12.51898986844051"><ele>252.0</ele><time>2026-04-25T08:48:10.999Z</time></trkpt><trkpt lat="43.72744613624971" lon="12.518923225738927"><ele>252.0</ele><time>2026-04-25T08:48:11.999Z</time></trkpt><trkpt lat="43.72746180676394" lon="12.518814386139992"><ele>252.0</ele><time>2026-04-25T08:48:12.999Z</time></trkpt><trkpt lat="43.727474996365274" lon="12.518705607981223"><ele>252.0</ele><time>2026-04-25T08:48:13.999Z</time></trkpt><trkpt lat="43.72754316262395" lon="12.518607984388703"><ele>252.0</ele><time>2026-04-25T08:48:14.999Z</time></trkpt><trkpt lat="43.72763283970064" lon="12.51851337390332"><ele>252.0</ele><time>2026-04-25T08:48:15.999Z</time></trkpt><trkpt lat="43.72772300367485" lon="12.518405998085841"><ele>252.0</ele><time>2026-04-25T08:48:16.999Z</time></trkpt><trkpt lat="43.7277908765543" lon="12.51827157325392"><ele>252.0</ele><time>2026-04-25T08:48:17.999Z</time></trkpt><trkpt lat="43.727845445481755" lon="12.518101101449156"><ele>251.25</ele><time>2026-04-25T08:48:18.999Z</time></trkpt><trkpt lat="43.72790163632929" lon="12.51792537267732"><ele>250.5</ele><time>2026-04-25T08:48:19.999Z</time></trkpt><trkpt lat="43.727948188358575" lon="12.517760089344991"><ele>249.75</ele><time>2026-04-25T08:48:20.999Z</time></trkpt><trkpt lat="43.727966051307845" lon="12.51760474631197"><ele>249.0</ele><time>2026-04-25T08:48:21.999Z</time></trkpt><trkpt lat="43.72795698754603" lon="12.517438660633438"><ele>248.5</ele><time>2026-04-25T08:48:22.999Z</time></trkpt><trkpt lat="43.72792685230505" lon="12.517272116163362"><ele>248.0</ele><time>2026-04-25T08:48:23.999Z</time></trkpt><trkpt lat="43.7278789963117" lon="12.517116179447559"><ele>247.5</ele><time>2026-04-25T08:48:24.999Z</time></trkpt><trkpt lat="43.727822514502165" lon="12.516980705386558"><ele>247.0</ele><time>2026-04-25T08:48:25.999Z</time></trkpt><trkpt lat="43.72776019842952" lon="12.516862633236524"><ele>247.5</ele><time>2026-04-25T08:48:26.999Z</time></trkpt><trkpt lat="43.727670596476955" lon="12.516779098101738"><ele>248.0</ele><time>2026-04-25T08:48:27.999Z</time></trkpt><trkpt lat="43.72756109869639" lon="12.516721160326838"><ele>248.5</ele><time>2026-04-25T08:48:28.999Z</time></trkpt><trkpt lat="43.7274492777181" lon="12.516729790287469"><ele>249.0</ele><time>2026-04-25T08:48:29.999Z</time></trkpt><trkpt lat="43.727347872447076" lon="12.516800514761869"><ele>249.0</ele><time>2026-04-25T08:48:30.999Z</time></trkpt><trkpt lat="43.7272500905298" lon="12.516913085214988"><ele>248.99999999999997</ele><time>2026-04-25T08:48:31.999Z</time></trkpt><trkpt lat="43.727143450010736" lon="12.516954641145816"><ele>248.99999999999997</ele><time>2026-04-25T08:48:32.999Z</time></trkpt><trkpt lat="43.727047239859964" lon="12.51696197895576"><ele>249.0</ele><time>2026-04-25T08:48:33.999Z</time></trkpt><trkpt lat="43.72694681018372" lon="12.516950072987349"><ele>249.0</ele><time>2026-04-25T08:48:34.999Z</time></trkpt><trkpt lat="43.72685891244607" lon="12.516880763228613"><ele>251.6</ele><time>2026-04-25T08:48:35.999Z</time></trkpt><trkpt lat="43.726776674323276" lon="12.516790829293864"><ele>254.2</ele><time>2026-04-25T08:48:36.999Z</time></trkpt><trkpt lat="43.72669902253827" lon="12.51669438887798"><ele>256.79999999999995</ele><time>2026-04-25T08:48:37.999Z</time></trkpt><trkpt lat="43.726624856075404" lon="12.516592419932879"><ele>259.4</ele><time>2026-04-25T08:48:39Z</time></trkpt><trkpt lat="43.72654852671533" lon="12.516480019237326"><ele>262.0</ele><time>2026-04-25T08:48:40Z</time></trkpt><trkpt lat="43.726462378596366" lon="12.516371986251187"><ele>259.5</ele><time>2026-04-25T08:48:41Z</time></trkpt><trkpt lat="43.726401297756645" lon="12.516224852745077"><ele>257.0</ele><time>2026-04-25T08:48:42Z</time></trkpt><trkpt lat="43.726348196473026" lon="12.516061000108516"><ele>254.5</ele><time>2026-04-25T08:48:43Z</time></trkpt><trkpt lat="43.726295407719256" lon="12.515890419269772"><ele>252.0</ele><time>2026-04-25T08:48:44Z</time></trkpt><trkpt lat="43.72623708895944" lon="12.515721436153973"><ele>252.0</ele><time>2026-04-25T08:48:45Z</time></trkpt><trkpt lat="43.726186040449164" lon="12.515544720782534"><ele>252.0</ele><time>2026-04-25T08:48:46Z</time></trkpt><trkpt lat="43.72611190664814" lon="12.515391057637094"><ele>252.0</ele><time>2026-04-25T08:48:47Z</time></trkpt><trkpt lat="43.72602665583146" lon="12.51526442315771"><ele>252.0</ele><time>2026-04-25T08:48:48Z</time></trkpt><trkpt lat="43.72590256261115" lon="12.515163605025373"><ele>253.39999999999998</ele><time>2026-04-25T08:48:49Z</time></trkpt><trkpt lat="43.72577557201444" lon="12.515120815636541"><ele>254.79999999999998</ele><time>2026-04-25T08:48:50Z</time></trkpt><trkpt lat="43.725713055586695" lon="12.51503530343503"><ele>256.2</ele><time>2026-04-25T08:48:51Z</time></trkpt><trkpt lat="43.72569531365247" lon="12.514920520040315"><ele>257.59999999999997</ele><time>2026-04-25T08:48:52Z</time></trkpt><trkpt lat="43.725708660466495" lon="12.514792955570988"><ele>259.0</ele><time>2026-04-25T08:48:53Z</time></trkpt><trkpt lat="43.72576314555718" lon="12.514685599791244"><ele>259.0</ele><time>2026-04-25T08:48:54Z</time></trkpt><trkpt lat="43.72584366346937" lon="12.514594760922222"><ele>259.0</ele><time>2026-04-25T08:48:55Z</time></trkpt><trkpt lat="43.72594720254454" lon="12.514558567810365"><ele>259.0</ele><time>2026-04-25T08:48:56Z</time></trkpt><trkpt lat="43.72601335575199" lon="12.514502032811542"><ele>259.0</ele><time>2026-04-25T08:48:57Z</time></trkpt><trkpt lat="43.72605983831279" lon="12.514422823238682"><ele>259.0</ele><time>2026-04-25T08:48:58Z</time></trkpt><trkpt lat="43.726053341837535" lon="12.51430625144412"><ele>259.0</ele><time>2026-04-25T08:48:59Z</time></trkpt><trkpt lat="43.72598874350093" lon="12.514187725416917"><ele>259.0</ele><time>2026-04-25T08:49:00Z</time></trkpt><trkpt lat="43.725912691436235" lon="12.51403895202306"><ele>259.0</ele><time>2026-04-25T08:49:01Z</time></trkpt><trkpt lat="43.72583839654554" lon="12.513865293288656"><ele>259.0</ele><time>2026-04-25T08:49:02Z</time></trkpt><trkpt lat="43.72580728400002" lon="12.513670911353111"><ele>259.0</ele><time>2026-04-25T08:49:03Z</time></trkpt><trkpt lat="43.72579066963892" lon="12.513484448169574"><ele>259.0</ele><time>2026-04-25T08:49:04Z</time></trkpt><trkpt lat="43.72579913104012" lon="12.51329563984892"><ele>259.0</ele><time>2026-04-25T08:49:05Z</time></trkpt><trkpt lat="43.72580492868053" lon="12.513127817945048"><ele>259.0</ele><time>2026-04-25T08:49:06Z</time></trkpt><trkpt lat="43.72580931080209" lon="12.513000970482121"><ele>259.0</ele><time>2026-04-25T08:49:07Z</time></trkpt><trkpt lat="43.725580996247544" lon="12.512869839175668"><ele>259.5</ele><time>2026-04-25T08:49:09Z</time></trkpt><trkpt lat="43.72546394154687" lon="12.51283289270613"><ele>260.0</ele><time>2026-04-25T08:49:10Z</time></trkpt><trkpt lat="43.72532913967249" lon="12.51278249488219"><ele>260.5</ele><time>2026-04-25T08:49:11Z</time></trkpt><trkpt lat="43.725231639741445" lon="12.512682869109746"><ele>261.0</ele><time>2026-04-25T08:49:12Z</time></trkpt><trkpt lat="43.72517323607481" lon="12.512540654757"><ele>261.5</ele><time>2026-04-25T08:49:13Z</time></trkpt><trkpt lat="43.72514398228386" lon="12.512393644459934"><ele>262.0</ele><time>2026-04-25T08:49:14Z</time></trkpt><trkpt lat="43.72514092419292" lon="12.512221852953632"><ele>262.5</ele><time>2026-04-25T08:49:15Z</time></trkpt><trkpt lat="43.72514399639075" lon="12.512027426918129"><ele>263.0</ele><time>2026-04-25T08:49:16Z</time></trkpt><trkpt lat="43.72513297114734" lon="12.51180921825462"><ele>263.0</ele><time>2026-04-25T08:49:17Z</time></trkpt><trkpt lat="43.72509293668384" lon="12.511610521538428"><ele>263.0</ele><time>2026-04-25T08:49:18Z</time></trkpt><trkpt lat="43.72503320635246" lon="12.511407596228544"><ele>263.0</ele><time>2026-04-25T08:49:19Z</time></trkpt><trkpt lat="43.7249688769075" lon="12.511200632276763"><ele>262.33333333333337</ele><time>2026-04-25T08:49:20Z</time></trkpt><trkpt lat="43.72490730718272" lon="12.510989743270994"><ele>261.6666666666667</ele><time>2026-04-25T08:49:21Z</time></trkpt><trkpt lat="43.72483735542073" lon="12.510794469633437"><ele>261.0</ele><time>2026-04-25T08:49:22Z</time></trkpt><trkpt lat="43.72478076974131" lon="12.510628563451252"><ele>261.0</ele><time>2026-04-25T08:49:23Z</time></trkpt><trkpt lat="43.724746198595675" lon="12.510500386193728"><ele>261.0</ele><time>2026-04-25T08:49:24Z</time></trkpt><trkpt lat="43.72479761269764" lon="12.510345933533985"><ele>261.0</ele><time>2026-04-25T08:49:26Z</time></trkpt><trkpt lat="43.724833743509016" lon="12.510221668698305"><ele>261.0</ele><time>2026-04-25T08:49:27Z</time></trkpt><trkpt lat="43.724822532386796" lon="12.510133924913694"><ele>261.0</ele><time>2026-04-25T08:49:28Z</time></trkpt><trkpt lat="43.724764964261034" lon="12.51004315803589"><ele>262.25</ele><time>2026-04-25T08:49:29Z</time></trkpt><trkpt lat="43.72468112540476" lon="12.509936583058918"><ele>263.5</ele><time>2026-04-25T08:49:30Z</time></trkpt><trkpt lat="43.724564679109925" lon="12.509814812729585"><ele>264.75</ele><time>2026-04-25T08:49:31Z</time></trkpt><trkpt lat="43.72442933393927" lon="12.50966729565623"><ele>266.0</ele><time>2026-04-25T08:49:32Z</time></trkpt><trkpt lat="43.724315466616915" lon="12.509511565524715"><ele>266.6666666666667</ele><time>2026-04-25T08:49:33Z</time></trkpt><trkpt lat="43.72423191794575" lon="12.509349943560432"><ele>267.3333333333333</ele><time>2026-04-25T08:49:34Z</time></trkpt><trkpt lat="43.72414525955436" lon="12.509170422194135"><ele>268.0</ele><time>2026-04-25T08:49:35Z</time></trkpt><trkpt lat="43.724057044058085" lon="12.50899599538052"><ele>268.0</ele><time>2026-04-25T08:49:36Z</time></trkpt><trkpt lat="43.7239676413285" lon="12.508836838245218"><ele>268.0</ele><time>2026-04-25T08:49:37Z</time></trkpt><trkpt lat="43.72388755214307" lon="12.508684767334413"><ele>268.0</ele><time>2026-04-25T08:49:38Z</time></trkpt><trkpt lat="43.723815868955604" lon="12.5085183891994"><ele>268.0</ele><time>2026-04-25T08:49:39Z</time></trkpt><trkpt lat="43.72376539784368" lon="12.508329258121076"><ele>269.0</ele><time>2026-04-25T08:49:40Z</time></trkpt><trkpt lat="43.72371836633117" lon="12.508128373690665"><ele>270.0</ele><time>2026-04-25T08:49:41Z</time></trkpt><trkpt lat="43.72365676672313" lon="12.507918219229062"><ele>271.0</ele><time>2026-04-25T08:49:42Z</time></trkpt><trkpt lat="43.723595440350266" lon="12.507692491578183"><ele>271.0</ele><time>2026-04-25T08:49:43Z</time></trkpt><trkpt lat="43.72352725680656" lon="12.507491750101313"><ele>271.0</ele><time>2026-04-25T08:49:44Z</time></trkpt><trkpt lat="43.723459307621326" lon="12.507331204880389"><ele>271.0</ele><time>2026-04-25T08:49:45Z</time></trkpt><trkpt lat="43.72337258509643" lon="12.50718532476608"><ele>271.0</ele><time>2026-04-25T08:49:46Z</time></trkpt><trkpt lat="43.72326329594472" lon="12.507044793527085"><ele>271.0</ele><time>2026-04-25T08:49:46.999Z</time></trkpt><trkpt lat="43.72312654655702" lon="12.506892684943317"><ele>271.0</ele><time>2026-04-25T08:49:47.999Z</time></trkpt><trkpt lat="43.7229808274434" lon="12.50672914024631"><ele>271.0</ele><time>2026-04-25T08:49:48.999Z</time></trkpt><trkpt lat="43.722854111379675" lon="12.50657167061164"><ele>271.0</ele><time>2026-04-25T08:49:49.999Z</time></trkpt><trkpt lat="43.72274012324659" lon="12.506398309744387"><ele>271.0</ele><time>2026-04-25T08:49:50.999Z</time></trkpt><trkpt lat="43.72265530975727" lon="12.50623710887986"><ele>271.0</ele><time>2026-04-25T08:49:51.999Z</time></trkpt><trkpt lat="43.7225858351569" lon="12.506085322838196"><ele>271.0</ele><time>2026-04-25T08:49:52.999Z</time></trkpt><trkpt lat="43.72253481410083" lon="12.505933543432892"><ele>271.2</ele><time>2026-04-25T08:49:53.999Z</time></trkpt><trkpt lat="43.72249967906521" lon="12.505780957978441"><ele>271.40000000000003</ele><time>2026-04-25T08:49:54.999Z</time></trkpt><trkpt lat="43.72247171516498" lon="12.50564507348265"><ele>271.6</ele><time>2026-04-25T08:49:55.999Z</time></trkpt><trkpt lat="43.7224411315262" lon="12.50552002969354"><ele>271.8</ele><time>2026-04-25T08:49:56.999Z</time></trkpt><trkpt lat="43.72238317045417" lon="12.505415141921581"><ele>272.0</ele><time>2026-04-25T08:49:57.999Z</time></trkpt><trkpt lat="43.722284344630985" lon="12.505334203432945"><ele>273.75</ele><time>2026-04-25T08:49:58.999Z</time></trkpt><trkpt lat="43.722165143538305" lon="12.50529264276774"><ele>275.5</ele><time>2026-04-25T08:49:59.999Z</time></trkpt><trkpt lat="43.72203842722636" lon="12.505266806322068"><ele>277.25</ele><time>2026-04-25T08:50:00.999Z</time></trkpt><trkpt lat="43.72190185984367" lon="12.50526572726627"><ele>279.0</ele><time>2026-04-25T08:50:01.999Z</time></trkpt><trkpt lat="43.72174771118608" lon="12.505291497293921"><ele>279.0</ele><time>2026-04-25T08:50:02.999Z</time></trkpt><trkpt lat="43.72159955430141" lon="12.505302313821598"><ele>279.0</ele><time>2026-04-25T08:50:03.999Z</time></trkpt><trkpt lat="43.7214787636782" lon="12.50527881532768"><ele>279.0</ele><time>2026-04-25T08:50:04.999Z</time></trkpt><trkpt lat="43.721404085027075" lon="12.505229449788336"><ele>279.0</ele><time>2026-04-25T08:50:05.999Z</time></trkpt><trkpt lat="43.7213455196981" lon="12.50514618056713"><ele>279.0</ele><time>2026-04-25T08:50:06.999Z</time></trkpt><trkpt lat="43.72128122288502" lon="12.505008309730758"><ele>279.0</ele><time>2026-04-25T08:50:07.999Z</time></trkpt><trkpt lat="43.72121287675522" lon="12.504842669708934"><ele>279.0</ele><time>2026-04-25T08:50:08.999Z</time></trkpt><trkpt lat="43.72114101815228" lon="12.504659543476224"><ele>279.0</ele><time>2026-04-25T08:50:09.999Z</time></trkpt><trkpt lat="43.72107155109335" lon="12.504444021248737"><ele>276.6666666666667</ele><time>2026-04-25T08:50:10.999Z</time></trkpt><trkpt lat="43.721018737191955" lon="12.504211097188357"><ele>274.33333333333337</ele><time>2026-04-25T08:50:11.999Z</time></trkpt><trkpt lat="43.72097798952708" lon="12.504004637664138"><ele>272.0</ele><time>2026-04-25T08:50:12.999Z</time></trkpt><trkpt lat="43.72095639893993" lon="12.503810461657173"><ele>273.4</ele><time>2026-04-25T08:50:13.999Z</time></trkpt><trkpt lat="43.720939909219396" lon="12.503642894542947"><ele>274.79999999999995</ele><time>2026-04-25T08:50:14.999Z</time></trkpt><trkpt lat="43.720911545520565" lon="12.503514729683548"><ele>276.2</ele><time>2026-04-25T08:50:15.999Z</time></trkpt><trkpt lat="43.72084493637109" lon="12.503433950257648"><ele>277.59999999999997</ele><time>2026-04-25T08:50:16.999Z</time></trkpt><trkpt lat="43.72073309854879" lon="12.503379013041267"><ele>279.0</ele><time>2026-04-25T08:50:17.999Z</time></trkpt><trkpt lat="43.720600281467476" lon="12.503308932226552"><ele>279.0</ele><time>2026-04-25T08:50:18.999Z</time></trkpt><trkpt lat="43.720444616511436" lon="12.503264739048873"><ele>279.0</ele><time>2026-04-25T08:50:19.999Z</time></trkpt><trkpt lat="43.72031223185087" lon="12.503173392928526"><ele>279.0</ele><time>2026-04-25T08:50:20.999Z</time></trkpt><trkpt lat="43.720207328673425" lon="12.503055108838938"><ele>279.0</ele><time>2026-04-25T08:50:21.999Z</time></trkpt><trkpt lat="43.720095787558066" lon="12.50291332725583"><ele>281.3333333333333</ele><time>2026-04-25T08:50:22.999Z</time></trkpt><trkpt lat="43.719966526055366" lon="12.502788799871523"><ele>283.66666666666663</ele><time>2026-04-25T08:50:23.999Z</time></trkpt><trkpt lat="43.71981162431143" lon="12.502710215535151"><ele>286.0</ele><time>2026-04-25T08:50:24.999Z</time></trkpt><trkpt lat="43.71963007941722" lon="12.502652395013598"><ele>286.0</ele><time>2026-04-25T08:50:25.999Z</time></trkpt><trkpt lat="43.71944061984723" lon="12.502577268766839"><ele>286.0</ele><time>2026-04-25T08:50:26.999Z</time></trkpt><trkpt lat="43.719276152903035" lon="12.502503777545698"><ele>286.0</ele><time>2026-04-25T08:50:27.999Z</time></trkpt><trkpt lat="43.719129030818934" lon="12.502440899782806"><ele>285.0</ele><time>2026-04-25T08:50:28.999Z</time></trkpt><trkpt lat="43.71902397342473" lon="12.50237601156064"><ele>284.0</ele><time>2026-04-25T08:50:29.999Z</time></trkpt><trkpt lat="43.718918901163455" lon="12.50227999729512"><ele>283.0</ele><time>2026-04-25T08:50:30.999Z</time></trkpt><trkpt lat="43.71884235410751" lon="12.502151673723475"><ele>282.0</ele><time>2026-04-25T08:50:31.999Z</time></trkpt><trkpt lat="43.718794505697744" lon="12.502012651088288"><ele>282.0</ele><time>2026-04-25T08:50:32.999Z</time></trkpt><trkpt lat="43.71877616351238" lon="12.501849639352946"><ele>282.0</ele><time>2026-04-25T08:50:33.999Z</time></trkpt><trkpt lat="43.71876243005619" lon="12.50167209853377"><ele>282.0</ele><time>2026-04-25T08:50:34.999Z</time></trkpt><trkpt lat="43.718732977026924" lon="12.501527338352748"><ele>282.0</ele><time>2026-04-25T08:50:35.999Z</time></trkpt><trkpt lat="43.71867566452027" lon="12.501420517668265"><ele>282.0</ele><time>2026-04-25T08:50:36.999Z</time></trkpt><trkpt lat="43.718602055864196" lon="12.501339791954889"><ele>282.0</ele><time>2026-04-25T08:50:37.999Z</time></trkpt><trkpt lat="43.71849699669885" lon="12.501277972774734"><ele>282.0</ele><time>2026-04-25T08:50:38.999Z</time></trkpt><trkpt lat="43.71835281040628" lon="12.50123455466952"><ele>282.0</ele><time>2026-04-25T08:50:39.999Z</time></trkpt><trkpt lat="43.718226694202244" lon="12.501167213331303"><ele>281.75</ele><time>2026-04-25T08:50:40.999Z</time></trkpt><trkpt lat="43.71810875932138" lon="12.501069138490914"><ele>281.5</ele><time>2026-04-25T08:50:41.999Z</time></trkpt><trkpt lat="43.71800564961399" lon="12.50095915056484"><ele>281.25</ele><time>2026-04-25T08:50:42.999Z</time></trkpt><trkpt lat="43.7179134728907" lon="12.500838638320449"><ele>281.0</ele><time>2026-04-25T08:50:43.999Z</time></trkpt><trkpt lat="43.717820246080784" lon="12.50073407484111"><ele>280.75</ele><time>2026-04-25T08:50:45Z</time></trkpt><trkpt lat="43.71771263785197" lon="12.500673160277772"><ele>280.5</ele><time>2026-04-25T08:50:46Z</time></trkpt><trkpt lat="43.717558349483284" lon="12.500644917340013"><ele>280.25</ele><time>2026-04-25T08:50:47Z</time></trkpt><trkpt lat="43.71740487724051" lon="12.50060416775234"><ele>280.0</ele><time>2026-04-25T08:50:48Z</time></trkpt><trkpt lat="43.717257713011364" lon="12.500512667004392"><ele>282.66666666666663</ele><time>2026-04-25T08:50:49Z</time></trkpt><trkpt lat="43.71712225819157" lon="12.500395707846394"><ele>285.3333333333333</ele><time>2026-04-25T08:50:50Z</time></trkpt><trkpt lat="43.716994962391325" lon="12.500258668430183"><ele>288.0</ele><time>2026-04-25T08:50:51Z</time></trkpt><trkpt lat="43.71686832215689" lon="12.500113193818498"><ele>288.0</ele><time>2026-04-25T08:50:52Z</time></trkpt><trkpt lat="43.7167487328125" lon="12.49996067568721"><ele>288.0</ele><time>2026-04-25T08:50:53Z</time></trkpt><trkpt lat="43.7166413725334" lon="12.499810463166837"><ele>288.0</ele><time>2026-04-25T08:50:54Z</time></trkpt><trkpt lat="43.716534652237115" lon="12.499691905573853"><ele>288.0</ele><time>2026-04-25T08:50:55Z</time></trkpt><trkpt lat="43.716404818777384" lon="12.499614408392091"><ele>288.0</ele><time>2026-04-25T08:50:56Z</time></trkpt><trkpt lat="43.71625235888915" lon="12.499570910454127"><ele>288.0</ele><time>2026-04-25T08:50:57Z</time></trkpt><trkpt lat="43.71610037015836" lon="12.499550295954197"><ele>287.0</ele><time>2026-04-25T08:50:58Z</time></trkpt><trkpt lat="43.71596222819779" lon="12.49955891143208"><ele>286.0</ele><time>2026-04-25T08:50:59Z</time></trkpt><trkpt lat="43.715859140077015" lon="12.499601637742733"><ele>285.0</ele><time>2026-04-25T08:51:00Z</time></trkpt><trkpt lat="43.715768899436064" lon="12.499609551435453"><ele>284.0</ele><time>2026-04-25T08:51:01Z</time></trkpt><trkpt lat="43.71566842126467" lon="12.499571086278735"><ele>283.0</ele><time>2026-04-25T08:51:02Z</time></trkpt><trkpt lat="43.71555963647322" lon="12.499484448905248"><ele>284.3333333333333</ele><time>2026-04-25T08:51:03Z</time></trkpt><trkpt lat="43.715444664400714" lon="12.499359554855973"><ele>285.6666666666667</ele><time>2026-04-25T08:51:04Z</time></trkpt><trkpt lat="43.71532528560148" lon="12.499215284219048"><ele>287.0</ele><time>2026-04-25T08:51:05Z</time></trkpt><trkpt lat="43.7152069816754" lon="12.499049865353523"><ele>287.0</ele><time>2026-04-25T08:51:06Z</time></trkpt><trkpt lat="43.71509649628377" lon="12.498889258446168"><ele>287.0</ele><time>2026-04-25T08:51:07Z</time></trkpt><trkpt lat="43.71498025015927" lon="12.498732220485843"><ele>287.0</ele><time>2026-04-25T08:51:08Z</time></trkpt><trkpt lat="43.71487775950635" lon="12.498617750943525"><ele>289.0</ele><time>2026-04-25T08:51:09Z</time></trkpt><trkpt lat="43.71479649024364" lon="12.498521270259424"><ele>291.0</ele><time>2026-04-25T08:51:10Z</time></trkpt><trkpt lat="43.714729858618746" lon="12.498385326565822"><ele>293.0</ele><time>2026-04-25T08:51:11Z</time></trkpt><trkpt lat="43.71466465020645" lon="12.498216148261044"><ele>295.0</ele><time>2026-04-25T08:51:12Z</time></trkpt><trkpt lat="43.71459432934712" lon="12.498084864743442"><ele>295.0</ele><time>2026-04-25T08:51:13Z</time></trkpt><trkpt lat="43.71451126861734" lon="12.497963993080782"><ele>295.0</ele><time>2026-04-25T08:51:14Z</time></trkpt><trkpt lat="43.71442895989979" lon="12.497856393676962"><ele>295.0</ele><time>2026-04-25T08:51:15Z</time></trkpt><trkpt lat="43.71437895365572" lon="12.497764854352662"><ele>295.0</ele><time>2026-04-25T08:51:16Z</time></trkpt><trkpt lat="43.71432384957335" lon="12.49764631341749"><ele>295.0</ele><time>2026-04-25T08:51:17Z</time></trkpt><trkpt lat="43.714248303467265" lon="12.497543380021432"><ele>292.75</ele><time>2026-04-25T08:51:18Z</time></trkpt><trkpt lat="43.7141525575953" lon="12.497455124664425"><ele>290.5</ele><time>2026-04-25T08:51:19Z</time></trkpt><trkpt lat="43.714067254020364" lon="12.49734889125647"><ele>288.25</ele><time>2026-04-25T08:51:20Z</time></trkpt><trkpt lat="43.71400296477397" lon="12.497218328309492"><ele>286.0</ele><time>2026-04-25T08:51:21Z</time></trkpt><trkpt lat="43.71393016790821" lon="12.497091994885393"><ele>286.75</ele><time>2026-04-25T08:51:22Z</time></trkpt><trkpt lat="43.71384535205554" lon="12.496977181180641"><ele>287.5</ele><time>2026-04-25T08:51:23Z</time></trkpt><trkpt lat="43.71375704257564" lon="12.49686778460298"><ele>288.25</ele><time>2026-04-25T08:51:24Z</time></trkpt><trkpt lat="43.71366770606599" lon="12.496764927783998"><ele>289.0</ele><time>2026-04-25T08:51:25Z</time></trkpt><trkpt lat="43.71358091720481" lon="12.496677724046448"><ele>288.75</ele><time>2026-04-25T08:51:26Z</time></trkpt><trkpt lat="43.71347898368914" lon="12.496625122788222"><ele>288.5</ele><time>2026-04-25T08:51:27Z</time></trkpt><trkpt lat="43.71334919451245" lon="12.496606226968227"><ele>288.25</ele><time>2026-04-25T08:51:28Z</time></trkpt><trkpt lat="43.713187227431746" lon="12.496607795447611"><ele>288.0</ele><time>2026-04-25T08:51:29Z</time></trkpt><trkpt lat="43.71301992698641" lon="12.496597721380201"><ele>288.0</ele><time>2026-04-25T08:51:30Z</time></trkpt><trkpt lat="43.71286062267748" lon="12.496556713477526"><ele>288.0</ele><time>2026-04-25T08:51:31Z</time></trkpt><trkpt lat="43.71271784686506" lon="12.49649094694287"><ele>288.0</ele><time>2026-04-25T08:51:32Z</time></trkpt><trkpt lat="43.71260310073934" lon="12.496407378558787"><ele>288.0</ele><time>2026-04-25T08:51:33Z</time></trkpt><trkpt lat="43.71249459129155" lon="12.496324139599652"><ele>288.4</ele><time>2026-04-25T08:51:34Z</time></trkpt><trkpt lat="43.71238852358537" lon="12.496271091217963"><ele>288.8</ele><time>2026-04-25T08:51:35Z</time></trkpt><trkpt lat="43.712286858148154" lon="12.496270668630533"><ele>289.2</ele><time>2026-04-25T08:51:36Z</time></trkpt><trkpt lat="43.71218878538626" lon="12.49632052705153"><ele>289.6</ele><time>2026-04-25T08:51:37Z</time></trkpt><trkpt lat="43.7120755717609" lon="12.496406706641938"><ele>290.0</ele><time>2026-04-25T08:51:38Z</time></trkpt><trkpt lat="43.71196335089905" lon="12.496480042733614"><ele>291.25</ele><time>2026-04-25T08:51:39Z</time></trkpt><trkpt lat="43.7118621182741" lon="12.496507020857315"><ele>292.5</ele><time>2026-04-25T08:51:40Z</time></trkpt><trkpt lat="43.711730518900154" lon="12.49649105145948"><ele>293.75</ele><time>2026-04-25T08:51:41Z</time></trkpt><trkpt lat="43.71160539690355" lon="12.49642025306065"><ele>295.0</ele><time>2026-04-25T08:51:42Z</time></trkpt><trkpt lat="43.71150330372769" lon="12.49632933348397"><ele>294.5</ele><time>2026-04-25T08:51:43Z</time></trkpt><trkpt lat="43.71141612684571" lon="12.496204918213074"><ele>294.0</ele><time>2026-04-25T08:51:44Z</time></trkpt><trkpt lat="43.71134846094243" lon="12.496056229435707"><ele>293.5</ele><time>2026-04-25T08:51:45Z</time></trkpt><trkpt lat="43.71127751411356" lon="12.495888127254842"><ele>293.0</ele><time>2026-04-25T08:51:46Z</time></trkpt><trkpt lat="43.711208027188285" lon="12.49570819632835"><ele>293.0</ele><time>2026-04-25T08:51:47Z</time></trkpt><trkpt lat="43.71113726461025" lon="12.49552301846661"><ele>293.0</ele><time>2026-04-25T08:51:48Z</time></trkpt><trkpt lat="43.71104369589315" lon="12.495364658382082"><ele>293.0</ele><time>2026-04-25T08:51:49Z</time></trkpt><trkpt lat="43.71093260168416" lon="12.495223900809782"><ele>293.0</ele><time>2026-04-25T08:51:50Z</time></trkpt><trkpt lat="43.71080996358974" lon="12.495073344619646"><ele>293.0</ele><time>2026-04-25T08:51:51Z</time></trkpt><trkpt lat="43.71068911172426" lon="12.494900534177313"><ele>293.0</ele><time>2026-04-25T08:51:52Z</time></trkpt><trkpt lat="43.71058440351046" lon="12.494741515368517"><ele>294.0</ele><time>2026-04-25T08:51:53Z</time></trkpt><trkpt lat="43.71048219368614" lon="12.494584088450868"><ele>295.0</ele><time>2026-04-25T08:51:54Z</time></trkpt><trkpt lat="43.71038475460473" lon="12.494416797457342"><ele>296.0</ele><time>2026-04-25T08:51:55Z</time></trkpt><trkpt lat="43.71030603698389" lon="12.494241595077998"><ele>295.75</ele><time>2026-04-25T08:51:56Z</time></trkpt><trkpt lat="43.71023309187664" lon="12.494067741168644"><ele>295.5</ele><time>2026-04-25T08:51:57Z</time></trkpt><trkpt lat="43.71014833676066" lon="12.493907852572503"><ele>295.25</ele><time>2026-04-25T08:51:58Z</time></trkpt><trkpt lat="43.71004784363237" lon="12.493759597779826"><ele>295.0</ele><time>2026-04-25T08:51:58.999Z</time></trkpt><trkpt lat="43.709941470783846" lon="12.493658110580823"><ele>294.6</ele><time>2026-04-25T08:51:59.999Z</time></trkpt><trkpt lat="43.7098352258334" lon="12.493599169397498"><ele>294.2</ele><time>2026-04-25T08:52:00.999Z</time></trkpt><trkpt lat="43.709717998234034" lon="12.49357396786337"><ele>293.8</ele><time>2026-04-25T08:52:01.999Z</time></trkpt><trkpt lat="43.70962164580865" lon="12.493571639641637"><ele>293.4</ele><time>2026-04-25T08:52:02.999Z</time></trkpt><trkpt lat="43.709533945432824" lon="12.49353162327234"><ele>293.0</ele><time>2026-04-25T08:52:03.999Z</time></trkpt><trkpt lat="43.70944968481158" lon="12.49345790871281"><ele>293.1666666666667</ele><time>2026-04-25T08:52:04.999Z</time></trkpt><trkpt lat="43.70938691669335" lon="12.493355240354601"><ele>293.33333333333337</ele><time>2026-04-25T08:52:05.999Z</time></trkpt><trkpt lat="43.70932824036432" lon="12.493248960230963"><ele>293.5</ele><time>2026-04-25T08:52:06.999Z</time></trkpt><trkpt lat="43.70927992388265" lon="12.493162056816647"><ele>293.6666666666667</ele><time>2026-04-25T08:52:07.999Z</time></trkpt><trkpt lat="43.70924033085981" lon="12.493088778439075"><ele>293.8333333333333</ele><time>2026-04-25T08:52:08.999Z</time></trkpt><trkpt lat="43.7091714687602" lon="12.492972655979807"><ele>294.0</ele><time>2026-04-25T08:52:10.999Z</time></trkpt><trkpt lat="43.7091474536359" lon="12.492875265904567"><ele>294.0</ele><time>2026-04-25T08:52:13.999Z</time></trkpt><trkpt lat="43.70902378050135" lon="12.492889084794573"><ele>294.0</ele><time>2026-04-25T08:53:07Z</time></trkpt><trkpt lat="43.708940126314445" lon="12.492923571071142"><ele>294.0</ele><time>2026-04-25T08:53:08Z</time></trkpt><trkpt lat="43.708832102803115" lon="12.492949518335022"><ele>294.0</ele><time>2026-04-25T08:53:09Z</time></trkpt><trkpt lat="43.708708448287126" lon="12.492989250094805"><ele>294.0</ele><time>2026-04-25T08:53:10Z</time></trkpt><trkpt lat="43.70857324175989" lon="12.493041507379644"><ele>296.6666666666667</ele><time>2026-04-25T08:53:11Z</time></trkpt><trkpt lat="43.70842387450263" lon="12.493097853521771"><ele>299.33333333333337</ele><time>2026-04-25T08:53:12Z</time></trkpt><trkpt lat="43.70823771389978" lon="12.493171705328042"><ele>302.0</ele><time>2026-04-25T08:53:13Z</time></trkpt><trkpt lat="43.70802423466017" lon="12.493263360024873"><ele>302.0</ele><time>2026-04-25T08:53:14Z</time></trkpt><trkpt lat="43.70780957139264" lon="12.493362652962293"><ele>302.0</ele><time>2026-04-25T08:53:15Z</time></trkpt><trkpt lat="43.70761261211522" lon="12.493471410757168"><ele>302.0</ele><time>2026-04-25T08:53:16Z</time></trkpt><trkpt lat="43.707451280053014" lon="12.493586222509464"><ele>303.33333333333337</ele><time>2026-04-25T08:53:17Z</time></trkpt><trkpt lat="43.707308448402564" lon="12.493727770489638"><ele>304.6666666666667</ele><time>2026-04-25T08:53:18Z</time></trkpt><trkpt lat="43.70717075488104" lon="12.493904978215333"><ele>306.0</ele><time>2026-04-25T08:53:19Z</time></trkpt><trkpt lat="43.70703954858903" lon="12.494084229807573"><ele>306.0</ele><time>2026-04-25T08:53:20Z</time></trkpt><trkpt lat="43.70693232629899" lon="12.494251626304106"><ele>306.0</ele><time>2026-04-25T08:53:21Z</time></trkpt><trkpt lat="43.70683745492671" lon="12.494385427874668"><ele>306.0</ele><time>2026-04-25T08:53:22Z</time></trkpt><trkpt lat="43.70674746574372" lon="12.494489878562225"><ele>306.0</ele><time>2026-04-25T08:53:23Z</time></trkpt><trkpt lat="43.706642795851664" lon="12.494567754720686"><ele>307.8</ele><time>2026-04-25T08:53:24Z</time></trkpt><trkpt lat="43.70653155781988" lon="12.494604136453283"><ele>309.6</ele><time>2026-04-25T08:53:25Z</time></trkpt><trkpt lat="43.70642816594936" lon="12.494577661426224"><ele>311.4</ele><time>2026-04-25T08:53:26Z</time></trkpt><trkpt lat="43.70634148026196" lon="12.494497030914633"><ele>313.2</ele><time>2026-04-25T08:53:27Z</time></trkpt><trkpt lat="43.70629236089183" lon="12.494356820174414"><ele>315.0</ele><time>2026-04-25T08:53:28Z</time></trkpt><trkpt lat="43.70627683684306" lon="12.49419505499637"><ele>316.25</ele><time>2026-04-25T08:53:29Z</time></trkpt><trkpt lat="43.70628331902889" lon="12.494006521196933"><ele>317.5</ele><time>2026-04-25T08:53:30Z</time></trkpt><trkpt lat="43.70630521751448" lon="12.493804757526307"><ele>318.75</ele><time>2026-04-25T08:53:31Z</time></trkpt><trkpt lat="43.70631095250903" lon="12.49360262424845"><ele>320.0</ele><time>2026-04-25T08:53:32Z</time></trkpt><trkpt lat="43.706268734074065" lon="12.493424002889107"><ele>320.5</ele><time>2026-04-25T08:53:33Z</time></trkpt><trkpt lat="43.7061823012517" lon="12.49330516983954"><ele>321.0</ele><time>2026-04-25T08:53:34Z</time></trkpt><trkpt lat="43.70607214784819" lon="12.493250572053434"><ele>321.5</ele><time>2026-04-25T08:53:35Z</time></trkpt><trkpt lat="43.70596026829883" lon="12.493273045008172"><ele>322.0</ele><time>2026-04-25T08:53:36Z</time></trkpt><trkpt lat="43.70583303273598" lon="12.493351491395828"><ele>324.3333333333333</ele><time>2026-04-25T08:53:37Z</time></trkpt><trkpt lat="43.70571184293031" lon="12.493484201010414"><ele>326.6666666666667</ele><time>2026-04-25T08:53:38Z</time></trkpt><trkpt lat="43.70560080692054" lon="12.493651658686783"><ele>329.0</ele><time>2026-04-25T08:53:39Z</time></trkpt><trkpt lat="43.70548503743562" lon="12.493835796246074"><ele>329.0</ele><time>2026-04-25T08:53:40Z</time></trkpt><trkpt lat="43.705360769516176" lon="12.494017865714124"><ele>329.0</ele><time>2026-04-25T08:53:41Z</time></trkpt><trkpt lat="43.705242251245586" lon="12.494203055902323"><ele>329.0</ele><time>2026-04-25T08:53:42Z</time></trkpt><trkpt lat="43.70512530039054" lon="12.49441103517978"><ele>331.6666666666667</ele><time>2026-04-25T08:53:43Z</time></trkpt><trkpt lat="43.70499843934308" lon="12.494633539185422"><ele>334.3333333333333</ele><time>2026-04-25T08:53:44Z</time></trkpt><trkpt lat="43.70488885645334" lon="12.49483122830072"><ele>337.0</ele><time>2026-04-25T08:53:45Z</time></trkpt><trkpt lat="43.70477207477222" lon="12.494989767664965"><ele>337.0</ele><time>2026-04-25T08:53:46Z</time></trkpt><trkpt lat="43.70466088565241" lon="12.495095346900028"><ele>337.0</ele><time>2026-04-25T08:53:47Z</time></trkpt><trkpt lat="43.704548167872915" lon="12.495147826556494"><ele>337.0</ele><time>2026-04-25T08:53:48Z</time></trkpt><trkpt lat="43.704413729210195" lon="12.495151589983326"><ele>337.0</ele><time>2026-04-25T08:53:49Z</time></trkpt><trkpt lat="43.704306228829445" lon="12.495114769257587"><ele>339.75</ele><time>2026-04-25T08:53:50Z</time></trkpt><trkpt lat="43.704227329358915" lon="12.495022665397213"><ele>342.5</ele><time>2026-04-25T08:53:51Z</time></trkpt><trkpt lat="43.70416468182222" lon="12.494874938193654"><ele>345.25</ele><time>2026-04-25T08:53:52Z</time></trkpt><trkpt lat="43.704127884494014" lon="12.494724627294739"><ele>348.0</ele><time>2026-04-25T08:53:53Z</time></trkpt><trkpt lat="43.70414761378228" lon="12.494565955259956"><ele>346.75</ele><time>2026-04-25T08:53:54Z</time></trkpt><trkpt lat="43.70421702150801" lon="12.494410301735657"><ele>345.5</ele><time>2026-04-25T08:53:55Z</time></trkpt><trkpt lat="43.704312524037775" lon="12.49426748535696"><ele>344.25</ele><time>2026-04-25T08:53:56Z</time></trkpt><trkpt lat="43.70443106926865" lon="12.494119447330196"><ele>343.0</ele><time>2026-04-25T08:53:57Z</time></trkpt><trkpt lat="43.70454849178285" lon="12.493942466054898"><ele>345.66666666666663</ele><time>2026-04-25T08:53:58Z</time></trkpt><trkpt lat="43.70464759016354" lon="12.493739340023485"><ele>348.3333333333333</ele><time>2026-04-25T08:53:59Z</time></trkpt><trkpt lat="43.70471498294209" lon="12.493560058941314"><ele>351.0</ele><time>2026-04-25T08:54:00Z</time></trkpt><trkpt lat="43.70474772848963" lon="12.49335644350446"><ele>351.0</ele><time>2026-04-25T08:54:01Z</time></trkpt><trkpt lat="43.7047769033926" lon="12.493118265914037"><ele>351.0</ele><time>2026-04-25T08:54:02Z</time></trkpt><trkpt lat="43.70482801452044" lon="12.492880246298368"><ele>351.0</ele><time>2026-04-25T08:54:03Z</time></trkpt><trkpt lat="43.70488045812805" lon="12.492661911825307"><ele>354.25</ele><time>2026-04-25T08:54:04Z</time></trkpt><trkpt lat="43.70493882623996" lon="12.49248184861044"><ele>357.5</ele><time>2026-04-25T08:54:05Z</time></trkpt><trkpt lat="43.70500047860982" lon="12.49232966527598"><ele>360.75</ele><time>2026-04-25T08:54:06Z</time></trkpt><trkpt lat="43.7050455590286" lon="12.492196043655301"><ele>364.0</ele><time>2026-04-25T08:54:07Z</time></trkpt><trkpt lat="43.70506006092561" lon="12.492047741536181"><ele>364.75</ele><time>2026-04-25T08:54:08Z</time></trkpt><trkpt lat="43.705042190492385" lon="12.49188699283351"><ele>365.5</ele><time>2026-04-25T08:54:09Z</time></trkpt><trkpt lat="43.70498678394524" lon="12.491731493444977"><ele>366.25</ele><time>2026-04-25T08:54:10Z</time></trkpt><trkpt lat="43.704926525362595" lon="12.491583862293393"><ele>367.0</ele><time>2026-04-25T08:54:11Z</time></trkpt><trkpt lat="43.70484870611875" lon="12.491460820507754"><ele>367.0</ele><time>2026-04-25T08:54:12Z</time></trkpt><trkpt lat="43.70477219393401" lon="12.4913867562782"><ele>367.0</ele><time>2026-04-25T08:54:13Z</time></trkpt><trkpt lat="43.70469019614255" lon="12.49136059261041"><ele>367.0</ele><time>2026-04-25T08:54:14Z</time></trkpt><trkpt lat="43.704590389058424" lon="12.49136761385687"><ele>367.0</ele><time>2026-04-25T08:54:15Z</time></trkpt><trkpt lat="43.70449442569005" lon="12.49141525168555"><ele>367.0</ele><time>2026-04-25T08:54:16Z</time></trkpt><trkpt lat="43.704396837158484" lon="12.491486840733334"><ele>369.25</ele><time>2026-04-25T08:54:17Z</time></trkpt><trkpt lat="43.70429359212775" lon="12.491580394439204"><ele>371.5</ele><time>2026-04-25T08:54:18Z</time></trkpt><trkpt lat="43.704180212636075" lon="12.491685307718917"><ele>373.75</ele><time>2026-04-25T08:54:19Z</time></trkpt><trkpt lat="43.70405996316344" lon="12.49179267324835"><ele>376.0</ele><time>2026-04-25T08:54:20Z</time></trkpt><trkpt lat="43.703934114561264" lon="12.491891033332859"><ele>376.0</ele><time>2026-04-25T08:54:21Z</time></trkpt><trkpt lat="43.70380435644801" lon="12.49198921193161"><ele>376.0</ele><time>2026-04-25T08:54:22Z</time></trkpt><trkpt lat="43.7036758068594" lon="12.492092121109787"><ele>376.0</ele><time>2026-04-25T08:54:23Z</time></trkpt><trkpt lat="43.703546623298564" lon="12.492197309672154"><ele>376.0</ele><time>2026-04-25T08:54:24Z</time></trkpt><trkpt lat="43.70341542281821" lon="12.492303115531591"><ele>377.5</ele><time>2026-04-25T08:54:25Z</time></trkpt><trkpt lat="43.703283995041495" lon="12.492402289169487"><ele>379.0</ele><time>2026-04-25T08:54:26Z</time></trkpt><trkpt lat="43.70315101401165" lon="12.4924932670172"><ele>380.5</ele><time>2026-04-25T08:54:27Z</time></trkpt><trkpt lat="43.703016279264105" lon="12.49255772224747"><ele>382.0</ele><time>2026-04-25T08:54:28Z</time></trkpt><trkpt lat="43.702873087241244" lon="12.492590830602383"><ele>384.0</ele><time>2026-04-25T08:54:29Z</time></trkpt><trkpt lat="43.70273260948711" lon="12.492600908237538"><ele>386.0</ele><time>2026-04-25T08:54:30Z</time></trkpt><trkpt lat="43.70258793465398" lon="12.492592815260553"><ele>388.0</ele><time>2026-04-25T08:54:31Z</time></trkpt><trkpt lat="43.70244467639647" lon="12.492586132790775"><ele>390.0</ele><time>2026-04-25T08:54:32Z</time></trkpt><trkpt lat="43.70230249981894" lon="12.492590473868187"><ele>390.0</ele><time>2026-04-25T08:54:33Z</time></trkpt><trkpt lat="43.70215844276897" lon="12.492593720727319"><ele>390.0</ele><time>2026-04-25T08:54:34Z</time></trkpt><trkpt lat="43.70201665956791" lon="12.49259974442768"><ele>390.0</ele><time>2026-04-25T08:54:35Z</time></trkpt><trkpt lat="43.70187596431802" lon="12.492591691544389"><ele>390.0</ele><time>2026-04-25T08:54:36Z</time></trkpt><trkpt lat="43.70174004434566" lon="12.492563566828354"><ele>392.0</ele><time>2026-04-25T08:54:37Z</time></trkpt><trkpt lat="43.701611189478896" lon="12.492493169515924"><ele>394.0</ele><time>2026-04-25T08:54:38Z</time></trkpt><trkpt lat="43.70150192338731" lon="12.492382572892183"><ele>396.0</ele><time>2026-04-25T08:54:39Z</time></trkpt><trkpt lat="43.70140779788866" lon="12.492244693422911"><ele>398.0</ele><time>2026-04-25T08:54:40Z</time></trkpt><trkpt lat="43.70132678556791" lon="12.492087768238704"><ele>399.5</ele><time>2026-04-25T08:54:41Z</time></trkpt><trkpt lat="43.7012523290515" lon="12.491924588054532"><ele>401.0</ele><time>2026-04-25T08:54:42Z</time></trkpt><trkpt lat="43.70118202297897" lon="12.491752483256843"><ele>402.5</ele><time>2026-04-25T08:54:43Z</time></trkpt><trkpt lat="43.70109890767151" lon="12.491603747568705"><ele>404.0</ele><time>2026-04-25T08:54:43.999Z</time></trkpt><trkpt lat="43.7010100400153" lon="12.491501055931993"><ele>405.79999999999995</ele><time>2026-04-25T08:54:44.999Z</time></trkpt><trkpt lat="43.70092995293046" lon="12.491435982193027"><ele>407.59999999999997</ele><time>2026-04-25T08:54:45.999Z</time></trkpt><trkpt lat="43.70085359671469" lon="12.491417067563878"><ele>409.4</ele><time>2026-04-25T08:54:46.999Z</time></trkpt><trkpt lat="43.70075504366512" lon="12.491452340376183"><ele>411.2</ele><time>2026-04-25T08:54:47.999Z</time></trkpt><trkpt lat="43.70064843683819" lon="12.491517180005372"><ele>413.0</ele><time>2026-04-25T08:54:48.999Z</time></trkpt><trkpt lat="43.700542553537026" lon="12.491630201670139"><ele>413.0</ele><time>2026-04-25T08:54:49.999Z</time></trkpt><trkpt lat="43.70044856530114" lon="12.491752869731158"><ele>413.0</ele><time>2026-04-25T08:54:50.999Z</time></trkpt><trkpt lat="43.700357482340976" lon="12.491898570151328"><ele>413.0</ele><time>2026-04-25T08:54:51.999Z</time></trkpt><trkpt lat="43.700279843953375" lon="12.492067509283851"><ele>413.0</ele><time>2026-04-25T08:54:52.999Z</time></trkpt><trkpt lat="43.700212587378445" lon="12.492251624591415"><ele>413.5</ele><time>2026-04-25T08:54:53.999Z</time></trkpt><trkpt lat="43.700149358116676" lon="12.492436373281333"><ele>414.0</ele><time>2026-04-25T08:54:54.999Z</time></trkpt><trkpt lat="43.70008320902866" lon="12.492621159788998"><ele>414.5</ele><time>2026-04-25T08:54:55.999Z</time></trkpt><trkpt lat="43.70001862481636" lon="12.492800214753286"><ele>415.0</ele><time>2026-04-25T08:54:57Z</time></trkpt><trkpt lat="43.69995162662044" lon="12.492982678587799"><ele>415.0</ele><time>2026-04-25T08:54:58Z</time></trkpt><trkpt lat="43.69988306041959" lon="12.493166577725528"><ele>415.0</ele><time>2026-04-25T08:54:59Z</time></trkpt><trkpt lat="43.69981150445603" lon="12.493345746567206"><ele>415.0</ele><time>2026-04-25T08:55:00Z</time></trkpt><trkpt lat="43.69973500466002" lon="12.493523304575287"><ele>415.0</ele><time>2026-04-25T08:55:01Z</time></trkpt><trkpt lat="43.69965275812821" lon="12.493694739985372"><ele>413.75</ele><time>2026-04-25T08:55:02Z</time></trkpt><trkpt lat="43.69956705506583" lon="12.493859716904478"><ele>412.5</ele><time>2026-04-25T08:55:03Z</time></trkpt><trkpt lat="43.699477034847106" lon="12.494020033194051"><ele>411.25</ele><time>2026-04-25T08:55:04Z</time></trkpt><trkpt lat="43.69938692619743" lon="12.494177857065388"><ele>410.0</ele><time>2026-04-25T08:55:05Z</time></trkpt><trkpt lat="43.69929772286976" lon="12.494333949819762"><ele>413.75</ele><time>2026-04-25T08:55:06Z</time></trkpt><trkpt lat="43.699210844127826" lon="12.49449223115125"><ele>417.5</ele><time>2026-04-25T08:55:07Z</time></trkpt><trkpt lat="43.69912633414953" lon="12.494659912369599"><ele>421.25</ele><time>2026-04-25T08:55:08Z</time></trkpt><trkpt lat="43.699055034079684" lon="12.49484216197396"><ele>425.0</ele><time>2026-04-25T08:55:09Z</time></trkpt><trkpt lat="43.69899897616735" lon="12.4950334454184"><ele>425.0</ele><time>2026-04-25T08:55:10Z</time></trkpt><trkpt lat="43.69895405026238" lon="12.495232123725723"><ele>425.0</ele><time>2026-04-25T08:55:11Z</time></trkpt><trkpt lat="43.69891007605349" lon="12.495431511111144"><ele>425.0</ele><time>2026-04-25T08:55:12Z</time></trkpt><trkpt lat="43.698868447431146" lon="12.495634667030966"><ele>423.66666666666663</ele><time>2026-04-25T08:55:13Z</time></trkpt><trkpt lat="43.698826748276566" lon="12.495836849430276"><ele>422.33333333333337</ele><time>2026-04-25T08:55:14Z</time></trkpt><trkpt lat="43.69878882367551" lon="12.496040101541986"><ele>421.0</ele><time>2026-04-25T08:55:15Z</time></trkpt><trkpt lat="43.69874989669449" lon="12.496241815606279"><ele>420.75</ele><time>2026-04-25T08:55:16Z</time></trkpt><trkpt lat="43.6987069795534" lon="12.496439319704642"><ele>420.5</ele><time>2026-04-25T08:55:17Z</time></trkpt><trkpt lat="43.69864691532381" lon="12.496628696752541"><ele>420.25</ele><time>2026-04-25T08:55:18Z</time></trkpt><trkpt lat="43.69857620286373" lon="12.496808567058071"><ele>420.0</ele><time>2026-04-25T08:55:19Z</time></trkpt><trkpt lat="43.69849354409402" lon="12.496978122591852"><ele>424.0</ele><time>2026-04-25T08:55:20Z</time></trkpt><trkpt lat="43.69840416884601" lon="12.497141019506698"><ele>428.0</ele><time>2026-04-25T08:55:21Z</time></trkpt><trkpt lat="43.69831719926498" lon="12.497306728789772"><ele>432.0</ele><time>2026-04-25T08:55:22Z</time></trkpt><trkpt lat="43.69824047447603" lon="12.4974686143854"><ele>436.0</ele><time>2026-04-25T08:55:23Z</time></trkpt><trkpt lat="43.698155648403706" lon="12.497626686363322"><ele>436.0</ele><time>2026-04-25T08:55:24Z</time></trkpt><trkpt lat="43.69805020185104" lon="12.497765947092716"><ele>436.0</ele><time>2026-04-25T08:55:25Z</time></trkpt><trkpt lat="43.697927643971504" lon="12.497882821223488"><ele>436.0</ele><time>2026-04-25T08:55:26Z</time></trkpt><trkpt lat="43.69779736106833" lon="12.497978594460978"><ele>436.0</ele><time>2026-04-25T08:55:27Z</time></trkpt><trkpt lat="43.69765604048986" lon="12.49806102193394"><ele>438.6666666666667</ele><time>2026-04-25T08:55:28Z</time></trkpt><trkpt lat="43.697513199307785" lon="12.498140981970485"><ele>441.33333333333337</ele><time>2026-04-25T08:55:29Z</time></trkpt><trkpt lat="43.69737108355059" lon="12.498220245003754"><ele>444.0</ele><time>2026-04-25T08:55:30Z</time></trkpt><trkpt lat="43.69723122902713" lon="12.498298748275031"><ele>444.0</ele><time>2026-04-25T08:55:31Z</time></trkpt><trkpt lat="43.697095714647794" lon="12.498381262153389"><ele>444.0</ele><time>2026-04-25T08:55:32Z</time></trkpt><trkpt lat="43.696977067744825" lon="12.49847679549926"><ele>444.0</ele><time>2026-04-25T08:55:33Z</time></trkpt><trkpt lat="43.696879860043516" lon="12.498593987973154"><ele>444.0</ele><time>2026-04-25T08:55:34Z</time></trkpt><trkpt lat="43.696805199318604" lon="12.498738455599778"><ele>447.5</ele><time>2026-04-25T08:55:35Z</time></trkpt><trkpt lat="43.69675277610542" lon="12.498904083169265"><ele>451.0</ele><time>2026-04-25T08:55:36Z</time></trkpt><trkpt lat="43.69668824692602" lon="12.49905573432179"><ele>454.5</ele><time>2026-04-25T08:55:37Z</time></trkpt><trkpt lat="43.696654614959414" lon="12.499203666096188"><ele>458.0</ele><time>2026-04-25T08:55:38Z</time></trkpt><trkpt lat="43.69658064726784" lon="12.499283105752514"><ele>458.0</ele><time>2026-04-25T08:55:39Z</time></trkpt><trkpt lat="43.69649095157456" lon="12.49931504771373"><ele>457.99999999999994</ele><time>2026-04-25T08:55:40Z</time></trkpt><trkpt lat="43.69639702607859" lon="12.499292233606882"><ele>457.99999999999994</ele><time>2026-04-25T08:55:41Z</time></trkpt><trkpt lat="43.69631723463306" lon="12.499239230758176"><ele>458.0</ele><time>2026-04-25T08:55:42Z</time></trkpt><trkpt lat="43.696245489177706" lon="12.499166039394211"><ele>458.0</ele><time>2026-04-25T08:55:44Z</time></trkpt><trkpt lat="43.69613499819721" lon="12.499357142772954"><ele>458.0</ele><time>2026-04-25T08:55:46Z</time></trkpt><trkpt lat="43.69609319739657" lon="12.499465616615595"><ele>457.99999999999994</ele><time>2026-04-25T08:55:47Z</time></trkpt><trkpt lat="43.69603973193433" lon="12.499592012339722"><ele>457.99999999999994</ele><time>2026-04-25T08:55:48Z</time></trkpt><trkpt lat="43.69598232057628" lon="12.499725375109152"><ele>458.0</ele><time>2026-04-25T08:55:49Z</time></trkpt><trkpt lat="43.6959274268292" lon="12.499874017340423"><ele>458.0</ele><time>2026-04-25T08:55:50Z</time></trkpt><trkpt lat="43.69589166391537" lon="12.500041530489556"><ele>458.25</ele><time>2026-04-25T08:55:51Z</time></trkpt><trkpt lat="43.69586353309305" lon="12.500231197631166"><ele>458.5</ele><time>2026-04-25T08:55:52Z</time></trkpt><trkpt lat="43.69582317550867" lon="12.500423400456429"><ele>458.75</ele><time>2026-04-25T08:55:53Z</time></trkpt><trkpt lat="43.69576388571315" lon="12.5005936115906"><ele>459.0</ele><time>2026-04-25T08:55:54Z</time></trkpt><trkpt lat="43.69568865534341" lon="12.50075058837268"><ele>459.75</ele><time>2026-04-25T08:55:55Z</time></trkpt><trkpt lat="43.69560396145647" lon="12.500896677026665"><ele>460.5</ele><time>2026-04-25T08:55:56Z</time></trkpt><trkpt lat="43.69550062650657" lon="12.501012189884001"><ele>461.25</ele><time>2026-04-25T08:55:57Z</time></trkpt><trkpt lat="43.695377291091425" lon="12.501086561298811"><ele>462.0</ele><time>2026-04-25T08:55:58Z</time></trkpt><trkpt lat="43.695260074372754" lon="12.50115448603996"><ele>461.5</ele><time>2026-04-25T08:55:59Z</time></trkpt><trkpt lat="43.695144283400424" lon="12.50121655238532"><ele>461.0</ele><time>2026-04-25T08:56:00Z</time></trkpt><trkpt lat="43.69502875737749" lon="12.501282342721284"><ele>460.5</ele><time>2026-04-25T08:56:01Z</time></trkpt><trkpt lat="43.69490042499082" lon="12.501352882395048"><ele>460.0</ele><time>2026-04-25T08:56:02Z</time></trkpt><trkpt lat="43.694771190270025" lon="12.501412472144786"><ele>460.0</ele><time>2026-04-25T08:56:03Z</time></trkpt><trkpt lat="43.69464688159871" lon="12.501484041268057"><ele>460.0</ele><time>2026-04-25T08:56:04Z</time></trkpt><trkpt lat="43.69453893124639" lon="12.501558046977463"><ele>460.0</ele><time>2026-04-25T08:56:05Z</time></trkpt><trkpt lat="43.69445169617342" lon="12.501663077984235"><ele>460.0</ele><time>2026-04-25T08:56:06Z</time></trkpt><trkpt lat="43.69439813623001" lon="12.501801350443062"><ele>461.0</ele><time>2026-04-25T08:56:07Z</time></trkpt><trkpt lat="43.694370338177926" lon="12.501962997672459"><ele>462.0</ele><time>2026-04-25T08:56:08Z</time></trkpt><trkpt lat="43.69437921046972" lon="12.50214643554042"><ele>463.0</ele><time>2026-04-25T08:56:09Z</time></trkpt><trkpt lat="43.69442288063172" lon="12.50233054515746"><ele>464.0</ele><time>2026-04-25T08:56:10Z</time></trkpt><trkpt lat="43.69447495882814" lon="12.502519710953097"><ele>464.0</ele><time>2026-04-25T08:56:11Z</time></trkpt><trkpt lat="43.6945154490816" lon="12.502710104594229"><ele>464.0</ele><time>2026-04-25T08:56:12Z</time></trkpt><trkpt lat="43.69452405621394" lon="12.502907711927934"><ele>464.0</ele><time>2026-04-25T08:56:13Z</time></trkpt><trkpt lat="43.694496390368826" lon="12.503096768419589"><ele>464.0</ele><time>2026-04-25T08:56:14Z</time></trkpt><trkpt lat="43.69443372767673" lon="12.503284346303431"><ele>457.66666666666663</ele><time>2026-04-25T08:56:15Z</time></trkpt><trkpt lat="43.694359318766196" lon="12.503469044071585"><ele>451.33333333333337</ele><time>2026-04-25T08:56:16Z</time></trkpt><trkpt lat="43.69427765473516" lon="12.503660098155697"><ele>445.0</ele><time>2026-04-25T08:56:17Z</time></trkpt><trkpt lat="43.69419977844923" lon="12.503845086551047"><ele>445.0</ele><time>2026-04-25T08:56:18Z</time></trkpt><trkpt lat="43.69412216638234" lon="12.50401714652368"><ele>445.0</ele><time>2026-04-25T08:56:19Z</time></trkpt><trkpt lat="43.69404722165704" lon="12.504188133652226"><ele>445.0</ele><time>2026-04-25T08:56:20Z</time></trkpt><trkpt lat="43.69396729504591" lon="12.504355741766974"><ele>445.0</ele><time>2026-04-25T08:56:21Z</time></trkpt><trkpt lat="43.693881670683744" lon="12.504518803952447"><ele>447.5</ele><time>2026-04-25T08:56:22Z</time></trkpt><trkpt lat="43.693779707742564" lon="12.504656103015275"><ele>450.0</ele><time>2026-04-25T08:56:23Z</time></trkpt><trkpt lat="43.69365612213593" lon="12.504749042592955"><ele>452.5</ele><time>2026-04-25T08:56:24Z</time></trkpt><trkpt lat="43.69352864553527" lon="12.504822482136701"><ele>455.0</ele><time>2026-04-25T08:56:25Z</time></trkpt><trkpt lat="43.693393199740655" lon="12.504874115282911"><ele>448.3333333333333</ele><time>2026-04-25T08:56:26Z</time></trkpt><trkpt lat="43.693241599647116" lon="12.504908261410089"><ele>441.66666666666663</ele><time>2026-04-25T08:56:27Z</time></trkpt><trkpt lat="43.693083165744426" lon="12.504935013692691"><ele>435.0</ele><time>2026-04-25T08:56:28Z</time></trkpt><trkpt lat="43.69292705947961" lon="12.504971511702498"><ele>435.0</ele><time>2026-04-25T08:56:29Z</time></trkpt><trkpt lat="43.692779888054794" lon="12.505024849890155"><ele>435.0</ele><time>2026-04-25T08:56:30Z</time></trkpt><trkpt lat="43.692636251047944" lon="12.50509436951484"><ele>435.0</ele><time>2026-04-25T08:56:31Z</time></trkpt><trkpt lat="43.69249838007448" lon="12.505179546658583"><ele>434.5</ele><time>2026-04-25T08:56:32Z</time></trkpt><trkpt lat="43.69236027499199" lon="12.505267705296966"><ele>434.0</ele><time>2026-04-25T08:56:33Z</time></trkpt><trkpt lat="43.692225752533766" lon="12.505361442234864"><ele>433.5</ele><time>2026-04-25T08:56:34Z</time></trkpt><trkpt lat="43.6920923927681" lon="12.505443653809373"><ele>433.0</ele><time>2026-04-25T08:56:35Z</time></trkpt><trkpt lat="43.69195506178555" lon="12.505518886893839"><ele>429.75</ele><time>2026-04-25T08:56:36Z</time></trkpt><trkpt lat="43.691813621402794" lon="12.505577653482213"><ele>426.5</ele><time>2026-04-25T08:56:37Z</time></trkpt><trkpt lat="43.69166759785161" lon="12.505621201084823"><ele>423.25</ele><time>2026-04-25T08:56:38Z</time></trkpt><trkpt lat="43.69152286692912" lon="12.505631024030214"><ele>420.0</ele><time>2026-04-25T08:56:39Z</time></trkpt><trkpt lat="43.691387545459435" lon="12.505587840119407"><ele>420.0</ele><time>2026-04-25T08:56:40Z</time></trkpt><trkpt lat="43.691258963116155" lon="12.505502065741362"><ele>420.0</ele><time>2026-04-25T08:56:41Z</time></trkpt><trkpt lat="43.69115598254295" lon="12.505362694397888"><ele>420.0</ele><time>2026-04-25T08:56:42Z</time></trkpt><trkpt lat="43.69107059429792" lon="12.505208785312721"><ele>420.0</ele><time>2026-04-25T08:56:43Z</time></trkpt><trkpt lat="43.691000212510396" lon="12.505042177590525"><ele>416.75</ele><time>2026-04-25T08:56:44Z</time></trkpt><trkpt lat="43.69093245139099" lon="12.504876256963493"><ele>413.5</ele><time>2026-04-25T08:56:45Z</time></trkpt><trkpt lat="43.69086280947961" lon="12.504733162503246"><ele>410.25</ele><time>2026-04-25T08:56:46Z</time></trkpt><trkpt lat="43.69078165454574" lon="12.504631288484301"><ele>407.0</ele><time>2026-04-25T08:56:47Z</time></trkpt><trkpt lat="43.69067507010514" lon="12.504564967821032"><ele>402.75</ele><time>2026-04-25T08:56:48Z</time></trkpt><trkpt lat="43.69055694249107" lon="12.504551878549956"><ele>398.5</ele><time>2026-04-25T08:56:49Z</time></trkpt><trkpt lat="43.69043522909771" lon="12.504558343025298"><ele>394.25</ele><time>2026-04-25T08:56:50Z</time></trkpt><trkpt lat="43.69029761924185" lon="12.50454928340626"><ele>390.0</ele><time>2026-04-25T08:56:51Z</time></trkpt><trkpt lat="43.690156196748084" lon="12.504512050267385"><ele>389.25</ele><time>2026-04-25T08:56:52Z</time></trkpt><trkpt lat="43.690020370197914" lon="12.504439701247913"><ele>388.5</ele><time>2026-04-25T08:56:53Z</time></trkpt><trkpt lat="43.689885341256065" lon="12.5043601335593"><ele>387.75</ele><time>2026-04-25T08:56:54Z</time></trkpt><trkpt lat="43.68974558840153" lon="12.504307874454515"><ele>387.0</ele><time>2026-04-25T08:56:55Z</time></trkpt><trkpt lat="43.689609442881206" lon="12.504317011608105"><ele>387.0</ele><time>2026-04-25T08:56:55.999Z</time></trkpt><trkpt lat="43.68949258336488" lon="12.504384355439493"><ele>387.0</ele><time>2026-04-25T08:56:56.999Z</time></trkpt><trkpt lat="43.689402585471946" lon="12.504511202167425"><ele>387.0</ele><time>2026-04-25T08:56:57.999Z</time></trkpt><trkpt lat="43.689355051656186" lon="12.504663487873694"><ele>387.0</ele><time>2026-04-25T08:56:58.999Z</time></trkpt><trkpt lat="43.68935987650179" lon="12.504827566230107"><ele>388.5</ele><time>2026-04-25T08:56:59.999Z</time></trkpt><trkpt lat="43.689391037941995" lon="12.504983825550273"><ele>390.0</ele><time>2026-04-25T08:57:00.999Z</time></trkpt><trkpt lat="43.68946833496707" lon="12.505115742838385"><ele>391.5</ele><time>2026-04-25T08:57:01.999Z</time></trkpt><trkpt lat="43.68954807372623" lon="12.505236659977504"><ele>393.0</ele><time>2026-04-25T08:57:03Z</time></trkpt><trkpt lat="43.68962467386722" lon="12.50536609675398"><ele>390.0</ele><time>2026-04-25T08:57:04Z</time></trkpt><trkpt lat="43.68970352806864" lon="12.505502936807062"><ele>387.0</ele><time>2026-04-25T08:57:05Z</time></trkpt><trkpt lat="43.68977013167548" lon="12.5056532558694"><ele>384.0</ele><time>2026-04-25T08:57:06Z</time></trkpt><trkpt lat="43.68979526766512" lon="12.505832439223923"><ele>381.0</ele><time>2026-04-25T08:57:07Z</time></trkpt><trkpt lat="43.6897938744098" lon="12.506017217185622"><ele>381.0</ele><time>2026-04-25T08:57:08Z</time></trkpt><trkpt lat="43.68974980069971" lon="12.506195921378492"><ele>381.0</ele><time>2026-04-25T08:57:09Z</time></trkpt><trkpt lat="43.689674972444976" lon="12.506354801126454"><ele>381.0</ele><time>2026-04-25T08:57:10Z</time></trkpt><trkpt lat="43.6895919211148" lon="12.506500637550687"><ele>381.0</ele><time>2026-04-25T08:57:11Z</time></trkpt><trkpt lat="43.68951396383267" lon="12.506647632742231"><ele>381.75</ele><time>2026-04-25T08:57:12Z</time></trkpt><trkpt lat="43.689436005402555" lon="12.5067954405783"><ele>382.5</ele><time>2026-04-25T08:57:13Z</time></trkpt><trkpt lat="43.6893564854518" lon="12.50694510514819"><ele>383.25</ele><time>2026-04-25T08:57:14Z</time></trkpt><trkpt lat="43.68926443101141" lon="12.507078754270102"><ele>384.0</ele><time>2026-04-25T08:57:15Z</time></trkpt><trkpt lat="43.689156287390105" lon="12.507187025736709"><ele>380.0</ele><time>2026-04-25T08:57:16Z</time></trkpt><trkpt lat="43.68903015056455" lon="12.507251331315851"><ele>376.0</ele><time>2026-04-25T08:57:17Z</time></trkpt><trkpt lat="43.688903815340524" lon="12.507294351347515"><ele>372.0</ele><time>2026-04-25T08:57:18Z</time></trkpt><trkpt lat="43.68877760038611" lon="12.507335378378995"><ele>368.0</ele><time>2026-04-25T08:57:19Z</time></trkpt><trkpt lat="43.68865408034848" lon="12.507373341206183"><ele>364.5</ele><time>2026-04-25T08:57:20Z</time></trkpt><trkpt lat="43.688525844160786" lon="12.507418367442291"><ele>361.0</ele><time>2026-04-25T08:57:21Z</time></trkpt><trkpt lat="43.68839889600297" lon="12.507448246306735"><ele>357.5</ele><time>2026-04-25T08:57:22Z</time></trkpt><trkpt lat="43.68826875829735" lon="12.507439589012217"><ele>354.0</ele><time>2026-04-25T08:57:23Z</time></trkpt><trkpt lat="43.68815419363523" lon="12.507415284992565"><ele>354.0</ele><time>2026-04-25T08:57:24Z</time></trkpt><trkpt lat="43.6880687695586" lon="12.507403724610484"><ele>354.0</ele><time>2026-04-25T08:57:25Z</time></trkpt><trkpt lat="43.68796041671637" lon="12.507404134029995"><ele>354.0</ele><time>2026-04-25T08:57:27Z</time></trkpt><trkpt lat="43.68789572955245" lon="12.507444904817781"><ele>354.0</ele><time>2026-04-25T08:57:31Z</time></trkpt><trkpt lat="43.68783312352906" lon="12.507397140087082"><ele>354.0</ele><time>2026-04-25T08:58:30Z</time></trkpt><trkpt lat="43.68778404972844" lon="12.50746097456619"><ele>354.0</ele><time>2026-04-25T09:07:25.999Z</time></trkpt><trkpt lat="43.68772965095852" lon="12.507536090009403"><ele>351.0</ele><time>2026-04-25T09:07:28.999Z</time></trkpt><trkpt lat="43.687572102514295" lon="12.507695365726804"><ele>348.0</ele><time>2026-04-25T09:07:34Z</time></trkpt><trkpt lat="43.687491134362524" lon="12.50779417203472"><ele>345.0</ele><time>2026-04-25T09:07:36Z</time></trkpt><trkpt lat="43.687407672225845" lon="12.507916265756897"><ele>342.0</ele><time>2026-04-25T09:07:38Z</time></trkpt><trkpt lat="43.687374816472406" lon="12.507998545801042"><ele>342.0</ele><time>2026-04-25T09:07:39Z</time></trkpt><trkpt lat="43.68736309217511" lon="12.50810049053591"><ele>342.0</ele><time>2026-04-25T09:07:40Z</time></trkpt><trkpt lat="43.68737308708423" lon="12.508209440611333"><ele>342.0</ele><time>2026-04-25T09:07:41Z</time></trkpt><trkpt lat="43.687388101847326" lon="12.50831160492659"><ele>342.0</ele><time>2026-04-25T09:07:42Z</time></trkpt><trkpt lat="43.687417515450015" lon="12.508420438114122"><ele>342.0</ele><time>2026-04-25T09:07:43Z</time></trkpt><trkpt lat="43.68744759291038" lon="12.508534756706165"><ele>342.0</ele><time>2026-04-25T09:07:44Z</time></trkpt><trkpt lat="43.68746891320292" lon="12.5086482069644"><ele>341.6</ele><time>2026-04-25T09:07:45Z</time></trkpt><trkpt lat="43.68746452777878" lon="12.508767310976383"><ele>341.20000000000005</ele><time>2026-04-25T09:07:46Z</time></trkpt><trkpt lat="43.68741769619371" lon="12.508875228483413"><ele>340.8</ele><time>2026-04-25T09:07:47Z</time></trkpt><trkpt lat="43.68733679466147" lon="12.508951141877755"><ele>340.4</ele><time>2026-04-25T09:07:48Z</time></trkpt><trkpt lat="43.68723476197728" lon="12.508983737775589"><ele>340.0</ele><time>2026-04-25T09:07:49Z</time></trkpt><trkpt lat="43.68713177667689" lon="12.508983495362301"><ele>340.0</ele><time>2026-04-25T09:07:50Z</time></trkpt><trkpt lat="43.68703483450014" lon="12.50898949910614"><ele>340.0</ele><time>2026-04-25T09:07:51Z</time></trkpt><trkpt lat="43.68694105489997" lon="12.509010029466785"><ele>340.0</ele><time>2026-04-25T09:07:52Z</time></trkpt><trkpt lat="43.6868480783709" lon="12.509055500645776"><ele>340.0</ele><time>2026-04-25T09:07:53Z</time></trkpt><trkpt lat="43.68676137187268" lon="12.509140916372115"><ele>340.0</ele><time>2026-04-25T09:07:54Z</time></trkpt><trkpt lat="43.68668673768798" lon="12.509262403432222"><ele>336.25</ele><time>2026-04-25T09:07:55Z</time></trkpt><trkpt lat="43.68662252710996" lon="12.509397648969426"><ele>332.5</ele><time>2026-04-25T09:07:56Z</time></trkpt><trkpt lat="43.68656047702163" lon="12.509549373999553"><ele>328.75</ele><time>2026-04-25T09:07:57Z</time></trkpt><trkpt lat="43.68649161881807" lon="12.50970855172446"><ele>325.0</ele><time>2026-04-25T09:07:58Z</time></trkpt><trkpt lat="43.68642710661898" lon="12.50987791032899"><ele>325.0</ele><time>2026-04-25T09:07:59Z</time></trkpt><trkpt lat="43.68636845437036" lon="12.510040047744893"><ele>325.0</ele><time>2026-04-25T09:08:00Z</time></trkpt><trkpt lat="43.686305085248705" lon="12.510187884654096"><ele>325.0</ele><time>2026-04-25T09:08:01Z</time></trkpt><trkpt lat="43.686235942036234" lon="12.510327221709348"><ele>325.0</ele><time>2026-04-25T09:08:02Z</time></trkpt><trkpt lat="43.68616503526996" lon="12.510461050898993"><ele>320.5</ele><time>2026-04-25T09:08:03Z</time></trkpt><trkpt lat="43.68608904509924" lon="12.510602651256447"><ele>316.0</ele><time>2026-04-25T09:08:04Z</time></trkpt><trkpt lat="43.68600960237419" lon="12.510751023653638"><ele>311.5</ele><time>2026-04-25T09:08:05Z</time></trkpt><trkpt lat="43.68593188999833" lon="12.510896645592375"><ele>307.0</ele><time>2026-04-25T09:08:06Z</time></trkpt><trkpt lat="43.68584948952871" lon="12.511026843365695"><ele>307.0</ele><time>2026-04-25T09:08:07Z</time></trkpt><trkpt lat="43.68577234000293" lon="12.511162364706697"><ele>307.0</ele><time>2026-04-25T09:08:08Z</time></trkpt><trkpt lat="43.68571230886358" lon="12.511312137039644"><ele>307.0</ele><time>2026-04-25T09:08:09Z</time></trkpt><trkpt lat="43.685640131770505" lon="12.511441169896385"><ele>307.0</ele><time>2026-04-25T09:08:10Z</time></trkpt><trkpt lat="43.685571754266135" lon="12.511566962293161"><ele>307.0</ele><time>2026-04-25T09:08:11Z</time></trkpt><trkpt lat="43.68550013996607" lon="12.511681741103162"><ele>307.0</ele><time>2026-04-25T09:08:12Z</time></trkpt><trkpt lat="43.685462159692975" lon="12.511820144904357"><ele>307.0</ele><time>2026-04-25T09:08:13Z</time></trkpt><trkpt lat="43.68544854390466" lon="12.511970310983884"><ele>307.0</ele><time>2026-04-25T09:08:14Z</time></trkpt><trkpt lat="43.685460931656415" lon="12.512126020243342"><ele>307.0</ele><time>2026-04-25T09:08:15Z</time></trkpt><trkpt lat="43.68548050332501" lon="12.512292375272201"><ele>305.25</ele><time>2026-04-25T09:08:16Z</time></trkpt><trkpt lat="43.68550141176571" lon="12.51246393879861"><ele>303.5</ele><time>2026-04-25T09:08:17Z</time></trkpt><trkpt lat="43.68552022401897" lon="12.512632822804262"><ele>301.75</ele><time>2026-04-25T09:08:18Z</time></trkpt><trkpt lat="43.68553486017661" lon="12.512794669560128"><ele>300.0</ele><time>2026-04-25T09:08:19Z</time></trkpt><trkpt lat="43.68554890908113" lon="12.512933086925747"><ele>298.4</ele><time>2026-04-25T09:08:20Z</time></trkpt><trkpt lat="43.68555492851034" lon="12.513049111322324"><ele>296.8</ele><time>2026-04-25T09:08:21Z</time></trkpt><trkpt lat="43.685560074588444" lon="12.513150259819492"><ele>295.2</ele><time>2026-04-25T09:08:22Z</time></trkpt><trkpt lat="43.685497496215156" lon="12.513242028895965"><ele>293.6</ele><time>2026-04-25T09:08:23Z</time></trkpt><trkpt lat="43.68539597960796" lon="12.51324562753661"><ele>292.0</ele><time>2026-04-25T09:08:24Z</time></trkpt><trkpt lat="43.68529022831771" lon="12.513233515270548"><ele>290.25</ele><time>2026-04-25T09:08:25Z</time></trkpt><trkpt lat="43.68517852359013" lon="12.513211015580818"><ele>288.5</ele><time>2026-04-25T09:08:26Z</time></trkpt><trkpt lat="43.68505487498734" lon="12.513194174576897"><ele>286.75</ele><time>2026-04-25T09:08:27Z</time></trkpt><trkpt lat="43.684928738193754" lon="12.513180942253427"><ele>285.0</ele><time>2026-04-25T09:08:28Z</time></trkpt><trkpt lat="43.684809859681906" lon="12.51317268151167"><ele>285.0</ele><time>2026-04-25T09:08:29Z</time></trkpt><trkpt lat="43.68468880527177" lon="12.513174067937317"><ele>285.0</ele><time>2026-04-25T09:08:30Z</time></trkpt><trkpt lat="43.68458045741766" lon="12.513208708904228"><ele>285.0</ele><time>2026-04-25T09:08:31Z</time></trkpt><trkpt lat="43.68448344423723" lon="12.513291697212113"><ele>285.0</ele><time>2026-04-25T09:08:32Z</time></trkpt><trkpt lat="43.68439472448514" lon="12.513427920193628"><ele>285.25</ele><time>2026-04-25T09:08:32.999Z</time></trkpt><trkpt lat="43.684318301817385" lon="12.513574482711576"><ele>285.5</ele><time>2026-04-25T09:08:33.999Z</time></trkpt><trkpt lat="43.6842377273956" lon="12.513718988252744"><ele>285.75</ele><time>2026-04-25T09:08:34.999Z</time></trkpt><trkpt lat="43.684157692225966" lon="12.513861973769147"><ele>286.0</ele><time>2026-04-25T09:08:35.999Z</time></trkpt><trkpt lat="43.68407709114335" lon="12.514008933438326"><ele>286.0</ele><time>2026-04-25T09:08:36.999Z</time></trkpt><trkpt lat="43.684004343266935" lon="12.514168073127161"><ele>286.0</ele><time>2026-04-25T09:08:37.999Z</time></trkpt><trkpt lat="43.6839197496498" lon="12.514318604574122"><ele>286.0</ele><time>2026-04-25T09:08:38.999Z</time></trkpt><trkpt lat="43.68382162386497" lon="12.51445834319655"><ele>286.0</ele><time>2026-04-25T09:08:39.999Z</time></trkpt><trkpt lat="43.68373818826985" lon="12.514610721018494"><ele>284.75</ele><time>2026-04-25T09:08:40.999Z</time></trkpt><trkpt lat="43.683657688188774" lon="12.514769020959953"><ele>283.5</ele><time>2026-04-25T09:08:41.999Z</time></trkpt><trkpt lat="43.68358318884273" lon="12.51492640306647"><ele>282.25</ele><time>2026-04-25T09:08:42.999Z</time></trkpt><trkpt lat="43.68351812330173" lon="12.515101900841067"><ele>281.0</ele><time>2026-04-25T09:08:43.999Z</time></trkpt><trkpt lat="43.68346230849787" lon="12.515290721931812"><ele>281.75</ele><time>2026-04-25T09:08:44.999Z</time></trkpt><trkpt lat="43.68341468069422" lon="12.515488345388475"><ele>282.5</ele><time>2026-04-25T09:08:45.999Z</time></trkpt><trkpt lat="43.6833754311898" lon="12.515686546868361"><ele>283.25</ele><time>2026-04-25T09:08:46.999Z</time></trkpt><trkpt lat="43.683335444907776" lon="12.515881686543642"><ele>284.0</ele><time>2026-04-25T09:08:47.999Z</time></trkpt><trkpt lat="43.68328767177132" lon="12.516079985585684"><ele>286.0</ele><time>2026-04-25T09:08:48.999Z</time></trkpt><trkpt lat="43.68323010708213" lon="12.516267002529585"><ele>288.0</ele><time>2026-04-25T09:08:49.999Z</time></trkpt><trkpt lat="43.683153206837744" lon="12.516443910230096"><ele>290.0</ele><time>2026-04-25T09:08:50.999Z</time></trkpt><trkpt lat="43.683053049138636" lon="12.516602778295047"><ele>292.0</ele><time>2026-04-25T09:08:51.999Z</time></trkpt><trkpt lat="43.682960379442996" lon="12.516772863448764"><ele>292.0</ele><time>2026-04-25T09:08:52.999Z</time></trkpt><trkpt lat="43.682863305010194" lon="12.516934811083223"><ele>292.0</ele><time>2026-04-25T09:08:53.999Z</time></trkpt><trkpt lat="43.68276378666468" lon="12.517100817466648"><ele>292.0</ele><time>2026-04-25T09:08:54.999Z</time></trkpt><trkpt lat="43.68268827112661" lon="12.517290571266946"><ele>287.66666666666663</ele><time>2026-04-25T09:08:55.999Z</time></trkpt><trkpt lat="43.682620860781405" lon="12.517485789105757"><ele>283.3333333333333</ele><time>2026-04-25T09:08:56.999Z</time></trkpt><trkpt lat="43.682556610085676" lon="12.51767864849522"><ele>279.0</ele><time>2026-04-25T09:08:57.999Z</time></trkpt><trkpt lat="43.682485685162895" lon="12.51786604478505"><ele>283.3333333333333</ele><time>2026-04-25T09:08:58.999Z</time></trkpt><trkpt lat="43.68240815176934" lon="12.51805137217193"><ele>287.66666666666663</ele><time>2026-04-25T09:08:59.999Z</time></trkpt><trkpt lat="43.68233881047138" lon="12.518248669390534"><ele>292.0</ele><time>2026-04-25T09:09:00.999Z</time></trkpt><trkpt lat="43.6822517391006" lon="12.518428121125044"><ele>292.0</ele><time>2026-04-25T09:09:01.999Z</time></trkpt><trkpt lat="43.68214610817421" lon="12.518588537922497"><ele>292.0</ele><time>2026-04-25T09:09:02.999Z</time></trkpt><trkpt lat="43.68204672687172" lon="12.51875821985374"><ele>292.0</ele><time>2026-04-25T09:09:03.999Z</time></trkpt><trkpt lat="43.68195147373382" lon="12.518939665563241"><ele>291.0</ele><time>2026-04-25T09:09:04.999Z</time></trkpt><trkpt lat="43.68184053810306" lon="12.519106881260749"><ele>290.0</ele><time>2026-04-25T09:09:05.999Z</time></trkpt><trkpt lat="43.681714550520006" lon="12.519267025773562"><ele>289.0</ele><time>2026-04-25T09:09:06.999Z</time></trkpt><trkpt lat="43.681600772154084" lon="12.519449155512463"><ele>291.0</ele><time>2026-04-25T09:09:07.999Z</time></trkpt><trkpt lat="43.68149687631861" lon="12.519632304064455"><ele>293.0</ele><time>2026-04-25T09:09:08.999Z</time></trkpt><trkpt lat="43.681431906621086" lon="12.519827573321614"><ele>295.0</ele><time>2026-04-25T09:09:09.999Z</time></trkpt><trkpt lat="43.681336442995345" lon="12.519992902327909"><ele>295.0</ele><time>2026-04-25T09:09:10.999Z</time></trkpt><trkpt lat="43.681236320405404" lon="12.520131900591373"><ele>295.0</ele><time>2026-04-25T09:09:11.999Z</time></trkpt><trkpt lat="43.68110663187803" lon="12.520230799316586"><ele>295.0</ele><time>2026-04-25T09:09:12.999Z</time></trkpt><trkpt lat="43.68096518321246" lon="12.520316572732238"><ele>295.0</ele><time>2026-04-25T09:09:13.999Z</time></trkpt><trkpt lat="43.68081583638349" lon="12.520396304327742"><ele>296.3333333333333</ele><time>2026-04-25T09:09:14.999Z</time></trkpt><trkpt lat="43.680664674297915" lon="12.520468320750226"><ele>297.6666666666667</ele><time>2026-04-25T09:09:15.999Z</time></trkpt><trkpt lat="43.68050815986024" lon="12.520525957306754"><ele>299.0</ele><time>2026-04-25T09:09:16.999Z</time></trkpt><trkpt lat="43.68034595006578" lon="12.520570396108448"><ele>297.0</ele><time>2026-04-25T09:09:17.999Z</time></trkpt><trkpt lat="43.6801828747096" lon="12.520609876895941"><ele>295.0</ele><time>2026-04-25T09:09:18.999Z</time></trkpt><trkpt lat="43.6800226545778" lon="12.520650237968106"><ele>293.0</ele><time>2026-04-25T09:09:19.999Z</time></trkpt><trkpt lat="43.67987351028623" lon="12.520687243165007"><ele>293.0</ele><time>2026-04-25T09:09:20.999Z</time></trkpt><trkpt lat="43.67973246930081" lon="12.520720607287194"><ele>293.0</ele><time>2026-04-25T09:09:21.999Z</time></trkpt><trkpt lat="43.67960568799477" lon="12.520771899648889"><ele>293.0</ele><time>2026-04-25T09:09:22.999Z</time></trkpt><trkpt lat="43.67948803562789" lon="12.520766751383986"><ele>293.0</ele><time>2026-04-25T09:09:23.999Z</time></trkpt><trkpt lat="43.679406305951105" lon="12.520767795688393"><ele>291.4</ele><time>2026-04-25T09:09:24.999Z</time></trkpt><trkpt lat="43.67931596734917" lon="12.520719608781148"><ele>289.8</ele><time>2026-04-25T09:09:34.999Z</time></trkpt><trkpt lat="43.6792020693594" lon="12.520634637906861"><ele>288.2</ele><time>2026-04-25T09:09:36.999Z</time></trkpt><trkpt lat="43.67915210119374" lon="12.520524426536515"><ele>286.6</ele><time>2026-04-25T09:09:37.999Z</time></trkpt><trkpt lat="43.679102963849076" lon="12.520406494121163"><ele>285.0</ele><time>2026-04-25T09:09:39Z</time></trkpt><trkpt lat="43.67905416444609" lon="12.52027124155265"><ele>284.25</ele><time>2026-04-25T09:09:40Z</time></trkpt><trkpt lat="43.67900409107324" lon="12.520136765510337"><ele>283.5</ele><time>2026-04-25T09:09:41Z</time></trkpt><trkpt lat="43.67894100810849" lon="12.519988919607613"><ele>282.75</ele><time>2026-04-25T09:09:42Z</time></trkpt><trkpt lat="43.678880219675484" lon="12.519828950529044"><ele>282.0</ele><time>2026-04-25T09:09:43Z</time></trkpt><trkpt lat="43.678815035703224" lon="12.519658897968993"><ele>281.75</ele><time>2026-04-25T09:09:44Z</time></trkpt><trkpt lat="43.678747220492646" lon="12.519484612386869"><ele>281.5</ele><time>2026-04-25T09:09:45Z</time></trkpt><trkpt lat="43.67867850767103" lon="12.519312709252755"><ele>281.25</ele><time>2026-04-25T09:09:46Z</time></trkpt><trkpt lat="43.67860960395519" lon="12.519138680877498"><ele>281.0</ele><time>2026-04-25T09:09:47Z</time></trkpt><trkpt lat="43.67854006569569" lon="12.518964002121212"><ele>280.75</ele><time>2026-04-25T09:09:48Z</time></trkpt><trkpt lat="43.67847200195541" lon="12.518797723365966"><ele>280.5</ele><time>2026-04-25T09:09:49Z</time></trkpt><trkpt lat="43.67840286750678" lon="12.51863536695425"><ele>280.25</ele><time>2026-04-25T09:09:50Z</time></trkpt><trkpt lat="43.67833601818512" lon="12.518477974815033"><ele>280.0</ele><time>2026-04-25T09:09:51Z</time></trkpt><trkpt lat="43.67827313277283" lon="12.518331905747218"><ele>279.8</ele><time>2026-04-25T09:09:52Z</time></trkpt><trkpt lat="43.67821141837743" lon="12.518195375359458"><ele>279.6</ele><time>2026-04-25T09:09:53Z</time></trkpt><trkpt lat="43.67815005689144" lon="12.518073393573852"><ele>279.4</ele><time>2026-04-25T09:09:54Z</time></trkpt><trkpt lat="43.67807856632616" lon="12.51797047617797"><ele>279.2</ele><time>2026-04-25T09:09:55Z</time></trkpt><trkpt lat="43.67798830252212" lon="12.51789409204913"><ele>279.0</ele><time>2026-04-25T09:09:56Z</time></trkpt><trkpt lat="43.67789328962544" lon="12.517845551641111"><ele>279.0</ele><time>2026-04-25T09:09:57Z</time></trkpt><trkpt lat="43.67779338830044" lon="12.517830443289183"><ele>279.0</ele><time>2026-04-25T09:09:58Z</time></trkpt><trkpt lat="43.67769316603176" lon="12.51783685237584"><ele>279.0</ele><time>2026-04-25T09:09:59Z</time></trkpt><trkpt lat="43.677599283337784" lon="12.517873550656859"><ele>279.0</ele><time>2026-04-25T09:10:00Z</time></trkpt><trkpt lat="43.67750575955507" lon="12.517936505194077"><ele>279.0</ele><time>2026-04-25T09:10:01Z</time></trkpt><trkpt lat="43.67740975376425" lon="12.51801140871396"><ele>278.0</ele><time>2026-04-25T09:10:02Z</time></trkpt><trkpt lat="43.6773099053798" lon="12.518088109184271"><ele>277.0</ele><time>2026-04-25T09:10:03Z</time></trkpt><trkpt lat="43.67720971278914" lon="12.518163951680258"><ele>276.0</ele><time>2026-04-25T09:10:04Z</time></trkpt><trkpt lat="43.67711241079106" lon="12.51823925480035"><ele>275.0</ele><time>2026-04-25T09:10:05Z</time></trkpt><trkpt lat="43.677015604489654" lon="12.518318049104554"><ele>274.4</ele><time>2026-04-25T09:10:06Z</time></trkpt><trkpt lat="43.676921707774206" lon="12.51839456135167"><ele>273.8</ele><time>2026-04-25T09:10:07Z</time></trkpt><trkpt lat="43.67683240802772" lon="12.518461785959136"><ele>273.2</ele><time>2026-04-25T09:10:08Z</time></trkpt><trkpt lat="43.67674178049318" lon="12.518529594698864"><ele>272.6</ele><time>2026-04-25T09:10:09Z</time></trkpt><trkpt lat="43.676652485289026" lon="12.518599869222609"><ele>272.0</ele><time>2026-04-25T09:10:10Z</time></trkpt><trkpt lat="43.6765621261236" lon="12.518669982122441"><ele>272.6</ele><time>2026-04-25T09:10:11Z</time></trkpt><trkpt lat="43.67646740446108" lon="12.518739509079802"><ele>273.2</ele><time>2026-04-25T09:10:12Z</time></trkpt><trkpt lat="43.67638166258758" lon="12.518801244267959"><ele>273.8</ele><time>2026-04-25T09:10:13Z</time></trkpt><trkpt lat="43.676304408799396" lon="12.51885570407672"><ele>274.4</ele><time>2026-04-25T09:10:14Z</time></trkpt><trkpt lat="43.67623571315881" lon="12.518905190439375"><ele>275.0</ele><time>2026-04-25T09:10:15Z</time></trkpt><trkpt lat="43.67612996506287" lon="12.518979248082344"><ele>275.0</ele><time>2026-04-25T09:10:17Z</time></trkpt><trkpt lat="43.67605698669709" lon="12.518786839661889"><ele>275.0</ele><time>2026-04-25T09:10:19Z</time></trkpt><trkpt lat="43.676017037330006" lon="12.518674743407528"><ele>275.0</ele><time>2026-04-25T09:10:20Z</time></trkpt><trkpt lat="43.675969147232294" lon="12.518558356651056"><ele>275.0</ele><time>2026-04-25T09:10:21Z</time></trkpt><trkpt lat="43.67591340572104" lon="12.518426460668676"><ele>275.0</ele><time>2026-04-25T09:10:22Z</time></trkpt><trkpt lat="43.67585933849252" lon="12.518290390663491"><ele>275.0</ele><time>2026-04-25T09:10:23Z</time></trkpt><trkpt lat="43.67580898942931" lon="12.518154930319099"><ele>275.0</ele><time>2026-04-25T09:10:24Z</time></trkpt><trkpt lat="43.67575560616236" lon="12.518028840028844"><ele>275.0</ele><time>2026-04-25T09:10:25Z</time></trkpt><trkpt lat="43.6757042866942" lon="12.517921905295793"><ele>275.0</ele><time>2026-04-25T09:10:26Z</time></trkpt><trkpt lat="43.67566311283387" lon="12.517848828782727"><ele>275.33333333333337</ele><time>2026-04-25T09:10:27Z</time></trkpt><trkpt lat="43.675636274864964" lon="12.517767189126038"><ele>275.6666666666667</ele><time>2026-04-25T09:10:29Z</time></trkpt><trkpt lat="43.67555274872014" lon="12.517787782975011"><ele>276.0</ele><time>2026-04-25T09:10:30Z</time></trkpt><trkpt lat="43.67548920282401" lon="12.517796996783005"><ele>276.3333333333333</ele><time>2026-04-25T09:10:31Z</time></trkpt><trkpt lat="43.67541458915883" lon="12.517822331297362"><ele>276.66666666666663</ele><time>2026-04-25T09:10:32Z</time></trkpt><trkpt lat="43.67532529109841" lon="12.517860498666236"><ele>277.0</ele><time>2026-04-25T09:10:33Z</time></trkpt><trkpt lat="43.67522983528307" lon="12.517901972762644"><ele>277.0</ele><time>2026-04-25T09:10:34Z</time></trkpt><trkpt lat="43.6751263418084" lon="12.51795330288485"><ele>277.0</ele><time>2026-04-25T09:10:35Z</time></trkpt><trkpt lat="43.67501321584068" lon="12.518019531898686"><ele>277.0</ele><time>2026-04-25T09:10:36Z</time></trkpt><trkpt lat="43.674902151551166" lon="12.518094932376775"><ele>277.0</ele><time>2026-04-25T09:10:37Z</time></trkpt><trkpt lat="43.674791266675065" lon="12.518180310786633"><ele>277.0</ele><time>2026-04-25T09:10:38Z</time></trkpt><trkpt lat="43.674675596587214" lon="12.51827999817563"><ele>277.0</ele><time>2026-04-25T09:10:39Z</time></trkpt><trkpt lat="43.674567210489535" lon="12.5183872922006"><ele>277.0</ele><time>2026-04-25T09:10:40Z</time></trkpt><trkpt lat="43.6744577130519" lon="12.518504570627487"><ele>277.0</ele><time>2026-04-25T09:10:41Z</time></trkpt><trkpt lat="43.67434829840846" lon="12.518627642832486"><ele>277.0</ele><time>2026-04-25T09:10:42Z</time></trkpt><trkpt lat="43.67423919755264" lon="12.518753097222547"><ele>277.0</ele><time>2026-04-25T09:10:43Z</time></trkpt><trkpt lat="43.6741343827805" lon="12.518870243797616"><ele>277.0</ele><time>2026-04-25T09:10:44Z</time></trkpt><trkpt lat="43.67402401353908" lon="12.518983757175352"><ele>277.0</ele><time>2026-04-25T09:10:44.999Z</time></trkpt><trkpt lat="43.67391395022567" lon="12.519092667797704"><ele>277.0</ele><time>2026-04-25T09:10:45.999Z</time></trkpt><trkpt lat="43.67379876192523" lon="12.51919890531553"><ele>277.0</ele><time>2026-04-25T09:10:46.999Z</time></trkpt><trkpt lat="43.67368585355782" lon="12.519297832258014"><ele>277.0</ele><time>2026-04-25T09:10:47.999Z</time></trkpt><trkpt lat="43.67357262367359" lon="12.519396862971275"><ele>277.0</ele><time>2026-04-25T09:10:48.999Z</time></trkpt><trkpt lat="43.67346327870503" lon="12.519493744490944"><ele>277.0</ele><time>2026-04-25T09:10:49.999Z</time></trkpt><trkpt lat="43.673361308992014" lon="12.519598268106988"><ele>277.0</ele><time>2026-04-25T09:10:50.999Z</time></trkpt><trkpt lat="43.67326448717548" lon="12.519710373087088"><ele>277.0</ele><time>2026-04-25T09:10:51.999Z</time></trkpt><trkpt lat="43.673172195131635" lon="12.519827828790728"><ele>277.0</ele><time>2026-04-25T09:10:52.999Z</time></trkpt><trkpt lat="43.67308250081066" lon="12.519945022468951"><ele>277.0</ele><time>2026-04-25T09:10:53.999Z</time></trkpt><trkpt lat="43.67299550325633" lon="12.520061555647153"><ele>277.0</ele><time>2026-04-25T09:10:54.999Z</time></trkpt><trkpt lat="43.672910528087904" lon="12.520179578324111"><ele>277.0</ele><time>2026-04-25T09:10:55.999Z</time></trkpt><trkpt lat="43.67282836961105" lon="12.520302889221659"><ele>277.0</ele><time>2026-04-25T09:10:56.999Z</time></trkpt><trkpt lat="43.67274907945703" lon="12.520430468031046"><ele>277.25</ele><time>2026-04-25T09:10:57.999Z</time></trkpt><trkpt lat="43.6726774151332" lon="12.520565465762463"><ele>277.5</ele><time>2026-04-25T09:10:58.999Z</time></trkpt><trkpt lat="43.67261132714077" lon="12.520701438409828"><ele>277.75</ele><time>2026-04-25T09:10:59.999Z</time></trkpt><trkpt lat="43.672552331221" lon="12.520843161009712"><ele>278.0</ele><time>2026-04-25T09:11:00.999Z</time></trkpt><trkpt lat="43.672498021273015" lon="12.52099274024027"><ele>278.0</ele><time>2026-04-25T09:11:01.999Z</time></trkpt><trkpt lat="43.67245265709569" lon="12.521130623139127"><ele>278.0</ele><time>2026-04-25T09:11:02.999Z</time></trkpt><trkpt lat="43.6724133313009" lon="12.52126554802251"><ele>278.0</ele><time>2026-04-25T09:11:03.999Z</time></trkpt><trkpt lat="43.67237944203302" lon="12.521396242100087"><ele>278.0</ele><time>2026-04-25T09:11:04.999Z</time></trkpt><trkpt lat="43.672348152143556" lon="12.521521082695848"><ele>278.0</ele><time>2026-04-25T09:11:05.999Z</time></trkpt><trkpt lat="43.67231322646402" lon="12.521649874619953"><ele>278.0</ele><time>2026-04-25T09:11:06.999Z</time></trkpt><trkpt lat="43.67227402669287" lon="12.521779074305366"><ele>278.0</ele><time>2026-04-25T09:11:07.999Z</time></trkpt><trkpt lat="43.67223715838299" lon="12.521912202320417"><ele>278.0</ele><time>2026-04-25T09:11:08.999Z</time></trkpt><trkpt lat="43.67220393487321" lon="12.522038752617775"><ele>278.0</ele><time>2026-04-25T09:11:09.999Z</time></trkpt><trkpt lat="43.6721728124095" lon="12.522151899529645"><ele>278.0</ele><time>2026-04-25T09:11:10.999Z</time></trkpt><trkpt lat="43.672145245916916" lon="12.52224599179284"><ele>278.0</ele><time>2026-04-25T09:11:11.999Z</time></trkpt><trkpt lat="43.67211999119232" lon="12.522327214766047"><ele>278.0</ele><time>2026-04-25T09:11:12.999Z</time></trkpt><trkpt lat="43.672098332343936" lon="12.522461946715532"><ele>278.0</ele><time>2026-04-25T09:11:14.999Z</time></trkpt><trkpt lat="43.67200520731371" lon="12.522521661809112"><ele>278.0</ele><time>2026-04-25T09:11:17.999Z</time></trkpt><trkpt lat="43.67193943561854" lon="12.522507558460392"><ele>278.0</ele><time>2026-04-25T09:11:20.999Z</time></trkpt><trkpt lat="43.671870365009646" lon="12.522493947762596"><ele>278.0</ele><time>2026-04-25T09:11:25.999Z</time></trkpt><trkpt lat="43.67179965044401" lon="12.52245242115898"><ele>277.83333333333337</ele><time>2026-04-25T09:11:29.999Z</time></trkpt><trkpt lat="43.671723677431714" lon="12.522397738602907"><ele>277.6666666666667</ele><time>2026-04-25T09:11:32.999Z</time></trkpt><trkpt lat="43.67166047167449" lon="12.522345838423155"><ele>277.5</ele><time>2026-04-25T09:11:35.999Z</time></trkpt><trkpt lat="43.67159683274851" lon="12.522308417016507"><ele>277.3333333333333</ele><time>2026-04-25T09:11:40.999Z</time></trkpt><trkpt lat="43.67154893397479" lon="12.522149825106831"><ele>277.16666666666663</ele><time>2026-04-25T09:11:43.999Z</time></trkpt><trkpt lat="43.67150570663377" lon="12.522076661703672"><ele>277.0</ele><time>2026-04-25T09:11:45Z</time></trkpt><trkpt lat="43.671458942395944" lon="12.521971429213824"><ele>276.75</ele><time>2026-04-25T09:11:46Z</time></trkpt><trkpt lat="43.67140557617953" lon="12.521842158497465"><ele>276.5</ele><time>2026-04-25T09:11:47Z</time></trkpt><trkpt lat="43.671347077012285" lon="12.52168510578568"><ele>276.25</ele><time>2026-04-25T09:11:48Z</time></trkpt><trkpt lat="43.671293675821424" lon="12.521509958362438"><ele>276.0</ele><time>2026-04-25T09:11:49Z</time></trkpt><trkpt lat="43.67125548454327" lon="12.521339093379522"><ele>275.5</ele><time>2026-04-25T09:11:50Z</time></trkpt><trkpt lat="43.671225210190926" lon="12.52117038381674"><ele>275.0</ele><time>2026-04-25T09:11:51Z</time></trkpt><trkpt lat="43.67120344726944" lon="12.521002577725538"><ele>274.5</ele><time>2026-04-25T09:11:52Z</time></trkpt><trkpt lat="43.671188891681645" lon="12.520830630204978"><ele>274.0</ele><time>2026-04-25T09:11:53Z</time></trkpt><trkpt lat="43.67118605868635" lon="12.520653168208236"><ele>274.0</ele><time>2026-04-25T09:11:54Z</time></trkpt><trkpt lat="43.67119267562768" lon="12.520472539494996"><ele>274.0</ele><time>2026-04-25T09:11:55Z</time></trkpt><trkpt lat="43.67120384364243" lon="12.520287177226175"><ele>274.0</ele><time>2026-04-25T09:11:56Z</time></trkpt><trkpt lat="43.671217756385026" lon="12.520097424581103"><ele>274.0</ele><time>2026-04-25T09:11:57Z</time></trkpt><trkpt lat="43.671235259689276" lon="12.519901241739579"><ele>272.5</ele><time>2026-04-25T09:11:58Z</time></trkpt><trkpt lat="43.67125378463657" lon="12.519699405383536"><ele>271.0</ele><time>2026-04-25T09:11:59Z</time></trkpt><trkpt lat="43.67126888076218" lon="12.519497247646163"><ele>269.5</ele><time>2026-04-25T09:12:00Z</time></trkpt><trkpt lat="43.67128311575713" lon="12.519291301611121"><ele>268.0</ele><time>2026-04-25T09:12:01Z</time></trkpt><trkpt lat="43.67130113369565" lon="12.51908672399582"><ele>268.0</ele><time>2026-04-25T09:12:02Z</time></trkpt><trkpt lat="43.67131867945375" lon="12.51888252527635"><ele>268.0</ele><time>2026-04-25T09:12:03Z</time></trkpt><trkpt lat="43.67133603134444" lon="12.518688835612231"><ele>268.0</ele><time>2026-04-25T09:12:04Z</time></trkpt><trkpt lat="43.67135268850204" lon="12.518502806546934"><ele>268.0</ele><time>2026-04-25T09:12:05Z</time></trkpt><trkpt lat="43.67137717106407" lon="12.518318298542862"><ele>270.5</ele><time>2026-04-25T09:12:06Z</time></trkpt><trkpt lat="43.67141354839307" lon="12.518139057032831"><ele>273.0</ele><time>2026-04-25T09:12:07Z</time></trkpt><trkpt lat="43.671461506039755" lon="12.51795757707518"><ele>275.5</ele><time>2026-04-25T09:12:08Z</time></trkpt><trkpt lat="43.671519343199556" lon="12.517777272134394"><ele>278.0</ele><time>2026-04-25T09:12:09Z</time></trkpt><trkpt lat="43.67158525772194" lon="12.517595692309083"><ele>279.0</ele><time>2026-04-25T09:12:10Z</time></trkpt><trkpt lat="43.671661404660874" lon="12.5174190220804"><ele>280.0</ele><time>2026-04-25T09:12:11Z</time></trkpt><trkpt lat="43.67175138352549" lon="12.517251168732233"><ele>281.0</ele><time>2026-04-25T09:12:12Z</time></trkpt><trkpt lat="43.671854890639906" lon="12.517094057859799"><ele>282.33333333333337</ele><time>2026-04-25T09:12:13Z</time></trkpt><trkpt lat="43.67197041289625" lon="12.51694774496839"><ele>283.6666666666667</ele><time>2026-04-25T09:12:14Z</time></trkpt><trkpt lat="43.6720882475857" lon="12.516807798914664"><ele>285.0</ele><time>2026-04-25T09:12:15Z</time></trkpt><trkpt lat="43.67219851110646" lon="12.516677831625332"><ele>285.0</ele><time>2026-04-25T09:12:16Z</time></trkpt><trkpt lat="43.672304907903026" lon="12.51655749631963"><ele>285.0</ele><time>2026-04-25T09:12:17Z</time></trkpt><trkpt lat="43.672403196711365" lon="12.516446184578406"><ele>285.0</ele><time>2026-04-25T09:12:18Z</time></trkpt><trkpt lat="43.67248439557694" lon="12.516355411295498"><ele>285.0</ele><time>2026-04-25T09:12:19Z</time></trkpt><trkpt lat="43.67255376215139" lon="12.516287905335483"><ele>285.0</ele><time>2026-04-25T09:12:20Z</time></trkpt><trkpt lat="43.67261347909385" lon="12.516250906026535"><ele>285.0</ele><time>2026-04-25T09:12:21Z</time></trkpt><trkpt lat="43.67271671413491" lon="12.516226792887895"><ele>285.0</ele><time>2026-04-25T09:12:23Z</time></trkpt><trkpt lat="43.672777799187024" lon="12.516197748254838"><ele>285.0</ele><time>2026-04-25T09:12:25Z</time></trkpt><trkpt lat="43.6726816958357" lon="12.516072295056176"><ele>285.0</ele><time>2026-04-25T09:18:01.999Z</time></trkpt><trkpt lat="43.67262661569151" lon="12.516136366292955"><ele>285.0</ele><time>2026-04-25T09:18:03Z</time></trkpt><trkpt lat="43.67256128987858" lon="12.516210111452443"><ele>285.0</ele><time>2026-04-25T09:18:04Z</time></trkpt><trkpt lat="43.67248400502859" lon="12.51629899592738"><ele>285.0</ele><time>2026-04-25T09:18:05Z</time></trkpt><trkpt lat="43.672393699796594" lon="12.516402537446789"><ele>285.0</ele><time>2026-04-25T09:18:06Z</time></trkpt><trkpt lat="43.67230080798931" lon="12.516511206088097"><ele>285.0</ele><time>2026-04-25T09:18:07Z</time></trkpt><trkpt lat="43.67221245128572" lon="12.516614828370987"><ele>285.0</ele><time>2026-04-25T09:18:08Z</time></trkpt><trkpt lat="43.67212365218676" lon="12.516712195720565"><ele>285.0</ele><time>2026-04-25T09:18:09Z</time></trkpt><trkpt lat="43.67203742059426" lon="12.516811014559865"><ele>285.0</ele><time>2026-04-25T09:18:10Z</time></trkpt><trkpt lat="43.671952651993" lon="12.516906723014605"><ele>285.0</ele><time>2026-04-25T09:18:11Z</time></trkpt><trkpt lat="43.671869450526934" lon="12.51700215192281"><ele>285.0</ele><time>2026-04-25T09:18:12Z</time></trkpt><trkpt lat="43.67179101699668" lon="12.51710019169781"><ele>284.2</ele><time>2026-04-25T09:18:13Z</time></trkpt><trkpt lat="43.67171318900128" lon="12.517200849303597"><ele>283.4</ele><time>2026-04-25T09:18:14Z</time></trkpt><trkpt lat="43.67163848790543" lon="12.517306521068301"><ele>282.6</ele><time>2026-04-25T09:18:15Z</time></trkpt><trkpt lat="43.6715688696872" lon="12.517412778190016"><ele>281.8</ele><time>2026-04-25T09:18:16Z</time></trkpt><trkpt lat="43.67150037541542" lon="12.51752349996045"><ele>281.0</ele><time>2026-04-25T09:18:17Z</time></trkpt><trkpt lat="43.67143521446068" lon="12.517631454574278"><ele>281.0</ele><time>2026-04-25T09:18:18Z</time></trkpt><trkpt lat="43.67137346797472" lon="12.517726592692041"><ele>281.0</ele><time>2026-04-25T09:18:19Z</time></trkpt><trkpt lat="43.67131538543516" lon="12.517793730865794"><ele>281.0</ele><time>2026-04-25T09:18:20Z</time></trkpt><trkpt lat="43.671253640058964" lon="12.517828548663761"><ele>281.0</ele><time>2026-04-25T09:18:21Z</time></trkpt><trkpt lat="43.67119317966531" lon="12.51786471525623"><ele>281.0</ele><time>2026-04-25T09:18:22Z</time></trkpt><trkpt lat="43.67109870321922" lon="12.517966870907403"><ele>281.0</ele><time>2026-04-25T09:18:24Z</time></trkpt><trkpt lat="43.671089399331834" lon="12.518137156506475"><ele>280.5</ele><time>2026-04-25T09:18:26Z</time></trkpt><trkpt lat="43.67112058176156" lon="12.518216584708613"><ele>280.0</ele><time>2026-04-25T09:18:27Z</time></trkpt><trkpt lat="43.67117081119314" lon="12.518283645559569"><ele>279.5</ele><time>2026-04-25T09:18:28Z</time></trkpt><trkpt lat="43.67122137183127" lon="12.518349498800498"><ele>279.0</ele><time>2026-04-25T09:18:29Z</time></trkpt><trkpt lat="43.67127782841295" lon="12.518539549094504"><ele>278.5</ele><time>2026-04-25T09:18:31Z</time></trkpt><trkpt lat="43.67128227388245" lon="12.518656002647715"><ele>278.0</ele><time>2026-04-25T09:18:32Z</time></trkpt><trkpt lat="43.671272723346426" lon="12.518768550960425"><ele>276.0</ele><time>2026-04-25T09:18:33Z</time></trkpt><trkpt lat="43.67126420458151" lon="12.518892232319027"><ele>274.0</ele><time>2026-04-25T09:18:34Z</time></trkpt><trkpt lat="43.67125888743575" lon="12.519014823746174"><ele>272.0</ele><time>2026-04-25T09:18:35Z</time></trkpt><trkpt lat="43.67124674654562" lon="12.519149835723507"><ele>270.0</ele><time>2026-04-25T09:18:36Z</time></trkpt><trkpt lat="43.671230995737254" lon="12.519290685318621"><ele>268.0</ele><time>2026-04-25T09:18:37Z</time></trkpt><trkpt lat="43.6712138241552" lon="12.519431542865911"><ele>267.2</ele><time>2026-04-25T09:18:38Z</time></trkpt><trkpt lat="43.671197245567036" lon="12.519574734299026"><ele>266.4</ele><time>2026-04-25T09:18:39Z</time></trkpt><trkpt lat="43.67118359547085" lon="12.519720934151726"><ele>265.59999999999997</ele><time>2026-04-25T09:18:40Z</time></trkpt><trkpt lat="43.6711723884589" lon="12.519868581086433"><ele>264.8</ele><time>2026-04-25T09:18:41Z</time></trkpt><trkpt lat="43.6711610387943" lon="12.520016356595425"><ele>264.0</ele><time>2026-04-25T09:18:42Z</time></trkpt><trkpt lat="43.671150054404954" lon="12.520165477177466"><ele>264.0</ele><time>2026-04-25T09:18:43Z</time></trkpt><trkpt lat="43.67113948945406" lon="12.520315316149869"><ele>264.0</ele><time>2026-04-25T09:18:44Z</time></trkpt><trkpt lat="43.67113086999893" lon="12.520462281002931"><ele>264.0</ele><time>2026-04-25T09:18:45Z</time></trkpt><trkpt lat="43.67112506739297" lon="12.52060553668351"><ele>264.0</ele><time>2026-04-25T09:18:46Z</time></trkpt><trkpt lat="43.67112413619068" lon="12.520744316755989"><ele>264.0</ele><time>2026-04-25T09:18:47Z</time></trkpt><trkpt lat="43.67112695949405" lon="12.52087803420924"><ele>265.6666666666667</ele><time>2026-04-25T09:18:48Z</time></trkpt><trkpt lat="43.67113646043952" lon="12.521006408112521"><ele>267.3333333333333</ele><time>2026-04-25T09:18:49Z</time></trkpt><trkpt lat="43.67115017653368" lon="12.521130947202678"><ele>269.0</ele><time>2026-04-25T09:18:50Z</time></trkpt><trkpt lat="43.67116455493899" lon="12.521244378279555"><ele>270.66666666666663</ele><time>2026-04-25T09:18:51Z</time></trkpt><trkpt lat="43.67117995236508" lon="12.521345796212845"><ele>272.3333333333333</ele><time>2026-04-25T09:18:52Z</time></trkpt><trkpt lat="43.67119726843331" lon="12.521435234671277"><ele>274.0</ele><time>2026-04-25T09:18:53Z</time></trkpt><trkpt lat="43.67122890833167" lon="12.521551548773504"><ele>274.00000000000006</ele><time>2026-04-25T09:18:55Z</time></trkpt><trkpt lat="43.67117436736423" lon="12.521507291869941"><ele>274.0</ele><time>2026-04-25T09:20:14Z</time></trkpt><trkpt lat="43.671206155014765" lon="12.521592620069384"><ele>274.0</ele><time>2026-04-25T09:30:54Z</time></trkpt><trkpt lat="43.671270941562746" lon="12.52159612067666"><ele>274.0</ele><time>2026-04-25T09:32:28.999Z</time></trkpt><trkpt lat="43.67129349981978" lon="12.521510775832986"><ele>274.0</ele><time>2026-04-25T09:32:33.999Z</time></trkpt><trkpt lat="43.67128858174775" lon="12.521409245765993"><ele>274.00000000000006</ele><time>2026-04-25T09:32:35.999Z</time></trkpt><trkpt lat="43.67126339419243" lon="12.52131728285853"><ele>274.0</ele><time>2026-04-25T09:32:37.999Z</time></trkpt><trkpt lat="43.671241697475416" lon="12.52122002097022"><ele>274.0</ele><time>2026-04-25T09:32:39.999Z</time></trkpt><trkpt lat="43.67122796742181" lon="12.521116591735161"><ele>274.0</ele><time>2026-04-25T09:32:41.999Z</time></trkpt><trkpt lat="43.67120853423168" lon="12.521019636043494"><ele>274.0</ele><time>2026-04-25T09:32:44Z</time></trkpt><trkpt lat="43.67120338639516" lon="12.520906574615626"><ele>274.0</ele><time>2026-04-25T09:32:46Z</time></trkpt><trkpt lat="43.67119461520976" lon="12.520788396275568"><ele>274.0</ele><time>2026-04-25T09:32:48Z</time></trkpt><trkpt lat="43.67118999196766" lon="12.520677419551536"><ele>274.0</ele><time>2026-04-25T09:32:50Z</time></trkpt><trkpt lat="43.67119674327271" lon="12.520568632600778"><ele>274.0</ele><time>2026-04-25T09:32:52Z</time></trkpt><trkpt lat="43.67120473468545" lon="12.520454085633576"><ele>274.0</ele><time>2026-04-25T09:32:54Z</time></trkpt><trkpt lat="43.67121208559818" lon="12.520339606843399"><ele>274.0</ele><time>2026-04-25T09:32:56Z</time></trkpt><trkpt lat="43.67122158577738" lon="12.52022228597686"><ele>274.0</ele><time>2026-04-25T09:32:58Z</time></trkpt><trkpt lat="43.67123432629692" lon="12.520105169419605"><ele>274.0</ele><time>2026-04-25T09:33:00Z</time></trkpt><trkpt lat="43.67124347468196" lon="12.519979131729277"><ele>274.0</ele><time>2026-04-25T09:33:02Z</time></trkpt><trkpt lat="43.67125449046598" lon="12.519853124022895"><ele>272.8</ele><time>2026-04-25T09:33:04Z</time></trkpt><trkpt lat="43.67126393302927" lon="12.519724701187052"><ele>271.59999999999997</ele><time>2026-04-25T09:33:06Z</time></trkpt><trkpt lat="43.67127491567782" lon="12.519590323757042"><ele>270.4</ele><time>2026-04-25T09:33:08Z</time></trkpt><trkpt lat="43.67128963832228" lon="12.519448546663817"><ele>269.2</ele><time>2026-04-25T09:33:10Z</time></trkpt><trkpt lat="43.67129975413131" lon="12.519307580006387"><ele>268.0</ele><time>2026-04-25T09:33:12Z</time></trkpt><trkpt lat="43.67131121524591" lon="12.519167574723053"><ele>268.0</ele><time>2026-04-25T09:33:14Z</time></trkpt><trkpt lat="43.67132605257214" lon="12.519034078131398"><ele>268.0</ele><time>2026-04-25T09:33:16Z</time></trkpt><trkpt lat="43.67133700548124" lon="12.518905957257456"><ele>268.0</ele><time>2026-04-25T09:33:18Z</time></trkpt><trkpt lat="43.67135117237603" lon="12.518779020012012"><ele>268.0</ele><time>2026-04-25T09:33:20Z</time></trkpt><trkpt lat="43.6713630722921" lon="12.518649206030014"><ele>268.0</ele><time>2026-04-25T09:33:22Z</time></trkpt><trkpt lat="43.67137118410325" lon="12.518506056168736"><ele>270.0</ele><time>2026-04-25T09:33:24Z</time></trkpt><trkpt lat="43.67138750320209" lon="12.518356706225326"><ele>272.0</ele><time>2026-04-25T09:33:26Z</time></trkpt><trkpt lat="43.671423643325994" lon="12.51820809820329"><ele>274.0</ele><time>2026-04-25T09:33:28Z</time></trkpt><trkpt lat="43.67145518642665" lon="12.518058716106443"><ele>276.0</ele><time>2026-04-25T09:33:30Z</time></trkpt><trkpt lat="43.67145383526913" lon="12.517910066955476"><ele>278.0</ele><time>2026-04-25T09:33:32Z</time></trkpt><trkpt lat="43.67151171775009" lon="12.517841953356312"><ele>278.75</ele><time>2026-04-25T09:33:33Z</time></trkpt><trkpt lat="43.671558097844596" lon="12.517702638602366"><ele>279.5</ele><time>2026-04-25T09:33:35Z</time></trkpt><trkpt lat="43.6716140977075" lon="12.517569927210898"><ele>280.25</ele><time>2026-04-25T09:33:37Z</time></trkpt><trkpt lat="43.67167641925254" lon="12.517439395205248"><ele>281.0</ele><time>2026-04-25T09:33:39Z</time></trkpt><trkpt lat="43.6717434572252" lon="12.517308881699394"><ele>281.0</ele><time>2026-04-25T09:33:41Z</time></trkpt><trkpt lat="43.671818362097966" lon="12.517186262819259"><ele>281.0</ele><time>2026-04-25T09:33:43Z</time></trkpt><trkpt lat="43.671907320827245" lon="12.517059120704648"><ele>281.0</ele><time>2026-04-25T09:33:45Z</time></trkpt><trkpt lat="43.671959037622294" lon="12.51699608157298"><ele>281.0</ele><time>2026-04-25T09:33:46Z</time></trkpt><trkpt lat="43.67201319080062" lon="12.516933249419978"><ele>281.0</ele><time>2026-04-25T09:33:47Z</time></trkpt><trkpt lat="43.67206701776167" lon="12.516871232057264"><ele>281.5714285714286</ele><time>2026-04-25T09:33:48Z</time></trkpt><trkpt lat="43.67211783916189" lon="12.516814728538483"><ele>282.14285714285717</ele><time>2026-04-25T09:33:49Z</time></trkpt><trkpt lat="43.67216735274511" lon="12.516754756997713"><ele>282.7142857142857</ele><time>2026-04-25T09:33:50Z</time></trkpt><trkpt lat="43.67221751699552" lon="12.516698992998634"><ele>283.28571428571433</ele><time>2026-04-25T09:33:51Z</time></trkpt><trkpt lat="43.672267554078616" lon="12.516642675529383"><ele>283.8571428571429</ele><time>2026-04-25T09:33:52Z</time></trkpt><trkpt lat="43.67231679753529" lon="12.51658692532009"><ele>284.42857142857144</ele><time>2026-04-25T09:33:53Z</time></trkpt><trkpt lat="43.67236637891262" lon="12.51653163586547"><ele>285.0</ele><time>2026-04-25T09:33:54Z</time></trkpt><trkpt lat="43.67241603033798" lon="12.516474101306946"><ele>285.0</ele><time>2026-04-25T09:33:55Z</time></trkpt><trkpt lat="43.67246523668228" lon="12.516417025459985"><ele>285.0</ele><time>2026-04-25T09:33:56Z</time></trkpt><trkpt lat="43.67251599419099" lon="12.516358158616661"><ele>285.0</ele><time>2026-04-25T09:33:57Z</time></trkpt><trkpt lat="43.672565971913784" lon="12.516298578494478"><ele>285.0</ele><time>2026-04-25T09:33:58Z</time></trkpt><trkpt lat="43.67261527278142" lon="12.51624027116122"><ele>285.0</ele><time>2026-04-25T09:33:59Z</time></trkpt><trkpt lat="43.672665216473376" lon="12.516182844075574"><ele>285.0</ele><time>2026-04-25T09:34:00Z</time></trkpt><trkpt lat="43.67271572776213" lon="12.516128068791383"><ele>285.0</ele><time>2026-04-25T09:34:01Z</time></trkpt><trkpt lat="43.672766944640344" lon="12.516073114587938"><ele>285.7142857142857</ele><time>2026-04-25T09:34:02Z</time></trkpt><trkpt lat="43.67281693600805" lon="12.51601803452758"><ele>286.42857142857144</ele><time>2026-04-25T09:34:03Z</time></trkpt><trkpt lat="43.6728681763095" lon="12.515959988831604"><ele>287.14285714285717</ele><time>2026-04-25T09:34:04Z</time></trkpt><trkpt lat="43.67291860415307" lon="12.515901530970877"><ele>287.8571428571429</ele><time>2026-04-25T09:34:05Z</time></trkpt><trkpt lat="43.67297016892854" lon="12.515842046910095"><ele>288.5714285714286</ele><time>2026-04-25T09:34:06Z</time></trkpt><trkpt lat="43.67302992848577" lon="12.515773803222695"><ele>289.2857142857143</ele><time>2026-04-25T09:34:07Z</time></trkpt><trkpt lat="43.673103511398736" lon="12.515692147363588"><ele>290.0</ele><time>2026-04-25T09:34:08Z</time></trkpt><trkpt lat="43.673185398585034" lon="12.515600067770283"><ele>290.0</ele><time>2026-04-25T09:34:09Z</time></trkpt><trkpt lat="43.67326964890691" lon="12.51549890110143"><ele>290.0</ele><time>2026-04-25T09:34:10Z</time></trkpt><trkpt lat="43.673362913472666" lon="12.515390399908046"><ele>290.0</ele><time>2026-04-25T09:34:11Z</time></trkpt><trkpt lat="43.67346334408308" lon="12.515285822044975"><ele>290.0</ele><time>2026-04-25T09:34:12Z</time></trkpt><trkpt lat="43.67357212739865" lon="12.515175768847824"><ele>290.5</ele><time>2026-04-25T09:34:13Z</time></trkpt><trkpt lat="43.67368516044001" lon="12.515065587775371"><ele>291.0</ele><time>2026-04-25T09:34:14Z</time></trkpt><trkpt lat="43.673803445116874" lon="12.514954125510958"><ele>291.5</ele><time>2026-04-25T09:34:15Z</time></trkpt><trkpt lat="43.67392104993707" lon="12.514843279556464"><ele>292.0</ele><time>2026-04-25T09:34:16Z</time></trkpt><trkpt lat="43.67403501037889" lon="12.514730935132489"><ele>292.0</ele><time>2026-04-25T09:34:17Z</time></trkpt><trkpt lat="43.67414954658695" lon="12.514619012423928"><ele>292.0</ele><time>2026-04-25T09:34:18Z</time></trkpt><trkpt lat="43.67426442384295" lon="12.514511998031258"><ele>292.0</ele><time>2026-04-25T09:34:19Z</time></trkpt><trkpt lat="43.67437301743945" lon="12.514410463634691"><ele>292.0</ele><time>2026-04-25T09:34:20Z</time></trkpt><trkpt lat="43.67448240568748" lon="12.514306015842509"><ele>292.0</ele><time>2026-04-25T09:34:21Z</time></trkpt><trkpt lat="43.67459457682871" lon="12.514201746374912"><ele>292.0</ele><time>2026-04-25T09:34:22Z</time></trkpt><trkpt lat="43.67469328405627" lon="12.514096409869136"><ele>292.0</ele><time>2026-04-25T09:34:22.999Z</time></trkpt><trkpt lat="43.67479146968599" lon="12.51401672949866"><ele>292.0</ele><time>2026-04-25T09:34:23.999Z</time></trkpt><trkpt lat="43.67487034934696" lon="12.513938950797158"><ele>292.0</ele><time>2026-04-25T09:34:24.999Z</time></trkpt><trkpt lat="43.6749310525721" lon="12.513879094436279"><ele>292.0</ele><time>2026-04-25T09:34:25.999Z</time></trkpt><trkpt lat="43.674849382160524" lon="12.513681488528734"><ele>292.0</ele><time>2026-04-25T09:34:27.999Z</time></trkpt><trkpt lat="43.67478735793529" lon="12.513582248275656"><ele>292.0</ele><time>2026-04-25T09:34:28.999Z</time></trkpt><trkpt lat="43.674720029806906" lon="12.513482215575458"><ele>292.0</ele><time>2026-04-25T09:34:29.999Z</time></trkpt><trkpt lat="43.67464718542558" lon="12.513383139326317"><ele>292.0</ele><time>2026-04-25T09:34:30.999Z</time></trkpt><trkpt lat="43.67459110432614" lon="12.51324085223415"><ele>292.0</ele><time>2026-04-25T09:34:31.999Z</time></trkpt><trkpt lat="43.67454901467194" lon="12.513084840630896"><ele>292.0</ele><time>2026-04-25T09:34:32.999Z</time></trkpt><trkpt lat="43.674504584057594" lon="12.512956428921886"><ele>292.0</ele><time>2026-04-25T09:34:33.999Z</time></trkpt><trkpt lat="43.674463968917166" lon="12.5128398176886"><ele>292.0</ele><time>2026-04-25T09:34:34.999Z</time></trkpt><trkpt lat="43.67442240985233" lon="12.512717340467729"><ele>292.4</ele><time>2026-04-25T09:34:35.999Z</time></trkpt><trkpt lat="43.67438060129625" lon="12.512593431243367"><ele>292.79999999999995</ele><time>2026-04-25T09:34:36.999Z</time></trkpt><trkpt lat="43.674336987158156" lon="12.512466580765675"><ele>293.2</ele><time>2026-04-25T09:34:37.999Z</time></trkpt><trkpt lat="43.674291815944486" lon="12.512338591933837"><ele>293.59999999999997</ele><time>2026-04-25T09:34:38.999Z</time></trkpt><trkpt lat="43.674246743105186" lon="12.512202792889227"><ele>294.0</ele><time>2026-04-25T09:34:39.999Z</time></trkpt><trkpt lat="43.67420165844285" lon="12.512065753783473"><ele>294.0</ele><time>2026-04-25T09:34:40.999Z</time></trkpt><trkpt lat="43.67415603386906" lon="12.511930456263034"><ele>294.0</ele><time>2026-04-25T09:34:41.999Z</time></trkpt><trkpt lat="43.67411140691315" lon="12.511804092564663"><ele>294.0</ele><time>2026-04-25T09:34:42.999Z</time></trkpt><trkpt lat="43.674070468994536" lon="12.511688303777863"><ele>294.0</ele><time>2026-04-25T09:34:43.999Z</time></trkpt><trkpt lat="43.674035017901254" lon="12.511581680525499"><ele>294.0</ele><time>2026-04-25T09:34:44.999Z</time></trkpt><trkpt lat="43.67400536473381" lon="12.511486757493447"><ele>294.0</ele><time>2026-04-25T09:34:45.999Z</time></trkpt><trkpt lat="43.67396938341219" lon="12.511387652187162"><ele>294.0</ele><time>2026-04-25T09:34:46.999Z</time></trkpt><trkpt lat="43.67394641909315" lon="12.511285057922255"><ele>294.0</ele><time>2026-04-25T09:34:47.999Z</time></trkpt><trkpt lat="43.67376992120482" lon="12.511237579477962"><ele>294.0</ele><time>2026-04-25T09:34:50Z</time></trkpt><trkpt lat="43.673677516758275" lon="12.511260962200002"><ele>294.0</ele><time>2026-04-25T09:34:51Z</time></trkpt><trkpt lat="43.67357264574688" lon="12.511293813804874"><ele>295.5</ele><time>2026-04-25T09:34:52Z</time></trkpt><trkpt lat="43.673450938854444" lon="12.511321810481302"><ele>297.0</ele><time>2026-04-25T09:34:53Z</time></trkpt><trkpt lat="43.673316912800004" lon="12.511355342570031"><ele>298.5</ele><time>2026-04-25T09:34:54Z</time></trkpt><trkpt lat="43.67316954388679" lon="12.511391066734232"><ele>300.0</ele><time>2026-04-25T09:34:55Z</time></trkpt><trkpt lat="43.67302104190284" lon="12.511441896892087"><ele>300.0</ele><time>2026-04-25T09:34:56Z</time></trkpt><trkpt lat="43.67287662102942" lon="12.511507768353887"><ele>300.0</ele><time>2026-04-25T09:34:57Z</time></trkpt><trkpt lat="43.672738988816455" lon="12.51159264680526"><ele>300.0</ele><time>2026-04-25T09:34:58Z</time></trkpt><trkpt lat="43.6726098846361" lon="12.511712434723341"><ele>300.25</ele><time>2026-04-25T09:34:59Z</time></trkpt><trkpt lat="43.67250255338773" lon="12.511863244412865"><ele>300.5</ele><time>2026-04-25T09:35:00Z</time></trkpt><trkpt lat="43.67240707962898" lon="12.512022883946987"><ele>300.75</ele><time>2026-04-25T09:35:01Z</time></trkpt><trkpt lat="43.67232034407572" lon="12.512184407906561"><ele>301.0</ele><time>2026-04-25T09:35:02Z</time></trkpt><trkpt lat="43.67223358650817" lon="12.512349180140172"><ele>300.25</ele><time>2026-04-25T09:35:03Z</time></trkpt><trkpt lat="43.67214929685818" lon="12.512508314674"><ele>299.5</ele><time>2026-04-25T09:35:04Z</time></trkpt><trkpt lat="43.67206508391736" lon="12.51267302064904"><ele>298.75</ele><time>2026-04-25T09:35:05Z</time></trkpt><trkpt lat="43.6719785387154" lon="12.512840173671202"><ele>298.0</ele><time>2026-04-25T09:35:06Z</time></trkpt><trkpt lat="43.67189050570792" lon="12.51300845975787"><ele>297.0</ele><time>2026-04-25T09:35:07Z</time></trkpt><trkpt lat="43.671801575401965" lon="12.51317734423138"><ele>296.0</ele><time>2026-04-25T09:35:08Z</time></trkpt><trkpt lat="43.67171189279687" lon="12.513347650531994"><ele>295.0</ele><time>2026-04-25T09:35:09Z</time></trkpt><trkpt lat="43.67162328099814" lon="12.513511845747756"><ele>295.0</ele><time>2026-04-25T09:35:10Z</time></trkpt><trkpt lat="43.67153438350385" lon="12.5136778076279"><ele>295.0</ele><time>2026-04-25T09:35:11Z</time></trkpt><trkpt lat="43.67144715606079" lon="12.513837728100814"><ele>295.0</ele><time>2026-04-25T09:35:12Z</time></trkpt><trkpt lat="43.671361011028814" lon="12.51399706796016"><ele>295.0</ele><time>2026-04-25T09:35:13Z</time></trkpt><trkpt lat="43.671276218158155" lon="12.51416196159774"><ele>294.25</ele><time>2026-04-25T09:35:14Z</time></trkpt><trkpt lat="43.67119347559688" lon="12.514323226073484"><ele>293.5</ele><time>2026-04-25T09:35:15Z</time></trkpt><trkpt lat="43.67111522528395" lon="12.514474170064156"><ele>292.75</ele><time>2026-04-25T09:35:16Z</time></trkpt><trkpt lat="43.6710404090456" lon="12.51462095801435"><ele>292.0</ele><time>2026-04-25T09:35:17Z</time></trkpt><trkpt lat="43.67096929311065" lon="12.514756118987385"><ele>292.0</ele><time>2026-04-25T09:35:18Z</time></trkpt><trkpt lat="43.67089804118117" lon="12.51488247197789"><ele>292.0</ele><time>2026-04-25T09:35:19Z</time></trkpt><trkpt lat="43.670825559392846" lon="12.51500879588401"><ele>292.0</ele><time>2026-04-25T09:35:20Z</time></trkpt><trkpt lat="43.67074719738015" lon="12.515137553438214"><ele>292.0</ele><time>2026-04-25T09:35:21Z</time></trkpt><trkpt lat="43.67065909597465" lon="12.515266346923319"><ele>292.0</ele><time>2026-04-25T09:35:22Z</time></trkpt><trkpt lat="43.670563459744535" lon="12.515390386235028"><ele>292.0</ele><time>2026-04-25T09:35:23Z</time></trkpt><trkpt lat="43.670460577660876" lon="12.515509781212849"><ele>292.0</ele><time>2026-04-25T09:35:24Z</time></trkpt><trkpt lat="43.670356933899896" lon="12.515623218225375"><ele>292.0</ele><time>2026-04-25T09:35:25Z</time></trkpt><trkpt lat="43.670257740022926" lon="12.515724660245594"><ele>292.0</ele><time>2026-04-25T09:35:26Z</time></trkpt><trkpt lat="43.67016004690054" lon="12.51582540041897"><ele>292.0</ele><time>2026-04-25T09:35:27Z</time></trkpt><trkpt lat="43.670063967061374" lon="12.515929196880137"><ele>292.0</ele><time>2026-04-25T09:35:28Z</time></trkpt><trkpt lat="43.66996760364912" lon="12.516031751230763"><ele>292.0</ele><time>2026-04-25T09:35:29Z</time></trkpt><trkpt lat="43.66986983822077" lon="12.516132415099037"><ele>292.0</ele><time>2026-04-25T09:35:30Z</time></trkpt><trkpt lat="43.66977051092962" lon="12.516235098415795"><ele>292.0</ele><time>2026-04-25T09:35:31Z</time></trkpt><trkpt lat="43.669667857017146" lon="12.516337339505748"><ele>292.0</ele><time>2026-04-25T09:35:32Z</time></trkpt><trkpt lat="43.66956518457606" lon="12.516429991415329"><ele>292.0</ele><time>2026-04-25T09:35:33Z</time></trkpt><trkpt lat="43.669452485432025" lon="12.516513928512088"><ele>291.0</ele><time>2026-04-25T09:35:34Z</time></trkpt><trkpt lat="43.66933174745146" lon="12.51657555902729"><ele>290.0</ele><time>2026-04-25T09:35:35Z</time></trkpt><trkpt lat="43.66920859711179" lon="12.516629372633052"><ele>289.0</ele><time>2026-04-25T09:35:36Z</time></trkpt><trkpt lat="43.669082261264904" lon="12.516684481566717"><ele>288.0</ele><time>2026-04-25T09:35:37Z</time></trkpt><trkpt lat="43.66895648509699" lon="12.516740669505701"><ele>288.0</ele><time>2026-04-25T09:35:38Z</time></trkpt><trkpt lat="43.66882844590121" lon="12.516796090626809"><ele>288.0</ele><time>2026-04-25T09:35:39Z</time></trkpt><trkpt lat="43.66870120829178" lon="12.516851229305715"><ele>288.0</ele><time>2026-04-25T09:35:40Z</time></trkpt><trkpt lat="43.66857410952305" lon="12.516907694744626"><ele>288.0</ele><time>2026-04-25T09:35:41Z</time></trkpt><trkpt lat="43.668448538217206" lon="12.516964022791141"><ele>287.5</ele><time>2026-04-25T09:35:42Z</time></trkpt><trkpt lat="43.66832403729489" lon="12.51701881151977"><ele>287.0</ele><time>2026-04-25T09:35:43Z</time></trkpt><trkpt lat="43.66820047034449" lon="12.517068717002964"><ele>286.5</ele><time>2026-04-25T09:35:44Z</time></trkpt><trkpt lat="43.66807817332416" lon="12.517122210059993"><ele>286.0</ele><time>2026-04-25T09:35:45Z</time></trkpt><trkpt lat="43.66795442586136" lon="12.51717563379334"><ele>286.0</ele><time>2026-04-25T09:35:46Z</time></trkpt><trkpt lat="43.66782692358105" lon="12.517230280662222"><ele>286.0</ele><time>2026-04-25T09:35:47Z</time></trkpt><trkpt lat="43.66769837904721" lon="12.517282059575045"><ele>286.0</ele><time>2026-04-25T09:35:48Z</time></trkpt><trkpt lat="43.66756871969248" lon="12.517333955353529"><ele>286.0</ele><time>2026-04-25T09:35:49Z</time></trkpt><trkpt lat="43.66743961575281" lon="12.517389818729503"><ele>286.0</ele><time>2026-04-25T09:35:50Z</time></trkpt><trkpt lat="43.667316633243544" lon="12.517448753715504"><ele>286.0</ele><time>2026-04-25T09:35:51Z</time></trkpt><trkpt lat="43.667203203936744" lon="12.517511984656942"><ele>286.0</ele><time>2026-04-25T09:35:52Z</time></trkpt><trkpt lat="43.667099464472294" lon="12.517574575655415"><ele>286.0</ele><time>2026-04-25T09:35:53Z</time></trkpt><trkpt lat="43.66700564355831" lon="12.517638728613774"><ele>286.2</ele><time>2026-04-25T09:35:54Z</time></trkpt><trkpt lat="43.666930349376386" lon="12.51770108745635"><ele>286.40000000000003</ele><time>2026-04-25T09:35:55Z</time></trkpt><trkpt lat="43.66686712907779" lon="12.51774831484068"><ele>286.6</ele><time>2026-04-25T09:35:56Z</time></trkpt><trkpt lat="43.666786985307695" lon="12.517790708146277"><ele>286.8</ele><time>2026-04-25T09:35:58Z</time></trkpt><trkpt lat="43.66672304706539" lon="12.517591845213145"><ele>287.0</ele><time>2026-04-25T09:36:00Z</time></trkpt><trkpt lat="43.666683342775784" lon="12.51749792216678"><ele>287.0</ele><time>2026-04-25T09:36:01Z</time></trkpt><trkpt lat="43.66666224610651" lon="12.517364464620549"><ele>287.0</ele><time>2026-04-25T09:36:02Z</time></trkpt><trkpt lat="43.66664114908843" lon="12.51721845223085"><ele>287.0</ele><time>2026-04-25T09:36:03Z</time></trkpt><trkpt lat="43.66662648006458" lon="12.517068715616897"><ele>287.0</ele><time>2026-04-25T09:36:04Z</time></trkpt><trkpt lat="43.666615536298465" lon="12.516911632641646"><ele>287.0</ele><time>2026-04-25T09:36:05Z</time></trkpt><trkpt lat="43.66659033208942" lon="12.516755018481271"><ele>287.25</ele><time>2026-04-25T09:36:06Z</time></trkpt><trkpt lat="43.666552076351195" lon="12.516597867743249"><ele>287.5</ele><time>2026-04-25T09:36:07Z</time></trkpt><trkpt lat="43.66650678405919" lon="12.516449507084682"><ele>287.75</ele><time>2026-04-25T09:36:08Z</time></trkpt><trkpt lat="43.66644279160424" lon="12.516315746248123"><ele>288.0</ele><time>2026-04-25T09:36:09Z</time></trkpt><trkpt lat="43.66635987069064" lon="12.516189956076644"><ele>288.0</ele><time>2026-04-25T09:36:10Z</time></trkpt><trkpt lat="43.66627735973621" lon="12.516065912928253"><ele>288.0</ele><time>2026-04-25T09:36:11Z</time></trkpt><trkpt lat="43.666203353479254" lon="12.515925648948405"><ele>288.0</ele><time>2026-04-25T09:36:12Z</time></trkpt><trkpt lat="43.66614392964076" lon="12.515781475597983"><ele>288.0</ele><time>2026-04-25T09:36:13Z</time></trkpt><trkpt lat="43.6661047429511" lon="12.515651427622611"><ele>288.0</ele><time>2026-04-25T09:36:14Z</time></trkpt><trkpt lat="43.66607293118667" lon="12.515514815145677"><ele>288.0</ele><time>2026-04-25T09:36:15Z</time></trkpt><trkpt lat="43.66604871399549" lon="12.515357933292346"><ele>288.0</ele><time>2026-04-25T09:36:16Z</time></trkpt><trkpt lat="43.66603065341509" lon="12.515189934641814"><ele>288.0</ele><time>2026-04-25T09:36:17Z</time></trkpt><trkpt lat="43.666017258312344" lon="12.515014467846703"><ele>289.0</ele><time>2026-04-25T09:36:18Z</time></trkpt><trkpt lat="43.666018171651366" lon="12.514838886550727"><ele>290.0</ele><time>2026-04-25T09:36:19Z</time></trkpt><trkpt lat="43.666034759075906" lon="12.514670134328686"><ele>291.0</ele><time>2026-04-25T09:36:20Z</time></trkpt><trkpt lat="43.666051982207584" lon="12.514501685007934"><ele>292.0</ele><time>2026-04-25T09:36:21Z</time></trkpt><trkpt lat="43.66606007548151" lon="12.514328619661242"><ele>293.25</ele><time>2026-04-25T09:36:22Z</time></trkpt><trkpt lat="43.66606625033184" lon="12.51415399292267"><ele>294.5</ele><time>2026-04-25T09:36:23Z</time></trkpt><trkpt lat="43.66606700588764" lon="12.513984576262963"><ele>295.75</ele><time>2026-04-25T09:36:24Z</time></trkpt><trkpt lat="43.66604667984714" lon="12.51381682691754"><ele>297.0</ele><time>2026-04-25T09:36:25Z</time></trkpt><trkpt lat="43.666020327074875" lon="12.513641173558081"><ele>297.8</ele><time>2026-04-25T09:36:26Z</time></trkpt><trkpt lat="43.66599533646854" lon="12.513477487666735"><ele>298.6</ele><time>2026-04-25T09:36:27Z</time></trkpt><trkpt lat="43.66597169828811" lon="12.513332717626481"><ele>299.40000000000003</ele><time>2026-04-25T09:36:28Z</time></trkpt><trkpt lat="43.66593923998628" lon="12.513200841270708"><ele>300.2</ele><time>2026-04-25T09:36:29Z</time></trkpt><trkpt lat="43.66589018745652" lon="12.513068973206188"><ele>301.0</ele><time>2026-04-25T09:36:30Z</time></trkpt><trkpt lat="43.66582994069663" lon="12.512928770989797"><ele>302.75</ele><time>2026-04-25T09:36:31Z</time></trkpt><trkpt lat="43.665762789856444" lon="12.512788714111537"><ele>304.5</ele><time>2026-04-25T09:36:32Z</time></trkpt><trkpt lat="43.66568801855551" lon="12.512651460455869"><ele>306.25</ele><time>2026-04-25T09:36:33Z</time></trkpt><trkpt lat="43.66562789522244" lon="12.512511358037253"><ele>308.0</ele><time>2026-04-25T09:36:34Z</time></trkpt><trkpt lat="43.665589941672884" lon="12.5123563243911"><ele>308.0</ele><time>2026-04-25T09:36:35Z</time></trkpt><trkpt lat="43.66556551314234" lon="12.512181242702287"><ele>308.0</ele><time>2026-04-25T09:36:36Z</time></trkpt><trkpt lat="43.665550139253554" lon="12.512006758996728"><ele>308.0</ele><time>2026-04-25T09:36:37Z</time></trkpt><trkpt lat="43.66553766468086" lon="12.511831653971548"><ele>308.0</ele><time>2026-04-25T09:36:38Z</time></trkpt><trkpt lat="43.66550744541171" lon="12.5116706797182"><ele>306.8</ele><time>2026-04-25T09:36:39Z</time></trkpt><trkpt lat="43.66547230601166" lon="12.511533040976019"><ele>305.6</ele><time>2026-04-25T09:36:40Z</time></trkpt><trkpt lat="43.66543965136993" lon="12.511393098822666"><ele>304.4</ele><time>2026-04-25T09:36:41Z</time></trkpt><trkpt lat="43.66539931774235" lon="12.511248838537282"><ele>303.2</ele><time>2026-04-25T09:36:41.999Z</time></trkpt><trkpt lat="43.665345359521034" lon="12.511101675956985"><ele>302.0</ele><time>2026-04-25T09:36:42.999Z</time></trkpt><trkpt lat="43.66527897258168" lon="12.510954794877875"><ele>302.0</ele><time>2026-04-25T09:36:43.999Z</time></trkpt><trkpt lat="43.66521647763546" lon="12.510806144749258"><ele>302.0</ele><time>2026-04-25T09:36:44.999Z</time></trkpt><trkpt lat="43.66515578637846" lon="12.510659789472475"><ele>302.0</ele><time>2026-04-25T09:36:45.999Z</time></trkpt><trkpt lat="43.66510518626909" lon="12.510504101035254"><ele>302.0</ele><time>2026-04-25T09:36:46.999Z</time></trkpt><trkpt lat="43.66506570759239" lon="12.510332417449847"><ele>303.25</ele><time>2026-04-25T09:36:47.999Z</time></trkpt><trkpt lat="43.6650387954657" lon="12.510157279455779"><ele>304.5</ele><time>2026-04-25T09:36:48.999Z</time></trkpt><trkpt lat="43.665014473610455" lon="12.509995176332412"><ele>305.75</ele><time>2026-04-25T09:36:49.999Z</time></trkpt><trkpt lat="43.66499007938791" lon="12.509845409680375"><ele>307.0</ele><time>2026-04-25T09:36:50.999Z</time></trkpt><trkpt lat="43.66496237949723" lon="12.509707561097922"><ele>307.0</ele><time>2026-04-25T09:36:51.999Z</time></trkpt><trkpt lat="43.66491000895853" lon="12.5095894123967"><ele>307.0</ele><time>2026-04-25T09:36:52.999Z</time></trkpt><trkpt lat="43.66484629277363" lon="12.509491587537239"><ele>307.0</ele><time>2026-04-25T09:36:53.999Z</time></trkpt><trkpt lat="43.664787827945865" lon="12.509391211577599"><ele>307.0</ele><time>2026-04-25T09:36:54.999Z</time></trkpt><trkpt lat="43.66471665390036" lon="12.509300183327467"><ele>307.0</ele><time>2026-04-25T09:36:56Z</time></trkpt><trkpt lat="43.66463423273089" lon="12.509220806063544"><ele>306.6</ele><time>2026-04-25T09:36:57Z</time></trkpt><trkpt lat="43.66455419727197" lon="12.509130787171577"><ele>306.2</ele><time>2026-04-25T09:36:58Z</time></trkpt><trkpt lat="43.66447092375976" lon="12.509035036256389"><ele>305.8</ele><time>2026-04-25T09:36:59Z</time></trkpt><trkpt lat="43.664381559742026" lon="12.508955649835546"><ele>305.4</ele><time>2026-04-25T09:37:00Z</time></trkpt><trkpt lat="43.664288353692854" lon="12.508880712083974"><ele>305.0</ele><time>2026-04-25T09:37:01Z</time></trkpt><trkpt lat="43.66419029796656" lon="12.508810017330807"><ele>307.6</ele><time>2026-04-25T09:37:02Z</time></trkpt><trkpt lat="43.66409555919134" lon="12.50873229538935"><ele>310.2</ele><time>2026-04-25T09:37:03Z</time></trkpt><trkpt lat="43.664009720370785" lon="12.508640739354485"><ele>312.8</ele><time>2026-04-25T09:37:04Z</time></trkpt><trkpt lat="43.66394747335777" lon="12.50852470376604"><ele>315.4</ele><time>2026-04-25T09:37:05Z</time></trkpt><trkpt lat="43.66387040462324" lon="12.508413131878736"><ele>318.0</ele><time>2026-04-25T09:37:06Z</time></trkpt><trkpt lat="43.663814215494654" lon="12.508266924736255"><ele>318.0</ele><time>2026-04-25T09:37:07Z</time></trkpt><trkpt lat="43.663765226457315" lon="12.508123580340715"><ele>318.0</ele><time>2026-04-25T09:37:08Z</time></trkpt><trkpt lat="43.66372468484035" lon="12.507987990540137"><ele>318.0</ele><time>2026-04-25T09:37:09Z</time></trkpt><trkpt lat="43.663681758162305" lon="12.507846393571056"><ele>318.0</ele><time>2026-04-25T09:37:10Z</time></trkpt><trkpt lat="43.663628291466786" lon="12.507703307881552"><ele>318.0</ele><time>2026-04-25T09:37:11Z</time></trkpt><trkpt lat="43.66356855801712" lon="12.507553800727553"><ele>317.0</ele><time>2026-04-25T09:37:12Z</time></trkpt><trkpt lat="43.66351976040229" lon="12.507381348861596"><ele>316.0</ele><time>2026-04-25T09:37:13Z</time></trkpt><trkpt lat="43.66345299941474" lon="12.507224246900574"><ele>315.0</ele><time>2026-04-25T09:37:14Z</time></trkpt><trkpt lat="43.66338123618649" lon="12.507066748861163"><ele>314.0</ele><time>2026-04-25T09:37:15Z</time></trkpt><trkpt lat="43.66331068081415" lon="12.506913947635399"><ele>314.0</ele><time>2026-04-25T09:37:16Z</time></trkpt><trkpt lat="43.663237349479616" lon="12.506758344691418"><ele>314.0</ele><time>2026-04-25T09:37:17Z</time></trkpt><trkpt lat="43.66315192322625" lon="12.506611464555316"><ele>314.0</ele><time>2026-04-25T09:37:18Z</time></trkpt><trkpt lat="43.66308291971349" lon="12.506447154656232"><ele>314.0</ele><time>2026-04-25T09:37:19Z</time></trkpt><trkpt lat="43.66303241577824" lon="12.506274596670906"><ele>314.25</ele><time>2026-04-25T09:37:20Z</time></trkpt><trkpt lat="43.66295867947082" lon="12.506123762443538"><ele>314.5</ele><time>2026-04-25T09:37:21Z</time></trkpt><trkpt lat="43.66290726179891" lon="12.50596118295215"><ele>314.75</ele><time>2026-04-25T09:37:22Z</time></trkpt><trkpt lat="43.66285344113216" lon="12.505804762053604"><ele>315.0</ele><time>2026-04-25T09:37:23Z</time></trkpt><trkpt lat="43.66279955372954" lon="12.505655556847666"><ele>315.75</ele><time>2026-04-25T09:37:24Z</time></trkpt><trkpt lat="43.662763643245576" lon="12.505499923166811"><ele>316.5</ele><time>2026-04-25T09:37:25Z</time></trkpt><trkpt lat="43.662700417341824" lon="12.50536623354859"><ele>317.25</ele><time>2026-04-25T09:37:26Z</time></trkpt><trkpt lat="43.662652202783235" lon="12.505226597281977"><ele>318.0</ele><time>2026-04-25T09:37:27Z</time></trkpt><trkpt lat="43.66260143110263" lon="12.505093816001636"><ele>318.0</ele><time>2026-04-25T09:37:28Z</time></trkpt><trkpt lat="43.66253992979852" lon="12.504970747256365"><ele>318.0</ele><time>2026-04-25T09:37:29Z</time></trkpt><trkpt lat="43.66248421930945" lon="12.504841117017836"><ele>318.0</ele><time>2026-04-25T09:37:30Z</time></trkpt><trkpt lat="43.66241141800227" lon="12.504728761463435"><ele>318.0</ele><time>2026-04-25T09:37:31Z</time></trkpt><trkpt lat="43.66233822512526" lon="12.5046179954505"><ele>318.0</ele><time>2026-04-25T09:37:32Z</time></trkpt><trkpt lat="43.66226356881256" lon="12.504507303097073"><ele>319.2</ele><time>2026-04-25T09:37:33Z</time></trkpt><trkpt lat="43.662176150118746" lon="12.504411156703954"><ele>320.4</ele><time>2026-04-25T09:37:34Z</time></trkpt><trkpt lat="43.66210332736443" lon="12.504296488801463"><ele>321.59999999999997</ele><time>2026-04-25T09:37:35Z</time></trkpt><trkpt lat="43.6620277227663" lon="12.504182162242769"><ele>322.8</ele><time>2026-04-25T09:37:36Z</time></trkpt><trkpt lat="43.661950535590954" lon="12.504067535909758"><ele>324.0</ele><time>2026-04-25T09:37:37Z</time></trkpt><trkpt lat="43.66187424566871" lon="12.503949598998751"><ele>324.0</ele><time>2026-04-25T09:37:38Z</time></trkpt><trkpt lat="43.66179810215496" lon="12.503831370981787"><ele>324.0</ele><time>2026-04-25T09:37:39Z</time></trkpt><trkpt lat="43.66172385848156" lon="12.503710913318695"><ele>324.0</ele><time>2026-04-25T09:37:40Z</time></trkpt><trkpt lat="43.66165050688708" lon="12.503590434497658"><ele>324.0</ele><time>2026-04-25T09:37:41Z</time></trkpt><trkpt lat="43.661576221955805" lon="12.503471497594015"><ele>325.75</ele><time>2026-04-25T09:37:42Z</time></trkpt><trkpt lat="43.66149740592475" lon="12.503360740762915"><ele>327.5</ele><time>2026-04-25T09:37:43Z</time></trkpt><trkpt lat="43.661417505742385" lon="12.503250751893754"><ele>329.25</ele><time>2026-04-25T09:37:44Z</time></trkpt><trkpt lat="43.66133669035308" lon="12.50313858522127"><ele>331.0</ele><time>2026-04-25T09:37:45Z</time></trkpt><trkpt lat="43.66125407811119" lon="12.503024758818984"><ele>333.25</ele><time>2026-04-25T09:37:46Z</time></trkpt><trkpt lat="43.6611697866992" lon="12.502913321533324"><ele>335.5</ele><time>2026-04-25T09:37:47Z</time></trkpt><trkpt lat="43.66108294042031" lon="12.502802160257488"><ele>337.75</ele><time>2026-04-25T09:37:48Z</time></trkpt><trkpt lat="43.66099246861387" lon="12.502691471692152"><ele>340.0</ele><time>2026-04-25T09:37:49Z</time></trkpt><trkpt lat="43.66090393096601" lon="12.50257319274941"><ele>340.25</ele><time>2026-04-25T09:37:50Z</time></trkpt><trkpt lat="43.66082062902738" lon="12.502442352357816"><ele>340.5</ele><time>2026-04-25T09:37:51Z</time></trkpt><trkpt lat="43.66074764038358" lon="12.502299157296793"><ele>340.75</ele><time>2026-04-25T09:37:52Z</time></trkpt><trkpt lat="43.660682379810034" lon="12.50214338496554"><ele>341.0</ele><time>2026-04-25T09:37:53Z</time></trkpt><trkpt lat="43.66063274181208" lon="12.501978560988068"><ele>342.25</ele><time>2026-04-25T09:37:54Z</time></trkpt><trkpt lat="43.66058379924114" lon="12.501812242459486"><ele>343.5</ele><time>2026-04-25T09:37:55Z</time></trkpt><trkpt lat="43.66053269846271" lon="12.501644152526673"><ele>344.75</ele><time>2026-04-25T09:37:56Z</time></trkpt><trkpt lat="43.66048134508982" lon="12.501476179838905"><ele>346.0</ele><time>2026-04-25T09:37:57Z</time></trkpt><trkpt lat="43.66043100364094" lon="12.501304052851777"><ele>348.5</ele><time>2026-04-25T09:37:58Z</time></trkpt><trkpt lat="43.66038271929258" lon="12.501129157918822"><ele>351.0</ele><time>2026-04-25T09:37:59Z</time></trkpt><trkpt lat="43.660335357546735" lon="12.500957234127775"><ele>353.5</ele><time>2026-04-25T09:38:00Z</time></trkpt><trkpt lat="43.66028765032449" lon="12.500782443301745"><ele>356.0</ele><time>2026-04-25T09:38:01Z</time></trkpt><trkpt lat="43.660243295376034" lon="12.500607044448687"><ele>356.0</ele><time>2026-04-25T09:38:02Z</time></trkpt><trkpt lat="43.66020092263318" lon="12.500429872158135"><ele>356.0</ele><time>2026-04-25T09:38:03Z</time></trkpt><trkpt lat="43.6601631350471" lon="12.500250181363182"><ele>356.0</ele><time>2026-04-25T09:38:04Z</time></trkpt><trkpt lat="43.66013204044172" lon="12.50007023284619"><ele>356.0</ele><time>2026-04-25T09:38:05Z</time></trkpt><trkpt lat="43.6601045892457" lon="12.499891152775284"><ele>359.25</ele><time>2026-04-25T09:38:06Z</time></trkpt><trkpt lat="43.66007389401036" lon="12.499716338545499"><ele>362.5</ele><time>2026-04-25T09:38:07Z</time></trkpt><trkpt lat="43.660037377246674" lon="12.499548474337907"><ele>365.75</ele><time>2026-04-25T09:38:08Z</time></trkpt><trkpt lat="43.659991576535376" lon="12.499384300308973"><ele>369.0</ele><time>2026-04-25T09:38:09Z</time></trkpt><trkpt lat="43.65994006481437" lon="12.49922351446042"><ele>371.25</ele><time>2026-04-25T09:38:10Z</time></trkpt><trkpt lat="43.65989133564183" lon="12.499062053532429"><ele>373.5</ele><time>2026-04-25T09:38:11Z</time></trkpt><trkpt lat="43.65985210269178" lon="12.498898410531599"><ele>375.75</ele><time>2026-04-25T09:38:12Z</time></trkpt><trkpt lat="43.65982215864541" lon="12.498733365557621"><ele>378.0</ele><time>2026-04-25T09:38:13Z</time></trkpt><trkpt lat="43.659801860545514" lon="12.49859807108097"><ele>378.0</ele><time>2026-04-25T09:38:14Z</time></trkpt><trkpt lat="43.65977360695277" lon="12.49848723546653"><ele>378.0</ele><time>2026-04-25T09:38:15Z</time></trkpt><trkpt lat="43.65972775288051" lon="12.498402829971607"><ele>378.0</ele><time>2026-04-25T09:38:16Z</time></trkpt><trkpt lat="43.65966844418847" lon="12.498320532268307"><ele>378.0</ele><time>2026-04-25T09:38:17Z</time></trkpt><trkpt lat="43.65960102267543" lon="12.49822880682391"><ele>378.0</ele><time>2026-04-25T09:38:18Z</time></trkpt><trkpt lat="43.65953195748454" lon="12.498124504459097"><ele>378.0</ele><time>2026-04-25T09:38:19Z</time></trkpt><trkpt lat="43.659462143841324" lon="12.49800675093423"><ele>379.0</ele><time>2026-04-25T09:38:20Z</time></trkpt><trkpt lat="43.65938822703099" lon="12.49788724698418"><ele>380.0</ele><time>2026-04-25T09:38:21Z</time></trkpt><trkpt lat="43.65931404563998" lon="12.497764278854454"><ele>381.0</ele><time>2026-04-25T09:38:22Z</time></trkpt><trkpt lat="43.659234650931765" lon="12.497643822889426"><ele>382.0</ele><time>2026-04-25T09:38:23Z</time></trkpt><trkpt lat="43.65916954820009" lon="12.497547907120634"><ele>383.0</ele><time>2026-04-25T09:38:24Z</time></trkpt><trkpt lat="43.65911003018042" lon="12.497469265003037"><ele>383.0</ele><time>2026-04-25T09:38:25Z</time></trkpt><trkpt lat="43.65904887751041" lon="12.497405928780374"><ele>383.0</ele><time>2026-04-25T09:38:26Z</time></trkpt><trkpt lat="43.65898022952694" lon="12.497345226201325"><ele>383.0</ele><time>2026-04-25T09:38:27Z</time></trkpt><trkpt lat="43.65890491617511" lon="12.497290162724992"><ele>383.0</ele><time>2026-04-25T09:38:28Z</time></trkpt><trkpt lat="43.65882306934818" lon="12.497239008634432"><ele>383.0</ele><time>2026-04-25T09:38:29Z</time></trkpt><trkpt lat="43.65873703807688" lon="12.497191003392008"><ele>383.0</ele><time>2026-04-25T09:38:30Z</time></trkpt><trkpt lat="43.658646816683394" lon="12.497143209425525"><ele>382.5</ele><time>2026-04-25T09:38:31Z</time></trkpt><trkpt lat="43.65854768943532" lon="12.49709293654876"><ele>382.0</ele><time>2026-04-25T09:38:32Z</time></trkpt><trkpt lat="43.658437534628064" lon="12.497040283108605"><ele>381.5</ele><time>2026-04-25T09:38:33Z</time></trkpt><trkpt lat="43.65832147832639" lon="12.496980272053738"><ele>381.0</ele><time>2026-04-25T09:38:34Z</time></trkpt><trkpt lat="43.658203956874445" lon="12.496915263597408"><ele>380.75</ele><time>2026-04-25T09:38:35Z</time></trkpt><trkpt lat="43.65808752669006" lon="12.496853709738833"><ele>380.5</ele><time>2026-04-25T09:38:36Z</time></trkpt><trkpt lat="43.657977199189496" lon="12.496767662407853"><ele>380.25</ele><time>2026-04-25T09:38:37Z</time></trkpt><trkpt lat="43.65785270175802" lon="12.496718616071101"><ele>380.0</ele><time>2026-04-25T09:38:38Z</time></trkpt><trkpt lat="43.65773510333053" lon="12.496647049624206"><ele>380.0</ele><time>2026-04-25T09:38:39Z</time></trkpt><trkpt lat="43.65762205266002" lon="12.49656922179376"><ele>380.0</ele><time>2026-04-25T09:38:40Z</time></trkpt><trkpt lat="43.65751106698448" lon="12.496489458930723"><ele>380.0</ele><time>2026-04-25T09:38:41Z</time></trkpt><trkpt lat="43.65740339096438" lon="12.496404896985224"><ele>380.0</ele><time>2026-04-25T09:38:42Z</time></trkpt><trkpt lat="43.65729708329841" lon="12.49632147682035"><ele>379.0</ele><time>2026-04-25T09:38:43Z</time></trkpt><trkpt lat="43.657191442231145" lon="12.49623745755497"><ele>378.0</ele><time>2026-04-25T09:38:44Z</time></trkpt><trkpt lat="43.65708739022115" lon="12.496153006643194"><ele>377.0</ele><time>2026-04-25T09:38:44.999Z</time></trkpt><trkpt lat="43.656982675894476" lon="12.496077708442979"><ele>376.0</ele><time>2026-04-25T09:38:45.999Z</time></trkpt><trkpt lat="43.65687959125783" lon="12.496013410192099"><ele>379.8</ele><time>2026-04-25T09:38:46.999Z</time></trkpt><trkpt lat="43.65677671326147" lon="12.495967816386166"><ele>383.6</ele><time>2026-04-25T09:38:47.999Z</time></trkpt><trkpt lat="43.6566751662077" lon="12.4959227921283"><ele>387.4</ele><time>2026-04-25T09:38:48.999Z</time></trkpt><trkpt lat="43.65657440308253" lon="12.495927796129"><ele>391.2</ele><time>2026-04-25T09:38:49.999Z</time></trkpt><trkpt lat="43.656474309434266" lon="12.495946910252433"><ele>395.0</ele><time>2026-04-25T09:38:50.999Z</time></trkpt><trkpt lat="43.65636895432636" lon="12.495975001329796"><ele>395.0</ele><time>2026-04-25T09:38:51.999Z</time></trkpt><trkpt lat="43.65626060336642" lon="12.495966541866862"><ele>395.0</ele><time>2026-04-25T09:38:52.999Z</time></trkpt><trkpt lat="43.656153989438046" lon="12.495944459828122"><ele>395.0</ele><time>2026-04-25T09:38:53.999Z</time></trkpt><trkpt lat="43.656048730663954" lon="12.495909720128589"><ele>395.0</ele><time>2026-04-25T09:38:54.999Z</time></trkpt><trkpt lat="43.655936588369954" lon="12.495875059999696"><ele>395.0</ele><time>2026-04-25T09:38:55.999Z</time></trkpt><trkpt lat="43.65582351804825" lon="12.495840944463419"><ele>397.5</ele><time>2026-04-25T09:38:56.999Z</time></trkpt><trkpt lat="43.65571201101027" lon="12.495804421509542"><ele>400.0</ele><time>2026-04-25T09:38:57.999Z</time></trkpt><trkpt lat="43.655600752307535" lon="12.495772412797747"><ele>402.5</ele><time>2026-04-25T09:38:58.999Z</time></trkpt><trkpt lat="43.65549108617655" lon="12.49574387016311"><ele>405.0</ele><time>2026-04-25T09:38:59.999Z</time></trkpt><trkpt lat="43.655382827816275" lon="12.495716772214845"><ele>407.4</ele><time>2026-04-25T09:39:00.999Z</time></trkpt><trkpt lat="43.65527865300669" lon="12.495694718535713"><ele>409.8</ele><time>2026-04-25T09:39:02Z</time></trkpt><trkpt lat="43.6551769398086" lon="12.495681592216199"><ele>412.20000000000005</ele><time>2026-04-25T09:39:03Z</time></trkpt><trkpt lat="43.65506626807877" lon="12.495675858541988"><ele>414.6</ele><time>2026-04-25T09:39:04Z</time></trkpt><trkpt lat="43.65495562204383" lon="12.495672730177843"><ele>417.0</ele><time>2026-04-25T09:39:05Z</time></trkpt><trkpt lat="43.65484525218555" lon="12.495667372556941"><ele>417.0</ele><time>2026-04-25T09:39:06Z</time></trkpt><trkpt lat="43.65473804877513" lon="12.495653914418074"><ele>417.0</ele><time>2026-04-25T09:39:07Z</time></trkpt><trkpt lat="43.65463108617057" lon="12.495633293907117"><ele>417.0</ele><time>2026-04-25T09:39:08Z</time></trkpt><trkpt lat="43.654528429278244" lon="12.495597514627443"><ele>417.0</ele><time>2026-04-25T09:39:09Z</time></trkpt><trkpt lat="43.65443615923056" lon="12.495545535316372"><ele>417.0</ele><time>2026-04-25T09:39:10Z</time></trkpt><trkpt lat="43.65435751881786" lon="12.495472601457172"><ele>420.1666666666667</ele><time>2026-04-25T09:39:11Z</time></trkpt><trkpt lat="43.65429129881747" lon="12.49540036395584"><ele>423.33333333333337</ele><time>2026-04-25T09:39:12Z</time></trkpt><trkpt lat="43.6542296142422" lon="12.495360691471436"><ele>426.5</ele><time>2026-04-25T09:39:13Z</time></trkpt><trkpt lat="43.65415991952126" lon="12.495331799144006"><ele>429.6666666666667</ele><time>2026-04-25T09:39:14Z</time></trkpt><trkpt lat="43.654079871764274" lon="12.49538508387113"><ele>432.83333333333337</ele><time>2026-04-25T09:39:15Z</time></trkpt><trkpt lat="43.65399060889864" lon="12.495397426416703"><ele>436.0</ele><time>2026-04-25T09:39:16Z</time></trkpt><trkpt lat="43.65390278160831" lon="12.495429148629798"><ele>436.6</ele><time>2026-04-25T09:39:17Z</time></trkpt><trkpt lat="43.65381325669183" lon="12.495475290261302"><ele>437.20000000000005</ele><time>2026-04-25T09:39:18Z</time></trkpt><trkpt lat="43.65371523621149" lon="12.495489608929013"><ele>437.79999999999995</ele><time>2026-04-25T09:39:19Z</time></trkpt><trkpt lat="43.653616675921185" lon="12.495500495852895"><ele>438.4</ele><time>2026-04-25T09:39:20Z</time></trkpt><trkpt lat="43.6535164115819" lon="12.495509066309328"><ele>439.0</ele><time>2026-04-25T09:39:21Z</time></trkpt><trkpt lat="43.6534228570774" lon="12.495508719287088"><ele>443.83333333333337</ele><time>2026-04-25T09:39:22Z</time></trkpt><trkpt lat="43.653351435396445" lon="12.495507963359314"><ele>448.6666666666667</ele><time>2026-04-25T09:39:23Z</time></trkpt><trkpt lat="43.65327819311906" lon="12.495518860618438"><ele>453.5</ele><time>2026-04-25T09:39:25Z</time></trkpt><trkpt lat="43.65328228084736" lon="12.49536348117878"><ele>458.33333333333337</ele><time>2026-04-25T09:39:29Z</time></trkpt><trkpt lat="43.65332510267292" lon="12.495249755972461"><ele>463.1666666666667</ele><time>2026-04-25T09:39:31Z</time></trkpt><trkpt lat="43.653324602927974" lon="12.495139548530565"><ele>468.0</ele><time>2026-04-25T09:39:33Z</time></trkpt><trkpt lat="43.653311553512594" lon="12.495028367096591"><ele>468.4</ele><time>2026-04-25T09:39:35Z</time></trkpt><trkpt lat="43.653296892212396" lon="12.494901866490173"><ele>468.79999999999995</ele><time>2026-04-25T09:39:37Z</time></trkpt><trkpt lat="43.653280031311326" lon="12.494775919103128"><ele>469.2</ele><time>2026-04-25T09:39:39Z</time></trkpt><trkpt lat="43.65322686107792" lon="12.494670008777199"><ele>469.6</ele><time>2026-04-25T09:39:41Z</time></trkpt><trkpt lat="43.65315389711418" lon="12.494584757452968"><ele>470.0</ele><time>2026-04-25T09:39:43Z</time></trkpt><trkpt lat="43.65304817402234" lon="12.494544496542389"><ele>472.2</ele><time>2026-04-25T09:39:45Z</time></trkpt><trkpt lat="43.65291614348206" lon="12.494540186000547"><ele>474.4</ele><time>2026-04-25T09:39:47Z</time></trkpt><trkpt lat="43.652842426855365" lon="12.494523246766466"><ele>476.6</ele><time>2026-04-25T09:39:48Z</time></trkpt><trkpt lat="43.652754602187436" lon="12.494490945417507"><ele>478.8</ele><time>2026-04-25T09:39:49Z</time></trkpt><trkpt lat="43.652661411569866" lon="12.494460144291754"><ele>481.0</ele><time>2026-04-25T09:39:50Z</time></trkpt><trkpt lat="43.652572547106175" lon="12.494446495150234"><ele>481.0</ele><time>2026-04-25T09:39:51Z</time></trkpt><trkpt lat="43.65248076714027" lon="12.494439677006524"><ele>481.0</ele><time>2026-04-25T09:39:52Z</time></trkpt><trkpt lat="43.65239245692724" lon="12.494438852465208"><ele>481.0</ele><time>2026-04-25T09:39:53Z</time></trkpt><trkpt lat="43.65230910884712" lon="12.494426696391196"><ele>481.0</ele><time>2026-04-25T09:39:54Z</time></trkpt><trkpt lat="43.65222193106415" lon="12.494386194739425"><ele>481.0</ele><time>2026-04-25T09:39:55Z</time></trkpt><trkpt lat="43.65212592016096" lon="12.49435639718945"><ele>481.0</ele><time>2026-04-25T09:39:56Z</time></trkpt><trkpt lat="43.65198631877171" lon="12.494569913546528"><ele>481.0</ele><time>2026-04-25T09:39:57Z</time></trkpt><trkpt lat="43.65189087459522" lon="12.494603431570383"><ele>481.0</ele><time>2026-04-25T09:39:58Z</time></trkpt><trkpt lat="43.65180818148183" lon="12.494605079904714"><ele>481.0</ele><time>2026-04-25T09:39:59Z</time></trkpt><trkpt lat="43.651734439553756" lon="12.494587717186935"><ele>484.20000000000005</ele><time>2026-04-25T09:40:00Z</time></trkpt><trkpt lat="43.651618008950166" lon="12.494498222489753"><ele>487.40000000000003</ele><time>2026-04-25T09:40:01Z</time></trkpt><trkpt lat="43.65152633072318" lon="12.494441012470983"><ele>490.6</ele><time>2026-04-25T09:40:02Z</time></trkpt><trkpt lat="43.65143708486004" lon="12.49438714682271"><ele>493.8</ele><time>2026-04-25T09:40:03Z</time></trkpt><trkpt lat="43.65134823377945" lon="12.494332074676496"><ele>497.0</ele><time>2026-04-25T09:40:04Z</time></trkpt><trkpt lat="43.65126741809649" lon="12.49424487821551"><ele>497.0</ele><time>2026-04-25T09:40:05Z</time></trkpt><trkpt lat="43.65120450709569" lon="12.494141854269568"><ele>497.00000000000006</ele><time>2026-04-25T09:40:06Z</time></trkpt><trkpt lat="43.651146879778594" lon="12.494045398054633"><ele>497.00000000000006</ele><time>2026-04-25T09:40:07Z</time></trkpt><trkpt lat="43.651101329127044" lon="12.493967861958078"><ele>497.0</ele><time>2026-04-25T09:40:08Z</time></trkpt><trkpt lat="43.651022073657295" lon="12.493926887231197"><ele>497.0</ele><time>2026-04-25T09:40:10Z</time></trkpt><trkpt lat="43.650940114171256" lon="12.494037595446267"><ele>497.0</ele><time>2026-04-25T09:40:12Z</time></trkpt><trkpt lat="43.650994662504" lon="12.49397894956707"><ele>497.00000000000006</ele><time>2026-04-25T09:41:20Z</time></trkpt><trkpt lat="43.6511470886945" lon="12.494050226714487"><ele>497.00000000000006</ele><time>2026-04-25T09:41:33Z</time></trkpt><trkpt lat="43.65121067453227" lon="12.494151958341948"><ele>497.0</ele><time>2026-04-25T09:41:35Z</time></trkpt><trkpt lat="43.651289985542086" lon="12.49427019457542"><ele>497.0</ele><time>2026-04-25T09:41:37Z</time></trkpt><trkpt lat="43.6513387135442" lon="12.494331517706579"><ele>496.99999999999994</ele><time>2026-04-25T09:41:38Z</time></trkpt><trkpt lat="43.65138935722422" lon="12.494384822685673"><ele>497.0</ele><time>2026-04-25T09:41:39Z</time></trkpt><trkpt lat="43.65149973183403" lon="12.494450881895151"><ele>497.0</ele><time>2026-04-25T09:41:41Z</time></trkpt><trkpt lat="43.65156204787253" lon="12.49448113337523"><ele>497.0</ele><time>2026-04-25T09:41:42Z</time></trkpt><trkpt lat="43.65163098559865" lon="12.494519926697182"><ele>496.99999999999994</ele><time>2026-04-25T09:41:43Z</time></trkpt><trkpt lat="43.65170613424737" lon="12.494559355380666"><ele>497.0</ele><time>2026-04-25T09:41:44Z</time></trkpt><trkpt lat="43.651782424566015" lon="12.494593620825475"><ele>497.0</ele><time>2026-04-25T09:41:45Z</time></trkpt><trkpt lat="43.65186520509962" lon="12.494597680221604"><ele>497.0</ele><time>2026-04-25T09:41:46Z</time></trkpt><trkpt lat="43.65193352421793" lon="12.49457436434648"><ele>497.0</ele><time>2026-04-25T09:41:47Z</time></trkpt><trkpt lat="43.65201018535435" lon="12.494536979229688"><ele>497.0</ele><time>2026-04-25T09:41:48Z</time></trkpt><trkpt lat="43.652078477690836" lon="12.494511956825246"><ele>497.0</ele><time>2026-04-25T09:41:49Z</time></trkpt><trkpt lat="43.65215001854237" lon="12.494494013128795"><ele>497.0</ele><time>2026-04-25T09:41:50Z</time></trkpt><trkpt lat="43.652221441164514" lon="12.494494328737906"><ele>497.0</ele><time>2026-04-25T09:41:51Z</time></trkpt><trkpt lat="43.652322359289485" lon="12.494481263978471"><ele>493.8</ele><time>2026-04-25T09:41:53Z</time></trkpt><trkpt lat="43.65230990979102" lon="12.49438367406391"><ele>490.6</ele><time>2026-04-25T09:41:56Z</time></trkpt><trkpt lat="43.652246685167405" lon="12.4941812824883"><ele>487.40000000000003</ele><time>2026-04-25T09:42:10Z</time></trkpt><trkpt lat="43.65222796817791" lon="12.494084973789665"><ele>484.20000000000005</ele><time>2026-04-25T09:42:11Z</time></trkpt><trkpt lat="43.652230245495986" lon="12.493975860339335"><ele>481.0</ele><time>2026-04-25T09:42:12Z</time></trkpt><trkpt lat="43.65221553538793" lon="12.493863109188558"><ele>481.00000000000006</ele><time>2026-04-25T09:42:13Z</time></trkpt><trkpt lat="43.65221955214848" lon="12.493756504699865"><ele>481.0</ele><time>2026-04-25T09:42:14Z</time></trkpt><trkpt lat="43.652221505945" lon="12.493625865815295"><ele>481.0</ele><time>2026-04-25T09:42:15Z</time></trkpt><trkpt lat="43.652231666251176" lon="12.493517410629249"><ele>481.0</ele><time>2026-04-25T09:42:16Z</time></trkpt><trkpt lat="43.65222182216868" lon="12.493409873059814"><ele>481.00000000000006</ele><time>2026-04-25T09:42:17Z</time></trkpt><trkpt lat="43.65219930521979" lon="12.493295317927473"><ele>481.0</ele><time>2026-04-25T09:42:18Z</time></trkpt><trkpt lat="43.65218150382795" lon="12.493176397208607"><ele>480.99999999999994</ele><time>2026-04-25T09:42:19Z</time></trkpt><trkpt lat="43.652184355494335" lon="12.493076081440856"><ele>481.0</ele><time>2026-04-25T09:42:20Z</time></trkpt><trkpt lat="43.65218506803339" lon="12.492986072143127"><ele>480.99999999999994</ele><time>2026-04-25T09:42:21Z</time></trkpt><trkpt lat="43.65218675480626" lon="12.492898406004786"><ele>480.99999999999994</ele><time>2026-04-25T09:42:22Z</time></trkpt><trkpt lat="43.65221587179092" lon="12.492787783867907"><ele>481.0</ele><time>2026-04-25T09:42:24Z</time></trkpt><trkpt lat="43.652277618429316" lon="12.492749986643826"><ele>480.99999999999994</ele><time>2026-04-25T09:42:25Z</time></trkpt><trkpt lat="43.652351690756234" lon="12.492688311188514"><ele>480.99999999999994</ele><time>2026-04-25T09:42:26Z</time></trkpt><trkpt lat="43.65244549244909" lon="12.492651203864565"><ele>481.0</ele><time>2026-04-25T09:42:27Z</time></trkpt><trkpt lat="43.65255071950103" lon="12.492620356631107"><ele>481.0</ele><time>2026-04-25T09:42:28Z</time></trkpt><trkpt lat="43.65265133868805" lon="12.492570054264922"><ele>481.0</ele><time>2026-04-25T09:42:29Z</time></trkpt><trkpt lat="43.65272697365187" lon="12.492522681200187"><ele>481.0</ele><time>2026-04-25T09:42:30Z</time></trkpt><trkpt lat="43.652795959802766" lon="12.492447209438371"><ele>481.0</ele><time>2026-04-25T09:42:31Z</time></trkpt><trkpt lat="43.65287596975042" lon="12.492342324276033"><ele>477.33333333333337</ele><time>2026-04-25T09:42:32Z</time></trkpt><trkpt lat="43.65298062200485" lon="12.492199159223706"><ele>473.66666666666663</ele><time>2026-04-25T09:42:33Z</time></trkpt><trkpt lat="43.65310923826776" lon="12.49204344739784"><ele>470.0</ele><time>2026-04-25T09:42:34Z</time></trkpt><trkpt lat="43.65324714363984" lon="12.491896338272388"><ele>469.99999999999994</ele><time>2026-04-25T09:42:35Z</time></trkpt><trkpt lat="43.65334686631105" lon="12.491788429272331"><ele>470.0</ele><time>2026-04-25T09:42:36Z</time></trkpt><trkpt lat="43.65341578573633" lon="12.491716184659678"><ele>470.0</ele><time>2026-04-25T09:42:37Z</time></trkpt><trkpt lat="43.65347112263551" lon="12.491648812852686"><ele>470.0</ele><time>2026-04-25T09:42:38Z</time></trkpt><trkpt lat="43.653503524892166" lon="12.491568341435245"><ele>469.99999999999994</ele><time>2026-04-25T09:42:39Z</time></trkpt><trkpt lat="43.65352315795442" lon="12.49148145185249"><ele>470.0</ele><time>2026-04-25T09:42:40Z</time></trkpt><trkpt lat="43.65351384959665" lon="12.491382728611965"><ele>470.0</ele><time>2026-04-25T09:42:41Z</time></trkpt><trkpt lat="43.653499247438845" lon="12.491282244916926"><ele>470.0</ele><time>2026-04-25T09:42:43Z</time></trkpt><trkpt lat="43.653554645788354" lon="12.491124290182947"><ele>470.0</ele><time>2026-04-25T09:43:08Z</time></trkpt><trkpt lat="43.65359836357799" lon="12.49103640775987"><ele>470.0</ele><time>2026-04-25T09:43:09Z</time></trkpt><trkpt lat="43.65364060420367" lon="12.490963134786838"><ele>470.0</ele><time>2026-04-25T09:43:10Z</time></trkpt><trkpt lat="43.65373037330175" lon="12.49083095657145"><ele>470.16666666666663</ele><time>2026-04-25T09:43:12Z</time></trkpt><trkpt lat="43.653787739443985" lon="12.490750450092744"><ele>470.3333333333333</ele><time>2026-04-25T09:43:13Z</time></trkpt><trkpt lat="43.65384373390018" lon="12.49067336943203"><ele>470.5</ele><time>2026-04-25T09:43:14Z</time></trkpt><trkpt lat="43.653896437947246" lon="12.490603701083193"><ele>470.66666666666663</ele><time>2026-04-25T09:43:15Z</time></trkpt><trkpt lat="43.6539438557446" lon="12.490540403098587"><ele>470.8333333333333</ele><time>2026-04-25T09:43:16Z</time></trkpt><trkpt lat="43.65399664883858" lon="12.490463778957864"><ele>471.0</ele><time>2026-04-25T09:43:17Z</time></trkpt><trkpt lat="43.65406607090621" lon="12.490378981039557"><ele>471.0</ele><time>2026-04-25T09:43:18Z</time></trkpt><trkpt lat="43.65413196671145" lon="12.490324654149497"><ele>471.0</ele><time>2026-04-25T09:43:19Z</time></trkpt><trkpt lat="43.65421851877654" lon="12.490261619521068"><ele>471.0</ele><time>2026-04-25T09:43:21Z</time></trkpt><trkpt lat="43.65429345433523" lon="12.490207045006098"><ele>471.0</ele><time>2026-04-25T09:43:24Z</time></trkpt><trkpt lat="43.65429870664545" lon="12.49010872824769"><ele>471.0</ele><time>2026-04-25T09:43:27Z</time></trkpt><trkpt lat="43.65433671377781" lon="12.490011093784897"><ele>471.0</ele><time>2026-04-25T09:43:28Z</time></trkpt><trkpt lat="43.65438387167992" lon="12.489875170965322"><ele>471.0</ele><time>2026-04-25T09:43:29Z</time></trkpt><trkpt lat="43.65443143232244" lon="12.48973145658476"><ele>471.0</ele><time>2026-04-25T09:43:30Z</time></trkpt><trkpt lat="43.654482905471184" lon="12.489571648321721"><ele>471.0</ele><time>2026-04-25T09:43:31Z</time></trkpt><trkpt lat="43.65453590170992" lon="12.48941874379132"><ele>471.0</ele><time>2026-04-25T09:43:32Z</time></trkpt><trkpt lat="43.65454999057962" lon="12.489308923175187"><ele>471.0</ele><time>2026-04-25T09:43:33Z</time></trkpt><trkpt lat="43.654553770052715" lon="12.489215114832549"><ele>470.20000000000005</ele><time>2026-04-25T09:43:35Z</time></trkpt><trkpt lat="43.654507233537096" lon="12.489104983768582"><ele>469.40000000000003</ele><time>2026-04-25T09:43:37Z</time></trkpt><trkpt lat="43.65441070928765" lon="12.489021099570964"><ele>468.6</ele><time>2026-04-25T09:43:37.999Z</time></trkpt><trkpt lat="43.65432213755002" lon="12.488965353346828"><ele>467.8</ele><time>2026-04-25T09:43:38.999Z</time></trkpt><trkpt lat="43.65422081955799" lon="12.488909152277355"><ele>467.0</ele><time>2026-04-25T09:43:39.999Z</time></trkpt><trkpt lat="43.654117228505285" lon="12.48885622438159"><ele>467.0</ele><time>2026-04-25T09:43:40.999Z</time></trkpt><trkpt lat="43.65400745334532" lon="12.488787358378918"><ele>467.0</ele><time>2026-04-25T09:43:41.999Z</time></trkpt><trkpt lat="43.65389668175812" lon="12.488715094972324"><ele>467.0</ele><time>2026-04-25T09:43:42.999Z</time></trkpt><trkpt lat="43.65379622226635" lon="12.488643044134061"><ele>467.0</ele><time>2026-04-25T09:43:43.999Z</time></trkpt><trkpt lat="43.65368159420388" lon="12.488611384946534"><ele>466.0</ele><time>2026-04-25T09:43:44.999Z</time></trkpt><trkpt lat="43.6535862242852" lon="12.488529838394713"><ele>465.00000000000006</ele><time>2026-04-25T09:43:45.999Z</time></trkpt><trkpt lat="43.653496526976994" lon="12.488456115607432"><ele>464.00000000000006</ele><time>2026-04-25T09:43:46.999Z</time></trkpt><trkpt lat="43.65342813429897" lon="12.488354394293273"><ele>463.0</ele><time>2026-04-25T09:43:47.999Z</time></trkpt><trkpt lat="43.653367950618176" lon="12.488235205633245"><ele>462.0</ele><time>2026-04-25T09:43:48.999Z</time></trkpt><trkpt lat="43.653327071773376" lon="12.488096661966813"><ele>462.0</ele><time>2026-04-25T09:43:49.999Z</time></trkpt><trkpt lat="43.65330740281092" lon="12.487948777741332"><ele>462.0</ele><time>2026-04-25T09:43:50.999Z</time></trkpt><trkpt lat="43.65329361122633" lon="12.487785732980882"><ele>462.0</ele><time>2026-04-25T09:43:51.999Z</time></trkpt><trkpt lat="43.65329239857416" lon="12.48760768778135"><ele>462.0</ele><time>2026-04-25T09:43:52.999Z</time></trkpt><trkpt lat="43.65329165900935" lon="12.487444464407009"><ele>457.6</ele><time>2026-04-25T09:43:53.999Z</time></trkpt><trkpt lat="43.65328819415958" lon="12.487283813752514"><ele>453.20000000000005</ele><time>2026-04-25T09:43:54.999Z</time></trkpt><trkpt lat="43.653275685746095" lon="12.48712372407348"><ele>448.8</ele><time>2026-04-25T09:43:55.999Z</time></trkpt><trkpt lat="43.653262678080004" lon="12.486971300277878"><ele>444.4</ele><time>2026-04-25T09:43:56.999Z</time></trkpt><trkpt lat="43.65324560667669" lon="12.486832458146042"><ele>440.0</ele><time>2026-04-25T09:43:57.999Z</time></trkpt><trkpt lat="43.653226347660784" lon="12.486707428211831"><ele>438.16666666666663</ele><time>2026-04-25T09:43:58.999Z</time></trkpt><trkpt lat="43.653203974644406" lon="12.48659545442688"><ele>436.3333333333333</ele><time>2026-04-25T09:43:59.999Z</time></trkpt><trkpt lat="43.653172813441344" lon="12.486504914889613"><ele>434.5</ele><time>2026-04-25T09:44:00.999Z</time></trkpt><trkpt lat="43.653145637776674" lon="12.486418522649798"><ele>432.66666666666663</ele><time>2026-04-25T09:44:01.999Z</time></trkpt><trkpt lat="43.653077666182575" lon="12.486366303111781"><ele>430.8333333333333</ele><time>2026-04-25T09:44:02.999Z</time></trkpt><trkpt lat="43.65299399989147" lon="12.48636616828652"><ele>429.0</ele><time>2026-04-25T09:44:03.999Z</time></trkpt><trkpt lat="43.6529095239232" lon="12.486417292415249"><ele>429.0</ele><time>2026-04-25T09:44:04.999Z</time></trkpt><trkpt lat="43.65284421457326" lon="12.486531705224564"><ele>429.0</ele><time>2026-04-25T09:44:05.999Z</time></trkpt><trkpt lat="43.65280689334966" lon="12.486656598309377"><ele>429.0</ele><time>2026-04-25T09:44:06.999Z</time></trkpt><trkpt lat="43.65276921505459" lon="12.486763251871857"><ele>429.0</ele><time>2026-04-25T09:44:07.999Z</time></trkpt><trkpt lat="43.65272856533444" lon="12.486847404924946"><ele>429.0</ele><time>2026-04-25T09:44:08.999Z</time></trkpt><trkpt lat="43.65268202682274" lon="12.48692922453293"><ele>429.0</ele><time>2026-04-25T09:44:09.999Z</time></trkpt><trkpt lat="43.65262893029851" lon="12.486982315016286"><ele>428.4</ele><time>2026-04-25T09:44:10.999Z</time></trkpt><trkpt lat="43.65255737121229" lon="12.486995315052539"><ele>427.79999999999995</ele><time>2026-04-25T09:44:11.999Z</time></trkpt><trkpt lat="43.65246856276561" lon="12.48700286107215"><ele>427.20000000000005</ele><time>2026-04-25T09:44:12.999Z</time></trkpt><trkpt lat="43.65237273266279" lon="12.486939378408193"><ele>426.6</ele><time>2026-04-25T09:44:13.999Z</time></trkpt><trkpt lat="43.652269773872796" lon="12.48687865838251"><ele>426.0</ele><time>2026-04-25T09:44:14.999Z</time></trkpt><trkpt lat="43.65216240619448" lon="12.486816697615437"><ele>426.0</ele><time>2026-04-25T09:44:15.999Z</time></trkpt><trkpt lat="43.65206263511418" lon="12.486765853519127"><ele>426.0</ele><time>2026-04-25T09:44:16.999Z</time></trkpt><trkpt lat="43.65196190165156" lon="12.486725788402042"><ele>426.0</ele><time>2026-04-25T09:44:17.999Z</time></trkpt><trkpt lat="43.651872424165994" lon="12.486663332588025"><ele>426.0</ele><time>2026-04-25T09:44:18.999Z</time></trkpt><trkpt lat="43.651806525695996" lon="12.486600050901485"><ele>426.0</ele><time>2026-04-25T09:44:19.999Z</time></trkpt><trkpt lat="43.651748701950204" lon="12.48650386405755"><ele>426.0</ele><time>2026-04-25T09:44:21.999Z</time></trkpt><trkpt lat="43.65177801410588" lon="12.486381411469923"><ele>426.0</ele><time>2026-04-25T09:44:23.999Z</time></trkpt><trkpt lat="43.65184585514282" lon="12.486336538220693"><ele>426.0</ele><time>2026-04-25T09:44:24.999Z</time></trkpt><trkpt lat="43.6519453801423" lon="12.486321102729686"><ele>426.0</ele><time>2026-04-25T09:44:25.999Z</time></trkpt><trkpt lat="43.652050989325964" lon="12.486300284082066"><ele>426.0</ele><time>2026-04-25T09:44:26.999Z</time></trkpt><trkpt lat="43.65216700074623" lon="12.486256772320125"><ele>424.20000000000005</ele><time>2026-04-25T09:44:27.999Z</time></trkpt><trkpt lat="43.652278456615115" lon="12.48619831243884"><ele>422.40000000000003</ele><time>2026-04-25T09:44:28.999Z</time></trkpt><trkpt lat="43.65237770136277" lon="12.486127861385437"><ele>420.6</ele><time>2026-04-25T09:44:29.999Z</time></trkpt><trkpt lat="43.65246592217956" lon="12.486046699719177"><ele>418.8</ele><time>2026-04-25T09:44:30.999Z</time></trkpt><trkpt lat="43.65254482514927" lon="12.485950684554703"><ele>417.0</ele><time>2026-04-25T09:44:31.999Z</time></trkpt><trkpt lat="43.652611831487796" lon="12.485839856713598"><ele>417.0</ele><time>2026-04-25T09:44:32.999Z</time></trkpt><trkpt lat="43.65266315185934" lon="12.485717899076894"><ele>417.0</ele><time>2026-04-25T09:44:33.999Z</time></trkpt><trkpt lat="43.652700517925446" lon="12.485589354613625"><ele>417.0</ele><time>2026-04-25T09:44:34.999Z</time></trkpt><trkpt lat="43.65274482459534" lon="12.485481895231356"><ele>417.0</ele><time>2026-04-25T09:44:35.999Z</time></trkpt><trkpt lat="43.652800041289694" lon="12.485402304336748"><ele>417.0</ele><time>2026-04-25T09:44:36.999Z</time></trkpt><trkpt lat="43.652856533619016" lon="12.48533126079186"><ele>417.0</ele><time>2026-04-25T09:44:37.999Z</time></trkpt><trkpt lat="43.652915310180276" lon="12.48526412389086"><ele>414.42857142857144</ele><time>2026-04-25T09:44:38.999Z</time></trkpt><trkpt lat="43.65297486897243" lon="12.485201167175395"><ele>411.85714285714283</ele><time>2026-04-25T09:44:39.999Z</time></trkpt><trkpt lat="43.65303307517678" lon="12.485143006422541"><ele>409.2857142857143</ele><time>2026-04-25T09:44:40.999Z</time></trkpt><trkpt lat="43.65309196625793" lon="12.485086278079224"><ele>406.7142857142857</ele><time>2026-04-25T09:44:41.999Z</time></trkpt><trkpt lat="43.65315445503643" lon="12.485035205011693"><ele>404.1428571428571</ele><time>2026-04-25T09:44:42.999Z</time></trkpt><trkpt lat="43.65321443240865" lon="12.484986302200397"><ele>401.57142857142856</ele><time>2026-04-25T09:44:43.999Z</time></trkpt><trkpt lat="43.65326673033683" lon="12.484922367372736"><ele>399.0</ele><time>2026-04-25T09:44:44.999Z</time></trkpt><trkpt lat="43.653322343575724" lon="12.484872434682327"><ele>399.0</ele><time>2026-04-25T09:44:45.999Z</time></trkpt><trkpt lat="43.65333637593695" lon="12.484761240865202"><ele>399.0</ele><time>2026-04-25T09:44:46.999Z</time></trkpt><trkpt lat="43.653363363203226" lon="12.484666487985107"><ele>399.0</ele><time>2026-04-25T09:44:47.999Z</time></trkpt><trkpt lat="43.653410219419555" lon="12.484585953624102"><ele>399.0</ele><time>2026-04-25T09:44:48.999Z</time></trkpt><trkpt lat="43.653470275198536" lon="12.484522058902265"><ele>399.0</ele><time>2026-04-25T09:44:49.999Z</time></trkpt><trkpt lat="43.65352928762599" lon="12.484440133909045"><ele>399.0</ele><time>2026-04-25T09:44:50.999Z</time></trkpt><trkpt lat="43.653587059785686" lon="12.484334315867196"><ele>396.4</ele><time>2026-04-25T09:44:51.999Z</time></trkpt><trkpt lat="43.653638095173754" lon="12.484216697470414"><ele>393.79999999999995</ele><time>2026-04-25T09:44:52.999Z</time></trkpt><trkpt lat="43.65370465989286" lon="12.484122296938427"><ele>391.20000000000005</ele><time>2026-04-25T09:44:53.999Z</time></trkpt><trkpt lat="43.65373337313" lon="12.483989376974566"><ele>388.6</ele><time>2026-04-25T09:44:54.999Z</time></trkpt><trkpt lat="43.653722936409345" lon="12.483868677571895"><ele>386.0</ele><time>2026-04-25T09:44:55.999Z</time></trkpt><trkpt lat="43.65372210472297" lon="12.483766347651862"><ele>389.66666666666663</ele><time>2026-04-25T09:44:56.999Z</time></trkpt><trkpt lat="43.6537659276567" lon="12.483609853435611"><ele>393.3333333333333</ele><time>2026-04-25T09:44:58.999Z</time></trkpt><trkpt lat="43.65382201303971" lon="12.483556883962299"><ele>397.0</ele><time>2026-04-25T09:44:59.999Z</time></trkpt><trkpt lat="43.65388876502881" lon="12.48353178625673"><ele>400.66666666666663</ele><time>2026-04-25T09:45:00.999Z</time></trkpt><trkpt lat="43.65396067909667" lon="12.483534151863351"><ele>404.3333333333333</ele><time>2026-04-25T09:45:01.999Z</time></trkpt><trkpt lat="43.65403458623845" lon="12.483564417919807"><ele>408.0</ele><time>2026-04-25T09:45:02.999Z</time></trkpt><trkpt lat="43.65410446402121" lon="12.483603079964373"><ele>408.0</ele><time>2026-04-25T09:45:03.999Z</time></trkpt><trkpt lat="43.65421565329455" lon="12.483648822151615"><ele>408.0</ele><time>2026-04-25T09:45:05.999Z</time></trkpt><trkpt lat="43.65428012259733" lon="12.483677040847185"><ele>408.0</ele><time>2026-04-25T09:45:06.999Z</time></trkpt><trkpt lat="43.654343519167604" lon="12.483707570994236"><ele>408.0</ele><time>2026-04-25T09:45:07.999Z</time></trkpt><trkpt lat="43.65440841832854" lon="12.483740430112398"><ele>408.0</ele><time>2026-04-25T09:45:08.999Z</time></trkpt><trkpt lat="43.65446738686622" lon="12.483789316118067"><ele>408.0</ele><time>2026-04-25T09:45:09.999Z</time></trkpt><trkpt lat="43.65453053977829" lon="12.483835571760745"><ele>406.5</ele><time>2026-04-25T09:45:10.999Z</time></trkpt><trkpt lat="43.65458966183858" lon="12.483891211322318"><ele>405.0</ele><time>2026-04-25T09:45:11.999Z</time></trkpt><trkpt lat="43.654648421809085" lon="12.483975428278084"><ele>403.5</ele><time>2026-04-25T09:45:12.999Z</time></trkpt><trkpt lat="43.65472223996571" lon="12.484033748738085"><ele>402.0</ele><time>2026-04-25T09:45:13.999Z</time></trkpt><trkpt lat="43.65477188306493" lon="12.484117175874816"><ele>400.5</ele><time>2026-04-25T09:45:14.999Z</time></trkpt><trkpt lat="43.65482073937216" lon="12.484194359423219"><ele>399.0</ele><time>2026-04-25T09:45:15.999Z</time></trkpt><trkpt lat="43.654871656141765" lon="12.484272753926524"><ele>399.0</ele><time>2026-04-25T09:45:16.999Z</time></trkpt><trkpt lat="43.65492837264663" lon="12.484355442349583"><ele>399.0</ele><time>2026-04-25T09:45:17.999Z</time></trkpt><trkpt lat="43.65498115368672" lon="12.484444896483595"><ele>399.0</ele><time>2026-04-25T09:45:18.999Z</time></trkpt><trkpt lat="43.65503361954645" lon="12.484534532839023"><ele>399.0</ele><time>2026-04-25T09:45:19.999Z</time></trkpt><trkpt lat="43.65509437559223" lon="12.48462095339032"><ele>399.0</ele><time>2026-04-25T09:45:20.999Z</time></trkpt><trkpt lat="43.65515133574834" lon="12.484711283303469"><ele>399.0</ele><time>2026-04-25T09:45:21.999Z</time></trkpt><trkpt lat="43.655208689874414" lon="12.484800984389976"><ele>399.1666666666667</ele><time>2026-04-25T09:45:22.999Z</time></trkpt><trkpt lat="43.655248299539785" lon="12.484898000949585"><ele>399.33333333333337</ele><time>2026-04-25T09:45:23.999Z</time></trkpt><trkpt lat="43.65529521910402" lon="12.484973541304887"><ele>399.5</ele><time>2026-04-25T09:45:24.999Z</time></trkpt><trkpt lat="43.65533760351896" lon="12.485041780617419"><ele>399.6666666666667</ele><time>2026-04-25T09:45:25.999Z</time></trkpt><trkpt lat="43.655449159152326" lon="12.485034358649658"><ele>399.83333333333337</ele><time>2026-04-25T09:45:26.999Z</time></trkpt><trkpt lat="43.65550203858366" lon="12.48509423147858"><ele>400.0</ele><time>2026-04-25T09:45:27.999Z</time></trkpt><trkpt lat="43.655546678005955" lon="12.485166684320133"><ele>400.0</ele><time>2026-04-25T09:45:28.999Z</time></trkpt><trkpt lat="43.65560184254788" lon="12.485247734065483"><ele>400.0</ele><time>2026-04-25T09:45:29.999Z</time></trkpt><trkpt lat="43.65566872484348" lon="12.48532347811326"><ele>400.0</ele><time>2026-04-25T09:45:30.999Z</time></trkpt><trkpt lat="43.655748156935466" lon="12.485373130245131"><ele>400.0</ele><time>2026-04-25T09:45:31.999Z</time></trkpt><trkpt lat="43.655837611541465" lon="12.485403408384244"><ele>400.0</ele><time>2026-04-25T09:45:32.999Z</time></trkpt><trkpt lat="43.655940070324014" lon="12.485432388183172"><ele>399.5</ele><time>2026-04-25T09:45:33.999Z</time></trkpt><trkpt lat="43.65604125907592" lon="12.485492527128647"><ele>399.0</ele><time>2026-04-25T09:45:34.999Z</time></trkpt><trkpt lat="43.65615388125995" lon="12.485505223644086"><ele>398.5</ele><time>2026-04-25T09:45:35.999Z</time></trkpt><trkpt lat="43.65626229938746" lon="12.485545054048313"><ele>398.0</ele><time>2026-04-25T09:45:36.999Z</time></trkpt><trkpt lat="43.65637371704904" lon="12.485594522874544"><ele>398.0</ele><time>2026-04-25T09:45:37.999Z</time></trkpt><trkpt lat="43.65647896489467" lon="12.485662393747246"><ele>398.0</ele><time>2026-04-25T09:45:38.999Z</time></trkpt><trkpt lat="43.65658739414119" lon="12.485723119973795"><ele>398.0</ele><time>2026-04-25T09:45:39.999Z</time></trkpt><trkpt lat="43.65669669883507" lon="12.485774351558234"><ele>398.0</ele><time>2026-04-25T09:45:40.999Z</time></trkpt><trkpt lat="43.656808122863595" lon="12.485814792772135"><ele>398.0</ele><time>2026-04-25T09:45:41.999Z</time></trkpt><trkpt lat="43.65690979608879" lon="12.485840308532897"><ele>398.0</ele><time>2026-04-25T09:45:42.999Z</time></trkpt><trkpt lat="43.657005473108974" lon="12.485836990373675"><ele>398.0</ele><time>2026-04-25T09:45:43.999Z</time></trkpt><trkpt lat="43.65709668708889" lon="12.485816936448186"><ele>398.0</ele><time>2026-04-25T09:45:44.999Z</time></trkpt><trkpt lat="43.657185746859334" lon="12.485786958271172"><ele>398.0</ele><time>2026-04-25T09:45:45.999Z</time></trkpt><trkpt lat="43.657256351148575" lon="12.48575453050746"><ele>398.66666666666663</ele><time>2026-04-25T09:45:46.999Z</time></trkpt><trkpt lat="43.657320718514356" lon="12.48572127522067"><ele>399.3333333333333</ele><time>2026-04-25T09:45:47.999Z</time></trkpt><trkpt lat="43.657428963495434" lon="12.485665299030396"><ele>400.0</ele><time>2026-04-25T09:45:49.999Z</time></trkpt><trkpt lat="43.65753374453712" lon="12.485588478616384"><ele>400.66666666666663</ele><time>2026-04-25T09:45:51.999Z</time></trkpt><trkpt lat="43.65758644030281" lon="12.485535935749196"><ele>401.3333333333333</ele><time>2026-04-25T09:45:52.999Z</time></trkpt><trkpt lat="43.65764487402566" lon="12.48548949372992"><ele>402.0</ele><time>2026-04-25T09:45:53.999Z</time></trkpt><trkpt lat="43.65770769969051" lon="12.485429378650473"><ele>404.6</ele><time>2026-04-25T09:45:54.999Z</time></trkpt><trkpt lat="43.65777672302675" lon="12.485358461470938"><ele>407.20000000000005</ele><time>2026-04-25T09:45:55.999Z</time></trkpt><trkpt lat="43.65785383946792" lon="12.485283668283039"><ele>409.8</ele><time>2026-04-25T09:45:56.999Z</time></trkpt><trkpt lat="43.657939072752264" lon="12.485208969529817"><ele>412.4</ele><time>2026-04-25T09:45:57.999Z</time></trkpt><trkpt lat="43.65801829499497" lon="12.485134851306885"><ele>415.0</ele><time>2026-04-25T09:45:58.999Z</time></trkpt><trkpt lat="43.658081481284" lon="12.485068447448356"><ele>415.00000000000006</ele><time>2026-04-25T09:45:59.999Z</time></trkpt><trkpt lat="43.65812914676394" lon="12.485003353147478"><ele>415.0</ele><time>2026-04-25T09:46:00.999Z</time></trkpt><trkpt lat="43.65814420434001" lon="12.484917796371933"><ele>415.0</ele><time>2026-04-25T09:46:01.999Z</time></trkpt><trkpt lat="43.65807660337081" lon="12.484830038512692"><ele>415.0</ele><time>2026-04-25T09:46:02.999Z</time></trkpt><trkpt lat="43.65797797528556" lon="12.484855555316251"><ele>415.00000000000006</ele><time>2026-04-25T09:46:03.999Z</time></trkpt><trkpt lat="43.65789653812985" lon="12.484865788330886"><ele>415.0</ele><time>2026-04-25T09:46:04.999Z</time></trkpt><trkpt lat="43.65780982830858" lon="12.484895957448812"><ele>415.8</ele><time>2026-04-25T09:46:05.999Z</time></trkpt><trkpt lat="43.657723945784625" lon="12.484920290317394"><ele>416.6</ele><time>2026-04-25T09:46:06.999Z</time></trkpt><trkpt lat="43.65763410052964" lon="12.484943586979576"><ele>417.4</ele><time>2026-04-25T09:46:07.999Z</time></trkpt><trkpt lat="43.65753990548933" lon="12.484972918025395"><ele>418.2</ele><time>2026-04-25T09:46:08.999Z</time></trkpt><trkpt lat="43.65743711036266" lon="12.485007887341448"><ele>419.0</ele><time>2026-04-25T09:46:09.999Z</time></trkpt><trkpt lat="43.65732971023932" lon="12.485061285700654"><ele>419.0</ele><time>2026-04-25T09:46:10.999Z</time></trkpt><trkpt lat="43.6572360567713" lon="12.485119381882162"><ele>419.0</ele><time>2026-04-25T09:46:11.999Z</time></trkpt><trkpt lat="43.657150467294265" lon="12.48515490612415"><ele>419.0</ele><time>2026-04-25T09:46:12.999Z</time></trkpt><trkpt lat="43.65707525931638" lon="12.485125269094919"><ele>419.0</ele><time>2026-04-25T09:46:14.999Z</time></trkpt><trkpt lat="43.65714650579971" lon="12.485027277421377"><ele>419.0</ele><time>2026-04-25T09:46:16.999Z</time></trkpt><trkpt lat="43.65720618237191" lon="12.484955726282372"><ele>419.0</ele><time>2026-04-25T09:46:17.999Z</time></trkpt><trkpt lat="43.65728071603862" lon="12.484885452228978"><ele>419.0</ele><time>2026-04-25T09:46:18.999Z</time></trkpt><trkpt lat="43.65735553103656" lon="12.484783076696166"><ele>419.0</ele><time>2026-04-25T09:46:19.999Z</time></trkpt><trkpt lat="43.6574501035146" lon="12.484679918451443"><ele>419.0</ele><time>2026-04-25T09:46:20.999Z</time></trkpt><trkpt lat="43.65754070186346" lon="12.484561282073638"><ele>419.0</ele><time>2026-04-25T09:46:21.999Z</time></trkpt><trkpt lat="43.6576381279869" lon="12.484457212049222"><ele>421.75</ele><time>2026-04-25T09:46:22.999Z</time></trkpt><trkpt lat="43.657750424636696" lon="12.484354235676351"><ele>424.5</ele><time>2026-04-25T09:46:23.999Z</time></trkpt><trkpt lat="43.65787570851579" lon="12.484296652805543"><ele>427.25</ele><time>2026-04-25T09:46:24.999Z</time></trkpt><trkpt lat="43.65797717420109" lon="12.484245209719079"><ele>430.0</ele><time>2026-04-25T09:46:25.999Z</time></trkpt><trkpt lat="43.65806720335662" lon="12.484157111115007"><ele>430.0</ele><time>2026-04-25T09:46:26.999Z</time></trkpt><trkpt lat="43.65816144872777" lon="12.484059748475918"><ele>430.0</ele><time>2026-04-25T09:46:27.999Z</time></trkpt><trkpt lat="43.6582463758563" lon="12.483982575661965"><ele>430.0</ele><time>2026-04-25T09:46:28.999Z</time></trkpt><trkpt lat="43.6582950377508" lon="12.483917408200982"><ele>430.0</ele><time>2026-04-25T09:46:29.999Z</time></trkpt><trkpt lat="43.65827139115202" lon="12.483783883514821"><ele>430.0</ele><time>2026-04-25T09:46:31.999Z</time></trkpt><trkpt lat="43.658214998873426" lon="12.483734727680744"><ele>430.0</ele><time>2026-04-25T09:46:32.999Z</time></trkpt><trkpt lat="43.65811428948681" lon="12.48382201729163"><ele>430.0</ele><time>2026-04-25T09:46:33.999Z</time></trkpt><trkpt lat="43.65802458309338" lon="12.48387561627849"><ele>430.0</ele><time>2026-04-25T09:46:34.999Z</time></trkpt><trkpt lat="43.65794336429616" lon="12.483930110216217"><ele>430.0</ele><time>2026-04-25T09:46:35.999Z</time></trkpt><trkpt lat="43.65784892607277" lon="12.483983469514786"><ele>430.0</ele><time>2026-04-25T09:46:36.999Z</time></trkpt><trkpt lat="43.6577609509818" lon="12.484099720666194"><ele>432.25</ele><time>2026-04-25T09:46:37.999Z</time></trkpt><trkpt lat="43.65763022403933" lon="12.484087995544517"><ele>434.5</ele><time>2026-04-25T09:46:38.999Z</time></trkpt><trkpt lat="43.65750399258947" lon="12.48412155417727"><ele>436.75</ele><time>2026-04-25T09:46:39.999Z</time></trkpt><trkpt lat="43.657374993124556" lon="12.484162500956657"><ele>439.0</ele><time>2026-04-25T09:46:40.999Z</time></trkpt><trkpt lat="43.65725219868352" lon="12.484202554929153"><ele>439.0</ele><time>2026-04-25T09:46:41.999Z</time></trkpt><trkpt lat="43.65714515172852" lon="12.484174683752979"><ele>439.0</ele><time>2026-04-25T09:46:42.999Z</time></trkpt><trkpt lat="43.65706298825979" lon="12.484165298648433"><ele>439.0</ele><time>2026-04-25T09:46:43.999Z</time></trkpt><trkpt lat="43.65701363662664" lon="12.48410472850334"><ele>439.0</ele><time>2026-04-25T09:46:45.999Z</time></trkpt><trkpt lat="43.65709399335838" lon="12.484014013672045"><ele>439.0</ele><time>2026-04-25T09:46:47.999Z</time></trkpt><trkpt lat="43.65717924440139" lon="12.484071278879911"><ele>439.0</ele><time>2026-04-25T09:46:48.999Z</time></trkpt><trkpt lat="43.65726970808428" lon="12.484016024109001"><ele>439.0</ele><time>2026-04-25T09:46:49.999Z</time></trkpt><trkpt lat="43.65734367853752" lon="12.48393113338767"><ele>439.0</ele><time>2026-04-25T09:46:50.999Z</time></trkpt><trkpt lat="43.65743860437304" lon="12.483829413444694"><ele>439.0</ele><time>2026-04-25T09:46:51.999Z</time></trkpt><trkpt lat="43.65750541856152" lon="12.483690526532914"><ele>439.0</ele><time>2026-04-25T09:46:52.999Z</time></trkpt><trkpt lat="43.657588695564215" lon="12.483566326375708"><ele>441.0</ele><time>2026-04-25T09:46:53.999Z</time></trkpt><trkpt lat="43.657685206780016" lon="12.48344036336839"><ele>443.0</ele><time>2026-04-25T09:46:54.999Z</time></trkpt><trkpt lat="43.65779358395058" lon="12.483325419727251"><ele>445.0</ele><time>2026-04-25T09:46:55.999Z</time></trkpt><trkpt lat="43.65791143532047" lon="12.48322257245253"><ele>447.0</ele><time>2026-04-25T09:46:56.999Z</time></trkpt><trkpt lat="43.65803978665956" lon="12.48313881011934"><ele>447.0</ele><time>2026-04-25T09:46:57.999Z</time></trkpt><trkpt lat="43.658168529802175" lon="12.483069621817823"><ele>447.00000000000006</ele><time>2026-04-25T09:46:58.999Z</time></trkpt><trkpt lat="43.658266133657435" lon="12.483021203218199"><ele>447.00000000000006</ele><time>2026-04-25T09:46:59.999Z</time></trkpt><trkpt lat="43.658340653701494" lon="12.482965137283184"><ele>447.0</ele><time>2026-04-25T09:47:00.999Z</time></trkpt><trkpt lat="43.658387350031155" lon="12.482903049178786"><ele>447.0</ele><time>2026-04-25T09:47:01.999Z</time></trkpt><trkpt lat="43.65840357229891" lon="12.482760133328968"><ele>452.6</ele><time>2026-04-25T09:47:03.999Z</time></trkpt><trkpt lat="43.65833874065814" lon="12.482708461151029"><ele>458.20000000000005</ele><time>2026-04-25T09:47:04.999Z</time></trkpt><trkpt lat="43.658250831342755" lon="12.482744507771082"><ele>463.8</ele><time>2026-04-25T09:47:05.999Z</time></trkpt><trkpt lat="43.658174530734875" lon="12.482844583187056"><ele>469.4</ele><time>2026-04-25T09:47:06.999Z</time></trkpt><trkpt lat="43.65808289006583" lon="12.482886960341803"><ele>475.0</ele><time>2026-04-25T09:47:07.999Z</time></trkpt><trkpt lat="43.657974366536514" lon="12.482901054958718"><ele>471.75</ele><time>2026-04-25T09:47:08.999Z</time></trkpt><trkpt lat="43.657843848983134" lon="12.482932204548245"><ele>468.5</ele><time>2026-04-25T09:47:09.999Z</time></trkpt><trkpt lat="43.657706770106806" lon="12.482972929640384"><ele>465.25</ele><time>2026-04-25T09:47:10.999Z</time></trkpt><trkpt lat="43.65756715942051" lon="12.483018984719074"><ele>462.0</ele><time>2026-04-25T09:47:11.999Z</time></trkpt><trkpt lat="43.65742234071344" lon="12.483091883726274"><ele>462.0</ele><time>2026-04-25T09:47:12.999Z</time></trkpt><trkpt lat="43.65731541328921" lon="12.483185885175358"><ele>462.00000000000006</ele><time>2026-04-25T09:47:13.999Z</time></trkpt><trkpt lat="43.657221819706905" lon="12.483218761539685"><ele>462.00000000000006</ele><time>2026-04-25T09:47:14.999Z</time></trkpt><trkpt lat="43.65714857444914" lon="12.483217131659659"><ele>462.0</ele><time>2026-04-25T09:47:15.999Z</time></trkpt><trkpt lat="43.657113565722746" lon="12.48311276850642"><ele>462.0</ele><time>2026-04-25T09:47:17.999Z</time></trkpt><trkpt lat="43.65722178040006" lon="12.483082599113517"><ele>462.0</ele><time>2026-04-25T09:47:19.999Z</time></trkpt><trkpt lat="43.65730617879315" lon="12.483032429779927"><ele>462.00000000000006</ele><time>2026-04-25T09:47:20.999Z</time></trkpt><trkpt lat="43.6573882360163" lon="12.48298007958617"><ele>462.00000000000006</ele><time>2026-04-25T09:47:21.999Z</time></trkpt><trkpt lat="43.65743732084879" lon="12.482846100384473"><ele>462.0</ele><time>2026-04-25T09:47:22.999Z</time></trkpt><trkpt lat="43.65752166285651" lon="12.482746571908491"><ele>462.0</ele><time>2026-04-25T09:47:23.999Z</time></trkpt><trkpt lat="43.65762089533811" lon="12.482645748652287"><ele>465.25</ele><time>2026-04-25T09:47:24.999Z</time></trkpt><trkpt lat="43.65771177147623" lon="12.482595669305152"><ele>468.5</ele><time>2026-04-25T09:47:26Z</time></trkpt><trkpt lat="43.6578247058112" lon="12.482502324652627"><ele>471.75</ele><time>2026-04-25T09:47:27Z</time></trkpt><trkpt lat="43.65792770752808" lon="12.482404663246477"><ele>475.0</ele><time>2026-04-25T09:47:28Z</time></trkpt><trkpt lat="43.658022637481075" lon="12.48229931150717"><ele>475.0</ele><time>2026-04-25T09:47:29Z</time></trkpt><trkpt lat="43.658074056107104" lon="12.48216016872462"><ele>475.0</ele><time>2026-04-25T09:47:30Z</time></trkpt><trkpt lat="43.65811022707895" lon="12.482038725133158"><ele>475.0</ele><time>2026-04-25T09:47:31Z</time></trkpt><trkpt lat="43.65813907574966" lon="12.481877091924357"><ele>475.0</ele><time>2026-04-25T09:47:32Z</time></trkpt><trkpt lat="43.65821835314873" lon="12.481798523717874"><ele>475.0</ele><time>2026-04-25T09:47:33Z</time></trkpt><trkpt lat="43.65831350660101" lon="12.481724182796249"><ele>477.25</ele><time>2026-04-25T09:47:34Z</time></trkpt><trkpt lat="43.65841224695334" lon="12.481619111788783"><ele>479.5</ele><time>2026-04-25T09:47:35Z</time></trkpt><trkpt lat="43.65851967227994" lon="12.48146958353227"><ele>481.75</ele><time>2026-04-25T09:47:36Z</time></trkpt><trkpt lat="43.658618892303096" lon="12.481369194612737"><ele>484.0</ele><time>2026-04-25T09:47:37Z</time></trkpt><trkpt lat="43.658712951997565" lon="12.481285370343949"><ele>487.83333333333337</ele><time>2026-04-25T09:47:38Z</time></trkpt><trkpt lat="43.65878761133893" lon="12.4812195463786"><ele>491.6666666666667</ele><time>2026-04-25T09:47:39Z</time></trkpt><trkpt lat="43.65876723096385" lon="12.48106788680254"><ele>495.5</ele><time>2026-04-25T09:47:41Z</time></trkpt><trkpt lat="43.65870078525812" lon="12.481011529931202"><ele>499.33333333333337</ele><time>2026-04-25T09:47:42Z</time></trkpt><trkpt lat="43.658621608704415" lon="12.481023988129776"><ele>503.1666666666667</ele><time>2026-04-25T09:47:43Z</time></trkpt><trkpt lat="43.65854577371617" lon="12.481047856418218"><ele>507.0</ele><time>2026-04-25T09:47:44Z</time></trkpt><trkpt lat="43.65844639103604" lon="12.481081993463102"><ele>508.25</ele><time>2026-04-25T09:47:45Z</time></trkpt><trkpt lat="43.65832287141904" lon="12.48112668476435"><ele>509.5</ele><time>2026-04-25T09:47:46Z</time></trkpt><trkpt lat="43.65820386673629" lon="12.48117008848193"><ele>510.75</ele><time>2026-04-25T09:47:47Z</time></trkpt><trkpt lat="43.658089094718946" lon="12.48121929765575"><ele>512.0</ele><time>2026-04-25T09:47:48Z</time></trkpt><trkpt lat="43.65796925785515" lon="12.481294708228573"><ele>510.75</ele><time>2026-04-25T09:47:49Z</time></trkpt><trkpt lat="43.65785815162959" lon="12.481393703414302"><ele>509.5</ele><time>2026-04-25T09:47:50Z</time></trkpt><trkpt lat="43.657774587185344" lon="12.481516721548102"><ele>508.25</ele><time>2026-04-25T09:47:51Z</time></trkpt><trkpt lat="43.657680128519374" lon="12.481622402407089"><ele>507.0</ele><time>2026-04-25T09:47:52Z</time></trkpt><trkpt lat="43.657574559480224" lon="12.481693069664571"><ele>507.0</ele><time>2026-04-25T09:47:53Z</time></trkpt><trkpt lat="43.65747361164748" lon="12.481754953070684"><ele>507.0</ele><time>2026-04-25T09:47:54Z</time></trkpt><trkpt lat="43.65737464420741" lon="12.481769069056076"><ele>507.0</ele><time>2026-04-25T09:47:55Z</time></trkpt><trkpt lat="43.65729754931983" lon="12.48177349204845"><ele>507.0</ele><time>2026-04-25T09:47:56Z</time></trkpt><trkpt lat="43.65722956541106" lon="12.481746628958598"><ele>507.0</ele><time>2026-04-25T09:47:57Z</time></trkpt><trkpt lat="43.6571671539034" lon="12.481679288733453"><ele>507.0</ele><time>2026-04-25T09:47:58Z</time></trkpt><trkpt lat="43.65710684570149" lon="12.48159234433638"><ele>507.0</ele><time>2026-04-25T09:47:59Z</time></trkpt><trkpt lat="43.65704976124506" lon="12.481498885462843"><ele>507.0</ele><time>2026-04-25T09:48:00Z</time></trkpt><trkpt lat="43.65706146915934" lon="12.481381767241569"><ele>507.0</ele><time>2026-04-25T09:48:01Z</time></trkpt><trkpt lat="43.65711375164182" lon="12.481294575041522"><ele>507.0</ele><time>2026-04-25T09:48:02Z</time></trkpt><trkpt lat="43.657193691913" lon="12.481232789989887"><ele>507.0</ele><time>2026-04-25T09:48:03Z</time></trkpt><trkpt lat="43.65728891649167" lon="12.481196944365356"><ele>507.0</ele><time>2026-04-25T09:48:04Z</time></trkpt><trkpt lat="43.65739118248881" lon="12.481151687157096"><ele>510.0</ele><time>2026-04-25T09:48:05Z</time></trkpt><trkpt lat="43.65747330627433" lon="12.48107019225776"><ele>513.0</ele><time>2026-04-25T09:48:06Z</time></trkpt><trkpt lat="43.65753659568546" lon="12.480972088255792"><ele>516.0</ele><time>2026-04-25T09:48:07Z</time></trkpt><trkpt lat="43.65756643147227" lon="12.480842675265032"><ele>519.0</ele><time>2026-04-25T09:48:08Z</time></trkpt><trkpt lat="43.657592504362505" lon="12.480717342608738"><ele>522.0</ele><time>2026-04-25T09:48:09Z</time></trkpt><trkpt lat="43.65764226822312" lon="12.480609672194118"><ele>522.0</ele><time>2026-04-25T09:48:10Z</time></trkpt><trkpt lat="43.65772239933268" lon="12.480530915311295"><ele>522.0</ele><time>2026-04-25T09:48:11Z</time></trkpt><trkpt lat="43.657821865516354" lon="12.480470223590315"><ele>522.0</ele><time>2026-04-25T09:48:12Z</time></trkpt><trkpt lat="43.65792466371932" lon="12.480417046964392"><ele>522.0</ele><time>2026-04-25T09:48:13Z</time></trkpt><trkpt lat="43.65802518113922" lon="12.48034994620694"><ele>522.0</ele><time>2026-04-25T09:48:14Z</time></trkpt><trkpt lat="43.65810530845501" lon="12.480254120591173"><ele>524.5</ele><time>2026-04-25T09:48:14.999Z</time></trkpt><trkpt lat="43.658167826516184" lon="12.480116958773175"><ele>527.0</ele><time>2026-04-25T09:48:15.999Z</time></trkpt><trkpt lat="43.65823264009382" lon="12.479958814727713"><ele>529.5</ele><time>2026-04-25T09:48:16.999Z</time></trkpt><trkpt lat="43.65831289531446" lon="12.479804804551799"><ele>532.0</ele><time>2026-04-25T09:48:17.999Z</time></trkpt><trkpt lat="43.65836930001014" lon="12.479707056253087"><ele>532.0</ele><time>2026-04-25T09:48:18.999Z</time></trkpt><trkpt lat="43.65841472806178" lon="12.479616075322403"><ele>532.0</ele><time>2026-04-25T09:48:19.999Z</time></trkpt><trkpt lat="43.65837228884956" lon="12.47949372018322"><ele>532.0</ele><time>2026-04-25T09:48:21.999Z</time></trkpt><trkpt lat="43.65829854411537" lon="12.479481709512985"><ele>532.0</ele><time>2026-04-25T09:48:22.999Z</time></trkpt><trkpt lat="43.65821778956963" lon="12.479509259825097"><ele>532.0</ele><time>2026-04-25T09:48:23.999Z</time></trkpt><trkpt lat="43.658139990563654" lon="12.479614001283176"><ele>532.0</ele><time>2026-04-25T09:48:24.999Z</time></trkpt><trkpt lat="43.658043855543134" lon="12.479701454645015"><ele>532.0</ele><time>2026-04-25T09:48:25.999Z</time></trkpt><trkpt lat="43.65793062017374" lon="12.479804463758311"><ele>532.0</ele><time>2026-04-25T09:48:26.999Z</time></trkpt><trkpt lat="43.65780851485061" lon="12.479884677004453"><ele>532.0</ele><time>2026-04-25T09:48:27.999Z</time></trkpt><trkpt lat="43.65768402815824" lon="12.479981358852175"><ele>532.0</ele><time>2026-04-25T09:48:28.999Z</time></trkpt><trkpt lat="43.65760612954857" lon="12.480067807139474"><ele>534.1666666666667</ele><time>2026-04-25T09:48:29.999Z</time></trkpt><trkpt lat="43.65750799208346" lon="12.480039109938803"><ele>536.3333333333334</ele><time>2026-04-25T09:48:31.999Z</time></trkpt><trkpt lat="43.65750637683319" lon="12.47994069133938"><ele>538.5</ele><time>2026-04-25T09:48:32.999Z</time></trkpt><trkpt lat="43.65749847088577" lon="12.479851569249261"><ele>540.6666666666666</ele><time>2026-04-25T09:48:33.999Z</time></trkpt><trkpt lat="43.6574863148316" lon="12.479736079724713"><ele>542.8333333333333</ele><time>2026-04-25T09:48:34.999Z</time></trkpt><trkpt lat="43.65747967319159" lon="12.479623928174094"><ele>545.0</ele><time>2026-04-25T09:48:35.999Z</time></trkpt><trkpt lat="43.657511626064974" lon="12.479510146436043"><ele>545.0</ele><time>2026-04-25T09:48:36.999Z</time></trkpt><trkpt lat="43.65755228623519" lon="12.479386036920593"><ele>545.0</ele><time>2026-04-25T09:48:37.999Z</time></trkpt><trkpt lat="43.657594757969484" lon="12.479265093354027"><ele>545.0</ele><time>2026-04-25T09:48:38.999Z</time></trkpt><trkpt lat="43.65765665365343" lon="12.479159012463462"><ele>545.0</ele><time>2026-04-25T09:48:39.999Z</time></trkpt><trkpt lat="43.657744997799824" lon="12.479072592282344"><ele>545.0</ele><time>2026-04-25T09:48:40.999Z</time></trkpt><trkpt lat="43.65784313048322" lon="12.478994491495977"><ele>545.0</ele><time>2026-04-25T09:48:41.999Z</time></trkpt><trkpt lat="43.65792693324574" lon="12.478909732897185"><ele>545.0</ele><time>2026-04-25T09:48:42.999Z</time></trkpt><trkpt lat="43.658010802571354" lon="12.478798477210336"><ele>545.0</ele><time>2026-04-25T09:48:43.999Z</time></trkpt><trkpt lat="43.65809982939884" lon="12.478690973927188"><ele>545.0</ele><time>2026-04-25T09:48:44.999Z</time></trkpt><trkpt lat="43.65818490558441" lon="12.478583887393796"><ele>549.5</ele><time>2026-04-25T09:48:45.999Z</time></trkpt><trkpt lat="43.65828800860511" lon="12.478489302956234"><ele>554.0</ele><time>2026-04-25T09:48:46.999Z</time></trkpt><trkpt lat="43.6584007172023" lon="12.478435878053414"><ele>558.5</ele><time>2026-04-25T09:48:47.999Z</time></trkpt><trkpt lat="43.65852066274027" lon="12.478407642116153"><ele>563.0</ele><time>2026-04-25T09:48:48.999Z</time></trkpt><trkpt lat="43.65863984444271" lon="12.478396651435585"><ele>563.0</ele><time>2026-04-25T09:48:49.999Z</time></trkpt><trkpt lat="43.658750018400255" lon="12.478385786021152"><ele>563.0</ele><time>2026-04-25T09:48:50.999Z</time></trkpt><trkpt lat="43.658873270142934" lon="12.47839050341673"><ele>563.0</ele><time>2026-04-25T09:48:51.999Z</time></trkpt><trkpt lat="43.658984132112984" lon="12.478391830081575"><ele>563.0</ele><time>2026-04-25T09:48:52.999Z</time></trkpt><trkpt lat="43.659065607671536" lon="12.47839369678233"><ele>563.0</ele><time>2026-04-25T09:48:53.999Z</time></trkpt><trkpt lat="43.6590285252669" lon="12.478259926677092"><ele>563.0</ele><time>2026-04-25T09:48:57.999Z</time></trkpt><trkpt lat="43.658931742204246" lon="12.478241294963698"><ele>563.0</ele><time>2026-04-25T09:48:58.999Z</time></trkpt><trkpt lat="43.65883045239564" lon="12.478216286896274"><ele>563.0</ele><time>2026-04-25T09:48:59.999Z</time></trkpt><trkpt lat="43.65872570206711" lon="12.478186000810846"><ele>563.0</ele><time>2026-04-25T09:49:00.999Z</time></trkpt><trkpt lat="43.658624371160215" lon="12.478153526435733"><ele>563.0</ele><time>2026-04-25T09:49:01.999Z</time></trkpt><trkpt lat="43.658544904001275" lon="12.478130166804013"><ele>563.6</ele><time>2026-04-25T09:49:02.999Z</time></trkpt><trkpt lat="43.65845823420377" lon="12.478048095187468"><ele>564.1999999999999</ele><time>2026-04-25T09:49:04.999Z</time></trkpt><trkpt lat="43.65847245539532" lon="12.47793334228019"><ele>564.8</ele><time>2026-04-25T09:49:05.999Z</time></trkpt><trkpt lat="43.65844091762843" lon="12.477827843436046"><ele>565.4</ele><time>2026-04-25T09:49:06.999Z</time></trkpt><trkpt lat="43.65842760370549" lon="12.477715203154505"><ele>566.0</ele><time>2026-04-25T09:49:07.999Z</time></trkpt><trkpt lat="43.65834721932065" lon="12.477641855250807"><ele>566.6</ele><time>2026-04-25T09:49:08.999Z</time></trkpt><trkpt lat="43.65827706717314" lon="12.47755789733627"><ele>567.2</ele><time>2026-04-25T09:49:09.999Z</time></trkpt><trkpt lat="43.65822114485843" lon="12.477450627412765"><ele>567.8</ele><time>2026-04-25T09:49:10.999Z</time></trkpt><trkpt lat="43.65814667702502" lon="12.477390147427556"><ele>568.4</ele><time>2026-04-25T09:49:11.999Z</time></trkpt><trkpt lat="43.65808742826318" lon="12.47735207796551"><ele>569.0</ele><time>2026-04-25T09:49:12.999Z</time></trkpt><trkpt lat="43.65796934620238" lon="12.47742859463914"><ele>569.0</ele><time>2026-04-25T09:49:14.999Z</time></trkpt><trkpt lat="43.65797686420257" lon="12.477591380297158"><ele>569.0</ele><time>2026-04-25T09:49:15.999Z</time></trkpt><trkpt lat="43.657982718657465" lon="12.47770230746685"><ele>569.0</ele><time>2026-04-25T09:49:16.999Z</time></trkpt><trkpt lat="43.65795369568117" lon="12.477807902691238"><ele>569.0</ele><time>2026-04-25T09:49:17.999Z</time></trkpt><trkpt lat="43.657935749903935" lon="12.477898381776251"><ele>569.0</ele><time>2026-04-25T09:49:18.999Z</time></trkpt><trkpt lat="43.65782144377006" lon="12.47804620155842"><ele>570.6</ele><time>2026-04-25T09:49:20.999Z</time></trkpt><trkpt lat="43.65775736855392" lon="12.47814425008225"><ele>572.2</ele><time>2026-04-25T09:49:21.999Z</time></trkpt><trkpt lat="43.65769224745912" lon="12.478234642475492"><ele>573.8000000000001</ele><time>2026-04-25T09:49:22.999Z</time></trkpt><trkpt lat="43.65762532209838" lon="12.478331248519657"><ele>575.4</ele><time>2026-04-25T09:49:23.999Z</time></trkpt><trkpt lat="43.657527618065316" lon="12.478352884089679"><ele>577.0</ele><time>2026-04-25T09:49:24.999Z</time></trkpt><trkpt lat="43.65743530223666" lon="12.478394408815923"><ele>577.0</ele><time>2026-04-25T09:49:25.999Z</time></trkpt><trkpt lat="43.65733965672276" lon="12.478391586086667"><ele>577.0</ele><time>2026-04-25T09:49:26.999Z</time></trkpt><trkpt lat="43.657250216532375" lon="12.478373178799732"><ele>577.0</ele><time>2026-04-25T09:49:27.999Z</time></trkpt><trkpt lat="43.65716152386045" lon="12.478342271160145"><ele>577.0</ele><time>2026-04-25T09:49:28.999Z</time></trkpt><trkpt lat="43.65709047606002" lon="12.47830655878193"><ele>577.0</ele><time>2026-04-25T09:49:29.999Z</time></trkpt><trkpt lat="43.657027588916286" lon="12.478262277933007"><ele>577.0</ele><time>2026-04-25T09:49:30.999Z</time></trkpt><trkpt lat="43.65695766017195" lon="12.478201852587654"><ele>577.8000000000001</ele><time>2026-04-25T09:49:32Z</time></trkpt><trkpt lat="43.65688529830328" lon="12.478117740601324"><ele>578.6</ele><time>2026-04-25T09:49:33Z</time></trkpt><trkpt lat="43.65680383844094" lon="12.478030907747586"><ele>579.4000000000001</ele><time>2026-04-25T09:49:34Z</time></trkpt><trkpt lat="43.65670810989998" lon="12.47795402207615"><ele>580.2</ele><time>2026-04-25T09:49:35Z</time></trkpt><trkpt lat="43.656613225996814" lon="12.477856237748355"><ele>581.0</ele><time>2026-04-25T09:49:36Z</time></trkpt><trkpt lat="43.65651186983211" lon="12.477791147213425"><ele>583.2</ele><time>2026-04-25T09:49:37Z</time></trkpt><trkpt lat="43.656413453429074" lon="12.477782802558766"><ele>585.4000000000001</ele><time>2026-04-25T09:49:38Z</time></trkpt><trkpt lat="43.65632152153184" lon="12.47778831598059"><ele>587.6</ele><time>2026-04-25T09:49:39Z</time></trkpt><trkpt lat="43.656227762081635" lon="12.477774240437055"><ele>589.8000000000001</ele><time>2026-04-25T09:49:40Z</time></trkpt><trkpt lat="43.6561308322704" lon="12.477789988316433"><ele>592.0</ele><time>2026-04-25T09:49:41Z</time></trkpt><trkpt lat="43.65603959236326" lon="12.477793643314255"><ele>592.0</ele><time>2026-04-25T09:49:42Z</time></trkpt><trkpt lat="43.65596856011937" lon="12.477774970725244"><ele>592.0</ele><time>2026-04-25T09:49:43Z</time></trkpt><trkpt lat="43.65590225509976" lon="12.47773371758759"><ele>592.0</ele><time>2026-04-25T09:49:44Z</time></trkpt><trkpt lat="43.65582889756616" lon="12.477706273548925"><ele>592.0</ele><time>2026-04-25T09:49:45Z</time></trkpt><trkpt lat="43.65576288299275" lon="12.477642819468025"><ele>592.0</ele><time>2026-04-25T09:49:46Z</time></trkpt><trkpt lat="43.65569435329148" lon="12.477577179552975"><ele>592.0</ele><time>2026-04-25T09:49:47Z</time></trkpt><trkpt lat="43.655623654644536" lon="12.477517921309651"><ele>592.0</ele><time>2026-04-25T09:49:48Z</time></trkpt><trkpt lat="43.65554757627652" lon="12.477454666785718"><ele>592.0</ele><time>2026-04-25T09:49:49Z</time></trkpt><trkpt lat="43.65547229329112" lon="12.477394894443158"><ele>592.0</ele><time>2026-04-25T09:49:50Z</time></trkpt><trkpt lat="43.655399066935175" lon="12.477320339031149"><ele>592.0</ele><time>2026-04-25T09:49:51Z</time></trkpt><trkpt lat="43.655331379138616" lon="12.477242646229207"><ele>592.0</ele><time>2026-04-25T09:49:52Z</time></trkpt><trkpt lat="43.65526663519443" lon="12.47717509151863"><ele>592.0</ele><time>2026-04-25T09:49:53Z</time></trkpt><trkpt lat="43.65519607493435" lon="12.477127816816871"><ele>592.0</ele><time>2026-04-25T09:49:54Z</time></trkpt><trkpt lat="43.65513142365884" lon="12.477102891107936"><ele>592.0</ele><time>2026-04-25T09:49:55Z</time></trkpt><trkpt lat="43.65502701083866" lon="12.47707987144217"><ele>592.0</ele><time>2026-04-25T09:49:57Z</time></trkpt><trkpt lat="43.65494940009737" lon="12.47723998713216"><ele>592.0</ele><time>2026-04-25T09:49:58Z</time></trkpt><trkpt lat="43.654874293207065" lon="12.477282488881992"><ele>592.0</ele><time>2026-04-25T09:49:59Z</time></trkpt><trkpt lat="43.65479699602879" lon="12.477279068877824"><ele>592.0</ele><time>2026-04-25T09:50:00Z</time></trkpt><trkpt lat="43.654717541557126" lon="12.477250048900567"><ele>592.0</ele><time>2026-04-25T09:50:01Z</time></trkpt><trkpt lat="43.65463476671006" lon="12.47721126874372"><ele>592.0</ele><time>2026-04-25T09:50:02Z</time></trkpt><trkpt lat="43.65456211742799" lon="12.47717308974112"><ele>592.0</ele><time>2026-04-25T09:50:03Z</time></trkpt><trkpt lat="43.65452020057083" lon="12.477079403097466"><ele>592.0</ele><time>2026-04-25T09:50:04Z</time></trkpt><trkpt lat="43.654461034377654" lon="12.477005121794965"><ele>592.0</ele><time>2026-04-25T09:50:05Z</time></trkpt><trkpt lat="43.65443233179807" lon="12.476901560288672"><ele>593.5</ele><time>2026-04-25T09:50:06Z</time></trkpt><trkpt lat="43.65442029791397" lon="12.47678578878901"><ele>595.0</ele><time>2026-04-25T09:50:07Z</time></trkpt><trkpt lat="43.654420652863045" lon="12.476671361197393"><ele>596.5</ele><time>2026-04-25T09:50:08Z</time></trkpt><trkpt lat="43.65442693853609" lon="12.476555541499886"><ele>598.0</ele><time>2026-04-25T09:50:09Z</time></trkpt><trkpt lat="43.65444612625151" lon="12.476433514576627"><ele>599.5</ele><time>2026-04-25T09:50:10Z</time></trkpt><trkpt lat="43.65447487048078" lon="12.476314629893746"><ele>601.0</ele><time>2026-04-25T09:50:11Z</time></trkpt><trkpt lat="43.65449163140179" lon="12.4761941376516"><ele>601.4</ele><time>2026-04-25T09:50:12Z</time></trkpt><trkpt lat="43.654482350146495" lon="12.476066244644725"><ele>601.8</ele><time>2026-04-25T09:50:13Z</time></trkpt><trkpt lat="43.65445696657981" lon="12.475935115345246"><ele>602.1999999999999</ele><time>2026-04-25T09:50:14Z</time></trkpt><trkpt lat="43.654423061312265" lon="12.47580664217195"><ele>602.6</ele><time>2026-04-25T09:50:15Z</time></trkpt><trkpt lat="43.6543885924564" lon="12.475675202703073"><ele>603.0</ele><time>2026-04-25T09:50:16Z</time></trkpt><trkpt lat="43.65434182039101" lon="12.475548628567209"><ele>605.4</ele><time>2026-04-25T09:50:17Z</time></trkpt><trkpt lat="43.654294273170954" lon="12.475422482110824"><ele>607.8</ele><time>2026-04-25T09:50:18Z</time></trkpt><trkpt lat="43.65423167608069" lon="12.475302743811232"><ele>610.2</ele><time>2026-04-25T09:50:19Z</time></trkpt><trkpt lat="43.654167100466694" lon="12.47518848032053"><ele>612.6</ele><time>2026-04-25T09:50:20Z</time></trkpt><trkpt lat="43.65410304310159" lon="12.47507167751065"><ele>615.0</ele><time>2026-04-25T09:50:21Z</time></trkpt><trkpt lat="43.654038745864646" lon="12.474966014966213"><ele>615.0</ele><time>2026-04-25T09:50:22Z</time></trkpt><trkpt lat="43.653971403200856" lon="12.474859378117756"><ele>615.0</ele><time>2026-04-25T09:50:23Z</time></trkpt><trkpt lat="43.65389648195537" lon="12.4747592724532"><ele>615.0</ele><time>2026-04-25T09:50:24Z</time></trkpt><trkpt lat="43.65382569899173" lon="12.47465395876747"><ele>615.0</ele><time>2026-04-25T09:50:25Z</time></trkpt><trkpt lat="43.653758939402024" lon="12.474546614457577"><ele>615.0</ele><time>2026-04-25T09:50:26Z</time></trkpt><trkpt lat="43.653698182890174" lon="12.474426160153245"><ele>616.2</ele><time>2026-04-25T09:50:27Z</time></trkpt><trkpt lat="43.65365237618601" lon="12.474312783461365"><ele>617.4</ele><time>2026-04-25T09:50:28Z</time></trkpt><trkpt lat="43.653632820773204" lon="12.474186878419152"><ele>618.6</ele><time>2026-04-25T09:50:29Z</time></trkpt><trkpt lat="43.653674270357584" lon="12.474055712527925"><ele>619.8</ele><time>2026-04-25T09:50:30Z</time></trkpt><trkpt lat="43.653690916511366" lon="12.473922643878549"><ele>621.0</ele><time>2026-04-25T09:50:31Z</time></trkpt><trkpt lat="43.65374208365081" lon="12.47379491817335"><ele>620.8</ele><time>2026-04-25T09:50:32Z</time></trkpt><trkpt lat="43.65376156750742" lon="12.473657049560224"><ele>620.6</ele><time>2026-04-25T09:50:33Z</time></trkpt><trkpt lat="43.653761966153944" lon="12.473510380390623"><ele>620.4</ele><time>2026-04-25T09:50:34Z</time></trkpt><trkpt lat="43.653766868027866" lon="12.473356617835258"><ele>620.2</ele><time>2026-04-25T09:50:35Z</time></trkpt><trkpt lat="43.65377971836387" lon="12.473192218071652"><ele>620.0</ele><time>2026-04-25T09:50:36Z</time></trkpt><trkpt lat="43.653802849215985" lon="12.473025736387397"><ele>621.5</ele><time>2026-04-25T09:50:37Z</time></trkpt><trkpt lat="43.653857880045386" lon="12.472881223199277"><ele>623.0</ele><time>2026-04-25T09:50:38Z</time></trkpt><trkpt lat="43.6539011581654" lon="12.472722314115908"><ele>624.5</ele><time>2026-04-25T09:50:39Z</time></trkpt><trkpt lat="43.65395935185958" lon="12.472577889985997"><ele>626.0</ele><time>2026-04-25T09:50:39.999Z</time></trkpt><trkpt lat="43.65399455225517" lon="12.47244397270378"><ele>626.0</ele><time>2026-04-25T09:50:40.999Z</time></trkpt><trkpt lat="43.6540044950237" lon="12.47231491836834"><ele>626.0</ele><time>2026-04-25T09:50:41.999Z</time></trkpt><trkpt lat="43.6539963858924" lon="12.47219171990531"><ele>626.0</ele><time>2026-04-25T09:50:42.999Z</time></trkpt><trkpt lat="43.653990116320415" lon="12.472079286574955"><ele>626.0</ele><time>2026-04-25T09:50:43.999Z</time></trkpt><trkpt lat="43.65398344750629" lon="12.47194802634305"><ele>626.0</ele><time>2026-04-25T09:50:44.999Z</time></trkpt><trkpt lat="43.653977666377116" lon="12.471813101431916"><ele>625.5</ele><time>2026-04-25T09:50:45.999Z</time></trkpt><trkpt lat="43.653969000605755" lon="12.471651365751475"><ele>625.0</ele><time>2026-04-25T09:50:46.999Z</time></trkpt><trkpt lat="43.65396166875799" lon="12.471488735109563"><ele>624.5</ele><time>2026-04-25T09:50:47.999Z</time></trkpt><trkpt lat="43.65395401880486" lon="12.471324530567482"><ele>624.0</ele><time>2026-04-25T09:50:48.999Z</time></trkpt><trkpt lat="43.65394041889878" lon="12.471162566266063"><ele>623.0</ele><time>2026-04-25T09:50:49.999Z</time></trkpt><trkpt lat="43.65392424921518" lon="12.47100040968463"><ele>622.0</ele><time>2026-04-25T09:50:50.999Z</time></trkpt><trkpt lat="43.653908047846066" lon="12.47083641228835"><ele>621.0</ele><time>2026-04-25T09:50:51.999Z</time></trkpt><trkpt lat="43.65388887005617" lon="12.470670966606061"><ele>620.0</ele><time>2026-04-25T09:50:52.999Z</time></trkpt><trkpt lat="43.65386756294274" lon="12.470526670331049"><ele>619.8</ele><time>2026-04-25T09:50:53.999Z</time></trkpt><trkpt lat="43.65385467255691" lon="12.470391871198885"><ele>619.6</ele><time>2026-04-25T09:50:54.999Z</time></trkpt><trkpt lat="43.65384152175717" lon="12.470250853526208"><ele>619.4</ele><time>2026-04-25T09:50:55.999Z</time></trkpt><trkpt lat="43.65383669077955" lon="12.47012703941437"><ele>619.2</ele><time>2026-04-25T09:50:56.999Z</time></trkpt><trkpt lat="43.653832192090825" lon="12.469989692245065"><ele>619.0</ele><time>2026-04-25T09:50:57.999Z</time></trkpt><trkpt lat="43.65383702785523" lon="12.469854758355517"><ele>619.0</ele><time>2026-04-25T09:50:58.999Z</time></trkpt><trkpt lat="43.65384566596205" lon="12.469726753245704"><ele>619.0</ele><time>2026-04-25T09:50:59.999Z</time></trkpt><trkpt lat="43.65387256704346" lon="12.469631253596617"><ele>619.0</ele><time>2026-04-25T09:51:00.999Z</time></trkpt><trkpt lat="43.65389958036975" lon="12.469526590897045"><ele>619.0</ele><time>2026-04-25T09:51:01.999Z</time></trkpt><trkpt lat="43.65392400462459" lon="12.46940499751964"><ele>619.0</ele><time>2026-04-25T09:51:02.999Z</time></trkpt><trkpt lat="43.653949437186604" lon="12.469276816130108"><ele>619.0</ele><time>2026-04-25T09:51:03.999Z</time></trkpt><trkpt lat="43.653978092567726" lon="12.469154315531222"><ele>619.4</ele><time>2026-04-25T09:51:04.999Z</time></trkpt><trkpt lat="43.654009705118554" lon="12.469029605276706"><ele>619.8</ele><time>2026-04-25T09:51:05.999Z</time></trkpt><trkpt lat="43.654040385302544" lon="12.468918665109339"><ele>620.2</ele><time>2026-04-25T09:51:06.999Z</time></trkpt><trkpt lat="43.65406874379278" lon="12.468816121090509"><ele>620.6</ele><time>2026-04-25T09:51:07.999Z</time></trkpt><trkpt lat="43.654097737553975" lon="12.468696149609684"><ele>621.0</ele><time>2026-04-25T09:51:09.999Z</time></trkpt><trkpt lat="43.65411887948405" lon="12.46853705977461"><ele>621.0</ele><time>2026-04-25T09:51:14.999Z</time></trkpt><trkpt lat="43.65414801840505" lon="12.46843744211509"><ele>621.0</ele><time>2026-04-25T09:51:15.999Z</time></trkpt><trkpt lat="43.6541823051025" lon="12.468335363952457"><ele>621.0</ele><time>2026-04-25T09:51:16.999Z</time></trkpt><trkpt lat="43.654232580805974" lon="12.468227924498224"><ele>621.0</ele><time>2026-04-25T09:51:17.999Z</time></trkpt><trkpt lat="43.654293180136946" lon="12.468116697641577"><ele>621.0</ele><time>2026-04-25T09:51:18.999Z</time></trkpt><trkpt lat="43.654355543237195" lon="12.467994310438907"><ele>620.8</ele><time>2026-04-25T09:51:19.999Z</time></trkpt><trkpt lat="43.65439402337363" lon="12.467873082468005"><ele>620.6</ele><time>2026-04-25T09:51:20.999Z</time></trkpt><trkpt lat="43.65440172891766" lon="12.467738254946743"><ele>620.4</ele><time>2026-04-25T09:51:21.999Z</time></trkpt><trkpt lat="43.65438792960085" lon="12.467594025460441"><ele>620.2</ele><time>2026-04-25T09:51:22.999Z</time></trkpt><trkpt lat="43.654372970745655" lon="12.467446855803663"><ele>620.0</ele><time>2026-04-25T09:51:23.999Z</time></trkpt><trkpt lat="43.65436994921482" lon="12.467299818221532"><ele>620.0</ele><time>2026-04-25T09:51:24.999Z</time></trkpt><trkpt lat="43.654356415245715" lon="12.46715838315901"><ele>620.0</ele><time>2026-04-25T09:51:25.999Z</time></trkpt><trkpt lat="43.65432180965214" lon="12.467042435727745"><ele>620.0</ele><time>2026-04-25T09:51:26.999Z</time></trkpt><trkpt lat="43.65426813158715" lon="12.466929517441335"><ele>620.0</ele><time>2026-04-25T09:51:27.999Z</time></trkpt><trkpt lat="43.654201412154244" lon="12.466832011754462"><ele>620.0</ele><time>2026-04-25T09:51:28.999Z</time></trkpt><trkpt lat="43.654143644756225" lon="12.466731782140535"><ele>620.8333333333333</ele><time>2026-04-25T09:51:29.999Z</time></trkpt><trkpt lat="43.654091738109756" lon="12.466646111801655"><ele>621.6666666666666</ele><time>2026-04-25T09:51:30.999Z</time></trkpt><trkpt lat="43.6540357759417" lon="12.46657355376641"><ele>622.5</ele><time>2026-04-25T09:51:31.999Z</time></trkpt><trkpt lat="43.65397328471251" lon="12.466516497782633"><ele>623.3333333333334</ele><time>2026-04-25T09:51:32.999Z</time></trkpt><trkpt lat="43.65390291604645" lon="12.466468698551294"><ele>624.1666666666667</ele><time>2026-04-25T09:51:33.999Z</time></trkpt><trkpt lat="43.653819020443606" lon="12.466421025267618"><ele>625.0</ele><time>2026-04-25T09:51:34.999Z</time></trkpt><trkpt lat="43.65373315678207" lon="12.466381437743092"><ele>625.0</ele><time>2026-04-25T09:51:35.999Z</time></trkpt><trkpt lat="43.65364247404842" lon="12.466331097431366"><ele>625.0</ele><time>2026-04-25T09:51:36.999Z</time></trkpt><trkpt lat="43.65355229758963" lon="12.466274188824869"><ele>625.0</ele><time>2026-04-25T09:51:38Z</time></trkpt><trkpt lat="43.653463665969724" lon="12.466217358883288"><ele>625.0</ele><time>2026-04-25T09:51:39Z</time></trkpt><trkpt lat="43.65337390686531" lon="12.466165202835066"><ele>625.0</ele><time>2026-04-25T09:51:40Z</time></trkpt><trkpt lat="43.653288121950325" lon="12.466121487903376"><ele>623.0</ele><time>2026-04-25T09:51:41Z</time></trkpt><trkpt lat="43.65320889993142" lon="12.466082855591292"><ele>621.0</ele><time>2026-04-25T09:51:42Z</time></trkpt><trkpt lat="43.65312746126027" lon="12.466040436485056"><ele>619.0</ele><time>2026-04-25T09:51:43Z</time></trkpt><trkpt lat="43.65304355817045" lon="12.46599238778621"><ele>617.0</ele><time>2026-04-25T09:51:44Z</time></trkpt><trkpt lat="43.65296278797125" lon="12.465939118725505"><ele>615.0</ele><time>2026-04-25T09:51:45Z</time></trkpt><trkpt lat="43.65288368518332" lon="12.465878954996445"><ele>613.0</ele><time>2026-04-25T09:51:46Z</time></trkpt><trkpt lat="43.65281133740224" lon="12.465808755041326"><ele>613.6666666666667</ele><time>2026-04-25T09:51:47Z</time></trkpt><trkpt lat="43.65273406453151" lon="12.465732974430734"><ele>614.3333333333334</ele><time>2026-04-25T09:51:48Z</time></trkpt><trkpt lat="43.65265444624866" lon="12.4656697926255"><ele>615.0</ele><time>2026-04-25T09:51:49Z</time></trkpt><trkpt lat="43.65257627283068" lon="12.465614654841438"><ele>615.6666666666666</ele><time>2026-04-25T09:51:50Z</time></trkpt><trkpt lat="43.652506233617956" lon="12.46557618827378"><ele>616.3333333333333</ele><time>2026-04-25T09:51:51Z</time></trkpt><trkpt lat="43.65243803633784" lon="12.465560428981602"><ele>617.0</ele><time>2026-04-25T09:51:52Z</time></trkpt><trkpt lat="43.65236314848049" lon="12.465592440406926"><ele>617.0</ele><time>2026-04-25T09:51:53Z</time></trkpt><trkpt lat="43.65228500592612" lon="12.465644629526457"><ele>617.0</ele><time>2026-04-25T09:51:54Z</time></trkpt><trkpt lat="43.65220012203332" lon="12.465700175864823"><ele>617.0</ele><time>2026-04-25T09:51:55Z</time></trkpt><trkpt lat="43.652117096333534" lon="12.465744079015982"><ele>617.0</ele><time>2026-04-25T09:51:56Z</time></trkpt><trkpt lat="43.65204502976097" lon="12.465769108016014"><ele>617.0</ele><time>2026-04-25T09:51:57Z</time></trkpt><trkpt lat="43.651940640666126" lon="12.46575529366678"><ele>617.0</ele><time>2026-04-25T09:51:59Z</time></trkpt><trkpt lat="43.651830754551334" lon="12.465679571852316"><ele>619.0</ele><time>2026-04-25T09:52:01Z</time></trkpt><trkpt lat="43.65176026976187" lon="12.465639570231701"><ele>621.0</ele><time>2026-04-25T09:52:02Z</time></trkpt><trkpt lat="43.651689017645666" lon="12.465609488074849"><ele>623.0</ele><time>2026-04-25T09:52:03Z</time></trkpt><trkpt lat="43.65163128267859" lon="12.465566562757632"><ele>625.0</ele><time>2026-04-25T09:52:04Z</time></trkpt><trkpt lat="43.651565215507844" lon="12.465428824196431"><ele>627.0</ele><time>2026-04-25T09:52:06Z</time></trkpt><trkpt lat="43.651522036384435" lon="12.465291826886816"><ele>629.0</ele><time>2026-04-25T09:52:08Z</time></trkpt><trkpt lat="43.651476417396395" lon="12.465180504097422"><ele>629.1666666666666</ele><time>2026-04-25T09:52:10Z</time></trkpt><trkpt lat="43.651367414762994" lon="12.465181995273898"><ele>629.3333333333333</ele><time>2026-04-25T09:52:12Z</time></trkpt><trkpt lat="43.65129950127238" lon="12.465195410800131"><ele>629.5</ele><time>2026-04-25T09:52:13Z</time></trkpt><trkpt lat="43.6512345835424" lon="12.46517872584978"><ele>629.6666666666666</ele><time>2026-04-25T09:52:14Z</time></trkpt><trkpt lat="43.651175121573466" lon="12.465121497715213"><ele>629.8333333333334</ele><time>2026-04-25T09:52:15Z</time></trkpt><trkpt lat="43.651101589118184" lon="12.465049056241488"><ele>630.0</ele><time>2026-04-25T09:52:16Z</time></trkpt><trkpt lat="43.651056203923275" lon="12.464978844105627"><ele>647.0</ele><time>2026-04-25T09:52:17Z</time></trkpt></trkseg></trk></gpx>